<?xml version="1.0" encoding="UTF-8" standalone="no" ?>
<gpx xmlns="http://www.topografix.com/GPX/1/1" xmlns:xsi="http://www.w3.org/2001/XMLSchema-instance" xsi:schemaLocation="http://www.topografix.com/GPX/1/1 http://www.topografix.com/GPX/1/1/gpx.xsd" version="1.1" creator="VisuGPX - https://www.visugpx.com">
  <metadata>
    <name>Rando Pont-l'évêque 2017</name>
    <desc><![CDATA[Rando organisée de Beuzeville 2017]]></desc>
  </metadata>
  <trk>
    <name><![CDATA[Rando VTT Pont L'évêque 2017]]></name>
    <trkseg>
      <trkpt lat="49.28515" lon="0.18933">
        <ele>6.5</ele>
        <time>2017-05-14T07:06:30Z</time>
      </trkpt>
      <trkpt lat="49.28517" lon="0.18936">
        <ele>6.8</ele>
        <time>2017-05-14T07:06:32Z</time>
      </trkpt>
      <trkpt lat="49.28519" lon="0.18929">
        <ele>6.4</ele>
        <time>2017-05-14T07:08:14Z</time>
      </trkpt>
      <trkpt lat="49.28523" lon="0.18928">
        <ele>6.4</ele>
        <time>2017-05-14T07:08:17Z</time>
      </trkpt>
      <trkpt lat="49.28526" lon="0.18926">
        <ele>6.2</ele>
        <time>2017-05-14T07:08:19Z</time>
      </trkpt>
      <trkpt lat="49.28529" lon="0.18926">
        <ele>6.3</ele>
        <time>2017-05-14T07:08:20Z</time>
      </trkpt>
      <trkpt lat="49.28532" lon="0.18928">
        <ele>6.3</ele>
        <time>2017-05-14T07:08:21Z</time>
      </trkpt>
      <trkpt lat="49.28537" lon="0.18931">
        <ele>6.3</ele>
        <time>2017-05-14T07:08:23Z</time>
      </trkpt>
      <trkpt lat="49.28539" lon="0.18934">
        <ele>6.2</ele>
        <time>2017-05-14T07:08:24Z</time>
      </trkpt>
      <trkpt lat="49.28542" lon="0.18937">
        <ele>6.4</ele>
        <time>2017-05-14T07:08:25Z</time>
      </trkpt>
      <trkpt lat="49.28545" lon="0.18941">
        <ele>6.6</ele>
        <time>2017-05-14T07:08:26Z</time>
      </trkpt>
      <trkpt lat="49.28549" lon="0.18945">
        <ele>6.9</ele>
        <time>2017-05-14T07:08:27Z</time>
      </trkpt>
      <trkpt lat="49.28552" lon="0.18948">
        <ele>7.2</ele>
        <time>2017-05-14T07:08:28Z</time>
      </trkpt>
      <trkpt lat="49.28554" lon="0.1895">
        <ele>7.3</ele>
        <time>2017-05-14T07:08:29Z</time>
      </trkpt>
      <trkpt lat="49.28557" lon="0.18952">
        <ele>7.5</ele>
        <time>2017-05-14T07:08:30Z</time>
      </trkpt>
      <trkpt lat="49.2856" lon="0.18953">
        <ele>7.6</ele>
        <time>2017-05-14T07:08:31Z</time>
      </trkpt>
      <trkpt lat="49.28562" lon="0.18955">
        <ele>7.7</ele>
        <time>2017-05-14T07:08:32Z</time>
      </trkpt>
      <trkpt lat="49.28565" lon="0.18958">
        <ele>7.8</ele>
        <time>2017-05-14T07:08:33Z</time>
      </trkpt>
      <trkpt lat="49.28567" lon="0.18961">
        <ele>7.9</ele>
        <time>2017-05-14T07:08:34Z</time>
      </trkpt>
      <trkpt lat="49.28571" lon="0.18966">
        <ele>8</ele>
        <time>2017-05-14T07:08:36Z</time>
      </trkpt>
      <trkpt lat="49.28575" lon="0.1897">
        <ele>8</ele>
        <time>2017-05-14T07:08:38Z</time>
      </trkpt>
      <trkpt lat="49.28578" lon="0.18973">
        <ele>8</ele>
        <time>2017-05-14T07:08:40Z</time>
      </trkpt>
      <trkpt lat="49.28579" lon="0.18977">
        <ele>8</ele>
        <time>2017-05-14T07:08:48Z</time>
      </trkpt>
      <trkpt lat="49.28582" lon="0.18979">
        <ele>8</ele>
        <time>2017-05-14T07:09:00Z</time>
      </trkpt>
      <trkpt lat="49.28586" lon="0.18976">
        <ele>8</ele>
        <time>2017-05-14T07:09:04Z</time>
      </trkpt>
      <trkpt lat="49.28589" lon="0.18975">
        <ele>8</ele>
        <time>2017-05-14T07:09:05Z</time>
      </trkpt>
      <trkpt lat="49.28591" lon="0.18973">
        <ele>8.1</ele>
        <time>2017-05-14T07:09:06Z</time>
      </trkpt>
      <trkpt lat="49.28596" lon="0.18976">
        <ele>8.2</ele>
        <time>2017-05-14T07:09:08Z</time>
      </trkpt>
      <trkpt lat="49.28599" lon="0.18979">
        <ele>8.3</ele>
        <time>2017-05-14T07:09:09Z</time>
      </trkpt>
      <trkpt lat="49.28601" lon="0.18982">
        <ele>8.4</ele>
        <time>2017-05-14T07:09:10Z</time>
      </trkpt>
      <trkpt lat="49.28604" lon="0.18985">
        <ele>8.5</ele>
        <time>2017-05-14T07:09:11Z</time>
      </trkpt>
      <trkpt lat="49.28606" lon="0.18988">
        <ele>8.7</ele>
        <time>2017-05-14T07:09:12Z</time>
      </trkpt>
      <trkpt lat="49.28609" lon="0.18991">
        <ele>8.7</ele>
        <time>2017-05-14T07:09:13Z</time>
      </trkpt>
      <trkpt lat="49.28612" lon="0.18995">
        <ele>9.1</ele>
        <time>2017-05-14T07:09:15Z</time>
      </trkpt>
      <trkpt lat="49.28615" lon="0.18997">
        <ele>9.2</ele>
        <time>2017-05-14T07:09:17Z</time>
      </trkpt>
      <trkpt lat="49.28619" lon="0.18995">
        <ele>9.4</ele>
        <time>2017-05-14T07:09:19Z</time>
      </trkpt>
      <trkpt lat="49.28623" lon="0.18991">
        <ele>9.7</ele>
        <time>2017-05-14T07:09:21Z</time>
      </trkpt>
      <trkpt lat="49.28626" lon="0.18988">
        <ele>9.8</ele>
        <time>2017-05-14T07:09:22Z</time>
      </trkpt>
      <trkpt lat="49.2863" lon="0.18982">
        <ele>9.9</ele>
        <time>2017-05-14T07:09:24Z</time>
      </trkpt>
      <trkpt lat="49.28633" lon="0.1898">
        <ele>10</ele>
        <time>2017-05-14T07:09:26Z</time>
      </trkpt>
      <trkpt lat="49.28635" lon="0.18977">
        <ele>10</ele>
        <time>2017-05-14T07:09:27Z</time>
      </trkpt>
      <trkpt lat="49.28638" lon="0.18974">
        <ele>10</ele>
        <time>2017-05-14T07:09:28Z</time>
      </trkpt>
      <trkpt lat="49.2864" lon="0.18971">
        <ele>10</ele>
        <time>2017-05-14T07:09:29Z</time>
      </trkpt>
      <trkpt lat="49.28642" lon="0.18966">
        <ele>10.2</ele>
        <time>2017-05-14T07:09:30Z</time>
      </trkpt>
      <trkpt lat="49.28646" lon="0.18957">
        <ele>10.5</ele>
        <time>2017-05-14T07:09:32Z</time>
      </trkpt>
      <trkpt lat="49.28648" lon="0.18952">
        <ele>10.7</ele>
        <time>2017-05-14T07:09:33Z</time>
      </trkpt>
      <trkpt lat="49.28649" lon="0.18946">
        <ele>10.8</ele>
        <time>2017-05-14T07:09:34Z</time>
      </trkpt>
      <trkpt lat="49.28651" lon="0.1894">
        <ele>11</ele>
        <time>2017-05-14T07:09:35Z</time>
      </trkpt>
      <trkpt lat="49.28653" lon="0.18934">
        <ele>11.2</ele>
        <time>2017-05-14T07:09:36Z</time>
      </trkpt>
      <trkpt lat="49.28655" lon="0.18928">
        <ele>11.4</ele>
        <time>2017-05-14T07:09:37Z</time>
      </trkpt>
      <trkpt lat="49.28657" lon="0.18922">
        <ele>11.6</ele>
        <time>2017-05-14T07:09:38Z</time>
      </trkpt>
      <trkpt lat="49.28658" lon="0.18916">
        <ele>11.7</ele>
        <time>2017-05-14T07:09:39Z</time>
      </trkpt>
      <trkpt lat="49.2866" lon="0.18912">
        <ele>11.8</ele>
        <time>2017-05-14T07:09:40Z</time>
      </trkpt>
      <trkpt lat="49.28662" lon="0.18906">
        <ele>12</ele>
        <time>2017-05-14T07:09:41Z</time>
      </trkpt>
      <trkpt lat="49.28665" lon="0.18899">
        <ele>12.1</ele>
        <time>2017-05-14T07:09:42Z</time>
      </trkpt>
      <trkpt lat="49.28667" lon="0.18894">
        <ele>12.2</ele>
        <time>2017-05-14T07:09:43Z</time>
      </trkpt>
      <trkpt lat="49.28669" lon="0.18888">
        <ele>12.3</ele>
        <time>2017-05-14T07:09:44Z</time>
      </trkpt>
      <trkpt lat="49.2867" lon="0.18881">
        <ele>12.4</ele>
        <time>2017-05-14T07:09:45Z</time>
      </trkpt>
      <trkpt lat="49.28671" lon="0.18875">
        <ele>12.5</ele>
        <time>2017-05-14T07:09:46Z</time>
      </trkpt>
      <trkpt lat="49.28673" lon="0.18869">
        <ele>12.6</ele>
        <time>2017-05-14T07:09:47Z</time>
      </trkpt>
      <trkpt lat="49.28674" lon="0.18864">
        <ele>12.7</ele>
        <time>2017-05-14T07:09:48Z</time>
      </trkpt>
      <trkpt lat="49.28677" lon="0.18856">
        <ele>12.8</ele>
        <time>2017-05-14T07:09:49Z</time>
      </trkpt>
      <trkpt lat="49.28679" lon="0.18849">
        <ele>12.9</ele>
        <time>2017-05-14T07:09:50Z</time>
      </trkpt>
      <trkpt lat="49.2868" lon="0.18843">
        <ele>12.9</ele>
        <time>2017-05-14T07:09:51Z</time>
      </trkpt>
      <trkpt lat="49.28681" lon="0.18838">
        <ele>13</ele>
        <time>2017-05-14T07:09:52Z</time>
      </trkpt>
      <trkpt lat="49.28681" lon="0.18833">
        <ele>12.9</ele>
        <time>2017-05-14T07:09:53Z</time>
      </trkpt>
      <trkpt lat="49.28682" lon="0.18827">
        <ele>12.7</ele>
        <time>2017-05-14T07:09:54Z</time>
      </trkpt>
      <trkpt lat="49.28682" lon="0.18821">
        <ele>12.6</ele>
        <time>2017-05-14T07:09:55Z</time>
      </trkpt>
      <trkpt lat="49.28681" lon="0.18815">
        <ele>12.4</ele>
        <time>2017-05-14T07:09:56Z</time>
      </trkpt>
      <trkpt lat="49.28681" lon="0.18808">
        <ele>12.3</ele>
        <time>2017-05-14T07:09:57Z</time>
      </trkpt>
      <trkpt lat="49.28681" lon="0.18801">
        <ele>12.1</ele>
        <time>2017-05-14T07:09:58Z</time>
      </trkpt>
      <trkpt lat="49.2868" lon="0.18796">
        <ele>12</ele>
        <time>2017-05-14T07:09:59Z</time>
      </trkpt>
      <trkpt lat="49.2868" lon="0.18789">
        <ele>12</ele>
        <time>2017-05-14T07:10:00Z</time>
      </trkpt>
      <trkpt lat="49.28679" lon="0.18784">
        <ele>12</ele>
        <time>2017-05-14T07:10:01Z</time>
      </trkpt>
      <trkpt lat="49.28679" lon="0.18771">
        <ele>12</ele>
        <time>2017-05-14T07:10:03Z</time>
      </trkpt>
      <trkpt lat="49.28679" lon="0.18764">
        <ele>12</ele>
        <time>2017-05-14T07:10:04Z</time>
      </trkpt>
      <trkpt lat="49.28678" lon="0.18757">
        <ele>12</ele>
        <time>2017-05-14T07:10:06Z</time>
      </trkpt>
      <trkpt lat="49.28678" lon="0.18751">
        <ele>12</ele>
        <time>2017-05-14T07:10:07Z</time>
      </trkpt>
      <trkpt lat="49.28677" lon="0.18745">
        <ele>12</ele>
        <time>2017-05-14T07:10:08Z</time>
      </trkpt>
      <trkpt lat="49.28678" lon="0.18737">
        <ele>12</ele>
        <time>2017-05-14T07:10:09Z</time>
      </trkpt>
      <trkpt lat="49.28678" lon="0.18729">
        <ele>12</ele>
        <time>2017-05-14T07:10:10Z</time>
      </trkpt>
      <trkpt lat="49.28679" lon="0.18723">
        <ele>12</ele>
        <time>2017-05-14T07:10:11Z</time>
      </trkpt>
      <trkpt lat="49.2868" lon="0.18717">
        <ele>12</ele>
        <time>2017-05-14T07:10:12Z</time>
      </trkpt>
      <trkpt lat="49.28679" lon="0.18712">
        <ele>12</ele>
        <time>2017-05-14T07:10:13Z</time>
      </trkpt>
      <trkpt lat="49.28674" lon="0.18705">
        <ele>12</ele>
        <time>2017-05-14T07:10:15Z</time>
      </trkpt>
      <trkpt lat="49.28671" lon="0.18701">
        <ele>12</ele>
        <time>2017-05-14T07:10:16Z</time>
      </trkpt>
      <trkpt lat="49.28669" lon="0.18696">
        <ele>12</ele>
        <time>2017-05-14T07:10:17Z</time>
      </trkpt>
      <trkpt lat="49.28666" lon="0.1869">
        <ele>12</ele>
        <time>2017-05-14T07:10:18Z</time>
      </trkpt>
      <trkpt lat="49.28663" lon="0.18683">
        <ele>11.7</ele>
        <time>2017-05-14T07:10:19Z</time>
      </trkpt>
      <trkpt lat="49.2866" lon="0.18678">
        <ele>11.5</ele>
        <time>2017-05-14T07:10:20Z</time>
      </trkpt>
      <trkpt lat="49.28658" lon="0.18673">
        <ele>11.4</ele>
        <time>2017-05-14T07:10:21Z</time>
      </trkpt>
      <trkpt lat="49.28655" lon="0.18668">
        <ele>11.3</ele>
        <time>2017-05-14T07:10:22Z</time>
      </trkpt>
      <trkpt lat="49.28652" lon="0.18663">
        <ele>11.3</ele>
        <time>2017-05-14T07:10:23Z</time>
      </trkpt>
      <trkpt lat="49.2865" lon="0.18654">
        <ele>11.3</ele>
        <time>2017-05-14T07:10:24Z</time>
      </trkpt>
      <trkpt lat="49.28647" lon="0.18644">
        <ele>11.4</ele>
        <time>2017-05-14T07:10:25Z</time>
      </trkpt>
      <trkpt lat="49.28645" lon="0.18636">
        <ele>11.5</ele>
        <time>2017-05-14T07:10:26Z</time>
      </trkpt>
      <trkpt lat="49.28644" lon="0.18631">
        <ele>11.6</ele>
        <time>2017-05-14T07:10:27Z</time>
      </trkpt>
      <trkpt lat="49.28641" lon="0.18625">
        <ele>11.8</ele>
        <time>2017-05-14T07:10:28Z</time>
      </trkpt>
      <trkpt lat="49.28641" lon="0.18617">
        <ele>12</ele>
        <time>2017-05-14T07:10:29Z</time>
      </trkpt>
      <trkpt lat="49.28639" lon="0.18613">
        <ele>12</ele>
        <time>2017-05-14T07:10:30Z</time>
      </trkpt>
      <trkpt lat="49.28637" lon="0.18609">
        <ele>12</ele>
        <time>2017-05-14T07:10:31Z</time>
      </trkpt>
      <trkpt lat="49.28635" lon="0.18601">
        <ele>12</ele>
        <time>2017-05-14T07:10:32Z</time>
      </trkpt>
      <trkpt lat="49.28633" lon="0.18593">
        <ele>12</ele>
        <time>2017-05-14T07:10:33Z</time>
      </trkpt>
      <trkpt lat="49.28631" lon="0.18586">
        <ele>12</ele>
        <time>2017-05-14T07:10:34Z</time>
      </trkpt>
      <trkpt lat="49.28628" lon="0.18578">
        <ele>13</ele>
        <time>2017-05-14T07:10:35Z</time>
      </trkpt>
      <trkpt lat="49.28626" lon="0.1857">
        <ele>12.9</ele>
        <time>2017-05-14T07:10:36Z</time>
      </trkpt>
      <trkpt lat="49.28624" lon="0.18564">
        <ele>12.8</ele>
        <time>2017-05-14T07:10:37Z</time>
      </trkpt>
      <trkpt lat="49.28622" lon="0.18557">
        <ele>12.7</ele>
        <time>2017-05-14T07:10:38Z</time>
      </trkpt>
      <trkpt lat="49.2862" lon="0.1855">
        <ele>12.7</ele>
        <time>2017-05-14T07:10:39Z</time>
      </trkpt>
      <trkpt lat="49.28617" lon="0.18544">
        <ele>12.6</ele>
        <time>2017-05-14T07:10:40Z</time>
      </trkpt>
      <trkpt lat="49.28615" lon="0.18537">
        <ele>12.5</ele>
        <time>2017-05-14T07:10:41Z</time>
      </trkpt>
      <trkpt lat="49.28612" lon="0.18533">
        <ele>12.5</ele>
        <time>2017-05-14T07:10:42Z</time>
      </trkpt>
      <trkpt lat="49.2861" lon="0.18524">
        <ele>12.4</ele>
        <time>2017-05-14T07:10:43Z</time>
      </trkpt>
      <trkpt lat="49.28607" lon="0.18517">
        <ele>12.3</ele>
        <time>2017-05-14T07:10:44Z</time>
      </trkpt>
      <trkpt lat="49.28604" lon="0.18509">
        <ele>12.2</ele>
        <time>2017-05-14T07:10:45Z</time>
      </trkpt>
      <trkpt lat="49.28602" lon="0.18504">
        <ele>12.1</ele>
        <time>2017-05-14T07:10:46Z</time>
      </trkpt>
      <trkpt lat="49.286" lon="0.18499">
        <ele>12.1</ele>
        <time>2017-05-14T07:10:47Z</time>
      </trkpt>
      <trkpt lat="49.28597" lon="0.18495">
        <ele>12</ele>
        <time>2017-05-14T07:10:48Z</time>
      </trkpt>
      <trkpt lat="49.28595" lon="0.18489">
        <ele>12</ele>
        <time>2017-05-14T07:10:49Z</time>
      </trkpt>
      <trkpt lat="49.28593" lon="0.18483">
        <ele>12</ele>
        <time>2017-05-14T07:10:50Z</time>
      </trkpt>
      <trkpt lat="49.28591" lon="0.18477">
        <ele>12.1</ele>
        <time>2017-05-14T07:10:51Z</time>
      </trkpt>
      <trkpt lat="49.28589" lon="0.18471">
        <ele>12.1</ele>
        <time>2017-05-14T07:10:52Z</time>
      </trkpt>
      <trkpt lat="49.28586" lon="0.18464">
        <ele>12.1</ele>
        <time>2017-05-14T07:10:53Z</time>
      </trkpt>
      <trkpt lat="49.28584" lon="0.18458">
        <ele>11.9</ele>
        <time>2017-05-14T07:10:54Z</time>
      </trkpt>
      <trkpt lat="49.28582" lon="0.18452">
        <ele>11.8</ele>
        <time>2017-05-14T07:10:55Z</time>
      </trkpt>
      <trkpt lat="49.28579" lon="0.18443">
        <ele>11.6</ele>
        <time>2017-05-14T07:10:56Z</time>
      </trkpt>
      <trkpt lat="49.28576" lon="0.18437">
        <ele>11.7</ele>
        <time>2017-05-14T07:10:57Z</time>
      </trkpt>
      <trkpt lat="49.28574" lon="0.18431">
        <ele>11.8</ele>
        <time>2017-05-14T07:10:58Z</time>
      </trkpt>
      <trkpt lat="49.28572" lon="0.18425">
        <ele>11.8</ele>
        <time>2017-05-14T07:10:59Z</time>
      </trkpt>
      <trkpt lat="49.28569" lon="0.18417">
        <ele>11.9</ele>
        <time>2017-05-14T07:11:00Z</time>
      </trkpt>
      <trkpt lat="49.28567" lon="0.18411">
        <ele>11.9</ele>
        <time>2017-05-14T07:11:01Z</time>
      </trkpt>
      <trkpt lat="49.28565" lon="0.18406">
        <ele>11.9</ele>
        <time>2017-05-14T07:11:02Z</time>
      </trkpt>
      <trkpt lat="49.28562" lon="0.18401">
        <ele>12</ele>
        <time>2017-05-14T07:11:03Z</time>
      </trkpt>
      <trkpt lat="49.2856" lon="0.18397">
        <ele>12</ele>
        <time>2017-05-14T07:11:04Z</time>
      </trkpt>
      <trkpt lat="49.28558" lon="0.18394">
        <ele>12</ele>
        <time>2017-05-14T07:11:05Z</time>
      </trkpt>
      <trkpt lat="49.28555" lon="0.1839">
        <ele>12</ele>
        <time>2017-05-14T07:11:06Z</time>
      </trkpt>
      <trkpt lat="49.28552" lon="0.18387">
        <ele>12</ele>
        <time>2017-05-14T07:11:07Z</time>
      </trkpt>
      <trkpt lat="49.28546" lon="0.18389">
        <ele>12</ele>
        <time>2017-05-14T07:11:08Z</time>
      </trkpt>
      <trkpt lat="49.28542" lon="0.18392">
        <ele>12</ele>
        <time>2017-05-14T07:11:09Z</time>
      </trkpt>
      <trkpt lat="49.28539" lon="0.18395">
        <ele>11.8</ele>
        <time>2017-05-14T07:11:10Z</time>
      </trkpt>
      <trkpt lat="49.28536" lon="0.18399">
        <ele>11.7</ele>
        <time>2017-05-14T07:11:11Z</time>
      </trkpt>
      <trkpt lat="49.28533" lon="0.18403">
        <ele>11.7</ele>
        <time>2017-05-14T07:11:12Z</time>
      </trkpt>
      <trkpt lat="49.2853" lon="0.18408">
        <ele>11.7</ele>
        <time>2017-05-14T07:11:13Z</time>
      </trkpt>
      <trkpt lat="49.28526" lon="0.18413">
        <ele>11.6</ele>
        <time>2017-05-14T07:11:14Z</time>
      </trkpt>
      <trkpt lat="49.28523" lon="0.18418">
        <ele>11.6</ele>
        <time>2017-05-14T07:11:15Z</time>
      </trkpt>
      <trkpt lat="49.28517" lon="0.18426">
        <ele>11.6</ele>
        <time>2017-05-14T07:11:16Z</time>
      </trkpt>
      <trkpt lat="49.28514" lon="0.1843">
        <ele>11.6</ele>
        <time>2017-05-14T07:11:17Z</time>
      </trkpt>
      <trkpt lat="49.28511" lon="0.18433">
        <ele>11.7</ele>
        <time>2017-05-14T07:11:18Z</time>
      </trkpt>
      <trkpt lat="49.28507" lon="0.18438">
        <ele>11.7</ele>
        <time>2017-05-14T07:11:19Z</time>
      </trkpt>
      <trkpt lat="49.28504" lon="0.18441">
        <ele>11.7</ele>
        <time>2017-05-14T07:11:20Z</time>
      </trkpt>
      <trkpt lat="49.285" lon="0.18445">
        <ele>11.6</ele>
        <time>2017-05-14T07:11:22Z</time>
      </trkpt>
      <trkpt lat="49.28497" lon="0.18449">
        <ele>11.4</ele>
        <time>2017-05-14T07:11:24Z</time>
      </trkpt>
      <trkpt lat="49.28493" lon="0.18456">
        <ele>11.2</ele>
        <time>2017-05-14T07:11:26Z</time>
      </trkpt>
      <trkpt lat="49.28487" lon="0.18461">
        <ele>11.1</ele>
        <time>2017-05-14T07:11:27Z</time>
      </trkpt>
      <trkpt lat="49.28485" lon="0.18469">
        <ele>10.8</ele>
        <time>2017-05-14T07:11:28Z</time>
      </trkpt>
      <trkpt lat="49.28484" lon="0.18476">
        <ele>10.5</ele>
        <time>2017-05-14T07:11:29Z</time>
      </trkpt>
      <trkpt lat="49.28485" lon="0.18484">
        <ele>10.4</ele>
        <time>2017-05-14T07:11:30Z</time>
      </trkpt>
      <trkpt lat="49.28485" lon="0.18493">
        <ele>10.4</ele>
        <time>2017-05-14T07:11:31Z</time>
      </trkpt>
      <trkpt lat="49.28486" lon="0.18501">
        <ele>10.3</ele>
        <time>2017-05-14T07:11:32Z</time>
      </trkpt>
      <trkpt lat="49.28487" lon="0.18509">
        <ele>10.2</ele>
        <time>2017-05-14T07:11:33Z</time>
      </trkpt>
      <trkpt lat="49.28488" lon="0.18515">
        <ele>10</ele>
        <time>2017-05-14T07:11:34Z</time>
      </trkpt>
      <trkpt lat="49.28489" lon="0.18521">
        <ele>10.1</ele>
        <time>2017-05-14T07:11:35Z</time>
      </trkpt>
      <trkpt lat="49.2849" lon="0.18528">
        <ele>10.1</ele>
        <time>2017-05-14T07:11:36Z</time>
      </trkpt>
      <trkpt lat="49.2849" lon="0.18536">
        <ele>10.2</ele>
        <time>2017-05-14T07:11:37Z</time>
      </trkpt>
      <trkpt lat="49.28491" lon="0.18543">
        <ele>10.3</ele>
        <time>2017-05-14T07:11:38Z</time>
      </trkpt>
      <trkpt lat="49.2849" lon="0.18551">
        <ele>10.5</ele>
        <time>2017-05-14T07:11:39Z</time>
      </trkpt>
      <trkpt lat="49.28489" lon="0.18557">
        <ele>10.8</ele>
        <time>2017-05-14T07:11:40Z</time>
      </trkpt>
      <trkpt lat="49.28487" lon="0.18562">
        <ele>10.9</ele>
        <time>2017-05-14T07:11:41Z</time>
      </trkpt>
      <trkpt lat="49.28484" lon="0.18568">
        <ele>11</ele>
        <time>2017-05-14T07:11:42Z</time>
      </trkpt>
      <trkpt lat="49.28481" lon="0.18574">
        <ele>11.3</ele>
        <time>2017-05-14T07:11:43Z</time>
      </trkpt>
      <trkpt lat="49.28478" lon="0.18583">
        <ele>11.3</ele>
        <time>2017-05-14T07:11:44Z</time>
      </trkpt>
      <trkpt lat="49.28474" lon="0.18591">
        <ele>11</ele>
        <time>2017-05-14T07:11:45Z</time>
      </trkpt>
      <trkpt lat="49.28471" lon="0.18597">
        <ele>10.6</ele>
        <time>2017-05-14T07:11:46Z</time>
      </trkpt>
      <trkpt lat="49.28469" lon="0.18602">
        <ele>10.2</ele>
        <time>2017-05-14T07:11:47Z</time>
      </trkpt>
      <trkpt lat="49.28467" lon="0.18607">
        <ele>10</ele>
        <time>2017-05-14T07:11:48Z</time>
      </trkpt>
      <trkpt lat="49.28465" lon="0.18612">
        <ele>9.6</ele>
        <time>2017-05-14T07:11:49Z</time>
      </trkpt>
      <trkpt lat="49.28463" lon="0.18616">
        <ele>9.4</ele>
        <time>2017-05-14T07:11:50Z</time>
      </trkpt>
      <trkpt lat="49.28462" lon="0.18622">
        <ele>8.8</ele>
        <time>2017-05-14T07:11:51Z</time>
      </trkpt>
      <trkpt lat="49.28461" lon="0.18628">
        <ele>8.6</ele>
        <time>2017-05-14T07:11:52Z</time>
      </trkpt>
      <trkpt lat="49.28459" lon="0.18636">
        <ele>8.2</ele>
        <time>2017-05-14T07:11:53Z</time>
      </trkpt>
      <trkpt lat="49.28458" lon="0.18645">
        <ele>8</ele>
        <time>2017-05-14T07:11:54Z</time>
      </trkpt>
      <trkpt lat="49.28457" lon="0.18653">
        <ele>7.7</ele>
        <time>2017-05-14T07:11:55Z</time>
      </trkpt>
      <trkpt lat="49.28458" lon="0.18661">
        <ele>8</ele>
        <time>2017-05-14T07:11:56Z</time>
      </trkpt>
      <trkpt lat="49.28458" lon="0.18668">
        <ele>8.1</ele>
        <time>2017-05-14T07:11:57Z</time>
      </trkpt>
      <trkpt lat="49.28458" lon="0.18675">
        <ele>8.2</ele>
        <time>2017-05-14T07:11:58Z</time>
      </trkpt>
      <trkpt lat="49.28458" lon="0.1868">
        <ele>8.3</ele>
        <time>2017-05-14T07:11:59Z</time>
      </trkpt>
      <trkpt lat="49.28458" lon="0.18685">
        <ele>8.3</ele>
        <time>2017-05-14T07:12:00Z</time>
      </trkpt>
      <trkpt lat="49.28457" lon="0.1869">
        <ele>8.1</ele>
        <time>2017-05-14T07:12:01Z</time>
      </trkpt>
      <trkpt lat="49.28456" lon="0.18696">
        <ele>8</ele>
        <time>2017-05-14T07:12:02Z</time>
      </trkpt>
      <trkpt lat="49.28456" lon="0.18702">
        <ele>7.9</ele>
        <time>2017-05-14T07:12:03Z</time>
      </trkpt>
      <trkpt lat="49.28455" lon="0.18709">
        <ele>7.7</ele>
        <time>2017-05-14T07:12:04Z</time>
      </trkpt>
      <trkpt lat="49.28455" lon="0.18717">
        <ele>7.5</ele>
        <time>2017-05-14T07:12:05Z</time>
      </trkpt>
      <trkpt lat="49.28455" lon="0.18724">
        <ele>7.6</ele>
        <time>2017-05-14T07:12:06Z</time>
      </trkpt>
      <trkpt lat="49.28455" lon="0.18731">
        <ele>7.7</ele>
        <time>2017-05-14T07:12:07Z</time>
      </trkpt>
      <trkpt lat="49.28455" lon="0.18739">
        <ele>8</ele>
        <time>2017-05-14T07:12:08Z</time>
      </trkpt>
      <trkpt lat="49.28455" lon="0.18747">
        <ele>8.2</ele>
        <time>2017-05-14T07:12:09Z</time>
      </trkpt>
      <trkpt lat="49.28453" lon="0.18753">
        <ele>8.3</ele>
        <time>2017-05-14T07:12:10Z</time>
      </trkpt>
      <trkpt lat="49.28449" lon="0.18761">
        <ele>8.4</ele>
        <time>2017-05-14T07:12:11Z</time>
      </trkpt>
      <trkpt lat="49.28446" lon="0.18764">
        <ele>8.3</ele>
        <time>2017-05-14T07:12:12Z</time>
      </trkpt>
      <trkpt lat="49.28442" lon="0.18766">
        <ele>8.3</ele>
        <time>2017-05-14T07:12:13Z</time>
      </trkpt>
      <trkpt lat="49.28439" lon="0.18768">
        <ele>8.2</ele>
        <time>2017-05-14T07:12:14Z</time>
      </trkpt>
      <trkpt lat="49.28435" lon="0.1877">
        <ele>8</ele>
        <time>2017-05-14T07:12:15Z</time>
      </trkpt>
      <trkpt lat="49.28431" lon="0.18772">
        <ele>7.8</ele>
        <time>2017-05-14T07:12:16Z</time>
      </trkpt>
      <trkpt lat="49.28427" lon="0.18774">
        <ele>7.7</ele>
        <time>2017-05-14T07:12:17Z</time>
      </trkpt>
      <trkpt lat="49.28423" lon="0.18775">
        <ele>7.4</ele>
        <time>2017-05-14T07:12:18Z</time>
      </trkpt>
      <trkpt lat="49.2842" lon="0.18777">
        <ele>7.3</ele>
        <time>2017-05-14T07:12:19Z</time>
      </trkpt>
      <trkpt lat="49.28416" lon="0.18778">
        <ele>7.1</ele>
        <time>2017-05-14T07:12:20Z</time>
      </trkpt>
      <trkpt lat="49.28412" lon="0.1878">
        <ele>6.9</ele>
        <time>2017-05-14T07:12:21Z</time>
      </trkpt>
      <trkpt lat="49.28408" lon="0.18782">
        <ele>6.9</ele>
        <time>2017-05-14T07:12:22Z</time>
      </trkpt>
      <trkpt lat="49.28405" lon="0.18784">
        <ele>6.8</ele>
        <time>2017-05-14T07:12:23Z</time>
      </trkpt>
      <trkpt lat="49.28402" lon="0.18788">
        <ele>6.8</ele>
        <time>2017-05-14T07:12:24Z</time>
      </trkpt>
      <trkpt lat="49.28399" lon="0.18791">
        <ele>6.6</ele>
        <time>2017-05-14T07:12:25Z</time>
      </trkpt>
      <trkpt lat="49.28396" lon="0.18795">
        <ele>6.5</ele>
        <time>2017-05-14T07:12:26Z</time>
      </trkpt>
      <trkpt lat="49.28394" lon="0.18799">
        <ele>6.3</ele>
        <time>2017-05-14T07:12:27Z</time>
      </trkpt>
      <trkpt lat="49.28392" lon="0.18803">
        <ele>6.2</ele>
        <time>2017-05-14T07:12:28Z</time>
      </trkpt>
      <trkpt lat="49.28389" lon="0.18809">
        <ele>6.1</ele>
        <time>2017-05-14T07:12:29Z</time>
      </trkpt>
      <trkpt lat="49.28387" lon="0.18815">
        <ele>6.1</ele>
        <time>2017-05-14T07:12:30Z</time>
      </trkpt>
      <trkpt lat="49.28384" lon="0.1882">
        <ele>6.2</ele>
        <time>2017-05-14T07:12:31Z</time>
      </trkpt>
      <trkpt lat="49.28382" lon="0.18826">
        <ele>6.3</ele>
        <time>2017-05-14T07:12:32Z</time>
      </trkpt>
      <trkpt lat="49.2838" lon="0.18831">
        <ele>6.3</ele>
        <time>2017-05-14T07:12:33Z</time>
      </trkpt>
      <trkpt lat="49.28377" lon="0.18837">
        <ele>6.3</ele>
        <time>2017-05-14T07:12:34Z</time>
      </trkpt>
      <trkpt lat="49.28375" lon="0.18844">
        <ele>6.5</ele>
        <time>2017-05-14T07:12:35Z</time>
      </trkpt>
      <trkpt lat="49.28373" lon="0.18851">
        <ele>6.6</ele>
        <time>2017-05-14T07:12:36Z</time>
      </trkpt>
      <trkpt lat="49.28372" lon="0.18858">
        <ele>6.7</ele>
        <time>2017-05-14T07:12:37Z</time>
      </trkpt>
      <trkpt lat="49.28371" lon="0.18864">
        <ele>6.9</ele>
        <time>2017-05-14T07:12:38Z</time>
      </trkpt>
      <trkpt lat="49.28369" lon="0.1887">
        <ele>6.9</ele>
        <time>2017-05-14T07:12:39Z</time>
      </trkpt>
      <trkpt lat="49.28369" lon="0.18875">
        <ele>6.9</ele>
        <time>2017-05-14T07:12:40Z</time>
      </trkpt>
      <trkpt lat="49.28366" lon="0.18881">
        <ele>7</ele>
        <time>2017-05-14T07:12:41Z</time>
      </trkpt>
      <trkpt lat="49.28363" lon="0.18886">
        <ele>7.1</ele>
        <time>2017-05-14T07:12:42Z</time>
      </trkpt>
      <trkpt lat="49.2836" lon="0.1889">
        <ele>7.2</ele>
        <time>2017-05-14T07:12:43Z</time>
      </trkpt>
      <trkpt lat="49.28356" lon="0.18895">
        <ele>7.4</ele>
        <time>2017-05-14T07:12:44Z</time>
      </trkpt>
      <trkpt lat="49.28353" lon="0.18899">
        <ele>7.4</ele>
        <time>2017-05-14T07:12:45Z</time>
      </trkpt>
      <trkpt lat="49.28349" lon="0.18904">
        <ele>7.4</ele>
        <time>2017-05-14T07:12:46Z</time>
      </trkpt>
      <trkpt lat="49.28345" lon="0.18908">
        <ele>7.4</ele>
        <time>2017-05-14T07:12:47Z</time>
      </trkpt>
      <trkpt lat="49.28342" lon="0.18914">
        <ele>7.3</ele>
        <time>2017-05-14T07:12:48Z</time>
      </trkpt>
      <trkpt lat="49.28338" lon="0.18919">
        <ele>7.3</ele>
        <time>2017-05-14T07:12:49Z</time>
      </trkpt>
      <trkpt lat="49.28335" lon="0.18923">
        <ele>7.3</ele>
        <time>2017-05-14T07:12:50Z</time>
      </trkpt>
      <trkpt lat="49.28332" lon="0.18928">
        <ele>7.4</ele>
        <time>2017-05-14T07:12:51Z</time>
      </trkpt>
      <trkpt lat="49.28329" lon="0.18934">
        <ele>7.4</ele>
        <time>2017-05-14T07:12:52Z</time>
      </trkpt>
      <trkpt lat="49.28328" lon="0.1894">
        <ele>7.4</ele>
        <time>2017-05-14T07:12:53Z</time>
      </trkpt>
      <trkpt lat="49.28327" lon="0.18947">
        <ele>7.3</ele>
        <time>2017-05-14T07:12:54Z</time>
      </trkpt>
      <trkpt lat="49.28327" lon="0.18954">
        <ele>7.1</ele>
        <time>2017-05-14T07:12:55Z</time>
      </trkpt>
      <trkpt lat="49.28327" lon="0.18961">
        <ele>6.8</ele>
        <time>2017-05-14T07:12:56Z</time>
      </trkpt>
      <trkpt lat="49.28329" lon="0.18968">
        <ele>6.6</ele>
        <time>2017-05-14T07:12:57Z</time>
      </trkpt>
      <trkpt lat="49.2833" lon="0.18975">
        <ele>6.3</ele>
        <time>2017-05-14T07:12:58Z</time>
      </trkpt>
      <trkpt lat="49.28331" lon="0.18981">
        <ele>6.2</ele>
        <time>2017-05-14T07:12:59Z</time>
      </trkpt>
      <trkpt lat="49.28333" lon="0.18987">
        <ele>6.1</ele>
        <time>2017-05-14T07:13:00Z</time>
      </trkpt>
      <trkpt lat="49.28334" lon="0.18993">
        <ele>6.1</ele>
        <time>2017-05-14T07:13:01Z</time>
      </trkpt>
      <trkpt lat="49.28336" lon="0.18999">
        <ele>6.3</ele>
        <time>2017-05-14T07:13:02Z</time>
      </trkpt>
      <trkpt lat="49.28337" lon="0.19005">
        <ele>6.4</ele>
        <time>2017-05-14T07:13:03Z</time>
      </trkpt>
      <trkpt lat="49.28339" lon="0.19011">
        <ele>6.5</ele>
        <time>2017-05-14T07:13:04Z</time>
      </trkpt>
      <trkpt lat="49.28341" lon="0.19016">
        <ele>6.8</ele>
        <time>2017-05-14T07:13:05Z</time>
      </trkpt>
      <trkpt lat="49.28342" lon="0.19022">
        <ele>6.9</ele>
        <time>2017-05-14T07:13:06Z</time>
      </trkpt>
      <trkpt lat="49.28342" lon="0.19028">
        <ele>7.1</ele>
        <time>2017-05-14T07:13:07Z</time>
      </trkpt>
      <trkpt lat="49.2834" lon="0.19034">
        <ele>7.5</ele>
        <time>2017-05-14T07:13:08Z</time>
      </trkpt>
      <trkpt lat="49.28339" lon="0.1904">
        <ele>7.8</ele>
        <time>2017-05-14T07:13:09Z</time>
      </trkpt>
      <trkpt lat="49.28336" lon="0.19046">
        <ele>8.2</ele>
        <time>2017-05-14T07:13:10Z</time>
      </trkpt>
      <trkpt lat="49.28332" lon="0.19052">
        <ele>8.3</ele>
        <time>2017-05-14T07:13:11Z</time>
      </trkpt>
      <trkpt lat="49.28328" lon="0.19056">
        <ele>8.3</ele>
        <time>2017-05-14T07:13:12Z</time>
      </trkpt>
      <trkpt lat="49.28324" lon="0.1906">
        <ele>8.3</ele>
        <time>2017-05-14T07:13:13Z</time>
      </trkpt>
      <trkpt lat="49.2832" lon="0.19064">
        <ele>8.3</ele>
        <time>2017-05-14T07:13:14Z</time>
      </trkpt>
      <trkpt lat="49.28316" lon="0.19067">
        <ele>8.3</ele>
        <time>2017-05-14T07:13:15Z</time>
      </trkpt>
      <trkpt lat="49.28312" lon="0.1907">
        <ele>8.3</ele>
        <time>2017-05-14T07:13:16Z</time>
      </trkpt>
      <trkpt lat="49.28308" lon="0.19072">
        <ele>8.3</ele>
        <time>2017-05-14T07:13:17Z</time>
      </trkpt>
      <trkpt lat="49.28304" lon="0.19074">
        <ele>8.4</ele>
        <time>2017-05-14T07:13:18Z</time>
      </trkpt>
      <trkpt lat="49.283" lon="0.19077">
        <ele>8.5</ele>
        <time>2017-05-14T07:13:19Z</time>
      </trkpt>
      <trkpt lat="49.28297" lon="0.19079">
        <ele>8.6</ele>
        <time>2017-05-14T07:13:20Z</time>
      </trkpt>
      <trkpt lat="49.28293" lon="0.19082">
        <ele>8.7</ele>
        <time>2017-05-14T07:13:21Z</time>
      </trkpt>
      <trkpt lat="49.28289" lon="0.19084">
        <ele>9</ele>
        <time>2017-05-14T07:13:22Z</time>
      </trkpt>
      <trkpt lat="49.28285" lon="0.19087">
        <ele>9.2</ele>
        <time>2017-05-14T07:13:23Z</time>
      </trkpt>
      <trkpt lat="49.2828" lon="0.19091">
        <ele>9.4</ele>
        <time>2017-05-14T07:13:24Z</time>
      </trkpt>
      <trkpt lat="49.28276" lon="0.19094">
        <ele>9.5</ele>
        <time>2017-05-14T07:13:25Z</time>
      </trkpt>
      <trkpt lat="49.28273" lon="0.19099">
        <ele>9.5</ele>
        <time>2017-05-14T07:13:26Z</time>
      </trkpt>
      <trkpt lat="49.28271" lon="0.19105">
        <ele>9.6</ele>
        <time>2017-05-14T07:13:27Z</time>
      </trkpt>
      <trkpt lat="49.28269" lon="0.1911">
        <ele>9.6</ele>
        <time>2017-05-14T07:13:28Z</time>
      </trkpt>
      <trkpt lat="49.28267" lon="0.19116">
        <ele>9.4</ele>
        <time>2017-05-14T07:13:29Z</time>
      </trkpt>
      <trkpt lat="49.28265" lon="0.19122">
        <ele>9.2</ele>
        <time>2017-05-14T07:13:30Z</time>
      </trkpt>
      <trkpt lat="49.28264" lon="0.19129">
        <ele>8.8</ele>
        <time>2017-05-14T07:13:31Z</time>
      </trkpt>
      <trkpt lat="49.28262" lon="0.19136">
        <ele>8.6</ele>
        <time>2017-05-14T07:13:32Z</time>
      </trkpt>
      <trkpt lat="49.28261" lon="0.19143">
        <ele>8.3</ele>
        <time>2017-05-14T07:13:33Z</time>
      </trkpt>
      <trkpt lat="49.2826" lon="0.1915">
        <ele>8.1</ele>
        <time>2017-05-14T07:13:34Z</time>
      </trkpt>
      <trkpt lat="49.2826" lon="0.19156">
        <ele>8.1</ele>
        <time>2017-05-14T07:13:35Z</time>
      </trkpt>
      <trkpt lat="49.28259" lon="0.19162">
        <ele>8.1</ele>
        <time>2017-05-14T07:13:36Z</time>
      </trkpt>
      <trkpt lat="49.28258" lon="0.19168">
        <ele>8.2</ele>
        <time>2017-05-14T07:13:37Z</time>
      </trkpt>
      <trkpt lat="49.28257" lon="0.19173">
        <ele>8.2</ele>
        <time>2017-05-14T07:13:38Z</time>
      </trkpt>
      <trkpt lat="49.28256" lon="0.19177">
        <ele>8.2</ele>
        <time>2017-05-14T07:13:39Z</time>
      </trkpt>
      <trkpt lat="49.28256" lon="0.19182">
        <ele>8.3</ele>
        <time>2017-05-14T07:13:40Z</time>
      </trkpt>
      <trkpt lat="49.28257" lon="0.19187">
        <ele>8.3</ele>
        <time>2017-05-14T07:13:41Z</time>
      </trkpt>
      <trkpt lat="49.28262" lon="0.19192">
        <ele>8.5</ele>
        <time>2017-05-14T07:13:43Z</time>
      </trkpt>
      <trkpt lat="49.28265" lon="0.19195">
        <ele>8.6</ele>
        <time>2017-05-14T07:13:44Z</time>
      </trkpt>
      <trkpt lat="49.28269" lon="0.19198">
        <ele>8.8</ele>
        <time>2017-05-14T07:13:45Z</time>
      </trkpt>
      <trkpt lat="49.28273" lon="0.19199">
        <ele>8.8</ele>
        <time>2017-05-14T07:13:46Z</time>
      </trkpt>
      <trkpt lat="49.28277" lon="0.192">
        <ele>8.7</ele>
        <time>2017-05-14T07:13:47Z</time>
      </trkpt>
      <trkpt lat="49.28282" lon="0.19203">
        <ele>8.6</ele>
        <time>2017-05-14T07:13:48Z</time>
      </trkpt>
      <trkpt lat="49.28287" lon="0.19205">
        <ele>8.7</ele>
        <time>2017-05-14T07:13:49Z</time>
      </trkpt>
      <trkpt lat="49.28292" lon="0.19208">
        <ele>8.3</ele>
        <time>2017-05-14T07:13:50Z</time>
      </trkpt>
      <trkpt lat="49.28296" lon="0.1921">
        <ele>8.2</ele>
        <time>2017-05-14T07:13:51Z</time>
      </trkpt>
      <trkpt lat="49.283" lon="0.19212">
        <ele>8.1</ele>
        <time>2017-05-14T07:13:52Z</time>
      </trkpt>
      <trkpt lat="49.28305" lon="0.19214">
        <ele>8.2</ele>
        <time>2017-05-14T07:13:53Z</time>
      </trkpt>
      <trkpt lat="49.28309" lon="0.19216">
        <ele>8.2</ele>
        <time>2017-05-14T07:13:54Z</time>
      </trkpt>
      <trkpt lat="49.28313" lon="0.19218">
        <ele>8.5</ele>
        <time>2017-05-14T07:13:55Z</time>
      </trkpt>
      <trkpt lat="49.28316" lon="0.1922">
        <ele>8.6</ele>
        <time>2017-05-14T07:13:56Z</time>
      </trkpt>
      <trkpt lat="49.28321" lon="0.19223">
        <ele>9</ele>
        <time>2017-05-14T07:13:57Z</time>
      </trkpt>
      <trkpt lat="49.28325" lon="0.19226">
        <ele>9.2</ele>
        <time>2017-05-14T07:13:58Z</time>
      </trkpt>
      <trkpt lat="49.28329" lon="0.19229">
        <ele>9.5</ele>
        <time>2017-05-14T07:13:59Z</time>
      </trkpt>
      <trkpt lat="49.28333" lon="0.19233">
        <ele>9.8</ele>
        <time>2017-05-14T07:14:00Z</time>
      </trkpt>
      <trkpt lat="49.28336" lon="0.19236">
        <ele>10.1</ele>
        <time>2017-05-14T07:14:01Z</time>
      </trkpt>
      <trkpt lat="49.28339" lon="0.1924">
        <ele>10.2</ele>
        <time>2017-05-14T07:14:02Z</time>
      </trkpt>
      <trkpt lat="49.28341" lon="0.19245">
        <ele>10.4</ele>
        <time>2017-05-14T07:14:03Z</time>
      </trkpt>
      <trkpt lat="49.28343" lon="0.19249">
        <ele>10.4</ele>
        <time>2017-05-14T07:14:04Z</time>
      </trkpt>
      <trkpt lat="49.28344" lon="0.19253">
        <ele>10.4</ele>
        <time>2017-05-14T07:14:05Z</time>
      </trkpt>
      <trkpt lat="49.28344" lon="0.19257">
        <ele>10.5</ele>
        <time>2017-05-14T07:14:06Z</time>
      </trkpt>
      <trkpt lat="49.28342" lon="0.19265">
        <ele>10.5</ele>
        <time>2017-05-14T07:14:08Z</time>
      </trkpt>
      <trkpt lat="49.28341" lon="0.1927">
        <ele>10.5</ele>
        <time>2017-05-14T07:14:09Z</time>
      </trkpt>
      <trkpt lat="49.28338" lon="0.19276">
        <ele>10.6</ele>
        <time>2017-05-14T07:14:10Z</time>
      </trkpt>
      <trkpt lat="49.28335" lon="0.19281">
        <ele>10.6</ele>
        <time>2017-05-14T07:14:11Z</time>
      </trkpt>
      <trkpt lat="49.28331" lon="0.19284">
        <ele>10.4</ele>
        <time>2017-05-14T07:14:12Z</time>
      </trkpt>
      <trkpt lat="49.28327" lon="0.19286">
        <ele>10.3</ele>
        <time>2017-05-14T07:14:13Z</time>
      </trkpt>
      <trkpt lat="49.28323" lon="0.19288">
        <ele>10.2</ele>
        <time>2017-05-14T07:14:14Z</time>
      </trkpt>
      <trkpt lat="49.28319" lon="0.1929">
        <ele>9.9</ele>
        <time>2017-05-14T07:14:15Z</time>
      </trkpt>
      <trkpt lat="49.28315" lon="0.19291">
        <ele>9.8</ele>
        <time>2017-05-14T07:14:16Z</time>
      </trkpt>
      <trkpt lat="49.28312" lon="0.19294">
        <ele>9.5</ele>
        <time>2017-05-14T07:14:17Z</time>
      </trkpt>
      <trkpt lat="49.28308" lon="0.19298">
        <ele>9.5</ele>
        <time>2017-05-14T07:14:18Z</time>
      </trkpt>
      <trkpt lat="49.28306" lon="0.19303">
        <ele>9.5</ele>
        <time>2017-05-14T07:14:19Z</time>
      </trkpt>
      <trkpt lat="49.28303" lon="0.19309">
        <ele>9.7</ele>
        <time>2017-05-14T07:14:20Z</time>
      </trkpt>
      <trkpt lat="49.28301" lon="0.19314">
        <ele>9.8</ele>
        <time>2017-05-14T07:14:21Z</time>
      </trkpt>
      <trkpt lat="49.28299" lon="0.19319">
        <ele>10</ele>
        <time>2017-05-14T07:14:22Z</time>
      </trkpt>
      <trkpt lat="49.28297" lon="0.19324">
        <ele>10.2</ele>
        <time>2017-05-14T07:14:23Z</time>
      </trkpt>
      <trkpt lat="49.28295" lon="0.1933">
        <ele>10.5</ele>
        <time>2017-05-14T07:14:24Z</time>
      </trkpt>
      <trkpt lat="49.28294" lon="0.19335">
        <ele>10.6</ele>
        <time>2017-05-14T07:14:25Z</time>
      </trkpt>
      <trkpt lat="49.28292" lon="0.19342">
        <ele>10.7</ele>
        <time>2017-05-14T07:14:26Z</time>
      </trkpt>
      <trkpt lat="49.28291" lon="0.19348">
        <ele>10.8</ele>
        <time>2017-05-14T07:14:27Z</time>
      </trkpt>
      <trkpt lat="49.2829" lon="0.19354">
        <ele>10.7</ele>
        <time>2017-05-14T07:14:28Z</time>
      </trkpt>
      <trkpt lat="49.28289" lon="0.1936">
        <ele>10.7</ele>
        <time>2017-05-14T07:14:29Z</time>
      </trkpt>
      <trkpt lat="49.28287" lon="0.19367">
        <ele>10.6</ele>
        <time>2017-05-14T07:14:30Z</time>
      </trkpt>
      <trkpt lat="49.28286" lon="0.19373">
        <ele>10.5</ele>
        <time>2017-05-14T07:14:31Z</time>
      </trkpt>
      <trkpt lat="49.28285" lon="0.1938">
        <ele>10.5</ele>
        <time>2017-05-14T07:14:32Z</time>
      </trkpt>
      <trkpt lat="49.28284" lon="0.19387">
        <ele>10.4</ele>
        <time>2017-05-14T07:14:33Z</time>
      </trkpt>
      <trkpt lat="49.28283" lon="0.19394">
        <ele>10.5</ele>
        <time>2017-05-14T07:14:34Z</time>
      </trkpt>
      <trkpt lat="49.28283" lon="0.19401">
        <ele>10.4</ele>
        <time>2017-05-14T07:14:35Z</time>
      </trkpt>
      <trkpt lat="49.28282" lon="0.19408">
        <ele>10.4</ele>
        <time>2017-05-14T07:14:36Z</time>
      </trkpt>
      <trkpt lat="49.28282" lon="0.19415">
        <ele>10.4</ele>
        <time>2017-05-14T07:14:37Z</time>
      </trkpt>
      <trkpt lat="49.28283" lon="0.19421">
        <ele>10.5</ele>
        <time>2017-05-14T07:14:38Z</time>
      </trkpt>
      <trkpt lat="49.28284" lon="0.19427">
        <ele>10.5</ele>
        <time>2017-05-14T07:14:39Z</time>
      </trkpt>
      <trkpt lat="49.28285" lon="0.19433">
        <ele>10.5</ele>
        <time>2017-05-14T07:14:40Z</time>
      </trkpt>
      <trkpt lat="49.28286" lon="0.19439">
        <ele>10.6</ele>
        <time>2017-05-14T07:14:41Z</time>
      </trkpt>
      <trkpt lat="49.28288" lon="0.19444">
        <ele>10.6</ele>
        <time>2017-05-14T07:14:42Z</time>
      </trkpt>
      <trkpt lat="49.28291" lon="0.19447">
        <ele>10.7</ele>
        <time>2017-05-14T07:14:43Z</time>
      </trkpt>
      <trkpt lat="49.28293" lon="0.1945">
        <ele>10.7</ele>
        <time>2017-05-14T07:14:44Z</time>
      </trkpt>
      <trkpt lat="49.28296" lon="0.19455">
        <ele>10.7</ele>
        <time>2017-05-14T07:14:45Z</time>
      </trkpt>
      <trkpt lat="49.28298" lon="0.1946">
        <ele>10.7</ele>
        <time>2017-05-14T07:14:46Z</time>
      </trkpt>
      <trkpt lat="49.28299" lon="0.19467">
        <ele>10.7</ele>
        <time>2017-05-14T07:14:47Z</time>
      </trkpt>
      <trkpt lat="49.28298" lon="0.19472">
        <ele>10.7</ele>
        <time>2017-05-14T07:14:48Z</time>
      </trkpt>
      <trkpt lat="49.28296" lon="0.19477">
        <ele>10.7</ele>
        <time>2017-05-14T07:14:49Z</time>
      </trkpt>
      <trkpt lat="49.28293" lon="0.19482">
        <ele>10.8</ele>
        <time>2017-05-14T07:14:50Z</time>
      </trkpt>
      <trkpt lat="49.28291" lon="0.19487">
        <ele>10.9</ele>
        <time>2017-05-14T07:14:51Z</time>
      </trkpt>
      <trkpt lat="49.28288" lon="0.19491">
        <ele>10.9</ele>
        <time>2017-05-14T07:14:52Z</time>
      </trkpt>
      <trkpt lat="49.28285" lon="0.19495">
        <ele>10.9</ele>
        <time>2017-05-14T07:14:53Z</time>
      </trkpt>
      <trkpt lat="49.28282" lon="0.195">
        <ele>10.8</ele>
        <time>2017-05-14T07:14:54Z</time>
      </trkpt>
      <trkpt lat="49.2828" lon="0.19506">
        <ele>10.5</ele>
        <time>2017-05-14T07:14:55Z</time>
      </trkpt>
      <trkpt lat="49.28277" lon="0.19511">
        <ele>10.3</ele>
        <time>2017-05-14T07:14:56Z</time>
      </trkpt>
      <trkpt lat="49.28275" lon="0.19517">
        <ele>10</ele>
        <time>2017-05-14T07:14:57Z</time>
      </trkpt>
      <trkpt lat="49.28273" lon="0.19523">
        <ele>9.8</ele>
        <time>2017-05-14T07:14:58Z</time>
      </trkpt>
      <trkpt lat="49.28272" lon="0.19529">
        <ele>9.6</ele>
        <time>2017-05-14T07:14:59Z</time>
      </trkpt>
      <trkpt lat="49.28271" lon="0.19536">
        <ele>9.6</ele>
        <time>2017-05-14T07:15:00Z</time>
      </trkpt>
      <trkpt lat="49.2827" lon="0.19542">
        <ele>9.6</ele>
        <time>2017-05-14T07:15:01Z</time>
      </trkpt>
      <trkpt lat="49.28269" lon="0.19548">
        <ele>9.7</ele>
        <time>2017-05-14T07:15:02Z</time>
      </trkpt>
      <trkpt lat="49.28269" lon="0.19555">
        <ele>9.8</ele>
        <time>2017-05-14T07:15:03Z</time>
      </trkpt>
      <trkpt lat="49.2827" lon="0.19561">
        <ele>9.9</ele>
        <time>2017-05-14T07:15:04Z</time>
      </trkpt>
      <trkpt lat="49.2827" lon="0.19567">
        <ele>9.9</ele>
        <time>2017-05-14T07:15:05Z</time>
      </trkpt>
      <trkpt lat="49.28271" lon="0.19572">
        <ele>9.9</ele>
        <time>2017-05-14T07:15:06Z</time>
      </trkpt>
      <trkpt lat="49.28272" lon="0.19578">
        <ele>9.9</ele>
        <time>2017-05-14T07:15:07Z</time>
      </trkpt>
      <trkpt lat="49.28272" lon="0.19583">
        <ele>10</ele>
        <time>2017-05-14T07:15:08Z</time>
      </trkpt>
      <trkpt lat="49.28272" lon="0.19588">
        <ele>10</ele>
        <time>2017-05-14T07:15:09Z</time>
      </trkpt>
      <trkpt lat="49.28272" lon="0.19593">
        <ele>10.1</ele>
        <time>2017-05-14T07:15:11Z</time>
      </trkpt>
      <trkpt lat="49.28273" lon="0.19598">
        <ele>9.9</ele>
        <time>2017-05-14T07:15:15Z</time>
      </trkpt>
      <trkpt lat="49.28274" lon="0.19605">
        <ele>10</ele>
        <time>2017-05-14T07:15:17Z</time>
      </trkpt>
      <trkpt lat="49.28275" lon="0.1961">
        <ele>10</ele>
        <time>2017-05-14T07:15:19Z</time>
      </trkpt>
      <trkpt lat="49.28277" lon="0.19616">
        <ele>9.8</ele>
        <time>2017-05-14T07:15:20Z</time>
      </trkpt>
      <trkpt lat="49.28276" lon="0.19621">
        <ele>9.8</ele>
        <time>2017-05-14T07:15:21Z</time>
      </trkpt>
      <trkpt lat="49.28276" lon="0.19627">
        <ele>9.8</ele>
        <time>2017-05-14T07:15:22Z</time>
      </trkpt>
      <trkpt lat="49.28277" lon="0.19635">
        <ele>9.8</ele>
        <time>2017-05-14T07:15:23Z</time>
      </trkpt>
      <trkpt lat="49.28271" lon="0.19642">
        <ele>10.3</ele>
        <time>2017-05-14T07:15:24Z</time>
      </trkpt>
      <trkpt lat="49.28268" lon="0.19645">
        <ele>10.5</ele>
        <time>2017-05-14T07:15:25Z</time>
      </trkpt>
      <trkpt lat="49.28265" lon="0.19646">
        <ele>10.7</ele>
        <time>2017-05-14T07:15:26Z</time>
      </trkpt>
      <trkpt lat="49.28262" lon="0.1965">
        <ele>10.9</ele>
        <time>2017-05-14T07:15:28Z</time>
      </trkpt>
      <trkpt lat="49.28258" lon="0.19654">
        <ele>11.4</ele>
        <time>2017-05-14T07:15:31Z</time>
      </trkpt>
      <trkpt lat="49.28254" lon="0.19662">
        <ele>11.6</ele>
        <time>2017-05-14T07:15:33Z</time>
      </trkpt>
      <trkpt lat="49.28252" lon="0.19666">
        <ele>11.7</ele>
        <time>2017-05-14T07:15:35Z</time>
      </trkpt>
      <trkpt lat="49.28249" lon="0.19668">
        <ele>11.9</ele>
        <time>2017-05-14T07:15:37Z</time>
      </trkpt>
      <trkpt lat="49.28243" lon="0.19669">
        <ele>12.1</ele>
        <time>2017-05-14T07:15:41Z</time>
      </trkpt>
      <trkpt lat="49.28238" lon="0.19669">
        <ele>12.4</ele>
        <time>2017-05-14T07:15:42Z</time>
      </trkpt>
      <trkpt lat="49.28234" lon="0.19668">
        <ele>12.6</ele>
        <time>2017-05-14T07:15:43Z</time>
      </trkpt>
      <trkpt lat="49.2823" lon="0.19667">
        <ele>12.8</ele>
        <time>2017-05-14T07:15:44Z</time>
      </trkpt>
      <trkpt lat="49.28227" lon="0.19666">
        <ele>12.8</ele>
        <time>2017-05-14T07:15:45Z</time>
      </trkpt>
      <trkpt lat="49.28223" lon="0.19664">
        <ele>12.9</ele>
        <time>2017-05-14T07:15:47Z</time>
      </trkpt>
      <trkpt lat="49.28219" lon="0.19663">
        <ele>12.9</ele>
        <time>2017-05-14T07:15:49Z</time>
      </trkpt>
      <trkpt lat="49.28214" lon="0.19662">
        <ele>12.9</ele>
        <time>2017-05-14T07:15:51Z</time>
      </trkpt>
      <trkpt lat="49.2821" lon="0.19659">
        <ele>12.9</ele>
        <time>2017-05-14T07:15:53Z</time>
      </trkpt>
      <trkpt lat="49.28206" lon="0.19658">
        <ele>13</ele>
        <time>2017-05-14T07:15:54Z</time>
      </trkpt>
      <trkpt lat="49.28202" lon="0.19659">
        <ele>13</ele>
        <time>2017-05-14T07:15:55Z</time>
      </trkpt>
      <trkpt lat="49.28198" lon="0.19657">
        <ele>13</ele>
        <time>2017-05-14T07:15:58Z</time>
      </trkpt>
      <trkpt lat="49.28191" lon="0.19668">
        <ele>12.9</ele>
        <time>2017-05-14T07:16:00Z</time>
      </trkpt>
      <trkpt lat="49.28185" lon="0.19677">
        <ele>12.6</ele>
        <time>2017-05-14T07:16:01Z</time>
      </trkpt>
      <trkpt lat="49.28183" lon="0.1968">
        <ele>12.7</ele>
        <time>2017-05-14T07:16:02Z</time>
      </trkpt>
      <trkpt lat="49.28173" lon="0.1968">
        <ele>13.2</ele>
        <time>2017-05-14T07:16:04Z</time>
      </trkpt>
      <trkpt lat="49.28167" lon="0.19681">
        <ele>13.5</ele>
        <time>2017-05-14T07:16:05Z</time>
      </trkpt>
      <trkpt lat="49.28164" lon="0.19683">
        <ele>13.5</ele>
        <time>2017-05-14T07:16:08Z</time>
      </trkpt>
      <trkpt lat="49.28154" lon="0.19685">
        <ele>14.1</ele>
        <time>2017-05-14T07:16:11Z</time>
      </trkpt>
      <trkpt lat="49.28148" lon="0.19683">
        <ele>14.5</ele>
        <time>2017-05-14T07:16:12Z</time>
      </trkpt>
      <trkpt lat="49.28142" lon="0.19681">
        <ele>14.7</ele>
        <time>2017-05-14T07:16:13Z</time>
      </trkpt>
      <trkpt lat="49.28138" lon="0.1968">
        <ele>15</ele>
        <time>2017-05-14T07:16:15Z</time>
      </trkpt>
      <trkpt lat="49.28134" lon="0.19678">
        <ele>15.2</ele>
        <time>2017-05-14T07:16:18Z</time>
      </trkpt>
      <trkpt lat="49.28131" lon="0.19671">
        <ele>15.3</ele>
        <time>2017-05-14T07:16:20Z</time>
      </trkpt>
      <trkpt lat="49.28129" lon="0.19666">
        <ele>15.5</ele>
        <time>2017-05-14T07:16:21Z</time>
      </trkpt>
      <trkpt lat="49.28127" lon="0.19662">
        <ele>15.6</ele>
        <time>2017-05-14T07:16:24Z</time>
      </trkpt>
      <trkpt lat="49.2813" lon="0.19656">
        <ele>15.5</ele>
        <time>2017-05-14T07:16:26Z</time>
      </trkpt>
      <trkpt lat="49.28128" lon="0.19651">
        <ele>15.7</ele>
        <time>2017-05-14T07:16:28Z</time>
      </trkpt>
      <trkpt lat="49.28123" lon="0.19646">
        <ele>15.7</ele>
        <time>2017-05-14T07:16:30Z</time>
      </trkpt>
      <trkpt lat="49.28119" lon="0.19644">
        <ele>15.4</ele>
        <time>2017-05-14T07:16:31Z</time>
      </trkpt>
      <trkpt lat="49.28123" lon="0.19638">
        <ele>15.7</ele>
        <time>2017-05-14T07:16:32Z</time>
      </trkpt>
      <trkpt lat="49.2812" lon="0.19639">
        <ele>15.5</ele>
        <time>2017-05-14T07:16:33Z</time>
      </trkpt>
      <trkpt lat="49.28116" lon="0.19641">
        <ele>15.2</ele>
        <time>2017-05-14T07:16:34Z</time>
      </trkpt>
      <trkpt lat="49.2811" lon="0.19647">
        <ele>15</ele>
        <time>2017-05-14T07:16:35Z</time>
      </trkpt>
      <trkpt lat="49.28103" lon="0.19652">
        <ele>15.3</ele>
        <time>2017-05-14T07:16:36Z</time>
      </trkpt>
      <trkpt lat="49.28098" lon="0.19657">
        <ele>15.2</ele>
        <time>2017-05-14T07:16:37Z</time>
      </trkpt>
      <trkpt lat="49.28094" lon="0.19662">
        <ele>15.1</ele>
        <time>2017-05-14T07:16:38Z</time>
      </trkpt>
      <trkpt lat="49.2809" lon="0.19667">
        <ele>14.7</ele>
        <time>2017-05-14T07:16:39Z</time>
      </trkpt>
      <trkpt lat="49.28085" lon="0.19671">
        <ele>14.4</ele>
        <time>2017-05-14T07:16:40Z</time>
      </trkpt>
      <trkpt lat="49.28077" lon="0.19678">
        <ele>13.5</ele>
        <time>2017-05-14T07:16:41Z</time>
      </trkpt>
      <trkpt lat="49.28072" lon="0.1968">
        <ele>13</ele>
        <time>2017-05-14T07:16:42Z</time>
      </trkpt>
      <trkpt lat="49.28065" lon="0.19679">
        <ele>12.6</ele>
        <time>2017-05-14T07:16:43Z</time>
      </trkpt>
      <trkpt lat="49.28056" lon="0.19672">
        <ele>12</ele>
        <time>2017-05-14T07:16:44Z</time>
      </trkpt>
      <trkpt lat="49.28051" lon="0.19666">
        <ele>11.6</ele>
        <time>2017-05-14T07:16:45Z</time>
      </trkpt>
      <trkpt lat="49.28048" lon="0.19663">
        <ele>11.5</ele>
        <time>2017-05-14T07:16:46Z</time>
      </trkpt>
      <trkpt lat="49.28045" lon="0.1966">
        <ele>11.4</ele>
        <time>2017-05-14T07:16:47Z</time>
      </trkpt>
      <trkpt lat="49.28043" lon="0.19657">
        <ele>11.6</ele>
        <time>2017-05-14T07:16:48Z</time>
      </trkpt>
      <trkpt lat="49.28039" lon="0.19651">
        <ele>12</ele>
        <time>2017-05-14T07:16:50Z</time>
      </trkpt>
      <trkpt lat="49.28035" lon="0.19646">
        <ele>12.8</ele>
        <time>2017-05-14T07:16:52Z</time>
      </trkpt>
      <trkpt lat="49.2803" lon="0.19643">
        <ele>13.3</ele>
        <time>2017-05-14T07:16:53Z</time>
      </trkpt>
      <trkpt lat="49.28026" lon="0.19639">
        <ele>13.9</ele>
        <time>2017-05-14T07:16:54Z</time>
      </trkpt>
      <trkpt lat="49.28021" lon="0.19637">
        <ele>14.5</ele>
        <time>2017-05-14T07:16:55Z</time>
      </trkpt>
      <trkpt lat="49.28017" lon="0.19636">
        <ele>14.9</ele>
        <time>2017-05-14T07:16:56Z</time>
      </trkpt>
      <trkpt lat="49.28013" lon="0.19635">
        <ele>15.2</ele>
        <time>2017-05-14T07:16:57Z</time>
      </trkpt>
      <trkpt lat="49.2801" lon="0.19634">
        <ele>15.3</ele>
        <time>2017-05-14T07:16:58Z</time>
      </trkpt>
      <trkpt lat="49.28006" lon="0.19633">
        <ele>15.2</ele>
        <time>2017-05-14T07:16:59Z</time>
      </trkpt>
      <trkpt lat="49.28002" lon="0.19633">
        <ele>15</ele>
        <time>2017-05-14T07:17:00Z</time>
      </trkpt>
      <trkpt lat="49.27997" lon="0.19632">
        <ele>14.6</ele>
        <time>2017-05-14T07:17:01Z</time>
      </trkpt>
      <trkpt lat="49.27991" lon="0.19631">
        <ele>14.1</ele>
        <time>2017-05-14T07:17:02Z</time>
      </trkpt>
      <trkpt lat="49.27986" lon="0.19629">
        <ele>13.6</ele>
        <time>2017-05-14T07:17:03Z</time>
      </trkpt>
      <trkpt lat="49.27981" lon="0.19628">
        <ele>13.1</ele>
        <time>2017-05-14T07:17:04Z</time>
      </trkpt>
      <trkpt lat="49.27976" lon="0.19627">
        <ele>12.7</ele>
        <time>2017-05-14T07:17:05Z</time>
      </trkpt>
      <trkpt lat="49.27971" lon="0.19626">
        <ele>12.5</ele>
        <time>2017-05-14T07:17:06Z</time>
      </trkpt>
      <trkpt lat="49.27966" lon="0.19625">
        <ele>12.5</ele>
        <time>2017-05-14T07:17:07Z</time>
      </trkpt>
      <trkpt lat="49.27961" lon="0.19623">
        <ele>12.7</ele>
        <time>2017-05-14T07:17:08Z</time>
      </trkpt>
      <trkpt lat="49.27957" lon="0.19622">
        <ele>13</ele>
        <time>2017-05-14T07:17:09Z</time>
      </trkpt>
      <trkpt lat="49.27952" lon="0.1962">
        <ele>13.4</ele>
        <time>2017-05-14T07:17:10Z</time>
      </trkpt>
      <trkpt lat="49.27947" lon="0.19619">
        <ele>13.6</ele>
        <time>2017-05-14T07:17:11Z</time>
      </trkpt>
      <trkpt lat="49.27942" lon="0.19617">
        <ele>14</ele>
        <time>2017-05-14T07:17:12Z</time>
      </trkpt>
      <trkpt lat="49.27938" lon="0.19615">
        <ele>14.4</ele>
        <time>2017-05-14T07:17:13Z</time>
      </trkpt>
      <trkpt lat="49.27933" lon="0.19613">
        <ele>14.6</ele>
        <time>2017-05-14T07:17:14Z</time>
      </trkpt>
      <trkpt lat="49.27929" lon="0.19611">
        <ele>14.8</ele>
        <time>2017-05-14T07:17:15Z</time>
      </trkpt>
      <trkpt lat="49.27926" lon="0.19608">
        <ele>14.9</ele>
        <time>2017-05-14T07:17:16Z</time>
      </trkpt>
      <trkpt lat="49.27922" lon="0.19606">
        <ele>14.9</ele>
        <time>2017-05-14T07:17:17Z</time>
      </trkpt>
      <trkpt lat="49.27919" lon="0.19604">
        <ele>14.9</ele>
        <time>2017-05-14T07:17:18Z</time>
      </trkpt>
      <trkpt lat="49.27917" lon="0.19602">
        <ele>14.8</ele>
        <time>2017-05-14T07:17:22Z</time>
      </trkpt>
      <trkpt lat="49.27914" lon="0.19601">
        <ele>14.7</ele>
        <time>2017-05-14T07:17:25Z</time>
      </trkpt>
      <trkpt lat="49.27911" lon="0.196">
        <ele>14.8</ele>
        <time>2017-05-14T07:17:29Z</time>
      </trkpt>
      <trkpt lat="49.27907" lon="0.19598">
        <ele>14.8</ele>
        <time>2017-05-14T07:17:31Z</time>
      </trkpt>
      <trkpt lat="49.27903" lon="0.19596">
        <ele>15</ele>
        <time>2017-05-14T07:17:33Z</time>
      </trkpt>
      <trkpt lat="49.279" lon="0.19594">
        <ele>15.1</ele>
        <time>2017-05-14T07:17:34Z</time>
      </trkpt>
      <trkpt lat="49.27897" lon="0.19592">
        <ele>15.2</ele>
        <time>2017-05-14T07:17:35Z</time>
      </trkpt>
      <trkpt lat="49.27893" lon="0.1959">
        <ele>15.3</ele>
        <time>2017-05-14T07:17:36Z</time>
      </trkpt>
      <trkpt lat="49.27889" lon="0.19588">
        <ele>15.4</ele>
        <time>2017-05-14T07:17:37Z</time>
      </trkpt>
      <trkpt lat="49.27885" lon="0.19586">
        <ele>15.4</ele>
        <time>2017-05-14T07:17:38Z</time>
      </trkpt>
      <trkpt lat="49.27881" lon="0.19584">
        <ele>15.4</ele>
        <time>2017-05-14T07:17:39Z</time>
      </trkpt>
      <trkpt lat="49.27877" lon="0.19582">
        <ele>15.3</ele>
        <time>2017-05-14T07:17:40Z</time>
      </trkpt>
      <trkpt lat="49.27873" lon="0.1958">
        <ele>15.1</ele>
        <time>2017-05-14T07:17:41Z</time>
      </trkpt>
      <trkpt lat="49.27868" lon="0.19578">
        <ele>14.9</ele>
        <time>2017-05-14T07:17:42Z</time>
      </trkpt>
      <trkpt lat="49.27864" lon="0.19575">
        <ele>14.7</ele>
        <time>2017-05-14T07:17:43Z</time>
      </trkpt>
      <trkpt lat="49.2786" lon="0.19573">
        <ele>14.5</ele>
        <time>2017-05-14T07:17:44Z</time>
      </trkpt>
      <trkpt lat="49.27856" lon="0.1957">
        <ele>14.3</ele>
        <time>2017-05-14T07:17:45Z</time>
      </trkpt>
      <trkpt lat="49.27851" lon="0.19567">
        <ele>14.2</ele>
        <time>2017-05-14T07:17:46Z</time>
      </trkpt>
      <trkpt lat="49.27846" lon="0.19563">
        <ele>14</ele>
        <time>2017-05-14T07:17:47Z</time>
      </trkpt>
      <trkpt lat="49.27841" lon="0.1956">
        <ele>13.9</ele>
        <time>2017-05-14T07:17:48Z</time>
      </trkpt>
      <trkpt lat="49.27836" lon="0.19558">
        <ele>13.8</ele>
        <time>2017-05-14T07:17:49Z</time>
      </trkpt>
      <trkpt lat="49.27831" lon="0.19555">
        <ele>13.7</ele>
        <time>2017-05-14T07:17:50Z</time>
      </trkpt>
      <trkpt lat="49.27826" lon="0.19552">
        <ele>13.7</ele>
        <time>2017-05-14T07:17:51Z</time>
      </trkpt>
      <trkpt lat="49.27822" lon="0.19549">
        <ele>13.7</ele>
        <time>2017-05-14T07:17:52Z</time>
      </trkpt>
      <trkpt lat="49.27817" lon="0.19546">
        <ele>14</ele>
        <time>2017-05-14T07:17:53Z</time>
      </trkpt>
      <trkpt lat="49.27812" lon="0.19543">
        <ele>14.3</ele>
        <time>2017-05-14T07:17:54Z</time>
      </trkpt>
      <trkpt lat="49.27807" lon="0.19541">
        <ele>14.7</ele>
        <time>2017-05-14T07:17:55Z</time>
      </trkpt>
      <trkpt lat="49.27802" lon="0.19538">
        <ele>14.9</ele>
        <time>2017-05-14T07:17:56Z</time>
      </trkpt>
      <trkpt lat="49.27797" lon="0.19535">
        <ele>15.1</ele>
        <time>2017-05-14T07:17:57Z</time>
      </trkpt>
      <trkpt lat="49.27792" lon="0.19532">
        <ele>15.2</ele>
        <time>2017-05-14T07:17:58Z</time>
      </trkpt>
      <trkpt lat="49.27787" lon="0.19528">
        <ele>15.2</ele>
        <time>2017-05-14T07:17:59Z</time>
      </trkpt>
      <trkpt lat="49.27782" lon="0.19524">
        <ele>15.1</ele>
        <time>2017-05-14T07:18:00Z</time>
      </trkpt>
      <trkpt lat="49.27777" lon="0.1952">
        <ele>15.2</ele>
        <time>2017-05-14T07:18:01Z</time>
      </trkpt>
      <trkpt lat="49.27772" lon="0.19517">
        <ele>15.4</ele>
        <time>2017-05-14T07:18:02Z</time>
      </trkpt>
      <trkpt lat="49.27768" lon="0.19514">
        <ele>15.6</ele>
        <time>2017-05-14T07:18:03Z</time>
      </trkpt>
      <trkpt lat="49.27764" lon="0.1951">
        <ele>15.9</ele>
        <time>2017-05-14T07:18:04Z</time>
      </trkpt>
      <trkpt lat="49.2776" lon="0.19507">
        <ele>16.1</ele>
        <time>2017-05-14T07:18:05Z</time>
      </trkpt>
      <trkpt lat="49.27755" lon="0.19504">
        <ele>16.3</ele>
        <time>2017-05-14T07:18:06Z</time>
      </trkpt>
      <trkpt lat="49.27751" lon="0.19501">
        <ele>16.5</ele>
        <time>2017-05-14T07:18:07Z</time>
      </trkpt>
      <trkpt lat="49.27746" lon="0.19497">
        <ele>16.7</ele>
        <time>2017-05-14T07:18:08Z</time>
      </trkpt>
      <trkpt lat="49.27742" lon="0.19493">
        <ele>17</ele>
        <time>2017-05-14T07:18:09Z</time>
      </trkpt>
      <trkpt lat="49.27737" lon="0.19489">
        <ele>17.1</ele>
        <time>2017-05-14T07:18:10Z</time>
      </trkpt>
      <trkpt lat="49.27733" lon="0.19486">
        <ele>17.1</ele>
        <time>2017-05-14T07:18:11Z</time>
      </trkpt>
      <trkpt lat="49.27728" lon="0.19482">
        <ele>17</ele>
        <time>2017-05-14T07:18:12Z</time>
      </trkpt>
      <trkpt lat="49.27724" lon="0.19478">
        <ele>16.9</ele>
        <time>2017-05-14T07:18:13Z</time>
      </trkpt>
      <trkpt lat="49.2772" lon="0.19474">
        <ele>16.8</ele>
        <time>2017-05-14T07:18:14Z</time>
      </trkpt>
      <trkpt lat="49.27716" lon="0.19471">
        <ele>16.7</ele>
        <time>2017-05-14T07:18:15Z</time>
      </trkpt>
      <trkpt lat="49.27712" lon="0.19467">
        <ele>16.7</ele>
        <time>2017-05-14T07:18:16Z</time>
      </trkpt>
      <trkpt lat="49.27708" lon="0.19463">
        <ele>16.7</ele>
        <time>2017-05-14T07:18:17Z</time>
      </trkpt>
      <trkpt lat="49.27704" lon="0.19459">
        <ele>16.7</ele>
        <time>2017-05-14T07:18:18Z</time>
      </trkpt>
      <trkpt lat="49.277" lon="0.19456">
        <ele>16.5</ele>
        <time>2017-05-14T07:18:19Z</time>
      </trkpt>
      <trkpt lat="49.27696" lon="0.19453">
        <ele>16.3</ele>
        <time>2017-05-14T07:18:20Z</time>
      </trkpt>
      <trkpt lat="49.27692" lon="0.1945">
        <ele>16.1</ele>
        <time>2017-05-14T07:18:21Z</time>
      </trkpt>
      <trkpt lat="49.27688" lon="0.19448">
        <ele>15.8</ele>
        <time>2017-05-14T07:18:22Z</time>
      </trkpt>
      <trkpt lat="49.27684" lon="0.19445">
        <ele>15.6</ele>
        <time>2017-05-14T07:18:23Z</time>
      </trkpt>
      <trkpt lat="49.2768" lon="0.19443">
        <ele>15.4</ele>
        <time>2017-05-14T07:18:24Z</time>
      </trkpt>
      <trkpt lat="49.27676" lon="0.1944">
        <ele>15.3</ele>
        <time>2017-05-14T07:18:25Z</time>
      </trkpt>
      <trkpt lat="49.27672" lon="0.19437">
        <ele>15.2</ele>
        <time>2017-05-14T07:18:26Z</time>
      </trkpt>
      <trkpt lat="49.27668" lon="0.19434">
        <ele>15.2</ele>
        <time>2017-05-14T07:18:27Z</time>
      </trkpt>
      <trkpt lat="49.27664" lon="0.19431">
        <ele>15.2</ele>
        <time>2017-05-14T07:18:28Z</time>
      </trkpt>
      <trkpt lat="49.2766" lon="0.19427">
        <ele>15.1</ele>
        <time>2017-05-14T07:18:29Z</time>
      </trkpt>
      <trkpt lat="49.27656" lon="0.19424">
        <ele>15</ele>
        <time>2017-05-14T07:18:30Z</time>
      </trkpt>
      <trkpt lat="49.27652" lon="0.19421">
        <ele>15</ele>
        <time>2017-05-14T07:18:31Z</time>
      </trkpt>
      <trkpt lat="49.27649" lon="0.19418">
        <ele>15.1</ele>
        <time>2017-05-14T07:18:32Z</time>
      </trkpt>
      <trkpt lat="49.27645" lon="0.19415">
        <ele>15.2</ele>
        <time>2017-05-14T07:18:33Z</time>
      </trkpt>
      <trkpt lat="49.27641" lon="0.19412">
        <ele>15.4</ele>
        <time>2017-05-14T07:18:34Z</time>
      </trkpt>
      <trkpt lat="49.27637" lon="0.19409">
        <ele>15.7</ele>
        <time>2017-05-14T07:18:35Z</time>
      </trkpt>
      <trkpt lat="49.27633" lon="0.19406">
        <ele>16</ele>
        <time>2017-05-14T07:18:36Z</time>
      </trkpt>
      <trkpt lat="49.2763" lon="0.19402">
        <ele>16.3</ele>
        <time>2017-05-14T07:18:37Z</time>
      </trkpt>
      <trkpt lat="49.27626" lon="0.194">
        <ele>16.5</ele>
        <time>2017-05-14T07:18:38Z</time>
      </trkpt>
      <trkpt lat="49.27622" lon="0.19397">
        <ele>16.5</ele>
        <time>2017-05-14T07:18:39Z</time>
      </trkpt>
      <trkpt lat="49.27618" lon="0.19394">
        <ele>16.6</ele>
        <time>2017-05-14T07:18:40Z</time>
      </trkpt>
      <trkpt lat="49.27614" lon="0.19391">
        <ele>16.7</ele>
        <time>2017-05-14T07:18:41Z</time>
      </trkpt>
      <trkpt lat="49.2761" lon="0.19388">
        <ele>16.8</ele>
        <time>2017-05-14T07:18:42Z</time>
      </trkpt>
      <trkpt lat="49.27606" lon="0.19385">
        <ele>16.9</ele>
        <time>2017-05-14T07:18:43Z</time>
      </trkpt>
      <trkpt lat="49.27602" lon="0.19383">
        <ele>17</ele>
        <time>2017-05-14T07:18:44Z</time>
      </trkpt>
      <trkpt lat="49.27598" lon="0.1938">
        <ele>17.1</ele>
        <time>2017-05-14T07:18:45Z</time>
      </trkpt>
      <trkpt lat="49.27594" lon="0.19377">
        <ele>17.1</ele>
        <time>2017-05-14T07:18:46Z</time>
      </trkpt>
      <trkpt lat="49.2759" lon="0.19374">
        <ele>17.1</ele>
        <time>2017-05-14T07:18:47Z</time>
      </trkpt>
      <trkpt lat="49.27586" lon="0.19371">
        <ele>17</ele>
        <time>2017-05-14T07:18:48Z</time>
      </trkpt>
      <trkpt lat="49.27582" lon="0.19367">
        <ele>16.9</ele>
        <time>2017-05-14T07:18:49Z</time>
      </trkpt>
      <trkpt lat="49.27578" lon="0.19363">
        <ele>16.8</ele>
        <time>2017-05-14T07:18:50Z</time>
      </trkpt>
      <trkpt lat="49.27574" lon="0.1936">
        <ele>16.7</ele>
        <time>2017-05-14T07:18:51Z</time>
      </trkpt>
      <trkpt lat="49.2757" lon="0.19356">
        <ele>16.7</ele>
        <time>2017-05-14T07:18:52Z</time>
      </trkpt>
      <trkpt lat="49.27566" lon="0.19352">
        <ele>16.8</ele>
        <time>2017-05-14T07:18:53Z</time>
      </trkpt>
      <trkpt lat="49.27562" lon="0.19349">
        <ele>16.7</ele>
        <time>2017-05-14T07:18:54Z</time>
      </trkpt>
      <trkpt lat="49.27559" lon="0.19345">
        <ele>16.6</ele>
        <time>2017-05-14T07:18:55Z</time>
      </trkpt>
      <trkpt lat="49.27555" lon="0.19341">
        <ele>16.6</ele>
        <time>2017-05-14T07:18:56Z</time>
      </trkpt>
      <trkpt lat="49.27551" lon="0.19337">
        <ele>16.7</ele>
        <time>2017-05-14T07:18:57Z</time>
      </trkpt>
      <trkpt lat="49.27547" lon="0.19333">
        <ele>17</ele>
        <time>2017-05-14T07:18:58Z</time>
      </trkpt>
      <trkpt lat="49.27543" lon="0.19329">
        <ele>17.4</ele>
        <time>2017-05-14T07:18:59Z</time>
      </trkpt>
      <trkpt lat="49.2754" lon="0.19325">
        <ele>18.1</ele>
        <time>2017-05-14T07:19:00Z</time>
      </trkpt>
      <trkpt lat="49.27536" lon="0.19321">
        <ele>18.6</ele>
        <time>2017-05-14T07:19:01Z</time>
      </trkpt>
      <trkpt lat="49.27532" lon="0.19317">
        <ele>19</ele>
        <time>2017-05-14T07:19:02Z</time>
      </trkpt>
      <trkpt lat="49.27527" lon="0.19312">
        <ele>19.3</ele>
        <time>2017-05-14T07:19:03Z</time>
      </trkpt>
      <trkpt lat="49.27523" lon="0.19308">
        <ele>19.4</ele>
        <time>2017-05-14T07:19:04Z</time>
      </trkpt>
      <trkpt lat="49.27519" lon="0.19303">
        <ele>19.4</ele>
        <time>2017-05-14T07:19:05Z</time>
      </trkpt>
      <trkpt lat="49.27515" lon="0.19299">
        <ele>19.4</ele>
        <time>2017-05-14T07:19:06Z</time>
      </trkpt>
      <trkpt lat="49.27511" lon="0.19296">
        <ele>19.3</ele>
        <time>2017-05-14T07:19:07Z</time>
      </trkpt>
      <trkpt lat="49.27507" lon="0.19293">
        <ele>19.2</ele>
        <time>2017-05-14T07:19:08Z</time>
      </trkpt>
      <trkpt lat="49.27502" lon="0.19289">
        <ele>19.1</ele>
        <time>2017-05-14T07:19:09Z</time>
      </trkpt>
      <trkpt lat="49.27498" lon="0.19286">
        <ele>19</ele>
        <time>2017-05-14T07:19:10Z</time>
      </trkpt>
      <trkpt lat="49.27494" lon="0.19283">
        <ele>18.9</ele>
        <time>2017-05-14T07:19:11Z</time>
      </trkpt>
      <trkpt lat="49.2749" lon="0.1928">
        <ele>19</ele>
        <time>2017-05-14T07:19:12Z</time>
      </trkpt>
      <trkpt lat="49.27486" lon="0.19277">
        <ele>19</ele>
        <time>2017-05-14T07:19:13Z</time>
      </trkpt>
      <trkpt lat="49.27482" lon="0.19274">
        <ele>19.1</ele>
        <time>2017-05-14T07:19:14Z</time>
      </trkpt>
      <trkpt lat="49.27477" lon="0.19271">
        <ele>19.3</ele>
        <time>2017-05-14T07:19:15Z</time>
      </trkpt>
      <trkpt lat="49.27473" lon="0.19268">
        <ele>19.4</ele>
        <time>2017-05-14T07:19:16Z</time>
      </trkpt>
      <trkpt lat="49.27468" lon="0.19266">
        <ele>19.6</ele>
        <time>2017-05-14T07:19:17Z</time>
      </trkpt>
      <trkpt lat="49.27463" lon="0.19263">
        <ele>19.8</ele>
        <time>2017-05-14T07:19:18Z</time>
      </trkpt>
      <trkpt lat="49.27458" lon="0.1926">
        <ele>19.8</ele>
        <time>2017-05-14T07:19:19Z</time>
      </trkpt>
      <trkpt lat="49.27454" lon="0.19257">
        <ele>19.9</ele>
        <time>2017-05-14T07:19:20Z</time>
      </trkpt>
      <trkpt lat="49.27449" lon="0.19254">
        <ele>20</ele>
        <time>2017-05-14T07:19:21Z</time>
      </trkpt>
      <trkpt lat="49.27445" lon="0.19251">
        <ele>20.1</ele>
        <time>2017-05-14T07:19:22Z</time>
      </trkpt>
      <trkpt lat="49.2744" lon="0.19249">
        <ele>20.2</ele>
        <time>2017-05-14T07:19:23Z</time>
      </trkpt>
      <trkpt lat="49.27436" lon="0.19246">
        <ele>20.2</ele>
        <time>2017-05-14T07:19:24Z</time>
      </trkpt>
      <trkpt lat="49.27432" lon="0.19243">
        <ele>20.2</ele>
        <time>2017-05-14T07:19:25Z</time>
      </trkpt>
      <trkpt lat="49.27427" lon="0.19241">
        <ele>20.1</ele>
        <time>2017-05-14T07:19:26Z</time>
      </trkpt>
      <trkpt lat="49.27422" lon="0.19238">
        <ele>20</ele>
        <time>2017-05-14T07:19:27Z</time>
      </trkpt>
      <trkpt lat="49.27417" lon="0.19235">
        <ele>19.8</ele>
        <time>2017-05-14T07:19:28Z</time>
      </trkpt>
      <trkpt lat="49.27413" lon="0.19235">
        <ele>19.7</ele>
        <time>2017-05-14T07:19:29Z</time>
      </trkpt>
      <trkpt lat="49.27408" lon="0.19236">
        <ele>19.7</ele>
        <time>2017-05-14T07:19:30Z</time>
      </trkpt>
      <trkpt lat="49.27405" lon="0.19239">
        <ele>19.8</ele>
        <time>2017-05-14T07:19:31Z</time>
      </trkpt>
      <trkpt lat="49.27403" lon="0.19245">
        <ele>19.8</ele>
        <time>2017-05-14T07:19:32Z</time>
      </trkpt>
      <trkpt lat="49.274" lon="0.19249">
        <ele>19.7</ele>
        <time>2017-05-14T07:19:33Z</time>
      </trkpt>
      <trkpt lat="49.27397" lon="0.19253">
        <ele>19.6</ele>
        <time>2017-05-14T07:19:34Z</time>
      </trkpt>
      <trkpt lat="49.27394" lon="0.19257">
        <ele>19.5</ele>
        <time>2017-05-14T07:19:35Z</time>
      </trkpt>
      <trkpt lat="49.27391" lon="0.1926">
        <ele>19.5</ele>
        <time>2017-05-14T07:19:36Z</time>
      </trkpt>
      <trkpt lat="49.27388" lon="0.19264">
        <ele>19.5</ele>
        <time>2017-05-14T07:19:37Z</time>
      </trkpt>
      <trkpt lat="49.27384" lon="0.19268">
        <ele>19.5</ele>
        <time>2017-05-14T07:19:38Z</time>
      </trkpt>
      <trkpt lat="49.2738" lon="0.19273">
        <ele>19.3</ele>
        <time>2017-05-14T07:19:39Z</time>
      </trkpt>
      <trkpt lat="49.27376" lon="0.19277">
        <ele>19.1</ele>
        <time>2017-05-14T07:19:40Z</time>
      </trkpt>
      <trkpt lat="49.27373" lon="0.1928">
        <ele>18.9</ele>
        <time>2017-05-14T07:19:41Z</time>
      </trkpt>
      <trkpt lat="49.2737" lon="0.19283">
        <ele>18.8</ele>
        <time>2017-05-14T07:19:42Z</time>
      </trkpt>
      <trkpt lat="49.27367" lon="0.19287">
        <ele>18.5</ele>
        <time>2017-05-14T07:19:43Z</time>
      </trkpt>
      <trkpt lat="49.27364" lon="0.1929">
        <ele>18.3</ele>
        <time>2017-05-14T07:19:44Z</time>
      </trkpt>
      <trkpt lat="49.27362" lon="0.19293">
        <ele>18.1</ele>
        <time>2017-05-14T07:19:45Z</time>
      </trkpt>
      <trkpt lat="49.27358" lon="0.19298">
        <ele>17.9</ele>
        <time>2017-05-14T07:19:46Z</time>
      </trkpt>
      <trkpt lat="49.27354" lon="0.19303">
        <ele>17.6</ele>
        <time>2017-05-14T07:19:47Z</time>
      </trkpt>
      <trkpt lat="49.2735" lon="0.19309">
        <ele>17.3</ele>
        <time>2017-05-14T07:19:48Z</time>
      </trkpt>
      <trkpt lat="49.27345" lon="0.19315">
        <ele>17</ele>
        <time>2017-05-14T07:19:49Z</time>
      </trkpt>
      <trkpt lat="49.27341" lon="0.1932">
        <ele>16.9</ele>
        <time>2017-05-14T07:19:50Z</time>
      </trkpt>
      <trkpt lat="49.27338" lon="0.19325">
        <ele>16.8</ele>
        <time>2017-05-14T07:19:51Z</time>
      </trkpt>
      <trkpt lat="49.27333" lon="0.1933">
        <ele>17.1</ele>
        <time>2017-05-14T07:19:52Z</time>
      </trkpt>
      <trkpt lat="49.2733" lon="0.19335">
        <ele>17.3</ele>
        <time>2017-05-14T07:19:53Z</time>
      </trkpt>
      <trkpt lat="49.27326" lon="0.19341">
        <ele>17.6</ele>
        <time>2017-05-14T07:19:54Z</time>
      </trkpt>
      <trkpt lat="49.27322" lon="0.19347">
        <ele>18</ele>
        <time>2017-05-14T07:19:55Z</time>
      </trkpt>
      <trkpt lat="49.27319" lon="0.19351">
        <ele>18.5</ele>
        <time>2017-05-14T07:19:56Z</time>
      </trkpt>
      <trkpt lat="49.27315" lon="0.19356">
        <ele>18.7</ele>
        <time>2017-05-14T07:19:57Z</time>
      </trkpt>
      <trkpt lat="49.27312" lon="0.19361">
        <ele>18.9</ele>
        <time>2017-05-14T07:19:58Z</time>
      </trkpt>
      <trkpt lat="49.27307" lon="0.19369">
        <ele>18.8</ele>
        <time>2017-05-14T07:19:59Z</time>
      </trkpt>
      <trkpt lat="49.27303" lon="0.19374">
        <ele>18.7</ele>
        <time>2017-05-14T07:20:00Z</time>
      </trkpt>
      <trkpt lat="49.27298" lon="0.19381">
        <ele>18.7</ele>
        <time>2017-05-14T07:20:01Z</time>
      </trkpt>
      <trkpt lat="49.27295" lon="0.19387">
        <ele>19</ele>
        <time>2017-05-14T07:20:02Z</time>
      </trkpt>
      <trkpt lat="49.27291" lon="0.19393">
        <ele>19.2</ele>
        <time>2017-05-14T07:20:03Z</time>
      </trkpt>
      <trkpt lat="49.27288" lon="0.19398">
        <ele>19.5</ele>
        <time>2017-05-14T07:20:04Z</time>
      </trkpt>
      <trkpt lat="49.27285" lon="0.19402">
        <ele>19.7</ele>
        <time>2017-05-14T07:20:05Z</time>
      </trkpt>
      <trkpt lat="49.27282" lon="0.19407">
        <ele>19.7</ele>
        <time>2017-05-14T07:20:06Z</time>
      </trkpt>
      <trkpt lat="49.27278" lon="0.19412">
        <ele>19.7</ele>
        <time>2017-05-14T07:20:07Z</time>
      </trkpt>
      <trkpt lat="49.27276" lon="0.19416">
        <ele>19.6</ele>
        <time>2017-05-14T07:20:08Z</time>
      </trkpt>
      <trkpt lat="49.27273" lon="0.19419">
        <ele>19.5</ele>
        <time>2017-05-14T07:20:09Z</time>
      </trkpt>
      <trkpt lat="49.27271" lon="0.19423">
        <ele>19.3</ele>
        <time>2017-05-14T07:20:10Z</time>
      </trkpt>
      <trkpt lat="49.27269" lon="0.19425">
        <ele>19.2</ele>
        <time>2017-05-14T07:20:11Z</time>
      </trkpt>
      <trkpt lat="49.27266" lon="0.19429">
        <ele>19</ele>
        <time>2017-05-14T07:20:12Z</time>
      </trkpt>
      <trkpt lat="49.27263" lon="0.19434">
        <ele>18.9</ele>
        <time>2017-05-14T07:20:13Z</time>
      </trkpt>
      <trkpt lat="49.27259" lon="0.1944">
        <ele>18.9</ele>
        <time>2017-05-14T07:20:14Z</time>
      </trkpt>
      <trkpt lat="49.27255" lon="0.19446">
        <ele>18.9</ele>
        <time>2017-05-14T07:20:15Z</time>
      </trkpt>
      <trkpt lat="49.27252" lon="0.19453">
        <ele>19</ele>
        <time>2017-05-14T07:20:16Z</time>
      </trkpt>
      <trkpt lat="49.27248" lon="0.1946">
        <ele>19</ele>
        <time>2017-05-14T07:20:17Z</time>
      </trkpt>
      <trkpt lat="49.27243" lon="0.19468">
        <ele>19</ele>
        <time>2017-05-14T07:20:18Z</time>
      </trkpt>
      <trkpt lat="49.27239" lon="0.19476">
        <ele>19.1</ele>
        <time>2017-05-14T07:20:19Z</time>
      </trkpt>
      <trkpt lat="49.27236" lon="0.19482">
        <ele>19.2</ele>
        <time>2017-05-14T07:20:20Z</time>
      </trkpt>
      <trkpt lat="49.27233" lon="0.19487">
        <ele>19.3</ele>
        <time>2017-05-14T07:20:21Z</time>
      </trkpt>
      <trkpt lat="49.27229" lon="0.19493">
        <ele>19.3</ele>
        <time>2017-05-14T07:20:22Z</time>
      </trkpt>
      <trkpt lat="49.27225" lon="0.195">
        <ele>19.2</ele>
        <time>2017-05-14T07:20:23Z</time>
      </trkpt>
      <trkpt lat="49.27221" lon="0.19506">
        <ele>19.2</ele>
        <time>2017-05-14T07:20:24Z</time>
      </trkpt>
      <trkpt lat="49.27219" lon="0.1951">
        <ele>19.3</ele>
        <time>2017-05-14T07:20:25Z</time>
      </trkpt>
      <trkpt lat="49.27216" lon="0.19514">
        <ele>19.3</ele>
        <time>2017-05-14T07:20:26Z</time>
      </trkpt>
      <trkpt lat="49.27213" lon="0.19518">
        <ele>19.4</ele>
        <time>2017-05-14T07:20:27Z</time>
      </trkpt>
      <trkpt lat="49.27211" lon="0.19523">
        <ele>19.5</ele>
        <time>2017-05-14T07:20:28Z</time>
      </trkpt>
      <trkpt lat="49.27208" lon="0.19528">
        <ele>19.6</ele>
        <time>2017-05-14T07:20:29Z</time>
      </trkpt>
      <trkpt lat="49.27205" lon="0.19533">
        <ele>19.7</ele>
        <time>2017-05-14T07:20:30Z</time>
      </trkpt>
      <trkpt lat="49.27202" lon="0.19537">
        <ele>19.8</ele>
        <time>2017-05-14T07:20:31Z</time>
      </trkpt>
      <trkpt lat="49.272" lon="0.19542">
        <ele>19.8</ele>
        <time>2017-05-14T07:20:32Z</time>
      </trkpt>
      <trkpt lat="49.27197" lon="0.19548">
        <ele>19.7</ele>
        <time>2017-05-14T07:20:33Z</time>
      </trkpt>
      <trkpt lat="49.27195" lon="0.19552">
        <ele>19.6</ele>
        <time>2017-05-14T07:20:34Z</time>
      </trkpt>
      <trkpt lat="49.27192" lon="0.19556">
        <ele>19.5</ele>
        <time>2017-05-14T07:20:35Z</time>
      </trkpt>
      <trkpt lat="49.27189" lon="0.19563">
        <ele>19.5</ele>
        <time>2017-05-14T07:20:37Z</time>
      </trkpt>
      <trkpt lat="49.27186" lon="0.19568">
        <ele>19.4</ele>
        <time>2017-05-14T07:20:38Z</time>
      </trkpt>
      <trkpt lat="49.27183" lon="0.19575">
        <ele>19.5</ele>
        <time>2017-05-14T07:20:39Z</time>
      </trkpt>
      <trkpt lat="49.27179" lon="0.19582">
        <ele>19.6</ele>
        <time>2017-05-14T07:20:40Z</time>
      </trkpt>
      <trkpt lat="49.27176" lon="0.19587">
        <ele>19.8</ele>
        <time>2017-05-14T07:20:41Z</time>
      </trkpt>
      <trkpt lat="49.27174" lon="0.19593">
        <ele>20.2</ele>
        <time>2017-05-14T07:20:42Z</time>
      </trkpt>
      <trkpt lat="49.27171" lon="0.196">
        <ele>21</ele>
        <time>2017-05-14T07:20:43Z</time>
      </trkpt>
      <trkpt lat="49.27168" lon="0.19606">
        <ele>21.5</ele>
        <time>2017-05-14T07:20:44Z</time>
      </trkpt>
      <trkpt lat="49.27165" lon="0.19611">
        <ele>21.8</ele>
        <time>2017-05-14T07:20:45Z</time>
      </trkpt>
      <trkpt lat="49.27163" lon="0.19615">
        <ele>22</ele>
        <time>2017-05-14T07:20:46Z</time>
      </trkpt>
      <trkpt lat="49.27161" lon="0.1962">
        <ele>22.1</ele>
        <time>2017-05-14T07:20:47Z</time>
      </trkpt>
      <trkpt lat="49.27159" lon="0.19625">
        <ele>22.1</ele>
        <time>2017-05-14T07:20:48Z</time>
      </trkpt>
      <trkpt lat="49.27156" lon="0.19631">
        <ele>22</ele>
        <time>2017-05-14T07:20:49Z</time>
      </trkpt>
      <trkpt lat="49.27154" lon="0.19636">
        <ele>21.9</ele>
        <time>2017-05-14T07:20:50Z</time>
      </trkpt>
      <trkpt lat="49.27151" lon="0.1964">
        <ele>21.8</ele>
        <time>2017-05-14T07:20:51Z</time>
      </trkpt>
      <trkpt lat="49.27149" lon="0.19645">
        <ele>21.7</ele>
        <time>2017-05-14T07:20:52Z</time>
      </trkpt>
      <trkpt lat="49.27145" lon="0.19653">
        <ele>21.6</ele>
        <time>2017-05-14T07:20:53Z</time>
      </trkpt>
      <trkpt lat="49.27141" lon="0.19661">
        <ele>21.5</ele>
        <time>2017-05-14T07:20:54Z</time>
      </trkpt>
      <trkpt lat="49.27138" lon="0.19668">
        <ele>21.4</ele>
        <time>2017-05-14T07:20:55Z</time>
      </trkpt>
      <trkpt lat="49.27135" lon="0.19676">
        <ele>21.2</ele>
        <time>2017-05-14T07:20:56Z</time>
      </trkpt>
      <trkpt lat="49.27131" lon="0.19681">
        <ele>21.2</ele>
        <time>2017-05-14T07:20:57Z</time>
      </trkpt>
      <trkpt lat="49.27128" lon="0.19687">
        <ele>21.2</ele>
        <time>2017-05-14T07:20:58Z</time>
      </trkpt>
      <trkpt lat="49.27126" lon="0.19691">
        <ele>21.2</ele>
        <time>2017-05-14T07:20:59Z</time>
      </trkpt>
      <trkpt lat="49.27125" lon="0.19695">
        <ele>21.2</ele>
        <time>2017-05-14T07:21:00Z</time>
      </trkpt>
      <trkpt lat="49.27123" lon="0.19702">
        <ele>21.5</ele>
        <time>2017-05-14T07:21:01Z</time>
      </trkpt>
      <trkpt lat="49.2712" lon="0.1971">
        <ele>21.7</ele>
        <time>2017-05-14T07:21:02Z</time>
      </trkpt>
      <trkpt lat="49.27118" lon="0.19715">
        <ele>21.7</ele>
        <time>2017-05-14T07:21:03Z</time>
      </trkpt>
      <trkpt lat="49.27115" lon="0.19721">
        <ele>21.5</ele>
        <time>2017-05-14T07:21:04Z</time>
      </trkpt>
      <trkpt lat="49.27113" lon="0.19728">
        <ele>21.4</ele>
        <time>2017-05-14T07:21:05Z</time>
      </trkpt>
      <trkpt lat="49.2711" lon="0.19735">
        <ele>21.2</ele>
        <time>2017-05-14T07:21:06Z</time>
      </trkpt>
      <trkpt lat="49.27107" lon="0.19746">
        <ele>21.2</ele>
        <time>2017-05-14T07:21:07Z</time>
      </trkpt>
      <trkpt lat="49.27105" lon="0.19753">
        <ele>21.2</ele>
        <time>2017-05-14T07:21:08Z</time>
      </trkpt>
      <trkpt lat="49.27103" lon="0.19759">
        <ele>21.2</ele>
        <time>2017-05-14T07:21:09Z</time>
      </trkpt>
      <trkpt lat="49.27102" lon="0.19763">
        <ele>21.3</ele>
        <time>2017-05-14T07:21:10Z</time>
      </trkpt>
      <trkpt lat="49.27101" lon="0.19768">
        <ele>21.3</ele>
        <time>2017-05-14T07:21:11Z</time>
      </trkpt>
      <trkpt lat="49.271" lon="0.19772">
        <ele>21.4</ele>
        <time>2017-05-14T07:21:12Z</time>
      </trkpt>
      <trkpt lat="49.27099" lon="0.19778">
        <ele>21.4</ele>
        <time>2017-05-14T07:21:13Z</time>
      </trkpt>
      <trkpt lat="49.27098" lon="0.19785">
        <ele>21.4</ele>
        <time>2017-05-14T07:21:14Z</time>
      </trkpt>
      <trkpt lat="49.27096" lon="0.19792">
        <ele>21.1</ele>
        <time>2017-05-14T07:21:15Z</time>
      </trkpt>
      <trkpt lat="49.27095" lon="0.19799">
        <ele>20.8</ele>
        <time>2017-05-14T07:21:16Z</time>
      </trkpt>
      <trkpt lat="49.27093" lon="0.19805">
        <ele>20.5</ele>
        <time>2017-05-14T07:21:17Z</time>
      </trkpt>
      <trkpt lat="49.27092" lon="0.19812">
        <ele>20.2</ele>
        <time>2017-05-14T07:21:18Z</time>
      </trkpt>
      <trkpt lat="49.27089" lon="0.19818">
        <ele>20.3</ele>
        <time>2017-05-14T07:21:19Z</time>
      </trkpt>
      <trkpt lat="49.27085" lon="0.19822">
        <ele>20.5</ele>
        <time>2017-05-14T07:21:20Z</time>
      </trkpt>
      <trkpt lat="49.2708" lon="0.19824">
        <ele>20.7</ele>
        <time>2017-05-14T07:21:21Z</time>
      </trkpt>
      <trkpt lat="49.27076" lon="0.19826">
        <ele>20.7</ele>
        <time>2017-05-14T07:21:22Z</time>
      </trkpt>
      <trkpt lat="49.27072" lon="0.19828">
        <ele>20.3</ele>
        <time>2017-05-14T07:21:23Z</time>
      </trkpt>
      <trkpt lat="49.27068" lon="0.1983">
        <ele>19.9</ele>
        <time>2017-05-14T07:21:24Z</time>
      </trkpt>
      <trkpt lat="49.27064" lon="0.19832">
        <ele>19.5</ele>
        <time>2017-05-14T07:21:25Z</time>
      </trkpt>
      <trkpt lat="49.27059" lon="0.19835">
        <ele>19.1</ele>
        <time>2017-05-14T07:21:26Z</time>
      </trkpt>
      <trkpt lat="49.27056" lon="0.19837">
        <ele>18.7</ele>
        <time>2017-05-14T07:21:27Z</time>
      </trkpt>
      <trkpt lat="49.27052" lon="0.1984">
        <ele>18.3</ele>
        <time>2017-05-14T07:21:28Z</time>
      </trkpt>
      <trkpt lat="49.27048" lon="0.19844">
        <ele>18</ele>
        <time>2017-05-14T07:21:29Z</time>
      </trkpt>
      <trkpt lat="49.27044" lon="0.19849">
        <ele>18</ele>
        <time>2017-05-14T07:21:30Z</time>
      </trkpt>
      <trkpt lat="49.27041" lon="0.19853">
        <ele>18</ele>
        <time>2017-05-14T07:21:31Z</time>
      </trkpt>
      <trkpt lat="49.27038" lon="0.19858">
        <ele>18</ele>
        <time>2017-05-14T07:21:32Z</time>
      </trkpt>
      <trkpt lat="49.27035" lon="0.19862">
        <ele>18</ele>
        <time>2017-05-14T07:21:33Z</time>
      </trkpt>
      <trkpt lat="49.27032" lon="0.19867">
        <ele>18</ele>
        <time>2017-05-14T07:21:34Z</time>
      </trkpt>
      <trkpt lat="49.27029" lon="0.19872">
        <ele>18</ele>
        <time>2017-05-14T07:21:35Z</time>
      </trkpt>
      <trkpt lat="49.27028" lon="0.19876">
        <ele>18</ele>
        <time>2017-05-14T07:21:36Z</time>
      </trkpt>
      <trkpt lat="49.27026" lon="0.19881">
        <ele>18</ele>
        <time>2017-05-14T07:21:37Z</time>
      </trkpt>
      <trkpt lat="49.27024" lon="0.19889">
        <ele>17.8</ele>
        <time>2017-05-14T07:21:38Z</time>
      </trkpt>
      <trkpt lat="49.27023" lon="0.19897">
        <ele>17.7</ele>
        <time>2017-05-14T07:21:39Z</time>
      </trkpt>
      <trkpt lat="49.27023" lon="0.19905">
        <ele>17</ele>
        <time>2017-05-14T07:21:40Z</time>
      </trkpt>
      <trkpt lat="49.27024" lon="0.19914">
        <ele>16.3</ele>
        <time>2017-05-14T07:21:41Z</time>
      </trkpt>
      <trkpt lat="49.27024" lon="0.19921">
        <ele>16.1</ele>
        <time>2017-05-14T07:21:42Z</time>
      </trkpt>
      <trkpt lat="49.27023" lon="0.19928">
        <ele>15.8</ele>
        <time>2017-05-14T07:21:43Z</time>
      </trkpt>
      <trkpt lat="49.2702" lon="0.19934">
        <ele>15.6</ele>
        <time>2017-05-14T07:21:44Z</time>
      </trkpt>
      <trkpt lat="49.27015" lon="0.1994">
        <ele>15.3</ele>
        <time>2017-05-14T07:21:45Z</time>
      </trkpt>
      <trkpt lat="49.27011" lon="0.1994">
        <ele>15.1</ele>
        <time>2017-05-14T07:21:46Z</time>
      </trkpt>
      <trkpt lat="49.27008" lon="0.19939">
        <ele>15.9</ele>
        <time>2017-05-14T07:21:47Z</time>
      </trkpt>
      <trkpt lat="49.27006" lon="0.19933">
        <ele>16.4</ele>
        <time>2017-05-14T07:21:50Z</time>
      </trkpt>
      <trkpt lat="49.27004" lon="0.19925">
        <ele>17.2</ele>
        <time>2017-05-14T07:21:52Z</time>
      </trkpt>
      <trkpt lat="49.27002" lon="0.1992">
        <ele>17.8</ele>
        <time>2017-05-14T07:21:53Z</time>
      </trkpt>
      <trkpt lat="49.27" lon="0.19916">
        <ele>18.2</ele>
        <time>2017-05-14T07:21:54Z</time>
      </trkpt>
      <trkpt lat="49.26998" lon="0.19913">
        <ele>18.6</ele>
        <time>2017-05-14T07:21:55Z</time>
      </trkpt>
      <trkpt lat="49.26995" lon="0.19909">
        <ele>19.1</ele>
        <time>2017-05-14T07:21:56Z</time>
      </trkpt>
      <trkpt lat="49.26994" lon="0.19905">
        <ele>19.4</ele>
        <time>2017-05-14T07:21:57Z</time>
      </trkpt>
      <trkpt lat="49.2699" lon="0.19899">
        <ele>20.9</ele>
        <time>2017-05-14T07:21:59Z</time>
      </trkpt>
      <trkpt lat="49.26988" lon="0.19896">
        <ele>21.7</ele>
        <time>2017-05-14T07:22:00Z</time>
      </trkpt>
      <trkpt lat="49.26985" lon="0.19895">
        <ele>22.6</ele>
        <time>2017-05-14T07:22:01Z</time>
      </trkpt>
      <trkpt lat="49.26982" lon="0.19895">
        <ele>23.5</ele>
        <time>2017-05-14T07:22:02Z</time>
      </trkpt>
      <trkpt lat="49.26978" lon="0.19896">
        <ele>25</ele>
        <time>2017-05-14T07:22:03Z</time>
      </trkpt>
      <trkpt lat="49.26974" lon="0.19898">
        <ele>24.9</ele>
        <time>2017-05-14T07:22:04Z</time>
      </trkpt>
      <trkpt lat="49.26971" lon="0.199">
        <ele>24.9</ele>
        <time>2017-05-14T07:22:05Z</time>
      </trkpt>
      <trkpt lat="49.26968" lon="0.19902">
        <ele>24.9</ele>
        <time>2017-05-14T07:22:06Z</time>
      </trkpt>
      <trkpt lat="49.26965" lon="0.19905">
        <ele>24.9</ele>
        <time>2017-05-14T07:22:07Z</time>
      </trkpt>
      <trkpt lat="49.26962" lon="0.19909">
        <ele>24.9</ele>
        <time>2017-05-14T07:22:08Z</time>
      </trkpt>
      <trkpt lat="49.2696" lon="0.19913">
        <ele>24.9</ele>
        <time>2017-05-14T07:22:09Z</time>
      </trkpt>
      <trkpt lat="49.26958" lon="0.19916">
        <ele>24.9</ele>
        <time>2017-05-14T07:22:10Z</time>
      </trkpt>
      <trkpt lat="49.26955" lon="0.19919">
        <ele>24.9</ele>
        <time>2017-05-14T07:22:11Z</time>
      </trkpt>
      <trkpt lat="49.26953" lon="0.19923">
        <ele>24.9</ele>
        <time>2017-05-14T07:22:12Z</time>
      </trkpt>
      <trkpt lat="49.2695" lon="0.19927">
        <ele>24.9</ele>
        <time>2017-05-14T07:22:13Z</time>
      </trkpt>
      <trkpt lat="49.26946" lon="0.19931">
        <ele>24.9</ele>
        <time>2017-05-14T07:22:14Z</time>
      </trkpt>
      <trkpt lat="49.26943" lon="0.19936">
        <ele>24.9</ele>
        <time>2017-05-14T07:22:15Z</time>
      </trkpt>
      <trkpt lat="49.26939" lon="0.1994">
        <ele>24.9</ele>
        <time>2017-05-14T07:22:16Z</time>
      </trkpt>
      <trkpt lat="49.26935" lon="0.19946">
        <ele>24.9</ele>
        <time>2017-05-14T07:22:17Z</time>
      </trkpt>
      <trkpt lat="49.26931" lon="0.19952">
        <ele>24.9</ele>
        <time>2017-05-14T07:22:18Z</time>
      </trkpt>
      <trkpt lat="49.26926" lon="0.19957">
        <ele>24.9</ele>
        <time>2017-05-14T07:22:19Z</time>
      </trkpt>
      <trkpt lat="49.26923" lon="0.19962">
        <ele>24.9</ele>
        <time>2017-05-14T07:22:20Z</time>
      </trkpt>
      <trkpt lat="49.26919" lon="0.19968">
        <ele>24.9</ele>
        <time>2017-05-14T07:22:21Z</time>
      </trkpt>
      <trkpt lat="49.26913" lon="0.19974">
        <ele>25</ele>
        <time>2017-05-14T07:22:22Z</time>
      </trkpt>
      <trkpt lat="49.26909" lon="0.1998">
        <ele>25</ele>
        <time>2017-05-14T07:22:23Z</time>
      </trkpt>
      <trkpt lat="49.26904" lon="0.19985">
        <ele>25</ele>
        <time>2017-05-14T07:22:24Z</time>
      </trkpt>
      <trkpt lat="49.269" lon="0.1999">
        <ele>25.1</ele>
        <time>2017-05-14T07:22:25Z</time>
      </trkpt>
      <trkpt lat="49.26896" lon="0.19995">
        <ele>25.1</ele>
        <time>2017-05-14T07:22:26Z</time>
      </trkpt>
      <trkpt lat="49.26892" lon="0.2">
        <ele>25.2</ele>
        <time>2017-05-14T07:22:27Z</time>
      </trkpt>
      <trkpt lat="49.26887" lon="0.20005">
        <ele>25.2</ele>
        <time>2017-05-14T07:22:28Z</time>
      </trkpt>
      <trkpt lat="49.26883" lon="0.2001">
        <ele>25.3</ele>
        <time>2017-05-14T07:22:29Z</time>
      </trkpt>
      <trkpt lat="49.26879" lon="0.20015">
        <ele>25.3</ele>
        <time>2017-05-14T07:22:30Z</time>
      </trkpt>
      <trkpt lat="49.26875" lon="0.20021">
        <ele>25.4</ele>
        <time>2017-05-14T07:22:31Z</time>
      </trkpt>
      <trkpt lat="49.26871" lon="0.20026">
        <ele>25.5</ele>
        <time>2017-05-14T07:22:32Z</time>
      </trkpt>
      <trkpt lat="49.26867" lon="0.20031">
        <ele>25.7</ele>
        <time>2017-05-14T07:22:33Z</time>
      </trkpt>
      <trkpt lat="49.26863" lon="0.20036">
        <ele>25.9</ele>
        <time>2017-05-14T07:22:34Z</time>
      </trkpt>
      <trkpt lat="49.2686" lon="0.20041">
        <ele>26.1</ele>
        <time>2017-05-14T07:22:35Z</time>
      </trkpt>
      <trkpt lat="49.26856" lon="0.20045">
        <ele>26.2</ele>
        <time>2017-05-14T07:22:36Z</time>
      </trkpt>
      <trkpt lat="49.26853" lon="0.2005">
        <ele>26.3</ele>
        <time>2017-05-14T07:22:37Z</time>
      </trkpt>
      <trkpt lat="49.26849" lon="0.20054">
        <ele>26.3</ele>
        <time>2017-05-14T07:22:38Z</time>
      </trkpt>
      <trkpt lat="49.26846" lon="0.20059">
        <ele>26.3</ele>
        <time>2017-05-14T07:22:39Z</time>
      </trkpt>
      <trkpt lat="49.26843" lon="0.20065">
        <ele>26.4</ele>
        <time>2017-05-14T07:22:40Z</time>
      </trkpt>
      <trkpt lat="49.26839" lon="0.2007">
        <ele>26.4</ele>
        <time>2017-05-14T07:22:41Z</time>
      </trkpt>
      <trkpt lat="49.26835" lon="0.20075">
        <ele>26.5</ele>
        <time>2017-05-14T07:22:42Z</time>
      </trkpt>
      <trkpt lat="49.26831" lon="0.2008">
        <ele>26.5</ele>
        <time>2017-05-14T07:22:43Z</time>
      </trkpt>
      <trkpt lat="49.26828" lon="0.20085">
        <ele>26.5</ele>
        <time>2017-05-14T07:22:44Z</time>
      </trkpt>
      <trkpt lat="49.26825" lon="0.20091">
        <ele>26.5</ele>
        <time>2017-05-14T07:22:45Z</time>
      </trkpt>
      <trkpt lat="49.26822" lon="0.20097">
        <ele>26.6</ele>
        <time>2017-05-14T07:22:46Z</time>
      </trkpt>
      <trkpt lat="49.26819" lon="0.20102">
        <ele>26.6</ele>
        <time>2017-05-14T07:22:47Z</time>
      </trkpt>
      <trkpt lat="49.26816" lon="0.20109">
        <ele>26.6</ele>
        <time>2017-05-14T07:22:48Z</time>
      </trkpt>
      <trkpt lat="49.26814" lon="0.20116">
        <ele>26.6</ele>
        <time>2017-05-14T07:22:49Z</time>
      </trkpt>
      <trkpt lat="49.26811" lon="0.20123">
        <ele>26.6</ele>
        <time>2017-05-14T07:22:50Z</time>
      </trkpt>
      <trkpt lat="49.26809" lon="0.2013">
        <ele>26.7</ele>
        <time>2017-05-14T07:22:51Z</time>
      </trkpt>
      <trkpt lat="49.26808" lon="0.20137">
        <ele>26.7</ele>
        <time>2017-05-14T07:22:52Z</time>
      </trkpt>
      <trkpt lat="49.26807" lon="0.20143">
        <ele>26.7</ele>
        <time>2017-05-14T07:22:53Z</time>
      </trkpt>
      <trkpt lat="49.26804" lon="0.2015">
        <ele>26.7</ele>
        <time>2017-05-14T07:22:54Z</time>
      </trkpt>
      <trkpt lat="49.26803" lon="0.20156">
        <ele>26.8</ele>
        <time>2017-05-14T07:22:55Z</time>
      </trkpt>
      <trkpt lat="49.26801" lon="0.20163">
        <ele>26.8</ele>
        <time>2017-05-14T07:22:56Z</time>
      </trkpt>
      <trkpt lat="49.26798" lon="0.2017">
        <ele>26.9</ele>
        <time>2017-05-14T07:22:57Z</time>
      </trkpt>
      <trkpt lat="49.26796" lon="0.20176">
        <ele>26.9</ele>
        <time>2017-05-14T07:22:58Z</time>
      </trkpt>
      <trkpt lat="49.26794" lon="0.20182">
        <ele>26.9</ele>
        <time>2017-05-14T07:22:59Z</time>
      </trkpt>
      <trkpt lat="49.26792" lon="0.20188">
        <ele>27</ele>
        <time>2017-05-14T07:23:00Z</time>
      </trkpt>
      <trkpt lat="49.26791" lon="0.20194">
        <ele>27.1</ele>
        <time>2017-05-14T07:23:01Z</time>
      </trkpt>
      <trkpt lat="49.26791" lon="0.20199">
        <ele>27.3</ele>
        <time>2017-05-14T07:23:02Z</time>
      </trkpt>
      <trkpt lat="49.2679" lon="0.20204">
        <ele>27.4</ele>
        <time>2017-05-14T07:23:03Z</time>
      </trkpt>
      <trkpt lat="49.26789" lon="0.20209">
        <ele>27.6</ele>
        <time>2017-05-14T07:23:04Z</time>
      </trkpt>
      <trkpt lat="49.26788" lon="0.20216">
        <ele>27.8</ele>
        <time>2017-05-14T07:23:05Z</time>
      </trkpt>
      <trkpt lat="49.26787" lon="0.20223">
        <ele>28</ele>
        <time>2017-05-14T07:23:06Z</time>
      </trkpt>
      <trkpt lat="49.26787" lon="0.2023">
        <ele>28.1</ele>
        <time>2017-05-14T07:23:07Z</time>
      </trkpt>
      <trkpt lat="49.26786" lon="0.20237">
        <ele>28.2</ele>
        <time>2017-05-14T07:23:08Z</time>
      </trkpt>
      <trkpt lat="49.26787" lon="0.20243">
        <ele>28.2</ele>
        <time>2017-05-14T07:23:09Z</time>
      </trkpt>
      <trkpt lat="49.26787" lon="0.20252">
        <ele>28.3</ele>
        <time>2017-05-14T07:23:10Z</time>
      </trkpt>
      <trkpt lat="49.26788" lon="0.20263">
        <ele>28.3</ele>
        <time>2017-05-14T07:23:11Z</time>
      </trkpt>
      <trkpt lat="49.26788" lon="0.20271">
        <ele>28.3</ele>
        <time>2017-05-14T07:23:12Z</time>
      </trkpt>
      <trkpt lat="49.26788" lon="0.20279">
        <ele>28.4</ele>
        <time>2017-05-14T07:23:13Z</time>
      </trkpt>
      <trkpt lat="49.26788" lon="0.20289">
        <ele>28.4</ele>
        <time>2017-05-14T07:23:14Z</time>
      </trkpt>
      <trkpt lat="49.26788" lon="0.20296">
        <ele>28.4</ele>
        <time>2017-05-14T07:23:15Z</time>
      </trkpt>
      <trkpt lat="49.26788" lon="0.20303">
        <ele>28.4</ele>
        <time>2017-05-14T07:23:16Z</time>
      </trkpt>
      <trkpt lat="49.26788" lon="0.20311">
        <ele>28.4</ele>
        <time>2017-05-14T07:23:17Z</time>
      </trkpt>
      <trkpt lat="49.26788" lon="0.2032">
        <ele>28.4</ele>
        <time>2017-05-14T07:23:18Z</time>
      </trkpt>
      <trkpt lat="49.26789" lon="0.20329">
        <ele>28.3</ele>
        <time>2017-05-14T07:23:19Z</time>
      </trkpt>
      <trkpt lat="49.26789" lon="0.20339">
        <ele>28.3</ele>
        <time>2017-05-14T07:23:20Z</time>
      </trkpt>
      <trkpt lat="49.26788" lon="0.20346">
        <ele>28.3</ele>
        <time>2017-05-14T07:23:21Z</time>
      </trkpt>
      <trkpt lat="49.26789" lon="0.20354">
        <ele>28.3</ele>
        <time>2017-05-14T07:23:22Z</time>
      </trkpt>
      <trkpt lat="49.2679" lon="0.20362">
        <ele>28.3</ele>
        <time>2017-05-14T07:23:23Z</time>
      </trkpt>
      <trkpt lat="49.26789" lon="0.20373">
        <ele>28.3</ele>
        <time>2017-05-14T07:23:24Z</time>
      </trkpt>
      <trkpt lat="49.26788" lon="0.20381">
        <ele>28.3</ele>
        <time>2017-05-14T07:23:25Z</time>
      </trkpt>
      <trkpt lat="49.26787" lon="0.20389">
        <ele>28.3</ele>
        <time>2017-05-14T07:23:26Z</time>
      </trkpt>
      <trkpt lat="49.26787" lon="0.20396">
        <ele>28.3</ele>
        <time>2017-05-14T07:23:27Z</time>
      </trkpt>
      <trkpt lat="49.26787" lon="0.20402">
        <ele>28.3</ele>
        <time>2017-05-14T07:23:28Z</time>
      </trkpt>
      <trkpt lat="49.26787" lon="0.20409">
        <ele>28.3</ele>
        <time>2017-05-14T07:23:29Z</time>
      </trkpt>
      <trkpt lat="49.26786" lon="0.20416">
        <ele>28.3</ele>
        <time>2017-05-14T07:23:30Z</time>
      </trkpt>
      <trkpt lat="49.26785" lon="0.20424">
        <ele>28.3</ele>
        <time>2017-05-14T07:23:31Z</time>
      </trkpt>
      <trkpt lat="49.26785" lon="0.20432">
        <ele>28.3</ele>
        <time>2017-05-14T07:23:32Z</time>
      </trkpt>
      <trkpt lat="49.26784" lon="0.2044">
        <ele>28.3</ele>
        <time>2017-05-14T07:23:33Z</time>
      </trkpt>
      <trkpt lat="49.26783" lon="0.20452">
        <ele>28.3</ele>
        <time>2017-05-14T07:23:34Z</time>
      </trkpt>
      <trkpt lat="49.26781" lon="0.20465">
        <ele>28.3</ele>
        <time>2017-05-14T07:23:35Z</time>
      </trkpt>
      <trkpt lat="49.26779" lon="0.2047">
        <ele>28.3</ele>
        <time>2017-05-14T07:23:36Z</time>
      </trkpt>
      <trkpt lat="49.26774" lon="0.20474">
        <ele>28.2</ele>
        <time>2017-05-14T07:23:38Z</time>
      </trkpt>
      <trkpt lat="49.26772" lon="0.20477">
        <ele>28.2</ele>
        <time>2017-05-14T07:23:40Z</time>
      </trkpt>
      <trkpt lat="49.26767" lon="0.20478">
        <ele>28.2</ele>
        <time>2017-05-14T07:23:42Z</time>
      </trkpt>
      <trkpt lat="49.26763" lon="0.20478">
        <ele>28.9</ele>
        <time>2017-05-14T07:23:43Z</time>
      </trkpt>
      <trkpt lat="49.26758" lon="0.20478">
        <ele>29.2</ele>
        <time>2017-05-14T07:23:44Z</time>
      </trkpt>
      <trkpt lat="49.26752" lon="0.2047">
        <ele>30.2</ele>
        <time>2017-05-14T07:23:50Z</time>
      </trkpt>
      <trkpt lat="49.2675" lon="0.20467">
        <ele>30.2</ele>
        <time>2017-05-14T07:23:51Z</time>
      </trkpt>
      <trkpt lat="49.26744" lon="0.20465">
        <ele>31.1</ele>
        <time>2017-05-14T07:23:52Z</time>
      </trkpt>
      <trkpt lat="49.2674" lon="0.20464">
        <ele>32.2</ele>
        <time>2017-05-14T07:23:53Z</time>
      </trkpt>
      <trkpt lat="49.26737" lon="0.20464">
        <ele>32.8</ele>
        <time>2017-05-14T07:23:54Z</time>
      </trkpt>
      <trkpt lat="49.26729" lon="0.20459">
        <ele>34.6</ele>
        <time>2017-05-14T07:23:55Z</time>
      </trkpt>
      <trkpt lat="49.26725" lon="0.20459">
        <ele>35.1</ele>
        <time>2017-05-14T07:23:56Z</time>
      </trkpt>
      <trkpt lat="49.26723" lon="0.20459">
        <ele>35.6</ele>
        <time>2017-05-14T07:23:57Z</time>
      </trkpt>
      <trkpt lat="49.26721" lon="0.20465">
        <ele>36.2</ele>
        <time>2017-05-14T07:24:00Z</time>
      </trkpt>
      <trkpt lat="49.2672" lon="0.20469">
        <ele>36.3</ele>
        <time>2017-05-14T07:24:01Z</time>
      </trkpt>
      <trkpt lat="49.26719" lon="0.20477">
        <ele>36.4</ele>
        <time>2017-05-14T07:24:02Z</time>
      </trkpt>
      <trkpt lat="49.26719" lon="0.20481">
        <ele>37</ele>
        <time>2017-05-14T07:24:03Z</time>
      </trkpt>
      <trkpt lat="49.26718" lon="0.20486">
        <ele>37</ele>
        <time>2017-05-14T07:24:04Z</time>
      </trkpt>
      <trkpt lat="49.26717" lon="0.2049">
        <ele>36.9</ele>
        <time>2017-05-14T07:24:06Z</time>
      </trkpt>
      <trkpt lat="49.26716" lon="0.20496">
        <ele>37.4</ele>
        <time>2017-05-14T07:24:08Z</time>
      </trkpt>
      <trkpt lat="49.26715" lon="0.20502">
        <ele>37.3</ele>
        <time>2017-05-14T07:24:10Z</time>
      </trkpt>
      <trkpt lat="49.26714" lon="0.20507">
        <ele>37.3</ele>
        <time>2017-05-14T07:24:11Z</time>
      </trkpt>
      <trkpt lat="49.26713" lon="0.20512">
        <ele>37.9</ele>
        <time>2017-05-14T07:24:12Z</time>
      </trkpt>
      <trkpt lat="49.26713" lon="0.20516">
        <ele>37.8</ele>
        <time>2017-05-14T07:24:13Z</time>
      </trkpt>
      <trkpt lat="49.26712" lon="0.20522">
        <ele>37.8</ele>
        <time>2017-05-14T07:24:14Z</time>
      </trkpt>
      <trkpt lat="49.26711" lon="0.20528">
        <ele>37.7</ele>
        <time>2017-05-14T07:24:15Z</time>
      </trkpt>
      <trkpt lat="49.26711" lon="0.20532">
        <ele>37.6</ele>
        <time>2017-05-14T07:24:16Z</time>
      </trkpt>
      <trkpt lat="49.2671" lon="0.20537">
        <ele>38.2</ele>
        <time>2017-05-14T07:24:17Z</time>
      </trkpt>
      <trkpt lat="49.26709" lon="0.20542">
        <ele>38.2</ele>
        <time>2017-05-14T07:24:18Z</time>
      </trkpt>
      <trkpt lat="49.26709" lon="0.20548">
        <ele>38.1</ele>
        <time>2017-05-14T07:24:19Z</time>
      </trkpt>
      <trkpt lat="49.26709" lon="0.20554">
        <ele>38.1</ele>
        <time>2017-05-14T07:24:20Z</time>
      </trkpt>
      <trkpt lat="49.26709" lon="0.2056">
        <ele>38.1</ele>
        <time>2017-05-14T07:24:21Z</time>
      </trkpt>
      <trkpt lat="49.26708" lon="0.20564">
        <ele>38.1</ele>
        <time>2017-05-14T07:24:22Z</time>
      </trkpt>
      <trkpt lat="49.26708" lon="0.2057">
        <ele>38.3</ele>
        <time>2017-05-14T07:24:23Z</time>
      </trkpt>
      <trkpt lat="49.26708" lon="0.20577">
        <ele>38.3</ele>
        <time>2017-05-14T07:24:24Z</time>
      </trkpt>
      <trkpt lat="49.26709" lon="0.20582">
        <ele>38.4</ele>
        <time>2017-05-14T07:24:25Z</time>
      </trkpt>
      <trkpt lat="49.26709" lon="0.2059">
        <ele>38.7</ele>
        <time>2017-05-14T07:24:27Z</time>
      </trkpt>
      <trkpt lat="49.26708" lon="0.20595">
        <ele>38.8</ele>
        <time>2017-05-14T07:24:28Z</time>
      </trkpt>
      <trkpt lat="49.26708" lon="0.20601">
        <ele>39</ele>
        <time>2017-05-14T07:24:29Z</time>
      </trkpt>
      <trkpt lat="49.26708" lon="0.20607">
        <ele>39</ele>
        <time>2017-05-14T07:24:30Z</time>
      </trkpt>
      <trkpt lat="49.26708" lon="0.20613">
        <ele>38.9</ele>
        <time>2017-05-14T07:24:31Z</time>
      </trkpt>
      <trkpt lat="49.26707" lon="0.20619">
        <ele>39.2</ele>
        <time>2017-05-14T07:24:32Z</time>
      </trkpt>
      <trkpt lat="49.26706" lon="0.20626">
        <ele>38.8</ele>
        <time>2017-05-14T07:24:33Z</time>
      </trkpt>
      <trkpt lat="49.26707" lon="0.20632">
        <ele>38.6</ele>
        <time>2017-05-14T07:24:34Z</time>
      </trkpt>
      <trkpt lat="49.26708" lon="0.20638">
        <ele>38.3</ele>
        <time>2017-05-14T07:24:35Z</time>
      </trkpt>
      <trkpt lat="49.26709" lon="0.20648">
        <ele>37.3</ele>
        <time>2017-05-14T07:24:36Z</time>
      </trkpt>
      <trkpt lat="49.26709" lon="0.20655">
        <ele>36.9</ele>
        <time>2017-05-14T07:24:37Z</time>
      </trkpt>
      <trkpt lat="49.26708" lon="0.20662">
        <ele>36.7</ele>
        <time>2017-05-14T07:24:38Z</time>
      </trkpt>
      <trkpt lat="49.26708" lon="0.20669">
        <ele>36.5</ele>
        <time>2017-05-14T07:24:39Z</time>
      </trkpt>
      <trkpt lat="49.26707" lon="0.20675">
        <ele>36.8</ele>
        <time>2017-05-14T07:24:40Z</time>
      </trkpt>
      <trkpt lat="49.26703" lon="0.2068">
        <ele>37.2</ele>
        <time>2017-05-14T07:24:41Z</time>
      </trkpt>
      <trkpt lat="49.267" lon="0.20684">
        <ele>37.6</ele>
        <time>2017-05-14T07:24:42Z</time>
      </trkpt>
      <trkpt lat="49.26695" lon="0.20685">
        <ele>38.2</ele>
        <time>2017-05-14T07:24:44Z</time>
      </trkpt>
      <trkpt lat="49.26691" lon="0.20685">
        <ele>38.5</ele>
        <time>2017-05-14T07:24:46Z</time>
      </trkpt>
      <trkpt lat="49.26687" lon="0.20683">
        <ele>38.9</ele>
        <time>2017-05-14T07:24:48Z</time>
      </trkpt>
      <trkpt lat="49.26683" lon="0.20682">
        <ele>39</ele>
        <time>2017-05-14T07:24:50Z</time>
      </trkpt>
      <trkpt lat="49.26678" lon="0.2068">
        <ele>39.3</ele>
        <time>2017-05-14T07:24:52Z</time>
      </trkpt>
      <trkpt lat="49.26675" lon="0.20679">
        <ele>39.4</ele>
        <time>2017-05-14T07:24:53Z</time>
      </trkpt>
      <trkpt lat="49.26672" lon="0.20677">
        <ele>39.4</ele>
        <time>2017-05-14T07:24:54Z</time>
      </trkpt>
      <trkpt lat="49.26666" lon="0.20676">
        <ele>39.8</ele>
        <time>2017-05-14T07:24:55Z</time>
      </trkpt>
      <trkpt lat="49.26659" lon="0.20672">
        <ele>40.1</ele>
        <time>2017-05-14T07:24:56Z</time>
      </trkpt>
      <trkpt lat="49.26656" lon="0.2067">
        <ele>40.1</ele>
        <time>2017-05-14T07:24:57Z</time>
      </trkpt>
      <trkpt lat="49.26653" lon="0.20669">
        <ele>40.2</ele>
        <time>2017-05-14T07:24:58Z</time>
      </trkpt>
      <trkpt lat="49.2665" lon="0.20667">
        <ele>40.4</ele>
        <time>2017-05-14T07:24:59Z</time>
      </trkpt>
      <trkpt lat="49.26647" lon="0.20663">
        <ele>40.6</ele>
        <time>2017-05-14T07:25:00Z</time>
      </trkpt>
      <trkpt lat="49.26645" lon="0.20659">
        <ele>40.7</ele>
        <time>2017-05-14T07:25:01Z</time>
      </trkpt>
      <trkpt lat="49.26642" lon="0.20655">
        <ele>40.9</ele>
        <time>2017-05-14T07:25:02Z</time>
      </trkpt>
      <trkpt lat="49.26639" lon="0.20652">
        <ele>40.9</ele>
        <time>2017-05-14T07:25:04Z</time>
      </trkpt>
      <trkpt lat="49.26636" lon="0.20649">
        <ele>41.1</ele>
        <time>2017-05-14T07:25:05Z</time>
      </trkpt>
      <trkpt lat="49.26633" lon="0.20647">
        <ele>41.1</ele>
        <time>2017-05-14T07:25:06Z</time>
      </trkpt>
      <trkpt lat="49.2663" lon="0.20645">
        <ele>41.3</ele>
        <time>2017-05-14T07:25:07Z</time>
      </trkpt>
      <trkpt lat="49.26624" lon="0.2064">
        <ele>41.4</ele>
        <time>2017-05-14T07:25:09Z</time>
      </trkpt>
      <trkpt lat="49.2662" lon="0.20638">
        <ele>41.3</ele>
        <time>2017-05-14T07:25:10Z</time>
      </trkpt>
      <trkpt lat="49.26617" lon="0.20637">
        <ele>41.5</ele>
        <time>2017-05-14T07:25:11Z</time>
      </trkpt>
      <trkpt lat="49.26613" lon="0.20635">
        <ele>41.4</ele>
        <time>2017-05-14T07:25:12Z</time>
      </trkpt>
      <trkpt lat="49.2661" lon="0.20633">
        <ele>41.6</ele>
        <time>2017-05-14T07:25:13Z</time>
      </trkpt>
      <trkpt lat="49.26606" lon="0.20632">
        <ele>41.4</ele>
        <time>2017-05-14T07:25:14Z</time>
      </trkpt>
      <trkpt lat="49.26602" lon="0.2063">
        <ele>41.3</ele>
        <time>2017-05-14T07:25:15Z</time>
      </trkpt>
      <trkpt lat="49.26598" lon="0.20628">
        <ele>41.4</ele>
        <time>2017-05-14T07:25:16Z</time>
      </trkpt>
      <trkpt lat="49.26594" lon="0.20626">
        <ele>41.3</ele>
        <time>2017-05-14T07:25:17Z</time>
      </trkpt>
      <trkpt lat="49.2659" lon="0.20624">
        <ele>41.4</ele>
        <time>2017-05-14T07:25:18Z</time>
      </trkpt>
      <trkpt lat="49.26586" lon="0.20623">
        <ele>41.3</ele>
        <time>2017-05-14T07:25:19Z</time>
      </trkpt>
      <trkpt lat="49.26582" lon="0.20622">
        <ele>41.2</ele>
        <time>2017-05-14T07:25:20Z</time>
      </trkpt>
      <trkpt lat="49.26578" lon="0.2062">
        <ele>41.5</ele>
        <time>2017-05-14T07:25:21Z</time>
      </trkpt>
      <trkpt lat="49.26574" lon="0.20619">
        <ele>41.6</ele>
        <time>2017-05-14T07:25:22Z</time>
      </trkpt>
      <trkpt lat="49.2657" lon="0.20618">
        <ele>42</ele>
        <time>2017-05-14T07:25:23Z</time>
      </trkpt>
      <trkpt lat="49.26566" lon="0.20616">
        <ele>42.4</ele>
        <time>2017-05-14T07:25:24Z</time>
      </trkpt>
      <trkpt lat="49.26562" lon="0.20615">
        <ele>42.9</ele>
        <time>2017-05-14T07:25:25Z</time>
      </trkpt>
      <trkpt lat="49.26557" lon="0.20614">
        <ele>43.1</ele>
        <time>2017-05-14T07:25:26Z</time>
      </trkpt>
      <trkpt lat="49.26553" lon="0.20612">
        <ele>43.6</ele>
        <time>2017-05-14T07:25:27Z</time>
      </trkpt>
      <trkpt lat="49.26548" lon="0.20611">
        <ele>43.7</ele>
        <time>2017-05-14T07:25:28Z</time>
      </trkpt>
      <trkpt lat="49.26544" lon="0.20609">
        <ele>43.9</ele>
        <time>2017-05-14T07:25:29Z</time>
      </trkpt>
      <trkpt lat="49.26541" lon="0.20608">
        <ele>43.9</ele>
        <time>2017-05-14T07:25:30Z</time>
      </trkpt>
      <trkpt lat="49.26537" lon="0.20608">
        <ele>44.1</ele>
        <time>2017-05-14T07:25:31Z</time>
      </trkpt>
      <trkpt lat="49.26533" lon="0.20607">
        <ele>44.2</ele>
        <time>2017-05-14T07:25:32Z</time>
      </trkpt>
      <trkpt lat="49.2653" lon="0.20606">
        <ele>44.2</ele>
        <time>2017-05-14T07:25:33Z</time>
      </trkpt>
      <trkpt lat="49.26526" lon="0.20604">
        <ele>44.2</ele>
        <time>2017-05-14T07:25:34Z</time>
      </trkpt>
      <trkpt lat="49.26523" lon="0.20603">
        <ele>44.4</ele>
        <time>2017-05-14T07:25:35Z</time>
      </trkpt>
      <trkpt lat="49.26519" lon="0.20601">
        <ele>44.6</ele>
        <time>2017-05-14T07:25:36Z</time>
      </trkpt>
      <trkpt lat="49.26516" lon="0.206">
        <ele>44.6</ele>
        <time>2017-05-14T07:25:37Z</time>
      </trkpt>
      <trkpt lat="49.26512" lon="0.20599">
        <ele>44.9</ele>
        <time>2017-05-14T07:25:38Z</time>
      </trkpt>
      <trkpt lat="49.26508" lon="0.20597">
        <ele>45</ele>
        <time>2017-05-14T07:25:39Z</time>
      </trkpt>
      <trkpt lat="49.26504" lon="0.20596">
        <ele>45.1</ele>
        <time>2017-05-14T07:25:40Z</time>
      </trkpt>
      <trkpt lat="49.26501" lon="0.20595">
        <ele>45.3</ele>
        <time>2017-05-14T07:25:41Z</time>
      </trkpt>
      <trkpt lat="49.26498" lon="0.20594">
        <ele>45.4</ele>
        <time>2017-05-14T07:25:42Z</time>
      </trkpt>
      <trkpt lat="49.26492" lon="0.20592">
        <ele>45.6</ele>
        <time>2017-05-14T07:25:44Z</time>
      </trkpt>
      <trkpt lat="49.26489" lon="0.20591">
        <ele>45.8</ele>
        <time>2017-05-14T07:25:45Z</time>
      </trkpt>
      <trkpt lat="49.26485" lon="0.2059">
        <ele>46.1</ele>
        <time>2017-05-14T07:25:46Z</time>
      </trkpt>
      <trkpt lat="49.26482" lon="0.20588">
        <ele>46.2</ele>
        <time>2017-05-14T07:25:47Z</time>
      </trkpt>
      <trkpt lat="49.26478" lon="0.20587">
        <ele>46.2</ele>
        <time>2017-05-14T07:25:48Z</time>
      </trkpt>
      <trkpt lat="49.26475" lon="0.20586">
        <ele>46.4</ele>
        <time>2017-05-14T07:25:49Z</time>
      </trkpt>
      <trkpt lat="49.26471" lon="0.20584">
        <ele>46.2</ele>
        <time>2017-05-14T07:25:50Z</time>
      </trkpt>
      <trkpt lat="49.26468" lon="0.20583">
        <ele>46.1</ele>
        <time>2017-05-14T07:25:51Z</time>
      </trkpt>
      <trkpt lat="49.26465" lon="0.20582">
        <ele>46</ele>
        <time>2017-05-14T07:25:52Z</time>
      </trkpt>
      <trkpt lat="49.26462" lon="0.20582">
        <ele>45.8</ele>
        <time>2017-05-14T07:25:53Z</time>
      </trkpt>
      <trkpt lat="49.26458" lon="0.20581">
        <ele>45.3</ele>
        <time>2017-05-14T07:25:54Z</time>
      </trkpt>
      <trkpt lat="49.26454" lon="0.20579">
        <ele>45</ele>
        <time>2017-05-14T07:25:55Z</time>
      </trkpt>
      <trkpt lat="49.26451" lon="0.20578">
        <ele>44.7</ele>
        <time>2017-05-14T07:25:56Z</time>
      </trkpt>
      <trkpt lat="49.26447" lon="0.20577">
        <ele>44.7</ele>
        <time>2017-05-14T07:25:57Z</time>
      </trkpt>
      <trkpt lat="49.26444" lon="0.20576">
        <ele>44.3</ele>
        <time>2017-05-14T07:25:58Z</time>
      </trkpt>
      <trkpt lat="49.26441" lon="0.20574">
        <ele>44.1</ele>
        <time>2017-05-14T07:25:59Z</time>
      </trkpt>
      <trkpt lat="49.26438" lon="0.20573">
        <ele>44.3</ele>
        <time>2017-05-14T07:26:00Z</time>
      </trkpt>
      <trkpt lat="49.26435" lon="0.20572">
        <ele>44.2</ele>
        <time>2017-05-14T07:26:01Z</time>
      </trkpt>
      <trkpt lat="49.26432" lon="0.2057">
        <ele>44.2</ele>
        <time>2017-05-14T07:26:02Z</time>
      </trkpt>
      <trkpt lat="49.26429" lon="0.20568">
        <ele>44.5</ele>
        <time>2017-05-14T07:26:03Z</time>
      </trkpt>
      <trkpt lat="49.26426" lon="0.20566">
        <ele>44.5</ele>
        <time>2017-05-14T07:26:04Z</time>
      </trkpt>
      <trkpt lat="49.26423" lon="0.20564">
        <ele>44.9</ele>
        <time>2017-05-14T07:26:05Z</time>
      </trkpt>
      <trkpt lat="49.2642" lon="0.20562">
        <ele>44.8</ele>
        <time>2017-05-14T07:26:06Z</time>
      </trkpt>
      <trkpt lat="49.26417" lon="0.20559">
        <ele>45.2</ele>
        <time>2017-05-14T07:26:07Z</time>
      </trkpt>
      <trkpt lat="49.26415" lon="0.20557">
        <ele>45.2</ele>
        <time>2017-05-14T07:26:08Z</time>
      </trkpt>
      <trkpt lat="49.26412" lon="0.20555">
        <ele>45.6</ele>
        <time>2017-05-14T07:26:09Z</time>
      </trkpt>
      <trkpt lat="49.26409" lon="0.20553">
        <ele>45.6</ele>
        <time>2017-05-14T07:26:10Z</time>
      </trkpt>
      <trkpt lat="49.26406" lon="0.2055">
        <ele>46.1</ele>
        <time>2017-05-14T07:26:11Z</time>
      </trkpt>
      <trkpt lat="49.26403" lon="0.20547">
        <ele>46.7</ele>
        <time>2017-05-14T07:26:12Z</time>
      </trkpt>
      <trkpt lat="49.26401" lon="0.20544">
        <ele>46.8</ele>
        <time>2017-05-14T07:26:13Z</time>
      </trkpt>
      <trkpt lat="49.26398" lon="0.20541">
        <ele>47.4</ele>
        <time>2017-05-14T07:26:14Z</time>
      </trkpt>
      <trkpt lat="49.26395" lon="0.20538">
        <ele>48</ele>
        <time>2017-05-14T07:26:15Z</time>
      </trkpt>
      <trkpt lat="49.26392" lon="0.20536">
        <ele>48</ele>
        <time>2017-05-14T07:26:16Z</time>
      </trkpt>
      <trkpt lat="49.26389" lon="0.20532">
        <ele>48.5</ele>
        <time>2017-05-14T07:26:17Z</time>
      </trkpt>
      <trkpt lat="49.26386" lon="0.20529">
        <ele>48.9</ele>
        <time>2017-05-14T07:26:18Z</time>
      </trkpt>
      <trkpt lat="49.26383" lon="0.20526">
        <ele>49.2</ele>
        <time>2017-05-14T07:26:19Z</time>
      </trkpt>
      <trkpt lat="49.2638" lon="0.20523">
        <ele>49</ele>
        <time>2017-05-14T07:26:20Z</time>
      </trkpt>
      <trkpt lat="49.26377" lon="0.20519">
        <ele>49.3</ele>
        <time>2017-05-14T07:26:21Z</time>
      </trkpt>
      <trkpt lat="49.26374" lon="0.20516">
        <ele>49.6</ele>
        <time>2017-05-14T07:26:22Z</time>
      </trkpt>
      <trkpt lat="49.2637" lon="0.20513">
        <ele>49.9</ele>
        <time>2017-05-14T07:26:23Z</time>
      </trkpt>
      <trkpt lat="49.26366" lon="0.20508">
        <ele>50.2</ele>
        <time>2017-05-14T07:26:25Z</time>
      </trkpt>
      <trkpt lat="49.26363" lon="0.20505">
        <ele>50.2</ele>
        <time>2017-05-14T07:26:26Z</time>
      </trkpt>
      <trkpt lat="49.2636" lon="0.20502">
        <ele>50.5</ele>
        <time>2017-05-14T07:26:27Z</time>
      </trkpt>
      <trkpt lat="49.26357" lon="0.20499">
        <ele>50.7</ele>
        <time>2017-05-14T07:26:28Z</time>
      </trkpt>
      <trkpt lat="49.26354" lon="0.20496">
        <ele>50.9</ele>
        <time>2017-05-14T07:26:29Z</time>
      </trkpt>
      <trkpt lat="49.26352" lon="0.20494">
        <ele>51</ele>
        <time>2017-05-14T07:26:30Z</time>
      </trkpt>
      <trkpt lat="49.26349" lon="0.2049">
        <ele>51.3</ele>
        <time>2017-05-14T07:26:31Z</time>
      </trkpt>
      <trkpt lat="49.26346" lon="0.20487">
        <ele>51.6</ele>
        <time>2017-05-14T07:26:32Z</time>
      </trkpt>
      <trkpt lat="49.26344" lon="0.20484">
        <ele>51.6</ele>
        <time>2017-05-14T07:26:33Z</time>
      </trkpt>
      <trkpt lat="49.2634" lon="0.20478">
        <ele>52.4</ele>
        <time>2017-05-14T07:26:35Z</time>
      </trkpt>
      <trkpt lat="49.26337" lon="0.20472">
        <ele>52.8</ele>
        <time>2017-05-14T07:26:36Z</time>
      </trkpt>
      <trkpt lat="49.26335" lon="0.20466">
        <ele>52.9</ele>
        <time>2017-05-14T07:26:37Z</time>
      </trkpt>
      <trkpt lat="49.26335" lon="0.2046">
        <ele>53.2</ele>
        <time>2017-05-14T07:26:38Z</time>
      </trkpt>
      <trkpt lat="49.26334" lon="0.20455">
        <ele>53.2</ele>
        <time>2017-05-14T07:26:39Z</time>
      </trkpt>
      <trkpt lat="49.26335" lon="0.20444">
        <ele>52.9</ele>
        <time>2017-05-14T07:26:41Z</time>
      </trkpt>
      <trkpt lat="49.26336" lon="0.20438">
        <ele>52.5</ele>
        <time>2017-05-14T07:26:42Z</time>
      </trkpt>
      <trkpt lat="49.26337" lon="0.20431">
        <ele>52.2</ele>
        <time>2017-05-14T07:26:43Z</time>
      </trkpt>
      <trkpt lat="49.26337" lon="0.20424">
        <ele>52</ele>
        <time>2017-05-14T07:26:44Z</time>
      </trkpt>
      <trkpt lat="49.26336" lon="0.20419">
        <ele>51.6</ele>
        <time>2017-05-14T07:26:45Z</time>
      </trkpt>
      <trkpt lat="49.26337" lon="0.2041">
        <ele>51.3</ele>
        <time>2017-05-14T07:26:46Z</time>
      </trkpt>
      <trkpt lat="49.26338" lon="0.20405">
        <ele>51</ele>
        <time>2017-05-14T07:26:47Z</time>
      </trkpt>
      <trkpt lat="49.26339" lon="0.204">
        <ele>50.9</ele>
        <time>2017-05-14T07:26:48Z</time>
      </trkpt>
      <trkpt lat="49.26341" lon="0.20395">
        <ele>50.8</ele>
        <time>2017-05-14T07:26:49Z</time>
      </trkpt>
      <trkpt lat="49.26344" lon="0.20393">
        <ele>50.7</ele>
        <time>2017-05-14T07:26:51Z</time>
      </trkpt>
      <trkpt lat="49.26346" lon="0.2039">
        <ele>50.7</ele>
        <time>2017-05-14T07:26:53Z</time>
      </trkpt>
      <trkpt lat="49.2635" lon="0.20385">
        <ele>50.9</ele>
        <time>2017-05-14T07:26:55Z</time>
      </trkpt>
      <trkpt lat="49.26352" lon="0.20381">
        <ele>51.1</ele>
        <time>2017-05-14T07:26:56Z</time>
      </trkpt>
      <trkpt lat="49.26353" lon="0.20374">
        <ele>51</ele>
        <time>2017-05-14T07:26:59Z</time>
      </trkpt>
      <trkpt lat="49.26354" lon="0.20368">
        <ele>50.9</ele>
        <time>2017-05-14T07:27:01Z</time>
      </trkpt>
      <trkpt lat="49.26354" lon="0.20363">
        <ele>50.7</ele>
        <time>2017-05-14T07:27:02Z</time>
      </trkpt>
      <trkpt lat="49.26354" lon="0.20356">
        <ele>50.6</ele>
        <time>2017-05-14T07:27:03Z</time>
      </trkpt>
      <trkpt lat="49.26355" lon="0.20347">
        <ele>50.5</ele>
        <time>2017-05-14T07:27:05Z</time>
      </trkpt>
      <trkpt lat="49.26355" lon="0.20339">
        <ele>50.7</ele>
        <time>2017-05-14T07:27:07Z</time>
      </trkpt>
      <trkpt lat="49.26355" lon="0.20335">
        <ele>50.7</ele>
        <time>2017-05-14T07:27:08Z</time>
      </trkpt>
      <trkpt lat="49.26356" lon="0.20331">
        <ele>50.7</ele>
        <time>2017-05-14T07:27:09Z</time>
      </trkpt>
      <trkpt lat="49.26356" lon="0.20326">
        <ele>50.8</ele>
        <time>2017-05-14T07:27:10Z</time>
      </trkpt>
      <trkpt lat="49.26357" lon="0.20322">
        <ele>50.9</ele>
        <time>2017-05-14T07:27:11Z</time>
      </trkpt>
      <trkpt lat="49.26357" lon="0.20317">
        <ele>51.1</ele>
        <time>2017-05-14T07:27:12Z</time>
      </trkpt>
      <trkpt lat="49.26358" lon="0.2031">
        <ele>51.5</ele>
        <time>2017-05-14T07:27:14Z</time>
      </trkpt>
      <trkpt lat="49.26358" lon="0.20305">
        <ele>51.8</ele>
        <time>2017-05-14T07:27:16Z</time>
      </trkpt>
      <trkpt lat="49.26359" lon="0.20298">
        <ele>52.3</ele>
        <time>2017-05-14T07:27:18Z</time>
      </trkpt>
      <trkpt lat="49.26359" lon="0.20293">
        <ele>52.6</ele>
        <time>2017-05-14T07:27:20Z</time>
      </trkpt>
      <trkpt lat="49.26359" lon="0.20286">
        <ele>53</ele>
        <time>2017-05-14T07:27:22Z</time>
      </trkpt>
      <trkpt lat="49.26359" lon="0.2028">
        <ele>53.5</ele>
        <time>2017-05-14T07:27:24Z</time>
      </trkpt>
      <trkpt lat="49.26359" lon="0.20276">
        <ele>53.6</ele>
        <time>2017-05-14T07:27:26Z</time>
      </trkpt>
      <trkpt lat="49.26359" lon="0.20271">
        <ele>53.8</ele>
        <time>2017-05-14T07:27:28Z</time>
      </trkpt>
      <trkpt lat="49.26359" lon="0.20265">
        <ele>53.9</ele>
        <time>2017-05-14T07:27:29Z</time>
      </trkpt>
      <trkpt lat="49.26359" lon="0.20261">
        <ele>54</ele>
        <time>2017-05-14T07:27:31Z</time>
      </trkpt>
      <trkpt lat="49.2636" lon="0.20256">
        <ele>54.1</ele>
        <time>2017-05-14T07:27:32Z</time>
      </trkpt>
      <trkpt lat="49.26359" lon="0.20252">
        <ele>54.2</ele>
        <time>2017-05-14T07:27:33Z</time>
      </trkpt>
      <trkpt lat="49.26359" lon="0.20247">
        <ele>54.6</ele>
        <time>2017-05-14T07:27:35Z</time>
      </trkpt>
      <trkpt lat="49.26358" lon="0.20241">
        <ele>54.8</ele>
        <time>2017-05-14T07:27:38Z</time>
      </trkpt>
      <trkpt lat="49.26358" lon="0.20234">
        <ele>55.5</ele>
        <time>2017-05-14T07:27:40Z</time>
      </trkpt>
      <trkpt lat="49.26358" lon="0.2023">
        <ele>55.8</ele>
        <time>2017-05-14T07:27:41Z</time>
      </trkpt>
      <trkpt lat="49.26359" lon="0.20225">
        <ele>56.1</ele>
        <time>2017-05-14T07:27:42Z</time>
      </trkpt>
      <trkpt lat="49.26358" lon="0.2022">
        <ele>56.3</ele>
        <time>2017-05-14T07:27:44Z</time>
      </trkpt>
      <trkpt lat="49.26357" lon="0.20215">
        <ele>56.8</ele>
        <time>2017-05-14T07:27:47Z</time>
      </trkpt>
      <trkpt lat="49.26355" lon="0.20209">
        <ele>57.4</ele>
        <time>2017-05-14T07:27:49Z</time>
      </trkpt>
      <trkpt lat="49.26354" lon="0.20201">
        <ele>58.1</ele>
        <time>2017-05-14T07:27:51Z</time>
      </trkpt>
      <trkpt lat="49.26353" lon="0.20192">
        <ele>58.8</ele>
        <time>2017-05-14T07:27:53Z</time>
      </trkpt>
      <trkpt lat="49.26352" lon="0.20188">
        <ele>59.4</ele>
        <time>2017-05-14T07:27:54Z</time>
      </trkpt>
      <trkpt lat="49.2635" lon="0.20181">
        <ele>60.2</ele>
        <time>2017-05-14T07:27:56Z</time>
      </trkpt>
      <trkpt lat="49.26349" lon="0.20177">
        <ele>60.8</ele>
        <time>2017-05-14T07:27:57Z</time>
      </trkpt>
      <trkpt lat="49.26348" lon="0.20173">
        <ele>61.1</ele>
        <time>2017-05-14T07:27:58Z</time>
      </trkpt>
      <trkpt lat="49.26346" lon="0.20168">
        <ele>61.4</ele>
        <time>2017-05-14T07:27:59Z</time>
      </trkpt>
      <trkpt lat="49.26345" lon="0.20164">
        <ele>61.8</ele>
        <time>2017-05-14T07:28:00Z</time>
      </trkpt>
      <trkpt lat="49.26344" lon="0.20158">
        <ele>62.1</ele>
        <time>2017-05-14T07:28:01Z</time>
      </trkpt>
      <trkpt lat="49.26344" lon="0.20154">
        <ele>62.4</ele>
        <time>2017-05-14T07:28:02Z</time>
      </trkpt>
      <trkpt lat="49.26342" lon="0.20149">
        <ele>63</ele>
        <time>2017-05-14T07:28:03Z</time>
      </trkpt>
      <trkpt lat="49.26341" lon="0.20144">
        <ele>63.2</ele>
        <time>2017-05-14T07:28:04Z</time>
      </trkpt>
      <trkpt lat="49.2634" lon="0.20136">
        <ele>63.3</ele>
        <time>2017-05-14T07:28:06Z</time>
      </trkpt>
      <trkpt lat="49.26339" lon="0.20132">
        <ele>63.4</ele>
        <time>2017-05-14T07:28:07Z</time>
      </trkpt>
      <trkpt lat="49.26337" lon="0.20124">
        <ele>63.7</ele>
        <time>2017-05-14T07:28:09Z</time>
      </trkpt>
      <trkpt lat="49.26333" lon="0.2012">
        <ele>63.9</ele>
        <time>2017-05-14T07:28:11Z</time>
      </trkpt>
      <trkpt lat="49.26329" lon="0.20119">
        <ele>63.9</ele>
        <time>2017-05-14T07:28:13Z</time>
      </trkpt>
      <trkpt lat="49.26325" lon="0.20118">
        <ele>64</ele>
        <time>2017-05-14T07:28:15Z</time>
      </trkpt>
      <trkpt lat="49.26322" lon="0.20119">
        <ele>64</ele>
        <time>2017-05-14T07:28:16Z</time>
      </trkpt>
      <trkpt lat="49.26318" lon="0.20119">
        <ele>63.7</ele>
        <time>2017-05-14T07:28:17Z</time>
      </trkpt>
      <trkpt lat="49.26314" lon="0.20119">
        <ele>63.6</ele>
        <time>2017-05-14T07:28:18Z</time>
      </trkpt>
      <trkpt lat="49.26309" lon="0.20119">
        <ele>63.4</ele>
        <time>2017-05-14T07:28:19Z</time>
      </trkpt>
      <trkpt lat="49.26304" lon="0.2012">
        <ele>63.2</ele>
        <time>2017-05-14T07:28:20Z</time>
      </trkpt>
      <trkpt lat="49.263" lon="0.20121">
        <ele>62.9</ele>
        <time>2017-05-14T07:28:21Z</time>
      </trkpt>
      <trkpt lat="49.26296" lon="0.20122">
        <ele>62.7</ele>
        <time>2017-05-14T07:28:22Z</time>
      </trkpt>
      <trkpt lat="49.26293" lon="0.20123">
        <ele>62.4</ele>
        <time>2017-05-14T07:28:23Z</time>
      </trkpt>
      <trkpt lat="49.26289" lon="0.20123">
        <ele>61.8</ele>
        <time>2017-05-14T07:28:24Z</time>
      </trkpt>
      <trkpt lat="49.26285" lon="0.20124">
        <ele>61.7</ele>
        <time>2017-05-14T07:28:25Z</time>
      </trkpt>
      <trkpt lat="49.26282" lon="0.20124">
        <ele>61.5</ele>
        <time>2017-05-14T07:28:26Z</time>
      </trkpt>
      <trkpt lat="49.26279" lon="0.20124">
        <ele>61.3</ele>
        <time>2017-05-14T07:28:27Z</time>
      </trkpt>
      <trkpt lat="49.26275" lon="0.20124">
        <ele>61.2</ele>
        <time>2017-05-14T07:28:28Z</time>
      </trkpt>
      <trkpt lat="49.26272" lon="0.20124">
        <ele>61.2</ele>
        <time>2017-05-14T07:28:29Z</time>
      </trkpt>
      <trkpt lat="49.26269" lon="0.20125">
        <ele>61.1</ele>
        <time>2017-05-14T07:28:30Z</time>
      </trkpt>
      <trkpt lat="49.26265" lon="0.20125">
        <ele>61.1</ele>
        <time>2017-05-14T07:28:31Z</time>
      </trkpt>
      <trkpt lat="49.26262" lon="0.20125">
        <ele>61.2</ele>
        <time>2017-05-14T07:28:32Z</time>
      </trkpt>
      <trkpt lat="49.26259" lon="0.20125">
        <ele>61.2</ele>
        <time>2017-05-14T07:28:33Z</time>
      </trkpt>
      <trkpt lat="49.26256" lon="0.20126">
        <ele>61.3</ele>
        <time>2017-05-14T07:28:34Z</time>
      </trkpt>
      <trkpt lat="49.26251" lon="0.20125">
        <ele>61.5</ele>
        <time>2017-05-14T07:28:36Z</time>
      </trkpt>
      <trkpt lat="49.26248" lon="0.20126">
        <ele>61.6</ele>
        <time>2017-05-14T07:28:37Z</time>
      </trkpt>
      <trkpt lat="49.26245" lon="0.20126">
        <ele>61.7</ele>
        <time>2017-05-14T07:28:38Z</time>
      </trkpt>
      <trkpt lat="49.26242" lon="0.20126">
        <ele>61.8</ele>
        <time>2017-05-14T07:28:39Z</time>
      </trkpt>
      <trkpt lat="49.26239" lon="0.20126">
        <ele>61.9</ele>
        <time>2017-05-14T07:28:40Z</time>
      </trkpt>
      <trkpt lat="49.26236" lon="0.20125">
        <ele>62</ele>
        <time>2017-05-14T07:28:41Z</time>
      </trkpt>
      <trkpt lat="49.26232" lon="0.20125">
        <ele>62.1</ele>
        <time>2017-05-14T07:28:42Z</time>
      </trkpt>
      <trkpt lat="49.26229" lon="0.20124">
        <ele>62.2</ele>
        <time>2017-05-14T07:28:43Z</time>
      </trkpt>
      <trkpt lat="49.26226" lon="0.20124">
        <ele>62.2</ele>
        <time>2017-05-14T07:28:44Z</time>
      </trkpt>
      <trkpt lat="49.26222" lon="0.20125">
        <ele>62.2</ele>
        <time>2017-05-14T07:28:45Z</time>
      </trkpt>
      <trkpt lat="49.26218" lon="0.20124">
        <ele>62.1</ele>
        <time>2017-05-14T07:28:46Z</time>
      </trkpt>
      <trkpt lat="49.26215" lon="0.20124">
        <ele>62</ele>
        <time>2017-05-14T07:28:47Z</time>
      </trkpt>
      <trkpt lat="49.26212" lon="0.20124">
        <ele>61.9</ele>
        <time>2017-05-14T07:28:48Z</time>
      </trkpt>
      <trkpt lat="49.26209" lon="0.20124">
        <ele>61.8</ele>
        <time>2017-05-14T07:28:49Z</time>
      </trkpt>
      <trkpt lat="49.26206" lon="0.20124">
        <ele>61.5</ele>
        <time>2017-05-14T07:28:50Z</time>
      </trkpt>
      <trkpt lat="49.26203" lon="0.20124">
        <ele>61.3</ele>
        <time>2017-05-14T07:28:51Z</time>
      </trkpt>
      <trkpt lat="49.262" lon="0.20124">
        <ele>61.1</ele>
        <time>2017-05-14T07:28:52Z</time>
      </trkpt>
      <trkpt lat="49.26197" lon="0.20124">
        <ele>60.9</ele>
        <time>2017-05-14T07:28:53Z</time>
      </trkpt>
      <trkpt lat="49.26192" lon="0.20125">
        <ele>60.6</ele>
        <time>2017-05-14T07:28:55Z</time>
      </trkpt>
      <trkpt lat="49.26189" lon="0.20125">
        <ele>60.4</ele>
        <time>2017-05-14T07:28:56Z</time>
      </trkpt>
      <trkpt lat="49.26186" lon="0.20119">
        <ele>60.4</ele>
        <time>2017-05-14T07:28:58Z</time>
      </trkpt>
      <trkpt lat="49.26183" lon="0.20109">
        <ele>60.5</ele>
        <time>2017-05-14T07:29:00Z</time>
      </trkpt>
      <trkpt lat="49.2618" lon="0.20103">
        <ele>60.5</ele>
        <time>2017-05-14T07:29:01Z</time>
      </trkpt>
      <trkpt lat="49.26179" lon="0.20097">
        <ele>60.8</ele>
        <time>2017-05-14T07:29:02Z</time>
      </trkpt>
      <trkpt lat="49.26178" lon="0.20093">
        <ele>60.9</ele>
        <time>2017-05-14T07:29:03Z</time>
      </trkpt>
      <trkpt lat="49.26177" lon="0.20086">
        <ele>61.1</ele>
        <time>2017-05-14T07:29:05Z</time>
      </trkpt>
      <trkpt lat="49.26177" lon="0.2008">
        <ele>61.2</ele>
        <time>2017-05-14T07:29:07Z</time>
      </trkpt>
      <trkpt lat="49.26176" lon="0.20075">
        <ele>61.6</ele>
        <time>2017-05-14T07:29:09Z</time>
      </trkpt>
      <trkpt lat="49.26175" lon="0.20069">
        <ele>61.8</ele>
        <time>2017-05-14T07:29:11Z</time>
      </trkpt>
      <trkpt lat="49.26175" lon="0.20062">
        <ele>62.5</ele>
        <time>2017-05-14T07:29:13Z</time>
      </trkpt>
      <trkpt lat="49.26175" lon="0.20054">
        <ele>63.1</ele>
        <time>2017-05-14T07:29:15Z</time>
      </trkpt>
      <trkpt lat="49.26175" lon="0.2005">
        <ele>63.4</ele>
        <time>2017-05-14T07:29:17Z</time>
      </trkpt>
      <trkpt lat="49.26173" lon="0.20046">
        <ele>63.3</ele>
        <time>2017-05-14T07:29:21Z</time>
      </trkpt>
      <trkpt lat="49.2617" lon="0.20045">
        <ele>63.7</ele>
        <time>2017-05-14T07:29:24Z</time>
      </trkpt>
      <trkpt lat="49.26167" lon="0.20041">
        <ele>64.1</ele>
        <time>2017-05-14T07:29:26Z</time>
      </trkpt>
      <trkpt lat="49.26167" lon="0.20036">
        <ele>64.5</ele>
        <time>2017-05-14T07:29:29Z</time>
      </trkpt>
      <trkpt lat="49.26167" lon="0.20032">
        <ele>65</ele>
        <time>2017-05-14T07:29:31Z</time>
      </trkpt>
      <trkpt lat="49.26164" lon="0.20027">
        <ele>65.3</ele>
        <time>2017-05-14T07:29:34Z</time>
      </trkpt>
      <trkpt lat="49.26162" lon="0.20025">
        <ele>65.2</ele>
        <time>2017-05-14T07:29:35Z</time>
      </trkpt>
      <trkpt lat="49.26159" lon="0.20024">
        <ele>65.6</ele>
        <time>2017-05-14T07:29:36Z</time>
      </trkpt>
      <trkpt lat="49.26154" lon="0.2002">
        <ele>65.8</ele>
        <time>2017-05-14T07:29:38Z</time>
      </trkpt>
      <trkpt lat="49.26149" lon="0.20016">
        <ele>66.1</ele>
        <time>2017-05-14T07:29:39Z</time>
      </trkpt>
      <trkpt lat="49.26146" lon="0.20013">
        <ele>66</ele>
        <time>2017-05-14T07:29:40Z</time>
      </trkpt>
      <trkpt lat="49.26143" lon="0.20011">
        <ele>66.3</ele>
        <time>2017-05-14T07:29:41Z</time>
      </trkpt>
      <trkpt lat="49.26141" lon="0.20008">
        <ele>66.3</ele>
        <time>2017-05-14T07:29:43Z</time>
      </trkpt>
      <trkpt lat="49.26138" lon="0.20006">
        <ele>66.6</ele>
        <time>2017-05-14T07:29:44Z</time>
      </trkpt>
      <trkpt lat="49.26135" lon="0.20005">
        <ele>66.5</ele>
        <time>2017-05-14T07:29:45Z</time>
      </trkpt>
      <trkpt lat="49.26133" lon="0.2">
        <ele>66.8</ele>
        <time>2017-05-14T07:29:49Z</time>
      </trkpt>
      <trkpt lat="49.2613" lon="0.19997">
        <ele>67.1</ele>
        <time>2017-05-14T07:29:50Z</time>
      </trkpt>
      <trkpt lat="49.26128" lon="0.19994">
        <ele>67.4</ele>
        <time>2017-05-14T07:29:51Z</time>
      </trkpt>
      <trkpt lat="49.26123" lon="0.19989">
        <ele>67.9</ele>
        <time>2017-05-14T07:29:53Z</time>
      </trkpt>
      <trkpt lat="49.26118" lon="0.19987">
        <ele>68.4</ele>
        <time>2017-05-14T07:29:54Z</time>
      </trkpt>
      <trkpt lat="49.26112" lon="0.19985">
        <ele>69.4</ele>
        <time>2017-05-14T07:29:55Z</time>
      </trkpt>
      <trkpt lat="49.26104" lon="0.19985">
        <ele>70.1</ele>
        <time>2017-05-14T07:29:56Z</time>
      </trkpt>
      <trkpt lat="49.26097" lon="0.19983">
        <ele>70.4</ele>
        <time>2017-05-14T07:29:57Z</time>
      </trkpt>
      <trkpt lat="49.26094" lon="0.19981">
        <ele>71.2</ele>
        <time>2017-05-14T07:29:58Z</time>
      </trkpt>
      <trkpt lat="49.26091" lon="0.19978">
        <ele>71.3</ele>
        <time>2017-05-14T07:29:59Z</time>
      </trkpt>
      <trkpt lat="49.26087" lon="0.19976">
        <ele>71.9</ele>
        <time>2017-05-14T07:30:00Z</time>
      </trkpt>
      <trkpt lat="49.26082" lon="0.19974">
        <ele>71.9</ele>
        <time>2017-05-14T07:30:01Z</time>
      </trkpt>
      <trkpt lat="49.26079" lon="0.19972">
        <ele>72.4</ele>
        <time>2017-05-14T07:30:02Z</time>
      </trkpt>
      <trkpt lat="49.26075" lon="0.1997">
        <ele>72.4</ele>
        <time>2017-05-14T07:30:04Z</time>
      </trkpt>
      <trkpt lat="49.26072" lon="0.19967">
        <ele>72.9</ele>
        <time>2017-05-14T07:30:06Z</time>
      </trkpt>
      <trkpt lat="49.2607" lon="0.19964">
        <ele>73.7</ele>
        <time>2017-05-14T07:30:08Z</time>
      </trkpt>
      <trkpt lat="49.26067" lon="0.19962">
        <ele>73.6</ele>
        <time>2017-05-14T07:30:09Z</time>
      </trkpt>
      <trkpt lat="49.26064" lon="0.1996">
        <ele>73.5</ele>
        <time>2017-05-14T07:30:10Z</time>
      </trkpt>
      <trkpt lat="49.26061" lon="0.1996">
        <ele>73.4</ele>
        <time>2017-05-14T07:30:11Z</time>
      </trkpt>
      <trkpt lat="49.26056" lon="0.19959">
        <ele>74</ele>
        <time>2017-05-14T07:30:12Z</time>
      </trkpt>
      <trkpt lat="49.26053" lon="0.19958">
        <ele>73.9</ele>
        <time>2017-05-14T07:30:13Z</time>
      </trkpt>
      <trkpt lat="49.2605" lon="0.19957">
        <ele>73.9</ele>
        <time>2017-05-14T07:30:16Z</time>
      </trkpt>
      <trkpt lat="49.26048" lon="0.19956">
        <ele>73.8</ele>
        <time>2017-05-14T07:30:18Z</time>
      </trkpt>
      <trkpt lat="49.26045" lon="0.19951">
        <ele>74.9</ele>
        <time>2017-05-14T07:30:19Z</time>
      </trkpt>
      <trkpt lat="49.26041" lon="0.19949">
        <ele>74.8</ele>
        <time>2017-05-14T07:30:20Z</time>
      </trkpt>
      <trkpt lat="49.26039" lon="0.19945">
        <ele>75</ele>
        <time>2017-05-14T07:30:21Z</time>
      </trkpt>
      <trkpt lat="49.26036" lon="0.19943">
        <ele>75.1</ele>
        <time>2017-05-14T07:30:22Z</time>
      </trkpt>
      <trkpt lat="49.26033" lon="0.19941">
        <ele>74.8</ele>
        <time>2017-05-14T07:30:23Z</time>
      </trkpt>
      <trkpt lat="49.2603" lon="0.1994">
        <ele>74.7</ele>
        <time>2017-05-14T07:30:24Z</time>
      </trkpt>
      <trkpt lat="49.26026" lon="0.19939">
        <ele>74.5</ele>
        <time>2017-05-14T07:30:26Z</time>
      </trkpt>
      <trkpt lat="49.26021" lon="0.19938">
        <ele>74.7</ele>
        <time>2017-05-14T07:30:28Z</time>
      </trkpt>
      <trkpt lat="49.26018" lon="0.19936">
        <ele>74.5</ele>
        <time>2017-05-14T07:30:31Z</time>
      </trkpt>
      <trkpt lat="49.26015" lon="0.19934">
        <ele>74.9</ele>
        <time>2017-05-14T07:30:34Z</time>
      </trkpt>
      <trkpt lat="49.26011" lon="0.19933">
        <ele>74.8</ele>
        <time>2017-05-14T07:30:35Z</time>
      </trkpt>
      <trkpt lat="49.26008" lon="0.19931">
        <ele>74.7</ele>
        <time>2017-05-14T07:30:38Z</time>
      </trkpt>
      <trkpt lat="49.26003" lon="0.19929">
        <ele>75</ele>
        <time>2017-05-14T07:30:40Z</time>
      </trkpt>
      <trkpt lat="49.25999" lon="0.19926">
        <ele>74.9</ele>
        <time>2017-05-14T07:30:41Z</time>
      </trkpt>
      <trkpt lat="49.25997" lon="0.19925">
        <ele>75.3</ele>
        <time>2017-05-14T07:30:43Z</time>
      </trkpt>
      <trkpt lat="49.25993" lon="0.19922">
        <ele>75.1</ele>
        <time>2017-05-14T07:30:44Z</time>
      </trkpt>
      <trkpt lat="49.25989" lon="0.19921">
        <ele>75.5</ele>
        <time>2017-05-14T07:30:45Z</time>
      </trkpt>
      <trkpt lat="49.25984" lon="0.1992">
        <ele>75.5</ele>
        <time>2017-05-14T07:30:46Z</time>
      </trkpt>
      <trkpt lat="49.25979" lon="0.19917">
        <ele>75.9</ele>
        <time>2017-05-14T07:30:48Z</time>
      </trkpt>
      <trkpt lat="49.25973" lon="0.19916">
        <ele>75.9</ele>
        <time>2017-05-14T07:30:50Z</time>
      </trkpt>
      <trkpt lat="49.25969" lon="0.19915">
        <ele>76</ele>
        <time>2017-05-14T07:30:51Z</time>
      </trkpt>
      <trkpt lat="49.25964" lon="0.19913">
        <ele>76.7</ele>
        <time>2017-05-14T07:30:53Z</time>
      </trkpt>
      <trkpt lat="49.25961" lon="0.19911">
        <ele>76.8</ele>
        <time>2017-05-14T07:30:55Z</time>
      </trkpt>
      <trkpt lat="49.25958" lon="0.19909">
        <ele>76.9</ele>
        <time>2017-05-14T07:30:56Z</time>
      </trkpt>
      <trkpt lat="49.25953" lon="0.19904">
        <ele>79.3</ele>
        <time>2017-05-14T07:30:58Z</time>
      </trkpt>
      <trkpt lat="49.25948" lon="0.19898">
        <ele>80.9</ele>
        <time>2017-05-14T07:31:00Z</time>
      </trkpt>
      <trkpt lat="49.25945" lon="0.19895">
        <ele>82.3</ele>
        <time>2017-05-14T07:31:02Z</time>
      </trkpt>
      <trkpt lat="49.25943" lon="0.19892">
        <ele>82.5</ele>
        <time>2017-05-14T07:31:04Z</time>
      </trkpt>
      <trkpt lat="49.2594" lon="0.19888">
        <ele>83.5</ele>
        <time>2017-05-14T07:31:06Z</time>
      </trkpt>
      <trkpt lat="49.25937" lon="0.19886">
        <ele>84.8</ele>
        <time>2017-05-14T07:31:07Z</time>
      </trkpt>
      <trkpt lat="49.25934" lon="0.19883">
        <ele>84.9</ele>
        <time>2017-05-14T07:31:09Z</time>
      </trkpt>
      <trkpt lat="49.2593" lon="0.1988">
        <ele>86.1</ele>
        <time>2017-05-14T07:31:11Z</time>
      </trkpt>
      <trkpt lat="49.25928" lon="0.19878">
        <ele>87.5</ele>
        <time>2017-05-14T07:31:13Z</time>
      </trkpt>
      <trkpt lat="49.25924" lon="0.19872">
        <ele>88.9</ele>
        <time>2017-05-14T07:31:15Z</time>
      </trkpt>
      <trkpt lat="49.25922" lon="0.19869">
        <ele>90.2</ele>
        <time>2017-05-14T07:31:18Z</time>
      </trkpt>
      <trkpt lat="49.25917" lon="0.19869">
        <ele>90.2</ele>
        <time>2017-05-14T07:31:20Z</time>
      </trkpt>
      <trkpt lat="49.25914" lon="0.19869">
        <ele>90.1</ele>
        <time>2017-05-14T07:31:23Z</time>
      </trkpt>
      <trkpt lat="49.2591" lon="0.19869">
        <ele>90</ele>
        <time>2017-05-14T07:31:25Z</time>
      </trkpt>
      <trkpt lat="49.25906" lon="0.19867">
        <ele>89.8</ele>
        <time>2017-05-14T07:31:27Z</time>
      </trkpt>
      <trkpt lat="49.25902" lon="0.19865">
        <ele>90.6</ele>
        <time>2017-05-14T07:31:29Z</time>
      </trkpt>
      <trkpt lat="49.25895" lon="0.19863">
        <ele>89.8</ele>
        <time>2017-05-14T07:31:31Z</time>
      </trkpt>
      <trkpt lat="49.25891" lon="0.1986">
        <ele>90.4</ele>
        <time>2017-05-14T07:31:33Z</time>
      </trkpt>
      <trkpt lat="49.25887" lon="0.19858">
        <ele>89.7</ele>
        <time>2017-05-14T07:31:34Z</time>
      </trkpt>
      <trkpt lat="49.25882" lon="0.19856">
        <ele>90.2</ele>
        <time>2017-05-14T07:31:35Z</time>
      </trkpt>
      <trkpt lat="49.25878" lon="0.19852">
        <ele>90.4</ele>
        <time>2017-05-14T07:31:36Z</time>
      </trkpt>
      <trkpt lat="49.25875" lon="0.19847">
        <ele>90.9</ele>
        <time>2017-05-14T07:31:37Z</time>
      </trkpt>
      <trkpt lat="49.25872" lon="0.19843">
        <ele>91.4</ele>
        <time>2017-05-14T07:31:38Z</time>
      </trkpt>
      <trkpt lat="49.25868" lon="0.19839">
        <ele>91.8</ele>
        <time>2017-05-14T07:31:40Z</time>
      </trkpt>
      <trkpt lat="49.25865" lon="0.19839">
        <ele>90.6</ele>
        <time>2017-05-14T07:31:41Z</time>
      </trkpt>
      <trkpt lat="49.25861" lon="0.1984">
        <ele>89</ele>
        <time>2017-05-14T07:31:42Z</time>
      </trkpt>
      <trkpt lat="49.25855" lon="0.19837">
        <ele>89.2</ele>
        <time>2017-05-14T07:31:47Z</time>
      </trkpt>
      <trkpt lat="49.25853" lon="0.19835">
        <ele>90</ele>
        <time>2017-05-14T07:31:48Z</time>
      </trkpt>
      <trkpt lat="49.2585" lon="0.19831">
        <ele>91</ele>
        <time>2017-05-14T07:31:49Z</time>
      </trkpt>
      <trkpt lat="49.25848" lon="0.19826">
        <ele>92.3</ele>
        <time>2017-05-14T07:31:50Z</time>
      </trkpt>
      <trkpt lat="49.25845" lon="0.19821">
        <ele>93.7</ele>
        <time>2017-05-14T07:31:52Z</time>
      </trkpt>
      <trkpt lat="49.25842" lon="0.19812">
        <ele>96.9</ele>
        <time>2017-05-14T07:31:55Z</time>
      </trkpt>
      <trkpt lat="49.2584" lon="0.19808">
        <ele>98.3</ele>
        <time>2017-05-14T07:31:57Z</time>
      </trkpt>
      <trkpt lat="49.25839" lon="0.19804">
        <ele>99.1</ele>
        <time>2017-05-14T07:31:59Z</time>
      </trkpt>
      <trkpt lat="49.25838" lon="0.198">
        <ele>100.2</ele>
        <time>2017-05-14T07:32:01Z</time>
      </trkpt>
      <trkpt lat="49.25837" lon="0.19796">
        <ele>101.3</ele>
        <time>2017-05-14T07:32:08Z</time>
      </trkpt>
      <trkpt lat="49.25836" lon="0.19792">
        <ele>101.8</ele>
        <time>2017-05-14T07:32:09Z</time>
      </trkpt>
      <trkpt lat="49.25833" lon="0.19786">
        <ele>102.2</ele>
        <time>2017-05-14T07:32:11Z</time>
      </trkpt>
      <trkpt lat="49.2583" lon="0.19784">
        <ele>102.4</ele>
        <time>2017-05-14T07:32:15Z</time>
      </trkpt>
      <trkpt lat="49.25827" lon="0.1978">
        <ele>101.8</ele>
        <time>2017-05-14T07:32:16Z</time>
      </trkpt>
      <trkpt lat="49.25823" lon="0.19777">
        <ele>101.9</ele>
        <time>2017-05-14T07:32:17Z</time>
      </trkpt>
      <trkpt lat="49.25818" lon="0.19773">
        <ele>101.3</ele>
        <time>2017-05-14T07:32:18Z</time>
      </trkpt>
      <trkpt lat="49.25813" lon="0.19772">
        <ele>100</ele>
        <time>2017-05-14T07:32:19Z</time>
      </trkpt>
      <trkpt lat="49.25808" lon="0.19769">
        <ele>99.3</ele>
        <time>2017-05-14T07:32:21Z</time>
      </trkpt>
      <trkpt lat="49.25805" lon="0.19767">
        <ele>99.2</ele>
        <time>2017-05-14T07:32:22Z</time>
      </trkpt>
      <trkpt lat="49.25802" lon="0.19764">
        <ele>98.3</ele>
        <time>2017-05-14T07:32:23Z</time>
      </trkpt>
      <trkpt lat="49.258" lon="0.19759">
        <ele>98</ele>
        <time>2017-05-14T07:32:24Z</time>
      </trkpt>
      <trkpt lat="49.25798" lon="0.19753">
        <ele>99.1</ele>
        <time>2017-05-14T07:32:25Z</time>
      </trkpt>
      <trkpt lat="49.25796" lon="0.19748">
        <ele>98.7</ele>
        <time>2017-05-14T07:32:26Z</time>
      </trkpt>
      <trkpt lat="49.25795" lon="0.19743">
        <ele>99.4</ele>
        <time>2017-05-14T07:32:27Z</time>
      </trkpt>
      <trkpt lat="49.25794" lon="0.19737">
        <ele>99.2</ele>
        <time>2017-05-14T07:32:28Z</time>
      </trkpt>
      <trkpt lat="49.25794" lon="0.19731">
        <ele>100.8</ele>
        <time>2017-05-14T07:32:31Z</time>
      </trkpt>
      <trkpt lat="49.25793" lon="0.19726">
        <ele>101.3</ele>
        <time>2017-05-14T07:32:33Z</time>
      </trkpt>
      <trkpt lat="49.25791" lon="0.19717">
        <ele>101.1</ele>
        <time>2017-05-14T07:32:35Z</time>
      </trkpt>
      <trkpt lat="49.25789" lon="0.19712">
        <ele>101.2</ele>
        <time>2017-05-14T07:32:36Z</time>
      </trkpt>
      <trkpt lat="49.25789" lon="0.19708">
        <ele>101.3</ele>
        <time>2017-05-14T07:32:38Z</time>
      </trkpt>
      <trkpt lat="49.25789" lon="0.19697">
        <ele>100.2</ele>
        <time>2017-05-14T07:32:40Z</time>
      </trkpt>
      <trkpt lat="49.25788" lon="0.1969">
        <ele>100.2</ele>
        <time>2017-05-14T07:32:41Z</time>
      </trkpt>
      <trkpt lat="49.25788" lon="0.19683">
        <ele>100.6</ele>
        <time>2017-05-14T07:32:42Z</time>
      </trkpt>
      <trkpt lat="49.25788" lon="0.19676">
        <ele>101</ele>
        <time>2017-05-14T07:32:43Z</time>
      </trkpt>
      <trkpt lat="49.25788" lon="0.19669">
        <ele>101.1</ele>
        <time>2017-05-14T07:32:44Z</time>
      </trkpt>
      <trkpt lat="49.25788" lon="0.19662">
        <ele>100.8</ele>
        <time>2017-05-14T07:32:45Z</time>
      </trkpt>
      <trkpt lat="49.25787" lon="0.19655">
        <ele>100.2</ele>
        <time>2017-05-14T07:32:46Z</time>
      </trkpt>
      <trkpt lat="49.25788" lon="0.19649">
        <ele>100.5</ele>
        <time>2017-05-14T07:32:47Z</time>
      </trkpt>
      <trkpt lat="49.25788" lon="0.19643">
        <ele>100.7</ele>
        <time>2017-05-14T07:32:48Z</time>
      </trkpt>
      <trkpt lat="49.25788" lon="0.19636">
        <ele>101.1</ele>
        <time>2017-05-14T07:32:49Z</time>
      </trkpt>
      <trkpt lat="49.25789" lon="0.19629">
        <ele>101.4</ele>
        <time>2017-05-14T07:32:50Z</time>
      </trkpt>
      <trkpt lat="49.2579" lon="0.19622">
        <ele>101.7</ele>
        <time>2017-05-14T07:32:51Z</time>
      </trkpt>
      <trkpt lat="49.25791" lon="0.19616">
        <ele>102.1</ele>
        <time>2017-05-14T07:32:53Z</time>
      </trkpt>
      <trkpt lat="49.25791" lon="0.19611">
        <ele>102.3</ele>
        <time>2017-05-14T07:32:55Z</time>
      </trkpt>
      <trkpt lat="49.2579" lon="0.19602">
        <ele>102.7</ele>
        <time>2017-05-14T07:32:57Z</time>
      </trkpt>
      <trkpt lat="49.25789" lon="0.19595">
        <ele>103.1</ele>
        <time>2017-05-14T07:32:58Z</time>
      </trkpt>
      <trkpt lat="49.25789" lon="0.19588">
        <ele>103.4</ele>
        <time>2017-05-14T07:32:59Z</time>
      </trkpt>
      <trkpt lat="49.2579" lon="0.19582">
        <ele>103.7</ele>
        <time>2017-05-14T07:33:01Z</time>
      </trkpt>
      <trkpt lat="49.2579" lon="0.19576">
        <ele>104</ele>
        <time>2017-05-14T07:33:02Z</time>
      </trkpt>
      <trkpt lat="49.2579" lon="0.19566">
        <ele>104.5</ele>
        <time>2017-05-14T07:33:04Z</time>
      </trkpt>
      <trkpt lat="49.25791" lon="0.1956">
        <ele>104.8</ele>
        <time>2017-05-14T07:33:05Z</time>
      </trkpt>
      <trkpt lat="49.25791" lon="0.19554">
        <ele>105</ele>
        <time>2017-05-14T07:33:08Z</time>
      </trkpt>
      <trkpt lat="49.2579" lon="0.19546">
        <ele>105.3</ele>
        <time>2017-05-14T07:33:11Z</time>
      </trkpt>
      <trkpt lat="49.2579" lon="0.19539">
        <ele>105.6</ele>
        <time>2017-05-14T07:33:12Z</time>
      </trkpt>
      <trkpt lat="49.25789" lon="0.19532">
        <ele>105.8</ele>
        <time>2017-05-14T07:33:13Z</time>
      </trkpt>
      <trkpt lat="49.25789" lon="0.19527">
        <ele>106.1</ele>
        <time>2017-05-14T07:33:15Z</time>
      </trkpt>
      <trkpt lat="49.25788" lon="0.19519">
        <ele>106.4</ele>
        <time>2017-05-14T07:33:17Z</time>
      </trkpt>
      <trkpt lat="49.25788" lon="0.19513">
        <ele>106.6</ele>
        <time>2017-05-14T07:33:18Z</time>
      </trkpt>
      <trkpt lat="49.25788" lon="0.19507">
        <ele>106.8</ele>
        <time>2017-05-14T07:33:19Z</time>
      </trkpt>
      <trkpt lat="49.25787" lon="0.19498">
        <ele>107.2</ele>
        <time>2017-05-14T07:33:21Z</time>
      </trkpt>
      <trkpt lat="49.25788" lon="0.19491">
        <ele>107.5</ele>
        <time>2017-05-14T07:33:22Z</time>
      </trkpt>
      <trkpt lat="49.25788" lon="0.19484">
        <ele>107.7</ele>
        <time>2017-05-14T07:33:23Z</time>
      </trkpt>
      <trkpt lat="49.25789" lon="0.19477">
        <ele>108</ele>
        <time>2017-05-14T07:33:24Z</time>
      </trkpt>
      <trkpt lat="49.25789" lon="0.1947">
        <ele>108.3</ele>
        <time>2017-05-14T07:33:25Z</time>
      </trkpt>
      <trkpt lat="49.2579" lon="0.1946">
        <ele>108.7</ele>
        <time>2017-05-14T07:33:27Z</time>
      </trkpt>
      <trkpt lat="49.25791" lon="0.19453">
        <ele>108.9</ele>
        <time>2017-05-14T07:33:28Z</time>
      </trkpt>
      <trkpt lat="49.2579" lon="0.19444">
        <ele>109.3</ele>
        <time>2017-05-14T07:33:30Z</time>
      </trkpt>
      <trkpt lat="49.2579" lon="0.19437">
        <ele>109.5</ele>
        <time>2017-05-14T07:33:31Z</time>
      </trkpt>
      <trkpt lat="49.2579" lon="0.1943">
        <ele>109.8</ele>
        <time>2017-05-14T07:33:32Z</time>
      </trkpt>
      <trkpt lat="49.2579" lon="0.19424">
        <ele>110</ele>
        <time>2017-05-14T07:33:33Z</time>
      </trkpt>
      <trkpt lat="49.2579" lon="0.19415">
        <ele>110.3</ele>
        <time>2017-05-14T07:33:35Z</time>
      </trkpt>
      <trkpt lat="49.25791" lon="0.19409">
        <ele>110.4</ele>
        <time>2017-05-14T07:33:36Z</time>
      </trkpt>
      <trkpt lat="49.25791" lon="0.19399">
        <ele>110.7</ele>
        <time>2017-05-14T07:33:38Z</time>
      </trkpt>
      <trkpt lat="49.2579" lon="0.19393">
        <ele>110.9</ele>
        <time>2017-05-14T07:33:39Z</time>
      </trkpt>
      <trkpt lat="49.25791" lon="0.19386">
        <ele>111.1</ele>
        <time>2017-05-14T07:33:40Z</time>
      </trkpt>
      <trkpt lat="49.25792" lon="0.19379">
        <ele>111.3</ele>
        <time>2017-05-14T07:33:41Z</time>
      </trkpt>
      <trkpt lat="49.25792" lon="0.19369">
        <ele>111.6</ele>
        <time>2017-05-14T07:33:43Z</time>
      </trkpt>
      <trkpt lat="49.25792" lon="0.19362">
        <ele>111.8</ele>
        <time>2017-05-14T07:33:44Z</time>
      </trkpt>
      <trkpt lat="49.25793" lon="0.19352">
        <ele>112</ele>
        <time>2017-05-14T07:33:46Z</time>
      </trkpt>
      <trkpt lat="49.25793" lon="0.19343">
        <ele>112.3</ele>
        <time>2017-05-14T07:33:48Z</time>
      </trkpt>
      <trkpt lat="49.25794" lon="0.19337">
        <ele>112.5</ele>
        <time>2017-05-14T07:33:50Z</time>
      </trkpt>
      <trkpt lat="49.25794" lon="0.1933">
        <ele>112.7</ele>
        <time>2017-05-14T07:33:52Z</time>
      </trkpt>
      <trkpt lat="49.25791" lon="0.19324">
        <ele>112.9</ele>
        <time>2017-05-14T07:33:54Z</time>
      </trkpt>
      <trkpt lat="49.25789" lon="0.19321">
        <ele>113</ele>
        <time>2017-05-14T07:33:55Z</time>
      </trkpt>
      <trkpt lat="49.25786" lon="0.19319">
        <ele>113.1</ele>
        <time>2017-05-14T07:33:56Z</time>
      </trkpt>
      <trkpt lat="49.25783" lon="0.19317">
        <ele>113.3</ele>
        <time>2017-05-14T07:33:57Z</time>
      </trkpt>
      <trkpt lat="49.25781" lon="0.19315">
        <ele>113.4</ele>
        <time>2017-05-14T07:33:58Z</time>
      </trkpt>
      <trkpt lat="49.25777" lon="0.19314">
        <ele>113.6</ele>
        <time>2017-05-14T07:33:59Z</time>
      </trkpt>
      <trkpt lat="49.25773" lon="0.19314">
        <ele>113.2</ele>
        <time>2017-05-14T07:34:00Z</time>
      </trkpt>
      <trkpt lat="49.25769" lon="0.19313">
        <ele>112.5</ele>
        <time>2017-05-14T07:34:01Z</time>
      </trkpt>
      <trkpt lat="49.25764" lon="0.19312">
        <ele>111.8</ele>
        <time>2017-05-14T07:34:02Z</time>
      </trkpt>
      <trkpt lat="49.25758" lon="0.19312">
        <ele>111.5</ele>
        <time>2017-05-14T07:34:03Z</time>
      </trkpt>
      <trkpt lat="49.25753" lon="0.19312">
        <ele>111</ele>
        <time>2017-05-14T07:34:04Z</time>
      </trkpt>
      <trkpt lat="49.25746" lon="0.19312">
        <ele>110.3</ele>
        <time>2017-05-14T07:34:05Z</time>
      </trkpt>
      <trkpt lat="49.25741" lon="0.19311">
        <ele>109.6</ele>
        <time>2017-05-14T07:34:06Z</time>
      </trkpt>
      <trkpt lat="49.25736" lon="0.1931">
        <ele>109.3</ele>
        <time>2017-05-14T07:34:07Z</time>
      </trkpt>
      <trkpt lat="49.25731" lon="0.19311">
        <ele>108.6</ele>
        <time>2017-05-14T07:34:08Z</time>
      </trkpt>
      <trkpt lat="49.25726" lon="0.19312">
        <ele>108</ele>
        <time>2017-05-14T07:34:09Z</time>
      </trkpt>
      <trkpt lat="49.25718" lon="0.19314">
        <ele>107.6</ele>
        <time>2017-05-14T07:34:10Z</time>
      </trkpt>
      <trkpt lat="49.25711" lon="0.19316">
        <ele>107.5</ele>
        <time>2017-05-14T07:34:11Z</time>
      </trkpt>
      <trkpt lat="49.25705" lon="0.19319">
        <ele>107.4</ele>
        <time>2017-05-14T07:34:12Z</time>
      </trkpt>
      <trkpt lat="49.25699" lon="0.19321">
        <ele>107.4</ele>
        <time>2017-05-14T07:34:13Z</time>
      </trkpt>
      <trkpt lat="49.25694" lon="0.19323">
        <ele>107.5</ele>
        <time>2017-05-14T07:34:14Z</time>
      </trkpt>
      <trkpt lat="49.25689" lon="0.19324">
        <ele>107.6</ele>
        <time>2017-05-14T07:34:16Z</time>
      </trkpt>
      <trkpt lat="49.25685" lon="0.19326">
        <ele>107.6</ele>
        <time>2017-05-14T07:34:18Z</time>
      </trkpt>
      <trkpt lat="49.2568" lon="0.19326">
        <ele>107.7</ele>
        <time>2017-05-14T07:34:19Z</time>
      </trkpt>
      <trkpt lat="49.25674" lon="0.19328">
        <ele>107.9</ele>
        <time>2017-05-14T07:34:20Z</time>
      </trkpt>
      <trkpt lat="49.25667" lon="0.1933">
        <ele>108</ele>
        <time>2017-05-14T07:34:21Z</time>
      </trkpt>
      <trkpt lat="49.2566" lon="0.19333">
        <ele>108.6</ele>
        <time>2017-05-14T07:34:22Z</time>
      </trkpt>
      <trkpt lat="49.25653" lon="0.19335">
        <ele>108.9</ele>
        <time>2017-05-14T07:34:23Z</time>
      </trkpt>
      <trkpt lat="49.25649" lon="0.19336">
        <ele>109.3</ele>
        <time>2017-05-14T07:34:24Z</time>
      </trkpt>
      <trkpt lat="49.25645" lon="0.19336">
        <ele>109.6</ele>
        <time>2017-05-14T07:34:25Z</time>
      </trkpt>
      <trkpt lat="49.2564" lon="0.19337">
        <ele>109.9</ele>
        <time>2017-05-14T07:34:26Z</time>
      </trkpt>
      <trkpt lat="49.25635" lon="0.19339">
        <ele>110.2</ele>
        <time>2017-05-14T07:34:27Z</time>
      </trkpt>
      <trkpt lat="49.2563" lon="0.1934">
        <ele>110.3</ele>
        <time>2017-05-14T07:34:28Z</time>
      </trkpt>
      <trkpt lat="49.25625" lon="0.19341">
        <ele>110.7</ele>
        <time>2017-05-14T07:34:29Z</time>
      </trkpt>
      <trkpt lat="49.25619" lon="0.19341">
        <ele>110.9</ele>
        <time>2017-05-14T07:34:30Z</time>
      </trkpt>
      <trkpt lat="49.25614" lon="0.19342">
        <ele>111.1</ele>
        <time>2017-05-14T07:34:31Z</time>
      </trkpt>
      <trkpt lat="49.2561" lon="0.19343">
        <ele>111.2</ele>
        <time>2017-05-14T07:34:32Z</time>
      </trkpt>
      <trkpt lat="49.25606" lon="0.19344">
        <ele>111.3</ele>
        <time>2017-05-14T07:34:33Z</time>
      </trkpt>
      <trkpt lat="49.25601" lon="0.19345">
        <ele>111.5</ele>
        <time>2017-05-14T07:34:34Z</time>
      </trkpt>
      <trkpt lat="49.25597" lon="0.19346">
        <ele>111.5</ele>
        <time>2017-05-14T07:34:35Z</time>
      </trkpt>
      <trkpt lat="49.25593" lon="0.19347">
        <ele>111.8</ele>
        <time>2017-05-14T07:34:36Z</time>
      </trkpt>
      <trkpt lat="49.25588" lon="0.19347">
        <ele>111.8</ele>
        <time>2017-05-14T07:34:37Z</time>
      </trkpt>
      <trkpt lat="49.25583" lon="0.19348">
        <ele>111.7</ele>
        <time>2017-05-14T07:34:38Z</time>
      </trkpt>
      <trkpt lat="49.25578" lon="0.1935">
        <ele>111.6</ele>
        <time>2017-05-14T07:34:39Z</time>
      </trkpt>
      <trkpt lat="49.25573" lon="0.19351">
        <ele>111.6</ele>
        <time>2017-05-14T07:34:40Z</time>
      </trkpt>
      <trkpt lat="49.25568" lon="0.19352">
        <ele>111.4</ele>
        <time>2017-05-14T07:34:41Z</time>
      </trkpt>
      <trkpt lat="49.25562" lon="0.19353">
        <ele>111.3</ele>
        <time>2017-05-14T07:34:42Z</time>
      </trkpt>
      <trkpt lat="49.25557" lon="0.19354">
        <ele>111.2</ele>
        <time>2017-05-14T07:34:43Z</time>
      </trkpt>
      <trkpt lat="49.25552" lon="0.19356">
        <ele>111.1</ele>
        <time>2017-05-14T07:34:44Z</time>
      </trkpt>
      <trkpt lat="49.25548" lon="0.19357">
        <ele>111.1</ele>
        <time>2017-05-14T07:34:45Z</time>
      </trkpt>
      <trkpt lat="49.25543" lon="0.19359">
        <ele>111.1</ele>
        <time>2017-05-14T07:34:46Z</time>
      </trkpt>
      <trkpt lat="49.25538" lon="0.1936">
        <ele>111.1</ele>
        <time>2017-05-14T07:34:47Z</time>
      </trkpt>
      <trkpt lat="49.25534" lon="0.19361">
        <ele>111.2</ele>
        <time>2017-05-14T07:34:48Z</time>
      </trkpt>
      <trkpt lat="49.25529" lon="0.19362">
        <ele>111.2</ele>
        <time>2017-05-14T07:34:49Z</time>
      </trkpt>
      <trkpt lat="49.25524" lon="0.19363">
        <ele>111.2</ele>
        <time>2017-05-14T07:34:50Z</time>
      </trkpt>
      <trkpt lat="49.25519" lon="0.19363">
        <ele>111.2</ele>
        <time>2017-05-14T07:34:51Z</time>
      </trkpt>
      <trkpt lat="49.25515" lon="0.19363">
        <ele>111.2</ele>
        <time>2017-05-14T07:34:52Z</time>
      </trkpt>
      <trkpt lat="49.25511" lon="0.19363">
        <ele>111.2</ele>
        <time>2017-05-14T07:34:53Z</time>
      </trkpt>
      <trkpt lat="49.25506" lon="0.19363">
        <ele>111.2</ele>
        <time>2017-05-14T07:34:54Z</time>
      </trkpt>
      <trkpt lat="49.25501" lon="0.19363">
        <ele>111.2</ele>
        <time>2017-05-14T07:34:55Z</time>
      </trkpt>
      <trkpt lat="49.25497" lon="0.19363">
        <ele>111.3</ele>
        <time>2017-05-14T07:34:56Z</time>
      </trkpt>
      <trkpt lat="49.25493" lon="0.19363">
        <ele>111.4</ele>
        <time>2017-05-14T07:34:57Z</time>
      </trkpt>
      <trkpt lat="49.25488" lon="0.19363">
        <ele>111.6</ele>
        <time>2017-05-14T07:34:58Z</time>
      </trkpt>
      <trkpt lat="49.25484" lon="0.19363">
        <ele>111.8</ele>
        <time>2017-05-14T07:34:59Z</time>
      </trkpt>
      <trkpt lat="49.25479" lon="0.19363">
        <ele>112</ele>
        <time>2017-05-14T07:35:00Z</time>
      </trkpt>
      <trkpt lat="49.25475" lon="0.19363">
        <ele>112.2</ele>
        <time>2017-05-14T07:35:01Z</time>
      </trkpt>
      <trkpt lat="49.2547" lon="0.19363">
        <ele>112.4</ele>
        <time>2017-05-14T07:35:02Z</time>
      </trkpt>
      <trkpt lat="49.25465" lon="0.19364">
        <ele>112.5</ele>
        <time>2017-05-14T07:35:03Z</time>
      </trkpt>
      <trkpt lat="49.2546" lon="0.19364">
        <ele>112.8</ele>
        <time>2017-05-14T07:35:04Z</time>
      </trkpt>
      <trkpt lat="49.25456" lon="0.19364">
        <ele>112.9</ele>
        <time>2017-05-14T07:35:05Z</time>
      </trkpt>
      <trkpt lat="49.25452" lon="0.19365">
        <ele>113.2</ele>
        <time>2017-05-14T07:35:06Z</time>
      </trkpt>
      <trkpt lat="49.25448" lon="0.19365">
        <ele>113.3</ele>
        <time>2017-05-14T07:35:07Z</time>
      </trkpt>
      <trkpt lat="49.25444" lon="0.19366">
        <ele>113.4</ele>
        <time>2017-05-14T07:35:08Z</time>
      </trkpt>
      <trkpt lat="49.2544" lon="0.19367">
        <ele>113.5</ele>
        <time>2017-05-14T07:35:09Z</time>
      </trkpt>
      <trkpt lat="49.25436" lon="0.19368">
        <ele>113.7</ele>
        <time>2017-05-14T07:35:10Z</time>
      </trkpt>
      <trkpt lat="49.25432" lon="0.19369">
        <ele>113.7</ele>
        <time>2017-05-14T07:35:11Z</time>
      </trkpt>
      <trkpt lat="49.25427" lon="0.19371">
        <ele>113.7</ele>
        <time>2017-05-14T07:35:12Z</time>
      </trkpt>
      <trkpt lat="49.25423" lon="0.19371">
        <ele>113.7</ele>
        <time>2017-05-14T07:35:13Z</time>
      </trkpt>
      <trkpt lat="49.2542" lon="0.19372">
        <ele>113.7</ele>
        <time>2017-05-14T07:35:14Z</time>
      </trkpt>
      <trkpt lat="49.25416" lon="0.19373">
        <ele>113.5</ele>
        <time>2017-05-14T07:35:15Z</time>
      </trkpt>
      <trkpt lat="49.25412" lon="0.19374">
        <ele>113.3</ele>
        <time>2017-05-14T07:35:16Z</time>
      </trkpt>
      <trkpt lat="49.25407" lon="0.19375">
        <ele>113.1</ele>
        <time>2017-05-14T07:35:17Z</time>
      </trkpt>
      <trkpt lat="49.25404" lon="0.19376">
        <ele>112.9</ele>
        <time>2017-05-14T07:35:18Z</time>
      </trkpt>
      <trkpt lat="49.254" lon="0.19377">
        <ele>112.7</ele>
        <time>2017-05-14T07:35:19Z</time>
      </trkpt>
      <trkpt lat="49.25396" lon="0.19378">
        <ele>112.3</ele>
        <time>2017-05-14T07:35:20Z</time>
      </trkpt>
      <trkpt lat="49.25393" lon="0.19379">
        <ele>112.1</ele>
        <time>2017-05-14T07:35:21Z</time>
      </trkpt>
      <trkpt lat="49.2539" lon="0.1938">
        <ele>111.9</ele>
        <time>2017-05-14T07:35:22Z</time>
      </trkpt>
      <trkpt lat="49.25388" lon="0.19381">
        <ele>111.5</ele>
        <time>2017-05-14T07:35:23Z</time>
      </trkpt>
      <trkpt lat="49.25385" lon="0.19383">
        <ele>111.4</ele>
        <time>2017-05-14T07:35:24Z</time>
      </trkpt>
      <trkpt lat="49.25383" lon="0.19386">
        <ele>111.2</ele>
        <time>2017-05-14T07:35:25Z</time>
      </trkpt>
      <trkpt lat="49.25382" lon="0.19392">
        <ele>111</ele>
        <time>2017-05-14T07:35:26Z</time>
      </trkpt>
      <trkpt lat="49.25382" lon="0.19397">
        <ele>111</ele>
        <time>2017-05-14T07:35:27Z</time>
      </trkpt>
      <trkpt lat="49.25383" lon="0.19404">
        <ele>111.2</ele>
        <time>2017-05-14T07:35:28Z</time>
      </trkpt>
      <trkpt lat="49.25383" lon="0.19412">
        <ele>111.4</ele>
        <time>2017-05-14T07:35:29Z</time>
      </trkpt>
      <trkpt lat="49.25384" lon="0.1942">
        <ele>111.3</ele>
        <time>2017-05-14T07:35:30Z</time>
      </trkpt>
      <trkpt lat="49.25384" lon="0.19428">
        <ele>110.9</ele>
        <time>2017-05-14T07:35:31Z</time>
      </trkpt>
      <trkpt lat="49.25385" lon="0.19436">
        <ele>110.5</ele>
        <time>2017-05-14T07:35:32Z</time>
      </trkpt>
      <trkpt lat="49.25385" lon="0.19445">
        <ele>110.3</ele>
        <time>2017-05-14T07:35:33Z</time>
      </trkpt>
      <trkpt lat="49.25384" lon="0.19454">
        <ele>110.3</ele>
        <time>2017-05-14T07:35:34Z</time>
      </trkpt>
      <trkpt lat="49.25383" lon="0.19462">
        <ele>110.5</ele>
        <time>2017-05-14T07:35:35Z</time>
      </trkpt>
      <trkpt lat="49.25382" lon="0.19473">
        <ele>110.7</ele>
        <time>2017-05-14T07:35:36Z</time>
      </trkpt>
      <trkpt lat="49.2538" lon="0.19482">
        <ele>110.8</ele>
        <time>2017-05-14T07:35:37Z</time>
      </trkpt>
      <trkpt lat="49.25378" lon="0.19492">
        <ele>110.7</ele>
        <time>2017-05-14T07:35:38Z</time>
      </trkpt>
      <trkpt lat="49.25376" lon="0.19501">
        <ele>110.6</ele>
        <time>2017-05-14T07:35:39Z</time>
      </trkpt>
      <trkpt lat="49.25373" lon="0.19508">
        <ele>110.6</ele>
        <time>2017-05-14T07:35:40Z</time>
      </trkpt>
      <trkpt lat="49.2537" lon="0.19514">
        <ele>110.8</ele>
        <time>2017-05-14T07:35:41Z</time>
      </trkpt>
      <trkpt lat="49.25367" lon="0.19518">
        <ele>111.1</ele>
        <time>2017-05-14T07:35:42Z</time>
      </trkpt>
      <trkpt lat="49.25362" lon="0.19522">
        <ele>111.5</ele>
        <time>2017-05-14T07:35:43Z</time>
      </trkpt>
      <trkpt lat="49.25357" lon="0.19528">
        <ele>112</ele>
        <time>2017-05-14T07:35:44Z</time>
      </trkpt>
      <trkpt lat="49.25354" lon="0.19534">
        <ele>112.2</ele>
        <time>2017-05-14T07:35:45Z</time>
      </trkpt>
      <trkpt lat="49.2535" lon="0.19544">
        <ele>112</ele>
        <time>2017-05-14T07:35:46Z</time>
      </trkpt>
      <trkpt lat="49.25346" lon="0.19554">
        <ele>111.7</ele>
        <time>2017-05-14T07:35:47Z</time>
      </trkpt>
      <trkpt lat="49.25344" lon="0.19561">
        <ele>111.5</ele>
        <time>2017-05-14T07:35:48Z</time>
      </trkpt>
      <trkpt lat="49.25342" lon="0.19568">
        <ele>111.5</ele>
        <time>2017-05-14T07:35:49Z</time>
      </trkpt>
      <trkpt lat="49.2534" lon="0.19575">
        <ele>111.4</ele>
        <time>2017-05-14T07:35:50Z</time>
      </trkpt>
      <trkpt lat="49.25337" lon="0.19582">
        <ele>111.6</ele>
        <time>2017-05-14T07:35:51Z</time>
      </trkpt>
      <trkpt lat="49.25334" lon="0.19591">
        <ele>110.6</ele>
        <time>2017-05-14T07:35:52Z</time>
      </trkpt>
      <trkpt lat="49.25331" lon="0.19602">
        <ele>109.8</ele>
        <time>2017-05-14T07:35:53Z</time>
      </trkpt>
      <trkpt lat="49.25329" lon="0.1961">
        <ele>109.4</ele>
        <time>2017-05-14T07:35:54Z</time>
      </trkpt>
      <trkpt lat="49.25329" lon="0.19617">
        <ele>109.3</ele>
        <time>2017-05-14T07:35:55Z</time>
      </trkpt>
      <trkpt lat="49.25328" lon="0.19628">
        <ele>109.4</ele>
        <time>2017-05-14T07:35:56Z</time>
      </trkpt>
      <trkpt lat="49.25328" lon="0.19641">
        <ele>109.4</ele>
        <time>2017-05-14T07:35:57Z</time>
      </trkpt>
      <trkpt lat="49.25327" lon="0.19652">
        <ele>108.5</ele>
        <time>2017-05-14T07:35:58Z</time>
      </trkpt>
      <trkpt lat="49.25327" lon="0.19659">
        <ele>108.3</ele>
        <time>2017-05-14T07:35:59Z</time>
      </trkpt>
      <trkpt lat="49.25326" lon="0.19667">
        <ele>107.6</ele>
        <time>2017-05-14T07:36:00Z</time>
      </trkpt>
      <trkpt lat="49.25326" lon="0.19676">
        <ele>107.2</ele>
        <time>2017-05-14T07:36:01Z</time>
      </trkpt>
      <trkpt lat="49.25325" lon="0.19683">
        <ele>107.1</ele>
        <time>2017-05-14T07:36:02Z</time>
      </trkpt>
      <trkpt lat="49.25325" lon="0.19689">
        <ele>107</ele>
        <time>2017-05-14T07:36:03Z</time>
      </trkpt>
      <trkpt lat="49.25323" lon="0.19698">
        <ele>107.5</ele>
        <time>2017-05-14T07:36:04Z</time>
      </trkpt>
      <trkpt lat="49.25321" lon="0.19706">
        <ele>107.9</ele>
        <time>2017-05-14T07:36:05Z</time>
      </trkpt>
      <trkpt lat="49.25319" lon="0.19714">
        <ele>107.9</ele>
        <time>2017-05-14T07:36:06Z</time>
      </trkpt>
      <trkpt lat="49.25319" lon="0.19722">
        <ele>108</ele>
        <time>2017-05-14T07:36:07Z</time>
      </trkpt>
      <trkpt lat="49.25318" lon="0.19729">
        <ele>108.7</ele>
        <time>2017-05-14T07:36:08Z</time>
      </trkpt>
      <trkpt lat="49.25318" lon="0.19738">
        <ele>108.8</ele>
        <time>2017-05-14T07:36:09Z</time>
      </trkpt>
      <trkpt lat="49.25316" lon="0.19746">
        <ele>108.7</ele>
        <time>2017-05-14T07:36:10Z</time>
      </trkpt>
      <trkpt lat="49.25315" lon="0.19753">
        <ele>109.4</ele>
        <time>2017-05-14T07:36:11Z</time>
      </trkpt>
      <trkpt lat="49.25315" lon="0.19759">
        <ele>109.2</ele>
        <time>2017-05-14T07:36:12Z</time>
      </trkpt>
      <trkpt lat="49.25318" lon="0.19768">
        <ele>108.1</ele>
        <time>2017-05-14T07:36:13Z</time>
      </trkpt>
      <trkpt lat="49.25319" lon="0.19773">
        <ele>107.1</ele>
        <time>2017-05-14T07:36:14Z</time>
      </trkpt>
      <trkpt lat="49.25321" lon="0.19782">
        <ele>106.1</ele>
        <time>2017-05-14T07:36:15Z</time>
      </trkpt>
      <trkpt lat="49.25324" lon="0.19792">
        <ele>105.4</ele>
        <time>2017-05-14T07:36:16Z</time>
      </trkpt>
      <trkpt lat="49.25327" lon="0.19804">
        <ele>105</ele>
        <time>2017-05-14T07:36:17Z</time>
      </trkpt>
      <trkpt lat="49.2533" lon="0.19814">
        <ele>104.4</ele>
        <time>2017-05-14T07:36:18Z</time>
      </trkpt>
      <trkpt lat="49.25332" lon="0.19821">
        <ele>104</ele>
        <time>2017-05-14T07:36:19Z</time>
      </trkpt>
      <trkpt lat="49.25332" lon="0.19826">
        <ele>103.8</ele>
        <time>2017-05-14T07:36:20Z</time>
      </trkpt>
      <trkpt lat="49.2533" lon="0.19833">
        <ele>103.4</ele>
        <time>2017-05-14T07:36:22Z</time>
      </trkpt>
      <trkpt lat="49.25329" lon="0.19841">
        <ele>103.7</ele>
        <time>2017-05-14T07:36:24Z</time>
      </trkpt>
      <trkpt lat="49.25329" lon="0.19845">
        <ele>103.7</ele>
        <time>2017-05-14T07:36:28Z</time>
      </trkpt>
      <trkpt lat="49.25326" lon="0.19848">
        <ele>104.2</ele>
        <time>2017-05-14T07:36:30Z</time>
      </trkpt>
      <trkpt lat="49.25323" lon="0.19847">
        <ele>104.6</ele>
        <time>2017-05-14T07:36:33Z</time>
      </trkpt>
      <trkpt lat="49.25319" lon="0.19845">
        <ele>105.1</ele>
        <time>2017-05-14T07:36:35Z</time>
      </trkpt>
      <trkpt lat="49.25316" lon="0.19842">
        <ele>105.6</ele>
        <time>2017-05-14T07:36:37Z</time>
      </trkpt>
      <trkpt lat="49.25317" lon="0.19838">
        <ele>105.8</ele>
        <time>2017-05-14T07:36:42Z</time>
      </trkpt>
      <trkpt lat="49.25319" lon="0.19833">
        <ele>105.5</ele>
        <time>2017-05-14T07:36:44Z</time>
      </trkpt>
      <trkpt lat="49.25319" lon="0.19828">
        <ele>105.7</ele>
        <time>2017-05-14T07:36:46Z</time>
      </trkpt>
      <trkpt lat="49.25315" lon="0.19826">
        <ele>106.6</ele>
        <time>2017-05-14T07:36:48Z</time>
      </trkpt>
      <trkpt lat="49.25312" lon="0.19825">
        <ele>106.9</ele>
        <time>2017-05-14T07:36:49Z</time>
      </trkpt>
      <trkpt lat="49.25309" lon="0.19821">
        <ele>107.3</ele>
        <time>2017-05-14T07:36:52Z</time>
      </trkpt>
      <trkpt lat="49.25305" lon="0.19822">
        <ele>107.5</ele>
        <time>2017-05-14T07:36:54Z</time>
      </trkpt>
      <trkpt lat="49.25302" lon="0.19824">
        <ele>107.5</ele>
        <time>2017-05-14T07:36:55Z</time>
      </trkpt>
      <trkpt lat="49.25297" lon="0.19824">
        <ele>107.8</ele>
        <time>2017-05-14T07:36:56Z</time>
      </trkpt>
      <trkpt lat="49.25293" lon="0.19824">
        <ele>108.2</ele>
        <time>2017-05-14T07:36:57Z</time>
      </trkpt>
      <trkpt lat="49.25288" lon="0.19826">
        <ele>108.4</ele>
        <time>2017-05-14T07:36:58Z</time>
      </trkpt>
      <trkpt lat="49.25283" lon="0.19828">
        <ele>108.3</ele>
        <time>2017-05-14T07:36:59Z</time>
      </trkpt>
      <trkpt lat="49.25279" lon="0.19829">
        <ele>108.4</ele>
        <time>2017-05-14T07:37:00Z</time>
      </trkpt>
      <trkpt lat="49.25274" lon="0.19829">
        <ele>108.4</ele>
        <time>2017-05-14T07:37:01Z</time>
      </trkpt>
      <trkpt lat="49.2527" lon="0.1983">
        <ele>108.7</ele>
        <time>2017-05-14T07:37:02Z</time>
      </trkpt>
      <trkpt lat="49.25266" lon="0.19833">
        <ele>108.7</ele>
        <time>2017-05-14T07:37:04Z</time>
      </trkpt>
      <trkpt lat="49.25263" lon="0.19835">
        <ele>109</ele>
        <time>2017-05-14T07:37:05Z</time>
      </trkpt>
      <trkpt lat="49.25261" lon="0.19836">
        <ele>109.2</ele>
        <time>2017-05-14T07:37:06Z</time>
      </trkpt>
      <trkpt lat="49.25256" lon="0.19837">
        <ele>109.8</ele>
        <time>2017-05-14T07:37:07Z</time>
      </trkpt>
      <trkpt lat="49.25251" lon="0.19838">
        <ele>110</ele>
        <time>2017-05-14T07:37:08Z</time>
      </trkpt>
      <trkpt lat="49.25247" lon="0.1984">
        <ele>110.5</ele>
        <time>2017-05-14T07:37:09Z</time>
      </trkpt>
      <trkpt lat="49.25243" lon="0.19841">
        <ele>111.1</ele>
        <time>2017-05-14T07:37:10Z</time>
      </trkpt>
      <trkpt lat="49.25239" lon="0.19842">
        <ele>111.4</ele>
        <time>2017-05-14T07:37:11Z</time>
      </trkpt>
      <trkpt lat="49.25235" lon="0.19844">
        <ele>111.7</ele>
        <time>2017-05-14T07:37:12Z</time>
      </trkpt>
      <trkpt lat="49.25232" lon="0.19845">
        <ele>112</ele>
        <time>2017-05-14T07:37:13Z</time>
      </trkpt>
      <trkpt lat="49.25227" lon="0.19846">
        <ele>112.7</ele>
        <time>2017-05-14T07:37:15Z</time>
      </trkpt>
      <trkpt lat="49.25224" lon="0.19849">
        <ele>113.1</ele>
        <time>2017-05-14T07:37:16Z</time>
      </trkpt>
      <trkpt lat="49.25219" lon="0.19852">
        <ele>113.8</ele>
        <time>2017-05-14T07:37:17Z</time>
      </trkpt>
      <trkpt lat="49.25215" lon="0.19854">
        <ele>114.6</ele>
        <time>2017-05-14T07:37:18Z</time>
      </trkpt>
      <trkpt lat="49.25211" lon="0.19856">
        <ele>115</ele>
        <time>2017-05-14T07:37:19Z</time>
      </trkpt>
      <trkpt lat="49.25208" lon="0.19857">
        <ele>115.3</ele>
        <time>2017-05-14T07:37:21Z</time>
      </trkpt>
      <trkpt lat="49.25205" lon="0.19856">
        <ele>115.7</ele>
        <time>2017-05-14T07:37:26Z</time>
      </trkpt>
      <trkpt lat="49.25203" lon="0.19854">
        <ele>116</ele>
        <time>2017-05-14T07:37:30Z</time>
      </trkpt>
      <trkpt lat="49.25198" lon="0.19851">
        <ele>116.5</ele>
        <time>2017-05-14T07:37:32Z</time>
      </trkpt>
      <trkpt lat="49.25196" lon="0.19847">
        <ele>116.5</ele>
        <time>2017-05-14T07:37:33Z</time>
      </trkpt>
      <trkpt lat="49.25172" lon="0.19862">
        <ele>115.5</ele>
        <time>2017-05-14T07:37:35Z</time>
      </trkpt>
      <trkpt lat="49.25163" lon="0.19864">
        <ele>115</ele>
        <time>2017-05-14T07:37:36Z</time>
      </trkpt>
      <trkpt lat="49.25155" lon="0.19864">
        <ele>114.7</ele>
        <time>2017-05-14T07:37:37Z</time>
      </trkpt>
      <trkpt lat="49.25148" lon="0.19863">
        <ele>114.6</ele>
        <time>2017-05-14T07:37:38Z</time>
      </trkpt>
      <trkpt lat="49.25142" lon="0.19865">
        <ele>114.4</ele>
        <time>2017-05-14T07:37:39Z</time>
      </trkpt>
      <trkpt lat="49.25136" lon="0.19865">
        <ele>114.1</ele>
        <time>2017-05-14T07:37:40Z</time>
      </trkpt>
      <trkpt lat="49.2513" lon="0.19864">
        <ele>113.9</ele>
        <time>2017-05-14T07:37:41Z</time>
      </trkpt>
      <trkpt lat="49.25127" lon="0.19864">
        <ele>113.8</ele>
        <time>2017-05-14T07:37:42Z</time>
      </trkpt>
      <trkpt lat="49.25124" lon="0.19865">
        <ele>113.7</ele>
        <time>2017-05-14T07:37:43Z</time>
      </trkpt>
      <trkpt lat="49.25119" lon="0.19866">
        <ele>113.3</ele>
        <time>2017-05-14T07:37:44Z</time>
      </trkpt>
      <trkpt lat="49.25116" lon="0.19867">
        <ele>113.2</ele>
        <time>2017-05-14T07:37:45Z</time>
      </trkpt>
      <trkpt lat="49.25109" lon="0.19868">
        <ele>113.3</ele>
        <time>2017-05-14T07:37:46Z</time>
      </trkpt>
      <trkpt lat="49.25103" lon="0.1987">
        <ele>113.4</ele>
        <time>2017-05-14T07:37:47Z</time>
      </trkpt>
      <trkpt lat="49.25097" lon="0.19872">
        <ele>113.7</ele>
        <time>2017-05-14T07:37:48Z</time>
      </trkpt>
      <trkpt lat="49.2509" lon="0.19875">
        <ele>114</ele>
        <time>2017-05-14T07:37:49Z</time>
      </trkpt>
      <trkpt lat="49.25083" lon="0.19877">
        <ele>114.2</ele>
        <time>2017-05-14T07:37:50Z</time>
      </trkpt>
      <trkpt lat="49.25075" lon="0.1988">
        <ele>114.4</ele>
        <time>2017-05-14T07:37:51Z</time>
      </trkpt>
      <trkpt lat="49.25068" lon="0.19883">
        <ele>114.5</ele>
        <time>2017-05-14T07:37:52Z</time>
      </trkpt>
      <trkpt lat="49.25062" lon="0.19886">
        <ele>114.4</ele>
        <time>2017-05-14T07:37:53Z</time>
      </trkpt>
      <trkpt lat="49.25059" lon="0.19887">
        <ele>114.6</ele>
        <time>2017-05-14T07:37:54Z</time>
      </trkpt>
      <trkpt lat="49.25056" lon="0.19888">
        <ele>114.6</ele>
        <time>2017-05-14T07:37:55Z</time>
      </trkpt>
      <trkpt lat="49.25049" lon="0.1989">
        <ele>114.7</ele>
        <time>2017-05-14T07:37:56Z</time>
      </trkpt>
      <trkpt lat="49.25043" lon="0.19891">
        <ele>115.1</ele>
        <time>2017-05-14T07:37:57Z</time>
      </trkpt>
      <trkpt lat="49.2504" lon="0.19891">
        <ele>115.3</ele>
        <time>2017-05-14T07:37:58Z</time>
      </trkpt>
      <trkpt lat="49.25034" lon="0.19891">
        <ele>115.3</ele>
        <time>2017-05-14T07:38:00Z</time>
      </trkpt>
      <trkpt lat="49.25031" lon="0.19891">
        <ele>115.5</ele>
        <time>2017-05-14T07:38:01Z</time>
      </trkpt>
      <trkpt lat="49.25026" lon="0.1989">
        <ele>115.7</ele>
        <time>2017-05-14T07:38:02Z</time>
      </trkpt>
      <trkpt lat="49.25022" lon="0.19888">
        <ele>115.8</ele>
        <time>2017-05-14T07:38:03Z</time>
      </trkpt>
      <trkpt lat="49.25018" lon="0.19887">
        <ele>116</ele>
        <time>2017-05-14T07:38:04Z</time>
      </trkpt>
      <trkpt lat="49.25015" lon="0.19885">
        <ele>115.8</ele>
        <time>2017-05-14T07:38:05Z</time>
      </trkpt>
      <trkpt lat="49.25013" lon="0.19883">
        <ele>115.9</ele>
        <time>2017-05-14T07:38:06Z</time>
      </trkpt>
      <trkpt lat="49.25004" lon="0.19875">
        <ele>115.6</ele>
        <time>2017-05-14T07:38:11Z</time>
      </trkpt>
      <trkpt lat="49.24996" lon="0.19872">
        <ele>115.5</ele>
        <time>2017-05-14T07:38:12Z</time>
      </trkpt>
      <trkpt lat="49.24992" lon="0.19869">
        <ele>115.2</ele>
        <time>2017-05-14T07:38:13Z</time>
      </trkpt>
      <trkpt lat="49.24988" lon="0.19867">
        <ele>115.2</ele>
        <time>2017-05-14T07:38:15Z</time>
      </trkpt>
      <trkpt lat="49.24984" lon="0.19864">
        <ele>114.8</ele>
        <time>2017-05-14T07:38:18Z</time>
      </trkpt>
      <trkpt lat="49.24982" lon="0.19859">
        <ele>114.5</ele>
        <time>2017-05-14T07:38:19Z</time>
      </trkpt>
      <trkpt lat="49.24977" lon="0.19846">
        <ele>113.8</ele>
        <time>2017-05-14T07:38:20Z</time>
      </trkpt>
      <trkpt lat="49.2497" lon="0.19833">
        <ele>113.8</ele>
        <time>2017-05-14T07:38:21Z</time>
      </trkpt>
      <trkpt lat="49.24962" lon="0.19824">
        <ele>113.9</ele>
        <time>2017-05-14T07:38:22Z</time>
      </trkpt>
      <trkpt lat="49.24957" lon="0.19818">
        <ele>113.8</ele>
        <time>2017-05-14T07:38:23Z</time>
      </trkpt>
      <trkpt lat="49.24953" lon="0.19814">
        <ele>113.7</ele>
        <time>2017-05-14T07:38:24Z</time>
      </trkpt>
      <trkpt lat="49.24948" lon="0.1981">
        <ele>113.7</ele>
        <time>2017-05-14T07:38:25Z</time>
      </trkpt>
      <trkpt lat="49.24943" lon="0.19806">
        <ele>113.9</ele>
        <time>2017-05-14T07:38:26Z</time>
      </trkpt>
      <trkpt lat="49.24939" lon="0.19803">
        <ele>113.9</ele>
        <time>2017-05-14T07:38:27Z</time>
      </trkpt>
      <trkpt lat="49.24933" lon="0.19801">
        <ele>113.9</ele>
        <time>2017-05-14T07:38:28Z</time>
      </trkpt>
      <trkpt lat="49.24928" lon="0.19798">
        <ele>113.9</ele>
        <time>2017-05-14T07:38:29Z</time>
      </trkpt>
      <trkpt lat="49.24924" lon="0.19796">
        <ele>113.9</ele>
        <time>2017-05-14T07:38:30Z</time>
      </trkpt>
      <trkpt lat="49.24919" lon="0.19794">
        <ele>113.7</ele>
        <time>2017-05-14T07:38:31Z</time>
      </trkpt>
      <trkpt lat="49.24912" lon="0.19795">
        <ele>113.3</ele>
        <time>2017-05-14T07:38:32Z</time>
      </trkpt>
      <trkpt lat="49.24907" lon="0.19795">
        <ele>113.2</ele>
        <time>2017-05-14T07:38:33Z</time>
      </trkpt>
      <trkpt lat="49.24904" lon="0.19792">
        <ele>113</ele>
        <time>2017-05-14T07:38:34Z</time>
      </trkpt>
      <trkpt lat="49.24899" lon="0.1979">
        <ele>112.6</ele>
        <time>2017-05-14T07:38:36Z</time>
      </trkpt>
      <trkpt lat="49.24896" lon="0.19789">
        <ele>112.4</ele>
        <time>2017-05-14T07:38:37Z</time>
      </trkpt>
      <trkpt lat="49.24891" lon="0.19789">
        <ele>112.1</ele>
        <time>2017-05-14T07:38:38Z</time>
      </trkpt>
      <trkpt lat="49.24885" lon="0.19787">
        <ele>112.1</ele>
        <time>2017-05-14T07:38:39Z</time>
      </trkpt>
      <trkpt lat="49.24881" lon="0.19786">
        <ele>112</ele>
        <time>2017-05-14T07:38:40Z</time>
      </trkpt>
      <trkpt lat="49.24875" lon="0.19784">
        <ele>112.4</ele>
        <time>2017-05-14T07:38:41Z</time>
      </trkpt>
      <trkpt lat="49.24872" lon="0.19783">
        <ele>112.4</ele>
        <time>2017-05-14T07:38:42Z</time>
      </trkpt>
      <trkpt lat="49.24866" lon="0.19781">
        <ele>112.5</ele>
        <time>2017-05-14T07:38:43Z</time>
      </trkpt>
      <trkpt lat="49.24861" lon="0.19778">
        <ele>112.9</ele>
        <time>2017-05-14T07:38:44Z</time>
      </trkpt>
      <trkpt lat="49.24855" lon="0.19777">
        <ele>113</ele>
        <time>2017-05-14T07:38:45Z</time>
      </trkpt>
      <trkpt lat="49.24852" lon="0.19776">
        <ele>113.1</ele>
        <time>2017-05-14T07:38:46Z</time>
      </trkpt>
      <trkpt lat="49.24848" lon="0.19774">
        <ele>113.4</ele>
        <time>2017-05-14T07:38:47Z</time>
      </trkpt>
      <trkpt lat="49.24843" lon="0.19772">
        <ele>113.4</ele>
        <time>2017-05-14T07:38:48Z</time>
      </trkpt>
      <trkpt lat="49.24838" lon="0.19771">
        <ele>113.7</ele>
        <time>2017-05-14T07:38:49Z</time>
      </trkpt>
      <trkpt lat="49.24834" lon="0.19768">
        <ele>113.7</ele>
        <time>2017-05-14T07:38:50Z</time>
      </trkpt>
      <trkpt lat="49.2483" lon="0.19765">
        <ele>113.8</ele>
        <time>2017-05-14T07:38:51Z</time>
      </trkpt>
      <trkpt lat="49.24827" lon="0.19762">
        <ele>114.1</ele>
        <time>2017-05-14T07:38:52Z</time>
      </trkpt>
      <trkpt lat="49.24824" lon="0.19759">
        <ele>114</ele>
        <time>2017-05-14T07:38:54Z</time>
      </trkpt>
      <trkpt lat="49.2482" lon="0.19754">
        <ele>114.2</ele>
        <time>2017-05-14T07:38:56Z</time>
      </trkpt>
      <trkpt lat="49.24817" lon="0.19752">
        <ele>114.2</ele>
        <time>2017-05-14T07:38:58Z</time>
      </trkpt>
      <trkpt lat="49.2481" lon="0.19751">
        <ele>114</ele>
        <time>2017-05-14T07:39:00Z</time>
      </trkpt>
      <trkpt lat="49.248" lon="0.19751">
        <ele>114</ele>
        <time>2017-05-14T07:39:02Z</time>
      </trkpt>
      <trkpt lat="49.24794" lon="0.19754">
        <ele>114.3</ele>
        <time>2017-05-14T07:39:03Z</time>
      </trkpt>
      <trkpt lat="49.24789" lon="0.19758">
        <ele>114.5</ele>
        <time>2017-05-14T07:39:04Z</time>
      </trkpt>
      <trkpt lat="49.24784" lon="0.1976">
        <ele>114.8</ele>
        <time>2017-05-14T07:39:05Z</time>
      </trkpt>
      <trkpt lat="49.24781" lon="0.19761">
        <ele>115.1</ele>
        <time>2017-05-14T07:39:06Z</time>
      </trkpt>
      <trkpt lat="49.24776" lon="0.19761">
        <ele>115.7</ele>
        <time>2017-05-14T07:39:07Z</time>
      </trkpt>
      <trkpt lat="49.24772" lon="0.19761">
        <ele>116.2</ele>
        <time>2017-05-14T07:39:08Z</time>
      </trkpt>
      <trkpt lat="49.24767" lon="0.19761">
        <ele>116.5</ele>
        <time>2017-05-14T07:39:09Z</time>
      </trkpt>
      <trkpt lat="49.24765" lon="0.19759">
        <ele>116.8</ele>
        <time>2017-05-14T07:39:13Z</time>
      </trkpt>
      <trkpt lat="49.24765" lon="0.19743">
        <ele>117.5</ele>
        <time>2017-05-14T07:39:15Z</time>
      </trkpt>
      <trkpt lat="49.24749" lon="0.19749">
        <ele>118.1</ele>
        <time>2017-05-14T07:39:18Z</time>
      </trkpt>
      <trkpt lat="49.24735" lon="0.19758">
        <ele>118.1</ele>
        <time>2017-05-14T07:39:20Z</time>
      </trkpt>
      <trkpt lat="49.24727" lon="0.19764">
        <ele>118.3</ele>
        <time>2017-05-14T07:39:21Z</time>
      </trkpt>
      <trkpt lat="49.24722" lon="0.19767">
        <ele>118.7</ele>
        <time>2017-05-14T07:39:22Z</time>
      </trkpt>
      <trkpt lat="49.24718" lon="0.19764">
        <ele>118.7</ele>
        <time>2017-05-14T07:39:23Z</time>
      </trkpt>
      <trkpt lat="49.24715" lon="0.19762">
        <ele>118.7</ele>
        <time>2017-05-14T07:39:27Z</time>
      </trkpt>
      <trkpt lat="49.24712" lon="0.19759">
        <ele>118.9</ele>
        <time>2017-05-14T07:39:29Z</time>
      </trkpt>
      <trkpt lat="49.24709" lon="0.19755">
        <ele>119.1</ele>
        <time>2017-05-14T07:39:31Z</time>
      </trkpt>
      <trkpt lat="49.24705" lon="0.19751">
        <ele>119.3</ele>
        <time>2017-05-14T07:39:33Z</time>
      </trkpt>
      <trkpt lat="49.24702" lon="0.19748">
        <ele>119.4</ele>
        <time>2017-05-14T07:39:35Z</time>
      </trkpt>
      <trkpt lat="49.247" lon="0.19745">
        <ele>119.6</ele>
        <time>2017-05-14T07:39:38Z</time>
      </trkpt>
      <trkpt lat="49.24696" lon="0.19741">
        <ele>119.8</ele>
        <time>2017-05-14T07:39:39Z</time>
      </trkpt>
      <trkpt lat="49.2469" lon="0.19734">
        <ele>119.8</ele>
        <time>2017-05-14T07:39:41Z</time>
      </trkpt>
      <trkpt lat="49.24686" lon="0.1973">
        <ele>119.8</ele>
        <time>2017-05-14T07:39:42Z</time>
      </trkpt>
      <trkpt lat="49.2468" lon="0.19725">
        <ele>120</ele>
        <time>2017-05-14T07:39:43Z</time>
      </trkpt>
      <trkpt lat="49.24677" lon="0.19722">
        <ele>120.2</ele>
        <time>2017-05-14T07:39:44Z</time>
      </trkpt>
      <trkpt lat="49.24675" lon="0.19719">
        <ele>120.5</ele>
        <time>2017-05-14T07:39:45Z</time>
      </trkpt>
      <trkpt lat="49.24671" lon="0.19714">
        <ele>121.1</ele>
        <time>2017-05-14T07:39:47Z</time>
      </trkpt>
      <trkpt lat="49.24668" lon="0.1971">
        <ele>121.6</ele>
        <time>2017-05-14T07:39:48Z</time>
      </trkpt>
      <trkpt lat="49.24666" lon="0.19707">
        <ele>121.6</ele>
        <time>2017-05-14T07:39:49Z</time>
      </trkpt>
      <trkpt lat="49.24664" lon="0.19705">
        <ele>122.1</ele>
        <time>2017-05-14T07:39:50Z</time>
      </trkpt>
      <trkpt lat="49.24662" lon="0.19702">
        <ele>122.6</ele>
        <time>2017-05-14T07:39:51Z</time>
      </trkpt>
      <trkpt lat="49.24659" lon="0.19696">
        <ele>123.1</ele>
        <time>2017-05-14T07:39:53Z</time>
      </trkpt>
      <trkpt lat="49.24655" lon="0.19688">
        <ele>123.8</ele>
        <time>2017-05-14T07:39:55Z</time>
      </trkpt>
      <trkpt lat="49.24653" lon="0.19685">
        <ele>124.2</ele>
        <time>2017-05-14T07:39:56Z</time>
      </trkpt>
      <trkpt lat="49.24651" lon="0.19682">
        <ele>124.5</ele>
        <time>2017-05-14T07:39:57Z</time>
      </trkpt>
      <trkpt lat="49.24649" lon="0.19679">
        <ele>124.8</ele>
        <time>2017-05-14T07:40:01Z</time>
      </trkpt>
      <trkpt lat="49.24647" lon="0.19675">
        <ele>124.8</ele>
        <time>2017-05-14T07:40:02Z</time>
      </trkpt>
      <trkpt lat="49.24643" lon="0.1967">
        <ele>125.2</ele>
        <time>2017-05-14T07:40:04Z</time>
      </trkpt>
      <trkpt lat="49.24641" lon="0.19666">
        <ele>125.1</ele>
        <time>2017-05-14T07:40:05Z</time>
      </trkpt>
      <trkpt lat="49.24639" lon="0.19664">
        <ele>125.3</ele>
        <time>2017-05-14T07:40:06Z</time>
      </trkpt>
      <trkpt lat="49.24637" lon="0.1966">
        <ele>125.5</ele>
        <time>2017-05-14T07:40:07Z</time>
      </trkpt>
      <trkpt lat="49.24635" lon="0.19657">
        <ele>125.5</ele>
        <time>2017-05-14T07:40:08Z</time>
      </trkpt>
      <trkpt lat="49.24631" lon="0.19652">
        <ele>125.9</ele>
        <time>2017-05-14T07:40:10Z</time>
      </trkpt>
      <trkpt lat="49.24627" lon="0.19649">
        <ele>126.2</ele>
        <time>2017-05-14T07:40:11Z</time>
      </trkpt>
      <trkpt lat="49.24623" lon="0.19646">
        <ele>126.7</ele>
        <time>2017-05-14T07:40:12Z</time>
      </trkpt>
      <trkpt lat="49.2462" lon="0.19644">
        <ele>126.9</ele>
        <time>2017-05-14T07:40:13Z</time>
      </trkpt>
      <trkpt lat="49.24617" lon="0.19643">
        <ele>127.1</ele>
        <time>2017-05-14T07:40:15Z</time>
      </trkpt>
      <trkpt lat="49.24612" lon="0.1964">
        <ele>127.4</ele>
        <time>2017-05-14T07:40:16Z</time>
      </trkpt>
      <trkpt lat="49.24606" lon="0.19637">
        <ele>127.7</ele>
        <time>2017-05-14T07:40:17Z</time>
      </trkpt>
      <trkpt lat="49.24602" lon="0.19634">
        <ele>127.9</ele>
        <time>2017-05-14T07:40:18Z</time>
      </trkpt>
      <trkpt lat="49.24599" lon="0.1963">
        <ele>128.1</ele>
        <time>2017-05-14T07:40:19Z</time>
      </trkpt>
      <trkpt lat="49.24594" lon="0.19628">
        <ele>128.3</ele>
        <time>2017-05-14T07:40:22Z</time>
      </trkpt>
      <trkpt lat="49.2459" lon="0.19625">
        <ele>128.5</ele>
        <time>2017-05-14T07:40:23Z</time>
      </trkpt>
      <trkpt lat="49.24586" lon="0.19619">
        <ele>128.6</ele>
        <time>2017-05-14T07:40:24Z</time>
      </trkpt>
      <trkpt lat="49.24581" lon="0.19614">
        <ele>128.6</ele>
        <time>2017-05-14T07:40:25Z</time>
      </trkpt>
      <trkpt lat="49.24578" lon="0.1961">
        <ele>128.4</ele>
        <time>2017-05-14T07:40:26Z</time>
      </trkpt>
      <trkpt lat="49.24575" lon="0.19607">
        <ele>128.2</ele>
        <time>2017-05-14T07:40:27Z</time>
      </trkpt>
      <trkpt lat="49.24572" lon="0.19605">
        <ele>128.2</ele>
        <time>2017-05-14T07:40:28Z</time>
      </trkpt>
      <trkpt lat="49.24568" lon="0.19599">
        <ele>127.5</ele>
        <time>2017-05-14T07:40:30Z</time>
      </trkpt>
      <trkpt lat="49.24565" lon="0.19596">
        <ele>127.6</ele>
        <time>2017-05-14T07:40:31Z</time>
      </trkpt>
      <trkpt lat="49.24562" lon="0.19593">
        <ele>127.4</ele>
        <time>2017-05-14T07:40:32Z</time>
      </trkpt>
      <trkpt lat="49.2456" lon="0.1959">
        <ele>127.3</ele>
        <time>2017-05-14T07:40:33Z</time>
      </trkpt>
      <trkpt lat="49.24557" lon="0.19587">
        <ele>127.5</ele>
        <time>2017-05-14T07:40:34Z</time>
      </trkpt>
      <trkpt lat="49.24553" lon="0.19582">
        <ele>127.8</ele>
        <time>2017-05-14T07:40:36Z</time>
      </trkpt>
      <trkpt lat="49.24548" lon="0.19577">
        <ele>128.1</ele>
        <time>2017-05-14T07:40:38Z</time>
      </trkpt>
      <trkpt lat="49.24545" lon="0.19576">
        <ele>128.6</ele>
        <time>2017-05-14T07:40:39Z</time>
      </trkpt>
      <trkpt lat="49.24541" lon="0.19575">
        <ele>128.8</ele>
        <time>2017-05-14T07:40:41Z</time>
      </trkpt>
      <trkpt lat="49.24538" lon="0.19573">
        <ele>129.1</ele>
        <time>2017-05-14T07:40:42Z</time>
      </trkpt>
      <trkpt lat="49.24535" lon="0.19573">
        <ele>129.3</ele>
        <time>2017-05-14T07:40:43Z</time>
      </trkpt>
      <trkpt lat="49.2453" lon="0.1957">
        <ele>129.6</ele>
        <time>2017-05-14T07:40:45Z</time>
      </trkpt>
      <trkpt lat="49.24527" lon="0.19568">
        <ele>129.7</ele>
        <time>2017-05-14T07:40:46Z</time>
      </trkpt>
      <trkpt lat="49.24524" lon="0.19565">
        <ele>129.8</ele>
        <time>2017-05-14T07:40:47Z</time>
      </trkpt>
      <trkpt lat="49.24519" lon="0.19561">
        <ele>129.8</ele>
        <time>2017-05-14T07:40:49Z</time>
      </trkpt>
      <trkpt lat="49.24516" lon="0.19559">
        <ele>129.8</ele>
        <time>2017-05-14T07:40:50Z</time>
      </trkpt>
      <trkpt lat="49.24513" lon="0.19554">
        <ele>129.9</ele>
        <time>2017-05-14T07:40:52Z</time>
      </trkpt>
      <trkpt lat="49.24511" lon="0.1955">
        <ele>129.9</ele>
        <time>2017-05-14T07:40:54Z</time>
      </trkpt>
      <trkpt lat="49.24508" lon="0.19548">
        <ele>130</ele>
        <time>2017-05-14T07:40:55Z</time>
      </trkpt>
      <trkpt lat="49.24502" lon="0.19545">
        <ele>129.9</ele>
        <time>2017-05-14T07:40:57Z</time>
      </trkpt>
      <trkpt lat="49.24499" lon="0.19542">
        <ele>129.9</ele>
        <time>2017-05-14T07:40:58Z</time>
      </trkpt>
      <trkpt lat="49.24492" lon="0.19538">
        <ele>129.5</ele>
        <time>2017-05-14T07:41:00Z</time>
      </trkpt>
      <trkpt lat="49.24487" lon="0.19537">
        <ele>129.4</ele>
        <time>2017-05-14T07:41:01Z</time>
      </trkpt>
      <trkpt lat="49.24482" lon="0.19535">
        <ele>129</ele>
        <time>2017-05-14T07:41:02Z</time>
      </trkpt>
      <trkpt lat="49.24478" lon="0.19532">
        <ele>128.9</ele>
        <time>2017-05-14T07:41:03Z</time>
      </trkpt>
      <trkpt lat="49.24475" lon="0.19531">
        <ele>128.8</ele>
        <time>2017-05-14T07:41:04Z</time>
      </trkpt>
      <trkpt lat="49.24469" lon="0.19528">
        <ele>128.8</ele>
        <time>2017-05-14T07:41:06Z</time>
      </trkpt>
      <trkpt lat="49.24465" lon="0.19526">
        <ele>128.9</ele>
        <time>2017-05-14T07:41:08Z</time>
      </trkpt>
      <trkpt lat="49.24462" lon="0.19524">
        <ele>129.1</ele>
        <time>2017-05-14T07:41:10Z</time>
      </trkpt>
      <trkpt lat="49.24459" lon="0.19523">
        <ele>129.3</ele>
        <time>2017-05-14T07:41:12Z</time>
      </trkpt>
      <trkpt lat="49.24454" lon="0.1952">
        <ele>129.7</ele>
        <time>2017-05-14T07:41:14Z</time>
      </trkpt>
      <trkpt lat="49.24452" lon="0.19518">
        <ele>130</ele>
        <time>2017-05-14T07:41:15Z</time>
      </trkpt>
      <trkpt lat="49.24446" lon="0.19514">
        <ele>130.2</ele>
        <time>2017-05-14T07:41:17Z</time>
      </trkpt>
      <trkpt lat="49.24438" lon="0.19515">
        <ele>130.9</ele>
        <time>2017-05-14T07:41:18Z</time>
      </trkpt>
      <trkpt lat="49.24432" lon="0.19515">
        <ele>131.3</ele>
        <time>2017-05-14T07:41:19Z</time>
      </trkpt>
      <trkpt lat="49.24428" lon="0.19516">
        <ele>131.6</ele>
        <time>2017-05-14T07:41:20Z</time>
      </trkpt>
      <trkpt lat="49.24423" lon="0.19518">
        <ele>131.8</ele>
        <time>2017-05-14T07:41:22Z</time>
      </trkpt>
      <trkpt lat="49.24421" lon="0.19519">
        <ele>131.9</ele>
        <time>2017-05-14T07:41:23Z</time>
      </trkpt>
      <trkpt lat="49.24418" lon="0.1952">
        <ele>132</ele>
        <time>2017-05-14T07:41:24Z</time>
      </trkpt>
      <trkpt lat="49.24415" lon="0.19522">
        <ele>132</ele>
        <time>2017-05-14T07:41:25Z</time>
      </trkpt>
      <trkpt lat="49.24411" lon="0.19525">
        <ele>132</ele>
        <time>2017-05-14T07:41:27Z</time>
      </trkpt>
      <trkpt lat="49.24407" lon="0.19526">
        <ele>132</ele>
        <time>2017-05-14T07:41:28Z</time>
      </trkpt>
      <trkpt lat="49.24405" lon="0.19525">
        <ele>132</ele>
        <time>2017-05-14T07:41:29Z</time>
      </trkpt>
      <trkpt lat="49.24398" lon="0.19522">
        <ele>132.1</ele>
        <time>2017-05-14T07:41:38Z</time>
      </trkpt>
      <trkpt lat="49.24376" lon="0.19536">
        <ele>132.2</ele>
        <time>2017-05-14T07:41:44Z</time>
      </trkpt>
      <trkpt lat="49.24368" lon="0.19541">
        <ele>132.4</ele>
        <time>2017-05-14T07:41:45Z</time>
      </trkpt>
      <trkpt lat="49.24361" lon="0.19544">
        <ele>132.5</ele>
        <time>2017-05-14T07:41:46Z</time>
      </trkpt>
      <trkpt lat="49.24353" lon="0.19547">
        <ele>132.4</ele>
        <time>2017-05-14T07:41:47Z</time>
      </trkpt>
      <trkpt lat="49.24346" lon="0.19549">
        <ele>132.1</ele>
        <time>2017-05-14T07:41:48Z</time>
      </trkpt>
      <trkpt lat="49.2434" lon="0.19552">
        <ele>132.1</ele>
        <time>2017-05-14T07:41:49Z</time>
      </trkpt>
      <trkpt lat="49.24335" lon="0.19554">
        <ele>132</ele>
        <time>2017-05-14T07:41:50Z</time>
      </trkpt>
      <trkpt lat="49.24329" lon="0.19555">
        <ele>132</ele>
        <time>2017-05-14T07:41:52Z</time>
      </trkpt>
      <trkpt lat="49.24325" lon="0.19554">
        <ele>132</ele>
        <time>2017-05-14T07:41:53Z</time>
      </trkpt>
      <trkpt lat="49.24321" lon="0.19552">
        <ele>132.2</ele>
        <time>2017-05-14T07:41:54Z</time>
      </trkpt>
      <trkpt lat="49.24311" lon="0.19541">
        <ele>132.2</ele>
        <time>2017-05-14T07:41:56Z</time>
      </trkpt>
      <trkpt lat="49.24305" lon="0.19535">
        <ele>132.2</ele>
        <time>2017-05-14T07:41:57Z</time>
      </trkpt>
      <trkpt lat="49.24302" lon="0.19533">
        <ele>132.1</ele>
        <time>2017-05-14T07:41:58Z</time>
      </trkpt>
      <trkpt lat="49.24298" lon="0.19533">
        <ele>132.1</ele>
        <time>2017-05-14T07:42:00Z</time>
      </trkpt>
      <trkpt lat="49.24294" lon="0.19534">
        <ele>132.1</ele>
        <time>2017-05-14T07:42:01Z</time>
      </trkpt>
      <trkpt lat="49.2429" lon="0.19534">
        <ele>132</ele>
        <time>2017-05-14T07:42:02Z</time>
      </trkpt>
      <trkpt lat="49.24286" lon="0.19535">
        <ele>132</ele>
        <time>2017-05-14T07:42:03Z</time>
      </trkpt>
      <trkpt lat="49.24282" lon="0.19534">
        <ele>131.9</ele>
        <time>2017-05-14T07:42:04Z</time>
      </trkpt>
      <trkpt lat="49.24279" lon="0.19534">
        <ele>131.9</ele>
        <time>2017-05-14T07:42:05Z</time>
      </trkpt>
      <trkpt lat="49.24275" lon="0.19534">
        <ele>131.9</ele>
        <time>2017-05-14T07:42:06Z</time>
      </trkpt>
      <trkpt lat="49.24272" lon="0.19534">
        <ele>131.8</ele>
        <time>2017-05-14T07:42:07Z</time>
      </trkpt>
      <trkpt lat="49.24267" lon="0.19535">
        <ele>131.5</ele>
        <time>2017-05-14T07:42:08Z</time>
      </trkpt>
      <trkpt lat="49.24262" lon="0.19537">
        <ele>131.3</ele>
        <time>2017-05-14T07:42:09Z</time>
      </trkpt>
      <trkpt lat="49.24257" lon="0.19539">
        <ele>131.2</ele>
        <time>2017-05-14T07:42:11Z</time>
      </trkpt>
      <trkpt lat="49.24254" lon="0.19539">
        <ele>131.1</ele>
        <time>2017-05-14T07:42:12Z</time>
      </trkpt>
      <trkpt lat="49.24251" lon="0.1954">
        <ele>131</ele>
        <time>2017-05-14T07:42:13Z</time>
      </trkpt>
      <trkpt lat="49.24248" lon="0.1954">
        <ele>131</ele>
        <time>2017-05-14T07:42:14Z</time>
      </trkpt>
      <trkpt lat="49.24245" lon="0.19541">
        <ele>131.1</ele>
        <time>2017-05-14T07:42:15Z</time>
      </trkpt>
      <trkpt lat="49.2424" lon="0.19543">
        <ele>131.2</ele>
        <time>2017-05-14T07:42:16Z</time>
      </trkpt>
      <trkpt lat="49.24234" lon="0.19543">
        <ele>131.3</ele>
        <time>2017-05-14T07:42:17Z</time>
      </trkpt>
      <trkpt lat="49.24229" lon="0.19544">
        <ele>131.6</ele>
        <time>2017-05-14T07:42:18Z</time>
      </trkpt>
      <trkpt lat="49.24222" lon="0.19543">
        <ele>131.7</ele>
        <time>2017-05-14T07:42:19Z</time>
      </trkpt>
      <trkpt lat="49.24216" lon="0.19543">
        <ele>131.9</ele>
        <time>2017-05-14T07:42:20Z</time>
      </trkpt>
      <trkpt lat="49.24211" lon="0.19541">
        <ele>132.1</ele>
        <time>2017-05-14T07:42:21Z</time>
      </trkpt>
      <trkpt lat="49.24207" lon="0.19539">
        <ele>132</ele>
        <time>2017-05-14T07:42:22Z</time>
      </trkpt>
      <trkpt lat="49.24201" lon="0.19538">
        <ele>132.2</ele>
        <time>2017-05-14T07:42:23Z</time>
      </trkpt>
      <trkpt lat="49.24198" lon="0.19536">
        <ele>132.3</ele>
        <time>2017-05-14T07:42:24Z</time>
      </trkpt>
      <trkpt lat="49.24192" lon="0.19532">
        <ele>132.3</ele>
        <time>2017-05-14T07:42:25Z</time>
      </trkpt>
      <trkpt lat="49.24188" lon="0.19529">
        <ele>132.3</ele>
        <time>2017-05-14T07:42:26Z</time>
      </trkpt>
      <trkpt lat="49.24182" lon="0.19526">
        <ele>132.1</ele>
        <time>2017-05-14T07:42:27Z</time>
      </trkpt>
      <trkpt lat="49.24176" lon="0.19523">
        <ele>131.8</ele>
        <time>2017-05-14T07:42:28Z</time>
      </trkpt>
      <trkpt lat="49.24169" lon="0.19523">
        <ele>131.3</ele>
        <time>2017-05-14T07:42:29Z</time>
      </trkpt>
      <trkpt lat="49.24165" lon="0.19525">
        <ele>131.1</ele>
        <time>2017-05-14T07:42:30Z</time>
      </trkpt>
      <trkpt lat="49.24159" lon="0.19527">
        <ele>130.7</ele>
        <time>2017-05-14T07:42:31Z</time>
      </trkpt>
      <trkpt lat="49.24152" lon="0.19528">
        <ele>129.8</ele>
        <time>2017-05-14T07:42:32Z</time>
      </trkpt>
      <trkpt lat="49.24145" lon="0.1953">
        <ele>129.2</ele>
        <time>2017-05-14T07:42:33Z</time>
      </trkpt>
      <trkpt lat="49.24137" lon="0.1953">
        <ele>128.2</ele>
        <time>2017-05-14T07:42:34Z</time>
      </trkpt>
      <trkpt lat="49.24131" lon="0.1953">
        <ele>127.1</ele>
        <time>2017-05-14T07:42:35Z</time>
      </trkpt>
      <trkpt lat="49.24124" lon="0.1953">
        <ele>126.5</ele>
        <time>2017-05-14T07:42:36Z</time>
      </trkpt>
      <trkpt lat="49.24117" lon="0.19531">
        <ele>125.7</ele>
        <time>2017-05-14T07:42:37Z</time>
      </trkpt>
      <trkpt lat="49.24112" lon="0.19533">
        <ele>125.3</ele>
        <time>2017-05-14T07:42:38Z</time>
      </trkpt>
      <trkpt lat="49.24106" lon="0.19533">
        <ele>125</ele>
        <time>2017-05-14T07:42:39Z</time>
      </trkpt>
      <trkpt lat="49.24102" lon="0.19534">
        <ele>124.7</ele>
        <time>2017-05-14T07:42:40Z</time>
      </trkpt>
      <trkpt lat="49.24095" lon="0.19533">
        <ele>124.3</ele>
        <time>2017-05-14T07:42:41Z</time>
      </trkpt>
      <trkpt lat="49.24094" lon="0.19528">
        <ele>124.2</ele>
        <time>2017-05-14T07:42:42Z</time>
      </trkpt>
      <trkpt lat="49.24091" lon="0.19526">
        <ele>124.1</ele>
        <time>2017-05-14T07:42:43Z</time>
      </trkpt>
      <trkpt lat="49.24089" lon="0.19523">
        <ele>123.9</ele>
        <time>2017-05-14T07:42:46Z</time>
      </trkpt>
      <trkpt lat="49.24083" lon="0.19521">
        <ele>123.4</ele>
        <time>2017-05-14T07:42:48Z</time>
      </trkpt>
      <trkpt lat="49.2408" lon="0.19519">
        <ele>123.1</ele>
        <time>2017-05-14T07:42:49Z</time>
      </trkpt>
      <trkpt lat="49.24074" lon="0.19517">
        <ele>122.3</ele>
        <time>2017-05-14T07:42:51Z</time>
      </trkpt>
      <trkpt lat="49.2407" lon="0.19519">
        <ele>121.8</ele>
        <time>2017-05-14T07:42:53Z</time>
      </trkpt>
      <trkpt lat="49.2406" lon="0.19526">
        <ele>119.4</ele>
        <time>2017-05-14T07:42:56Z</time>
      </trkpt>
      <trkpt lat="49.2406" lon="0.19519">
        <ele>119.7</ele>
        <time>2017-05-14T07:43:08Z</time>
      </trkpt>
      <trkpt lat="49.24061" lon="0.19513">
        <ele>120.4</ele>
        <time>2017-05-14T07:43:10Z</time>
      </trkpt>
      <trkpt lat="49.24063" lon="0.1951">
        <ele>120.4</ele>
        <time>2017-05-14T07:43:13Z</time>
      </trkpt>
      <trkpt lat="49.24065" lon="0.19504">
        <ele>120.8</ele>
        <time>2017-05-14T07:43:15Z</time>
      </trkpt>
      <trkpt lat="49.24067" lon="0.195">
        <ele>121.2</ele>
        <time>2017-05-14T07:43:18Z</time>
      </trkpt>
      <trkpt lat="49.24067" lon="0.19492">
        <ele>121.2</ele>
        <time>2017-05-14T07:43:22Z</time>
      </trkpt>
      <trkpt lat="49.24067" lon="0.19487">
        <ele>121.3</ele>
        <time>2017-05-14T07:43:23Z</time>
      </trkpt>
      <trkpt lat="49.24068" lon="0.19483">
        <ele>121.4</ele>
        <time>2017-05-14T07:43:24Z</time>
      </trkpt>
      <trkpt lat="49.24069" lon="0.19479">
        <ele>121.5</ele>
        <time>2017-05-14T07:43:25Z</time>
      </trkpt>
      <trkpt lat="49.2407" lon="0.19471">
        <ele>122.3</ele>
        <time>2017-05-14T07:43:27Z</time>
      </trkpt>
      <trkpt lat="49.24071" lon="0.19466">
        <ele>122.7</ele>
        <time>2017-05-14T07:43:28Z</time>
      </trkpt>
      <trkpt lat="49.24072" lon="0.19462">
        <ele>123.6</ele>
        <time>2017-05-14T07:43:29Z</time>
      </trkpt>
      <trkpt lat="49.24073" lon="0.19457">
        <ele>123.8</ele>
        <time>2017-05-14T07:43:30Z</time>
      </trkpt>
      <trkpt lat="49.24074" lon="0.1945">
        <ele>124.1</ele>
        <time>2017-05-14T07:43:32Z</time>
      </trkpt>
      <trkpt lat="49.24075" lon="0.19446">
        <ele>124.7</ele>
        <time>2017-05-14T07:43:33Z</time>
      </trkpt>
      <trkpt lat="49.24076" lon="0.19442">
        <ele>124.9</ele>
        <time>2017-05-14T07:43:34Z</time>
      </trkpt>
      <trkpt lat="49.24078" lon="0.19437">
        <ele>125.5</ele>
        <time>2017-05-14T07:43:35Z</time>
      </trkpt>
      <trkpt lat="49.24079" lon="0.19432">
        <ele>125.6</ele>
        <time>2017-05-14T07:43:36Z</time>
      </trkpt>
      <trkpt lat="49.24079" lon="0.19428">
        <ele>125.8</ele>
        <time>2017-05-14T07:43:37Z</time>
      </trkpt>
      <trkpt lat="49.24081" lon="0.19421">
        <ele>126.5</ele>
        <time>2017-05-14T07:43:39Z</time>
      </trkpt>
      <trkpt lat="49.24082" lon="0.19415">
        <ele>126.8</ele>
        <time>2017-05-14T07:43:41Z</time>
      </trkpt>
      <trkpt lat="49.24083" lon="0.19409">
        <ele>126.9</ele>
        <time>2017-05-14T07:43:43Z</time>
      </trkpt>
      <trkpt lat="49.24085" lon="0.19403">
        <ele>127.4</ele>
        <time>2017-05-14T07:43:45Z</time>
      </trkpt>
      <trkpt lat="49.24086" lon="0.19396">
        <ele>127.7</ele>
        <time>2017-05-14T07:43:47Z</time>
      </trkpt>
      <trkpt lat="49.24086" lon="0.19391">
        <ele>128.1</ele>
        <time>2017-05-14T07:43:48Z</time>
      </trkpt>
      <trkpt lat="49.24087" lon="0.19386">
        <ele>128.3</ele>
        <time>2017-05-14T07:43:49Z</time>
      </trkpt>
      <trkpt lat="49.24088" lon="0.19379">
        <ele>128.6</ele>
        <time>2017-05-14T07:43:51Z</time>
      </trkpt>
      <trkpt lat="49.2409" lon="0.19372">
        <ele>129.3</ele>
        <time>2017-05-14T07:43:53Z</time>
      </trkpt>
      <trkpt lat="49.24091" lon="0.19365">
        <ele>129.4</ele>
        <time>2017-05-14T07:43:55Z</time>
      </trkpt>
      <trkpt lat="49.24091" lon="0.19358">
        <ele>129.6</ele>
        <time>2017-05-14T07:43:57Z</time>
      </trkpt>
      <trkpt lat="49.24091" lon="0.1935">
        <ele>129.9</ele>
        <time>2017-05-14T07:43:59Z</time>
      </trkpt>
      <trkpt lat="49.24091" lon="0.19346">
        <ele>130</ele>
        <time>2017-05-14T07:44:00Z</time>
      </trkpt>
      <trkpt lat="49.2409" lon="0.19341">
        <ele>130.1</ele>
        <time>2017-05-14T07:44:01Z</time>
      </trkpt>
      <trkpt lat="49.24091" lon="0.19337">
        <ele>130.3</ele>
        <time>2017-05-14T07:44:02Z</time>
      </trkpt>
      <trkpt lat="49.24092" lon="0.19329">
        <ele>130.5</ele>
        <time>2017-05-14T07:44:04Z</time>
      </trkpt>
      <trkpt lat="49.24093" lon="0.19325">
        <ele>130.7</ele>
        <time>2017-05-14T07:44:05Z</time>
      </trkpt>
      <trkpt lat="49.24095" lon="0.19321">
        <ele>131</ele>
        <time>2017-05-14T07:44:06Z</time>
      </trkpt>
      <trkpt lat="49.24096" lon="0.19318">
        <ele>131</ele>
        <time>2017-05-14T07:44:07Z</time>
      </trkpt>
      <trkpt lat="49.24098" lon="0.19313">
        <ele>131</ele>
        <time>2017-05-14T07:44:08Z</time>
      </trkpt>
      <trkpt lat="49.241" lon="0.1931">
        <ele>131</ele>
        <time>2017-05-14T07:44:09Z</time>
      </trkpt>
      <trkpt lat="49.24103" lon="0.19304">
        <ele>131</ele>
        <time>2017-05-14T07:44:11Z</time>
      </trkpt>
      <trkpt lat="49.24106" lon="0.19298">
        <ele>131</ele>
        <time>2017-05-14T07:44:13Z</time>
      </trkpt>
      <trkpt lat="49.24108" lon="0.19293">
        <ele>131</ele>
        <time>2017-05-14T07:44:14Z</time>
      </trkpt>
      <trkpt lat="49.2411" lon="0.19288">
        <ele>131</ele>
        <time>2017-05-14T07:44:15Z</time>
      </trkpt>
      <trkpt lat="49.24112" lon="0.19283">
        <ele>131</ele>
        <time>2017-05-14T07:44:16Z</time>
      </trkpt>
      <trkpt lat="49.24114" lon="0.19278">
        <ele>131</ele>
        <time>2017-05-14T07:44:17Z</time>
      </trkpt>
      <trkpt lat="49.24116" lon="0.19274">
        <ele>131.1</ele>
        <time>2017-05-14T07:44:18Z</time>
      </trkpt>
      <trkpt lat="49.24118" lon="0.19268">
        <ele>131.1</ele>
        <time>2017-05-14T07:44:20Z</time>
      </trkpt>
      <trkpt lat="49.24119" lon="0.19265">
        <ele>131.1</ele>
        <time>2017-05-14T07:44:21Z</time>
      </trkpt>
      <trkpt lat="49.24123" lon="0.19258">
        <ele>131.1</ele>
        <time>2017-05-14T07:44:23Z</time>
      </trkpt>
      <trkpt lat="49.24125" lon="0.19254">
        <ele>131.1</ele>
        <time>2017-05-14T07:44:24Z</time>
      </trkpt>
      <trkpt lat="49.24127" lon="0.19249">
        <ele>131.1</ele>
        <time>2017-05-14T07:44:25Z</time>
      </trkpt>
      <trkpt lat="49.24128" lon="0.19245">
        <ele>131.1</ele>
        <time>2017-05-14T07:44:26Z</time>
      </trkpt>
      <trkpt lat="49.24129" lon="0.19241">
        <ele>131.1</ele>
        <time>2017-05-14T07:44:27Z</time>
      </trkpt>
      <trkpt lat="49.24131" lon="0.19235">
        <ele>131.1</ele>
        <time>2017-05-14T07:44:29Z</time>
      </trkpt>
      <trkpt lat="49.24133" lon="0.1923">
        <ele>131.1</ele>
        <time>2017-05-14T07:44:31Z</time>
      </trkpt>
      <trkpt lat="49.24136" lon="0.19222">
        <ele>131.1</ele>
        <time>2017-05-14T07:44:33Z</time>
      </trkpt>
      <trkpt lat="49.24137" lon="0.19218">
        <ele>131.1</ele>
        <time>2017-05-14T07:44:34Z</time>
      </trkpt>
      <trkpt lat="49.24139" lon="0.19213">
        <ele>131.1</ele>
        <time>2017-05-14T07:44:35Z</time>
      </trkpt>
      <trkpt lat="49.2414" lon="0.19208">
        <ele>131.1</ele>
        <time>2017-05-14T07:44:36Z</time>
      </trkpt>
      <trkpt lat="49.24142" lon="0.19203">
        <ele>131.1</ele>
        <time>2017-05-14T07:44:37Z</time>
      </trkpt>
      <trkpt lat="49.24143" lon="0.19199">
        <ele>131.1</ele>
        <time>2017-05-14T07:44:38Z</time>
      </trkpt>
      <trkpt lat="49.24144" lon="0.19195">
        <ele>131.1</ele>
        <time>2017-05-14T07:44:39Z</time>
      </trkpt>
      <trkpt lat="49.24146" lon="0.19192">
        <ele>131.1</ele>
        <time>2017-05-14T07:44:40Z</time>
      </trkpt>
      <trkpt lat="49.24147" lon="0.19187">
        <ele>131.1</ele>
        <time>2017-05-14T07:44:41Z</time>
      </trkpt>
      <trkpt lat="49.24149" lon="0.19182">
        <ele>131.1</ele>
        <time>2017-05-14T07:44:42Z</time>
      </trkpt>
      <trkpt lat="49.2415" lon="0.19177">
        <ele>131.1</ele>
        <time>2017-05-14T07:44:43Z</time>
      </trkpt>
      <trkpt lat="49.24151" lon="0.19173">
        <ele>131.1</ele>
        <time>2017-05-14T07:44:44Z</time>
      </trkpt>
      <trkpt lat="49.24152" lon="0.19169">
        <ele>131.1</ele>
        <time>2017-05-14T07:44:45Z</time>
      </trkpt>
      <trkpt lat="49.24153" lon="0.19165">
        <ele>131</ele>
        <time>2017-05-14T07:44:46Z</time>
      </trkpt>
      <trkpt lat="49.24155" lon="0.19161">
        <ele>131</ele>
        <time>2017-05-14T07:44:47Z</time>
      </trkpt>
      <trkpt lat="49.24155" lon="0.19157">
        <ele>131</ele>
        <time>2017-05-14T07:44:48Z</time>
      </trkpt>
      <trkpt lat="49.24154" lon="0.19152">
        <ele>131</ele>
        <time>2017-05-14T07:44:51Z</time>
      </trkpt>
      <trkpt lat="49.2415" lon="0.19148">
        <ele>131</ele>
        <time>2017-05-14T07:44:53Z</time>
      </trkpt>
      <trkpt lat="49.24146" lon="0.19145">
        <ele>131</ele>
        <time>2017-05-14T07:44:55Z</time>
      </trkpt>
      <trkpt lat="49.24142" lon="0.19143">
        <ele>131</ele>
        <time>2017-05-14T07:44:57Z</time>
      </trkpt>
      <trkpt lat="49.24139" lon="0.19142">
        <ele>131</ele>
        <time>2017-05-14T07:44:58Z</time>
      </trkpt>
      <trkpt lat="49.24135" lon="0.1914">
        <ele>130.9</ele>
        <time>2017-05-14T07:45:00Z</time>
      </trkpt>
      <trkpt lat="49.2413" lon="0.19137">
        <ele>130.7</ele>
        <time>2017-05-14T07:45:02Z</time>
      </trkpt>
      <trkpt lat="49.24127" lon="0.19136">
        <ele>130.6</ele>
        <time>2017-05-14T07:45:03Z</time>
      </trkpt>
      <trkpt lat="49.24123" lon="0.19136">
        <ele>130.5</ele>
        <time>2017-05-14T07:45:04Z</time>
      </trkpt>
      <trkpt lat="49.24119" lon="0.19134">
        <ele>130.4</ele>
        <time>2017-05-14T07:45:05Z</time>
      </trkpt>
      <trkpt lat="49.24115" lon="0.19133">
        <ele>130.2</ele>
        <time>2017-05-14T07:45:06Z</time>
      </trkpt>
      <trkpt lat="49.24109" lon="0.1913">
        <ele>130</ele>
        <time>2017-05-14T07:45:07Z</time>
      </trkpt>
      <trkpt lat="49.24106" lon="0.19128">
        <ele>129.9</ele>
        <time>2017-05-14T07:45:08Z</time>
      </trkpt>
      <trkpt lat="49.24102" lon="0.19126">
        <ele>129.7</ele>
        <time>2017-05-14T07:45:09Z</time>
      </trkpt>
      <trkpt lat="49.24098" lon="0.19125">
        <ele>129.6</ele>
        <time>2017-05-14T07:45:10Z</time>
      </trkpt>
      <trkpt lat="49.24095" lon="0.19123">
        <ele>129.5</ele>
        <time>2017-05-14T07:45:11Z</time>
      </trkpt>
      <trkpt lat="49.24091" lon="0.19121">
        <ele>129.5</ele>
        <time>2017-05-14T07:45:12Z</time>
      </trkpt>
      <trkpt lat="49.24087" lon="0.1912">
        <ele>129.5</ele>
        <time>2017-05-14T07:45:13Z</time>
      </trkpt>
      <trkpt lat="49.24083" lon="0.19117">
        <ele>129.6</ele>
        <time>2017-05-14T07:45:14Z</time>
      </trkpt>
      <trkpt lat="49.2408" lon="0.19114">
        <ele>129.7</ele>
        <time>2017-05-14T07:45:15Z</time>
      </trkpt>
      <trkpt lat="49.24076" lon="0.19112">
        <ele>129.9</ele>
        <time>2017-05-14T07:45:16Z</time>
      </trkpt>
      <trkpt lat="49.24071" lon="0.19109">
        <ele>130</ele>
        <time>2017-05-14T07:45:17Z</time>
      </trkpt>
      <trkpt lat="49.24065" lon="0.19104">
        <ele>130.1</ele>
        <time>2017-05-14T07:45:18Z</time>
      </trkpt>
      <trkpt lat="49.2406" lon="0.191">
        <ele>130.1</ele>
        <time>2017-05-14T07:45:19Z</time>
      </trkpt>
      <trkpt lat="49.24056" lon="0.19097">
        <ele>130</ele>
        <time>2017-05-14T07:45:20Z</time>
      </trkpt>
      <trkpt lat="49.24051" lon="0.19095">
        <ele>130</ele>
        <time>2017-05-14T07:45:21Z</time>
      </trkpt>
      <trkpt lat="49.24047" lon="0.19092">
        <ele>129.9</ele>
        <time>2017-05-14T07:45:22Z</time>
      </trkpt>
      <trkpt lat="49.24043" lon="0.19088">
        <ele>129.7</ele>
        <time>2017-05-14T07:45:23Z</time>
      </trkpt>
      <trkpt lat="49.24039" lon="0.19086">
        <ele>129.5</ele>
        <time>2017-05-14T07:45:24Z</time>
      </trkpt>
      <trkpt lat="49.24036" lon="0.19084">
        <ele>129.2</ele>
        <time>2017-05-14T07:45:25Z</time>
      </trkpt>
      <trkpt lat="49.24032" lon="0.19081">
        <ele>128.9</ele>
        <time>2017-05-14T07:45:26Z</time>
      </trkpt>
      <trkpt lat="49.24027" lon="0.19079">
        <ele>128.5</ele>
        <time>2017-05-14T07:45:27Z</time>
      </trkpt>
      <trkpt lat="49.24023" lon="0.19078">
        <ele>128.2</ele>
        <time>2017-05-14T07:45:28Z</time>
      </trkpt>
      <trkpt lat="49.24017" lon="0.19078">
        <ele>127.8</ele>
        <time>2017-05-14T07:45:29Z</time>
      </trkpt>
      <trkpt lat="49.24013" lon="0.19075">
        <ele>127.6</ele>
        <time>2017-05-14T07:45:30Z</time>
      </trkpt>
      <trkpt lat="49.24009" lon="0.19073">
        <ele>127.5</ele>
        <time>2017-05-14T07:45:31Z</time>
      </trkpt>
      <trkpt lat="49.24004" lon="0.19072">
        <ele>127.4</ele>
        <time>2017-05-14T07:45:32Z</time>
      </trkpt>
      <trkpt lat="49.24001" lon="0.19071">
        <ele>127.3</ele>
        <time>2017-05-14T07:45:33Z</time>
      </trkpt>
      <trkpt lat="49.23996" lon="0.19068">
        <ele>127</ele>
        <time>2017-05-14T07:45:34Z</time>
      </trkpt>
      <trkpt lat="49.2399" lon="0.19066">
        <ele>126.7</ele>
        <time>2017-05-14T07:45:35Z</time>
      </trkpt>
      <trkpt lat="49.23983" lon="0.19065">
        <ele>126.2</ele>
        <time>2017-05-14T07:45:36Z</time>
      </trkpt>
      <trkpt lat="49.23975" lon="0.19063">
        <ele>125.7</ele>
        <time>2017-05-14T07:45:37Z</time>
      </trkpt>
      <trkpt lat="49.2397" lon="0.19062">
        <ele>125.4</ele>
        <time>2017-05-14T07:45:38Z</time>
      </trkpt>
      <trkpt lat="49.23964" lon="0.19061">
        <ele>125.4</ele>
        <time>2017-05-14T07:45:39Z</time>
      </trkpt>
      <trkpt lat="49.23959" lon="0.19061">
        <ele>125.4</ele>
        <time>2017-05-14T07:45:40Z</time>
      </trkpt>
      <trkpt lat="49.23954" lon="0.19061">
        <ele>125.4</ele>
        <time>2017-05-14T07:45:41Z</time>
      </trkpt>
      <trkpt lat="49.23949" lon="0.19061">
        <ele>125.5</ele>
        <time>2017-05-14T07:45:42Z</time>
      </trkpt>
      <trkpt lat="49.23944" lon="0.19062">
        <ele>125.7</ele>
        <time>2017-05-14T07:45:43Z</time>
      </trkpt>
      <trkpt lat="49.23941" lon="0.19061">
        <ele>125.7</ele>
        <time>2017-05-14T07:45:44Z</time>
      </trkpt>
      <trkpt lat="49.23935" lon="0.19062">
        <ele>125.7</ele>
        <time>2017-05-14T07:45:45Z</time>
      </trkpt>
      <trkpt lat="49.23929" lon="0.19061">
        <ele>125.6</ele>
        <time>2017-05-14T07:45:46Z</time>
      </trkpt>
      <trkpt lat="49.23927" lon="0.19061">
        <ele>125.6</ele>
        <time>2017-05-14T07:45:47Z</time>
      </trkpt>
      <trkpt lat="49.23925" lon="0.19051">
        <ele>125.3</ele>
        <time>2017-05-14T07:45:50Z</time>
      </trkpt>
      <trkpt lat="49.23924" lon="0.19048">
        <ele>125.2</ele>
        <time>2017-05-14T07:45:51Z</time>
      </trkpt>
      <trkpt lat="49.23917" lon="0.19043">
        <ele>124.9</ele>
        <time>2017-05-14T07:45:52Z</time>
      </trkpt>
      <trkpt lat="49.23908" lon="0.1904">
        <ele>124.9</ele>
        <time>2017-05-14T07:45:53Z</time>
      </trkpt>
      <trkpt lat="49.23901" lon="0.19036">
        <ele>125.3</ele>
        <time>2017-05-14T07:45:54Z</time>
      </trkpt>
      <trkpt lat="49.23894" lon="0.19032">
        <ele>125.8</ele>
        <time>2017-05-14T07:45:55Z</time>
      </trkpt>
      <trkpt lat="49.23886" lon="0.19028">
        <ele>126.8</ele>
        <time>2017-05-14T07:45:56Z</time>
      </trkpt>
      <trkpt lat="49.2388" lon="0.19024">
        <ele>127.2</ele>
        <time>2017-05-14T07:45:57Z</time>
      </trkpt>
      <trkpt lat="49.23875" lon="0.19018">
        <ele>127.6</ele>
        <time>2017-05-14T07:45:58Z</time>
      </trkpt>
      <trkpt lat="49.23872" lon="0.19016">
        <ele>127.8</ele>
        <time>2017-05-14T07:45:59Z</time>
      </trkpt>
      <trkpt lat="49.23868" lon="0.19012">
        <ele>127.9</ele>
        <time>2017-05-14T07:46:00Z</time>
      </trkpt>
      <trkpt lat="49.23863" lon="0.19009">
        <ele>127.8</ele>
        <time>2017-05-14T07:46:01Z</time>
      </trkpt>
      <trkpt lat="49.23859" lon="0.19008">
        <ele>127.7</ele>
        <time>2017-05-14T07:46:02Z</time>
      </trkpt>
      <trkpt lat="49.23856" lon="0.19007">
        <ele>127.7</ele>
        <time>2017-05-14T07:46:03Z</time>
      </trkpt>
      <trkpt lat="49.23853" lon="0.19005">
        <ele>127.7</ele>
        <time>2017-05-14T07:46:04Z</time>
      </trkpt>
      <trkpt lat="49.23848" lon="0.19002">
        <ele>127.6</ele>
        <time>2017-05-14T07:46:05Z</time>
      </trkpt>
      <trkpt lat="49.23845" lon="0.19005">
        <ele>127.5</ele>
        <time>2017-05-14T07:46:06Z</time>
      </trkpt>
      <trkpt lat="49.2384" lon="0.19">
        <ele>127.5</ele>
        <time>2017-05-14T07:46:07Z</time>
      </trkpt>
      <trkpt lat="49.23837" lon="0.19">
        <ele>127.4</ele>
        <time>2017-05-14T07:46:08Z</time>
      </trkpt>
      <trkpt lat="49.23833" lon="0.18999">
        <ele>127.3</ele>
        <time>2017-05-14T07:46:10Z</time>
      </trkpt>
      <trkpt lat="49.2383" lon="0.18999">
        <ele>127.2</ele>
        <time>2017-05-14T07:46:11Z</time>
      </trkpt>
      <trkpt lat="49.23825" lon="0.18998">
        <ele>127.1</ele>
        <time>2017-05-14T07:46:12Z</time>
      </trkpt>
      <trkpt lat="49.23818" lon="0.18996">
        <ele>127</ele>
        <time>2017-05-14T07:46:13Z</time>
      </trkpt>
      <trkpt lat="49.23813" lon="0.18992">
        <ele>126.9</ele>
        <time>2017-05-14T07:46:14Z</time>
      </trkpt>
      <trkpt lat="49.23808" lon="0.18988">
        <ele>126.8</ele>
        <time>2017-05-14T07:46:15Z</time>
      </trkpt>
      <trkpt lat="49.23804" lon="0.18987">
        <ele>126.9</ele>
        <time>2017-05-14T07:46:16Z</time>
      </trkpt>
      <trkpt lat="49.23798" lon="0.18986">
        <ele>127.1</ele>
        <time>2017-05-14T07:46:18Z</time>
      </trkpt>
      <trkpt lat="49.23793" lon="0.18983">
        <ele>127.4</ele>
        <time>2017-05-14T07:46:19Z</time>
      </trkpt>
      <trkpt lat="49.23788" lon="0.18981">
        <ele>127.7</ele>
        <time>2017-05-14T07:46:20Z</time>
      </trkpt>
      <trkpt lat="49.23784" lon="0.1898">
        <ele>127.8</ele>
        <time>2017-05-14T07:46:21Z</time>
      </trkpt>
      <trkpt lat="49.2378" lon="0.1898">
        <ele>128</ele>
        <time>2017-05-14T07:46:22Z</time>
      </trkpt>
      <trkpt lat="49.23776" lon="0.18979">
        <ele>128</ele>
        <time>2017-05-14T07:46:23Z</time>
      </trkpt>
      <trkpt lat="49.23771" lon="0.18976">
        <ele>128.1</ele>
        <time>2017-05-14T07:46:24Z</time>
      </trkpt>
      <trkpt lat="49.23767" lon="0.18974">
        <ele>128.1</ele>
        <time>2017-05-14T07:46:25Z</time>
      </trkpt>
      <trkpt lat="49.23764" lon="0.18974">
        <ele>128.2</ele>
        <time>2017-05-14T07:46:29Z</time>
      </trkpt>
      <trkpt lat="49.2376" lon="0.18972">
        <ele>128.3</ele>
        <time>2017-05-14T07:46:30Z</time>
      </trkpt>
      <trkpt lat="49.23752" lon="0.1897">
        <ele>128.4</ele>
        <time>2017-05-14T07:46:31Z</time>
      </trkpt>
      <trkpt lat="49.23742" lon="0.18965">
        <ele>128.6</ele>
        <time>2017-05-14T07:46:32Z</time>
      </trkpt>
      <trkpt lat="49.23736" lon="0.18961">
        <ele>128.8</ele>
        <time>2017-05-14T07:46:33Z</time>
      </trkpt>
      <trkpt lat="49.23729" lon="0.18957">
        <ele>129</ele>
        <time>2017-05-14T07:46:34Z</time>
      </trkpt>
      <trkpt lat="49.23724" lon="0.18953">
        <ele>129.2</ele>
        <time>2017-05-14T07:46:35Z</time>
      </trkpt>
      <trkpt lat="49.23718" lon="0.18948">
        <ele>129.8</ele>
        <time>2017-05-14T07:46:36Z</time>
      </trkpt>
      <trkpt lat="49.23713" lon="0.18941">
        <ele>130.2</ele>
        <time>2017-05-14T07:46:37Z</time>
      </trkpt>
      <trkpt lat="49.23712" lon="0.18933">
        <ele>130.5</ele>
        <time>2017-05-14T07:46:38Z</time>
      </trkpt>
      <trkpt lat="49.23711" lon="0.18928">
        <ele>130.6</ele>
        <time>2017-05-14T07:46:39Z</time>
      </trkpt>
      <trkpt lat="49.2371" lon="0.18923">
        <ele>130.7</ele>
        <time>2017-05-14T07:46:41Z</time>
      </trkpt>
      <trkpt lat="49.23709" lon="0.18919">
        <ele>130.7</ele>
        <time>2017-05-14T07:46:43Z</time>
      </trkpt>
      <trkpt lat="49.23708" lon="0.18914">
        <ele>130.8</ele>
        <time>2017-05-14T07:46:44Z</time>
      </trkpt>
      <trkpt lat="49.23706" lon="0.18911">
        <ele>130.7</ele>
        <time>2017-05-14T07:46:45Z</time>
      </trkpt>
      <trkpt lat="49.23702" lon="0.18907">
        <ele>130.6</ele>
        <time>2017-05-14T07:46:46Z</time>
      </trkpt>
      <trkpt lat="49.23698" lon="0.18906">
        <ele>130.5</ele>
        <time>2017-05-14T07:46:47Z</time>
      </trkpt>
      <trkpt lat="49.23694" lon="0.18907">
        <ele>130.3</ele>
        <time>2017-05-14T07:46:48Z</time>
      </trkpt>
      <trkpt lat="49.2369" lon="0.18906">
        <ele>130.1</ele>
        <time>2017-05-14T07:46:49Z</time>
      </trkpt>
      <trkpt lat="49.23684" lon="0.18903">
        <ele>129.9</ele>
        <time>2017-05-14T07:46:50Z</time>
      </trkpt>
      <trkpt lat="49.2368" lon="0.18901">
        <ele>129.8</ele>
        <time>2017-05-14T07:46:51Z</time>
      </trkpt>
      <trkpt lat="49.23675" lon="0.18897">
        <ele>129.7</ele>
        <time>2017-05-14T07:46:54Z</time>
      </trkpt>
      <trkpt lat="49.23674" lon="0.18894">
        <ele>129.6</ele>
        <time>2017-05-14T07:46:55Z</time>
      </trkpt>
      <trkpt lat="49.23671" lon="0.1889">
        <ele>129.5</ele>
        <time>2017-05-14T07:46:56Z</time>
      </trkpt>
      <trkpt lat="49.23669" lon="0.18887">
        <ele>129.4</ele>
        <time>2017-05-14T07:46:58Z</time>
      </trkpt>
      <trkpt lat="49.23671" lon="0.1888">
        <ele>129.2</ele>
        <time>2017-05-14T07:47:00Z</time>
      </trkpt>
      <trkpt lat="49.2367" lon="0.18871">
        <ele>128.9</ele>
        <time>2017-05-14T07:47:01Z</time>
      </trkpt>
      <trkpt lat="49.23662" lon="0.18866">
        <ele>128.5</ele>
        <time>2017-05-14T07:47:02Z</time>
      </trkpt>
      <trkpt lat="49.23654" lon="0.18861">
        <ele>128.5</ele>
        <time>2017-05-14T07:47:03Z</time>
      </trkpt>
      <trkpt lat="49.23648" lon="0.18858">
        <ele>128.7</ele>
        <time>2017-05-14T07:47:04Z</time>
      </trkpt>
      <trkpt lat="49.23643" lon="0.18856">
        <ele>129</ele>
        <time>2017-05-14T07:47:05Z</time>
      </trkpt>
      <trkpt lat="49.23638" lon="0.18853">
        <ele>129.5</ele>
        <time>2017-05-14T07:47:06Z</time>
      </trkpt>
      <trkpt lat="49.23634" lon="0.18855">
        <ele>129.8</ele>
        <time>2017-05-14T07:47:07Z</time>
      </trkpt>
      <trkpt lat="49.23629" lon="0.18849">
        <ele>130.4</ele>
        <time>2017-05-14T07:47:11Z</time>
      </trkpt>
      <trkpt lat="49.23616" lon="0.18827">
        <ele>130.8</ele>
        <time>2017-05-14T07:47:15Z</time>
      </trkpt>
      <trkpt lat="49.23613" lon="0.18824">
        <ele>130.8</ele>
        <time>2017-05-14T07:47:16Z</time>
      </trkpt>
      <trkpt lat="49.23611" lon="0.18821">
        <ele>130.8</ele>
        <time>2017-05-14T07:47:20Z</time>
      </trkpt>
      <trkpt lat="49.23608" lon="0.18821">
        <ele>130.9</ele>
        <time>2017-05-14T07:47:22Z</time>
      </trkpt>
      <trkpt lat="49.23588" lon="0.18797">
        <ele>131</ele>
        <time>2017-05-14T07:47:25Z</time>
      </trkpt>
      <trkpt lat="49.23585" lon="0.18792">
        <ele>131</ele>
        <time>2017-05-14T07:47:26Z</time>
      </trkpt>
      <trkpt lat="49.23571" lon="0.18767">
        <ele>131.2</ele>
        <time>2017-05-14T07:47:31Z</time>
      </trkpt>
      <trkpt lat="49.23564" lon="0.18759">
        <ele>131.2</ele>
        <time>2017-05-14T07:47:32Z</time>
      </trkpt>
      <trkpt lat="49.2356" lon="0.18753">
        <ele>131.4</ele>
        <time>2017-05-14T07:47:33Z</time>
      </trkpt>
      <trkpt lat="49.23556" lon="0.18749">
        <ele>131.6</ele>
        <time>2017-05-14T07:47:34Z</time>
      </trkpt>
      <trkpt lat="49.23553" lon="0.18747">
        <ele>131.8</ele>
        <time>2017-05-14T07:47:35Z</time>
      </trkpt>
      <trkpt lat="49.23545" lon="0.1874">
        <ele>132.4</ele>
        <time>2017-05-14T07:47:37Z</time>
      </trkpt>
      <trkpt lat="49.23538" lon="0.18735">
        <ele>132.6</ele>
        <time>2017-05-14T07:47:38Z</time>
      </trkpt>
      <trkpt lat="49.23533" lon="0.18733">
        <ele>132.5</ele>
        <time>2017-05-14T07:47:39Z</time>
      </trkpt>
      <trkpt lat="49.23529" lon="0.18729">
        <ele>132.6</ele>
        <time>2017-05-14T07:47:40Z</time>
      </trkpt>
      <trkpt lat="49.23526" lon="0.18726">
        <ele>132.8</ele>
        <time>2017-05-14T07:47:41Z</time>
      </trkpt>
      <trkpt lat="49.23521" lon="0.18725">
        <ele>133</ele>
        <time>2017-05-14T07:47:42Z</time>
      </trkpt>
      <trkpt lat="49.23516" lon="0.18725">
        <ele>133.1</ele>
        <time>2017-05-14T07:47:43Z</time>
      </trkpt>
      <trkpt lat="49.23512" lon="0.18724">
        <ele>133.2</ele>
        <time>2017-05-14T07:47:44Z</time>
      </trkpt>
      <trkpt lat="49.23506" lon="0.18724">
        <ele>133.4</ele>
        <time>2017-05-14T07:47:45Z</time>
      </trkpt>
      <trkpt lat="49.23502" lon="0.18719">
        <ele>133.2</ele>
        <time>2017-05-14T07:47:46Z</time>
      </trkpt>
      <trkpt lat="49.23497" lon="0.18715">
        <ele>133</ele>
        <time>2017-05-14T07:47:47Z</time>
      </trkpt>
      <trkpt lat="49.23492" lon="0.18712">
        <ele>133.2</ele>
        <time>2017-05-14T07:47:48Z</time>
      </trkpt>
      <trkpt lat="49.23488" lon="0.18709">
        <ele>133.4</ele>
        <time>2017-05-14T07:47:49Z</time>
      </trkpt>
      <trkpt lat="49.23484" lon="0.18709">
        <ele>133.3</ele>
        <time>2017-05-14T07:47:50Z</time>
      </trkpt>
      <trkpt lat="49.23482" lon="0.18713">
        <ele>133</ele>
        <time>2017-05-14T07:47:51Z</time>
      </trkpt>
      <trkpt lat="49.2348" lon="0.18714">
        <ele>132.9</ele>
        <time>2017-05-14T07:47:52Z</time>
      </trkpt>
      <trkpt lat="49.23478" lon="0.18711">
        <ele>133.2</ele>
        <time>2017-05-14T07:47:55Z</time>
      </trkpt>
      <trkpt lat="49.23471" lon="0.18706">
        <ele>133.5</ele>
        <time>2017-05-14T07:47:57Z</time>
      </trkpt>
      <trkpt lat="49.23463" lon="0.18704">
        <ele>133.3</ele>
        <time>2017-05-14T07:47:58Z</time>
      </trkpt>
      <trkpt lat="49.23459" lon="0.18704">
        <ele>133.3</ele>
        <time>2017-05-14T07:47:59Z</time>
      </trkpt>
      <trkpt lat="49.23453" lon="0.18702">
        <ele>133.7</ele>
        <time>2017-05-14T07:48:00Z</time>
      </trkpt>
      <trkpt lat="49.23447" lon="0.18703">
        <ele>133.4</ele>
        <time>2017-05-14T07:48:01Z</time>
      </trkpt>
      <trkpt lat="49.23443" lon="0.18702">
        <ele>133.9</ele>
        <time>2017-05-14T07:48:02Z</time>
      </trkpt>
      <trkpt lat="49.23437" lon="0.18701">
        <ele>134.2</ele>
        <time>2017-05-14T07:48:03Z</time>
      </trkpt>
      <trkpt lat="49.23432" lon="0.18699">
        <ele>134.5</ele>
        <time>2017-05-14T07:48:04Z</time>
      </trkpt>
      <trkpt lat="49.23426" lon="0.18698">
        <ele>134.9</ele>
        <time>2017-05-14T07:48:05Z</time>
      </trkpt>
      <trkpt lat="49.23423" lon="0.18698">
        <ele>135</ele>
        <time>2017-05-14T07:48:06Z</time>
      </trkpt>
      <trkpt lat="49.23418" lon="0.18697">
        <ele>135.3</ele>
        <time>2017-05-14T07:48:07Z</time>
      </trkpt>
      <trkpt lat="49.23411" lon="0.18695">
        <ele>135.4</ele>
        <time>2017-05-14T07:48:09Z</time>
      </trkpt>
      <trkpt lat="49.23405" lon="0.18695">
        <ele>135.5</ele>
        <time>2017-05-14T07:48:10Z</time>
      </trkpt>
      <trkpt lat="49.23401" lon="0.18695">
        <ele>135.5</ele>
        <time>2017-05-14T07:48:11Z</time>
      </trkpt>
      <trkpt lat="49.23398" lon="0.18695">
        <ele>135.5</ele>
        <time>2017-05-14T07:48:12Z</time>
      </trkpt>
      <trkpt lat="49.23394" lon="0.18695">
        <ele>135.5</ele>
        <time>2017-05-14T07:48:13Z</time>
      </trkpt>
      <trkpt lat="49.23392" lon="0.18694">
        <ele>135.5</ele>
        <time>2017-05-14T07:48:14Z</time>
      </trkpt>
      <trkpt lat="49.23389" lon="0.18693">
        <ele>135.5</ele>
        <time>2017-05-14T07:48:15Z</time>
      </trkpt>
      <trkpt lat="49.23382" lon="0.18695">
        <ele>135.3</ele>
        <time>2017-05-14T07:48:20Z</time>
      </trkpt>
      <trkpt lat="49.23378" lon="0.18697">
        <ele>135.2</ele>
        <time>2017-05-14T07:48:21Z</time>
      </trkpt>
      <trkpt lat="49.23374" lon="0.187">
        <ele>135</ele>
        <time>2017-05-14T07:48:22Z</time>
      </trkpt>
      <trkpt lat="49.2337" lon="0.18701">
        <ele>134.9</ele>
        <time>2017-05-14T07:48:23Z</time>
      </trkpt>
      <trkpt lat="49.23365" lon="0.18699">
        <ele>134.6</ele>
        <time>2017-05-14T07:48:24Z</time>
      </trkpt>
      <trkpt lat="49.23361" lon="0.18697">
        <ele>134.6</ele>
        <time>2017-05-14T07:48:25Z</time>
      </trkpt>
      <trkpt lat="49.23354" lon="0.18698">
        <ele>134.2</ele>
        <time>2017-05-14T07:48:26Z</time>
      </trkpt>
      <trkpt lat="49.23351" lon="0.18699">
        <ele>133.9</ele>
        <time>2017-05-14T07:48:27Z</time>
      </trkpt>
      <trkpt lat="49.23348" lon="0.18699">
        <ele>133.8</ele>
        <time>2017-05-14T07:48:28Z</time>
      </trkpt>
      <trkpt lat="49.23345" lon="0.18699">
        <ele>133.7</ele>
        <time>2017-05-14T07:48:29Z</time>
      </trkpt>
      <trkpt lat="49.23342" lon="0.187">
        <ele>133.6</ele>
        <time>2017-05-14T07:48:30Z</time>
      </trkpt>
      <trkpt lat="49.23338" lon="0.187">
        <ele>133.5</ele>
        <time>2017-05-14T07:48:31Z</time>
      </trkpt>
      <trkpt lat="49.23334" lon="0.18701">
        <ele>133.5</ele>
        <time>2017-05-14T07:48:32Z</time>
      </trkpt>
      <trkpt lat="49.23328" lon="0.18702">
        <ele>133.6</ele>
        <time>2017-05-14T07:48:34Z</time>
      </trkpt>
      <trkpt lat="49.23318" lon="0.18699">
        <ele>134</ele>
        <time>2017-05-14T07:48:36Z</time>
      </trkpt>
      <trkpt lat="49.23316" lon="0.18695">
        <ele>134.3</ele>
        <time>2017-05-14T07:48:37Z</time>
      </trkpt>
      <trkpt lat="49.23314" lon="0.18692">
        <ele>134.5</ele>
        <time>2017-05-14T07:48:39Z</time>
      </trkpt>
      <trkpt lat="49.23312" lon="0.18687">
        <ele>134.8</ele>
        <time>2017-05-14T07:48:42Z</time>
      </trkpt>
      <trkpt lat="49.23312" lon="0.18681">
        <ele>135.3</ele>
        <time>2017-05-14T07:48:44Z</time>
      </trkpt>
      <trkpt lat="49.23311" lon="0.18675">
        <ele>135.5</ele>
        <time>2017-05-14T07:48:46Z</time>
      </trkpt>
      <trkpt lat="49.23311" lon="0.1867">
        <ele>135.7</ele>
        <time>2017-05-14T07:48:48Z</time>
      </trkpt>
      <trkpt lat="49.23311" lon="0.18666">
        <ele>135.9</ele>
        <time>2017-05-14T07:48:49Z</time>
      </trkpt>
      <trkpt lat="49.23311" lon="0.1866">
        <ele>136</ele>
        <time>2017-05-14T07:48:50Z</time>
      </trkpt>
      <trkpt lat="49.23311" lon="0.18654">
        <ele>136.1</ele>
        <time>2017-05-14T07:48:51Z</time>
      </trkpt>
      <trkpt lat="49.23312" lon="0.18647">
        <ele>136.1</ele>
        <time>2017-05-14T07:48:52Z</time>
      </trkpt>
      <trkpt lat="49.23313" lon="0.18642">
        <ele>136.2</ele>
        <time>2017-05-14T07:48:53Z</time>
      </trkpt>
      <trkpt lat="49.23314" lon="0.18637">
        <ele>136.4</ele>
        <time>2017-05-14T07:48:54Z</time>
      </trkpt>
      <trkpt lat="49.23314" lon="0.18631">
        <ele>136.5</ele>
        <time>2017-05-14T07:48:55Z</time>
      </trkpt>
      <trkpt lat="49.23314" lon="0.18627">
        <ele>136.7</ele>
        <time>2017-05-14T07:48:56Z</time>
      </trkpt>
      <trkpt lat="49.23315" lon="0.18619">
        <ele>137.1</ele>
        <time>2017-05-14T07:48:58Z</time>
      </trkpt>
      <trkpt lat="49.23315" lon="0.18615">
        <ele>137.3</ele>
        <time>2017-05-14T07:48:59Z</time>
      </trkpt>
      <trkpt lat="49.23314" lon="0.18609">
        <ele>137.5</ele>
        <time>2017-05-14T07:49:00Z</time>
      </trkpt>
      <trkpt lat="49.23314" lon="0.18602">
        <ele>137.9</ele>
        <time>2017-05-14T07:49:02Z</time>
      </trkpt>
      <trkpt lat="49.23315" lon="0.18594">
        <ele>138.3</ele>
        <time>2017-05-14T07:49:04Z</time>
      </trkpt>
      <trkpt lat="49.23315" lon="0.18587">
        <ele>138.5</ele>
        <time>2017-05-14T07:49:06Z</time>
      </trkpt>
      <trkpt lat="49.23316" lon="0.1858">
        <ele>138.7</ele>
        <time>2017-05-14T07:49:08Z</time>
      </trkpt>
      <trkpt lat="49.23317" lon="0.18573">
        <ele>139</ele>
        <time>2017-05-14T07:49:10Z</time>
      </trkpt>
      <trkpt lat="49.23318" lon="0.18567">
        <ele>139.1</ele>
        <time>2017-05-14T07:49:11Z</time>
      </trkpt>
      <trkpt lat="49.23319" lon="0.18562">
        <ele>139.1</ele>
        <time>2017-05-14T07:49:13Z</time>
      </trkpt>
      <trkpt lat="49.23321" lon="0.18556">
        <ele>139.2</ele>
        <time>2017-05-14T07:49:14Z</time>
      </trkpt>
      <trkpt lat="49.23321" lon="0.1855">
        <ele>139.2</ele>
        <time>2017-05-14T07:49:15Z</time>
      </trkpt>
      <trkpt lat="49.2332" lon="0.18544">
        <ele>139.2</ele>
        <time>2017-05-14T07:49:16Z</time>
      </trkpt>
      <trkpt lat="49.23318" lon="0.1854">
        <ele>139.2</ele>
        <time>2017-05-14T07:49:17Z</time>
      </trkpt>
      <trkpt lat="49.23322" lon="0.18532">
        <ele>139.1</ele>
        <time>2017-05-14T07:49:19Z</time>
      </trkpt>
      <trkpt lat="49.23328" lon="0.18528">
        <ele>139.1</ele>
        <time>2017-05-14T07:49:20Z</time>
      </trkpt>
      <trkpt lat="49.23335" lon="0.18523">
        <ele>139</ele>
        <time>2017-05-14T07:49:21Z</time>
      </trkpt>
      <trkpt lat="49.23341" lon="0.18519">
        <ele>138.9</ele>
        <time>2017-05-14T07:49:22Z</time>
      </trkpt>
      <trkpt lat="49.23344" lon="0.18516">
        <ele>138.9</ele>
        <time>2017-05-14T07:49:23Z</time>
      </trkpt>
      <trkpt lat="49.23347" lon="0.18513">
        <ele>138.9</ele>
        <time>2017-05-14T07:49:24Z</time>
      </trkpt>
      <trkpt lat="49.23349" lon="0.1851">
        <ele>138.8</ele>
        <time>2017-05-14T07:49:25Z</time>
      </trkpt>
      <trkpt lat="49.23352" lon="0.18506">
        <ele>138.8</ele>
        <time>2017-05-14T07:49:28Z</time>
      </trkpt>
      <trkpt lat="49.23352" lon="0.18496">
        <ele>138.7</ele>
        <time>2017-05-14T07:49:30Z</time>
      </trkpt>
      <trkpt lat="49.23353" lon="0.18491">
        <ele>138.5</ele>
        <time>2017-05-14T07:49:31Z</time>
      </trkpt>
      <trkpt lat="49.23354" lon="0.18485">
        <ele>138.4</ele>
        <time>2017-05-14T07:49:32Z</time>
      </trkpt>
      <trkpt lat="49.23356" lon="0.18479">
        <ele>138.3</ele>
        <time>2017-05-14T07:49:33Z</time>
      </trkpt>
      <trkpt lat="49.23357" lon="0.18474">
        <ele>138.4</ele>
        <time>2017-05-14T07:49:35Z</time>
      </trkpt>
      <trkpt lat="49.23359" lon="0.18468">
        <ele>138.5</ele>
        <time>2017-05-14T07:49:36Z</time>
      </trkpt>
      <trkpt lat="49.23363" lon="0.18463">
        <ele>138.7</ele>
        <time>2017-05-14T07:49:37Z</time>
      </trkpt>
      <trkpt lat="49.23365" lon="0.1846">
        <ele>139</ele>
        <time>2017-05-14T07:49:38Z</time>
      </trkpt>
      <trkpt lat="49.23367" lon="0.18457">
        <ele>139.2</ele>
        <time>2017-05-14T07:49:39Z</time>
      </trkpt>
      <trkpt lat="49.23369" lon="0.18454">
        <ele>139.3</ele>
        <time>2017-05-14T07:49:40Z</time>
      </trkpt>
      <trkpt lat="49.23372" lon="0.1845">
        <ele>139.4</ele>
        <time>2017-05-14T07:49:42Z</time>
      </trkpt>
      <trkpt lat="49.23373" lon="0.18445">
        <ele>139.4</ele>
        <time>2017-05-14T07:49:43Z</time>
      </trkpt>
      <trkpt lat="49.23375" lon="0.18439">
        <ele>139.6</ele>
        <time>2017-05-14T07:49:44Z</time>
      </trkpt>
      <trkpt lat="49.23373" lon="0.18426">
        <ele>139.7</ele>
        <time>2017-05-14T07:49:45Z</time>
      </trkpt>
      <trkpt lat="49.23373" lon="0.1842">
        <ele>139.8</ele>
        <time>2017-05-14T07:49:47Z</time>
      </trkpt>
      <trkpt lat="49.23373" lon="0.18413">
        <ele>139.9</ele>
        <time>2017-05-14T07:49:48Z</time>
      </trkpt>
      <trkpt lat="49.23374" lon="0.18409">
        <ele>139.9</ele>
        <time>2017-05-14T07:49:49Z</time>
      </trkpt>
      <trkpt lat="49.23377" lon="0.184">
        <ele>140.1</ele>
        <time>2017-05-14T07:49:50Z</time>
      </trkpt>
      <trkpt lat="49.2338" lon="0.18392">
        <ele>140.1</ele>
        <time>2017-05-14T07:49:51Z</time>
      </trkpt>
      <trkpt lat="49.23382" lon="0.18384">
        <ele>140</ele>
        <time>2017-05-14T07:49:52Z</time>
      </trkpt>
      <trkpt lat="49.23385" lon="0.18378">
        <ele>140.1</ele>
        <time>2017-05-14T07:49:53Z</time>
      </trkpt>
      <trkpt lat="49.23387" lon="0.18373">
        <ele>140.1</ele>
        <time>2017-05-14T07:49:54Z</time>
      </trkpt>
      <trkpt lat="49.23389" lon="0.18365">
        <ele>140.2</ele>
        <time>2017-05-14T07:49:56Z</time>
      </trkpt>
      <trkpt lat="49.23392" lon="0.18358">
        <ele>140.5</ele>
        <time>2017-05-14T07:49:58Z</time>
      </trkpt>
      <trkpt lat="49.23395" lon="0.18353">
        <ele>140.7</ele>
        <time>2017-05-14T07:49:59Z</time>
      </trkpt>
      <trkpt lat="49.23398" lon="0.18349">
        <ele>140.9</ele>
        <time>2017-05-14T07:50:00Z</time>
      </trkpt>
      <trkpt lat="49.23401" lon="0.18345">
        <ele>141.1</ele>
        <time>2017-05-14T07:50:01Z</time>
      </trkpt>
      <trkpt lat="49.23404" lon="0.18337">
        <ele>141.1</ele>
        <time>2017-05-14T07:50:02Z</time>
      </trkpt>
      <trkpt lat="49.23406" lon="0.18329">
        <ele>140.9</ele>
        <time>2017-05-14T07:50:03Z</time>
      </trkpt>
      <trkpt lat="49.23409" lon="0.18317">
        <ele>140.5</ele>
        <time>2017-05-14T07:50:05Z</time>
      </trkpt>
      <trkpt lat="49.2341" lon="0.18309">
        <ele>140.1</ele>
        <time>2017-05-14T07:50:07Z</time>
      </trkpt>
      <trkpt lat="49.23412" lon="0.18301">
        <ele>139.8</ele>
        <time>2017-05-14T07:50:08Z</time>
      </trkpt>
      <trkpt lat="49.23414" lon="0.18296">
        <ele>139.7</ele>
        <time>2017-05-14T07:50:09Z</time>
      </trkpt>
      <trkpt lat="49.23415" lon="0.1829">
        <ele>139.4</ele>
        <time>2017-05-14T07:50:10Z</time>
      </trkpt>
      <trkpt lat="49.23417" lon="0.18284">
        <ele>139.3</ele>
        <time>2017-05-14T07:50:11Z</time>
      </trkpt>
      <trkpt lat="49.23419" lon="0.18276">
        <ele>138.9</ele>
        <time>2017-05-14T07:50:12Z</time>
      </trkpt>
      <trkpt lat="49.2342" lon="0.18271">
        <ele>138.7</ele>
        <time>2017-05-14T07:50:13Z</time>
      </trkpt>
      <trkpt lat="49.23422" lon="0.18266">
        <ele>138.5</ele>
        <time>2017-05-14T07:50:14Z</time>
      </trkpt>
      <trkpt lat="49.23423" lon="0.18262">
        <ele>138.3</ele>
        <time>2017-05-14T07:50:15Z</time>
      </trkpt>
      <trkpt lat="49.23424" lon="0.18257">
        <ele>138.1</ele>
        <time>2017-05-14T07:50:16Z</time>
      </trkpt>
      <trkpt lat="49.23426" lon="0.18252">
        <ele>137.9</ele>
        <time>2017-05-14T07:50:17Z</time>
      </trkpt>
      <trkpt lat="49.23427" lon="0.18246">
        <ele>137.9</ele>
        <time>2017-05-14T07:50:18Z</time>
      </trkpt>
      <trkpt lat="49.23429" lon="0.1824">
        <ele>137.8</ele>
        <time>2017-05-14T07:50:19Z</time>
      </trkpt>
      <trkpt lat="49.23431" lon="0.18234">
        <ele>137.6</ele>
        <time>2017-05-14T07:50:20Z</time>
      </trkpt>
      <trkpt lat="49.23434" lon="0.18227">
        <ele>137.3</ele>
        <time>2017-05-14T07:50:21Z</time>
      </trkpt>
      <trkpt lat="49.23436" lon="0.18222">
        <ele>137.2</ele>
        <time>2017-05-14T07:50:22Z</time>
      </trkpt>
      <trkpt lat="49.23438" lon="0.18216">
        <ele>137</ele>
        <time>2017-05-14T07:50:23Z</time>
      </trkpt>
      <trkpt lat="49.23442" lon="0.18208">
        <ele>136.8</ele>
        <time>2017-05-14T07:50:24Z</time>
      </trkpt>
      <trkpt lat="49.23446" lon="0.18197">
        <ele>136.8</ele>
        <time>2017-05-14T07:50:25Z</time>
      </trkpt>
      <trkpt lat="49.2345" lon="0.18187">
        <ele>136.9</ele>
        <time>2017-05-14T07:50:26Z</time>
      </trkpt>
      <trkpt lat="49.23453" lon="0.1818">
        <ele>136.9</ele>
        <time>2017-05-14T07:50:27Z</time>
      </trkpt>
      <trkpt lat="49.23455" lon="0.18174">
        <ele>137</ele>
        <time>2017-05-14T07:50:28Z</time>
      </trkpt>
      <trkpt lat="49.23458" lon="0.18167">
        <ele>136.9</ele>
        <time>2017-05-14T07:50:29Z</time>
      </trkpt>
      <trkpt lat="49.2346" lon="0.18162">
        <ele>136.8</ele>
        <time>2017-05-14T07:50:30Z</time>
      </trkpt>
      <trkpt lat="49.23461" lon="0.18158">
        <ele>136.7</ele>
        <time>2017-05-14T07:50:31Z</time>
      </trkpt>
      <trkpt lat="49.23463" lon="0.18152">
        <ele>136.3</ele>
        <time>2017-05-14T07:50:32Z</time>
      </trkpt>
      <trkpt lat="49.23465" lon="0.18146">
        <ele>136.1</ele>
        <time>2017-05-14T07:50:33Z</time>
      </trkpt>
      <trkpt lat="49.23467" lon="0.18141">
        <ele>135.9</ele>
        <time>2017-05-14T07:50:34Z</time>
      </trkpt>
      <trkpt lat="49.23469" lon="0.18136">
        <ele>135.8</ele>
        <time>2017-05-14T07:50:35Z</time>
      </trkpt>
      <trkpt lat="49.23471" lon="0.18131">
        <ele>135.7</ele>
        <time>2017-05-14T07:50:36Z</time>
      </trkpt>
      <trkpt lat="49.23472" lon="0.18127">
        <ele>135.6</ele>
        <time>2017-05-14T07:50:37Z</time>
      </trkpt>
      <trkpt lat="49.23474" lon="0.18122">
        <ele>135.7</ele>
        <time>2017-05-14T07:50:39Z</time>
      </trkpt>
      <trkpt lat="49.23476" lon="0.18116">
        <ele>135.6</ele>
        <time>2017-05-14T07:50:41Z</time>
      </trkpt>
      <trkpt lat="49.23478" lon="0.18108">
        <ele>135.5</ele>
        <time>2017-05-14T07:50:43Z</time>
      </trkpt>
      <trkpt lat="49.23479" lon="0.18103">
        <ele>135.3</ele>
        <time>2017-05-14T07:50:44Z</time>
      </trkpt>
      <trkpt lat="49.23484" lon="0.18097">
        <ele>134.7</ele>
        <time>2017-05-14T07:50:45Z</time>
      </trkpt>
      <trkpt lat="49.23488" lon="0.18091">
        <ele>134.3</ele>
        <time>2017-05-14T07:50:46Z</time>
      </trkpt>
      <trkpt lat="49.2349" lon="0.18086">
        <ele>134.1</ele>
        <time>2017-05-14T07:50:47Z</time>
      </trkpt>
      <trkpt lat="49.23492" lon="0.18083">
        <ele>134</ele>
        <time>2017-05-14T07:50:48Z</time>
      </trkpt>
      <trkpt lat="49.23496" lon="0.18077">
        <ele>133.8</ele>
        <time>2017-05-14T07:50:52Z</time>
      </trkpt>
      <trkpt lat="49.23498" lon="0.18071">
        <ele>134</ele>
        <time>2017-05-14T07:50:57Z</time>
      </trkpt>
      <trkpt lat="49.23499" lon="0.18067">
        <ele>134</ele>
        <time>2017-05-14T07:51:11Z</time>
      </trkpt>
      <trkpt lat="49.23501" lon="0.18064">
        <ele>134</ele>
        <time>2017-05-14T07:51:18Z</time>
      </trkpt>
      <trkpt lat="49.23503" lon="0.1806">
        <ele>134</ele>
        <time>2017-05-14T07:51:20Z</time>
      </trkpt>
      <trkpt lat="49.23506" lon="0.18053">
        <ele>134.1</ele>
        <time>2017-05-14T07:51:22Z</time>
      </trkpt>
      <trkpt lat="49.23509" lon="0.18047">
        <ele>134.2</ele>
        <time>2017-05-14T07:51:23Z</time>
      </trkpt>
      <trkpt lat="49.23513" lon="0.1804">
        <ele>134</ele>
        <time>2017-05-14T07:51:25Z</time>
      </trkpt>
      <trkpt lat="49.23516" lon="0.18036">
        <ele>133.9</ele>
        <time>2017-05-14T07:51:26Z</time>
      </trkpt>
      <trkpt lat="49.23518" lon="0.18033">
        <ele>133.8</ele>
        <time>2017-05-14T07:51:28Z</time>
      </trkpt>
      <trkpt lat="49.2352" lon="0.1803">
        <ele>133.7</ele>
        <time>2017-05-14T07:51:30Z</time>
      </trkpt>
      <trkpt lat="49.23523" lon="0.18027">
        <ele>133.6</ele>
        <time>2017-05-14T07:51:32Z</time>
      </trkpt>
      <trkpt lat="49.23521" lon="0.18023">
        <ele>133.8</ele>
        <time>2017-05-14T07:51:33Z</time>
      </trkpt>
      <trkpt lat="49.23521" lon="0.18018">
        <ele>133.8</ele>
        <time>2017-05-14T07:51:34Z</time>
      </trkpt>
      <trkpt lat="49.23528" lon="0.18003">
        <ele>133.5</ele>
        <time>2017-05-14T07:51:35Z</time>
      </trkpt>
      <trkpt lat="49.23534" lon="0.17993">
        <ele>133.1</ele>
        <time>2017-05-14T07:51:36Z</time>
      </trkpt>
      <trkpt lat="49.23537" lon="0.17987">
        <ele>132.8</ele>
        <time>2017-05-14T07:51:37Z</time>
      </trkpt>
      <trkpt lat="49.23543" lon="0.17978">
        <ele>132.7</ele>
        <time>2017-05-14T07:51:39Z</time>
      </trkpt>
      <trkpt lat="49.23547" lon="0.1797">
        <ele>132.7</ele>
        <time>2017-05-14T07:51:40Z</time>
      </trkpt>
      <trkpt lat="49.23551" lon="0.1796">
        <ele>132.8</ele>
        <time>2017-05-14T07:51:41Z</time>
      </trkpt>
      <trkpt lat="49.23554" lon="0.17952">
        <ele>132.9</ele>
        <time>2017-05-14T07:51:42Z</time>
      </trkpt>
      <trkpt lat="49.23558" lon="0.17943">
        <ele>133.1</ele>
        <time>2017-05-14T07:51:43Z</time>
      </trkpt>
      <trkpt lat="49.23562" lon="0.17938">
        <ele>133.3</ele>
        <time>2017-05-14T07:51:44Z</time>
      </trkpt>
      <trkpt lat="49.23564" lon="0.17934">
        <ele>133.5</ele>
        <time>2017-05-14T07:51:45Z</time>
      </trkpt>
      <trkpt lat="49.23565" lon="0.1793">
        <ele>133.5</ele>
        <time>2017-05-14T07:51:46Z</time>
      </trkpt>
      <trkpt lat="49.23568" lon="0.17926">
        <ele>133.4</ele>
        <time>2017-05-14T07:51:47Z</time>
      </trkpt>
      <trkpt lat="49.23573" lon="0.17919">
        <ele>133.7</ele>
        <time>2017-05-14T07:51:48Z</time>
      </trkpt>
      <trkpt lat="49.23575" lon="0.17914">
        <ele>133.7</ele>
        <time>2017-05-14T07:51:49Z</time>
      </trkpt>
      <trkpt lat="49.23581" lon="0.17905">
        <ele>133.5</ele>
        <time>2017-05-14T07:51:51Z</time>
      </trkpt>
      <trkpt lat="49.23586" lon="0.17898">
        <ele>133.1</ele>
        <time>2017-05-14T07:51:52Z</time>
      </trkpt>
      <trkpt lat="49.23591" lon="0.17892">
        <ele>132.6</ele>
        <time>2017-05-14T07:51:53Z</time>
      </trkpt>
      <trkpt lat="49.23593" lon="0.17889">
        <ele>132.3</ele>
        <time>2017-05-14T07:51:54Z</time>
      </trkpt>
      <trkpt lat="49.23598" lon="0.17882">
        <ele>131.9</ele>
        <time>2017-05-14T07:51:55Z</time>
      </trkpt>
      <trkpt lat="49.23601" lon="0.17877">
        <ele>131.5</ele>
        <time>2017-05-14T07:51:56Z</time>
      </trkpt>
      <trkpt lat="49.23604" lon="0.17874">
        <ele>131.1</ele>
        <time>2017-05-14T07:51:57Z</time>
      </trkpt>
      <trkpt lat="49.23607" lon="0.17869">
        <ele>130.4</ele>
        <time>2017-05-14T07:51:58Z</time>
      </trkpt>
      <trkpt lat="49.23609" lon="0.17866">
        <ele>130.4</ele>
        <time>2017-05-14T07:52:00Z</time>
      </trkpt>
      <trkpt lat="49.23609" lon="0.17861">
        <ele>130.2</ele>
        <time>2017-05-14T07:52:01Z</time>
      </trkpt>
      <trkpt lat="49.23606" lon="0.17859">
        <ele>130.4</ele>
        <time>2017-05-14T07:52:04Z</time>
      </trkpt>
      <trkpt lat="49.23608" lon="0.17855">
        <ele>130.1</ele>
        <time>2017-05-14T07:52:05Z</time>
      </trkpt>
      <trkpt lat="49.2361" lon="0.17847">
        <ele>130</ele>
        <time>2017-05-14T07:52:06Z</time>
      </trkpt>
      <trkpt lat="49.23614" lon="0.17838">
        <ele>129.9</ele>
        <time>2017-05-14T07:52:07Z</time>
      </trkpt>
      <trkpt lat="49.23616" lon="0.17834">
        <ele>129.8</ele>
        <time>2017-05-14T07:52:08Z</time>
      </trkpt>
      <trkpt lat="49.23621" lon="0.17827">
        <ele>129.6</ele>
        <time>2017-05-14T07:52:09Z</time>
      </trkpt>
      <trkpt lat="49.23622" lon="0.17823">
        <ele>129.5</ele>
        <time>2017-05-14T07:52:10Z</time>
      </trkpt>
      <trkpt lat="49.23624" lon="0.1782">
        <ele>129.3</ele>
        <time>2017-05-14T07:52:11Z</time>
      </trkpt>
      <trkpt lat="49.23627" lon="0.17817">
        <ele>129.1</ele>
        <time>2017-05-14T07:52:12Z</time>
      </trkpt>
      <trkpt lat="49.23631" lon="0.17818">
        <ele>129.1</ele>
        <time>2017-05-14T07:52:13Z</time>
      </trkpt>
      <trkpt lat="49.23635" lon="0.17819">
        <ele>129</ele>
        <time>2017-05-14T07:52:18Z</time>
      </trkpt>
      <trkpt lat="49.23658" lon="0.17802">
        <ele>128.9</ele>
        <time>2017-05-14T07:52:22Z</time>
      </trkpt>
      <trkpt lat="49.23665" lon="0.17791">
        <ele>128.4</ele>
        <time>2017-05-14T07:52:23Z</time>
      </trkpt>
      <trkpt lat="49.23672" lon="0.17782">
        <ele>128</ele>
        <time>2017-05-14T07:52:24Z</time>
      </trkpt>
      <trkpt lat="49.23674" lon="0.17773">
        <ele>127.6</ele>
        <time>2017-05-14T07:52:25Z</time>
      </trkpt>
      <trkpt lat="49.23677" lon="0.17764">
        <ele>127.4</ele>
        <time>2017-05-14T07:52:26Z</time>
      </trkpt>
      <trkpt lat="49.23679" lon="0.17756">
        <ele>127.3</ele>
        <time>2017-05-14T07:52:27Z</time>
      </trkpt>
      <trkpt lat="49.23681" lon="0.17748">
        <ele>127.3</ele>
        <time>2017-05-14T07:52:28Z</time>
      </trkpt>
      <trkpt lat="49.23682" lon="0.17744">
        <ele>127.4</ele>
        <time>2017-05-14T07:52:29Z</time>
      </trkpt>
      <trkpt lat="49.23684" lon="0.17739">
        <ele>127.4</ele>
        <time>2017-05-14T07:52:30Z</time>
      </trkpt>
      <trkpt lat="49.23685" lon="0.17735">
        <ele>127.3</ele>
        <time>2017-05-14T07:52:31Z</time>
      </trkpt>
      <trkpt lat="49.23687" lon="0.17729">
        <ele>127.4</ele>
        <time>2017-05-14T07:52:32Z</time>
      </trkpt>
      <trkpt lat="49.23688" lon="0.17721">
        <ele>127.5</ele>
        <time>2017-05-14T07:52:33Z</time>
      </trkpt>
      <trkpt lat="49.2369" lon="0.17713">
        <ele>127.5</ele>
        <time>2017-05-14T07:52:34Z</time>
      </trkpt>
      <trkpt lat="49.23692" lon="0.17704">
        <ele>127.6</ele>
        <time>2017-05-14T07:52:35Z</time>
      </trkpt>
      <trkpt lat="49.23695" lon="0.17696">
        <ele>127.7</ele>
        <time>2017-05-14T07:52:36Z</time>
      </trkpt>
      <trkpt lat="49.23697" lon="0.1769">
        <ele>127.8</ele>
        <time>2017-05-14T07:52:37Z</time>
      </trkpt>
      <trkpt lat="49.23698" lon="0.17685">
        <ele>127.8</ele>
        <time>2017-05-14T07:52:38Z</time>
      </trkpt>
      <trkpt lat="49.23699" lon="0.17675">
        <ele>127.7</ele>
        <time>2017-05-14T07:52:39Z</time>
      </trkpt>
      <trkpt lat="49.23699" lon="0.17668">
        <ele>127.8</ele>
        <time>2017-05-14T07:52:40Z</time>
      </trkpt>
      <trkpt lat="49.23701" lon="0.17656">
        <ele>127.9</ele>
        <time>2017-05-14T07:52:41Z</time>
      </trkpt>
      <trkpt lat="49.23701" lon="0.17644">
        <ele>127.8</ele>
        <time>2017-05-14T07:52:42Z</time>
      </trkpt>
      <trkpt lat="49.23702" lon="0.17634">
        <ele>127.5</ele>
        <time>2017-05-14T07:52:43Z</time>
      </trkpt>
      <trkpt lat="49.23704" lon="0.17624">
        <ele>127.1</ele>
        <time>2017-05-14T07:52:44Z</time>
      </trkpt>
      <trkpt lat="49.23706" lon="0.17615">
        <ele>126.8</ele>
        <time>2017-05-14T07:52:45Z</time>
      </trkpt>
      <trkpt lat="49.2371" lon="0.17603">
        <ele>126.3</ele>
        <time>2017-05-14T07:52:46Z</time>
      </trkpt>
      <trkpt lat="49.23713" lon="0.17592">
        <ele>125.9</ele>
        <time>2017-05-14T07:52:47Z</time>
      </trkpt>
      <trkpt lat="49.23714" lon="0.17584">
        <ele>125.5</ele>
        <time>2017-05-14T07:52:48Z</time>
      </trkpt>
      <trkpt lat="49.23716" lon="0.17576">
        <ele>125.2</ele>
        <time>2017-05-14T07:52:49Z</time>
      </trkpt>
      <trkpt lat="49.23719" lon="0.17567">
        <ele>124.8</ele>
        <time>2017-05-14T07:52:50Z</time>
      </trkpt>
      <trkpt lat="49.23721" lon="0.17558">
        <ele>124.5</ele>
        <time>2017-05-14T07:52:51Z</time>
      </trkpt>
      <trkpt lat="49.23723" lon="0.17549">
        <ele>124.4</ele>
        <time>2017-05-14T07:52:52Z</time>
      </trkpt>
      <trkpt lat="49.23725" lon="0.17542">
        <ele>124.3</ele>
        <time>2017-05-14T07:52:53Z</time>
      </trkpt>
      <trkpt lat="49.23729" lon="0.1753">
        <ele>124.4</ele>
        <time>2017-05-14T07:52:54Z</time>
      </trkpt>
      <trkpt lat="49.23732" lon="0.1752">
        <ele>124.4</ele>
        <time>2017-05-14T07:52:55Z</time>
      </trkpt>
      <trkpt lat="49.23734" lon="0.17509">
        <ele>124.4</ele>
        <time>2017-05-14T07:52:56Z</time>
      </trkpt>
      <trkpt lat="49.23736" lon="0.17501">
        <ele>124.3</ele>
        <time>2017-05-14T07:52:57Z</time>
      </trkpt>
      <trkpt lat="49.23739" lon="0.17492">
        <ele>124.3</ele>
        <time>2017-05-14T07:52:58Z</time>
      </trkpt>
      <trkpt lat="49.23742" lon="0.17484">
        <ele>124.2</ele>
        <time>2017-05-14T07:52:59Z</time>
      </trkpt>
      <trkpt lat="49.23744" lon="0.17477">
        <ele>124.3</ele>
        <time>2017-05-14T07:53:00Z</time>
      </trkpt>
      <trkpt lat="49.23747" lon="0.17468">
        <ele>124.4</ele>
        <time>2017-05-14T07:53:01Z</time>
      </trkpt>
      <trkpt lat="49.23749" lon="0.17462">
        <ele>124.7</ele>
        <time>2017-05-14T07:53:02Z</time>
      </trkpt>
      <trkpt lat="49.2375" lon="0.17457">
        <ele>124.9</ele>
        <time>2017-05-14T07:53:03Z</time>
      </trkpt>
      <trkpt lat="49.23752" lon="0.17447">
        <ele>125.2</ele>
        <time>2017-05-14T07:53:04Z</time>
      </trkpt>
      <trkpt lat="49.23754" lon="0.17437">
        <ele>125.3</ele>
        <time>2017-05-14T07:53:05Z</time>
      </trkpt>
      <trkpt lat="49.23756" lon="0.17432">
        <ele>125.1</ele>
        <time>2017-05-14T07:53:06Z</time>
      </trkpt>
      <trkpt lat="49.23758" lon="0.17425">
        <ele>125.1</ele>
        <time>2017-05-14T07:53:07Z</time>
      </trkpt>
      <trkpt lat="49.23761" lon="0.17415">
        <ele>125.1</ele>
        <time>2017-05-14T07:53:08Z</time>
      </trkpt>
      <trkpt lat="49.23764" lon="0.17404">
        <ele>125.3</ele>
        <time>2017-05-14T07:53:09Z</time>
      </trkpt>
      <trkpt lat="49.23768" lon="0.17395">
        <ele>125.2</ele>
        <time>2017-05-14T07:53:10Z</time>
      </trkpt>
      <trkpt lat="49.2377" lon="0.17388">
        <ele>124.9</ele>
        <time>2017-05-14T07:53:11Z</time>
      </trkpt>
      <trkpt lat="49.23773" lon="0.1738">
        <ele>124.6</ele>
        <time>2017-05-14T07:53:12Z</time>
      </trkpt>
      <trkpt lat="49.23774" lon="0.17373">
        <ele>124.5</ele>
        <time>2017-05-14T07:53:13Z</time>
      </trkpt>
      <trkpt lat="49.23776" lon="0.17365">
        <ele>124.2</ele>
        <time>2017-05-14T07:53:14Z</time>
      </trkpt>
      <trkpt lat="49.23778" lon="0.17355">
        <ele>124</ele>
        <time>2017-05-14T07:53:15Z</time>
      </trkpt>
      <trkpt lat="49.2378" lon="0.17346">
        <ele>124.1</ele>
        <time>2017-05-14T07:53:16Z</time>
      </trkpt>
      <trkpt lat="49.23782" lon="0.17339">
        <ele>123.9</ele>
        <time>2017-05-14T07:53:17Z</time>
      </trkpt>
      <trkpt lat="49.23783" lon="0.17332">
        <ele>123.9</ele>
        <time>2017-05-14T07:53:18Z</time>
      </trkpt>
      <trkpt lat="49.23784" lon="0.17325">
        <ele>123.7</ele>
        <time>2017-05-14T07:53:19Z</time>
      </trkpt>
      <trkpt lat="49.23785" lon="0.17318">
        <ele>123.7</ele>
        <time>2017-05-14T07:53:20Z</time>
      </trkpt>
      <trkpt lat="49.23785" lon="0.17311">
        <ele>123.8</ele>
        <time>2017-05-14T07:53:21Z</time>
      </trkpt>
      <trkpt lat="49.23785" lon="0.17305">
        <ele>123.9</ele>
        <time>2017-05-14T07:53:22Z</time>
      </trkpt>
      <trkpt lat="49.23786" lon="0.17297">
        <ele>124.2</ele>
        <time>2017-05-14T07:53:23Z</time>
      </trkpt>
      <trkpt lat="49.23787" lon="0.17287">
        <ele>124.5</ele>
        <time>2017-05-14T07:53:24Z</time>
      </trkpt>
      <trkpt lat="49.23788" lon="0.17277">
        <ele>124.8</ele>
        <time>2017-05-14T07:53:25Z</time>
      </trkpt>
      <trkpt lat="49.23789" lon="0.17265">
        <ele>124.7</ele>
        <time>2017-05-14T07:53:26Z</time>
      </trkpt>
      <trkpt lat="49.2379" lon="0.17252">
        <ele>124.6</ele>
        <time>2017-05-14T07:53:27Z</time>
      </trkpt>
      <trkpt lat="49.23791" lon="0.17241">
        <ele>124.5</ele>
        <time>2017-05-14T07:53:28Z</time>
      </trkpt>
      <trkpt lat="49.23791" lon="0.17232">
        <ele>124.4</ele>
        <time>2017-05-14T07:53:29Z</time>
      </trkpt>
      <trkpt lat="49.23792" lon="0.17224">
        <ele>124.4</ele>
        <time>2017-05-14T07:53:30Z</time>
      </trkpt>
      <trkpt lat="49.23792" lon="0.17218">
        <ele>124.4</ele>
        <time>2017-05-14T07:53:31Z</time>
      </trkpt>
      <trkpt lat="49.23794" lon="0.17214">
        <ele>124.4</ele>
        <time>2017-05-14T07:53:32Z</time>
      </trkpt>
      <trkpt lat="49.23795" lon="0.17208">
        <ele>124.3</ele>
        <time>2017-05-14T07:53:33Z</time>
      </trkpt>
      <trkpt lat="49.23796" lon="0.17201">
        <ele>124.3</ele>
        <time>2017-05-14T07:53:34Z</time>
      </trkpt>
      <trkpt lat="49.23797" lon="0.17193">
        <ele>124.3</ele>
        <time>2017-05-14T07:53:35Z</time>
      </trkpt>
      <trkpt lat="49.23798" lon="0.17186">
        <ele>124.2</ele>
        <time>2017-05-14T07:53:36Z</time>
      </trkpt>
      <trkpt lat="49.238" lon="0.17176">
        <ele>124.1</ele>
        <time>2017-05-14T07:53:37Z</time>
      </trkpt>
      <trkpt lat="49.23802" lon="0.17166">
        <ele>123.8</ele>
        <time>2017-05-14T07:53:38Z</time>
      </trkpt>
      <trkpt lat="49.23803" lon="0.17157">
        <ele>123.5</ele>
        <time>2017-05-14T07:53:39Z</time>
      </trkpt>
      <trkpt lat="49.23805" lon="0.17148">
        <ele>123.1</ele>
        <time>2017-05-14T07:53:40Z</time>
      </trkpt>
      <trkpt lat="49.23806" lon="0.17139">
        <ele>122.7</ele>
        <time>2017-05-14T07:53:41Z</time>
      </trkpt>
      <trkpt lat="49.23807" lon="0.1713">
        <ele>122.3</ele>
        <time>2017-05-14T07:53:42Z</time>
      </trkpt>
      <trkpt lat="49.23807" lon="0.17123">
        <ele>122.1</ele>
        <time>2017-05-14T07:53:43Z</time>
      </trkpt>
      <trkpt lat="49.23808" lon="0.17116">
        <ele>121.8</ele>
        <time>2017-05-14T07:53:44Z</time>
      </trkpt>
      <trkpt lat="49.2381" lon="0.17109">
        <ele>121.2</ele>
        <time>2017-05-14T07:53:45Z</time>
      </trkpt>
      <trkpt lat="49.23815" lon="0.17101">
        <ele>120.8</ele>
        <time>2017-05-14T07:53:46Z</time>
      </trkpt>
      <trkpt lat="49.23819" lon="0.17096">
        <ele>120.6</ele>
        <time>2017-05-14T07:53:47Z</time>
      </trkpt>
      <trkpt lat="49.23822" lon="0.17093">
        <ele>120.5</ele>
        <time>2017-05-14T07:53:48Z</time>
      </trkpt>
      <trkpt lat="49.23825" lon="0.1709">
        <ele>120.4</ele>
        <time>2017-05-14T07:53:49Z</time>
      </trkpt>
      <trkpt lat="49.2383" lon="0.17086">
        <ele>120.3</ele>
        <time>2017-05-14T07:53:51Z</time>
      </trkpt>
      <trkpt lat="49.23833" lon="0.17084">
        <ele>120.3</ele>
        <time>2017-05-14T07:53:52Z</time>
      </trkpt>
      <trkpt lat="49.23837" lon="0.17079">
        <ele>120.2</ele>
        <time>2017-05-14T07:53:53Z</time>
      </trkpt>
      <trkpt lat="49.2384" lon="0.17076">
        <ele>120.1</ele>
        <time>2017-05-14T07:53:54Z</time>
      </trkpt>
      <trkpt lat="49.23843" lon="0.17072">
        <ele>120.1</ele>
        <time>2017-05-14T07:53:55Z</time>
      </trkpt>
      <trkpt lat="49.23848" lon="0.17066">
        <ele>120</ele>
        <time>2017-05-14T07:53:56Z</time>
      </trkpt>
      <trkpt lat="49.23855" lon="0.17059">
        <ele>119.9</ele>
        <time>2017-05-14T07:53:57Z</time>
      </trkpt>
      <trkpt lat="49.23861" lon="0.17054">
        <ele>119.7</ele>
        <time>2017-05-14T07:53:58Z</time>
      </trkpt>
      <trkpt lat="49.23866" lon="0.17047">
        <ele>119.6</ele>
        <time>2017-05-14T07:53:59Z</time>
      </trkpt>
      <trkpt lat="49.23872" lon="0.1704">
        <ele>119.2</ele>
        <time>2017-05-14T07:54:00Z</time>
      </trkpt>
      <trkpt lat="49.23877" lon="0.17034">
        <ele>118.6</ele>
        <time>2017-05-14T07:54:01Z</time>
      </trkpt>
      <trkpt lat="49.23882" lon="0.17027">
        <ele>118.2</ele>
        <time>2017-05-14T07:54:02Z</time>
      </trkpt>
      <trkpt lat="49.23887" lon="0.17019">
        <ele>118</ele>
        <time>2017-05-14T07:54:03Z</time>
      </trkpt>
      <trkpt lat="49.23891" lon="0.17015">
        <ele>117.9</ele>
        <time>2017-05-14T07:54:04Z</time>
      </trkpt>
      <trkpt lat="49.23895" lon="0.17011">
        <ele>117.8</ele>
        <time>2017-05-14T07:54:05Z</time>
      </trkpt>
      <trkpt lat="49.23902" lon="0.17006">
        <ele>117.7</ele>
        <time>2017-05-14T07:54:06Z</time>
      </trkpt>
      <trkpt lat="49.23909" lon="0.17002">
        <ele>117.6</ele>
        <time>2017-05-14T07:54:07Z</time>
      </trkpt>
      <trkpt lat="49.23914" lon="0.16995">
        <ele>117.5</ele>
        <time>2017-05-14T07:54:08Z</time>
      </trkpt>
      <trkpt lat="49.23921" lon="0.16989">
        <ele>117.4</ele>
        <time>2017-05-14T07:54:09Z</time>
      </trkpt>
      <trkpt lat="49.23926" lon="0.16986">
        <ele>117.3</ele>
        <time>2017-05-14T07:54:10Z</time>
      </trkpt>
      <trkpt lat="49.23934" lon="0.16978">
        <ele>117.2</ele>
        <time>2017-05-14T07:54:11Z</time>
      </trkpt>
      <trkpt lat="49.23942" lon="0.16971">
        <ele>117</ele>
        <time>2017-05-14T07:54:12Z</time>
      </trkpt>
      <trkpt lat="49.2395" lon="0.16967">
        <ele>116.9</ele>
        <time>2017-05-14T07:54:13Z</time>
      </trkpt>
      <trkpt lat="49.23956" lon="0.16963">
        <ele>116.5</ele>
        <time>2017-05-14T07:54:14Z</time>
      </trkpt>
      <trkpt lat="49.23962" lon="0.16962">
        <ele>116.1</ele>
        <time>2017-05-14T07:54:15Z</time>
      </trkpt>
      <trkpt lat="49.23969" lon="0.16963">
        <ele>115.9</ele>
        <time>2017-05-14T07:54:16Z</time>
      </trkpt>
      <trkpt lat="49.23976" lon="0.16963">
        <ele>115.7</ele>
        <time>2017-05-14T07:54:17Z</time>
      </trkpt>
      <trkpt lat="49.23985" lon="0.16965">
        <ele>115.5</ele>
        <time>2017-05-14T07:54:18Z</time>
      </trkpt>
      <trkpt lat="49.23994" lon="0.16966">
        <ele>115.4</ele>
        <time>2017-05-14T07:54:19Z</time>
      </trkpt>
      <trkpt lat="49.24" lon="0.16967">
        <ele>115.4</ele>
        <time>2017-05-14T07:54:20Z</time>
      </trkpt>
      <trkpt lat="49.24006" lon="0.16968">
        <ele>115.3</ele>
        <time>2017-05-14T07:54:21Z</time>
      </trkpt>
      <trkpt lat="49.24012" lon="0.1697">
        <ele>115.2</ele>
        <time>2017-05-14T07:54:22Z</time>
      </trkpt>
      <trkpt lat="49.24018" lon="0.16971">
        <ele>115.2</ele>
        <time>2017-05-14T07:54:23Z</time>
      </trkpt>
      <trkpt lat="49.24025" lon="0.16972">
        <ele>115.2</ele>
        <time>2017-05-14T07:54:24Z</time>
      </trkpt>
      <trkpt lat="49.24034" lon="0.16971">
        <ele>115.1</ele>
        <time>2017-05-14T07:54:25Z</time>
      </trkpt>
      <trkpt lat="49.24042" lon="0.1697">
        <ele>115.1</ele>
        <time>2017-05-14T07:54:26Z</time>
      </trkpt>
      <trkpt lat="49.24049" lon="0.16967">
        <ele>115.1</ele>
        <time>2017-05-14T07:54:27Z</time>
      </trkpt>
      <trkpt lat="49.24058" lon="0.16962">
        <ele>115.1</ele>
        <time>2017-05-14T07:54:28Z</time>
      </trkpt>
      <trkpt lat="49.24065" lon="0.16956">
        <ele>115</ele>
        <time>2017-05-14T07:54:29Z</time>
      </trkpt>
      <trkpt lat="49.24072" lon="0.16951">
        <ele>115</ele>
        <time>2017-05-14T07:54:30Z</time>
      </trkpt>
      <trkpt lat="49.24077" lon="0.16946">
        <ele>115</ele>
        <time>2017-05-14T07:54:31Z</time>
      </trkpt>
      <trkpt lat="49.24082" lon="0.16941">
        <ele>115</ele>
        <time>2017-05-14T07:54:32Z</time>
      </trkpt>
      <trkpt lat="49.24086" lon="0.16938">
        <ele>114.9</ele>
        <time>2017-05-14T07:54:33Z</time>
      </trkpt>
      <trkpt lat="49.24091" lon="0.16934">
        <ele>114.9</ele>
        <time>2017-05-14T07:54:34Z</time>
      </trkpt>
      <trkpt lat="49.24096" lon="0.16931">
        <ele>114.9</ele>
        <time>2017-05-14T07:54:35Z</time>
      </trkpt>
      <trkpt lat="49.24103" lon="0.16929">
        <ele>114.9</ele>
        <time>2017-05-14T07:54:36Z</time>
      </trkpt>
      <trkpt lat="49.2411" lon="0.16926">
        <ele>114.9</ele>
        <time>2017-05-14T07:54:37Z</time>
      </trkpt>
      <trkpt lat="49.24118" lon="0.16925">
        <ele>114.8</ele>
        <time>2017-05-14T07:54:38Z</time>
      </trkpt>
      <trkpt lat="49.24126" lon="0.16924">
        <ele>114.8</ele>
        <time>2017-05-14T07:54:39Z</time>
      </trkpt>
      <trkpt lat="49.24134" lon="0.16923">
        <ele>114.8</ele>
        <time>2017-05-14T07:54:40Z</time>
      </trkpt>
      <trkpt lat="49.24143" lon="0.16923">
        <ele>114.8</ele>
        <time>2017-05-14T07:54:41Z</time>
      </trkpt>
      <trkpt lat="49.2415" lon="0.16923">
        <ele>114.8</ele>
        <time>2017-05-14T07:54:42Z</time>
      </trkpt>
      <trkpt lat="49.24159" lon="0.16924">
        <ele>114.7</ele>
        <time>2017-05-14T07:54:43Z</time>
      </trkpt>
      <trkpt lat="49.24165" lon="0.16923">
        <ele>114.7</ele>
        <time>2017-05-14T07:54:44Z</time>
      </trkpt>
      <trkpt lat="49.24171" lon="0.16924">
        <ele>114.7</ele>
        <time>2017-05-14T07:54:45Z</time>
      </trkpt>
      <trkpt lat="49.24177" lon="0.16925">
        <ele>114.7</ele>
        <time>2017-05-14T07:54:46Z</time>
      </trkpt>
      <trkpt lat="49.24183" lon="0.16926">
        <ele>114.7</ele>
        <time>2017-05-14T07:54:47Z</time>
      </trkpt>
      <trkpt lat="49.24188" lon="0.16927">
        <ele>114.6</ele>
        <time>2017-05-14T07:54:48Z</time>
      </trkpt>
      <trkpt lat="49.24194" lon="0.16926">
        <ele>114.6</ele>
        <time>2017-05-14T07:54:49Z</time>
      </trkpt>
      <trkpt lat="49.24197" lon="0.16926">
        <ele>114.6</ele>
        <time>2017-05-14T07:54:50Z</time>
      </trkpt>
      <trkpt lat="49.24201" lon="0.16927">
        <ele>114.6</ele>
        <time>2017-05-14T07:54:51Z</time>
      </trkpt>
      <trkpt lat="49.24209" lon="0.16926">
        <ele>114.5</ele>
        <time>2017-05-14T07:54:52Z</time>
      </trkpt>
      <trkpt lat="49.24213" lon="0.16924">
        <ele>114.4</ele>
        <time>2017-05-14T07:54:53Z</time>
      </trkpt>
      <trkpt lat="49.24217" lon="0.16923">
        <ele>114.3</ele>
        <time>2017-05-14T07:54:54Z</time>
      </trkpt>
      <trkpt lat="49.24224" lon="0.16921">
        <ele>114</ele>
        <time>2017-05-14T07:54:55Z</time>
      </trkpt>
      <trkpt lat="49.2423" lon="0.16918">
        <ele>113.6</ele>
        <time>2017-05-14T07:54:56Z</time>
      </trkpt>
      <trkpt lat="49.24233" lon="0.16912">
        <ele>113.2</ele>
        <time>2017-05-14T07:54:58Z</time>
      </trkpt>
      <trkpt lat="49.24231" lon="0.16905">
        <ele>113</ele>
        <time>2017-05-14T07:55:00Z</time>
      </trkpt>
      <trkpt lat="49.24231" lon="0.169">
        <ele>112.6</ele>
        <time>2017-05-14T07:55:01Z</time>
      </trkpt>
      <trkpt lat="49.24233" lon="0.16893">
        <ele>112.4</ele>
        <time>2017-05-14T07:55:02Z</time>
      </trkpt>
      <trkpt lat="49.24234" lon="0.16886">
        <ele>112.2</ele>
        <time>2017-05-14T07:55:03Z</time>
      </trkpt>
      <trkpt lat="49.24233" lon="0.16879">
        <ele>112.2</ele>
        <time>2017-05-14T07:55:04Z</time>
      </trkpt>
      <trkpt lat="49.24231" lon="0.16871">
        <ele>112.2</ele>
        <time>2017-05-14T07:55:05Z</time>
      </trkpt>
      <trkpt lat="49.24231" lon="0.16861">
        <ele>112.2</ele>
        <time>2017-05-14T07:55:06Z</time>
      </trkpt>
      <trkpt lat="49.24231" lon="0.16851">
        <ele>112.1</ele>
        <time>2017-05-14T07:55:07Z</time>
      </trkpt>
      <trkpt lat="49.24232" lon="0.16843">
        <ele>111.8</ele>
        <time>2017-05-14T07:55:08Z</time>
      </trkpt>
      <trkpt lat="49.24232" lon="0.16834">
        <ele>111.6</ele>
        <time>2017-05-14T07:55:09Z</time>
      </trkpt>
      <trkpt lat="49.24232" lon="0.16826">
        <ele>111.5</ele>
        <time>2017-05-14T07:55:10Z</time>
      </trkpt>
      <trkpt lat="49.24231" lon="0.16817">
        <ele>111.1</ele>
        <time>2017-05-14T07:55:11Z</time>
      </trkpt>
      <trkpt lat="49.24233" lon="0.16809">
        <ele>110.9</ele>
        <time>2017-05-14T07:55:12Z</time>
      </trkpt>
      <trkpt lat="49.24235" lon="0.168">
        <ele>110.5</ele>
        <time>2017-05-14T07:55:13Z</time>
      </trkpt>
      <trkpt lat="49.24236" lon="0.1679">
        <ele>109.6</ele>
        <time>2017-05-14T07:55:14Z</time>
      </trkpt>
      <trkpt lat="49.24238" lon="0.16779">
        <ele>108.3</ele>
        <time>2017-05-14T07:55:15Z</time>
      </trkpt>
      <trkpt lat="49.24239" lon="0.16767">
        <ele>107</ele>
        <time>2017-05-14T07:55:16Z</time>
      </trkpt>
      <trkpt lat="49.24239" lon="0.16754">
        <ele>105.8</ele>
        <time>2017-05-14T07:55:17Z</time>
      </trkpt>
      <trkpt lat="49.24238" lon="0.16742">
        <ele>105</ele>
        <time>2017-05-14T07:55:18Z</time>
      </trkpt>
      <trkpt lat="49.24237" lon="0.16728">
        <ele>103.2</ele>
        <time>2017-05-14T07:55:19Z</time>
      </trkpt>
      <trkpt lat="49.24234" lon="0.16716">
        <ele>102.2</ele>
        <time>2017-05-14T07:55:20Z</time>
      </trkpt>
      <trkpt lat="49.24232" lon="0.16706">
        <ele>100.1</ele>
        <time>2017-05-14T07:55:21Z</time>
      </trkpt>
      <trkpt lat="49.24229" lon="0.16695">
        <ele>99.1</ele>
        <time>2017-05-14T07:55:22Z</time>
      </trkpt>
      <trkpt lat="49.24229" lon="0.16688">
        <ele>98.1</ele>
        <time>2017-05-14T07:55:23Z</time>
      </trkpt>
      <trkpt lat="49.24228" lon="0.16679">
        <ele>97.4</ele>
        <time>2017-05-14T07:55:24Z</time>
      </trkpt>
      <trkpt lat="49.24224" lon="0.16672">
        <ele>96.7</ele>
        <time>2017-05-14T07:55:25Z</time>
      </trkpt>
      <trkpt lat="49.24217" lon="0.16665">
        <ele>96.6</ele>
        <time>2017-05-14T07:55:26Z</time>
      </trkpt>
      <trkpt lat="49.24209" lon="0.1666">
        <ele>96.2</ele>
        <time>2017-05-14T07:55:27Z</time>
      </trkpt>
      <trkpt lat="49.24205" lon="0.16658">
        <ele>95.6</ele>
        <time>2017-05-14T07:55:28Z</time>
      </trkpt>
      <trkpt lat="49.24202" lon="0.16656">
        <ele>95.7</ele>
        <time>2017-05-14T07:55:29Z</time>
      </trkpt>
      <trkpt lat="49.24197" lon="0.16653">
        <ele>94.9</ele>
        <time>2017-05-14T07:55:30Z</time>
      </trkpt>
      <trkpt lat="49.24196" lon="0.16645">
        <ele>93.3</ele>
        <time>2017-05-14T07:55:32Z</time>
      </trkpt>
      <trkpt lat="49.24195" lon="0.16638">
        <ele>92</ele>
        <time>2017-05-14T07:55:34Z</time>
      </trkpt>
      <trkpt lat="49.24195" lon="0.16631">
        <ele>91.5</ele>
        <time>2017-05-14T07:55:36Z</time>
      </trkpt>
      <trkpt lat="49.24194" lon="0.16625">
        <ele>90.4</ele>
        <time>2017-05-14T07:55:38Z</time>
      </trkpt>
      <trkpt lat="49.24196" lon="0.16617">
        <ele>90</ele>
        <time>2017-05-14T07:55:41Z</time>
      </trkpt>
      <trkpt lat="49.242" lon="0.16606">
        <ele>89</ele>
        <time>2017-05-14T07:55:42Z</time>
      </trkpt>
      <trkpt lat="49.24208" lon="0.16594">
        <ele>87.9</ele>
        <time>2017-05-14T07:55:43Z</time>
      </trkpt>
      <trkpt lat="49.24215" lon="0.16581">
        <ele>87.2</ele>
        <time>2017-05-14T07:55:44Z</time>
      </trkpt>
      <trkpt lat="49.2422" lon="0.16576">
        <ele>86.8</ele>
        <time>2017-05-14T07:55:45Z</time>
      </trkpt>
      <trkpt lat="49.24222" lon="0.16573">
        <ele>86.2</ele>
        <time>2017-05-14T07:55:47Z</time>
      </trkpt>
      <trkpt lat="49.24226" lon="0.16573">
        <ele>86.1</ele>
        <time>2017-05-14T07:55:49Z</time>
      </trkpt>
      <trkpt lat="49.24232" lon="0.16571">
        <ele>85.8</ele>
        <time>2017-05-14T07:55:51Z</time>
      </trkpt>
      <trkpt lat="49.24237" lon="0.16572">
        <ele>85.6</ele>
        <time>2017-05-14T07:55:52Z</time>
      </trkpt>
      <trkpt lat="49.2424" lon="0.16566">
        <ele>85</ele>
        <time>2017-05-14T07:55:54Z</time>
      </trkpt>
      <trkpt lat="49.24244" lon="0.1656">
        <ele>83.9</ele>
        <time>2017-05-14T07:55:55Z</time>
      </trkpt>
      <trkpt lat="49.24247" lon="0.1656">
        <ele>83.8</ele>
        <time>2017-05-14T07:55:56Z</time>
      </trkpt>
      <trkpt lat="49.24251" lon="0.16561">
        <ele>83.7</ele>
        <time>2017-05-14T07:55:57Z</time>
      </trkpt>
      <trkpt lat="49.24255" lon="0.16561">
        <ele>84</ele>
        <time>2017-05-14T07:55:58Z</time>
      </trkpt>
      <trkpt lat="49.24259" lon="0.16562">
        <ele>83.9</ele>
        <time>2017-05-14T07:55:59Z</time>
      </trkpt>
      <trkpt lat="49.24266" lon="0.16562">
        <ele>83.6</ele>
        <time>2017-05-14T07:56:00Z</time>
      </trkpt>
      <trkpt lat="49.24273" lon="0.16564">
        <ele>83.5</ele>
        <time>2017-05-14T07:56:01Z</time>
      </trkpt>
      <trkpt lat="49.24279" lon="0.16566">
        <ele>84.1</ele>
        <time>2017-05-14T07:56:02Z</time>
      </trkpt>
      <trkpt lat="49.24286" lon="0.16566">
        <ele>84.3</ele>
        <time>2017-05-14T07:56:03Z</time>
      </trkpt>
      <trkpt lat="49.24294" lon="0.16564">
        <ele>84.2</ele>
        <time>2017-05-14T07:56:04Z</time>
      </trkpt>
      <trkpt lat="49.24301" lon="0.16561">
        <ele>84.7</ele>
        <time>2017-05-14T07:56:05Z</time>
      </trkpt>
      <trkpt lat="49.24308" lon="0.16561">
        <ele>85</ele>
        <time>2017-05-14T07:56:06Z</time>
      </trkpt>
      <trkpt lat="49.24315" lon="0.16559">
        <ele>85.7</ele>
        <time>2017-05-14T07:56:07Z</time>
      </trkpt>
      <trkpt lat="49.24321" lon="0.16557">
        <ele>86.6</ele>
        <time>2017-05-14T07:56:08Z</time>
      </trkpt>
      <trkpt lat="49.24327" lon="0.16554">
        <ele>86.6</ele>
        <time>2017-05-14T07:56:09Z</time>
      </trkpt>
      <trkpt lat="49.24334" lon="0.16551">
        <ele>87.1</ele>
        <time>2017-05-14T07:56:10Z</time>
      </trkpt>
      <trkpt lat="49.2434" lon="0.16546">
        <ele>87.1</ele>
        <time>2017-05-14T07:56:11Z</time>
      </trkpt>
      <trkpt lat="49.24348" lon="0.16543">
        <ele>87</ele>
        <time>2017-05-14T07:56:12Z</time>
      </trkpt>
      <trkpt lat="49.24353" lon="0.16541">
        <ele>87.1</ele>
        <time>2017-05-14T07:56:13Z</time>
      </trkpt>
      <trkpt lat="49.24358" lon="0.16542">
        <ele>87</ele>
        <time>2017-05-14T07:56:14Z</time>
      </trkpt>
      <trkpt lat="49.24361" lon="0.16544">
        <ele>87.5</ele>
        <time>2017-05-14T07:56:15Z</time>
      </trkpt>
      <trkpt lat="49.24364" lon="0.16547">
        <ele>87.4</ele>
        <time>2017-05-14T07:56:16Z</time>
      </trkpt>
      <trkpt lat="49.24369" lon="0.1655">
        <ele>87.7</ele>
        <time>2017-05-14T07:56:18Z</time>
      </trkpt>
      <trkpt lat="49.24374" lon="0.1655">
        <ele>87.6</ele>
        <time>2017-05-14T07:56:21Z</time>
      </trkpt>
      <trkpt lat="49.24377" lon="0.16551">
        <ele>87.5</ele>
        <time>2017-05-14T07:56:22Z</time>
      </trkpt>
      <trkpt lat="49.2438" lon="0.16553">
        <ele>87.7</ele>
        <time>2017-05-14T07:56:23Z</time>
      </trkpt>
      <trkpt lat="49.24382" lon="0.16555">
        <ele>87.7</ele>
        <time>2017-05-14T07:56:24Z</time>
      </trkpt>
      <trkpt lat="49.24386" lon="0.16558">
        <ele>88</ele>
        <time>2017-05-14T07:56:26Z</time>
      </trkpt>
      <trkpt lat="49.24389" lon="0.16563">
        <ele>88.4</ele>
        <time>2017-05-14T07:56:28Z</time>
      </trkpt>
      <trkpt lat="49.24391" lon="0.16569">
        <ele>89.1</ele>
        <time>2017-05-14T07:56:30Z</time>
      </trkpt>
      <trkpt lat="49.24393" lon="0.16573">
        <ele>89.7</ele>
        <time>2017-05-14T07:56:32Z</time>
      </trkpt>
      <trkpt lat="49.24396" lon="0.16579">
        <ele>90.9</ele>
        <time>2017-05-14T07:56:34Z</time>
      </trkpt>
      <trkpt lat="49.24398" lon="0.16583">
        <ele>91.4</ele>
        <time>2017-05-14T07:56:37Z</time>
      </trkpt>
      <trkpt lat="49.244" lon="0.16585">
        <ele>91.3</ele>
        <time>2017-05-14T07:56:38Z</time>
      </trkpt>
      <trkpt lat="49.24402" lon="0.1659">
        <ele>91.9</ele>
        <time>2017-05-14T07:56:41Z</time>
      </trkpt>
      <trkpt lat="49.24403" lon="0.16595">
        <ele>92.4</ele>
        <time>2017-05-14T07:56:45Z</time>
      </trkpt>
      <trkpt lat="49.24407" lon="0.16597">
        <ele>93.1</ele>
        <time>2017-05-14T07:56:47Z</time>
      </trkpt>
      <trkpt lat="49.2441" lon="0.16597">
        <ele>93.1</ele>
        <time>2017-05-14T07:56:52Z</time>
      </trkpt>
      <trkpt lat="49.24419" lon="0.16593">
        <ele>92.1</ele>
        <time>2017-05-14T07:56:54Z</time>
      </trkpt>
      <trkpt lat="49.24426" lon="0.16594">
        <ele>92</ele>
        <time>2017-05-14T07:56:55Z</time>
      </trkpt>
      <trkpt lat="49.24432" lon="0.16593">
        <ele>92</ele>
        <time>2017-05-14T07:56:56Z</time>
      </trkpt>
      <trkpt lat="49.24438" lon="0.16593">
        <ele>92</ele>
        <time>2017-05-14T07:56:57Z</time>
      </trkpt>
      <trkpt lat="49.24444" lon="0.16593">
        <ele>92.1</ele>
        <time>2017-05-14T07:56:58Z</time>
      </trkpt>
      <trkpt lat="49.2445" lon="0.16592">
        <ele>92.2</ele>
        <time>2017-05-14T07:56:59Z</time>
      </trkpt>
      <trkpt lat="49.24453" lon="0.16591">
        <ele>92.3</ele>
        <time>2017-05-14T07:57:00Z</time>
      </trkpt>
      <trkpt lat="49.24459" lon="0.16591">
        <ele>92.6</ele>
        <time>2017-05-14T07:57:01Z</time>
      </trkpt>
      <trkpt lat="49.24465" lon="0.16589">
        <ele>92.1</ele>
        <time>2017-05-14T07:57:02Z</time>
      </trkpt>
      <trkpt lat="49.24471" lon="0.16592">
        <ele>92.9</ele>
        <time>2017-05-14T07:57:03Z</time>
      </trkpt>
      <trkpt lat="49.24477" lon="0.16594">
        <ele>92.9</ele>
        <time>2017-05-14T07:57:04Z</time>
      </trkpt>
      <trkpt lat="49.24484" lon="0.16595">
        <ele>92.9</ele>
        <time>2017-05-14T07:57:05Z</time>
      </trkpt>
      <trkpt lat="49.24493" lon="0.16596">
        <ele>93.5</ele>
        <time>2017-05-14T07:57:06Z</time>
      </trkpt>
      <trkpt lat="49.24501" lon="0.16596">
        <ele>93.6</ele>
        <time>2017-05-14T07:57:07Z</time>
      </trkpt>
      <trkpt lat="49.24511" lon="0.16595">
        <ele>93.1</ele>
        <time>2017-05-14T07:57:08Z</time>
      </trkpt>
      <trkpt lat="49.24516" lon="0.16596">
        <ele>93.8</ele>
        <time>2017-05-14T07:57:09Z</time>
      </trkpt>
      <trkpt lat="49.24523" lon="0.16597">
        <ele>93.8</ele>
        <time>2017-05-14T07:57:10Z</time>
      </trkpt>
      <trkpt lat="49.24531" lon="0.16599">
        <ele>93.7</ele>
        <time>2017-05-14T07:57:11Z</time>
      </trkpt>
      <trkpt lat="49.24539" lon="0.16601">
        <ele>93.9</ele>
        <time>2017-05-14T07:57:12Z</time>
      </trkpt>
      <trkpt lat="49.24546" lon="0.16602">
        <ele>93.2</ele>
        <time>2017-05-14T07:57:13Z</time>
      </trkpt>
      <trkpt lat="49.2455" lon="0.16602">
        <ele>92.9</ele>
        <time>2017-05-14T07:57:14Z</time>
      </trkpt>
      <trkpt lat="49.24557" lon="0.16599">
        <ele>91.6</ele>
        <time>2017-05-14T07:57:15Z</time>
      </trkpt>
      <trkpt lat="49.24563" lon="0.16595">
        <ele>90.6</ele>
        <time>2017-05-14T07:57:16Z</time>
      </trkpt>
      <trkpt lat="49.24569" lon="0.16591">
        <ele>90.3</ele>
        <time>2017-05-14T07:57:17Z</time>
      </trkpt>
      <trkpt lat="49.24573" lon="0.16589">
        <ele>89.7</ele>
        <time>2017-05-14T07:57:18Z</time>
      </trkpt>
      <trkpt lat="49.24581" lon="0.16586">
        <ele>88.8</ele>
        <time>2017-05-14T07:57:19Z</time>
      </trkpt>
      <trkpt lat="49.24588" lon="0.16581">
        <ele>87.6</ele>
        <time>2017-05-14T07:57:20Z</time>
      </trkpt>
      <trkpt lat="49.24596" lon="0.16578">
        <ele>86.2</ele>
        <time>2017-05-14T07:57:21Z</time>
      </trkpt>
      <trkpt lat="49.24601" lon="0.16574">
        <ele>84.4</ele>
        <time>2017-05-14T07:57:22Z</time>
      </trkpt>
      <trkpt lat="49.24607" lon="0.16569">
        <ele>83.4</ele>
        <time>2017-05-14T07:57:23Z</time>
      </trkpt>
      <trkpt lat="49.24613" lon="0.16569">
        <ele>82.6</ele>
        <time>2017-05-14T07:57:24Z</time>
      </trkpt>
      <trkpt lat="49.24617" lon="0.16568">
        <ele>82.3</ele>
        <time>2017-05-14T07:57:25Z</time>
      </trkpt>
      <trkpt lat="49.24621" lon="0.16568">
        <ele>82</ele>
        <time>2017-05-14T07:57:26Z</time>
      </trkpt>
      <trkpt lat="49.24626" lon="0.16565">
        <ele>81</ele>
        <time>2017-05-14T07:57:27Z</time>
      </trkpt>
      <trkpt lat="49.24635" lon="0.16559">
        <ele>79.7</ele>
        <time>2017-05-14T07:57:28Z</time>
      </trkpt>
      <trkpt lat="49.24643" lon="0.16553">
        <ele>79.3</ele>
        <time>2017-05-14T07:57:29Z</time>
      </trkpt>
      <trkpt lat="49.24649" lon="0.16549">
        <ele>78.7</ele>
        <time>2017-05-14T07:57:30Z</time>
      </trkpt>
      <trkpt lat="49.24656" lon="0.16545">
        <ele>78.1</ele>
        <time>2017-05-14T07:57:31Z</time>
      </trkpt>
      <trkpt lat="49.2466" lon="0.16542">
        <ele>77.2</ele>
        <time>2017-05-14T07:57:32Z</time>
      </trkpt>
      <trkpt lat="49.24666" lon="0.1654">
        <ele>76.9</ele>
        <time>2017-05-14T07:57:33Z</time>
      </trkpt>
      <trkpt lat="49.24671" lon="0.16538">
        <ele>75.7</ele>
        <time>2017-05-14T07:57:34Z</time>
      </trkpt>
      <trkpt lat="49.24676" lon="0.16535">
        <ele>74.5</ele>
        <time>2017-05-14T07:57:35Z</time>
      </trkpt>
      <trkpt lat="49.24682" lon="0.16531">
        <ele>73.4</ele>
        <time>2017-05-14T07:57:36Z</time>
      </trkpt>
      <trkpt lat="49.24687" lon="0.16527">
        <ele>72.5</ele>
        <time>2017-05-14T07:57:37Z</time>
      </trkpt>
      <trkpt lat="49.24693" lon="0.16523">
        <ele>71.6</ele>
        <time>2017-05-14T07:57:38Z</time>
      </trkpt>
      <trkpt lat="49.24698" lon="0.16518">
        <ele>70.8</ele>
        <time>2017-05-14T07:57:39Z</time>
      </trkpt>
      <trkpt lat="49.24706" lon="0.16513">
        <ele>69.6</ele>
        <time>2017-05-14T07:57:40Z</time>
      </trkpt>
      <trkpt lat="49.24712" lon="0.1651">
        <ele>69.1</ele>
        <time>2017-05-14T07:57:41Z</time>
      </trkpt>
      <trkpt lat="49.2472" lon="0.16508">
        <ele>68.6</ele>
        <time>2017-05-14T07:57:42Z</time>
      </trkpt>
      <trkpt lat="49.24727" lon="0.16506">
        <ele>68.4</ele>
        <time>2017-05-14T07:57:43Z</time>
      </trkpt>
      <trkpt lat="49.24733" lon="0.16505">
        <ele>68.1</ele>
        <time>2017-05-14T07:57:44Z</time>
      </trkpt>
      <trkpt lat="49.24741" lon="0.16503">
        <ele>67.9</ele>
        <time>2017-05-14T07:57:45Z</time>
      </trkpt>
      <trkpt lat="49.24747" lon="0.16502">
        <ele>67.7</ele>
        <time>2017-05-14T07:57:46Z</time>
      </trkpt>
      <trkpt lat="49.24754" lon="0.165">
        <ele>67.3</ele>
        <time>2017-05-14T07:57:47Z</time>
      </trkpt>
      <trkpt lat="49.24762" lon="0.16501">
        <ele>67.1</ele>
        <time>2017-05-14T07:57:48Z</time>
      </trkpt>
      <trkpt lat="49.2477" lon="0.16501">
        <ele>66.8</ele>
        <time>2017-05-14T07:57:49Z</time>
      </trkpt>
      <trkpt lat="49.24777" lon="0.16502">
        <ele>66.6</ele>
        <time>2017-05-14T07:57:50Z</time>
      </trkpt>
      <trkpt lat="49.24783" lon="0.16503">
        <ele>66.6</ele>
        <time>2017-05-14T07:57:51Z</time>
      </trkpt>
      <trkpt lat="49.24787" lon="0.16503">
        <ele>66.5</ele>
        <time>2017-05-14T07:57:52Z</time>
      </trkpt>
      <trkpt lat="49.2479" lon="0.16503">
        <ele>66.5</ele>
        <time>2017-05-14T07:57:53Z</time>
      </trkpt>
      <trkpt lat="49.24794" lon="0.16502">
        <ele>66.6</ele>
        <time>2017-05-14T07:57:54Z</time>
      </trkpt>
      <trkpt lat="49.24802" lon="0.16501">
        <ele>66.6</ele>
        <time>2017-05-14T07:57:55Z</time>
      </trkpt>
      <trkpt lat="49.24812" lon="0.16501">
        <ele>66.6</ele>
        <time>2017-05-14T07:57:56Z</time>
      </trkpt>
      <trkpt lat="49.24821" lon="0.165">
        <ele>66.4</ele>
        <time>2017-05-14T07:57:57Z</time>
      </trkpt>
      <trkpt lat="49.24825" lon="0.165">
        <ele>66.4</ele>
        <time>2017-05-14T07:57:58Z</time>
      </trkpt>
      <trkpt lat="49.24832" lon="0.16499">
        <ele>66.4</ele>
        <time>2017-05-14T07:57:59Z</time>
      </trkpt>
      <trkpt lat="49.24841" lon="0.16497">
        <ele>66.6</ele>
        <time>2017-05-14T07:58:00Z</time>
      </trkpt>
      <trkpt lat="49.24848" lon="0.16496">
        <ele>66.6</ele>
        <time>2017-05-14T07:58:01Z</time>
      </trkpt>
      <trkpt lat="49.24855" lon="0.16495">
        <ele>66.9</ele>
        <time>2017-05-14T07:58:02Z</time>
      </trkpt>
      <trkpt lat="49.2486" lon="0.16494">
        <ele>67.1</ele>
        <time>2017-05-14T07:58:03Z</time>
      </trkpt>
      <trkpt lat="49.24865" lon="0.16493">
        <ele>67.2</ele>
        <time>2017-05-14T07:58:04Z</time>
      </trkpt>
      <trkpt lat="49.24868" lon="0.16493">
        <ele>67.4</ele>
        <time>2017-05-14T07:58:05Z</time>
      </trkpt>
      <trkpt lat="49.24872" lon="0.16493">
        <ele>67.5</ele>
        <time>2017-05-14T07:58:06Z</time>
      </trkpt>
      <trkpt lat="49.24875" lon="0.16492">
        <ele>67.2</ele>
        <time>2017-05-14T07:58:07Z</time>
      </trkpt>
      <trkpt lat="49.2488" lon="0.16493">
        <ele>67.8</ele>
        <time>2017-05-14T07:58:08Z</time>
      </trkpt>
      <trkpt lat="49.24884" lon="0.16493">
        <ele>68</ele>
        <time>2017-05-14T07:58:09Z</time>
      </trkpt>
      <trkpt lat="49.24887" lon="0.16493">
        <ele>68</ele>
        <time>2017-05-14T07:58:10Z</time>
      </trkpt>
      <trkpt lat="49.24886" lon="0.16503">
        <ele>68.7</ele>
        <time>2017-05-14T07:58:12Z</time>
      </trkpt>
      <trkpt lat="49.24885" lon="0.16511">
        <ele>69.6</ele>
        <time>2017-05-14T07:58:13Z</time>
      </trkpt>
      <trkpt lat="49.24886" lon="0.16507">
        <ele>69.1</ele>
        <time>2017-05-14T07:58:15Z</time>
      </trkpt>
      <trkpt lat="49.24888" lon="0.16501">
        <ele>68.8</ele>
        <time>2017-05-14T07:58:16Z</time>
      </trkpt>
      <trkpt lat="49.24891" lon="0.16488">
        <ele>67.8</ele>
        <time>2017-05-14T07:58:17Z</time>
      </trkpt>
      <trkpt lat="49.24894" lon="0.16477">
        <ele>67</ele>
        <time>2017-05-14T07:58:18Z</time>
      </trkpt>
      <trkpt lat="49.24898" lon="0.16466">
        <ele>66.3</ele>
        <time>2017-05-14T07:58:19Z</time>
      </trkpt>
      <trkpt lat="49.249" lon="0.16451">
        <ele>65.2</ele>
        <time>2017-05-14T07:58:20Z</time>
      </trkpt>
      <trkpt lat="49.24901" lon="0.16442">
        <ele>64.6</ele>
        <time>2017-05-14T07:58:21Z</time>
      </trkpt>
      <trkpt lat="49.24901" lon="0.16431">
        <ele>64</ele>
        <time>2017-05-14T07:58:22Z</time>
      </trkpt>
      <trkpt lat="49.24902" lon="0.16421">
        <ele>63.6</ele>
        <time>2017-05-14T07:58:23Z</time>
      </trkpt>
      <trkpt lat="49.24904" lon="0.1641">
        <ele>63.3</ele>
        <time>2017-05-14T07:58:24Z</time>
      </trkpt>
      <trkpt lat="49.24905" lon="0.16399">
        <ele>62.9</ele>
        <time>2017-05-14T07:58:25Z</time>
      </trkpt>
      <trkpt lat="49.24907" lon="0.16389">
        <ele>62.5</ele>
        <time>2017-05-14T07:58:26Z</time>
      </trkpt>
      <trkpt lat="49.24908" lon="0.16378">
        <ele>62.3</ele>
        <time>2017-05-14T07:58:27Z</time>
      </trkpt>
      <trkpt lat="49.24909" lon="0.16371">
        <ele>62</ele>
        <time>2017-05-14T07:58:28Z</time>
      </trkpt>
      <trkpt lat="49.2491" lon="0.1636">
        <ele>61.6</ele>
        <time>2017-05-14T07:58:29Z</time>
      </trkpt>
      <trkpt lat="49.24913" lon="0.16347">
        <ele>60.7</ele>
        <time>2017-05-14T07:58:30Z</time>
      </trkpt>
      <trkpt lat="49.24914" lon="0.16336">
        <ele>59.7</ele>
        <time>2017-05-14T07:58:31Z</time>
      </trkpt>
      <trkpt lat="49.24915" lon="0.16326">
        <ele>59.3</ele>
        <time>2017-05-14T07:58:32Z</time>
      </trkpt>
      <trkpt lat="49.24916" lon="0.16313">
        <ele>58.8</ele>
        <time>2017-05-14T07:58:33Z</time>
      </trkpt>
      <trkpt lat="49.24915" lon="0.163">
        <ele>58.3</ele>
        <time>2017-05-14T07:58:34Z</time>
      </trkpt>
      <trkpt lat="49.24915" lon="0.16284">
        <ele>56.9</ele>
        <time>2017-05-14T07:58:35Z</time>
      </trkpt>
      <trkpt lat="49.24914" lon="0.16269">
        <ele>56.1</ele>
        <time>2017-05-14T07:58:36Z</time>
      </trkpt>
      <trkpt lat="49.24914" lon="0.16253">
        <ele>55.6</ele>
        <time>2017-05-14T07:58:37Z</time>
      </trkpt>
      <trkpt lat="49.24913" lon="0.16236">
        <ele>54.7</ele>
        <time>2017-05-14T07:58:38Z</time>
      </trkpt>
      <trkpt lat="49.24913" lon="0.16221">
        <ele>53.3</ele>
        <time>2017-05-14T07:58:39Z</time>
      </trkpt>
      <trkpt lat="49.24913" lon="0.16205">
        <ele>52.2</ele>
        <time>2017-05-14T07:58:40Z</time>
      </trkpt>
      <trkpt lat="49.24914" lon="0.1619">
        <ele>51.3</ele>
        <time>2017-05-14T07:58:41Z</time>
      </trkpt>
      <trkpt lat="49.24916" lon="0.16176">
        <ele>50.9</ele>
        <time>2017-05-14T07:58:42Z</time>
      </trkpt>
      <trkpt lat="49.24918" lon="0.16164">
        <ele>50.4</ele>
        <time>2017-05-14T07:58:43Z</time>
      </trkpt>
      <trkpt lat="49.24918" lon="0.16155">
        <ele>49.7</ele>
        <time>2017-05-14T07:58:44Z</time>
      </trkpt>
      <trkpt lat="49.24918" lon="0.16147">
        <ele>49.6</ele>
        <time>2017-05-14T07:58:45Z</time>
      </trkpt>
      <trkpt lat="49.24919" lon="0.16141">
        <ele>49.6</ele>
        <time>2017-05-14T07:58:46Z</time>
      </trkpt>
      <trkpt lat="49.24922" lon="0.16136">
        <ele>49.5</ele>
        <time>2017-05-14T07:58:47Z</time>
      </trkpt>
      <trkpt lat="49.24927" lon="0.16132">
        <ele>49.4</ele>
        <time>2017-05-14T07:58:48Z</time>
      </trkpt>
      <trkpt lat="49.24931" lon="0.16131">
        <ele>49.4</ele>
        <time>2017-05-14T07:58:49Z</time>
      </trkpt>
      <trkpt lat="49.24935" lon="0.1613">
        <ele>49.3</ele>
        <time>2017-05-14T07:58:50Z</time>
      </trkpt>
      <trkpt lat="49.2494" lon="0.16128">
        <ele>49.1</ele>
        <time>2017-05-14T07:58:51Z</time>
      </trkpt>
      <trkpt lat="49.24946" lon="0.16126">
        <ele>49</ele>
        <time>2017-05-14T07:58:52Z</time>
      </trkpt>
      <trkpt lat="49.24951" lon="0.16124">
        <ele>48.8</ele>
        <time>2017-05-14T07:58:53Z</time>
      </trkpt>
      <trkpt lat="49.24956" lon="0.16123">
        <ele>48.7</ele>
        <time>2017-05-14T07:58:54Z</time>
      </trkpt>
      <trkpt lat="49.24961" lon="0.16122">
        <ele>48.6</ele>
        <time>2017-05-14T07:58:55Z</time>
      </trkpt>
      <trkpt lat="49.24964" lon="0.1612">
        <ele>48.5</ele>
        <time>2017-05-14T07:58:56Z</time>
      </trkpt>
      <trkpt lat="49.24969" lon="0.16119">
        <ele>48.3</ele>
        <time>2017-05-14T07:58:57Z</time>
      </trkpt>
      <trkpt lat="49.24974" lon="0.16117">
        <ele>48.2</ele>
        <time>2017-05-14T07:58:58Z</time>
      </trkpt>
      <trkpt lat="49.24978" lon="0.16113">
        <ele>48.3</ele>
        <time>2017-05-14T07:58:59Z</time>
      </trkpt>
      <trkpt lat="49.24979" lon="0.16106">
        <ele>48.4</ele>
        <time>2017-05-14T07:59:00Z</time>
      </trkpt>
      <trkpt lat="49.24981" lon="0.16098">
        <ele>48.5</ele>
        <time>2017-05-14T07:59:01Z</time>
      </trkpt>
      <trkpt lat="49.24982" lon="0.16089">
        <ele>48.5</ele>
        <time>2017-05-14T07:59:02Z</time>
      </trkpt>
      <trkpt lat="49.24983" lon="0.16079">
        <ele>48.6</ele>
        <time>2017-05-14T07:59:03Z</time>
      </trkpt>
      <trkpt lat="49.24984" lon="0.16071">
        <ele>48.6</ele>
        <time>2017-05-14T07:59:04Z</time>
      </trkpt>
      <trkpt lat="49.24983" lon="0.16063">
        <ele>48.6</ele>
        <time>2017-05-14T07:59:05Z</time>
      </trkpt>
      <trkpt lat="49.24982" lon="0.16056">
        <ele>48.6</ele>
        <time>2017-05-14T07:59:06Z</time>
      </trkpt>
      <trkpt lat="49.24981" lon="0.1605">
        <ele>48.6</ele>
        <time>2017-05-14T07:59:07Z</time>
      </trkpt>
      <trkpt lat="49.24978" lon="0.16045">
        <ele>48.6</ele>
        <time>2017-05-14T07:59:08Z</time>
      </trkpt>
      <trkpt lat="49.24975" lon="0.16039">
        <ele>48.6</ele>
        <time>2017-05-14T07:59:09Z</time>
      </trkpt>
      <trkpt lat="49.24972" lon="0.16034">
        <ele>48.6</ele>
        <time>2017-05-14T07:59:10Z</time>
      </trkpt>
      <trkpt lat="49.24969" lon="0.16027">
        <ele>48.6</ele>
        <time>2017-05-14T07:59:11Z</time>
      </trkpt>
      <trkpt lat="49.24967" lon="0.16023">
        <ele>48.6</ele>
        <time>2017-05-14T07:59:12Z</time>
      </trkpt>
      <trkpt lat="49.24965" lon="0.16019">
        <ele>48.7</ele>
        <time>2017-05-14T07:59:13Z</time>
      </trkpt>
      <trkpt lat="49.24963" lon="0.16016">
        <ele>48.7</ele>
        <time>2017-05-14T07:59:14Z</time>
      </trkpt>
      <trkpt lat="49.2496" lon="0.16012">
        <ele>48.7</ele>
        <time>2017-05-14T07:59:16Z</time>
      </trkpt>
      <trkpt lat="49.24958" lon="0.16005">
        <ele>48.7</ele>
        <time>2017-05-14T07:59:18Z</time>
      </trkpt>
      <trkpt lat="49.24957" lon="0.16002">
        <ele>48.7</ele>
        <time>2017-05-14T07:59:19Z</time>
      </trkpt>
      <trkpt lat="49.24955" lon="0.15997">
        <ele>48.7</ele>
        <time>2017-05-14T07:59:20Z</time>
      </trkpt>
      <trkpt lat="49.24954" lon="0.15991">
        <ele>48.7</ele>
        <time>2017-05-14T07:59:21Z</time>
      </trkpt>
      <trkpt lat="49.24952" lon="0.15985">
        <ele>48.8</ele>
        <time>2017-05-14T07:59:22Z</time>
      </trkpt>
      <trkpt lat="49.2495" lon="0.15977">
        <ele>48.8</ele>
        <time>2017-05-14T07:59:23Z</time>
      </trkpt>
      <trkpt lat="49.24949" lon="0.1597">
        <ele>48.9</ele>
        <time>2017-05-14T07:59:24Z</time>
      </trkpt>
      <trkpt lat="49.24949" lon="0.15963">
        <ele>49</ele>
        <time>2017-05-14T07:59:25Z</time>
      </trkpt>
      <trkpt lat="49.24949" lon="0.15957">
        <ele>49.1</ele>
        <time>2017-05-14T07:59:26Z</time>
      </trkpt>
      <trkpt lat="49.24948" lon="0.1595">
        <ele>49.3</ele>
        <time>2017-05-14T07:59:27Z</time>
      </trkpt>
      <trkpt lat="49.24946" lon="0.15943">
        <ele>49.6</ele>
        <time>2017-05-14T07:59:28Z</time>
      </trkpt>
      <trkpt lat="49.24945" lon="0.15937">
        <ele>49.9</ele>
        <time>2017-05-14T07:59:29Z</time>
      </trkpt>
      <trkpt lat="49.24944" lon="0.1593">
        <ele>50.2</ele>
        <time>2017-05-14T07:59:30Z</time>
      </trkpt>
      <trkpt lat="49.24943" lon="0.15926">
        <ele>50.4</ele>
        <time>2017-05-14T07:59:31Z</time>
      </trkpt>
      <trkpt lat="49.24942" lon="0.15917">
        <ele>50.8</ele>
        <time>2017-05-14T07:59:32Z</time>
      </trkpt>
      <trkpt lat="49.24942" lon="0.15907">
        <ele>51.1</ele>
        <time>2017-05-14T07:59:33Z</time>
      </trkpt>
      <trkpt lat="49.24941" lon="0.15898">
        <ele>51.6</ele>
        <time>2017-05-14T07:59:34Z</time>
      </trkpt>
      <trkpt lat="49.24941" lon="0.1589">
        <ele>52.1</ele>
        <time>2017-05-14T07:59:35Z</time>
      </trkpt>
      <trkpt lat="49.2494" lon="0.15883">
        <ele>52.5</ele>
        <time>2017-05-14T07:59:36Z</time>
      </trkpt>
      <trkpt lat="49.2494" lon="0.15876">
        <ele>52.9</ele>
        <time>2017-05-14T07:59:37Z</time>
      </trkpt>
      <trkpt lat="49.2494" lon="0.15869">
        <ele>53.3</ele>
        <time>2017-05-14T07:59:38Z</time>
      </trkpt>
      <trkpt lat="49.24939" lon="0.15862">
        <ele>53.8</ele>
        <time>2017-05-14T07:59:40Z</time>
      </trkpt>
      <trkpt lat="49.24938" lon="0.15855">
        <ele>54.1</ele>
        <time>2017-05-14T07:59:42Z</time>
      </trkpt>
      <trkpt lat="49.24937" lon="0.15848">
        <ele>54.5</ele>
        <time>2017-05-14T07:59:44Z</time>
      </trkpt>
      <trkpt lat="49.24936" lon="0.15841">
        <ele>54.8</ele>
        <time>2017-05-14T07:59:46Z</time>
      </trkpt>
      <trkpt lat="49.24935" lon="0.15836">
        <ele>54.9</ele>
        <time>2017-05-14T07:59:47Z</time>
      </trkpt>
      <trkpt lat="49.24934" lon="0.15832">
        <ele>55.1</ele>
        <time>2017-05-14T07:59:48Z</time>
      </trkpt>
      <trkpt lat="49.24933" lon="0.15828">
        <ele>55.2</ele>
        <time>2017-05-14T07:59:49Z</time>
      </trkpt>
      <trkpt lat="49.24931" lon="0.15824">
        <ele>55.4</ele>
        <time>2017-05-14T07:59:50Z</time>
      </trkpt>
      <trkpt lat="49.2493" lon="0.15819">
        <ele>55.6</ele>
        <time>2017-05-14T07:59:51Z</time>
      </trkpt>
      <trkpt lat="49.2493" lon="0.15815">
        <ele>55.8</ele>
        <time>2017-05-14T07:59:52Z</time>
      </trkpt>
      <trkpt lat="49.24929" lon="0.1581">
        <ele>55.9</ele>
        <time>2017-05-14T07:59:53Z</time>
      </trkpt>
      <trkpt lat="49.24925" lon="0.15804">
        <ele>56.2</ele>
        <time>2017-05-14T07:59:57Z</time>
      </trkpt>
      <trkpt lat="49.24925" lon="0.15799">
        <ele>56.4</ele>
        <time>2017-05-14T07:59:58Z</time>
      </trkpt>
      <trkpt lat="49.24923" lon="0.15791">
        <ele>56.5</ele>
        <time>2017-05-14T08:00:00Z</time>
      </trkpt>
      <trkpt lat="49.24922" lon="0.15784">
        <ele>56.6</ele>
        <time>2017-05-14T08:00:01Z</time>
      </trkpt>
      <trkpt lat="49.2492" lon="0.15777">
        <ele>56.7</ele>
        <time>2017-05-14T08:00:02Z</time>
      </trkpt>
      <trkpt lat="49.24918" lon="0.15768">
        <ele>56.9</ele>
        <time>2017-05-14T08:00:03Z</time>
      </trkpt>
      <trkpt lat="49.24916" lon="0.1576">
        <ele>57.1</ele>
        <time>2017-05-14T08:00:04Z</time>
      </trkpt>
      <trkpt lat="49.24914" lon="0.15753">
        <ele>57.3</ele>
        <time>2017-05-14T08:00:05Z</time>
      </trkpt>
      <trkpt lat="49.24912" lon="0.15748">
        <ele>57.5</ele>
        <time>2017-05-14T08:00:06Z</time>
      </trkpt>
      <trkpt lat="49.2491" lon="0.15743">
        <ele>57.7</ele>
        <time>2017-05-14T08:00:07Z</time>
      </trkpt>
      <trkpt lat="49.24908" lon="0.15738">
        <ele>57.9</ele>
        <time>2017-05-14T08:00:08Z</time>
      </trkpt>
      <trkpt lat="49.24906" lon="0.15733">
        <ele>58</ele>
        <time>2017-05-14T08:00:09Z</time>
      </trkpt>
      <trkpt lat="49.24904" lon="0.15728">
        <ele>58.2</ele>
        <time>2017-05-14T08:00:10Z</time>
      </trkpt>
      <trkpt lat="49.249" lon="0.1572">
        <ele>58.3</ele>
        <time>2017-05-14T08:00:11Z</time>
      </trkpt>
      <trkpt lat="49.24896" lon="0.15713">
        <ele>58.3</ele>
        <time>2017-05-14T08:00:12Z</time>
      </trkpt>
      <trkpt lat="49.24894" lon="0.15707">
        <ele>58.3</ele>
        <time>2017-05-14T08:00:13Z</time>
      </trkpt>
      <trkpt lat="49.24891" lon="0.15703">
        <ele>58.3</ele>
        <time>2017-05-14T08:00:14Z</time>
      </trkpt>
      <trkpt lat="49.2489" lon="0.157">
        <ele>58.3</ele>
        <time>2017-05-14T08:00:15Z</time>
      </trkpt>
      <trkpt lat="49.24888" lon="0.15694">
        <ele>58.3</ele>
        <time>2017-05-14T08:00:17Z</time>
      </trkpt>
      <trkpt lat="49.24884" lon="0.15686">
        <ele>58.4</ele>
        <time>2017-05-14T08:00:20Z</time>
      </trkpt>
      <trkpt lat="49.24883" lon="0.15681">
        <ele>59</ele>
        <time>2017-05-14T08:00:21Z</time>
      </trkpt>
      <trkpt lat="49.24881" lon="0.15677">
        <ele>59.4</ele>
        <time>2017-05-14T08:00:22Z</time>
      </trkpt>
      <trkpt lat="49.24876" lon="0.1567">
        <ele>59.7</ele>
        <time>2017-05-14T08:00:24Z</time>
      </trkpt>
      <trkpt lat="49.24874" lon="0.15666">
        <ele>60.1</ele>
        <time>2017-05-14T08:00:25Z</time>
      </trkpt>
      <trkpt lat="49.24871" lon="0.15663">
        <ele>60.3</ele>
        <time>2017-05-14T08:00:26Z</time>
      </trkpt>
      <trkpt lat="49.24869" lon="0.15658">
        <ele>60.5</ele>
        <time>2017-05-14T08:00:27Z</time>
      </trkpt>
      <trkpt lat="49.24866" lon="0.15654">
        <ele>60.5</ele>
        <time>2017-05-14T08:00:28Z</time>
      </trkpt>
      <trkpt lat="49.24865" lon="0.1565">
        <ele>60.4</ele>
        <time>2017-05-14T08:00:29Z</time>
      </trkpt>
      <trkpt lat="49.24863" lon="0.15643">
        <ele>60.4</ele>
        <time>2017-05-14T08:00:31Z</time>
      </trkpt>
      <trkpt lat="49.24861" lon="0.15631">
        <ele>59.7</ele>
        <time>2017-05-14T08:00:36Z</time>
      </trkpt>
      <trkpt lat="49.24859" lon="0.15628">
        <ele>59.4</ele>
        <time>2017-05-14T08:00:38Z</time>
      </trkpt>
      <trkpt lat="49.24856" lon="0.15626">
        <ele>59.1</ele>
        <time>2017-05-14T08:00:40Z</time>
      </trkpt>
      <trkpt lat="49.24853" lon="0.15624">
        <ele>58.6</ele>
        <time>2017-05-14T08:00:41Z</time>
      </trkpt>
      <trkpt lat="49.24843" lon="0.15618">
        <ele>57.9</ele>
        <time>2017-05-14T08:00:43Z</time>
      </trkpt>
      <trkpt lat="49.24833" lon="0.15615">
        <ele>57.4</ele>
        <time>2017-05-14T08:00:44Z</time>
      </trkpt>
      <trkpt lat="49.24824" lon="0.15612">
        <ele>57.4</ele>
        <time>2017-05-14T08:00:45Z</time>
      </trkpt>
      <trkpt lat="49.24817" lon="0.15611">
        <ele>57.8</ele>
        <time>2017-05-14T08:00:46Z</time>
      </trkpt>
      <trkpt lat="49.2481" lon="0.15609">
        <ele>58.1</ele>
        <time>2017-05-14T08:00:47Z</time>
      </trkpt>
      <trkpt lat="49.24803" lon="0.15608">
        <ele>58.5</ele>
        <time>2017-05-14T08:00:48Z</time>
      </trkpt>
      <trkpt lat="49.24797" lon="0.15608">
        <ele>58.8</ele>
        <time>2017-05-14T08:00:49Z</time>
      </trkpt>
      <trkpt lat="49.24793" lon="0.15607">
        <ele>59</ele>
        <time>2017-05-14T08:00:50Z</time>
      </trkpt>
      <trkpt lat="49.2479" lon="0.15606">
        <ele>59.1</ele>
        <time>2017-05-14T08:00:51Z</time>
      </trkpt>
      <trkpt lat="49.24786" lon="0.15604">
        <ele>59.4</ele>
        <time>2017-05-14T08:00:53Z</time>
      </trkpt>
      <trkpt lat="49.24783" lon="0.15602">
        <ele>59.4</ele>
        <time>2017-05-14T08:00:55Z</time>
      </trkpt>
      <trkpt lat="49.2478" lon="0.15601">
        <ele>59.5</ele>
        <time>2017-05-14T08:00:56Z</time>
      </trkpt>
      <trkpt lat="49.24778" lon="0.15599">
        <ele>59.5</ele>
        <time>2017-05-14T08:00:57Z</time>
      </trkpt>
      <trkpt lat="49.24775" lon="0.15597">
        <ele>59.5</ele>
        <time>2017-05-14T08:00:58Z</time>
      </trkpt>
      <trkpt lat="49.24771" lon="0.15594">
        <ele>59.4</ele>
        <time>2017-05-14T08:01:00Z</time>
      </trkpt>
      <trkpt lat="49.24767" lon="0.15591">
        <ele>59.2</ele>
        <time>2017-05-14T08:01:02Z</time>
      </trkpt>
      <trkpt lat="49.24765" lon="0.15588">
        <ele>59.3</ele>
        <time>2017-05-14T08:01:04Z</time>
      </trkpt>
      <trkpt lat="49.24762" lon="0.15584">
        <ele>59.2</ele>
        <time>2017-05-14T08:01:06Z</time>
      </trkpt>
      <trkpt lat="49.24759" lon="0.1558">
        <ele>59.1</ele>
        <time>2017-05-14T08:01:08Z</time>
      </trkpt>
      <trkpt lat="49.24756" lon="0.15578">
        <ele>59.1</ele>
        <time>2017-05-14T08:01:11Z</time>
      </trkpt>
      <trkpt lat="49.24753" lon="0.15576">
        <ele>59.2</ele>
        <time>2017-05-14T08:01:13Z</time>
      </trkpt>
      <trkpt lat="49.24748" lon="0.15572">
        <ele>59.3</ele>
        <time>2017-05-14T08:01:15Z</time>
      </trkpt>
      <trkpt lat="49.24744" lon="0.1557">
        <ele>59.2</ele>
        <time>2017-05-14T08:01:17Z</time>
      </trkpt>
      <trkpt lat="49.24734" lon="0.15552">
        <ele>59.2</ele>
        <time>2017-05-14T08:01:23Z</time>
      </trkpt>
      <trkpt lat="49.24732" lon="0.15547">
        <ele>59.4</ele>
        <time>2017-05-14T08:01:24Z</time>
      </trkpt>
      <trkpt lat="49.24729" lon="0.15543">
        <ele>59.7</ele>
        <time>2017-05-14T08:01:25Z</time>
      </trkpt>
      <trkpt lat="49.24726" lon="0.1554">
        <ele>60.1</ele>
        <time>2017-05-14T08:01:26Z</time>
      </trkpt>
      <trkpt lat="49.24722" lon="0.15537">
        <ele>60.3</ele>
        <time>2017-05-14T08:01:27Z</time>
      </trkpt>
      <trkpt lat="49.24718" lon="0.15533">
        <ele>60.8</ele>
        <time>2017-05-14T08:01:28Z</time>
      </trkpt>
      <trkpt lat="49.24713" lon="0.1553">
        <ele>61.1</ele>
        <time>2017-05-14T08:01:29Z</time>
      </trkpt>
      <trkpt lat="49.24709" lon="0.15527">
        <ele>61.4</ele>
        <time>2017-05-14T08:01:30Z</time>
      </trkpt>
      <trkpt lat="49.24705" lon="0.15524">
        <ele>61.6</ele>
        <time>2017-05-14T08:01:31Z</time>
      </trkpt>
      <trkpt lat="49.247" lon="0.15521">
        <ele>61.7</ele>
        <time>2017-05-14T08:01:32Z</time>
      </trkpt>
      <trkpt lat="49.24696" lon="0.15519">
        <ele>62.2</ele>
        <time>2017-05-14T08:01:33Z</time>
      </trkpt>
      <trkpt lat="49.24691" lon="0.15517">
        <ele>62.4</ele>
        <time>2017-05-14T08:01:34Z</time>
      </trkpt>
      <trkpt lat="49.24688" lon="0.15516">
        <ele>62.9</ele>
        <time>2017-05-14T08:01:35Z</time>
      </trkpt>
      <trkpt lat="49.24684" lon="0.15513">
        <ele>63.2</ele>
        <time>2017-05-14T08:01:36Z</time>
      </trkpt>
      <trkpt lat="49.24679" lon="0.15512">
        <ele>63.8</ele>
        <time>2017-05-14T08:01:37Z</time>
      </trkpt>
      <trkpt lat="49.24674" lon="0.1551">
        <ele>64.1</ele>
        <time>2017-05-14T08:01:38Z</time>
      </trkpt>
      <trkpt lat="49.2467" lon="0.15509">
        <ele>64.4</ele>
        <time>2017-05-14T08:01:39Z</time>
      </trkpt>
      <trkpt lat="49.24666" lon="0.15507">
        <ele>64.7</ele>
        <time>2017-05-14T08:01:40Z</time>
      </trkpt>
      <trkpt lat="49.24662" lon="0.15507">
        <ele>65.2</ele>
        <time>2017-05-14T08:01:41Z</time>
      </trkpt>
      <trkpt lat="49.24658" lon="0.15505">
        <ele>65.4</ele>
        <time>2017-05-14T08:01:42Z</time>
      </trkpt>
      <trkpt lat="49.24655" lon="0.15504">
        <ele>65.7</ele>
        <time>2017-05-14T08:01:43Z</time>
      </trkpt>
      <trkpt lat="49.24652" lon="0.15503">
        <ele>66</ele>
        <time>2017-05-14T08:01:44Z</time>
      </trkpt>
      <trkpt lat="49.24649" lon="0.15501">
        <ele>66.3</ele>
        <time>2017-05-14T08:01:45Z</time>
      </trkpt>
      <trkpt lat="49.24644" lon="0.15498">
        <ele>66.6</ele>
        <time>2017-05-14T08:01:47Z</time>
      </trkpt>
      <trkpt lat="49.24642" lon="0.15497">
        <ele>66.7</ele>
        <time>2017-05-14T08:01:48Z</time>
      </trkpt>
      <trkpt lat="49.24639" lon="0.15495">
        <ele>66.7</ele>
        <time>2017-05-14T08:01:49Z</time>
      </trkpt>
      <trkpt lat="49.24637" lon="0.15493">
        <ele>66.7</ele>
        <time>2017-05-14T08:01:50Z</time>
      </trkpt>
      <trkpt lat="49.24634" lon="0.15492">
        <ele>66.5</ele>
        <time>2017-05-14T08:01:51Z</time>
      </trkpt>
      <trkpt lat="49.2463" lon="0.15489">
        <ele>66.4</ele>
        <time>2017-05-14T08:01:52Z</time>
      </trkpt>
      <trkpt lat="49.24626" lon="0.15487">
        <ele>66</ele>
        <time>2017-05-14T08:01:53Z</time>
      </trkpt>
      <trkpt lat="49.24622" lon="0.15485">
        <ele>65.9</ele>
        <time>2017-05-14T08:01:54Z</time>
      </trkpt>
      <trkpt lat="49.24618" lon="0.15483">
        <ele>65.6</ele>
        <time>2017-05-14T08:01:55Z</time>
      </trkpt>
      <trkpt lat="49.24616" lon="0.15482">
        <ele>65.5</ele>
        <time>2017-05-14T08:01:56Z</time>
      </trkpt>
      <trkpt lat="49.24612" lon="0.1548">
        <ele>65.4</ele>
        <time>2017-05-14T08:01:57Z</time>
      </trkpt>
      <trkpt lat="49.24609" lon="0.15479">
        <ele>65.2</ele>
        <time>2017-05-14T08:01:58Z</time>
      </trkpt>
      <trkpt lat="49.24606" lon="0.15477">
        <ele>65.3</ele>
        <time>2017-05-14T08:01:59Z</time>
      </trkpt>
      <trkpt lat="49.24603" lon="0.15476">
        <ele>65.5</ele>
        <time>2017-05-14T08:02:00Z</time>
      </trkpt>
      <trkpt lat="49.24597" lon="0.15474">
        <ele>65.8</ele>
        <time>2017-05-14T08:02:02Z</time>
      </trkpt>
      <trkpt lat="49.24594" lon="0.15472">
        <ele>66.1</ele>
        <time>2017-05-14T08:02:03Z</time>
      </trkpt>
      <trkpt lat="49.24589" lon="0.1547">
        <ele>66.6</ele>
        <time>2017-05-14T08:02:05Z</time>
      </trkpt>
      <trkpt lat="49.24585" lon="0.15468">
        <ele>66.9</ele>
        <time>2017-05-14T08:02:07Z</time>
      </trkpt>
      <trkpt lat="49.24582" lon="0.15466">
        <ele>67.2</ele>
        <time>2017-05-14T08:02:08Z</time>
      </trkpt>
      <trkpt lat="49.24579" lon="0.15465">
        <ele>67.5</ele>
        <time>2017-05-14T08:02:09Z</time>
      </trkpt>
      <trkpt lat="49.24575" lon="0.15463">
        <ele>67.9</ele>
        <time>2017-05-14T08:02:10Z</time>
      </trkpt>
      <trkpt lat="49.24572" lon="0.15462">
        <ele>68</ele>
        <time>2017-05-14T08:02:11Z</time>
      </trkpt>
      <trkpt lat="49.2457" lon="0.15461">
        <ele>68.5</ele>
        <time>2017-05-14T08:02:12Z</time>
      </trkpt>
      <trkpt lat="49.24565" lon="0.15458">
        <ele>69.1</ele>
        <time>2017-05-14T08:02:14Z</time>
      </trkpt>
      <trkpt lat="49.2456" lon="0.15455">
        <ele>69.6</ele>
        <time>2017-05-14T08:02:16Z</time>
      </trkpt>
      <trkpt lat="49.24557" lon="0.15454">
        <ele>70</ele>
        <time>2017-05-14T08:02:17Z</time>
      </trkpt>
      <trkpt lat="49.24552" lon="0.15451">
        <ele>70.4</ele>
        <time>2017-05-14T08:02:19Z</time>
      </trkpt>
      <trkpt lat="49.2455" lon="0.15449">
        <ele>70.6</ele>
        <time>2017-05-14T08:02:20Z</time>
      </trkpt>
      <trkpt lat="49.24545" lon="0.15447">
        <ele>71.5</ele>
        <time>2017-05-14T08:02:22Z</time>
      </trkpt>
      <trkpt lat="49.24543" lon="0.15445">
        <ele>71.6</ele>
        <time>2017-05-14T08:02:23Z</time>
      </trkpt>
      <trkpt lat="49.2454" lon="0.15445">
        <ele>72.3</ele>
        <time>2017-05-14T08:02:24Z</time>
      </trkpt>
      <trkpt lat="49.24535" lon="0.15443">
        <ele>73</ele>
        <time>2017-05-14T08:02:26Z</time>
      </trkpt>
      <trkpt lat="49.24531" lon="0.15441">
        <ele>74.2</ele>
        <time>2017-05-14T08:02:28Z</time>
      </trkpt>
      <trkpt lat="49.24527" lon="0.15439">
        <ele>74.4</ele>
        <time>2017-05-14T08:02:30Z</time>
      </trkpt>
      <trkpt lat="49.24523" lon="0.15437">
        <ele>75.1</ele>
        <time>2017-05-14T08:02:32Z</time>
      </trkpt>
      <trkpt lat="49.2452" lon="0.15434">
        <ele>76.1</ele>
        <time>2017-05-14T08:02:34Z</time>
      </trkpt>
      <trkpt lat="49.24517" lon="0.15432">
        <ele>76.5</ele>
        <time>2017-05-14T08:02:35Z</time>
      </trkpt>
      <trkpt lat="49.24513" lon="0.15429">
        <ele>77.3</ele>
        <time>2017-05-14T08:02:37Z</time>
      </trkpt>
      <trkpt lat="49.24509" lon="0.15426">
        <ele>78.4</ele>
        <time>2017-05-14T08:02:39Z</time>
      </trkpt>
      <trkpt lat="49.24504" lon="0.15425">
        <ele>79.1</ele>
        <time>2017-05-14T08:02:41Z</time>
      </trkpt>
      <trkpt lat="49.24499" lon="0.15423">
        <ele>79.9</ele>
        <time>2017-05-14T08:02:43Z</time>
      </trkpt>
      <trkpt lat="49.24494" lon="0.15421">
        <ele>81.3</ele>
        <time>2017-05-14T08:02:45Z</time>
      </trkpt>
      <trkpt lat="49.2449" lon="0.1542">
        <ele>82.1</ele>
        <time>2017-05-14T08:02:47Z</time>
      </trkpt>
      <trkpt lat="49.24486" lon="0.15419">
        <ele>82.8</ele>
        <time>2017-05-14T08:02:49Z</time>
      </trkpt>
      <trkpt lat="49.24483" lon="0.15418">
        <ele>83.5</ele>
        <time>2017-05-14T08:02:50Z</time>
      </trkpt>
      <trkpt lat="49.2448" lon="0.15417">
        <ele>84.1</ele>
        <time>2017-05-14T08:02:51Z</time>
      </trkpt>
      <trkpt lat="49.24476" lon="0.15416">
        <ele>84.7</ele>
        <time>2017-05-14T08:02:53Z</time>
      </trkpt>
      <trkpt lat="49.24472" lon="0.15415">
        <ele>84.9</ele>
        <time>2017-05-14T08:02:55Z</time>
      </trkpt>
      <trkpt lat="49.24469" lon="0.15414">
        <ele>85.3</ele>
        <time>2017-05-14T08:02:57Z</time>
      </trkpt>
      <trkpt lat="49.24465" lon="0.15412">
        <ele>85.8</ele>
        <time>2017-05-14T08:02:59Z</time>
      </trkpt>
      <trkpt lat="49.24462" lon="0.15411">
        <ele>85.5</ele>
        <time>2017-05-14T08:03:00Z</time>
      </trkpt>
      <trkpt lat="49.24456" lon="0.15409">
        <ele>86.2</ele>
        <time>2017-05-14T08:03:03Z</time>
      </trkpt>
      <trkpt lat="49.24452" lon="0.15409">
        <ele>86.9</ele>
        <time>2017-05-14T08:03:06Z</time>
      </trkpt>
      <trkpt lat="49.24449" lon="0.15408">
        <ele>87.1</ele>
        <time>2017-05-14T08:03:08Z</time>
      </trkpt>
      <trkpt lat="49.24444" lon="0.15406">
        <ele>87</ele>
        <time>2017-05-14T08:03:10Z</time>
      </trkpt>
      <trkpt lat="49.24441" lon="0.15404">
        <ele>87.3</ele>
        <time>2017-05-14T08:03:13Z</time>
      </trkpt>
      <trkpt lat="49.24435" lon="0.15404">
        <ele>88</ele>
        <time>2017-05-14T08:03:16Z</time>
      </trkpt>
      <trkpt lat="49.24421" lon="0.15393">
        <ele>88.4</ele>
        <time>2017-05-14T08:03:25Z</time>
      </trkpt>
      <trkpt lat="49.24415" lon="0.15392">
        <ele>89.1</ele>
        <time>2017-05-14T08:03:27Z</time>
      </trkpt>
      <trkpt lat="49.24407" lon="0.15388">
        <ele>89.8</ele>
        <time>2017-05-14T08:03:31Z</time>
      </trkpt>
      <trkpt lat="49.24346" lon="0.15354">
        <ele>94.9</ele>
        <time>2017-05-14T08:04:01Z</time>
      </trkpt>
      <trkpt lat="49.24338" lon="0.15353">
        <ele>96.1</ele>
        <time>2017-05-14T08:04:03Z</time>
      </trkpt>
      <trkpt lat="49.24334" lon="0.1535">
        <ele>97.1</ele>
        <time>2017-05-14T08:04:05Z</time>
      </trkpt>
      <trkpt lat="49.24331" lon="0.15347">
        <ele>97.7</ele>
        <time>2017-05-14T08:04:06Z</time>
      </trkpt>
      <trkpt lat="49.24328" lon="0.15346">
        <ele>97.9</ele>
        <time>2017-05-14T08:04:07Z</time>
      </trkpt>
      <trkpt lat="49.24323" lon="0.15345">
        <ele>99.2</ele>
        <time>2017-05-14T08:04:08Z</time>
      </trkpt>
      <trkpt lat="49.24317" lon="0.15344">
        <ele>100.4</ele>
        <time>2017-05-14T08:04:09Z</time>
      </trkpt>
      <trkpt lat="49.24314" lon="0.15344">
        <ele>101</ele>
        <time>2017-05-14T08:04:10Z</time>
      </trkpt>
      <trkpt lat="49.24308" lon="0.15344">
        <ele>102</ele>
        <time>2017-05-14T08:04:11Z</time>
      </trkpt>
      <trkpt lat="49.24304" lon="0.15342">
        <ele>102.2</ele>
        <time>2017-05-14T08:04:13Z</time>
      </trkpt>
      <trkpt lat="49.24301" lon="0.1534">
        <ele>102.6</ele>
        <time>2017-05-14T08:04:14Z</time>
      </trkpt>
      <trkpt lat="49.24296" lon="0.15337">
        <ele>102.5</ele>
        <time>2017-05-14T08:04:16Z</time>
      </trkpt>
      <trkpt lat="49.24291" lon="0.15338">
        <ele>103.7</ele>
        <time>2017-05-14T08:04:17Z</time>
      </trkpt>
      <trkpt lat="49.24288" lon="0.15338">
        <ele>104</ele>
        <time>2017-05-14T08:04:18Z</time>
      </trkpt>
      <trkpt lat="49.24283" lon="0.15339">
        <ele>104.4</ele>
        <time>2017-05-14T08:04:19Z</time>
      </trkpt>
      <trkpt lat="49.24278" lon="0.15338">
        <ele>104.8</ele>
        <time>2017-05-14T08:04:20Z</time>
      </trkpt>
      <trkpt lat="49.24273" lon="0.15338">
        <ele>105.2</ele>
        <time>2017-05-14T08:04:21Z</time>
      </trkpt>
      <trkpt lat="49.24269" lon="0.15338">
        <ele>105.1</ele>
        <time>2017-05-14T08:04:22Z</time>
      </trkpt>
      <trkpt lat="49.24263" lon="0.15336">
        <ele>105.4</ele>
        <time>2017-05-14T08:04:24Z</time>
      </trkpt>
      <trkpt lat="49.2426" lon="0.15335">
        <ele>105.6</ele>
        <time>2017-05-14T08:04:25Z</time>
      </trkpt>
      <trkpt lat="49.24254" lon="0.15332">
        <ele>105.2</ele>
        <time>2017-05-14T08:04:27Z</time>
      </trkpt>
      <trkpt lat="49.24249" lon="0.15328">
        <ele>104.7</ele>
        <time>2017-05-14T08:04:28Z</time>
      </trkpt>
      <trkpt lat="49.24243" lon="0.15325">
        <ele>104.1</ele>
        <time>2017-05-14T08:04:29Z</time>
      </trkpt>
      <trkpt lat="49.24239" lon="0.15321">
        <ele>104.2</ele>
        <time>2017-05-14T08:04:30Z</time>
      </trkpt>
      <trkpt lat="49.24231" lon="0.15321">
        <ele>104</ele>
        <time>2017-05-14T08:04:31Z</time>
      </trkpt>
      <trkpt lat="49.24224" lon="0.15322">
        <ele>104.2</ele>
        <time>2017-05-14T08:04:32Z</time>
      </trkpt>
      <trkpt lat="49.2422" lon="0.15321">
        <ele>104.2</ele>
        <time>2017-05-14T08:04:33Z</time>
      </trkpt>
      <trkpt lat="49.24216" lon="0.15319">
        <ele>104.2</ele>
        <time>2017-05-14T08:04:35Z</time>
      </trkpt>
      <trkpt lat="49.24213" lon="0.15318">
        <ele>104.2</ele>
        <time>2017-05-14T08:04:36Z</time>
      </trkpt>
      <trkpt lat="49.24209" lon="0.15318">
        <ele>104.3</ele>
        <time>2017-05-14T08:04:37Z</time>
      </trkpt>
      <trkpt lat="49.24204" lon="0.15316">
        <ele>104.4</ele>
        <time>2017-05-14T08:04:38Z</time>
      </trkpt>
      <trkpt lat="49.24198" lon="0.15316">
        <ele>104.6</ele>
        <time>2017-05-14T08:04:39Z</time>
      </trkpt>
      <trkpt lat="49.24195" lon="0.15315">
        <ele>104.8</ele>
        <time>2017-05-14T08:04:40Z</time>
      </trkpt>
      <trkpt lat="49.24191" lon="0.15316">
        <ele>105</ele>
        <time>2017-05-14T08:04:41Z</time>
      </trkpt>
      <trkpt lat="49.24187" lon="0.15314">
        <ele>105.1</ele>
        <time>2017-05-14T08:04:42Z</time>
      </trkpt>
      <trkpt lat="49.24183" lon="0.15312">
        <ele>105.5</ele>
        <time>2017-05-14T08:04:44Z</time>
      </trkpt>
      <trkpt lat="49.2418" lon="0.15311">
        <ele>105.6</ele>
        <time>2017-05-14T08:04:45Z</time>
      </trkpt>
      <trkpt lat="49.24174" lon="0.15308">
        <ele>105.9</ele>
        <time>2017-05-14T08:04:47Z</time>
      </trkpt>
      <trkpt lat="49.24169" lon="0.15306">
        <ele>106</ele>
        <time>2017-05-14T08:04:48Z</time>
      </trkpt>
      <trkpt lat="49.24167" lon="0.15304">
        <ele>106</ele>
        <time>2017-05-14T08:04:49Z</time>
      </trkpt>
      <trkpt lat="49.24162" lon="0.15302">
        <ele>106</ele>
        <time>2017-05-14T08:04:50Z</time>
      </trkpt>
      <trkpt lat="49.24157" lon="0.15301">
        <ele>105.9</ele>
        <time>2017-05-14T08:04:51Z</time>
      </trkpt>
      <trkpt lat="49.24151" lon="0.15299">
        <ele>105.7</ele>
        <time>2017-05-14T08:04:53Z</time>
      </trkpt>
      <trkpt lat="49.24148" lon="0.15297">
        <ele>105.6</ele>
        <time>2017-05-14T08:04:54Z</time>
      </trkpt>
      <trkpt lat="49.24144" lon="0.15295">
        <ele>105.4</ele>
        <time>2017-05-14T08:04:55Z</time>
      </trkpt>
      <trkpt lat="49.2414" lon="0.15292">
        <ele>105.3</ele>
        <time>2017-05-14T08:04:57Z</time>
      </trkpt>
      <trkpt lat="49.24137" lon="0.15291">
        <ele>105.3</ele>
        <time>2017-05-14T08:04:58Z</time>
      </trkpt>
      <trkpt lat="49.24132" lon="0.15288">
        <ele>105</ele>
        <time>2017-05-14T08:05:00Z</time>
      </trkpt>
      <trkpt lat="49.24128" lon="0.15285">
        <ele>104.8</ele>
        <time>2017-05-14T08:05:01Z</time>
      </trkpt>
      <trkpt lat="49.24124" lon="0.15283">
        <ele>104.7</ele>
        <time>2017-05-14T08:05:02Z</time>
      </trkpt>
      <trkpt lat="49.24119" lon="0.1528">
        <ele>104.5</ele>
        <time>2017-05-14T08:05:03Z</time>
      </trkpt>
      <trkpt lat="49.24115" lon="0.15278">
        <ele>104.5</ele>
        <time>2017-05-14T08:05:04Z</time>
      </trkpt>
      <trkpt lat="49.2411" lon="0.15275">
        <ele>104.4</ele>
        <time>2017-05-14T08:05:05Z</time>
      </trkpt>
      <trkpt lat="49.24107" lon="0.15274">
        <ele>104.5</ele>
        <time>2017-05-14T08:05:06Z</time>
      </trkpt>
      <trkpt lat="49.24101" lon="0.15272">
        <ele>104.6</ele>
        <time>2017-05-14T08:05:07Z</time>
      </trkpt>
      <trkpt lat="49.24097" lon="0.1527">
        <ele>104.7</ele>
        <time>2017-05-14T08:05:08Z</time>
      </trkpt>
      <trkpt lat="49.24095" lon="0.15266">
        <ele>104.7</ele>
        <time>2017-05-14T08:05:09Z</time>
      </trkpt>
      <trkpt lat="49.24093" lon="0.15263">
        <ele>104.8</ele>
        <time>2017-05-14T08:05:10Z</time>
      </trkpt>
      <trkpt lat="49.24089" lon="0.1526">
        <ele>104.8</ele>
        <time>2017-05-14T08:05:11Z</time>
      </trkpt>
      <trkpt lat="49.24084" lon="0.15259">
        <ele>104.8</ele>
        <time>2017-05-14T08:05:12Z</time>
      </trkpt>
      <trkpt lat="49.24079" lon="0.15256">
        <ele>104.6</ele>
        <time>2017-05-14T08:05:13Z</time>
      </trkpt>
      <trkpt lat="49.24075" lon="0.15254">
        <ele>104.5</ele>
        <time>2017-05-14T08:05:14Z</time>
      </trkpt>
      <trkpt lat="49.24068" lon="0.1525">
        <ele>104</ele>
        <time>2017-05-14T08:05:15Z</time>
      </trkpt>
      <trkpt lat="49.24062" lon="0.15245">
        <ele>104</ele>
        <time>2017-05-14T08:05:16Z</time>
      </trkpt>
      <trkpt lat="49.24056" lon="0.15243">
        <ele>104.1</ele>
        <time>2017-05-14T08:05:17Z</time>
      </trkpt>
      <trkpt lat="49.24051" lon="0.15241">
        <ele>104.3</ele>
        <time>2017-05-14T08:05:18Z</time>
      </trkpt>
      <trkpt lat="49.24046" lon="0.15239">
        <ele>104.8</ele>
        <time>2017-05-14T08:05:19Z</time>
      </trkpt>
      <trkpt lat="49.24042" lon="0.15237">
        <ele>104.9</ele>
        <time>2017-05-14T08:05:20Z</time>
      </trkpt>
      <trkpt lat="49.24036" lon="0.15236">
        <ele>105.2</ele>
        <time>2017-05-14T08:05:21Z</time>
      </trkpt>
      <trkpt lat="49.2403" lon="0.15232">
        <ele>105.6</ele>
        <time>2017-05-14T08:05:22Z</time>
      </trkpt>
      <trkpt lat="49.24027" lon="0.1523">
        <ele>106</ele>
        <time>2017-05-14T08:05:23Z</time>
      </trkpt>
      <trkpt lat="49.24019" lon="0.15227">
        <ele>106.1</ele>
        <time>2017-05-14T08:05:24Z</time>
      </trkpt>
      <trkpt lat="49.24013" lon="0.15225">
        <ele>106.3</ele>
        <time>2017-05-14T08:05:25Z</time>
      </trkpt>
      <trkpt lat="49.24008" lon="0.15225">
        <ele>106.3</ele>
        <time>2017-05-14T08:05:26Z</time>
      </trkpt>
      <trkpt lat="49.24001" lon="0.15223">
        <ele>106.1</ele>
        <time>2017-05-14T08:05:27Z</time>
      </trkpt>
      <trkpt lat="49.23998" lon="0.1522">
        <ele>106.2</ele>
        <time>2017-05-14T08:05:28Z</time>
      </trkpt>
      <trkpt lat="49.23995" lon="0.15217">
        <ele>106.4</ele>
        <time>2017-05-14T08:05:29Z</time>
      </trkpt>
      <trkpt lat="49.23991" lon="0.15214">
        <ele>106.3</ele>
        <time>2017-05-14T08:05:30Z</time>
      </trkpt>
      <trkpt lat="49.23986" lon="0.15211">
        <ele>106.4</ele>
        <time>2017-05-14T08:05:31Z</time>
      </trkpt>
      <trkpt lat="49.23982" lon="0.15209">
        <ele>106.6</ele>
        <time>2017-05-14T08:05:32Z</time>
      </trkpt>
      <trkpt lat="49.23977" lon="0.15204">
        <ele>106.9</ele>
        <time>2017-05-14T08:05:33Z</time>
      </trkpt>
      <trkpt lat="49.23971" lon="0.152">
        <ele>107.4</ele>
        <time>2017-05-14T08:05:34Z</time>
      </trkpt>
      <trkpt lat="49.23965" lon="0.15195">
        <ele>107.7</ele>
        <time>2017-05-14T08:05:35Z</time>
      </trkpt>
      <trkpt lat="49.2396" lon="0.1519">
        <ele>108.1</ele>
        <time>2017-05-14T08:05:36Z</time>
      </trkpt>
      <trkpt lat="49.23955" lon="0.15186">
        <ele>108.2</ele>
        <time>2017-05-14T08:05:37Z</time>
      </trkpt>
      <trkpt lat="49.23947" lon="0.15181">
        <ele>108.7</ele>
        <time>2017-05-14T08:05:39Z</time>
      </trkpt>
      <trkpt lat="49.23941" lon="0.15179">
        <ele>109.1</ele>
        <time>2017-05-14T08:05:40Z</time>
      </trkpt>
      <trkpt lat="49.23936" lon="0.15177">
        <ele>109.6</ele>
        <time>2017-05-14T08:05:41Z</time>
      </trkpt>
      <trkpt lat="49.23933" lon="0.15175">
        <ele>109.9</ele>
        <time>2017-05-14T08:05:42Z</time>
      </trkpt>
      <trkpt lat="49.23928" lon="0.15171">
        <ele>110.3</ele>
        <time>2017-05-14T08:05:43Z</time>
      </trkpt>
      <trkpt lat="49.23923" lon="0.15167">
        <ele>110.7</ele>
        <time>2017-05-14T08:05:44Z</time>
      </trkpt>
      <trkpt lat="49.23917" lon="0.15163">
        <ele>110.8</ele>
        <time>2017-05-14T08:05:45Z</time>
      </trkpt>
      <trkpt lat="49.23912" lon="0.1516">
        <ele>110.7</ele>
        <time>2017-05-14T08:05:46Z</time>
      </trkpt>
      <trkpt lat="49.23909" lon="0.15157">
        <ele>110.3</ele>
        <time>2017-05-14T08:05:47Z</time>
      </trkpt>
      <trkpt lat="49.23905" lon="0.15153">
        <ele>109.9</ele>
        <time>2017-05-14T08:05:48Z</time>
      </trkpt>
      <trkpt lat="49.23899" lon="0.15151">
        <ele>109.2</ele>
        <time>2017-05-14T08:05:49Z</time>
      </trkpt>
      <trkpt lat="49.23895" lon="0.15149">
        <ele>108.4</ele>
        <time>2017-05-14T08:05:50Z</time>
      </trkpt>
      <trkpt lat="49.23888" lon="0.15147">
        <ele>107.6</ele>
        <time>2017-05-14T08:05:52Z</time>
      </trkpt>
      <trkpt lat="49.23883" lon="0.15139">
        <ele>107.2</ele>
        <time>2017-05-14T08:05:55Z</time>
      </trkpt>
      <trkpt lat="49.2388" lon="0.15135">
        <ele>107.1</ele>
        <time>2017-05-14T08:05:56Z</time>
      </trkpt>
      <trkpt lat="49.23875" lon="0.15132">
        <ele>106.7</ele>
        <time>2017-05-14T08:05:57Z</time>
      </trkpt>
      <trkpt lat="49.23873" lon="0.15127">
        <ele>107</ele>
        <time>2017-05-14T08:06:00Z</time>
      </trkpt>
      <trkpt lat="49.2387" lon="0.15119">
        <ele>107</ele>
        <time>2017-05-14T08:06:02Z</time>
      </trkpt>
      <trkpt lat="49.23868" lon="0.15114">
        <ele>106.8</ele>
        <time>2017-05-14T08:06:03Z</time>
      </trkpt>
      <trkpt lat="49.23863" lon="0.15109">
        <ele>106.4</ele>
        <time>2017-05-14T08:06:05Z</time>
      </trkpt>
      <trkpt lat="49.23859" lon="0.15102">
        <ele>106.4</ele>
        <time>2017-05-14T08:06:06Z</time>
      </trkpt>
      <trkpt lat="49.23854" lon="0.15096">
        <ele>106.7</ele>
        <time>2017-05-14T08:06:07Z</time>
      </trkpt>
      <trkpt lat="49.23849" lon="0.15091">
        <ele>106.9</ele>
        <time>2017-05-14T08:06:08Z</time>
      </trkpt>
      <trkpt lat="49.23844" lon="0.15086">
        <ele>107.1</ele>
        <time>2017-05-14T08:06:09Z</time>
      </trkpt>
      <trkpt lat="49.2384" lon="0.15083">
        <ele>107.2</ele>
        <time>2017-05-14T08:06:10Z</time>
      </trkpt>
      <trkpt lat="49.23835" lon="0.15079">
        <ele>107.2</ele>
        <time>2017-05-14T08:06:11Z</time>
      </trkpt>
      <trkpt lat="49.2383" lon="0.15076">
        <ele>107.2</ele>
        <time>2017-05-14T08:06:12Z</time>
      </trkpt>
      <trkpt lat="49.23827" lon="0.15072">
        <ele>107.2</ele>
        <time>2017-05-14T08:06:13Z</time>
      </trkpt>
      <trkpt lat="49.23824" lon="0.15069">
        <ele>107.2</ele>
        <time>2017-05-14T08:06:14Z</time>
      </trkpt>
      <trkpt lat="49.23819" lon="0.15064">
        <ele>107.2</ele>
        <time>2017-05-14T08:06:16Z</time>
      </trkpt>
      <trkpt lat="49.23818" lon="0.15059">
        <ele>107.2</ele>
        <time>2017-05-14T08:06:18Z</time>
      </trkpt>
      <trkpt lat="49.23816" lon="0.15052">
        <ele>107.2</ele>
        <time>2017-05-14T08:06:20Z</time>
      </trkpt>
      <trkpt lat="49.23814" lon="0.15047">
        <ele>107.2</ele>
        <time>2017-05-14T08:06:21Z</time>
      </trkpt>
      <trkpt lat="49.23811" lon="0.15041">
        <ele>107.2</ele>
        <time>2017-05-14T08:06:22Z</time>
      </trkpt>
      <trkpt lat="49.23807" lon="0.15035">
        <ele>107.3</ele>
        <time>2017-05-14T08:06:23Z</time>
      </trkpt>
      <trkpt lat="49.23805" lon="0.15031">
        <ele>107.5</ele>
        <time>2017-05-14T08:06:24Z</time>
      </trkpt>
      <trkpt lat="49.23804" lon="0.15024">
        <ele>107.5</ele>
        <time>2017-05-14T08:06:26Z</time>
      </trkpt>
      <trkpt lat="49.23803" lon="0.15017">
        <ele>107.4</ele>
        <time>2017-05-14T08:06:28Z</time>
      </trkpt>
      <trkpt lat="49.23802" lon="0.15012">
        <ele>107.4</ele>
        <time>2017-05-14T08:06:29Z</time>
      </trkpt>
      <trkpt lat="49.23802" lon="0.15007">
        <ele>107.4</ele>
        <time>2017-05-14T08:06:30Z</time>
      </trkpt>
      <trkpt lat="49.23802" lon="0.15001">
        <ele>107.4</ele>
        <time>2017-05-14T08:06:31Z</time>
      </trkpt>
      <trkpt lat="49.23803" lon="0.14993">
        <ele>107.5</ele>
        <time>2017-05-14T08:06:32Z</time>
      </trkpt>
      <trkpt lat="49.23804" lon="0.14987">
        <ele>107.6</ele>
        <time>2017-05-14T08:06:33Z</time>
      </trkpt>
      <trkpt lat="49.23803" lon="0.14982">
        <ele>107.9</ele>
        <time>2017-05-14T08:06:34Z</time>
      </trkpt>
      <trkpt lat="49.23802" lon="0.14976">
        <ele>108.3</ele>
        <time>2017-05-14T08:06:37Z</time>
      </trkpt>
      <trkpt lat="49.23803" lon="0.14971">
        <ele>108</ele>
        <time>2017-05-14T08:06:39Z</time>
      </trkpt>
      <trkpt lat="49.23804" lon="0.14962">
        <ele>107.9</ele>
        <time>2017-05-14T08:06:41Z</time>
      </trkpt>
      <trkpt lat="49.23805" lon="0.14956">
        <ele>107.7</ele>
        <time>2017-05-14T08:06:42Z</time>
      </trkpt>
      <trkpt lat="49.23805" lon="0.1495">
        <ele>107.2</ele>
        <time>2017-05-14T08:06:43Z</time>
      </trkpt>
      <trkpt lat="49.23806" lon="0.14944">
        <ele>106.5</ele>
        <time>2017-05-14T08:06:44Z</time>
      </trkpt>
      <trkpt lat="49.23807" lon="0.14937">
        <ele>105.8</ele>
        <time>2017-05-14T08:06:45Z</time>
      </trkpt>
      <trkpt lat="49.23808" lon="0.14929">
        <ele>105.1</ele>
        <time>2017-05-14T08:06:46Z</time>
      </trkpt>
      <trkpt lat="49.2381" lon="0.14918">
        <ele>104.3</ele>
        <time>2017-05-14T08:06:47Z</time>
      </trkpt>
      <trkpt lat="49.2381" lon="0.14907">
        <ele>103.8</ele>
        <time>2017-05-14T08:06:48Z</time>
      </trkpt>
      <trkpt lat="49.23811" lon="0.14895">
        <ele>103.2</ele>
        <time>2017-05-14T08:06:49Z</time>
      </trkpt>
      <trkpt lat="49.23813" lon="0.14888">
        <ele>103</ele>
        <time>2017-05-14T08:06:50Z</time>
      </trkpt>
      <trkpt lat="49.23814" lon="0.14881">
        <ele>102.4</ele>
        <time>2017-05-14T08:06:51Z</time>
      </trkpt>
      <trkpt lat="49.23814" lon="0.14872">
        <ele>101.7</ele>
        <time>2017-05-14T08:06:52Z</time>
      </trkpt>
      <trkpt lat="49.23817" lon="0.14866">
        <ele>100.7</ele>
        <time>2017-05-14T08:06:53Z</time>
      </trkpt>
      <trkpt lat="49.2382" lon="0.14856">
        <ele>99.9</ele>
        <time>2017-05-14T08:06:54Z</time>
      </trkpt>
      <trkpt lat="49.23821" lon="0.14846">
        <ele>98.7</ele>
        <time>2017-05-14T08:06:55Z</time>
      </trkpt>
      <trkpt lat="49.23823" lon="0.14834">
        <ele>96.8</ele>
        <time>2017-05-14T08:06:56Z</time>
      </trkpt>
      <trkpt lat="49.23824" lon="0.14824">
        <ele>95.6</ele>
        <time>2017-05-14T08:06:57Z</time>
      </trkpt>
      <trkpt lat="49.23826" lon="0.14814">
        <ele>93.4</ele>
        <time>2017-05-14T08:06:58Z</time>
      </trkpt>
      <trkpt lat="49.23828" lon="0.14803">
        <ele>92.5</ele>
        <time>2017-05-14T08:06:59Z</time>
      </trkpt>
      <trkpt lat="49.23829" lon="0.14792">
        <ele>90.9</ele>
        <time>2017-05-14T08:07:00Z</time>
      </trkpt>
      <trkpt lat="49.2383" lon="0.14782">
        <ele>90.2</ele>
        <time>2017-05-14T08:07:01Z</time>
      </trkpt>
      <trkpt lat="49.23831" lon="0.14773">
        <ele>89.5</ele>
        <time>2017-05-14T08:07:02Z</time>
      </trkpt>
      <trkpt lat="49.23831" lon="0.14768">
        <ele>88.8</ele>
        <time>2017-05-14T08:07:03Z</time>
      </trkpt>
      <trkpt lat="49.23833" lon="0.14758">
        <ele>87.1</ele>
        <time>2017-05-14T08:07:04Z</time>
      </trkpt>
      <trkpt lat="49.23835" lon="0.14755">
        <ele>86.9</ele>
        <time>2017-05-14T08:07:05Z</time>
      </trkpt>
      <trkpt lat="49.23838" lon="0.14747">
        <ele>85.7</ele>
        <time>2017-05-14T08:07:06Z</time>
      </trkpt>
      <trkpt lat="49.23843" lon="0.14741">
        <ele>84.3</ele>
        <time>2017-05-14T08:07:07Z</time>
      </trkpt>
      <trkpt lat="49.23845" lon="0.14735">
        <ele>83.4</ele>
        <time>2017-05-14T08:07:08Z</time>
      </trkpt>
      <trkpt lat="49.23846" lon="0.14727">
        <ele>82.1</ele>
        <time>2017-05-14T08:07:09Z</time>
      </trkpt>
      <trkpt lat="49.23848" lon="0.14719">
        <ele>80.9</ele>
        <time>2017-05-14T08:07:11Z</time>
      </trkpt>
      <trkpt lat="49.23849" lon="0.14714">
        <ele>80.2</ele>
        <time>2017-05-14T08:07:13Z</time>
      </trkpt>
      <trkpt lat="49.2385" lon="0.1471">
        <ele>79.6</ele>
        <time>2017-05-14T08:07:14Z</time>
      </trkpt>
      <trkpt lat="49.23853" lon="0.14705">
        <ele>78.9</ele>
        <time>2017-05-14T08:07:15Z</time>
      </trkpt>
      <trkpt lat="49.23856" lon="0.14701">
        <ele>78.3</ele>
        <time>2017-05-14T08:07:17Z</time>
      </trkpt>
      <trkpt lat="49.2386" lon="0.14699">
        <ele>78.2</ele>
        <time>2017-05-14T08:07:18Z</time>
      </trkpt>
      <trkpt lat="49.23863" lon="0.147">
        <ele>78.1</ele>
        <time>2017-05-14T08:07:19Z</time>
      </trkpt>
      <trkpt lat="49.23868" lon="0.14701">
        <ele>78</ele>
        <time>2017-05-14T08:07:21Z</time>
      </trkpt>
      <trkpt lat="49.23873" lon="0.14703">
        <ele>77.9</ele>
        <time>2017-05-14T08:07:22Z</time>
      </trkpt>
      <trkpt lat="49.23877" lon="0.14704">
        <ele>78.3</ele>
        <time>2017-05-14T08:07:23Z</time>
      </trkpt>
      <trkpt lat="49.23884" lon="0.14705">
        <ele>78.3</ele>
        <time>2017-05-14T08:07:24Z</time>
      </trkpt>
      <trkpt lat="49.23892" lon="0.14706">
        <ele>78.4</ele>
        <time>2017-05-14T08:07:25Z</time>
      </trkpt>
      <trkpt lat="49.239" lon="0.14708">
        <ele>78.9</ele>
        <time>2017-05-14T08:07:26Z</time>
      </trkpt>
      <trkpt lat="49.23906" lon="0.14708">
        <ele>78.8</ele>
        <time>2017-05-14T08:07:27Z</time>
      </trkpt>
      <trkpt lat="49.23911" lon="0.14709">
        <ele>78.7</ele>
        <time>2017-05-14T08:07:28Z</time>
      </trkpt>
      <trkpt lat="49.23917" lon="0.1471">
        <ele>78.6</ele>
        <time>2017-05-14T08:07:29Z</time>
      </trkpt>
      <trkpt lat="49.23922" lon="0.14711">
        <ele>78.4</ele>
        <time>2017-05-14T08:07:30Z</time>
      </trkpt>
      <trkpt lat="49.23927" lon="0.14713">
        <ele>78.3</ele>
        <time>2017-05-14T08:07:31Z</time>
      </trkpt>
      <trkpt lat="49.23931" lon="0.14713">
        <ele>78.1</ele>
        <time>2017-05-14T08:07:32Z</time>
      </trkpt>
      <trkpt lat="49.23935" lon="0.14713">
        <ele>77.8</ele>
        <time>2017-05-14T08:07:33Z</time>
      </trkpt>
      <trkpt lat="49.23939" lon="0.14714">
        <ele>77.6</ele>
        <time>2017-05-14T08:07:34Z</time>
      </trkpt>
      <trkpt lat="49.23944" lon="0.14715">
        <ele>77.4</ele>
        <time>2017-05-14T08:07:35Z</time>
      </trkpt>
      <trkpt lat="49.23948" lon="0.14715">
        <ele>77.2</ele>
        <time>2017-05-14T08:07:36Z</time>
      </trkpt>
      <trkpt lat="49.23953" lon="0.14717">
        <ele>77.1</ele>
        <time>2017-05-14T08:07:37Z</time>
      </trkpt>
      <trkpt lat="49.23957" lon="0.14719">
        <ele>76.8</ele>
        <time>2017-05-14T08:07:38Z</time>
      </trkpt>
      <trkpt lat="49.23962" lon="0.14721">
        <ele>76.8</ele>
        <time>2017-05-14T08:07:39Z</time>
      </trkpt>
      <trkpt lat="49.23967" lon="0.14723">
        <ele>76.5</ele>
        <time>2017-05-14T08:07:40Z</time>
      </trkpt>
      <trkpt lat="49.23972" lon="0.14723">
        <ele>76.1</ele>
        <time>2017-05-14T08:07:41Z</time>
      </trkpt>
      <trkpt lat="49.23977" lon="0.14725">
        <ele>76.1</ele>
        <time>2017-05-14T08:07:42Z</time>
      </trkpt>
      <trkpt lat="49.23983" lon="0.14725">
        <ele>75.6</ele>
        <time>2017-05-14T08:07:43Z</time>
      </trkpt>
      <trkpt lat="49.23991" lon="0.14726">
        <ele>75.1</ele>
        <time>2017-05-14T08:07:44Z</time>
      </trkpt>
      <trkpt lat="49.23997" lon="0.14725">
        <ele>74.5</ele>
        <time>2017-05-14T08:07:45Z</time>
      </trkpt>
      <trkpt lat="49.24003" lon="0.14726">
        <ele>74.2</ele>
        <time>2017-05-14T08:07:46Z</time>
      </trkpt>
      <trkpt lat="49.24009" lon="0.14728">
        <ele>74</ele>
        <time>2017-05-14T08:07:47Z</time>
      </trkpt>
      <trkpt lat="49.24015" lon="0.14732">
        <ele>73.7</ele>
        <time>2017-05-14T08:07:48Z</time>
      </trkpt>
      <trkpt lat="49.24021" lon="0.14737">
        <ele>73.5</ele>
        <time>2017-05-14T08:07:49Z</time>
      </trkpt>
      <trkpt lat="49.24029" lon="0.14744">
        <ele>73.4</ele>
        <time>2017-05-14T08:07:50Z</time>
      </trkpt>
      <trkpt lat="49.24035" lon="0.1475">
        <ele>73.3</ele>
        <time>2017-05-14T08:07:51Z</time>
      </trkpt>
      <trkpt lat="49.2404" lon="0.14756">
        <ele>73.3</ele>
        <time>2017-05-14T08:07:52Z</time>
      </trkpt>
      <trkpt lat="49.24044" lon="0.14762">
        <ele>73.2</ele>
        <time>2017-05-14T08:07:53Z</time>
      </trkpt>
      <trkpt lat="49.24047" lon="0.14766">
        <ele>73.2</ele>
        <time>2017-05-14T08:07:54Z</time>
      </trkpt>
      <trkpt lat="49.24049" lon="0.14771">
        <ele>73.2</ele>
        <time>2017-05-14T08:07:55Z</time>
      </trkpt>
      <trkpt lat="49.24053" lon="0.14775">
        <ele>73.2</ele>
        <time>2017-05-14T08:07:56Z</time>
      </trkpt>
      <trkpt lat="49.24057" lon="0.14779">
        <ele>73.2</ele>
        <time>2017-05-14T08:07:57Z</time>
      </trkpt>
      <trkpt lat="49.2406" lon="0.14783">
        <ele>73.2</ele>
        <time>2017-05-14T08:07:58Z</time>
      </trkpt>
      <trkpt lat="49.24062" lon="0.14785">
        <ele>73.3</ele>
        <time>2017-05-14T08:07:59Z</time>
      </trkpt>
      <trkpt lat="49.24065" lon="0.14788">
        <ele>73.3</ele>
        <time>2017-05-14T08:08:00Z</time>
      </trkpt>
      <trkpt lat="49.2407" lon="0.14792">
        <ele>73.3</ele>
        <time>2017-05-14T08:08:01Z</time>
      </trkpt>
      <trkpt lat="49.24075" lon="0.14796">
        <ele>73.4</ele>
        <time>2017-05-14T08:08:02Z</time>
      </trkpt>
      <trkpt lat="49.24078" lon="0.14803">
        <ele>73.4</ele>
        <time>2017-05-14T08:08:03Z</time>
      </trkpt>
      <trkpt lat="49.24082" lon="0.14807">
        <ele>73.5</ele>
        <time>2017-05-14T08:08:04Z</time>
      </trkpt>
      <trkpt lat="49.24086" lon="0.1481">
        <ele>73.5</ele>
        <time>2017-05-14T08:08:05Z</time>
      </trkpt>
      <trkpt lat="49.24092" lon="0.14813">
        <ele>73.6</ele>
        <time>2017-05-14T08:08:06Z</time>
      </trkpt>
      <trkpt lat="49.24099" lon="0.14817">
        <ele>73.7</ele>
        <time>2017-05-14T08:08:07Z</time>
      </trkpt>
      <trkpt lat="49.24106" lon="0.1482">
        <ele>73.7</ele>
        <time>2017-05-14T08:08:08Z</time>
      </trkpt>
      <trkpt lat="49.24113" lon="0.14822">
        <ele>73.8</ele>
        <time>2017-05-14T08:08:09Z</time>
      </trkpt>
      <trkpt lat="49.24116" lon="0.14824">
        <ele>73.9</ele>
        <time>2017-05-14T08:08:10Z</time>
      </trkpt>
      <trkpt lat="49.2412" lon="0.14826">
        <ele>73.9</ele>
        <time>2017-05-14T08:08:11Z</time>
      </trkpt>
      <trkpt lat="49.24126" lon="0.14826">
        <ele>74</ele>
        <time>2017-05-14T08:08:12Z</time>
      </trkpt>
      <trkpt lat="49.24134" lon="0.1483">
        <ele>74.2</ele>
        <time>2017-05-14T08:08:13Z</time>
      </trkpt>
      <trkpt lat="49.24143" lon="0.14835">
        <ele>74.4</ele>
        <time>2017-05-14T08:08:14Z</time>
      </trkpt>
      <trkpt lat="49.24151" lon="0.14835">
        <ele>74.6</ele>
        <time>2017-05-14T08:08:15Z</time>
      </trkpt>
      <trkpt lat="49.24159" lon="0.14837">
        <ele>75.1</ele>
        <time>2017-05-14T08:08:16Z</time>
      </trkpt>
      <trkpt lat="49.24165" lon="0.14836">
        <ele>75.5</ele>
        <time>2017-05-14T08:08:17Z</time>
      </trkpt>
      <trkpt lat="49.24168" lon="0.14835">
        <ele>75.7</ele>
        <time>2017-05-14T08:08:18Z</time>
      </trkpt>
      <trkpt lat="49.24172" lon="0.14834">
        <ele>76</ele>
        <time>2017-05-14T08:08:19Z</time>
      </trkpt>
      <trkpt lat="49.24177" lon="0.14832">
        <ele>76.2</ele>
        <time>2017-05-14T08:08:20Z</time>
      </trkpt>
      <trkpt lat="49.24182" lon="0.14832">
        <ele>76.3</ele>
        <time>2017-05-14T08:08:21Z</time>
      </trkpt>
      <trkpt lat="49.24189" lon="0.14833">
        <ele>76.5</ele>
        <time>2017-05-14T08:08:22Z</time>
      </trkpt>
      <trkpt lat="49.24193" lon="0.14832">
        <ele>76.6</ele>
        <time>2017-05-14T08:08:23Z</time>
      </trkpt>
      <trkpt lat="49.24197" lon="0.14831">
        <ele>76.8</ele>
        <time>2017-05-14T08:08:24Z</time>
      </trkpt>
      <trkpt lat="49.24201" lon="0.14828">
        <ele>76.9</ele>
        <time>2017-05-14T08:08:25Z</time>
      </trkpt>
      <trkpt lat="49.24205" lon="0.14826">
        <ele>77</ele>
        <time>2017-05-14T08:08:26Z</time>
      </trkpt>
      <trkpt lat="49.24211" lon="0.14826">
        <ele>77.1</ele>
        <time>2017-05-14T08:08:27Z</time>
      </trkpt>
      <trkpt lat="49.24217" lon="0.14826">
        <ele>77.2</ele>
        <time>2017-05-14T08:08:28Z</time>
      </trkpt>
      <trkpt lat="49.24224" lon="0.14827">
        <ele>77.4</ele>
        <time>2017-05-14T08:08:29Z</time>
      </trkpt>
      <trkpt lat="49.24231" lon="0.14829">
        <ele>77.6</ele>
        <time>2017-05-14T08:08:30Z</time>
      </trkpt>
      <trkpt lat="49.24236" lon="0.1483">
        <ele>77.8</ele>
        <time>2017-05-14T08:08:31Z</time>
      </trkpt>
      <trkpt lat="49.24241" lon="0.1483">
        <ele>78.1</ele>
        <time>2017-05-14T08:08:32Z</time>
      </trkpt>
      <trkpt lat="49.24246" lon="0.14832">
        <ele>78.4</ele>
        <time>2017-05-14T08:08:33Z</time>
      </trkpt>
      <trkpt lat="49.24251" lon="0.14833">
        <ele>78.7</ele>
        <time>2017-05-14T08:08:34Z</time>
      </trkpt>
      <trkpt lat="49.24256" lon="0.14831">
        <ele>79.1</ele>
        <time>2017-05-14T08:08:35Z</time>
      </trkpt>
      <trkpt lat="49.2426" lon="0.14829">
        <ele>79.4</ele>
        <time>2017-05-14T08:08:36Z</time>
      </trkpt>
      <trkpt lat="49.24264" lon="0.14829">
        <ele>79.7</ele>
        <time>2017-05-14T08:08:37Z</time>
      </trkpt>
      <trkpt lat="49.24269" lon="0.14828">
        <ele>79.9</ele>
        <time>2017-05-14T08:08:38Z</time>
      </trkpt>
      <trkpt lat="49.24274" lon="0.14827">
        <ele>80.2</ele>
        <time>2017-05-14T08:08:39Z</time>
      </trkpt>
      <trkpt lat="49.24279" lon="0.14826">
        <ele>80.2</ele>
        <time>2017-05-14T08:08:40Z</time>
      </trkpt>
      <trkpt lat="49.24283" lon="0.14824">
        <ele>80.3</ele>
        <time>2017-05-14T08:08:41Z</time>
      </trkpt>
      <trkpt lat="49.24287" lon="0.14823">
        <ele>80.3</ele>
        <time>2017-05-14T08:08:42Z</time>
      </trkpt>
      <trkpt lat="49.24294" lon="0.14823">
        <ele>80.4</ele>
        <time>2017-05-14T08:08:43Z</time>
      </trkpt>
      <trkpt lat="49.24301" lon="0.14824">
        <ele>80.5</ele>
        <time>2017-05-14T08:08:44Z</time>
      </trkpt>
      <trkpt lat="49.2431" lon="0.14829">
        <ele>80.6</ele>
        <time>2017-05-14T08:08:45Z</time>
      </trkpt>
      <trkpt lat="49.24315" lon="0.14831">
        <ele>80.7</ele>
        <time>2017-05-14T08:08:46Z</time>
      </trkpt>
      <trkpt lat="49.24319" lon="0.14832">
        <ele>80.8</ele>
        <time>2017-05-14T08:08:47Z</time>
      </trkpt>
      <trkpt lat="49.24322" lon="0.14833">
        <ele>80</ele>
        <time>2017-05-14T08:08:48Z</time>
      </trkpt>
      <trkpt lat="49.24327" lon="0.14835">
        <ele>79.7</ele>
        <time>2017-05-14T08:08:49Z</time>
      </trkpt>
      <trkpt lat="49.2433" lon="0.14834">
        <ele>79.4</ele>
        <time>2017-05-14T08:08:50Z</time>
      </trkpt>
      <trkpt lat="49.24335" lon="0.14833">
        <ele>79</ele>
        <time>2017-05-14T08:08:51Z</time>
      </trkpt>
      <trkpt lat="49.24342" lon="0.14828">
        <ele>78.4</ele>
        <time>2017-05-14T08:08:52Z</time>
      </trkpt>
      <trkpt lat="49.24349" lon="0.14823">
        <ele>77.8</ele>
        <time>2017-05-14T08:08:53Z</time>
      </trkpt>
      <trkpt lat="49.24354" lon="0.14819">
        <ele>77.4</ele>
        <time>2017-05-14T08:08:54Z</time>
      </trkpt>
      <trkpt lat="49.24358" lon="0.14817">
        <ele>77.1</ele>
        <time>2017-05-14T08:08:55Z</time>
      </trkpt>
      <trkpt lat="49.24362" lon="0.14814">
        <ele>76.8</ele>
        <time>2017-05-14T08:08:56Z</time>
      </trkpt>
      <trkpt lat="49.24369" lon="0.14808">
        <ele>76.2</ele>
        <time>2017-05-14T08:08:57Z</time>
      </trkpt>
      <trkpt lat="49.24373" lon="0.14803">
        <ele>75.8</ele>
        <time>2017-05-14T08:08:58Z</time>
      </trkpt>
      <trkpt lat="49.24381" lon="0.14798">
        <ele>75</ele>
        <time>2017-05-14T08:08:59Z</time>
      </trkpt>
      <trkpt lat="49.2439" lon="0.14797">
        <ele>74.2</ele>
        <time>2017-05-14T08:09:00Z</time>
      </trkpt>
      <trkpt lat="49.24396" lon="0.1479">
        <ele>73.6</ele>
        <time>2017-05-14T08:09:01Z</time>
      </trkpt>
      <trkpt lat="49.24399" lon="0.14786">
        <ele>73.3</ele>
        <time>2017-05-14T08:09:02Z</time>
      </trkpt>
      <trkpt lat="49.24407" lon="0.14791">
        <ele>72.7</ele>
        <time>2017-05-14T08:09:03Z</time>
      </trkpt>
      <trkpt lat="49.24414" lon="0.14793">
        <ele>72.2</ele>
        <time>2017-05-14T08:09:04Z</time>
      </trkpt>
      <trkpt lat="49.2443" lon="0.14795">
        <ele>71.2</ele>
        <time>2017-05-14T08:09:05Z</time>
      </trkpt>
      <trkpt lat="49.24442" lon="0.14789">
        <ele>70.5</ele>
        <time>2017-05-14T08:09:06Z</time>
      </trkpt>
      <trkpt lat="49.24455" lon="0.14779">
        <ele>69.7</ele>
        <time>2017-05-14T08:09:07Z</time>
      </trkpt>
      <trkpt lat="49.24467" lon="0.14769">
        <ele>68.8</ele>
        <time>2017-05-14T08:09:08Z</time>
      </trkpt>
      <trkpt lat="49.24478" lon="0.14758">
        <ele>68.2</ele>
        <time>2017-05-14T08:09:09Z</time>
      </trkpt>
      <trkpt lat="49.24489" lon="0.14749">
        <ele>67.5</ele>
        <time>2017-05-14T08:09:10Z</time>
      </trkpt>
      <trkpt lat="49.24498" lon="0.14743">
        <ele>66.9</ele>
        <time>2017-05-14T08:09:11Z</time>
      </trkpt>
      <trkpt lat="49.24508" lon="0.1474">
        <ele>66.2</ele>
        <time>2017-05-14T08:09:12Z</time>
      </trkpt>
      <trkpt lat="49.24521" lon="0.14735">
        <ele>65.4</ele>
        <time>2017-05-14T08:09:13Z</time>
      </trkpt>
      <trkpt lat="49.24533" lon="0.14732">
        <ele>64.5</ele>
        <time>2017-05-14T08:09:14Z</time>
      </trkpt>
      <trkpt lat="49.24545" lon="0.14728">
        <ele>63.5</ele>
        <time>2017-05-14T08:09:15Z</time>
      </trkpt>
      <trkpt lat="49.24554" lon="0.14724">
        <ele>62.6</ele>
        <time>2017-05-14T08:09:16Z</time>
      </trkpt>
      <trkpt lat="49.24561" lon="0.1472">
        <ele>62</ele>
        <time>2017-05-14T08:09:17Z</time>
      </trkpt>
      <trkpt lat="49.24568" lon="0.14715">
        <ele>61.4</ele>
        <time>2017-05-14T08:09:18Z</time>
      </trkpt>
      <trkpt lat="49.24574" lon="0.14711">
        <ele>61</ele>
        <time>2017-05-14T08:09:19Z</time>
      </trkpt>
      <trkpt lat="49.2458" lon="0.14706">
        <ele>60.5</ele>
        <time>2017-05-14T08:09:20Z</time>
      </trkpt>
      <trkpt lat="49.24586" lon="0.14701">
        <ele>60.1</ele>
        <time>2017-05-14T08:09:21Z</time>
      </trkpt>
      <trkpt lat="49.24593" lon="0.14697">
        <ele>59.6</ele>
        <time>2017-05-14T08:09:22Z</time>
      </trkpt>
      <trkpt lat="49.24603" lon="0.14692">
        <ele>59</ele>
        <time>2017-05-14T08:09:23Z</time>
      </trkpt>
      <trkpt lat="49.24615" lon="0.14687">
        <ele>58.1</ele>
        <time>2017-05-14T08:09:24Z</time>
      </trkpt>
      <trkpt lat="49.24626" lon="0.14683">
        <ele>57.4</ele>
        <time>2017-05-14T08:09:25Z</time>
      </trkpt>
      <trkpt lat="49.24639" lon="0.14679">
        <ele>56.8</ele>
        <time>2017-05-14T08:09:26Z</time>
      </trkpt>
      <trkpt lat="49.24652" lon="0.14676">
        <ele>56</ele>
        <time>2017-05-14T08:09:27Z</time>
      </trkpt>
      <trkpt lat="49.24663" lon="0.14674">
        <ele>55.3</ele>
        <time>2017-05-14T08:09:28Z</time>
      </trkpt>
      <trkpt lat="49.24672" lon="0.14672">
        <ele>54.9</ele>
        <time>2017-05-14T08:09:29Z</time>
      </trkpt>
      <trkpt lat="49.2468" lon="0.14671">
        <ele>54.4</ele>
        <time>2017-05-14T08:09:30Z</time>
      </trkpt>
      <trkpt lat="49.24687" lon="0.14671">
        <ele>53.9</ele>
        <time>2017-05-14T08:09:31Z</time>
      </trkpt>
      <trkpt lat="49.24692" lon="0.14671">
        <ele>53.6</ele>
        <time>2017-05-14T08:09:32Z</time>
      </trkpt>
      <trkpt lat="49.24697" lon="0.14667">
        <ele>52.7</ele>
        <time>2017-05-14T08:09:34Z</time>
      </trkpt>
      <trkpt lat="49.24699" lon="0.14664">
        <ele>52.5</ele>
        <time>2017-05-14T08:09:35Z</time>
      </trkpt>
      <trkpt lat="49.247" lon="0.14659">
        <ele>52.2</ele>
        <time>2017-05-14T08:09:37Z</time>
      </trkpt>
      <trkpt lat="49.24702" lon="0.14653">
        <ele>51.9</ele>
        <time>2017-05-14T08:09:39Z</time>
      </trkpt>
      <trkpt lat="49.24704" lon="0.14648">
        <ele>51.6</ele>
        <time>2017-05-14T08:09:40Z</time>
      </trkpt>
      <trkpt lat="49.24707" lon="0.14647">
        <ele>51</ele>
        <time>2017-05-14T08:09:41Z</time>
      </trkpt>
      <trkpt lat="49.24711" lon="0.14644">
        <ele>51</ele>
        <time>2017-05-14T08:09:45Z</time>
      </trkpt>
      <trkpt lat="49.2472" lon="0.14632">
        <ele>51.7</ele>
        <time>2017-05-14T08:09:55Z</time>
      </trkpt>
      <trkpt lat="49.24727" lon="0.14607">
        <ele>53</ele>
        <time>2017-05-14T08:10:01Z</time>
      </trkpt>
      <trkpt lat="49.2473" lon="0.14598">
        <ele>53.6</ele>
        <time>2017-05-14T08:10:03Z</time>
      </trkpt>
      <trkpt lat="49.24733" lon="0.14594">
        <ele>53.9</ele>
        <time>2017-05-14T08:10:04Z</time>
      </trkpt>
      <trkpt lat="49.24735" lon="0.1459">
        <ele>54.1</ele>
        <time>2017-05-14T08:10:05Z</time>
      </trkpt>
      <trkpt lat="49.24738" lon="0.14582">
        <ele>54.4</ele>
        <time>2017-05-14T08:10:07Z</time>
      </trkpt>
      <trkpt lat="49.2474" lon="0.14578">
        <ele>54.6</ele>
        <time>2017-05-14T08:10:08Z</time>
      </trkpt>
      <trkpt lat="49.24743" lon="0.14565">
        <ele>55.4</ele>
        <time>2017-05-14T08:10:13Z</time>
      </trkpt>
      <trkpt lat="49.24744" lon="0.14561">
        <ele>55.6</ele>
        <time>2017-05-14T08:10:15Z</time>
      </trkpt>
      <trkpt lat="49.24746" lon="0.14554">
        <ele>55.9</ele>
        <time>2017-05-14T08:10:18Z</time>
      </trkpt>
      <trkpt lat="49.24748" lon="0.14549">
        <ele>56.2</ele>
        <time>2017-05-14T08:10:20Z</time>
      </trkpt>
      <trkpt lat="49.24756" lon="0.14526">
        <ele>57.5</ele>
        <time>2017-05-14T08:10:28Z</time>
      </trkpt>
      <trkpt lat="49.24761" lon="0.14515">
        <ele>58.1</ele>
        <time>2017-05-14T08:10:33Z</time>
      </trkpt>
      <trkpt lat="49.24763" lon="0.14511">
        <ele>58.5</ele>
        <time>2017-05-14T08:10:34Z</time>
      </trkpt>
      <trkpt lat="49.24764" lon="0.14507">
        <ele>58.7</ele>
        <time>2017-05-14T08:10:35Z</time>
      </trkpt>
      <trkpt lat="49.24767" lon="0.14501">
        <ele>59.2</ele>
        <time>2017-05-14T08:10:37Z</time>
      </trkpt>
      <trkpt lat="49.24769" lon="0.14498">
        <ele>59.5</ele>
        <time>2017-05-14T08:10:38Z</time>
      </trkpt>
      <trkpt lat="49.24771" lon="0.14493">
        <ele>59.8</ele>
        <time>2017-05-14T08:10:40Z</time>
      </trkpt>
      <trkpt lat="49.24773" lon="0.14489">
        <ele>59.9</ele>
        <time>2017-05-14T08:10:43Z</time>
      </trkpt>
      <trkpt lat="49.24774" lon="0.14484">
        <ele>60.1</ele>
        <time>2017-05-14T08:10:47Z</time>
      </trkpt>
      <trkpt lat="49.24777" lon="0.14481">
        <ele>60.3</ele>
        <time>2017-05-14T08:10:48Z</time>
      </trkpt>
      <trkpt lat="49.2478" lon="0.14475">
        <ele>60.6</ele>
        <time>2017-05-14T08:10:50Z</time>
      </trkpt>
      <trkpt lat="49.24783" lon="0.14469">
        <ele>60.8</ele>
        <time>2017-05-14T08:10:52Z</time>
      </trkpt>
      <trkpt lat="49.24784" lon="0.14464">
        <ele>61</ele>
        <time>2017-05-14T08:10:54Z</time>
      </trkpt>
      <trkpt lat="49.24786" lon="0.14455">
        <ele>61.6</ele>
        <time>2017-05-14T08:10:58Z</time>
      </trkpt>
      <trkpt lat="49.24788" lon="0.1445">
        <ele>61.8</ele>
        <time>2017-05-14T08:10:59Z</time>
      </trkpt>
      <trkpt lat="49.24789" lon="0.14443">
        <ele>62.1</ele>
        <time>2017-05-14T08:11:01Z</time>
      </trkpt>
      <trkpt lat="49.24791" lon="0.14436">
        <ele>62.5</ele>
        <time>2017-05-14T08:11:03Z</time>
      </trkpt>
      <trkpt lat="49.24793" lon="0.14431">
        <ele>62.8</ele>
        <time>2017-05-14T08:11:05Z</time>
      </trkpt>
      <trkpt lat="49.24795" lon="0.14425">
        <ele>63.2</ele>
        <time>2017-05-14T08:11:07Z</time>
      </trkpt>
      <trkpt lat="49.24797" lon="0.14419">
        <ele>63.7</ele>
        <time>2017-05-14T08:11:09Z</time>
      </trkpt>
      <trkpt lat="49.24799" lon="0.1441">
        <ele>64.3</ele>
        <time>2017-05-14T08:11:11Z</time>
      </trkpt>
      <trkpt lat="49.248" lon="0.14405">
        <ele>64.7</ele>
        <time>2017-05-14T08:11:12Z</time>
      </trkpt>
      <trkpt lat="49.24802" lon="0.14399">
        <ele>65</ele>
        <time>2017-05-14T08:11:13Z</time>
      </trkpt>
      <trkpt lat="49.24804" lon="0.14393">
        <ele>65.4</ele>
        <time>2017-05-14T08:11:14Z</time>
      </trkpt>
      <trkpt lat="49.24806" lon="0.14389">
        <ele>66</ele>
        <time>2017-05-14T08:11:15Z</time>
      </trkpt>
      <trkpt lat="49.24809" lon="0.14384">
        <ele>66.4</ele>
        <time>2017-05-14T08:11:16Z</time>
      </trkpt>
      <trkpt lat="49.24812" lon="0.14377">
        <ele>67</ele>
        <time>2017-05-14T08:11:18Z</time>
      </trkpt>
      <trkpt lat="49.24814" lon="0.1437">
        <ele>67.4</ele>
        <time>2017-05-14T08:11:20Z</time>
      </trkpt>
      <trkpt lat="49.24817" lon="0.14364">
        <ele>67.8</ele>
        <time>2017-05-14T08:11:25Z</time>
      </trkpt>
      <trkpt lat="49.24819" lon="0.1436">
        <ele>68.3</ele>
        <time>2017-05-14T08:11:26Z</time>
      </trkpt>
      <trkpt lat="49.24821" lon="0.14355">
        <ele>68.6</ele>
        <time>2017-05-14T08:11:27Z</time>
      </trkpt>
      <trkpt lat="49.24823" lon="0.14352">
        <ele>68.8</ele>
        <time>2017-05-14T08:11:28Z</time>
      </trkpt>
      <trkpt lat="49.24824" lon="0.14348">
        <ele>69</ele>
        <time>2017-05-14T08:11:29Z</time>
      </trkpt>
      <trkpt lat="49.24826" lon="0.14344">
        <ele>69.4</ele>
        <time>2017-05-14T08:11:30Z</time>
      </trkpt>
      <trkpt lat="49.24827" lon="0.1434">
        <ele>69.7</ele>
        <time>2017-05-14T08:11:31Z</time>
      </trkpt>
      <trkpt lat="49.2483" lon="0.14327">
        <ele>70.3</ele>
        <time>2017-05-14T08:11:36Z</time>
      </trkpt>
      <trkpt lat="49.24833" lon="0.14322">
        <ele>70.6</ele>
        <time>2017-05-14T08:11:38Z</time>
      </trkpt>
      <trkpt lat="49.24836" lon="0.14316">
        <ele>70.9</ele>
        <time>2017-05-14T08:11:40Z</time>
      </trkpt>
      <trkpt lat="49.24838" lon="0.14313">
        <ele>71.1</ele>
        <time>2017-05-14T08:11:42Z</time>
      </trkpt>
      <trkpt lat="49.24839" lon="0.14309">
        <ele>71.3</ele>
        <time>2017-05-14T08:11:44Z</time>
      </trkpt>
      <trkpt lat="49.24843" lon="0.14298">
        <ele>71.9</ele>
        <time>2017-05-14T08:11:53Z</time>
      </trkpt>
      <trkpt lat="49.24846" lon="0.14287">
        <ele>72.5</ele>
        <time>2017-05-14T08:11:55Z</time>
      </trkpt>
      <trkpt lat="49.24849" lon="0.14281">
        <ele>72.9</ele>
        <time>2017-05-14T08:11:56Z</time>
      </trkpt>
      <trkpt lat="49.24852" lon="0.14275">
        <ele>73.2</ele>
        <time>2017-05-14T08:11:57Z</time>
      </trkpt>
      <trkpt lat="49.24855" lon="0.14271">
        <ele>73.5</ele>
        <time>2017-05-14T08:11:58Z</time>
      </trkpt>
      <trkpt lat="49.24857" lon="0.14267">
        <ele>73.7</ele>
        <time>2017-05-14T08:11:59Z</time>
      </trkpt>
      <trkpt lat="49.24859" lon="0.14264">
        <ele>74</ele>
        <time>2017-05-14T08:12:00Z</time>
      </trkpt>
      <trkpt lat="49.24862" lon="0.1426">
        <ele>74.2</ele>
        <time>2017-05-14T08:12:02Z</time>
      </trkpt>
      <trkpt lat="49.24865" lon="0.14255">
        <ele>74.5</ele>
        <time>2017-05-14T08:12:04Z</time>
      </trkpt>
      <trkpt lat="49.24868" lon="0.14249">
        <ele>74.8</ele>
        <time>2017-05-14T08:12:06Z</time>
      </trkpt>
      <trkpt lat="49.2487" lon="0.14245">
        <ele>75</ele>
        <time>2017-05-14T08:12:07Z</time>
      </trkpt>
      <trkpt lat="49.24871" lon="0.14241">
        <ele>75.3</ele>
        <time>2017-05-14T08:12:08Z</time>
      </trkpt>
      <trkpt lat="49.24874" lon="0.14235">
        <ele>75.6</ele>
        <time>2017-05-14T08:12:10Z</time>
      </trkpt>
      <trkpt lat="49.24876" lon="0.14229">
        <ele>75.8</ele>
        <time>2017-05-14T08:12:12Z</time>
      </trkpt>
      <trkpt lat="49.24878" lon="0.14223">
        <ele>76.1</ele>
        <time>2017-05-14T08:12:14Z</time>
      </trkpt>
      <trkpt lat="49.2488" lon="0.14219">
        <ele>76.4</ele>
        <time>2017-05-14T08:12:16Z</time>
      </trkpt>
      <trkpt lat="49.24885" lon="0.14203">
        <ele>77.2</ele>
        <time>2017-05-14T08:12:24Z</time>
      </trkpt>
      <trkpt lat="49.24887" lon="0.14199">
        <ele>77.3</ele>
        <time>2017-05-14T08:12:25Z</time>
      </trkpt>
      <trkpt lat="49.24895" lon="0.14183">
        <ele>78.5</ele>
        <time>2017-05-14T08:12:33Z</time>
      </trkpt>
      <trkpt lat="49.24902" lon="0.14174">
        <ele>79.2</ele>
        <time>2017-05-14T08:12:37Z</time>
      </trkpt>
      <trkpt lat="49.24905" lon="0.14171">
        <ele>79.5</ele>
        <time>2017-05-14T08:12:38Z</time>
      </trkpt>
      <trkpt lat="49.24911" lon="0.14164">
        <ele>80</ele>
        <time>2017-05-14T08:12:40Z</time>
      </trkpt>
      <trkpt lat="49.24914" lon="0.1416">
        <ele>80.7</ele>
        <time>2017-05-14T08:12:41Z</time>
      </trkpt>
      <trkpt lat="49.24919" lon="0.14156">
        <ele>81.2</ele>
        <time>2017-05-14T08:12:43Z</time>
      </trkpt>
      <trkpt lat="49.24921" lon="0.14154">
        <ele>81.4</ele>
        <time>2017-05-14T08:12:44Z</time>
      </trkpt>
      <trkpt lat="49.24928" lon="0.14148">
        <ele>82.4</ele>
        <time>2017-05-14T08:12:47Z</time>
      </trkpt>
      <trkpt lat="49.24932" lon="0.14144">
        <ele>83</ele>
        <time>2017-05-14T08:12:48Z</time>
      </trkpt>
      <trkpt lat="49.24936" lon="0.1414">
        <ele>83.5</ele>
        <time>2017-05-14T08:12:49Z</time>
      </trkpt>
      <trkpt lat="49.24938" lon="0.14137">
        <ele>83.9</ele>
        <time>2017-05-14T08:12:50Z</time>
      </trkpt>
      <trkpt lat="49.24941" lon="0.14133">
        <ele>84.5</ele>
        <time>2017-05-14T08:12:52Z</time>
      </trkpt>
      <trkpt lat="49.24943" lon="0.14129">
        <ele>85</ele>
        <time>2017-05-14T08:12:54Z</time>
      </trkpt>
      <trkpt lat="49.24944" lon="0.14125">
        <ele>85.2</ele>
        <time>2017-05-14T08:12:56Z</time>
      </trkpt>
      <trkpt lat="49.24947" lon="0.14121">
        <ele>85.6</ele>
        <time>2017-05-14T08:12:58Z</time>
      </trkpt>
      <trkpt lat="49.24952" lon="0.14101">
        <ele>87</ele>
        <time>2017-05-14T08:13:10Z</time>
      </trkpt>
      <trkpt lat="49.24992" lon="0.14064">
        <ele>95</ele>
        <time>2017-05-14T08:13:54Z</time>
      </trkpt>
      <trkpt lat="49.24994" lon="0.14067">
        <ele>95.3</ele>
        <time>2017-05-14T08:13:56Z</time>
      </trkpt>
      <trkpt lat="49.25003" lon="0.14074">
        <ele>96.3</ele>
        <time>2017-05-14T08:14:02Z</time>
      </trkpt>
      <trkpt lat="49.25011" lon="0.14076">
        <ele>97.1</ele>
        <time>2017-05-14T08:14:06Z</time>
      </trkpt>
      <trkpt lat="49.25035" lon="0.14082">
        <ele>99.6</ele>
        <time>2017-05-14T08:14:25Z</time>
      </trkpt>
      <trkpt lat="49.25042" lon="0.14083">
        <ele>100.2</ele>
        <time>2017-05-14T08:14:28Z</time>
      </trkpt>
      <trkpt lat="49.25046" lon="0.14082">
        <ele>100.7</ele>
        <time>2017-05-14T08:14:30Z</time>
      </trkpt>
      <trkpt lat="49.25049" lon="0.14081">
        <ele>101</ele>
        <time>2017-05-14T08:14:31Z</time>
      </trkpt>
      <trkpt lat="49.25051" lon="0.1408">
        <ele>101.2</ele>
        <time>2017-05-14T08:14:32Z</time>
      </trkpt>
      <trkpt lat="49.25056" lon="0.14077">
        <ele>101.7</ele>
        <time>2017-05-14T08:14:33Z</time>
      </trkpt>
      <trkpt lat="49.25061" lon="0.14075">
        <ele>103</ele>
        <time>2017-05-14T08:14:34Z</time>
      </trkpt>
      <trkpt lat="49.25067" lon="0.14072">
        <ele>104.9</ele>
        <time>2017-05-14T08:14:35Z</time>
      </trkpt>
      <trkpt lat="49.25071" lon="0.1407">
        <ele>105.7</ele>
        <time>2017-05-14T08:14:36Z</time>
      </trkpt>
      <trkpt lat="49.25076" lon="0.14069">
        <ele>106.4</ele>
        <time>2017-05-14T08:14:37Z</time>
      </trkpt>
      <trkpt lat="49.2508" lon="0.14069">
        <ele>107.1</ele>
        <time>2017-05-14T08:14:38Z</time>
      </trkpt>
      <trkpt lat="49.25085" lon="0.14069">
        <ele>107.7</ele>
        <time>2017-05-14T08:14:40Z</time>
      </trkpt>
      <trkpt lat="49.25089" lon="0.14068">
        <ele>108.1</ele>
        <time>2017-05-14T08:14:43Z</time>
      </trkpt>
      <trkpt lat="49.25092" lon="0.14069">
        <ele>108.5</ele>
        <time>2017-05-14T08:14:46Z</time>
      </trkpt>
      <trkpt lat="49.25093" lon="0.14073">
        <ele>108.9</ele>
        <time>2017-05-14T08:14:48Z</time>
      </trkpt>
      <trkpt lat="49.25095" lon="0.14079">
        <ele>109.4</ele>
        <time>2017-05-14T08:14:50Z</time>
      </trkpt>
      <trkpt lat="49.25097" lon="0.14085">
        <ele>109.9</ele>
        <time>2017-05-14T08:14:52Z</time>
      </trkpt>
      <trkpt lat="49.25099" lon="0.14091">
        <ele>110.3</ele>
        <time>2017-05-14T08:14:54Z</time>
      </trkpt>
      <trkpt lat="49.25101" lon="0.14096">
        <ele>110.5</ele>
        <time>2017-05-14T08:14:56Z</time>
      </trkpt>
      <trkpt lat="49.25102" lon="0.141">
        <ele>110.3</ele>
        <time>2017-05-14T08:14:58Z</time>
      </trkpt>
      <trkpt lat="49.25103" lon="0.14104">
        <ele>110.3</ele>
        <time>2017-05-14T08:15:00Z</time>
      </trkpt>
      <trkpt lat="49.25105" lon="0.14107">
        <ele>110.1</ele>
        <time>2017-05-14T08:15:02Z</time>
      </trkpt>
      <trkpt lat="49.25106" lon="0.14112">
        <ele>110.1</ele>
        <time>2017-05-14T08:15:05Z</time>
      </trkpt>
      <trkpt lat="49.25108" lon="0.14117">
        <ele>109.8</ele>
        <time>2017-05-14T08:15:07Z</time>
      </trkpt>
      <trkpt lat="49.25109" lon="0.14124">
        <ele>109.2</ele>
        <time>2017-05-14T08:15:09Z</time>
      </trkpt>
      <trkpt lat="49.25111" lon="0.14132">
        <ele>108.8</ele>
        <time>2017-05-14T08:15:11Z</time>
      </trkpt>
      <trkpt lat="49.25112" lon="0.14136">
        <ele>108.6</ele>
        <time>2017-05-14T08:15:12Z</time>
      </trkpt>
      <trkpt lat="49.25113" lon="0.14141">
        <ele>108.3</ele>
        <time>2017-05-14T08:15:13Z</time>
      </trkpt>
      <trkpt lat="49.25114" lon="0.14145">
        <ele>108.2</ele>
        <time>2017-05-14T08:15:14Z</time>
      </trkpt>
      <trkpt lat="49.25116" lon="0.14149">
        <ele>107.9</ele>
        <time>2017-05-14T08:15:15Z</time>
      </trkpt>
      <trkpt lat="49.25117" lon="0.14153">
        <ele>108</ele>
        <time>2017-05-14T08:15:16Z</time>
      </trkpt>
      <trkpt lat="49.25119" lon="0.14161">
        <ele>107.7</ele>
        <time>2017-05-14T08:15:18Z</time>
      </trkpt>
      <trkpt lat="49.2512" lon="0.14165">
        <ele>107.9</ele>
        <time>2017-05-14T08:15:19Z</time>
      </trkpt>
      <trkpt lat="49.25121" lon="0.1417">
        <ele>107.8</ele>
        <time>2017-05-14T08:15:20Z</time>
      </trkpt>
      <trkpt lat="49.25122" lon="0.14176">
        <ele>107.7</ele>
        <time>2017-05-14T08:15:21Z</time>
      </trkpt>
      <trkpt lat="49.25123" lon="0.14182">
        <ele>107.7</ele>
        <time>2017-05-14T08:15:22Z</time>
      </trkpt>
      <trkpt lat="49.25125" lon="0.14187">
        <ele>107.6</ele>
        <time>2017-05-14T08:15:23Z</time>
      </trkpt>
      <trkpt lat="49.25127" lon="0.14192">
        <ele>107.7</ele>
        <time>2017-05-14T08:15:24Z</time>
      </trkpt>
      <trkpt lat="49.25128" lon="0.14196">
        <ele>107.6</ele>
        <time>2017-05-14T08:15:25Z</time>
      </trkpt>
      <trkpt lat="49.25129" lon="0.14201">
        <ele>107.7</ele>
        <time>2017-05-14T08:15:26Z</time>
      </trkpt>
      <trkpt lat="49.2513" lon="0.14205">
        <ele>107.7</ele>
        <time>2017-05-14T08:15:27Z</time>
      </trkpt>
      <trkpt lat="49.25132" lon="0.14213">
        <ele>108</ele>
        <time>2017-05-14T08:15:29Z</time>
      </trkpt>
      <trkpt lat="49.25134" lon="0.14222">
        <ele>108.4</ele>
        <time>2017-05-14T08:15:31Z</time>
      </trkpt>
      <trkpt lat="49.25135" lon="0.14226">
        <ele>108.4</ele>
        <time>2017-05-14T08:15:32Z</time>
      </trkpt>
      <trkpt lat="49.25137" lon="0.14232">
        <ele>108.4</ele>
        <time>2017-05-14T08:15:34Z</time>
      </trkpt>
      <trkpt lat="49.25139" lon="0.14241">
        <ele>107.9</ele>
        <time>2017-05-14T08:15:36Z</time>
      </trkpt>
      <trkpt lat="49.2514" lon="0.14247">
        <ele>107.7</ele>
        <time>2017-05-14T08:15:37Z</time>
      </trkpt>
      <trkpt lat="49.25142" lon="0.14253">
        <ele>107.4</ele>
        <time>2017-05-14T08:15:39Z</time>
      </trkpt>
      <trkpt lat="49.25144" lon="0.14257">
        <ele>107.2</ele>
        <time>2017-05-14T08:15:40Z</time>
      </trkpt>
      <trkpt lat="49.25145" lon="0.14263">
        <ele>107.2</ele>
        <time>2017-05-14T08:15:41Z</time>
      </trkpt>
      <trkpt lat="49.25145" lon="0.1427">
        <ele>107</ele>
        <time>2017-05-14T08:15:42Z</time>
      </trkpt>
      <trkpt lat="49.25147" lon="0.14278">
        <ele>106.9</ele>
        <time>2017-05-14T08:15:43Z</time>
      </trkpt>
      <trkpt lat="49.25148" lon="0.14283">
        <ele>106.9</ele>
        <time>2017-05-14T08:15:44Z</time>
      </trkpt>
      <trkpt lat="49.25151" lon="0.14291">
        <ele>106.9</ele>
        <time>2017-05-14T08:15:46Z</time>
      </trkpt>
      <trkpt lat="49.25153" lon="0.14295">
        <ele>106.8</ele>
        <time>2017-05-14T08:15:47Z</time>
      </trkpt>
      <trkpt lat="49.25155" lon="0.14298">
        <ele>106.8</ele>
        <time>2017-05-14T08:15:48Z</time>
      </trkpt>
      <trkpt lat="49.25157" lon="0.14304">
        <ele>106.8</ele>
        <time>2017-05-14T08:15:49Z</time>
      </trkpt>
      <trkpt lat="49.25159" lon="0.14309">
        <ele>106.6</ele>
        <time>2017-05-14T08:15:50Z</time>
      </trkpt>
      <trkpt lat="49.25161" lon="0.14314">
        <ele>106.5</ele>
        <time>2017-05-14T08:15:51Z</time>
      </trkpt>
      <trkpt lat="49.25163" lon="0.14318">
        <ele>106.6</ele>
        <time>2017-05-14T08:15:52Z</time>
      </trkpt>
      <trkpt lat="49.25164" lon="0.14322">
        <ele>106.6</ele>
        <time>2017-05-14T08:15:53Z</time>
      </trkpt>
      <trkpt lat="49.25166" lon="0.14326">
        <ele>106.8</ele>
        <time>2017-05-14T08:15:54Z</time>
      </trkpt>
      <trkpt lat="49.25171" lon="0.14336">
        <ele>107.2</ele>
        <time>2017-05-14T08:15:56Z</time>
      </trkpt>
      <trkpt lat="49.25173" lon="0.14342">
        <ele>107.2</ele>
        <time>2017-05-14T08:15:57Z</time>
      </trkpt>
      <trkpt lat="49.25176" lon="0.14352">
        <ele>107.5</ele>
        <time>2017-05-14T08:15:58Z</time>
      </trkpt>
      <trkpt lat="49.25179" lon="0.14361">
        <ele>107.4</ele>
        <time>2017-05-14T08:15:59Z</time>
      </trkpt>
      <trkpt lat="49.25182" lon="0.14372">
        <ele>107.2</ele>
        <time>2017-05-14T08:16:00Z</time>
      </trkpt>
      <trkpt lat="49.25184" lon="0.14378">
        <ele>106.9</ele>
        <time>2017-05-14T08:16:01Z</time>
      </trkpt>
      <trkpt lat="49.25187" lon="0.14385">
        <ele>106.8</ele>
        <time>2017-05-14T08:16:02Z</time>
      </trkpt>
      <trkpt lat="49.25191" lon="0.14394">
        <ele>106.2</ele>
        <time>2017-05-14T08:16:03Z</time>
      </trkpt>
      <trkpt lat="49.25193" lon="0.14404">
        <ele>105.9</ele>
        <time>2017-05-14T08:16:04Z</time>
      </trkpt>
      <trkpt lat="49.25195" lon="0.1441">
        <ele>105.7</ele>
        <time>2017-05-14T08:16:05Z</time>
      </trkpt>
      <trkpt lat="49.25197" lon="0.14415">
        <ele>105.6</ele>
        <time>2017-05-14T08:16:06Z</time>
      </trkpt>
      <trkpt lat="49.25199" lon="0.14423">
        <ele>105.5</ele>
        <time>2017-05-14T08:16:07Z</time>
      </trkpt>
      <trkpt lat="49.25201" lon="0.14428">
        <ele>105.6</ele>
        <time>2017-05-14T08:16:08Z</time>
      </trkpt>
      <trkpt lat="49.25203" lon="0.14433">
        <ele>105.6</ele>
        <time>2017-05-14T08:16:09Z</time>
      </trkpt>
      <trkpt lat="49.25205" lon="0.14438">
        <ele>105.7</ele>
        <time>2017-05-14T08:16:10Z</time>
      </trkpt>
      <trkpt lat="49.25208" lon="0.14443">
        <ele>105.8</ele>
        <time>2017-05-14T08:16:11Z</time>
      </trkpt>
      <trkpt lat="49.2521" lon="0.14449">
        <ele>105.8</ele>
        <time>2017-05-14T08:16:12Z</time>
      </trkpt>
      <trkpt lat="49.25213" lon="0.14455">
        <ele>105.7</ele>
        <time>2017-05-14T08:16:13Z</time>
      </trkpt>
      <trkpt lat="49.25214" lon="0.1446">
        <ele>105.5</ele>
        <time>2017-05-14T08:16:14Z</time>
      </trkpt>
      <trkpt lat="49.25217" lon="0.14463">
        <ele>105.3</ele>
        <time>2017-05-14T08:16:15Z</time>
      </trkpt>
      <trkpt lat="49.25219" lon="0.14468">
        <ele>105.2</ele>
        <time>2017-05-14T08:16:16Z</time>
      </trkpt>
      <trkpt lat="49.25221" lon="0.14472">
        <ele>105.1</ele>
        <time>2017-05-14T08:16:17Z</time>
      </trkpt>
      <trkpt lat="49.25222" lon="0.14476">
        <ele>105</ele>
        <time>2017-05-14T08:16:18Z</time>
      </trkpt>
      <trkpt lat="49.25224" lon="0.14481">
        <ele>105</ele>
        <time>2017-05-14T08:16:19Z</time>
      </trkpt>
      <trkpt lat="49.25225" lon="0.14487">
        <ele>105</ele>
        <time>2017-05-14T08:16:20Z</time>
      </trkpt>
      <trkpt lat="49.25227" lon="0.14493">
        <ele>105.4</ele>
        <time>2017-05-14T08:16:21Z</time>
      </trkpt>
      <trkpt lat="49.25228" lon="0.14497">
        <ele>105.5</ele>
        <time>2017-05-14T08:16:22Z</time>
      </trkpt>
      <trkpt lat="49.2523" lon="0.14506">
        <ele>106</ele>
        <time>2017-05-14T08:16:23Z</time>
      </trkpt>
      <trkpt lat="49.25231" lon="0.14511">
        <ele>106</ele>
        <time>2017-05-14T08:16:24Z</time>
      </trkpt>
      <trkpt lat="49.25232" lon="0.14515">
        <ele>106</ele>
        <time>2017-05-14T08:16:25Z</time>
      </trkpt>
      <trkpt lat="49.25232" lon="0.14524">
        <ele>106.2</ele>
        <time>2017-05-14T08:16:27Z</time>
      </trkpt>
      <trkpt lat="49.2523" lon="0.14528">
        <ele>105.8</ele>
        <time>2017-05-14T08:16:28Z</time>
      </trkpt>
      <trkpt lat="49.25228" lon="0.14531">
        <ele>105.3</ele>
        <time>2017-05-14T08:16:29Z</time>
      </trkpt>
      <trkpt lat="49.25225" lon="0.14536">
        <ele>104.7</ele>
        <time>2017-05-14T08:16:30Z</time>
      </trkpt>
      <trkpt lat="49.25223" lon="0.14541">
        <ele>104.1</ele>
        <time>2017-05-14T08:16:31Z</time>
      </trkpt>
      <trkpt lat="49.2522" lon="0.14548">
        <ele>103.5</ele>
        <time>2017-05-14T08:16:32Z</time>
      </trkpt>
      <trkpt lat="49.25221" lon="0.14552">
        <ele>103.7</ele>
        <time>2017-05-14T08:16:33Z</time>
      </trkpt>
      <trkpt lat="49.25222" lon="0.14561">
        <ele>103.4</ele>
        <time>2017-05-14T08:16:34Z</time>
      </trkpt>
      <trkpt lat="49.25222" lon="0.14565">
        <ele>103.3</ele>
        <time>2017-05-14T08:16:35Z</time>
      </trkpt>
      <trkpt lat="49.25224" lon="0.14574">
        <ele>103.7</ele>
        <time>2017-05-14T08:16:36Z</time>
      </trkpt>
      <trkpt lat="49.25226" lon="0.14583">
        <ele>103.7</ele>
        <time>2017-05-14T08:16:37Z</time>
      </trkpt>
      <trkpt lat="49.25226" lon="0.14588">
        <ele>104.1</ele>
        <time>2017-05-14T08:16:38Z</time>
      </trkpt>
      <trkpt lat="49.25227" lon="0.14595">
        <ele>104.1</ele>
        <time>2017-05-14T08:16:40Z</time>
      </trkpt>
      <trkpt lat="49.25228" lon="0.14605">
        <ele>104.1</ele>
        <time>2017-05-14T08:16:41Z</time>
      </trkpt>
      <trkpt lat="49.25229" lon="0.14613">
        <ele>104.3</ele>
        <time>2017-05-14T08:16:42Z</time>
      </trkpt>
      <trkpt lat="49.25229" lon="0.14621">
        <ele>104.1</ele>
        <time>2017-05-14T08:16:43Z</time>
      </trkpt>
      <trkpt lat="49.25232" lon="0.14628">
        <ele>103.6</ele>
        <time>2017-05-14T08:16:44Z</time>
      </trkpt>
      <trkpt lat="49.25234" lon="0.14636">
        <ele>103.5</ele>
        <time>2017-05-14T08:16:45Z</time>
      </trkpt>
      <trkpt lat="49.25235" lon="0.14641">
        <ele>103.6</ele>
        <time>2017-05-14T08:16:46Z</time>
      </trkpt>
      <trkpt lat="49.25237" lon="0.14646">
        <ele>103.5</ele>
        <time>2017-05-14T08:16:47Z</time>
      </trkpt>
      <trkpt lat="49.25237" lon="0.14651">
        <ele>103.3</ele>
        <time>2017-05-14T08:16:48Z</time>
      </trkpt>
      <trkpt lat="49.25237" lon="0.14655">
        <ele>103.1</ele>
        <time>2017-05-14T08:16:49Z</time>
      </trkpt>
      <trkpt lat="49.25234" lon="0.14665">
        <ele>102.2</ele>
        <time>2017-05-14T08:16:51Z</time>
      </trkpt>
      <trkpt lat="49.25228" lon="0.14667">
        <ele>101.5</ele>
        <time>2017-05-14T08:16:55Z</time>
      </trkpt>
      <trkpt lat="49.25226" lon="0.14669">
        <ele>101.3</ele>
        <time>2017-05-14T08:16:56Z</time>
      </trkpt>
      <trkpt lat="49.2522" lon="0.14674">
        <ele>100.2</ele>
        <time>2017-05-14T08:16:57Z</time>
      </trkpt>
      <trkpt lat="49.25212" lon="0.14683">
        <ele>98.3</ele>
        <time>2017-05-14T08:16:58Z</time>
      </trkpt>
      <trkpt lat="49.25203" lon="0.14696">
        <ele>95.7</ele>
        <time>2017-05-14T08:16:59Z</time>
      </trkpt>
      <trkpt lat="49.25195" lon="0.1471">
        <ele>93.6</ele>
        <time>2017-05-14T08:17:00Z</time>
      </trkpt>
      <trkpt lat="49.25189" lon="0.14724">
        <ele>92.3</ele>
        <time>2017-05-14T08:17:01Z</time>
      </trkpt>
      <trkpt lat="49.25182" lon="0.14736">
        <ele>91.2</ele>
        <time>2017-05-14T08:17:02Z</time>
      </trkpt>
      <trkpt lat="49.25177" lon="0.14748">
        <ele>90.1</ele>
        <time>2017-05-14T08:17:03Z</time>
      </trkpt>
      <trkpt lat="49.25174" lon="0.14757">
        <ele>89.4</ele>
        <time>2017-05-14T08:17:04Z</time>
      </trkpt>
      <trkpt lat="49.25171" lon="0.14768">
        <ele>88</ele>
        <time>2017-05-14T08:17:05Z</time>
      </trkpt>
      <trkpt lat="49.25168" lon="0.1478">
        <ele>86.5</ele>
        <time>2017-05-14T08:17:06Z</time>
      </trkpt>
      <trkpt lat="49.25166" lon="0.14791">
        <ele>85.4</ele>
        <time>2017-05-14T08:17:07Z</time>
      </trkpt>
      <trkpt lat="49.25164" lon="0.14802">
        <ele>84</ele>
        <time>2017-05-14T08:17:08Z</time>
      </trkpt>
      <trkpt lat="49.25162" lon="0.14814">
        <ele>83.6</ele>
        <time>2017-05-14T08:17:09Z</time>
      </trkpt>
      <trkpt lat="49.2516" lon="0.1483">
        <ele>82.2</ele>
        <time>2017-05-14T08:17:10Z</time>
      </trkpt>
      <trkpt lat="49.2516" lon="0.14845">
        <ele>80.8</ele>
        <time>2017-05-14T08:17:11Z</time>
      </trkpt>
      <trkpt lat="49.25159" lon="0.14856">
        <ele>80.1</ele>
        <time>2017-05-14T08:17:12Z</time>
      </trkpt>
      <trkpt lat="49.25158" lon="0.14868">
        <ele>78.6</ele>
        <time>2017-05-14T08:17:13Z</time>
      </trkpt>
      <trkpt lat="49.25157" lon="0.14879">
        <ele>78.2</ele>
        <time>2017-05-14T08:17:14Z</time>
      </trkpt>
      <trkpt lat="49.25156" lon="0.14891">
        <ele>79.2</ele>
        <time>2017-05-14T08:17:15Z</time>
      </trkpt>
      <trkpt lat="49.25155" lon="0.14903">
        <ele>79.8</ele>
        <time>2017-05-14T08:17:16Z</time>
      </trkpt>
      <trkpt lat="49.25155" lon="0.14913">
        <ele>80.6</ele>
        <time>2017-05-14T08:17:17Z</time>
      </trkpt>
      <trkpt lat="49.25156" lon="0.14922">
        <ele>80.8</ele>
        <time>2017-05-14T08:17:18Z</time>
      </trkpt>
      <trkpt lat="49.25156" lon="0.1493">
        <ele>80.9</ele>
        <time>2017-05-14T08:17:19Z</time>
      </trkpt>
      <trkpt lat="49.25156" lon="0.14939">
        <ele>81</ele>
        <time>2017-05-14T08:17:20Z</time>
      </trkpt>
      <trkpt lat="49.25156" lon="0.14951">
        <ele>81.1</ele>
        <time>2017-05-14T08:17:21Z</time>
      </trkpt>
      <trkpt lat="49.25155" lon="0.14963">
        <ele>81</ele>
        <time>2017-05-14T08:17:22Z</time>
      </trkpt>
      <trkpt lat="49.25155" lon="0.14975">
        <ele>81</ele>
        <time>2017-05-14T08:17:23Z</time>
      </trkpt>
      <trkpt lat="49.25154" lon="0.14989">
        <ele>80.9</ele>
        <time>2017-05-14T08:17:24Z</time>
      </trkpt>
      <trkpt lat="49.25153" lon="0.15005">
        <ele>80.7</ele>
        <time>2017-05-14T08:17:25Z</time>
      </trkpt>
      <trkpt lat="49.25154" lon="0.15024">
        <ele>80.5</ele>
        <time>2017-05-14T08:17:26Z</time>
      </trkpt>
      <trkpt lat="49.25155" lon="0.1504">
        <ele>80.1</ele>
        <time>2017-05-14T08:17:27Z</time>
      </trkpt>
      <trkpt lat="49.25155" lon="0.15056">
        <ele>79.5</ele>
        <time>2017-05-14T08:17:28Z</time>
      </trkpt>
      <trkpt lat="49.25155" lon="0.15071">
        <ele>78.9</ele>
        <time>2017-05-14T08:17:29Z</time>
      </trkpt>
      <trkpt lat="49.25155" lon="0.15086">
        <ele>78.2</ele>
        <time>2017-05-14T08:17:30Z</time>
      </trkpt>
      <trkpt lat="49.25155" lon="0.15101">
        <ele>77.5</ele>
        <time>2017-05-14T08:17:31Z</time>
      </trkpt>
      <trkpt lat="49.25156" lon="0.15116">
        <ele>76.8</ele>
        <time>2017-05-14T08:17:32Z</time>
      </trkpt>
      <trkpt lat="49.25157" lon="0.15128">
        <ele>76.2</ele>
        <time>2017-05-14T08:17:33Z</time>
      </trkpt>
      <trkpt lat="49.2516" lon="0.15138">
        <ele>75.6</ele>
        <time>2017-05-14T08:17:34Z</time>
      </trkpt>
      <trkpt lat="49.25164" lon="0.15147">
        <ele>75</ele>
        <time>2017-05-14T08:17:35Z</time>
      </trkpt>
      <trkpt lat="49.25167" lon="0.15155">
        <ele>74.5</ele>
        <time>2017-05-14T08:17:36Z</time>
      </trkpt>
      <trkpt lat="49.25171" lon="0.15165">
        <ele>73.8</ele>
        <time>2017-05-14T08:17:37Z</time>
      </trkpt>
      <trkpt lat="49.25174" lon="0.15175">
        <ele>73</ele>
        <time>2017-05-14T08:17:38Z</time>
      </trkpt>
      <trkpt lat="49.25178" lon="0.15186">
        <ele>72.3</ele>
        <time>2017-05-14T08:17:39Z</time>
      </trkpt>
      <trkpt lat="49.25181" lon="0.15196">
        <ele>71.7</ele>
        <time>2017-05-14T08:17:40Z</time>
      </trkpt>
      <trkpt lat="49.25185" lon="0.15204">
        <ele>71.4</ele>
        <time>2017-05-14T08:17:41Z</time>
      </trkpt>
      <trkpt lat="49.25189" lon="0.15209">
        <ele>71.1</ele>
        <time>2017-05-14T08:17:42Z</time>
      </trkpt>
      <trkpt lat="49.25193" lon="0.15214">
        <ele>70.8</ele>
        <time>2017-05-14T08:17:43Z</time>
      </trkpt>
      <trkpt lat="49.25196" lon="0.15218">
        <ele>70.4</ele>
        <time>2017-05-14T08:17:44Z</time>
      </trkpt>
      <trkpt lat="49.25202" lon="0.15224">
        <ele>69.9</ele>
        <time>2017-05-14T08:17:45Z</time>
      </trkpt>
      <trkpt lat="49.25205" lon="0.15226">
        <ele>69.7</ele>
        <time>2017-05-14T08:17:46Z</time>
      </trkpt>
      <trkpt lat="49.25209" lon="0.15228">
        <ele>69.6</ele>
        <time>2017-05-14T08:17:47Z</time>
      </trkpt>
      <trkpt lat="49.25213" lon="0.1523">
        <ele>69.5</ele>
        <time>2017-05-14T08:17:48Z</time>
      </trkpt>
      <trkpt lat="49.25216" lon="0.15233">
        <ele>69.5</ele>
        <time>2017-05-14T08:17:49Z</time>
      </trkpt>
      <trkpt lat="49.2522" lon="0.15236">
        <ele>69.4</ele>
        <time>2017-05-14T08:17:50Z</time>
      </trkpt>
      <trkpt lat="49.25223" lon="0.15237">
        <ele>69.4</ele>
        <time>2017-05-14T08:17:51Z</time>
      </trkpt>
      <trkpt lat="49.25228" lon="0.15237">
        <ele>69.4</ele>
        <time>2017-05-14T08:17:52Z</time>
      </trkpt>
      <trkpt lat="49.25231" lon="0.15238">
        <ele>69.4</ele>
        <time>2017-05-14T08:17:53Z</time>
      </trkpt>
      <trkpt lat="49.25237" lon="0.15243">
        <ele>69.4</ele>
        <time>2017-05-14T08:17:55Z</time>
      </trkpt>
      <trkpt lat="49.25241" lon="0.15245">
        <ele>69.4</ele>
        <time>2017-05-14T08:17:56Z</time>
      </trkpt>
      <trkpt lat="49.25245" lon="0.15245">
        <ele>69.4</ele>
        <time>2017-05-14T08:17:57Z</time>
      </trkpt>
      <trkpt lat="49.2525" lon="0.15244">
        <ele>69.4</ele>
        <time>2017-05-14T08:17:58Z</time>
      </trkpt>
      <trkpt lat="49.25254" lon="0.15243">
        <ele>69.4</ele>
        <time>2017-05-14T08:17:59Z</time>
      </trkpt>
      <trkpt lat="49.25261" lon="0.15241">
        <ele>69.4</ele>
        <time>2017-05-14T08:18:01Z</time>
      </trkpt>
      <trkpt lat="49.25264" lon="0.1524">
        <ele>69.4</ele>
        <time>2017-05-14T08:18:02Z</time>
      </trkpt>
      <trkpt lat="49.25271" lon="0.15239">
        <ele>69.4</ele>
        <time>2017-05-14T08:18:05Z</time>
      </trkpt>
      <trkpt lat="49.2528" lon="0.15235">
        <ele>69.4</ele>
        <time>2017-05-14T08:18:08Z</time>
      </trkpt>
      <trkpt lat="49.25288" lon="0.15232">
        <ele>69.4</ele>
        <time>2017-05-14T08:18:09Z</time>
      </trkpt>
      <trkpt lat="49.25293" lon="0.15228">
        <ele>69.4</ele>
        <time>2017-05-14T08:18:10Z</time>
      </trkpt>
      <trkpt lat="49.25301" lon="0.15223">
        <ele>69.4</ele>
        <time>2017-05-14T08:18:12Z</time>
      </trkpt>
      <trkpt lat="49.25306" lon="0.1522">
        <ele>69.4</ele>
        <time>2017-05-14T08:18:13Z</time>
      </trkpt>
      <trkpt lat="49.2531" lon="0.15217">
        <ele>69.4</ele>
        <time>2017-05-14T08:18:14Z</time>
      </trkpt>
      <trkpt lat="49.25313" lon="0.15215">
        <ele>68.7</ele>
        <time>2017-05-14T08:18:15Z</time>
      </trkpt>
      <trkpt lat="49.25316" lon="0.15212">
        <ele>68.9</ele>
        <time>2017-05-14T08:18:16Z</time>
      </trkpt>
      <trkpt lat="49.25321" lon="0.15207">
        <ele>69.3</ele>
        <time>2017-05-14T08:18:18Z</time>
      </trkpt>
      <trkpt lat="49.25334" lon="0.15185">
        <ele>72.6</ele>
        <time>2017-05-14T08:18:26Z</time>
      </trkpt>
      <trkpt lat="49.25337" lon="0.15181">
        <ele>73.2</ele>
        <time>2017-05-14T08:18:27Z</time>
      </trkpt>
      <trkpt lat="49.25341" lon="0.15173">
        <ele>74.3</ele>
        <time>2017-05-14T08:18:29Z</time>
      </trkpt>
      <trkpt lat="49.25353" lon="0.15152">
        <ele>77</ele>
        <time>2017-05-14T08:18:35Z</time>
      </trkpt>
      <trkpt lat="49.25359" lon="0.1514">
        <ele>78.9</ele>
        <time>2017-05-14T08:18:39Z</time>
      </trkpt>
      <trkpt lat="49.25363" lon="0.15135">
        <ele>79.2</ele>
        <time>2017-05-14T08:18:40Z</time>
      </trkpt>
      <trkpt lat="49.25367" lon="0.15132">
        <ele>78.7</ele>
        <time>2017-05-14T08:18:41Z</time>
      </trkpt>
      <trkpt lat="49.25384" lon="0.15123">
        <ele>78.1</ele>
        <time>2017-05-14T08:18:48Z</time>
      </trkpt>
      <trkpt lat="49.25419" lon="0.15103">
        <ele>74.4</ele>
        <time>2017-05-14T08:18:52Z</time>
      </trkpt>
      <trkpt lat="49.25428" lon="0.151">
        <ele>74.4</ele>
        <time>2017-05-14T08:18:53Z</time>
      </trkpt>
      <trkpt lat="49.25437" lon="0.15097">
        <ele>74.2</ele>
        <time>2017-05-14T08:18:54Z</time>
      </trkpt>
      <trkpt lat="49.25446" lon="0.15095">
        <ele>74.1</ele>
        <time>2017-05-14T08:18:55Z</time>
      </trkpt>
      <trkpt lat="49.25454" lon="0.15092">
        <ele>74</ele>
        <time>2017-05-14T08:18:56Z</time>
      </trkpt>
      <trkpt lat="49.25461" lon="0.15089">
        <ele>74</ele>
        <time>2017-05-14T08:18:57Z</time>
      </trkpt>
      <trkpt lat="49.25469" lon="0.15085">
        <ele>74</ele>
        <time>2017-05-14T08:18:58Z</time>
      </trkpt>
      <trkpt lat="49.25474" lon="0.15082">
        <ele>74</ele>
        <time>2017-05-14T08:18:59Z</time>
      </trkpt>
      <trkpt lat="49.2548" lon="0.15075">
        <ele>74</ele>
        <time>2017-05-14T08:19:00Z</time>
      </trkpt>
      <trkpt lat="49.25485" lon="0.1507">
        <ele>74</ele>
        <time>2017-05-14T08:19:01Z</time>
      </trkpt>
      <trkpt lat="49.25488" lon="0.15066">
        <ele>74</ele>
        <time>2017-05-14T08:19:02Z</time>
      </trkpt>
      <trkpt lat="49.25491" lon="0.15062">
        <ele>74</ele>
        <time>2017-05-14T08:19:03Z</time>
      </trkpt>
      <trkpt lat="49.25495" lon="0.15059">
        <ele>74</ele>
        <time>2017-05-14T08:19:04Z</time>
      </trkpt>
      <trkpt lat="49.25497" lon="0.15056">
        <ele>74</ele>
        <time>2017-05-14T08:19:05Z</time>
      </trkpt>
      <trkpt lat="49.25499" lon="0.15052">
        <ele>74</ele>
        <time>2017-05-14T08:19:06Z</time>
      </trkpt>
      <trkpt lat="49.25503" lon="0.15047">
        <ele>74</ele>
        <time>2017-05-14T08:19:08Z</time>
      </trkpt>
      <trkpt lat="49.25514" lon="0.1504">
        <ele>74</ele>
        <time>2017-05-14T08:19:16Z</time>
      </trkpt>
      <trkpt lat="49.25579" lon="0.15068">
        <ele>82</ele>
        <time>2017-05-14T08:20:33Z</time>
      </trkpt>
      <trkpt lat="49.25601" lon="0.15083">
        <ele>85.5</ele>
        <time>2017-05-14T08:21:01Z</time>
      </trkpt>
      <trkpt lat="49.25606" lon="0.1509">
        <ele>86.5</ele>
        <time>2017-05-14T08:21:13Z</time>
      </trkpt>
      <trkpt lat="49.25611" lon="0.15093">
        <ele>87.4</ele>
        <time>2017-05-14T08:21:22Z</time>
      </trkpt>
      <trkpt lat="49.2562" lon="0.15098">
        <ele>88.7</ele>
        <time>2017-05-14T08:21:33Z</time>
      </trkpt>
      <trkpt lat="49.2563" lon="0.15107">
        <ele>90.3</ele>
        <time>2017-05-14T08:21:53Z</time>
      </trkpt>
      <trkpt lat="49.2564" lon="0.1512">
        <ele>92.3</ele>
        <time>2017-05-14T08:22:50Z</time>
      </trkpt>
      <trkpt lat="49.2564" lon="0.15115">
        <ele>94.4</ele>
        <time>2017-05-14T08:22:52Z</time>
      </trkpt>
      <trkpt lat="49.25641" lon="0.15111">
        <ele>94.7</ele>
        <time>2017-05-14T08:22:54Z</time>
      </trkpt>
      <trkpt lat="49.25642" lon="0.15107">
        <ele>94.9</ele>
        <time>2017-05-14T08:22:55Z</time>
      </trkpt>
      <trkpt lat="49.25645" lon="0.151">
        <ele>95.3</ele>
        <time>2017-05-14T08:22:57Z</time>
      </trkpt>
      <trkpt lat="49.25647" lon="0.15093">
        <ele>95.5</ele>
        <time>2017-05-14T08:22:58Z</time>
      </trkpt>
      <trkpt lat="49.25649" lon="0.15089">
        <ele>95.6</ele>
        <time>2017-05-14T08:22:59Z</time>
      </trkpt>
      <trkpt lat="49.25649" lon="0.15085">
        <ele>95.7</ele>
        <time>2017-05-14T08:23:00Z</time>
      </trkpt>
      <trkpt lat="49.2565" lon="0.15079">
        <ele>95.9</ele>
        <time>2017-05-14T08:23:01Z</time>
      </trkpt>
      <trkpt lat="49.25652" lon="0.15075">
        <ele>96</ele>
        <time>2017-05-14T08:23:02Z</time>
      </trkpt>
      <trkpt lat="49.25654" lon="0.15072">
        <ele>96.1</ele>
        <time>2017-05-14T08:23:03Z</time>
      </trkpt>
      <trkpt lat="49.25657" lon="0.15066">
        <ele>96.3</ele>
        <time>2017-05-14T08:23:04Z</time>
      </trkpt>
      <trkpt lat="49.2566" lon="0.1506">
        <ele>96.5</ele>
        <time>2017-05-14T08:23:05Z</time>
      </trkpt>
      <trkpt lat="49.25662" lon="0.15054">
        <ele>96.6</ele>
        <time>2017-05-14T08:23:06Z</time>
      </trkpt>
      <trkpt lat="49.25664" lon="0.15051">
        <ele>96.8</ele>
        <time>2017-05-14T08:23:07Z</time>
      </trkpt>
      <trkpt lat="49.25668" lon="0.15044">
        <ele>97.3</ele>
        <time>2017-05-14T08:23:08Z</time>
      </trkpt>
      <trkpt lat="49.25671" lon="0.15038">
        <ele>97.7</ele>
        <time>2017-05-14T08:23:09Z</time>
      </trkpt>
      <trkpt lat="49.25673" lon="0.15034">
        <ele>98</ele>
        <time>2017-05-14T08:23:10Z</time>
      </trkpt>
      <trkpt lat="49.25675" lon="0.1503">
        <ele>98.3</ele>
        <time>2017-05-14T08:23:11Z</time>
      </trkpt>
      <trkpt lat="49.25677" lon="0.15024">
        <ele>98.7</ele>
        <time>2017-05-14T08:23:12Z</time>
      </trkpt>
      <trkpt lat="49.25679" lon="0.15019">
        <ele>99</ele>
        <time>2017-05-14T08:23:13Z</time>
      </trkpt>
      <trkpt lat="49.25682" lon="0.15014">
        <ele>99.5</ele>
        <time>2017-05-14T08:23:14Z</time>
      </trkpt>
      <trkpt lat="49.25685" lon="0.15007">
        <ele>100</ele>
        <time>2017-05-14T08:23:15Z</time>
      </trkpt>
      <trkpt lat="49.25688" lon="0.15001">
        <ele>100.4</ele>
        <time>2017-05-14T08:23:16Z</time>
      </trkpt>
      <trkpt lat="49.2569" lon="0.14994">
        <ele>100.9</ele>
        <time>2017-05-14T08:23:17Z</time>
      </trkpt>
      <trkpt lat="49.25693" lon="0.14989">
        <ele>101</ele>
        <time>2017-05-14T08:23:18Z</time>
      </trkpt>
      <trkpt lat="49.25696" lon="0.14983">
        <ele>101.2</ele>
        <time>2017-05-14T08:23:19Z</time>
      </trkpt>
      <trkpt lat="49.25698" lon="0.14977">
        <ele>101.4</ele>
        <time>2017-05-14T08:23:20Z</time>
      </trkpt>
      <trkpt lat="49.257" lon="0.14974">
        <ele>101.5</ele>
        <time>2017-05-14T08:23:21Z</time>
      </trkpt>
      <trkpt lat="49.25702" lon="0.1497">
        <ele>101.6</ele>
        <time>2017-05-14T08:23:22Z</time>
      </trkpt>
      <trkpt lat="49.25704" lon="0.14966">
        <ele>101.7</ele>
        <time>2017-05-14T08:23:23Z</time>
      </trkpt>
      <trkpt lat="49.25706" lon="0.14961">
        <ele>101.8</ele>
        <time>2017-05-14T08:23:24Z</time>
      </trkpt>
      <trkpt lat="49.25708" lon="0.14956">
        <ele>102.1</ele>
        <time>2017-05-14T08:23:25Z</time>
      </trkpt>
      <trkpt lat="49.25711" lon="0.14951">
        <ele>102.2</ele>
        <time>2017-05-14T08:23:26Z</time>
      </trkpt>
      <trkpt lat="49.25713" lon="0.14946">
        <ele>102.3</ele>
        <time>2017-05-14T08:23:27Z</time>
      </trkpt>
      <trkpt lat="49.25716" lon="0.14941">
        <ele>102.5</ele>
        <time>2017-05-14T08:23:28Z</time>
      </trkpt>
      <trkpt lat="49.25718" lon="0.14934">
        <ele>102.6</ele>
        <time>2017-05-14T08:23:29Z</time>
      </trkpt>
      <trkpt lat="49.25719" lon="0.14929">
        <ele>102.7</ele>
        <time>2017-05-14T08:23:30Z</time>
      </trkpt>
      <trkpt lat="49.25722" lon="0.14922">
        <ele>102.8</ele>
        <time>2017-05-14T08:23:31Z</time>
      </trkpt>
      <trkpt lat="49.25724" lon="0.14916">
        <ele>103</ele>
        <time>2017-05-14T08:23:32Z</time>
      </trkpt>
      <trkpt lat="49.25726" lon="0.1491">
        <ele>103.2</ele>
        <time>2017-05-14T08:23:33Z</time>
      </trkpt>
      <trkpt lat="49.25728" lon="0.14904">
        <ele>103.3</ele>
        <time>2017-05-14T08:23:34Z</time>
      </trkpt>
      <trkpt lat="49.2573" lon="0.14899">
        <ele>103.4</ele>
        <time>2017-05-14T08:23:35Z</time>
      </trkpt>
      <trkpt lat="49.25733" lon="0.14893">
        <ele>103.5</ele>
        <time>2017-05-14T08:23:36Z</time>
      </trkpt>
      <trkpt lat="49.25736" lon="0.14886">
        <ele>103.6</ele>
        <time>2017-05-14T08:23:37Z</time>
      </trkpt>
      <trkpt lat="49.25738" lon="0.1488">
        <ele>103.7</ele>
        <time>2017-05-14T08:23:38Z</time>
      </trkpt>
      <trkpt lat="49.25741" lon="0.14875">
        <ele>103.8</ele>
        <time>2017-05-14T08:23:39Z</time>
      </trkpt>
      <trkpt lat="49.25744" lon="0.1487">
        <ele>103.9</ele>
        <time>2017-05-14T08:23:40Z</time>
      </trkpt>
      <trkpt lat="49.25747" lon="0.14863">
        <ele>104.1</ele>
        <time>2017-05-14T08:23:41Z</time>
      </trkpt>
      <trkpt lat="49.25751" lon="0.14856">
        <ele>104.2</ele>
        <time>2017-05-14T08:23:42Z</time>
      </trkpt>
      <trkpt lat="49.25754" lon="0.1485">
        <ele>104.4</ele>
        <time>2017-05-14T08:23:43Z</time>
      </trkpt>
      <trkpt lat="49.25757" lon="0.14845">
        <ele>104.5</ele>
        <time>2017-05-14T08:23:44Z</time>
      </trkpt>
      <trkpt lat="49.2576" lon="0.14838">
        <ele>104.6</ele>
        <time>2017-05-14T08:23:45Z</time>
      </trkpt>
      <trkpt lat="49.25763" lon="0.14832">
        <ele>105</ele>
        <time>2017-05-14T08:23:46Z</time>
      </trkpt>
      <trkpt lat="49.25767" lon="0.14825">
        <ele>105.4</ele>
        <time>2017-05-14T08:23:47Z</time>
      </trkpt>
      <trkpt lat="49.25769" lon="0.14819">
        <ele>105.8</ele>
        <time>2017-05-14T08:23:48Z</time>
      </trkpt>
      <trkpt lat="49.25773" lon="0.14813">
        <ele>106.3</ele>
        <time>2017-05-14T08:23:49Z</time>
      </trkpt>
      <trkpt lat="49.25776" lon="0.14807">
        <ele>106.7</ele>
        <time>2017-05-14T08:23:50Z</time>
      </trkpt>
      <trkpt lat="49.25778" lon="0.14802">
        <ele>107</ele>
        <time>2017-05-14T08:23:51Z</time>
      </trkpt>
      <trkpt lat="49.25781" lon="0.14796">
        <ele>107.2</ele>
        <time>2017-05-14T08:23:52Z</time>
      </trkpt>
      <trkpt lat="49.25785" lon="0.14789">
        <ele>107.3</ele>
        <time>2017-05-14T08:23:53Z</time>
      </trkpt>
      <trkpt lat="49.25788" lon="0.14783">
        <ele>107.5</ele>
        <time>2017-05-14T08:23:54Z</time>
      </trkpt>
      <trkpt lat="49.25792" lon="0.14777">
        <ele>107.6</ele>
        <time>2017-05-14T08:23:55Z</time>
      </trkpt>
      <trkpt lat="49.25795" lon="0.14771">
        <ele>107.8</ele>
        <time>2017-05-14T08:23:56Z</time>
      </trkpt>
      <trkpt lat="49.25798" lon="0.14766">
        <ele>107.9</ele>
        <time>2017-05-14T08:23:57Z</time>
      </trkpt>
      <trkpt lat="49.25802" lon="0.14761">
        <ele>108</ele>
        <time>2017-05-14T08:23:58Z</time>
      </trkpt>
      <trkpt lat="49.25805" lon="0.14756">
        <ele>108.1</ele>
        <time>2017-05-14T08:23:59Z</time>
      </trkpt>
      <trkpt lat="49.25808" lon="0.1475">
        <ele>108.2</ele>
        <time>2017-05-14T08:24:00Z</time>
      </trkpt>
      <trkpt lat="49.25811" lon="0.14745">
        <ele>108.3</ele>
        <time>2017-05-14T08:24:01Z</time>
      </trkpt>
      <trkpt lat="49.25814" lon="0.14741">
        <ele>108.3</ele>
        <time>2017-05-14T08:24:02Z</time>
      </trkpt>
      <trkpt lat="49.25817" lon="0.14734">
        <ele>108.4</ele>
        <time>2017-05-14T08:24:03Z</time>
      </trkpt>
      <trkpt lat="49.25821" lon="0.14728">
        <ele>108.5</ele>
        <time>2017-05-14T08:24:04Z</time>
      </trkpt>
      <trkpt lat="49.25824" lon="0.14723">
        <ele>108.6</ele>
        <time>2017-05-14T08:24:05Z</time>
      </trkpt>
      <trkpt lat="49.25828" lon="0.14717">
        <ele>108.7</ele>
        <time>2017-05-14T08:24:06Z</time>
      </trkpt>
      <trkpt lat="49.25832" lon="0.14711">
        <ele>108.8</ele>
        <time>2017-05-14T08:24:07Z</time>
      </trkpt>
      <trkpt lat="49.25835" lon="0.14706">
        <ele>108.9</ele>
        <time>2017-05-14T08:24:08Z</time>
      </trkpt>
      <trkpt lat="49.25838" lon="0.14701">
        <ele>109</ele>
        <time>2017-05-14T08:24:09Z</time>
      </trkpt>
      <trkpt lat="49.25842" lon="0.14696">
        <ele>109</ele>
        <time>2017-05-14T08:24:10Z</time>
      </trkpt>
      <trkpt lat="49.25846" lon="0.14692">
        <ele>109.1</ele>
        <time>2017-05-14T08:24:11Z</time>
      </trkpt>
      <trkpt lat="49.25848" lon="0.14689">
        <ele>109.2</ele>
        <time>2017-05-14T08:24:12Z</time>
      </trkpt>
      <trkpt lat="49.25851" lon="0.14685">
        <ele>109.2</ele>
        <time>2017-05-14T08:24:13Z</time>
      </trkpt>
      <trkpt lat="49.25853" lon="0.1468">
        <ele>109.3</ele>
        <time>2017-05-14T08:24:14Z</time>
      </trkpt>
      <trkpt lat="49.25856" lon="0.14676">
        <ele>109.3</ele>
        <time>2017-05-14T08:24:15Z</time>
      </trkpt>
      <trkpt lat="49.2586" lon="0.1467">
        <ele>109.4</ele>
        <time>2017-05-14T08:24:16Z</time>
      </trkpt>
      <trkpt lat="49.25864" lon="0.14664">
        <ele>109.5</ele>
        <time>2017-05-14T08:24:17Z</time>
      </trkpt>
      <trkpt lat="49.25867" lon="0.14659">
        <ele>109.5</ele>
        <time>2017-05-14T08:24:18Z</time>
      </trkpt>
      <trkpt lat="49.2587" lon="0.14655">
        <ele>109.6</ele>
        <time>2017-05-14T08:24:19Z</time>
      </trkpt>
      <trkpt lat="49.25873" lon="0.1465">
        <ele>109.6</ele>
        <time>2017-05-14T08:24:20Z</time>
      </trkpt>
      <trkpt lat="49.25877" lon="0.14646">
        <ele>109.7</ele>
        <time>2017-05-14T08:24:21Z</time>
      </trkpt>
      <trkpt lat="49.25879" lon="0.14642">
        <ele>109.8</ele>
        <time>2017-05-14T08:24:22Z</time>
      </trkpt>
      <trkpt lat="49.25883" lon="0.14637">
        <ele>109.8</ele>
        <time>2017-05-14T08:24:23Z</time>
      </trkpt>
      <trkpt lat="49.25887" lon="0.14632">
        <ele>109.9</ele>
        <time>2017-05-14T08:24:24Z</time>
      </trkpt>
      <trkpt lat="49.25892" lon="0.14626">
        <ele>110</ele>
        <time>2017-05-14T08:24:25Z</time>
      </trkpt>
      <trkpt lat="49.25898" lon="0.14617">
        <ele>110.1</ele>
        <time>2017-05-14T08:24:26Z</time>
      </trkpt>
      <trkpt lat="49.25903" lon="0.14611">
        <ele>110.2</ele>
        <time>2017-05-14T08:24:27Z</time>
      </trkpt>
      <trkpt lat="49.25907" lon="0.14605">
        <ele>110.3</ele>
        <time>2017-05-14T08:24:28Z</time>
      </trkpt>
      <trkpt lat="49.25911" lon="0.14599">
        <ele>110.3</ele>
        <time>2017-05-14T08:24:29Z</time>
      </trkpt>
      <trkpt lat="49.25915" lon="0.14593">
        <ele>110.4</ele>
        <time>2017-05-14T08:24:30Z</time>
      </trkpt>
      <trkpt lat="49.25918" lon="0.14587">
        <ele>110.5</ele>
        <time>2017-05-14T08:24:31Z</time>
      </trkpt>
      <trkpt lat="49.25921" lon="0.14581">
        <ele>110.6</ele>
        <time>2017-05-14T08:24:32Z</time>
      </trkpt>
      <trkpt lat="49.25924" lon="0.14577">
        <ele>110.7</ele>
        <time>2017-05-14T08:24:33Z</time>
      </trkpt>
      <trkpt lat="49.25927" lon="0.14572">
        <ele>110.9</ele>
        <time>2017-05-14T08:24:34Z</time>
      </trkpt>
      <trkpt lat="49.2593" lon="0.14566">
        <ele>111</ele>
        <time>2017-05-14T08:24:35Z</time>
      </trkpt>
      <trkpt lat="49.25933" lon="0.1456">
        <ele>111.1</ele>
        <time>2017-05-14T08:24:36Z</time>
      </trkpt>
      <trkpt lat="49.25938" lon="0.14554">
        <ele>111.2</ele>
        <time>2017-05-14T08:24:37Z</time>
      </trkpt>
      <trkpt lat="49.25942" lon="0.14547">
        <ele>111.2</ele>
        <time>2017-05-14T08:24:38Z</time>
      </trkpt>
      <trkpt lat="49.25946" lon="0.14542">
        <ele>111.2</ele>
        <time>2017-05-14T08:24:39Z</time>
      </trkpt>
      <trkpt lat="49.2595" lon="0.14535">
        <ele>111.3</ele>
        <time>2017-05-14T08:24:40Z</time>
      </trkpt>
      <trkpt lat="49.25954" lon="0.14531">
        <ele>111.3</ele>
        <time>2017-05-14T08:24:41Z</time>
      </trkpt>
      <trkpt lat="49.25957" lon="0.14526">
        <ele>111.3</ele>
        <time>2017-05-14T08:24:42Z</time>
      </trkpt>
      <trkpt lat="49.25961" lon="0.14521">
        <ele>111.3</ele>
        <time>2017-05-14T08:24:43Z</time>
      </trkpt>
      <trkpt lat="49.25964" lon="0.14515">
        <ele>111.3</ele>
        <time>2017-05-14T08:24:44Z</time>
      </trkpt>
      <trkpt lat="49.25968" lon="0.1451">
        <ele>111.3</ele>
        <time>2017-05-14T08:24:45Z</time>
      </trkpt>
      <trkpt lat="49.25972" lon="0.14504">
        <ele>111.3</ele>
        <time>2017-05-14T08:24:46Z</time>
      </trkpt>
      <trkpt lat="49.25975" lon="0.14498">
        <ele>111.3</ele>
        <time>2017-05-14T08:24:47Z</time>
      </trkpt>
      <trkpt lat="49.2598" lon="0.14491">
        <ele>111.3</ele>
        <time>2017-05-14T08:24:48Z</time>
      </trkpt>
      <trkpt lat="49.25983" lon="0.14485">
        <ele>111.3</ele>
        <time>2017-05-14T08:24:49Z</time>
      </trkpt>
      <trkpt lat="49.25987" lon="0.14479">
        <ele>111.3</ele>
        <time>2017-05-14T08:24:50Z</time>
      </trkpt>
      <trkpt lat="49.25991" lon="0.14473">
        <ele>111.3</ele>
        <time>2017-05-14T08:24:51Z</time>
      </trkpt>
      <trkpt lat="49.25995" lon="0.14467">
        <ele>111.3</ele>
        <time>2017-05-14T08:24:52Z</time>
      </trkpt>
      <trkpt lat="49.25999" lon="0.1446">
        <ele>111.3</ele>
        <time>2017-05-14T08:24:53Z</time>
      </trkpt>
      <trkpt lat="49.26003" lon="0.14454">
        <ele>111.2</ele>
        <time>2017-05-14T08:24:54Z</time>
      </trkpt>
      <trkpt lat="49.26007" lon="0.14448">
        <ele>111.2</ele>
        <time>2017-05-14T08:24:55Z</time>
      </trkpt>
      <trkpt lat="49.26011" lon="0.14441">
        <ele>111.2</ele>
        <time>2017-05-14T08:24:56Z</time>
      </trkpt>
      <trkpt lat="49.26015" lon="0.14434">
        <ele>111.1</ele>
        <time>2017-05-14T08:24:57Z</time>
      </trkpt>
      <trkpt lat="49.26019" lon="0.14428">
        <ele>111.1</ele>
        <time>2017-05-14T08:24:58Z</time>
      </trkpt>
      <trkpt lat="49.26023" lon="0.14422">
        <ele>111</ele>
        <time>2017-05-14T08:24:59Z</time>
      </trkpt>
      <trkpt lat="49.26026" lon="0.14416">
        <ele>111</ele>
        <time>2017-05-14T08:25:00Z</time>
      </trkpt>
      <trkpt lat="49.2603" lon="0.1441">
        <ele>111</ele>
        <time>2017-05-14T08:25:01Z</time>
      </trkpt>
      <trkpt lat="49.26034" lon="0.14403">
        <ele>110.9</ele>
        <time>2017-05-14T08:25:02Z</time>
      </trkpt>
      <trkpt lat="49.26037" lon="0.14398">
        <ele>110.9</ele>
        <time>2017-05-14T08:25:03Z</time>
      </trkpt>
      <trkpt lat="49.26041" lon="0.14391">
        <ele>110.9</ele>
        <time>2017-05-14T08:25:04Z</time>
      </trkpt>
      <trkpt lat="49.26045" lon="0.14385">
        <ele>110.9</ele>
        <time>2017-05-14T08:25:05Z</time>
      </trkpt>
      <trkpt lat="49.26048" lon="0.14379">
        <ele>110.9</ele>
        <time>2017-05-14T08:25:06Z</time>
      </trkpt>
      <trkpt lat="49.26051" lon="0.14374">
        <ele>110.9</ele>
        <time>2017-05-14T08:25:07Z</time>
      </trkpt>
      <trkpt lat="49.26055" lon="0.14369">
        <ele>110.9</ele>
        <time>2017-05-14T08:25:08Z</time>
      </trkpt>
      <trkpt lat="49.26057" lon="0.14364">
        <ele>110.9</ele>
        <time>2017-05-14T08:25:09Z</time>
      </trkpt>
      <trkpt lat="49.26061" lon="0.14358">
        <ele>110.9</ele>
        <time>2017-05-14T08:25:10Z</time>
      </trkpt>
      <trkpt lat="49.26064" lon="0.14351">
        <ele>110.9</ele>
        <time>2017-05-14T08:25:11Z</time>
      </trkpt>
      <trkpt lat="49.26068" lon="0.14345">
        <ele>110.9</ele>
        <time>2017-05-14T08:25:12Z</time>
      </trkpt>
      <trkpt lat="49.26071" lon="0.14339">
        <ele>110.9</ele>
        <time>2017-05-14T08:25:13Z</time>
      </trkpt>
      <trkpt lat="49.26074" lon="0.14333">
        <ele>110.9</ele>
        <time>2017-05-14T08:25:14Z</time>
      </trkpt>
      <trkpt lat="49.26077" lon="0.14327">
        <ele>111</ele>
        <time>2017-05-14T08:25:15Z</time>
      </trkpt>
      <trkpt lat="49.2608" lon="0.14321">
        <ele>111</ele>
        <time>2017-05-14T08:25:16Z</time>
      </trkpt>
      <trkpt lat="49.26083" lon="0.14314">
        <ele>111</ele>
        <time>2017-05-14T08:25:17Z</time>
      </trkpt>
      <trkpt lat="49.26086" lon="0.14308">
        <ele>111</ele>
        <time>2017-05-14T08:25:18Z</time>
      </trkpt>
      <trkpt lat="49.26089" lon="0.14303">
        <ele>111</ele>
        <time>2017-05-14T08:25:19Z</time>
      </trkpt>
      <trkpt lat="49.26091" lon="0.14296">
        <ele>111.1</ele>
        <time>2017-05-14T08:25:20Z</time>
      </trkpt>
      <trkpt lat="49.26094" lon="0.14289">
        <ele>111.3</ele>
        <time>2017-05-14T08:25:21Z</time>
      </trkpt>
      <trkpt lat="49.26097" lon="0.14283">
        <ele>111.4</ele>
        <time>2017-05-14T08:25:22Z</time>
      </trkpt>
      <trkpt lat="49.261" lon="0.14276">
        <ele>111.6</ele>
        <time>2017-05-14T08:25:23Z</time>
      </trkpt>
      <trkpt lat="49.26101" lon="0.14272">
        <ele>111.7</ele>
        <time>2017-05-14T08:25:24Z</time>
      </trkpt>
      <trkpt lat="49.26104" lon="0.14267">
        <ele>111.9</ele>
        <time>2017-05-14T08:25:25Z</time>
      </trkpt>
      <trkpt lat="49.26107" lon="0.14262">
        <ele>112.1</ele>
        <time>2017-05-14T08:25:26Z</time>
      </trkpt>
      <trkpt lat="49.2611" lon="0.14255">
        <ele>112.3</ele>
        <time>2017-05-14T08:25:27Z</time>
      </trkpt>
      <trkpt lat="49.26114" lon="0.14248">
        <ele>112.5</ele>
        <time>2017-05-14T08:25:28Z</time>
      </trkpt>
      <trkpt lat="49.26119" lon="0.14241">
        <ele>112.8</ele>
        <time>2017-05-14T08:25:29Z</time>
      </trkpt>
      <trkpt lat="49.26124" lon="0.14234">
        <ele>113.2</ele>
        <time>2017-05-14T08:25:30Z</time>
      </trkpt>
      <trkpt lat="49.26128" lon="0.14227">
        <ele>113.5</ele>
        <time>2017-05-14T08:25:31Z</time>
      </trkpt>
      <trkpt lat="49.26132" lon="0.14223">
        <ele>113.8</ele>
        <time>2017-05-14T08:25:32Z</time>
      </trkpt>
      <trkpt lat="49.26136" lon="0.14219">
        <ele>114.1</ele>
        <time>2017-05-14T08:25:33Z</time>
      </trkpt>
      <trkpt lat="49.2614" lon="0.14215">
        <ele>114.3</ele>
        <time>2017-05-14T08:25:34Z</time>
      </trkpt>
      <trkpt lat="49.26145" lon="0.14212">
        <ele>114.6</ele>
        <time>2017-05-14T08:25:35Z</time>
      </trkpt>
      <trkpt lat="49.2615" lon="0.14209">
        <ele>114.9</ele>
        <time>2017-05-14T08:25:36Z</time>
      </trkpt>
      <trkpt lat="49.26154" lon="0.14206">
        <ele>115.1</ele>
        <time>2017-05-14T08:25:37Z</time>
      </trkpt>
      <trkpt lat="49.26158" lon="0.14204">
        <ele>115.3</ele>
        <time>2017-05-14T08:25:38Z</time>
      </trkpt>
      <trkpt lat="49.26161" lon="0.14202">
        <ele>115.5</ele>
        <time>2017-05-14T08:25:39Z</time>
      </trkpt>
      <trkpt lat="49.26165" lon="0.142">
        <ele>115.6</ele>
        <time>2017-05-14T08:25:40Z</time>
      </trkpt>
      <trkpt lat="49.26169" lon="0.14198">
        <ele>115.7</ele>
        <time>2017-05-14T08:25:41Z</time>
      </trkpt>
      <trkpt lat="49.26172" lon="0.14196">
        <ele>115.8</ele>
        <time>2017-05-14T08:25:42Z</time>
      </trkpt>
      <trkpt lat="49.26175" lon="0.14194">
        <ele>115.9</ele>
        <time>2017-05-14T08:25:43Z</time>
      </trkpt>
      <trkpt lat="49.26179" lon="0.14191">
        <ele>116</ele>
        <time>2017-05-14T08:25:44Z</time>
      </trkpt>
      <trkpt lat="49.26182" lon="0.14189">
        <ele>116.1</ele>
        <time>2017-05-14T08:25:45Z</time>
      </trkpt>
      <trkpt lat="49.26186" lon="0.14186">
        <ele>116.1</ele>
        <time>2017-05-14T08:25:46Z</time>
      </trkpt>
      <trkpt lat="49.26189" lon="0.14184">
        <ele>116.2</ele>
        <time>2017-05-14T08:25:47Z</time>
      </trkpt>
      <trkpt lat="49.26192" lon="0.1418">
        <ele>116.2</ele>
        <time>2017-05-14T08:25:48Z</time>
      </trkpt>
      <trkpt lat="49.26196" lon="0.14177">
        <ele>116.3</ele>
        <time>2017-05-14T08:25:49Z</time>
      </trkpt>
      <trkpt lat="49.26199" lon="0.14174">
        <ele>116.3</ele>
        <time>2017-05-14T08:25:50Z</time>
      </trkpt>
      <trkpt lat="49.26201" lon="0.1417">
        <ele>116.4</ele>
        <time>2017-05-14T08:25:51Z</time>
      </trkpt>
      <trkpt lat="49.26204" lon="0.14166">
        <ele>116.5</ele>
        <time>2017-05-14T08:25:52Z</time>
      </trkpt>
      <trkpt lat="49.26206" lon="0.14161">
        <ele>116.5</ele>
        <time>2017-05-14T08:25:53Z</time>
      </trkpt>
      <trkpt lat="49.26208" lon="0.14156">
        <ele>116.6</ele>
        <time>2017-05-14T08:25:54Z</time>
      </trkpt>
      <trkpt lat="49.26209" lon="0.14153">
        <ele>116.6</ele>
        <time>2017-05-14T08:25:55Z</time>
      </trkpt>
      <trkpt lat="49.26211" lon="0.14149">
        <ele>116.6</ele>
        <time>2017-05-14T08:25:56Z</time>
      </trkpt>
      <trkpt lat="49.26212" lon="0.14144">
        <ele>116.7</ele>
        <time>2017-05-14T08:25:57Z</time>
      </trkpt>
      <trkpt lat="49.26214" lon="0.1414">
        <ele>116.7</ele>
        <time>2017-05-14T08:25:58Z</time>
      </trkpt>
      <trkpt lat="49.26216" lon="0.14136">
        <ele>116.8</ele>
        <time>2017-05-14T08:25:59Z</time>
      </trkpt>
      <trkpt lat="49.26218" lon="0.14132">
        <ele>116.8</ele>
        <time>2017-05-14T08:26:00Z</time>
      </trkpt>
      <trkpt lat="49.2622" lon="0.14128">
        <ele>116.9</ele>
        <time>2017-05-14T08:26:01Z</time>
      </trkpt>
      <trkpt lat="49.26224" lon="0.14124">
        <ele>116.9</ele>
        <time>2017-05-14T08:26:02Z</time>
      </trkpt>
      <trkpt lat="49.26228" lon="0.1412">
        <ele>117</ele>
        <time>2017-05-14T08:26:03Z</time>
      </trkpt>
      <trkpt lat="49.26235" lon="0.14118">
        <ele>117.1</ele>
        <time>2017-05-14T08:26:04Z</time>
      </trkpt>
      <trkpt lat="49.26239" lon="0.14117">
        <ele>117.3</ele>
        <time>2017-05-14T08:26:05Z</time>
      </trkpt>
      <trkpt lat="49.26244" lon="0.14117">
        <ele>117.4</ele>
        <time>2017-05-14T08:26:06Z</time>
      </trkpt>
      <trkpt lat="49.26248" lon="0.14116">
        <ele>117.5</ele>
        <time>2017-05-14T08:26:07Z</time>
      </trkpt>
      <trkpt lat="49.26254" lon="0.14116">
        <ele>117.6</ele>
        <time>2017-05-14T08:26:08Z</time>
      </trkpt>
      <trkpt lat="49.26258" lon="0.14116">
        <ele>117.7</ele>
        <time>2017-05-14T08:26:09Z</time>
      </trkpt>
      <trkpt lat="49.26263" lon="0.14116">
        <ele>117.8</ele>
        <time>2017-05-14T08:26:10Z</time>
      </trkpt>
      <trkpt lat="49.26268" lon="0.14116">
        <ele>117.9</ele>
        <time>2017-05-14T08:26:11Z</time>
      </trkpt>
      <trkpt lat="49.26273" lon="0.14116">
        <ele>118.1</ele>
        <time>2017-05-14T08:26:12Z</time>
      </trkpt>
      <trkpt lat="49.26277" lon="0.14115">
        <ele>118.1</ele>
        <time>2017-05-14T08:26:13Z</time>
      </trkpt>
      <trkpt lat="49.26282" lon="0.14115">
        <ele>118.2</ele>
        <time>2017-05-14T08:26:14Z</time>
      </trkpt>
      <trkpt lat="49.26287" lon="0.14115">
        <ele>118.4</ele>
        <time>2017-05-14T08:26:15Z</time>
      </trkpt>
      <trkpt lat="49.26292" lon="0.14115">
        <ele>118.5</ele>
        <time>2017-05-14T08:26:16Z</time>
      </trkpt>
      <trkpt lat="49.26297" lon="0.14115">
        <ele>118.6</ele>
        <time>2017-05-14T08:26:17Z</time>
      </trkpt>
      <trkpt lat="49.26303" lon="0.14114">
        <ele>118.7</ele>
        <time>2017-05-14T08:26:18Z</time>
      </trkpt>
      <trkpt lat="49.26308" lon="0.14114">
        <ele>118.8</ele>
        <time>2017-05-14T08:26:19Z</time>
      </trkpt>
      <trkpt lat="49.26313" lon="0.14113">
        <ele>118.9</ele>
        <time>2017-05-14T08:26:20Z</time>
      </trkpt>
      <trkpt lat="49.26318" lon="0.14112">
        <ele>119</ele>
        <time>2017-05-14T08:26:21Z</time>
      </trkpt>
      <trkpt lat="49.26323" lon="0.14112">
        <ele>119.1</ele>
        <time>2017-05-14T08:26:22Z</time>
      </trkpt>
      <trkpt lat="49.26328" lon="0.14111">
        <ele>119.2</ele>
        <time>2017-05-14T08:26:23Z</time>
      </trkpt>
      <trkpt lat="49.26333" lon="0.1411">
        <ele>119.3</ele>
        <time>2017-05-14T08:26:24Z</time>
      </trkpt>
      <trkpt lat="49.26338" lon="0.14108">
        <ele>119.4</ele>
        <time>2017-05-14T08:26:25Z</time>
      </trkpt>
      <trkpt lat="49.26342" lon="0.14107">
        <ele>119.5</ele>
        <time>2017-05-14T08:26:26Z</time>
      </trkpt>
      <trkpt lat="49.26347" lon="0.14106">
        <ele>119.6</ele>
        <time>2017-05-14T08:26:27Z</time>
      </trkpt>
      <trkpt lat="49.26352" lon="0.14104">
        <ele>119.7</ele>
        <time>2017-05-14T08:26:28Z</time>
      </trkpt>
      <trkpt lat="49.26357" lon="0.14103">
        <ele>119.9</ele>
        <time>2017-05-14T08:26:29Z</time>
      </trkpt>
      <trkpt lat="49.26362" lon="0.14101">
        <ele>120</ele>
        <time>2017-05-14T08:26:30Z</time>
      </trkpt>
      <trkpt lat="49.26366" lon="0.141">
        <ele>120.2</ele>
        <time>2017-05-14T08:26:31Z</time>
      </trkpt>
      <trkpt lat="49.26371" lon="0.14099">
        <ele>120.4</ele>
        <time>2017-05-14T08:26:32Z</time>
      </trkpt>
      <trkpt lat="49.26375" lon="0.14098">
        <ele>120.5</ele>
        <time>2017-05-14T08:26:33Z</time>
      </trkpt>
      <trkpt lat="49.26379" lon="0.14096">
        <ele>120.6</ele>
        <time>2017-05-14T08:26:34Z</time>
      </trkpt>
      <trkpt lat="49.26383" lon="0.14094">
        <ele>120.7</ele>
        <time>2017-05-14T08:26:35Z</time>
      </trkpt>
      <trkpt lat="49.26386" lon="0.14092">
        <ele>120.8</ele>
        <time>2017-05-14T08:26:36Z</time>
      </trkpt>
      <trkpt lat="49.26389" lon="0.14089">
        <ele>120.9</ele>
        <time>2017-05-14T08:26:37Z</time>
      </trkpt>
      <trkpt lat="49.26391" lon="0.14085">
        <ele>121</ele>
        <time>2017-05-14T08:26:38Z</time>
      </trkpt>
      <trkpt lat="49.26391" lon="0.1408">
        <ele>121.1</ele>
        <time>2017-05-14T08:26:39Z</time>
      </trkpt>
      <trkpt lat="49.26392" lon="0.14074">
        <ele>121.1</ele>
        <time>2017-05-14T08:26:40Z</time>
      </trkpt>
      <trkpt lat="49.26393" lon="0.14067">
        <ele>121.1</ele>
        <time>2017-05-14T08:26:41Z</time>
      </trkpt>
      <trkpt lat="49.26392" lon="0.1406">
        <ele>121.2</ele>
        <time>2017-05-14T08:26:42Z</time>
      </trkpt>
      <trkpt lat="49.26392" lon="0.14052">
        <ele>121.2</ele>
        <time>2017-05-14T08:26:43Z</time>
      </trkpt>
      <trkpt lat="49.26391" lon="0.14044">
        <ele>121.3</ele>
        <time>2017-05-14T08:26:44Z</time>
      </trkpt>
      <trkpt lat="49.2639" lon="0.14037">
        <ele>121.3</ele>
        <time>2017-05-14T08:26:45Z</time>
      </trkpt>
      <trkpt lat="49.2639" lon="0.14028">
        <ele>121.4</ele>
        <time>2017-05-14T08:26:46Z</time>
      </trkpt>
      <trkpt lat="49.26389" lon="0.1402">
        <ele>121.4</ele>
        <time>2017-05-14T08:26:47Z</time>
      </trkpt>
      <trkpt lat="49.26388" lon="0.14012">
        <ele>121.5</ele>
        <time>2017-05-14T08:26:48Z</time>
      </trkpt>
      <trkpt lat="49.26388" lon="0.14004">
        <ele>121.6</ele>
        <time>2017-05-14T08:26:49Z</time>
      </trkpt>
      <trkpt lat="49.26387" lon="0.13996">
        <ele>121.6</ele>
        <time>2017-05-14T08:26:50Z</time>
      </trkpt>
      <trkpt lat="49.26386" lon="0.13988">
        <ele>121.7</ele>
        <time>2017-05-14T08:26:51Z</time>
      </trkpt>
      <trkpt lat="49.26384" lon="0.13981">
        <ele>121.7</ele>
        <time>2017-05-14T08:26:52Z</time>
      </trkpt>
      <trkpt lat="49.26383" lon="0.13973">
        <ele>121.8</ele>
        <time>2017-05-14T08:26:53Z</time>
      </trkpt>
      <trkpt lat="49.26382" lon="0.13964">
        <ele>121.8</ele>
        <time>2017-05-14T08:26:54Z</time>
      </trkpt>
      <trkpt lat="49.26381" lon="0.13955">
        <ele>121.9</ele>
        <time>2017-05-14T08:26:55Z</time>
      </trkpt>
      <trkpt lat="49.2638" lon="0.13945">
        <ele>121.9</ele>
        <time>2017-05-14T08:26:56Z</time>
      </trkpt>
      <trkpt lat="49.26379" lon="0.13936">
        <ele>122</ele>
        <time>2017-05-14T08:26:57Z</time>
      </trkpt>
      <trkpt lat="49.26378" lon="0.13927">
        <ele>122</ele>
        <time>2017-05-14T08:26:58Z</time>
      </trkpt>
      <trkpt lat="49.26377" lon="0.13918">
        <ele>122</ele>
        <time>2017-05-14T08:26:59Z</time>
      </trkpt>
      <trkpt lat="49.26377" lon="0.13909">
        <ele>122.1</ele>
        <time>2017-05-14T08:27:00Z</time>
      </trkpt>
      <trkpt lat="49.26376" lon="0.13901">
        <ele>122.2</ele>
        <time>2017-05-14T08:27:01Z</time>
      </trkpt>
      <trkpt lat="49.26375" lon="0.13893">
        <ele>122.2</ele>
        <time>2017-05-14T08:27:02Z</time>
      </trkpt>
      <trkpt lat="49.26375" lon="0.13884">
        <ele>122.3</ele>
        <time>2017-05-14T08:27:03Z</time>
      </trkpt>
      <trkpt lat="49.26374" lon="0.13876">
        <ele>122.3</ele>
        <time>2017-05-14T08:27:04Z</time>
      </trkpt>
      <trkpt lat="49.26373" lon="0.13867">
        <ele>122.4</ele>
        <time>2017-05-14T08:27:05Z</time>
      </trkpt>
      <trkpt lat="49.26372" lon="0.13858">
        <ele>122.4</ele>
        <time>2017-05-14T08:27:06Z</time>
      </trkpt>
      <trkpt lat="49.26371" lon="0.1385">
        <ele>122.4</ele>
        <time>2017-05-14T08:27:07Z</time>
      </trkpt>
      <trkpt lat="49.2637" lon="0.13842">
        <ele>122.5</ele>
        <time>2017-05-14T08:27:08Z</time>
      </trkpt>
      <trkpt lat="49.26369" lon="0.13834">
        <ele>122.5</ele>
        <time>2017-05-14T08:27:09Z</time>
      </trkpt>
      <trkpt lat="49.26368" lon="0.13825">
        <ele>122.6</ele>
        <time>2017-05-14T08:27:10Z</time>
      </trkpt>
      <trkpt lat="49.26367" lon="0.13817">
        <ele>122.7</ele>
        <time>2017-05-14T08:27:11Z</time>
      </trkpt>
      <trkpt lat="49.26366" lon="0.13809">
        <ele>122.7</ele>
        <time>2017-05-14T08:27:12Z</time>
      </trkpt>
      <trkpt lat="49.26365" lon="0.13801">
        <ele>122.7</ele>
        <time>2017-05-14T08:27:13Z</time>
      </trkpt>
      <trkpt lat="49.26364" lon="0.13792">
        <ele>122.8</ele>
        <time>2017-05-14T08:27:14Z</time>
      </trkpt>
      <trkpt lat="49.26363" lon="0.13784">
        <ele>122.8</ele>
        <time>2017-05-14T08:27:15Z</time>
      </trkpt>
      <trkpt lat="49.26362" lon="0.13776">
        <ele>122.8</ele>
        <time>2017-05-14T08:27:16Z</time>
      </trkpt>
      <trkpt lat="49.26361" lon="0.13768">
        <ele>122.8</ele>
        <time>2017-05-14T08:27:17Z</time>
      </trkpt>
      <trkpt lat="49.2636" lon="0.13761">
        <ele>122.9</ele>
        <time>2017-05-14T08:27:18Z</time>
      </trkpt>
      <trkpt lat="49.2636" lon="0.13754">
        <ele>122.9</ele>
        <time>2017-05-14T08:27:19Z</time>
      </trkpt>
      <trkpt lat="49.26361" lon="0.13746">
        <ele>122.9</ele>
        <time>2017-05-14T08:27:20Z</time>
      </trkpt>
      <trkpt lat="49.26363" lon="0.13741">
        <ele>123</ele>
        <time>2017-05-14T08:27:21Z</time>
      </trkpt>
      <trkpt lat="49.26367" lon="0.13736">
        <ele>123</ele>
        <time>2017-05-14T08:27:22Z</time>
      </trkpt>
      <trkpt lat="49.26372" lon="0.13735">
        <ele>123</ele>
        <time>2017-05-14T08:27:23Z</time>
      </trkpt>
      <trkpt lat="49.26376" lon="0.13734">
        <ele>123</ele>
        <time>2017-05-14T08:27:24Z</time>
      </trkpt>
      <trkpt lat="49.2638" lon="0.13736">
        <ele>123</ele>
        <time>2017-05-14T08:27:25Z</time>
      </trkpt>
      <trkpt lat="49.26385" lon="0.13737">
        <ele>123</ele>
        <time>2017-05-14T08:27:26Z</time>
      </trkpt>
      <trkpt lat="49.26389" lon="0.13737">
        <ele>123</ele>
        <time>2017-05-14T08:27:27Z</time>
      </trkpt>
      <trkpt lat="49.26394" lon="0.13739">
        <ele>123</ele>
        <time>2017-05-14T08:27:28Z</time>
      </trkpt>
      <trkpt lat="49.26398" lon="0.1374">
        <ele>123</ele>
        <time>2017-05-14T08:27:29Z</time>
      </trkpt>
      <trkpt lat="49.26402" lon="0.1374">
        <ele>123</ele>
        <time>2017-05-14T08:27:30Z</time>
      </trkpt>
      <trkpt lat="49.26408" lon="0.13741">
        <ele>123</ele>
        <time>2017-05-14T08:27:31Z</time>
      </trkpt>
      <trkpt lat="49.26415" lon="0.13744">
        <ele>123</ele>
        <time>2017-05-14T08:27:32Z</time>
      </trkpt>
      <trkpt lat="49.26418" lon="0.13745">
        <ele>123</ele>
        <time>2017-05-14T08:27:33Z</time>
      </trkpt>
      <trkpt lat="49.26423" lon="0.13748">
        <ele>123.1</ele>
        <time>2017-05-14T08:27:34Z</time>
      </trkpt>
      <trkpt lat="49.26427" lon="0.1375">
        <ele>123.1</ele>
        <time>2017-05-14T08:27:35Z</time>
      </trkpt>
      <trkpt lat="49.26431" lon="0.13752">
        <ele>123.1</ele>
        <time>2017-05-14T08:27:36Z</time>
      </trkpt>
      <trkpt lat="49.26437" lon="0.13755">
        <ele>123.1</ele>
        <time>2017-05-14T08:27:37Z</time>
      </trkpt>
      <trkpt lat="49.26441" lon="0.13759">
        <ele>123.1</ele>
        <time>2017-05-14T08:27:38Z</time>
      </trkpt>
      <trkpt lat="49.26448" lon="0.13763">
        <ele>123.1</ele>
        <time>2017-05-14T08:27:39Z</time>
      </trkpt>
      <trkpt lat="49.26452" lon="0.13766">
        <ele>123.1</ele>
        <time>2017-05-14T08:27:40Z</time>
      </trkpt>
      <trkpt lat="49.26456" lon="0.13768">
        <ele>123.1</ele>
        <time>2017-05-14T08:27:41Z</time>
      </trkpt>
      <trkpt lat="49.26461" lon="0.13771">
        <ele>123.2</ele>
        <time>2017-05-14T08:27:42Z</time>
      </trkpt>
      <trkpt lat="49.26468" lon="0.13773">
        <ele>123.2</ele>
        <time>2017-05-14T08:27:43Z</time>
      </trkpt>
      <trkpt lat="49.26473" lon="0.13773">
        <ele>123.2</ele>
        <time>2017-05-14T08:27:44Z</time>
      </trkpt>
      <trkpt lat="49.26477" lon="0.13772">
        <ele>123.2</ele>
        <time>2017-05-14T08:27:45Z</time>
      </trkpt>
      <trkpt lat="49.26481" lon="0.13771">
        <ele>123.2</ele>
        <time>2017-05-14T08:27:46Z</time>
      </trkpt>
      <trkpt lat="49.26484" lon="0.13771">
        <ele>123.2</ele>
        <time>2017-05-14T08:27:47Z</time>
      </trkpt>
      <trkpt lat="49.26489" lon="0.13768">
        <ele>123.2</ele>
        <time>2017-05-14T08:27:48Z</time>
      </trkpt>
      <trkpt lat="49.26492" lon="0.13764">
        <ele>123.2</ele>
        <time>2017-05-14T08:27:49Z</time>
      </trkpt>
      <trkpt lat="49.26495" lon="0.13759">
        <ele>123.2</ele>
        <time>2017-05-14T08:27:50Z</time>
      </trkpt>
      <trkpt lat="49.26497" lon="0.13754">
        <ele>123.2</ele>
        <time>2017-05-14T08:27:51Z</time>
      </trkpt>
      <trkpt lat="49.26498" lon="0.13747">
        <ele>123.2</ele>
        <time>2017-05-14T08:27:52Z</time>
      </trkpt>
      <trkpt lat="49.265" lon="0.1374">
        <ele>123.2</ele>
        <time>2017-05-14T08:27:53Z</time>
      </trkpt>
      <trkpt lat="49.26501" lon="0.13736">
        <ele>123.2</ele>
        <time>2017-05-14T08:27:54Z</time>
      </trkpt>
      <trkpt lat="49.26501" lon="0.13727">
        <ele>123.2</ele>
        <time>2017-05-14T08:27:56Z</time>
      </trkpt>
      <trkpt lat="49.26501" lon="0.1372">
        <ele>123.2</ele>
        <time>2017-05-14T08:27:57Z</time>
      </trkpt>
      <trkpt lat="49.26501" lon="0.13714">
        <ele>123.2</ele>
        <time>2017-05-14T08:27:58Z</time>
      </trkpt>
      <trkpt lat="49.26502" lon="0.13706">
        <ele>123.1</ele>
        <time>2017-05-14T08:27:59Z</time>
      </trkpt>
      <trkpt lat="49.26504" lon="0.13694">
        <ele>123.1</ele>
        <time>2017-05-14T08:28:00Z</time>
      </trkpt>
      <trkpt lat="49.26506" lon="0.13683">
        <ele>123</ele>
        <time>2017-05-14T08:28:01Z</time>
      </trkpt>
      <trkpt lat="49.26509" lon="0.13673">
        <ele>122.9</ele>
        <time>2017-05-14T08:28:02Z</time>
      </trkpt>
      <trkpt lat="49.26513" lon="0.13664">
        <ele>122.5</ele>
        <time>2017-05-14T08:28:03Z</time>
      </trkpt>
      <trkpt lat="49.26515" lon="0.13654">
        <ele>122.1</ele>
        <time>2017-05-14T08:28:04Z</time>
      </trkpt>
      <trkpt lat="49.26517" lon="0.13644">
        <ele>121.9</ele>
        <time>2017-05-14T08:28:05Z</time>
      </trkpt>
      <trkpt lat="49.26519" lon="0.13638">
        <ele>121.9</ele>
        <time>2017-05-14T08:28:06Z</time>
      </trkpt>
      <trkpt lat="49.26521" lon="0.13631">
        <ele>121.8</ele>
        <time>2017-05-14T08:28:07Z</time>
      </trkpt>
      <trkpt lat="49.26524" lon="0.1362">
        <ele>121.7</ele>
        <time>2017-05-14T08:28:08Z</time>
      </trkpt>
      <trkpt lat="49.26527" lon="0.1361">
        <ele>121.6</ele>
        <time>2017-05-14T08:28:09Z</time>
      </trkpt>
      <trkpt lat="49.26531" lon="0.136">
        <ele>121.6</ele>
        <time>2017-05-14T08:28:10Z</time>
      </trkpt>
      <trkpt lat="49.26534" lon="0.13594">
        <ele>121.5</ele>
        <time>2017-05-14T08:28:11Z</time>
      </trkpt>
      <trkpt lat="49.26533" lon="0.13586">
        <ele>121.5</ele>
        <time>2017-05-14T08:28:13Z</time>
      </trkpt>
      <trkpt lat="49.26535" lon="0.1358">
        <ele>121.5</ele>
        <time>2017-05-14T08:28:16Z</time>
      </trkpt>
      <trkpt lat="49.26536" lon="0.13575">
        <ele>121.5</ele>
        <time>2017-05-14T08:28:18Z</time>
      </trkpt>
      <trkpt lat="49.26537" lon="0.1357">
        <ele>121.5</ele>
        <time>2017-05-14T08:28:20Z</time>
      </trkpt>
      <trkpt lat="49.2654" lon="0.13551">
        <ele>121.5</ele>
        <time>2017-05-14T08:28:22Z</time>
      </trkpt>
      <trkpt lat="49.26541" lon="0.13539">
        <ele>121.5</ele>
        <time>2017-05-14T08:28:23Z</time>
      </trkpt>
      <trkpt lat="49.2654" lon="0.13526">
        <ele>121.5</ele>
        <time>2017-05-14T08:28:24Z</time>
      </trkpt>
      <trkpt lat="49.26541" lon="0.13508">
        <ele>121.5</ele>
        <time>2017-05-14T08:28:25Z</time>
      </trkpt>
      <trkpt lat="49.26543" lon="0.13491">
        <ele>121.6</ele>
        <time>2017-05-14T08:28:26Z</time>
      </trkpt>
      <trkpt lat="49.26544" lon="0.13478">
        <ele>121.6</ele>
        <time>2017-05-14T08:28:27Z</time>
      </trkpt>
      <trkpt lat="49.26544" lon="0.13468">
        <ele>121.7</ele>
        <time>2017-05-14T08:28:28Z</time>
      </trkpt>
      <trkpt lat="49.26546" lon="0.13459">
        <ele>121.8</ele>
        <time>2017-05-14T08:28:29Z</time>
      </trkpt>
      <trkpt lat="49.26547" lon="0.13453">
        <ele>121.8</ele>
        <time>2017-05-14T08:28:30Z</time>
      </trkpt>
      <trkpt lat="49.26549" lon="0.13447">
        <ele>122</ele>
        <time>2017-05-14T08:28:31Z</time>
      </trkpt>
      <trkpt lat="49.26551" lon="0.13439">
        <ele>122.3</ele>
        <time>2017-05-14T08:28:32Z</time>
      </trkpt>
      <trkpt lat="49.26552" lon="0.13434">
        <ele>122.5</ele>
        <time>2017-05-14T08:28:33Z</time>
      </trkpt>
      <trkpt lat="49.26554" lon="0.13428">
        <ele>122.6</ele>
        <time>2017-05-14T08:28:34Z</time>
      </trkpt>
      <trkpt lat="49.26555" lon="0.13423">
        <ele>122.7</ele>
        <time>2017-05-14T08:28:35Z</time>
      </trkpt>
      <trkpt lat="49.26558" lon="0.13417">
        <ele>122.9</ele>
        <time>2017-05-14T08:28:36Z</time>
      </trkpt>
      <trkpt lat="49.26559" lon="0.13412">
        <ele>123</ele>
        <time>2017-05-14T08:28:37Z</time>
      </trkpt>
      <trkpt lat="49.26561" lon="0.13408">
        <ele>123.2</ele>
        <time>2017-05-14T08:28:38Z</time>
      </trkpt>
      <trkpt lat="49.26563" lon="0.13402">
        <ele>123.3</ele>
        <time>2017-05-14T08:28:39Z</time>
      </trkpt>
      <trkpt lat="49.26565" lon="0.13397">
        <ele>123.4</ele>
        <time>2017-05-14T08:28:40Z</time>
      </trkpt>
      <trkpt lat="49.26567" lon="0.13393">
        <ele>123.4</ele>
        <time>2017-05-14T08:28:41Z</time>
      </trkpt>
      <trkpt lat="49.26569" lon="0.13387">
        <ele>123.5</ele>
        <time>2017-05-14T08:28:42Z</time>
      </trkpt>
      <trkpt lat="49.26571" lon="0.13381">
        <ele>123.6</ele>
        <time>2017-05-14T08:28:43Z</time>
      </trkpt>
      <trkpt lat="49.26573" lon="0.13374">
        <ele>123.6</ele>
        <time>2017-05-14T08:28:44Z</time>
      </trkpt>
      <trkpt lat="49.26575" lon="0.13367">
        <ele>123.6</ele>
        <time>2017-05-14T08:28:45Z</time>
      </trkpt>
      <trkpt lat="49.26577" lon="0.1336">
        <ele>123.7</ele>
        <time>2017-05-14T08:28:46Z</time>
      </trkpt>
      <trkpt lat="49.26579" lon="0.13353">
        <ele>123.7</ele>
        <time>2017-05-14T08:28:47Z</time>
      </trkpt>
      <trkpt lat="49.26582" lon="0.13346">
        <ele>123.7</ele>
        <time>2017-05-14T08:28:48Z</time>
      </trkpt>
      <trkpt lat="49.26584" lon="0.13339">
        <ele>123.7</ele>
        <time>2017-05-14T08:28:49Z</time>
      </trkpt>
      <trkpt lat="49.26586" lon="0.13332">
        <ele>123.8</ele>
        <time>2017-05-14T08:28:50Z</time>
      </trkpt>
      <trkpt lat="49.26588" lon="0.13325">
        <ele>123.8</ele>
        <time>2017-05-14T08:28:51Z</time>
      </trkpt>
      <trkpt lat="49.26589" lon="0.1332">
        <ele>123.8</ele>
        <time>2017-05-14T08:28:52Z</time>
      </trkpt>
      <trkpt lat="49.26591" lon="0.13315">
        <ele>123.8</ele>
        <time>2017-05-14T08:28:53Z</time>
      </trkpt>
      <trkpt lat="49.26593" lon="0.13311">
        <ele>123.8</ele>
        <time>2017-05-14T08:28:54Z</time>
      </trkpt>
      <trkpt lat="49.26596" lon="0.13307">
        <ele>123.8</ele>
        <time>2017-05-14T08:28:55Z</time>
      </trkpt>
      <trkpt lat="49.26598" lon="0.13304">
        <ele>123.8</ele>
        <time>2017-05-14T08:28:56Z</time>
      </trkpt>
      <trkpt lat="49.26601" lon="0.133">
        <ele>123.8</ele>
        <time>2017-05-14T08:28:57Z</time>
      </trkpt>
      <trkpt lat="49.26603" lon="0.13297">
        <ele>123.8</ele>
        <time>2017-05-14T08:28:58Z</time>
      </trkpt>
      <trkpt lat="49.26608" lon="0.13291">
        <ele>123.8</ele>
        <time>2017-05-14T08:29:00Z</time>
      </trkpt>
      <trkpt lat="49.26611" lon="0.13286">
        <ele>123.9</ele>
        <time>2017-05-14T08:29:02Z</time>
      </trkpt>
      <trkpt lat="49.26615" lon="0.13281">
        <ele>123.9</ele>
        <time>2017-05-14T08:29:03Z</time>
      </trkpt>
      <trkpt lat="49.2662" lon="0.13273">
        <ele>123.9</ele>
        <time>2017-05-14T08:29:04Z</time>
      </trkpt>
      <trkpt lat="49.26623" lon="0.13267">
        <ele>123.9</ele>
        <time>2017-05-14T08:29:05Z</time>
      </trkpt>
      <trkpt lat="49.26625" lon="0.13261">
        <ele>123.9</ele>
        <time>2017-05-14T08:29:06Z</time>
      </trkpt>
      <trkpt lat="49.26627" lon="0.13255">
        <ele>123.9</ele>
        <time>2017-05-14T08:29:07Z</time>
      </trkpt>
      <trkpt lat="49.26627" lon="0.13249">
        <ele>123.9</ele>
        <time>2017-05-14T08:29:08Z</time>
      </trkpt>
      <trkpt lat="49.26627" lon="0.13241">
        <ele>123.9</ele>
        <time>2017-05-14T08:29:10Z</time>
      </trkpt>
      <trkpt lat="49.26627" lon="0.13237">
        <ele>123.9</ele>
        <time>2017-05-14T08:29:11Z</time>
      </trkpt>
      <trkpt lat="49.26627" lon="0.13232">
        <ele>123.9</ele>
        <time>2017-05-14T08:29:12Z</time>
      </trkpt>
      <trkpt lat="49.26626" lon="0.13227">
        <ele>123.9</ele>
        <time>2017-05-14T08:29:13Z</time>
      </trkpt>
      <trkpt lat="49.26625" lon="0.13221">
        <ele>123.9</ele>
        <time>2017-05-14T08:29:14Z</time>
      </trkpt>
      <trkpt lat="49.26625" lon="0.13215">
        <ele>123.9</ele>
        <time>2017-05-14T08:29:15Z</time>
      </trkpt>
      <trkpt lat="49.26624" lon="0.13207">
        <ele>124</ele>
        <time>2017-05-14T08:29:16Z</time>
      </trkpt>
      <trkpt lat="49.26622" lon="0.132">
        <ele>124</ele>
        <time>2017-05-14T08:29:17Z</time>
      </trkpt>
      <trkpt lat="49.2662" lon="0.13191">
        <ele>124</ele>
        <time>2017-05-14T08:29:18Z</time>
      </trkpt>
      <trkpt lat="49.2662" lon="0.13182">
        <ele>124</ele>
        <time>2017-05-14T08:29:19Z</time>
      </trkpt>
      <trkpt lat="49.2662" lon="0.13173">
        <ele>124</ele>
        <time>2017-05-14T08:29:20Z</time>
      </trkpt>
      <trkpt lat="49.26621" lon="0.13165">
        <ele>124</ele>
        <time>2017-05-14T08:29:21Z</time>
      </trkpt>
      <trkpt lat="49.26621" lon="0.13157">
        <ele>124</ele>
        <time>2017-05-14T08:29:22Z</time>
      </trkpt>
      <trkpt lat="49.26621" lon="0.13148">
        <ele>124</ele>
        <time>2017-05-14T08:29:24Z</time>
      </trkpt>
      <trkpt lat="49.26621" lon="0.13144">
        <ele>124</ele>
        <time>2017-05-14T08:29:25Z</time>
      </trkpt>
      <trkpt lat="49.2662" lon="0.13135">
        <ele>124</ele>
        <time>2017-05-14T08:29:26Z</time>
      </trkpt>
      <trkpt lat="49.2662" lon="0.13127">
        <ele>124</ele>
        <time>2017-05-14T08:29:28Z</time>
      </trkpt>
      <trkpt lat="49.2662" lon="0.13121">
        <ele>124</ele>
        <time>2017-05-14T08:29:29Z</time>
      </trkpt>
      <trkpt lat="49.26619" lon="0.13117">
        <ele>124</ele>
        <time>2017-05-14T08:29:30Z</time>
      </trkpt>
      <trkpt lat="49.26618" lon="0.13108">
        <ele>124</ele>
        <time>2017-05-14T08:29:32Z</time>
      </trkpt>
      <trkpt lat="49.26619" lon="0.13104">
        <ele>124</ele>
        <time>2017-05-14T08:29:33Z</time>
      </trkpt>
      <trkpt lat="49.2662" lon="0.131">
        <ele>124</ele>
        <time>2017-05-14T08:29:34Z</time>
      </trkpt>
      <trkpt lat="49.2662" lon="0.13095">
        <ele>124</ele>
        <time>2017-05-14T08:29:35Z</time>
      </trkpt>
      <trkpt lat="49.26619" lon="0.13086">
        <ele>124.1</ele>
        <time>2017-05-14T08:29:36Z</time>
      </trkpt>
      <trkpt lat="49.26618" lon="0.13074">
        <ele>124.1</ele>
        <time>2017-05-14T08:29:37Z</time>
      </trkpt>
      <trkpt lat="49.26618" lon="0.13064">
        <ele>124.1</ele>
        <time>2017-05-14T08:29:38Z</time>
      </trkpt>
      <trkpt lat="49.26618" lon="0.13052">
        <ele>124.1</ele>
        <time>2017-05-14T08:29:39Z</time>
      </trkpt>
      <trkpt lat="49.26617" lon="0.13044">
        <ele>124.1</ele>
        <time>2017-05-14T08:29:40Z</time>
      </trkpt>
      <trkpt lat="49.26618" lon="0.13036">
        <ele>124.1</ele>
        <time>2017-05-14T08:29:41Z</time>
      </trkpt>
      <trkpt lat="49.26619" lon="0.13027">
        <ele>124.1</ele>
        <time>2017-05-14T08:29:42Z</time>
      </trkpt>
      <trkpt lat="49.2662" lon="0.13017">
        <ele>124.1</ele>
        <time>2017-05-14T08:29:43Z</time>
      </trkpt>
      <trkpt lat="49.26622" lon="0.13004">
        <ele>124.1</ele>
        <time>2017-05-14T08:29:44Z</time>
      </trkpt>
      <trkpt lat="49.26624" lon="0.12994">
        <ele>124.1</ele>
        <time>2017-05-14T08:29:45Z</time>
      </trkpt>
      <trkpt lat="49.26626" lon="0.12983">
        <ele>124.1</ele>
        <time>2017-05-14T08:29:46Z</time>
      </trkpt>
      <trkpt lat="49.26628" lon="0.12972">
        <ele>124.1</ele>
        <time>2017-05-14T08:29:47Z</time>
      </trkpt>
      <trkpt lat="49.26629" lon="0.12963">
        <ele>124.1</ele>
        <time>2017-05-14T08:29:48Z</time>
      </trkpt>
      <trkpt lat="49.2663" lon="0.12957">
        <ele>124.1</ele>
        <time>2017-05-14T08:29:49Z</time>
      </trkpt>
      <trkpt lat="49.26631" lon="0.1295">
        <ele>124.2</ele>
        <time>2017-05-14T08:29:50Z</time>
      </trkpt>
      <trkpt lat="49.26634" lon="0.12941">
        <ele>124.2</ele>
        <time>2017-05-14T08:29:51Z</time>
      </trkpt>
      <trkpt lat="49.26643" lon="0.12937">
        <ele>124.2</ele>
        <time>2017-05-14T08:29:52Z</time>
      </trkpt>
      <trkpt lat="49.2665" lon="0.12938">
        <ele>124.2</ele>
        <time>2017-05-14T08:29:53Z</time>
      </trkpt>
      <trkpt lat="49.26657" lon="0.12938">
        <ele>124.2</ele>
        <time>2017-05-14T08:29:54Z</time>
      </trkpt>
      <trkpt lat="49.26661" lon="0.12937">
        <ele>124.1</ele>
        <time>2017-05-14T08:29:55Z</time>
      </trkpt>
      <trkpt lat="49.26664" lon="0.12937">
        <ele>124.1</ele>
        <time>2017-05-14T08:29:56Z</time>
      </trkpt>
      <trkpt lat="49.26668" lon="0.12938">
        <ele>124.1</ele>
        <time>2017-05-14T08:29:57Z</time>
      </trkpt>
      <trkpt lat="49.26673" lon="0.12939">
        <ele>124.1</ele>
        <time>2017-05-14T08:29:58Z</time>
      </trkpt>
      <trkpt lat="49.26677" lon="0.12939">
        <ele>124</ele>
        <time>2017-05-14T08:29:59Z</time>
      </trkpt>
      <trkpt lat="49.26682" lon="0.12939">
        <ele>123.9</ele>
        <time>2017-05-14T08:30:00Z</time>
      </trkpt>
      <trkpt lat="49.26686" lon="0.1294">
        <ele>123.9</ele>
        <time>2017-05-14T08:30:01Z</time>
      </trkpt>
      <trkpt lat="49.26691" lon="0.1294">
        <ele>123.8</ele>
        <time>2017-05-14T08:30:02Z</time>
      </trkpt>
      <trkpt lat="49.26696" lon="0.12941">
        <ele>123.7</ele>
        <time>2017-05-14T08:30:03Z</time>
      </trkpt>
      <trkpt lat="49.26704" lon="0.12942">
        <ele>123.2</ele>
        <time>2017-05-14T08:30:04Z</time>
      </trkpt>
      <trkpt lat="49.26712" lon="0.12943">
        <ele>122.8</ele>
        <time>2017-05-14T08:30:05Z</time>
      </trkpt>
      <trkpt lat="49.26719" lon="0.12944">
        <ele>122.6</ele>
        <time>2017-05-14T08:30:06Z</time>
      </trkpt>
      <trkpt lat="49.26725" lon="0.12945">
        <ele>122.6</ele>
        <time>2017-05-14T08:30:07Z</time>
      </trkpt>
      <trkpt lat="49.2673" lon="0.12944">
        <ele>122.5</ele>
        <time>2017-05-14T08:30:08Z</time>
      </trkpt>
      <trkpt lat="49.26735" lon="0.12943">
        <ele>122.5</ele>
        <time>2017-05-14T08:30:09Z</time>
      </trkpt>
      <trkpt lat="49.2674" lon="0.12942">
        <ele>122.4</ele>
        <time>2017-05-14T08:30:10Z</time>
      </trkpt>
      <trkpt lat="49.26745" lon="0.12943">
        <ele>122.4</ele>
        <time>2017-05-14T08:30:11Z</time>
      </trkpt>
      <trkpt lat="49.26751" lon="0.12944">
        <ele>122.3</ele>
        <time>2017-05-14T08:30:12Z</time>
      </trkpt>
      <trkpt lat="49.26758" lon="0.12946">
        <ele>122.2</ele>
        <time>2017-05-14T08:30:13Z</time>
      </trkpt>
      <trkpt lat="49.26764" lon="0.12948">
        <ele>122.2</ele>
        <time>2017-05-14T08:30:14Z</time>
      </trkpt>
      <trkpt lat="49.26769" lon="0.12949">
        <ele>122.2</ele>
        <time>2017-05-14T08:30:15Z</time>
      </trkpt>
      <trkpt lat="49.26775" lon="0.1295">
        <ele>122.1</ele>
        <time>2017-05-14T08:30:16Z</time>
      </trkpt>
      <trkpt lat="49.2678" lon="0.12951">
        <ele>122.1</ele>
        <time>2017-05-14T08:30:17Z</time>
      </trkpt>
      <trkpt lat="49.26786" lon="0.12952">
        <ele>122</ele>
        <time>2017-05-14T08:30:18Z</time>
      </trkpt>
      <trkpt lat="49.26791" lon="0.12952">
        <ele>121.9</ele>
        <time>2017-05-14T08:30:19Z</time>
      </trkpt>
      <trkpt lat="49.26796" lon="0.12954">
        <ele>121.8</ele>
        <time>2017-05-14T08:30:20Z</time>
      </trkpt>
      <trkpt lat="49.26801" lon="0.12954">
        <ele>121.7</ele>
        <time>2017-05-14T08:30:21Z</time>
      </trkpt>
      <trkpt lat="49.26806" lon="0.12955">
        <ele>121.5</ele>
        <time>2017-05-14T08:30:22Z</time>
      </trkpt>
      <trkpt lat="49.26811" lon="0.12955">
        <ele>121.2</ele>
        <time>2017-05-14T08:30:23Z</time>
      </trkpt>
      <trkpt lat="49.26816" lon="0.12955">
        <ele>120.9</ele>
        <time>2017-05-14T08:30:24Z</time>
      </trkpt>
      <trkpt lat="49.26822" lon="0.12955">
        <ele>120.8</ele>
        <time>2017-05-14T08:30:25Z</time>
      </trkpt>
      <trkpt lat="49.26827" lon="0.12955">
        <ele>120.7</ele>
        <time>2017-05-14T08:30:26Z</time>
      </trkpt>
      <trkpt lat="49.26833" lon="0.12955">
        <ele>120.6</ele>
        <time>2017-05-14T08:30:27Z</time>
      </trkpt>
      <trkpt lat="49.26838" lon="0.12955">
        <ele>120.6</ele>
        <time>2017-05-14T08:30:28Z</time>
      </trkpt>
      <trkpt lat="49.26843" lon="0.12956">
        <ele>120.5</ele>
        <time>2017-05-14T08:30:29Z</time>
      </trkpt>
      <trkpt lat="49.26849" lon="0.12957">
        <ele>120.4</ele>
        <time>2017-05-14T08:30:30Z</time>
      </trkpt>
      <trkpt lat="49.26856" lon="0.1296">
        <ele>120.4</ele>
        <time>2017-05-14T08:30:31Z</time>
      </trkpt>
      <trkpt lat="49.26861" lon="0.12961">
        <ele>120.3</ele>
        <time>2017-05-14T08:30:32Z</time>
      </trkpt>
      <trkpt lat="49.26866" lon="0.12963">
        <ele>120.3</ele>
        <time>2017-05-14T08:30:33Z</time>
      </trkpt>
      <trkpt lat="49.26874" lon="0.12967">
        <ele>120.2</ele>
        <time>2017-05-14T08:30:34Z</time>
      </trkpt>
      <trkpt lat="49.2688" lon="0.1297">
        <ele>120.1</ele>
        <time>2017-05-14T08:30:35Z</time>
      </trkpt>
      <trkpt lat="49.26886" lon="0.12974">
        <ele>120</ele>
        <time>2017-05-14T08:30:36Z</time>
      </trkpt>
      <trkpt lat="49.26891" lon="0.12978">
        <ele>119.9</ele>
        <time>2017-05-14T08:30:37Z</time>
      </trkpt>
      <trkpt lat="49.26896" lon="0.12981">
        <ele>119.6</ele>
        <time>2017-05-14T08:30:38Z</time>
      </trkpt>
      <trkpt lat="49.26901" lon="0.12984">
        <ele>119.2</ele>
        <time>2017-05-14T08:30:39Z</time>
      </trkpt>
      <trkpt lat="49.26904" lon="0.12987">
        <ele>119</ele>
        <time>2017-05-14T08:30:40Z</time>
      </trkpt>
      <trkpt lat="49.26908" lon="0.1299">
        <ele>118.9</ele>
        <time>2017-05-14T08:30:41Z</time>
      </trkpt>
      <trkpt lat="49.26912" lon="0.12992">
        <ele>118.7</ele>
        <time>2017-05-14T08:30:42Z</time>
      </trkpt>
      <trkpt lat="49.26914" lon="0.12994">
        <ele>118.6</ele>
        <time>2017-05-14T08:30:44Z</time>
      </trkpt>
      <trkpt lat="49.26919" lon="0.12997">
        <ele>118.5</ele>
        <time>2017-05-14T08:30:46Z</time>
      </trkpt>
      <trkpt lat="49.26922" lon="0.13">
        <ele>118.4</ele>
        <time>2017-05-14T08:30:48Z</time>
      </trkpt>
      <trkpt lat="49.26924" lon="0.13003">
        <ele>118.3</ele>
        <time>2017-05-14T08:30:52Z</time>
      </trkpt>
      <trkpt lat="49.26926" lon="0.13006">
        <ele>118.3</ele>
        <time>2017-05-14T08:31:03Z</time>
      </trkpt>
      <trkpt lat="49.26929" lon="0.13005">
        <ele>118.2</ele>
        <time>2017-05-14T08:31:23Z</time>
      </trkpt>
      <trkpt lat="49.26931" lon="0.13003">
        <ele>118</ele>
        <time>2017-05-14T08:31:34Z</time>
      </trkpt>
      <trkpt lat="49.26928" lon="0.13003">
        <ele>118</ele>
        <time>2017-05-14T08:31:48Z</time>
      </trkpt>
      <trkpt lat="49.26926" lon="0.13006">
        <ele>118</ele>
        <time>2017-05-14T08:32:00Z</time>
      </trkpt>
      <trkpt lat="49.26923" lon="0.13008">
        <ele>118</ele>
        <time>2017-05-14T08:32:04Z</time>
      </trkpt>
      <trkpt lat="49.26925" lon="0.13011">
        <ele>118</ele>
        <time>2017-05-14T08:33:31Z</time>
      </trkpt>
      <trkpt lat="49.26928" lon="0.13014">
        <ele>118</ele>
        <time>2017-05-14T08:33:38Z</time>
      </trkpt>
      <trkpt lat="49.26929" lon="0.13018">
        <ele>118</ele>
        <time>2017-05-14T08:33:50Z</time>
      </trkpt>
      <trkpt lat="49.26929" lon="0.13022">
        <ele>118</ele>
        <time>2017-05-14T08:33:57Z</time>
      </trkpt>
      <trkpt lat="49.26929" lon="0.13027">
        <ele>117.9</ele>
        <time>2017-05-14T08:34:07Z</time>
      </trkpt>
      <trkpt lat="49.26927" lon="0.13014">
        <ele>118</ele>
        <time>2017-05-14T08:34:57Z</time>
      </trkpt>
      <trkpt lat="49.2693" lon="0.13005">
        <ele>118</ele>
        <time>2017-05-14T08:35:01Z</time>
      </trkpt>
      <trkpt lat="49.26931" lon="0.13001">
        <ele>118</ele>
        <time>2017-05-14T08:35:02Z</time>
      </trkpt>
      <trkpt lat="49.26932" lon="0.12994">
        <ele>117.9</ele>
        <time>2017-05-14T08:35:04Z</time>
      </trkpt>
      <trkpt lat="49.26934" lon="0.12987">
        <ele>117.9</ele>
        <time>2017-05-14T08:35:06Z</time>
      </trkpt>
      <trkpt lat="49.26936" lon="0.12979">
        <ele>117.9</ele>
        <time>2017-05-14T08:35:08Z</time>
      </trkpt>
      <trkpt lat="49.26936" lon="0.12972">
        <ele>117.9</ele>
        <time>2017-05-14T08:35:10Z</time>
      </trkpt>
      <trkpt lat="49.26936" lon="0.12966">
        <ele>117.9</ele>
        <time>2017-05-14T08:35:11Z</time>
      </trkpt>
      <trkpt lat="49.26936" lon="0.1296">
        <ele>117.9</ele>
        <time>2017-05-14T08:35:12Z</time>
      </trkpt>
      <trkpt lat="49.26936" lon="0.12956">
        <ele>117.9</ele>
        <time>2017-05-14T08:35:13Z</time>
      </trkpt>
      <trkpt lat="49.26936" lon="0.12946">
        <ele>118</ele>
        <time>2017-05-14T08:35:15Z</time>
      </trkpt>
      <trkpt lat="49.26936" lon="0.12939">
        <ele>118.1</ele>
        <time>2017-05-14T08:35:16Z</time>
      </trkpt>
      <trkpt lat="49.26936" lon="0.12935">
        <ele>118.2</ele>
        <time>2017-05-14T08:35:17Z</time>
      </trkpt>
      <trkpt lat="49.26935" lon="0.12929">
        <ele>118.2</ele>
        <time>2017-05-14T08:35:18Z</time>
      </trkpt>
      <trkpt lat="49.26936" lon="0.12922">
        <ele>118.4</ele>
        <time>2017-05-14T08:35:19Z</time>
      </trkpt>
      <trkpt lat="49.26937" lon="0.12915">
        <ele>118.7</ele>
        <time>2017-05-14T08:35:20Z</time>
      </trkpt>
      <trkpt lat="49.26938" lon="0.12908">
        <ele>118.8</ele>
        <time>2017-05-14T08:35:21Z</time>
      </trkpt>
      <trkpt lat="49.26939" lon="0.12899">
        <ele>118.8</ele>
        <time>2017-05-14T08:35:22Z</time>
      </trkpt>
      <trkpt lat="49.26941" lon="0.12893">
        <ele>118.9</ele>
        <time>2017-05-14T08:35:23Z</time>
      </trkpt>
      <trkpt lat="49.26942" lon="0.12886">
        <ele>118.9</ele>
        <time>2017-05-14T08:35:24Z</time>
      </trkpt>
      <trkpt lat="49.26944" lon="0.1288">
        <ele>118.9</ele>
        <time>2017-05-14T08:35:25Z</time>
      </trkpt>
      <trkpt lat="49.26945" lon="0.12874">
        <ele>118.9</ele>
        <time>2017-05-14T08:35:26Z</time>
      </trkpt>
      <trkpt lat="49.26946" lon="0.12869">
        <ele>118.9</ele>
        <time>2017-05-14T08:35:27Z</time>
      </trkpt>
      <trkpt lat="49.26947" lon="0.12864">
        <ele>118.9</ele>
        <time>2017-05-14T08:35:28Z</time>
      </trkpt>
      <trkpt lat="49.26949" lon="0.12857">
        <ele>118.9</ele>
        <time>2017-05-14T08:35:29Z</time>
      </trkpt>
      <trkpt lat="49.26951" lon="0.12848">
        <ele>118.9</ele>
        <time>2017-05-14T08:35:30Z</time>
      </trkpt>
      <trkpt lat="49.26952" lon="0.12841">
        <ele>118.9</ele>
        <time>2017-05-14T08:35:31Z</time>
      </trkpt>
      <trkpt lat="49.26953" lon="0.12834">
        <ele>118.9</ele>
        <time>2017-05-14T08:35:32Z</time>
      </trkpt>
      <trkpt lat="49.26954" lon="0.12827">
        <ele>118.9</ele>
        <time>2017-05-14T08:35:33Z</time>
      </trkpt>
      <trkpt lat="49.26956" lon="0.12817">
        <ele>118.8</ele>
        <time>2017-05-14T08:35:34Z</time>
      </trkpt>
      <trkpt lat="49.26958" lon="0.12807">
        <ele>118.8</ele>
        <time>2017-05-14T08:35:35Z</time>
      </trkpt>
      <trkpt lat="49.26959" lon="0.12798">
        <ele>118.8</ele>
        <time>2017-05-14T08:35:36Z</time>
      </trkpt>
      <trkpt lat="49.2696" lon="0.12791">
        <ele>118.8</ele>
        <time>2017-05-14T08:35:37Z</time>
      </trkpt>
      <trkpt lat="49.26962" lon="0.12782">
        <ele>118.8</ele>
        <time>2017-05-14T08:35:38Z</time>
      </trkpt>
      <trkpt lat="49.26963" lon="0.12776">
        <ele>118.7</ele>
        <time>2017-05-14T08:35:39Z</time>
      </trkpt>
      <trkpt lat="49.26964" lon="0.1277">
        <ele>118.7</ele>
        <time>2017-05-14T08:35:40Z</time>
      </trkpt>
      <trkpt lat="49.26965" lon="0.12764">
        <ele>118.7</ele>
        <time>2017-05-14T08:35:41Z</time>
      </trkpt>
      <trkpt lat="49.26967" lon="0.12757">
        <ele>118.7</ele>
        <time>2017-05-14T08:35:42Z</time>
      </trkpt>
      <trkpt lat="49.26968" lon="0.12749">
        <ele>118.6</ele>
        <time>2017-05-14T08:35:43Z</time>
      </trkpt>
      <trkpt lat="49.26969" lon="0.1274">
        <ele>118.6</ele>
        <time>2017-05-14T08:35:44Z</time>
      </trkpt>
      <trkpt lat="49.2697" lon="0.12732">
        <ele>118.6</ele>
        <time>2017-05-14T08:35:45Z</time>
      </trkpt>
      <trkpt lat="49.26972" lon="0.12725">
        <ele>118.6</ele>
        <time>2017-05-14T08:35:46Z</time>
      </trkpt>
      <trkpt lat="49.26974" lon="0.12717">
        <ele>118.5</ele>
        <time>2017-05-14T08:35:47Z</time>
      </trkpt>
      <trkpt lat="49.26976" lon="0.1271">
        <ele>118.5</ele>
        <time>2017-05-14T08:35:48Z</time>
      </trkpt>
      <trkpt lat="49.26978" lon="0.12704">
        <ele>118.5</ele>
        <time>2017-05-14T08:35:49Z</time>
      </trkpt>
      <trkpt lat="49.26979" lon="0.12697">
        <ele>118.5</ele>
        <time>2017-05-14T08:35:50Z</time>
      </trkpt>
      <trkpt lat="49.2698" lon="0.12689">
        <ele>118.5</ele>
        <time>2017-05-14T08:35:51Z</time>
      </trkpt>
      <trkpt lat="49.26981" lon="0.12681">
        <ele>118.5</ele>
        <time>2017-05-14T08:35:52Z</time>
      </trkpt>
      <trkpt lat="49.26982" lon="0.12673">
        <ele>118.4</ele>
        <time>2017-05-14T08:35:53Z</time>
      </trkpt>
      <trkpt lat="49.26982" lon="0.12665">
        <ele>118.4</ele>
        <time>2017-05-14T08:35:54Z</time>
      </trkpt>
      <trkpt lat="49.26982" lon="0.12657">
        <ele>118.4</ele>
        <time>2017-05-14T08:35:55Z</time>
      </trkpt>
      <trkpt lat="49.26982" lon="0.1265">
        <ele>118.4</ele>
        <time>2017-05-14T08:35:56Z</time>
      </trkpt>
      <trkpt lat="49.26981" lon="0.12642">
        <ele>118.4</ele>
        <time>2017-05-14T08:35:57Z</time>
      </trkpt>
      <trkpt lat="49.2698" lon="0.12635">
        <ele>118.3</ele>
        <time>2017-05-14T08:35:58Z</time>
      </trkpt>
      <trkpt lat="49.26979" lon="0.12627">
        <ele>118.3</ele>
        <time>2017-05-14T08:35:59Z</time>
      </trkpt>
      <trkpt lat="49.26977" lon="0.12619">
        <ele>118.3</ele>
        <time>2017-05-14T08:36:00Z</time>
      </trkpt>
      <trkpt lat="49.26975" lon="0.12611">
        <ele>118.3</ele>
        <time>2017-05-14T08:36:01Z</time>
      </trkpt>
      <trkpt lat="49.26974" lon="0.12602">
        <ele>118.2</ele>
        <time>2017-05-14T08:36:02Z</time>
      </trkpt>
      <trkpt lat="49.26972" lon="0.12594">
        <ele>118.2</ele>
        <time>2017-05-14T08:36:03Z</time>
      </trkpt>
      <trkpt lat="49.26971" lon="0.12586">
        <ele>118.2</ele>
        <time>2017-05-14T08:36:04Z</time>
      </trkpt>
      <trkpt lat="49.26969" lon="0.12578">
        <ele>118.2</ele>
        <time>2017-05-14T08:36:05Z</time>
      </trkpt>
      <trkpt lat="49.26968" lon="0.1257">
        <ele>118.1</ele>
        <time>2017-05-14T08:36:06Z</time>
      </trkpt>
      <trkpt lat="49.26967" lon="0.12562">
        <ele>118.1</ele>
        <time>2017-05-14T08:36:07Z</time>
      </trkpt>
      <trkpt lat="49.26965" lon="0.12554">
        <ele>118.1</ele>
        <time>2017-05-14T08:36:08Z</time>
      </trkpt>
      <trkpt lat="49.26964" lon="0.12546">
        <ele>118</ele>
        <time>2017-05-14T08:36:09Z</time>
      </trkpt>
      <trkpt lat="49.26964" lon="0.12537">
        <ele>118</ele>
        <time>2017-05-14T08:36:10Z</time>
      </trkpt>
      <trkpt lat="49.26963" lon="0.12529">
        <ele>118</ele>
        <time>2017-05-14T08:36:11Z</time>
      </trkpt>
      <trkpt lat="49.26962" lon="0.1252">
        <ele>118</ele>
        <time>2017-05-14T08:36:12Z</time>
      </trkpt>
      <trkpt lat="49.26961" lon="0.12512">
        <ele>118</ele>
        <time>2017-05-14T08:36:13Z</time>
      </trkpt>
      <trkpt lat="49.26961" lon="0.12504">
        <ele>117.9</ele>
        <time>2017-05-14T08:36:14Z</time>
      </trkpt>
      <trkpt lat="49.2696" lon="0.12495">
        <ele>117.9</ele>
        <time>2017-05-14T08:36:15Z</time>
      </trkpt>
      <trkpt lat="49.2696" lon="0.12487">
        <ele>117.9</ele>
        <time>2017-05-14T08:36:16Z</time>
      </trkpt>
      <trkpt lat="49.26959" lon="0.12479">
        <ele>117.9</ele>
        <time>2017-05-14T08:36:17Z</time>
      </trkpt>
      <trkpt lat="49.26957" lon="0.1247">
        <ele>117.8</ele>
        <time>2017-05-14T08:36:18Z</time>
      </trkpt>
      <trkpt lat="49.26956" lon="0.12462">
        <ele>117.8</ele>
        <time>2017-05-14T08:36:19Z</time>
      </trkpt>
      <trkpt lat="49.26955" lon="0.12453">
        <ele>117.8</ele>
        <time>2017-05-14T08:36:20Z</time>
      </trkpt>
      <trkpt lat="49.26954" lon="0.12443">
        <ele>117.8</ele>
        <time>2017-05-14T08:36:21Z</time>
      </trkpt>
      <trkpt lat="49.26953" lon="0.12433">
        <ele>117.7</ele>
        <time>2017-05-14T08:36:22Z</time>
      </trkpt>
      <trkpt lat="49.26952" lon="0.12422">
        <ele>117.6</ele>
        <time>2017-05-14T08:36:23Z</time>
      </trkpt>
      <trkpt lat="49.26951" lon="0.12413">
        <ele>117.6</ele>
        <time>2017-05-14T08:36:24Z</time>
      </trkpt>
      <trkpt lat="49.26949" lon="0.12405">
        <ele>117.6</ele>
        <time>2017-05-14T08:36:25Z</time>
      </trkpt>
      <trkpt lat="49.26947" lon="0.12395">
        <ele>117.5</ele>
        <time>2017-05-14T08:36:26Z</time>
      </trkpt>
      <trkpt lat="49.26948" lon="0.12381">
        <ele>117.4</ele>
        <time>2017-05-14T08:36:27Z</time>
      </trkpt>
      <trkpt lat="49.2695" lon="0.12367">
        <ele>117.3</ele>
        <time>2017-05-14T08:36:28Z</time>
      </trkpt>
      <trkpt lat="49.2695" lon="0.12354">
        <ele>117.2</ele>
        <time>2017-05-14T08:36:29Z</time>
      </trkpt>
      <trkpt lat="49.26951" lon="0.12345">
        <ele>117.1</ele>
        <time>2017-05-14T08:36:30Z</time>
      </trkpt>
      <trkpt lat="49.26953" lon="0.12332">
        <ele>117</ele>
        <time>2017-05-14T08:36:31Z</time>
      </trkpt>
      <trkpt lat="49.26956" lon="0.12317">
        <ele>117</ele>
        <time>2017-05-14T08:36:32Z</time>
      </trkpt>
      <trkpt lat="49.26959" lon="0.12301">
        <ele>117.1</ele>
        <time>2017-05-14T08:36:33Z</time>
      </trkpt>
      <trkpt lat="49.2696" lon="0.1229">
        <ele>117.3</ele>
        <time>2017-05-14T08:36:34Z</time>
      </trkpt>
      <trkpt lat="49.2696" lon="0.12282">
        <ele>117.4</ele>
        <time>2017-05-14T08:36:35Z</time>
      </trkpt>
      <trkpt lat="49.2696" lon="0.12274">
        <ele>117.5</ele>
        <time>2017-05-14T08:36:36Z</time>
      </trkpt>
      <trkpt lat="49.2696" lon="0.12266">
        <ele>117.6</ele>
        <time>2017-05-14T08:36:37Z</time>
      </trkpt>
      <trkpt lat="49.26959" lon="0.12258">
        <ele>117.7</ele>
        <time>2017-05-14T08:36:38Z</time>
      </trkpt>
      <trkpt lat="49.26958" lon="0.1225">
        <ele>117.8</ele>
        <time>2017-05-14T08:36:39Z</time>
      </trkpt>
      <trkpt lat="49.26955" lon="0.1224">
        <ele>117.9</ele>
        <time>2017-05-14T08:36:40Z</time>
      </trkpt>
      <trkpt lat="49.26954" lon="0.12232">
        <ele>118.1</ele>
        <time>2017-05-14T08:36:41Z</time>
      </trkpt>
      <trkpt lat="49.26952" lon="0.12224">
        <ele>118.2</ele>
        <time>2017-05-14T08:36:42Z</time>
      </trkpt>
      <trkpt lat="49.2695" lon="0.12218">
        <ele>118.3</ele>
        <time>2017-05-14T08:36:43Z</time>
      </trkpt>
      <trkpt lat="49.26948" lon="0.12212">
        <ele>118.5</ele>
        <time>2017-05-14T08:36:44Z</time>
      </trkpt>
      <trkpt lat="49.26945" lon="0.12206">
        <ele>118.6</ele>
        <time>2017-05-14T08:36:45Z</time>
      </trkpt>
      <trkpt lat="49.26942" lon="0.122">
        <ele>118.8</ele>
        <time>2017-05-14T08:36:46Z</time>
      </trkpt>
      <trkpt lat="49.2694" lon="0.12194">
        <ele>118.9</ele>
        <time>2017-05-14T08:36:47Z</time>
      </trkpt>
      <trkpt lat="49.26939" lon="0.12188">
        <ele>119</ele>
        <time>2017-05-14T08:36:48Z</time>
      </trkpt>
      <trkpt lat="49.26938" lon="0.12183">
        <ele>119.1</ele>
        <time>2017-05-14T08:36:49Z</time>
      </trkpt>
      <trkpt lat="49.26935" lon="0.12177">
        <ele>119.1</ele>
        <time>2017-05-14T08:36:50Z</time>
      </trkpt>
      <trkpt lat="49.26933" lon="0.12171">
        <ele>119.1</ele>
        <time>2017-05-14T08:36:51Z</time>
      </trkpt>
      <trkpt lat="49.2693" lon="0.12164">
        <ele>119.2</ele>
        <time>2017-05-14T08:36:52Z</time>
      </trkpt>
      <trkpt lat="49.26927" lon="0.12157">
        <ele>119.3</ele>
        <time>2017-05-14T08:36:53Z</time>
      </trkpt>
      <trkpt lat="49.26925" lon="0.12152">
        <ele>119.3</ele>
        <time>2017-05-14T08:36:54Z</time>
      </trkpt>
      <trkpt lat="49.26922" lon="0.12146">
        <ele>119.4</ele>
        <time>2017-05-14T08:36:55Z</time>
      </trkpt>
      <trkpt lat="49.2692" lon="0.1214">
        <ele>119.4</ele>
        <time>2017-05-14T08:36:56Z</time>
      </trkpt>
      <trkpt lat="49.26917" lon="0.12131">
        <ele>119.6</ele>
        <time>2017-05-14T08:36:57Z</time>
      </trkpt>
      <trkpt lat="49.26913" lon="0.12124">
        <ele>120</ele>
        <time>2017-05-14T08:36:58Z</time>
      </trkpt>
      <trkpt lat="49.26909" lon="0.12118">
        <ele>120.3</ele>
        <time>2017-05-14T08:36:59Z</time>
      </trkpt>
      <trkpt lat="49.26906" lon="0.12112">
        <ele>120.5</ele>
        <time>2017-05-14T08:37:00Z</time>
      </trkpt>
      <trkpt lat="49.26903" lon="0.12108">
        <ele>120.6</ele>
        <time>2017-05-14T08:37:01Z</time>
      </trkpt>
      <trkpt lat="49.269" lon="0.12104">
        <ele>120.7</ele>
        <time>2017-05-14T08:37:02Z</time>
      </trkpt>
      <trkpt lat="49.26897" lon="0.12101">
        <ele>120.8</ele>
        <time>2017-05-14T08:37:03Z</time>
      </trkpt>
      <trkpt lat="49.26895" lon="0.12097">
        <ele>120.8</ele>
        <time>2017-05-14T08:37:04Z</time>
      </trkpt>
      <trkpt lat="49.26891" lon="0.12093">
        <ele>120.8</ele>
        <time>2017-05-14T08:37:05Z</time>
      </trkpt>
      <trkpt lat="49.26888" lon="0.12088">
        <ele>120.9</ele>
        <time>2017-05-14T08:37:06Z</time>
      </trkpt>
      <trkpt lat="49.26885" lon="0.12085">
        <ele>120.9</ele>
        <time>2017-05-14T08:37:07Z</time>
      </trkpt>
      <trkpt lat="49.26883" lon="0.12081">
        <ele>120.9</ele>
        <time>2017-05-14T08:37:08Z</time>
      </trkpt>
      <trkpt lat="49.2688" lon="0.12078">
        <ele>121</ele>
        <time>2017-05-14T08:37:09Z</time>
      </trkpt>
      <trkpt lat="49.26877" lon="0.12073">
        <ele>121</ele>
        <time>2017-05-14T08:37:10Z</time>
      </trkpt>
      <trkpt lat="49.26874" lon="0.12071">
        <ele>121</ele>
        <time>2017-05-14T08:37:11Z</time>
      </trkpt>
      <trkpt lat="49.26868" lon="0.12069">
        <ele>121.1</ele>
        <time>2017-05-14T08:37:12Z</time>
      </trkpt>
      <trkpt lat="49.26862" lon="0.12067">
        <ele>121.1</ele>
        <time>2017-05-14T08:37:13Z</time>
      </trkpt>
      <trkpt lat="49.26858" lon="0.12062">
        <ele>121.1</ele>
        <time>2017-05-14T08:37:14Z</time>
      </trkpt>
      <trkpt lat="49.26859" lon="0.12057">
        <ele>121.1</ele>
        <time>2017-05-14T08:37:15Z</time>
      </trkpt>
      <trkpt lat="49.26851" lon="0.12055">
        <ele>121.2</ele>
        <time>2017-05-14T08:37:19Z</time>
      </trkpt>
      <trkpt lat="49.26848" lon="0.12055">
        <ele>121.2</ele>
        <time>2017-05-14T08:37:20Z</time>
      </trkpt>
      <trkpt lat="49.26841" lon="0.12054">
        <ele>121.2</ele>
        <time>2017-05-14T08:37:21Z</time>
      </trkpt>
      <trkpt lat="49.26837" lon="0.12054">
        <ele>121.2</ele>
        <time>2017-05-14T08:37:22Z</time>
      </trkpt>
      <trkpt lat="49.26832" lon="0.1205">
        <ele>121.2</ele>
        <time>2017-05-14T08:37:23Z</time>
      </trkpt>
      <trkpt lat="49.26828" lon="0.12046">
        <ele>121.2</ele>
        <time>2017-05-14T08:37:24Z</time>
      </trkpt>
      <trkpt lat="49.26822" lon="0.12041">
        <ele>121.2</ele>
        <time>2017-05-14T08:37:25Z</time>
      </trkpt>
      <trkpt lat="49.26817" lon="0.12034">
        <ele>121.3</ele>
        <time>2017-05-14T08:37:26Z</time>
      </trkpt>
      <trkpt lat="49.2681" lon="0.12028">
        <ele>121.3</ele>
        <time>2017-05-14T08:37:27Z</time>
      </trkpt>
      <trkpt lat="49.26805" lon="0.12019">
        <ele>121.3</ele>
        <time>2017-05-14T08:37:28Z</time>
      </trkpt>
      <trkpt lat="49.26801" lon="0.12009">
        <ele>121.3</ele>
        <time>2017-05-14T08:37:29Z</time>
      </trkpt>
      <trkpt lat="49.26798" lon="0.12003">
        <ele>121.3</ele>
        <time>2017-05-14T08:37:30Z</time>
      </trkpt>
      <trkpt lat="49.26795" lon="0.11996">
        <ele>121.3</ele>
        <time>2017-05-14T08:37:31Z</time>
      </trkpt>
      <trkpt lat="49.26792" lon="0.11989">
        <ele>121.3</ele>
        <time>2017-05-14T08:37:32Z</time>
      </trkpt>
      <trkpt lat="49.26789" lon="0.11984">
        <ele>121.3</ele>
        <time>2017-05-14T08:37:33Z</time>
      </trkpt>
      <trkpt lat="49.26787" lon="0.1198">
        <ele>121.3</ele>
        <time>2017-05-14T08:37:34Z</time>
      </trkpt>
      <trkpt lat="49.26785" lon="0.11975">
        <ele>121.3</ele>
        <time>2017-05-14T08:37:35Z</time>
      </trkpt>
      <trkpt lat="49.26783" lon="0.11971">
        <ele>121.3</ele>
        <time>2017-05-14T08:37:36Z</time>
      </trkpt>
      <trkpt lat="49.26781" lon="0.11967">
        <ele>121.3</ele>
        <time>2017-05-14T08:37:37Z</time>
      </trkpt>
      <trkpt lat="49.26778" lon="0.11962">
        <ele>121.3</ele>
        <time>2017-05-14T08:37:38Z</time>
      </trkpt>
      <trkpt lat="49.26775" lon="0.11957">
        <ele>121.3</ele>
        <time>2017-05-14T08:37:39Z</time>
      </trkpt>
      <trkpt lat="49.26772" lon="0.11949">
        <ele>121.3</ele>
        <time>2017-05-14T08:37:40Z</time>
      </trkpt>
      <trkpt lat="49.26766" lon="0.1194">
        <ele>121.4</ele>
        <time>2017-05-14T08:37:41Z</time>
      </trkpt>
      <trkpt lat="49.26762" lon="0.11931">
        <ele>121.4</ele>
        <time>2017-05-14T08:37:42Z</time>
      </trkpt>
      <trkpt lat="49.26758" lon="0.11924">
        <ele>121.4</ele>
        <time>2017-05-14T08:37:43Z</time>
      </trkpt>
      <trkpt lat="49.26756" lon="0.11916">
        <ele>121.4</ele>
        <time>2017-05-14T08:37:44Z</time>
      </trkpt>
      <trkpt lat="49.26753" lon="0.11911">
        <ele>121.4</ele>
        <time>2017-05-14T08:37:45Z</time>
      </trkpt>
      <trkpt lat="49.26748" lon="0.11903">
        <ele>121.4</ele>
        <time>2017-05-14T08:37:46Z</time>
      </trkpt>
      <trkpt lat="49.26745" lon="0.11897">
        <ele>121.4</ele>
        <time>2017-05-14T08:37:47Z</time>
      </trkpt>
      <trkpt lat="49.26741" lon="0.11893">
        <ele>121.4</ele>
        <time>2017-05-14T08:37:48Z</time>
      </trkpt>
      <trkpt lat="49.26739" lon="0.11889">
        <ele>121.4</ele>
        <time>2017-05-14T08:37:49Z</time>
      </trkpt>
      <trkpt lat="49.26736" lon="0.11884">
        <ele>121.4</ele>
        <time>2017-05-14T08:37:50Z</time>
      </trkpt>
      <trkpt lat="49.26733" lon="0.11881">
        <ele>121.4</ele>
        <time>2017-05-14T08:37:51Z</time>
      </trkpt>
      <trkpt lat="49.26729" lon="0.11876">
        <ele>121.4</ele>
        <time>2017-05-14T08:37:52Z</time>
      </trkpt>
      <trkpt lat="49.26725" lon="0.11869">
        <ele>121.4</ele>
        <time>2017-05-14T08:37:53Z</time>
      </trkpt>
      <trkpt lat="49.26722" lon="0.11865">
        <ele>121.4</ele>
        <time>2017-05-14T08:37:54Z</time>
      </trkpt>
      <trkpt lat="49.26719" lon="0.11858">
        <ele>121.4</ele>
        <time>2017-05-14T08:37:55Z</time>
      </trkpt>
      <trkpt lat="49.26716" lon="0.1185">
        <ele>121.4</ele>
        <time>2017-05-14T08:37:56Z</time>
      </trkpt>
      <trkpt lat="49.26713" lon="0.11845">
        <ele>121.4</ele>
        <time>2017-05-14T08:37:57Z</time>
      </trkpt>
      <trkpt lat="49.2671" lon="0.11836">
        <ele>121.4</ele>
        <time>2017-05-14T08:37:58Z</time>
      </trkpt>
      <trkpt lat="49.26707" lon="0.11829">
        <ele>121.4</ele>
        <time>2017-05-14T08:37:59Z</time>
      </trkpt>
      <trkpt lat="49.26705" lon="0.11824">
        <ele>121.4</ele>
        <time>2017-05-14T08:38:00Z</time>
      </trkpt>
      <trkpt lat="49.26702" lon="0.11819">
        <ele>121.4</ele>
        <time>2017-05-14T08:38:01Z</time>
      </trkpt>
      <trkpt lat="49.26698" lon="0.11813">
        <ele>121.4</ele>
        <time>2017-05-14T08:38:03Z</time>
      </trkpt>
      <trkpt lat="49.26697" lon="0.11809">
        <ele>121.4</ele>
        <time>2017-05-14T08:38:04Z</time>
      </trkpt>
      <trkpt lat="49.26697" lon="0.11801">
        <ele>121.4</ele>
        <time>2017-05-14T08:38:05Z</time>
      </trkpt>
      <trkpt lat="49.26704" lon="0.11783">
        <ele>121.3</ele>
        <time>2017-05-14T08:38:06Z</time>
      </trkpt>
      <trkpt lat="49.26706" lon="0.11774">
        <ele>121.3</ele>
        <time>2017-05-14T08:38:07Z</time>
      </trkpt>
      <trkpt lat="49.26706" lon="0.11759">
        <ele>121.1</ele>
        <time>2017-05-14T08:38:08Z</time>
      </trkpt>
      <trkpt lat="49.26707" lon="0.11748">
        <ele>120.6</ele>
        <time>2017-05-14T08:38:09Z</time>
      </trkpt>
      <trkpt lat="49.26707" lon="0.11742">
        <ele>120.2</ele>
        <time>2017-05-14T08:38:10Z</time>
      </trkpt>
      <trkpt lat="49.26705" lon="0.11734">
        <ele>119.8</ele>
        <time>2017-05-14T08:38:12Z</time>
      </trkpt>
      <trkpt lat="49.26703" lon="0.11731">
        <ele>119.7</ele>
        <time>2017-05-14T08:38:13Z</time>
      </trkpt>
      <trkpt lat="49.26701" lon="0.11728">
        <ele>119.5</ele>
        <time>2017-05-14T08:38:14Z</time>
      </trkpt>
      <trkpt lat="49.26704" lon="0.11718">
        <ele>119.3</ele>
        <time>2017-05-14T08:38:16Z</time>
      </trkpt>
      <trkpt lat="49.26707" lon="0.1171">
        <ele>119</ele>
        <time>2017-05-14T08:38:17Z</time>
      </trkpt>
      <trkpt lat="49.26711" lon="0.11702">
        <ele>118.5</ele>
        <time>2017-05-14T08:38:18Z</time>
      </trkpt>
      <trkpt lat="49.26714" lon="0.11696">
        <ele>118</ele>
        <time>2017-05-14T08:38:19Z</time>
      </trkpt>
      <trkpt lat="49.26718" lon="0.1169">
        <ele>117.8</ele>
        <time>2017-05-14T08:38:20Z</time>
      </trkpt>
      <trkpt lat="49.2672" lon="0.11684">
        <ele>117.6</ele>
        <time>2017-05-14T08:38:21Z</time>
      </trkpt>
      <trkpt lat="49.26725" lon="0.11679">
        <ele>117.3</ele>
        <time>2017-05-14T08:38:22Z</time>
      </trkpt>
      <trkpt lat="49.26732" lon="0.11671">
        <ele>116.6</ele>
        <time>2017-05-14T08:38:23Z</time>
      </trkpt>
      <trkpt lat="49.26739" lon="0.11664">
        <ele>116</ele>
        <time>2017-05-14T08:38:24Z</time>
      </trkpt>
      <trkpt lat="49.26749" lon="0.11656">
        <ele>115.5</ele>
        <time>2017-05-14T08:38:25Z</time>
      </trkpt>
      <trkpt lat="49.26759" lon="0.11648">
        <ele>114</ele>
        <time>2017-05-14T08:38:26Z</time>
      </trkpt>
      <trkpt lat="49.26768" lon="0.11643">
        <ele>113.1</ele>
        <time>2017-05-14T08:38:27Z</time>
      </trkpt>
      <trkpt lat="49.26775" lon="0.11642">
        <ele>112.1</ele>
        <time>2017-05-14T08:38:28Z</time>
      </trkpt>
      <trkpt lat="49.26782" lon="0.11638">
        <ele>111.2</ele>
        <time>2017-05-14T08:38:29Z</time>
      </trkpt>
      <trkpt lat="49.26789" lon="0.11635">
        <ele>109.9</ele>
        <time>2017-05-14T08:38:30Z</time>
      </trkpt>
      <trkpt lat="49.26795" lon="0.11634">
        <ele>108.9</ele>
        <time>2017-05-14T08:38:31Z</time>
      </trkpt>
      <trkpt lat="49.26801" lon="0.11631">
        <ele>107.7</ele>
        <time>2017-05-14T08:38:32Z</time>
      </trkpt>
      <trkpt lat="49.26808" lon="0.11628">
        <ele>106.2</ele>
        <time>2017-05-14T08:38:33Z</time>
      </trkpt>
      <trkpt lat="49.26815" lon="0.11625">
        <ele>104.1</ele>
        <time>2017-05-14T08:38:34Z</time>
      </trkpt>
      <trkpt lat="49.2682" lon="0.11623">
        <ele>103.2</ele>
        <time>2017-05-14T08:38:35Z</time>
      </trkpt>
      <trkpt lat="49.26824" lon="0.11622">
        <ele>102.3</ele>
        <time>2017-05-14T08:38:36Z</time>
      </trkpt>
      <trkpt lat="49.26828" lon="0.11616">
        <ele>101.1</ele>
        <time>2017-05-14T08:38:38Z</time>
      </trkpt>
      <trkpt lat="49.2683" lon="0.11611">
        <ele>100.2</ele>
        <time>2017-05-14T08:38:39Z</time>
      </trkpt>
      <trkpt lat="49.26832" lon="0.11605">
        <ele>99.4</ele>
        <time>2017-05-14T08:38:40Z</time>
      </trkpt>
      <trkpt lat="49.26835" lon="0.11595">
        <ele>97.9</ele>
        <time>2017-05-14T08:38:41Z</time>
      </trkpt>
      <trkpt lat="49.26838" lon="0.11589">
        <ele>96.3</ele>
        <time>2017-05-14T08:38:42Z</time>
      </trkpt>
      <trkpt lat="49.26841" lon="0.11583">
        <ele>95.3</ele>
        <time>2017-05-14T08:38:43Z</time>
      </trkpt>
      <trkpt lat="49.26844" lon="0.11575">
        <ele>94.1</ele>
        <time>2017-05-14T08:38:44Z</time>
      </trkpt>
      <trkpt lat="49.2685" lon="0.11567">
        <ele>92.7</ele>
        <time>2017-05-14T08:38:45Z</time>
      </trkpt>
      <trkpt lat="49.26854" lon="0.11558">
        <ele>91.6</ele>
        <time>2017-05-14T08:38:46Z</time>
      </trkpt>
      <trkpt lat="49.26856" lon="0.11554">
        <ele>90.9</ele>
        <time>2017-05-14T08:38:47Z</time>
      </trkpt>
      <trkpt lat="49.26862" lon="0.11547">
        <ele>89.7</ele>
        <time>2017-05-14T08:38:48Z</time>
      </trkpt>
      <trkpt lat="49.26866" lon="0.11543">
        <ele>88.7</ele>
        <time>2017-05-14T08:38:49Z</time>
      </trkpt>
      <trkpt lat="49.26873" lon="0.11537">
        <ele>87.4</ele>
        <time>2017-05-14T08:38:50Z</time>
      </trkpt>
      <trkpt lat="49.2688" lon="0.11531">
        <ele>86</ele>
        <time>2017-05-14T08:38:51Z</time>
      </trkpt>
      <trkpt lat="49.26886" lon="0.11527">
        <ele>85.1</ele>
        <time>2017-05-14T08:38:52Z</time>
      </trkpt>
      <trkpt lat="49.26891" lon="0.11524">
        <ele>84.3</ele>
        <time>2017-05-14T08:38:53Z</time>
      </trkpt>
      <trkpt lat="49.26897" lon="0.11521">
        <ele>83.7</ele>
        <time>2017-05-14T08:38:54Z</time>
      </trkpt>
      <trkpt lat="49.26906" lon="0.11518">
        <ele>82.3</ele>
        <time>2017-05-14T08:38:55Z</time>
      </trkpt>
      <trkpt lat="49.26915" lon="0.11514">
        <ele>81</ele>
        <time>2017-05-14T08:38:56Z</time>
      </trkpt>
      <trkpt lat="49.26921" lon="0.11513">
        <ele>80</ele>
        <time>2017-05-14T08:38:57Z</time>
      </trkpt>
      <trkpt lat="49.26928" lon="0.11511">
        <ele>79</ele>
        <time>2017-05-14T08:38:58Z</time>
      </trkpt>
      <trkpt lat="49.26934" lon="0.1151">
        <ele>78.3</ele>
        <time>2017-05-14T08:38:59Z</time>
      </trkpt>
      <trkpt lat="49.26939" lon="0.11509">
        <ele>77.8</ele>
        <time>2017-05-14T08:39:00Z</time>
      </trkpt>
      <trkpt lat="49.26945" lon="0.11508">
        <ele>77</ele>
        <time>2017-05-14T08:39:01Z</time>
      </trkpt>
      <trkpt lat="49.26952" lon="0.11509">
        <ele>76.4</ele>
        <time>2017-05-14T08:39:02Z</time>
      </trkpt>
      <trkpt lat="49.26958" lon="0.11508">
        <ele>76</ele>
        <time>2017-05-14T08:39:03Z</time>
      </trkpt>
      <trkpt lat="49.26963" lon="0.11507">
        <ele>75.2</ele>
        <time>2017-05-14T08:39:04Z</time>
      </trkpt>
      <trkpt lat="49.26967" lon="0.11507">
        <ele>74.7</ele>
        <time>2017-05-14T08:39:05Z</time>
      </trkpt>
      <trkpt lat="49.2697" lon="0.11506">
        <ele>74.2</ele>
        <time>2017-05-14T08:39:06Z</time>
      </trkpt>
      <trkpt lat="49.26973" lon="0.11505">
        <ele>73.8</ele>
        <time>2017-05-14T08:39:07Z</time>
      </trkpt>
      <trkpt lat="49.26977" lon="0.11503">
        <ele>73.3</ele>
        <time>2017-05-14T08:39:08Z</time>
      </trkpt>
      <trkpt lat="49.26978" lon="0.115">
        <ele>72.9</ele>
        <time>2017-05-14T08:39:12Z</time>
      </trkpt>
      <trkpt lat="49.26977" lon="0.11493">
        <ele>72.5</ele>
        <time>2017-05-14T08:39:17Z</time>
      </trkpt>
      <trkpt lat="49.26978" lon="0.11486">
        <ele>72.4</ele>
        <time>2017-05-14T08:39:18Z</time>
      </trkpt>
      <trkpt lat="49.26979" lon="0.11482">
        <ele>72.4</ele>
        <time>2017-05-14T08:39:19Z</time>
      </trkpt>
      <trkpt lat="49.26979" lon="0.11476">
        <ele>72.4</ele>
        <time>2017-05-14T08:39:21Z</time>
      </trkpt>
      <trkpt lat="49.26979" lon="0.11469">
        <ele>72.6</ele>
        <time>2017-05-14T08:39:23Z</time>
      </trkpt>
      <trkpt lat="49.26979" lon="0.11463">
        <ele>73</ele>
        <time>2017-05-14T08:39:24Z</time>
      </trkpt>
      <trkpt lat="49.26979" lon="0.11457">
        <ele>73.4</ele>
        <time>2017-05-14T08:39:25Z</time>
      </trkpt>
      <trkpt lat="49.2698" lon="0.11452">
        <ele>73.7</ele>
        <time>2017-05-14T08:39:26Z</time>
      </trkpt>
      <trkpt lat="49.26982" lon="0.11447">
        <ele>73.8</ele>
        <time>2017-05-14T08:39:27Z</time>
      </trkpt>
      <trkpt lat="49.26983" lon="0.11443">
        <ele>73.9</ele>
        <time>2017-05-14T08:39:28Z</time>
      </trkpt>
      <trkpt lat="49.26984" lon="0.11437">
        <ele>74.1</ele>
        <time>2017-05-14T08:39:29Z</time>
      </trkpt>
      <trkpt lat="49.26987" lon="0.11426">
        <ele>74.3</ele>
        <time>2017-05-14T08:39:30Z</time>
      </trkpt>
      <trkpt lat="49.26987" lon="0.11416">
        <ele>74.6</ele>
        <time>2017-05-14T08:39:31Z</time>
      </trkpt>
      <trkpt lat="49.26989" lon="0.11405">
        <ele>75</ele>
        <time>2017-05-14T08:39:33Z</time>
      </trkpt>
      <trkpt lat="49.26989" lon="0.114">
        <ele>75.2</ele>
        <time>2017-05-14T08:39:34Z</time>
      </trkpt>
      <trkpt lat="49.26989" lon="0.11394">
        <ele>75.5</ele>
        <time>2017-05-14T08:39:35Z</time>
      </trkpt>
      <trkpt lat="49.2699" lon="0.11387">
        <ele>75.8</ele>
        <time>2017-05-14T08:39:36Z</time>
      </trkpt>
      <trkpt lat="49.2699" lon="0.11382">
        <ele>76</ele>
        <time>2017-05-14T08:39:37Z</time>
      </trkpt>
      <trkpt lat="49.26991" lon="0.11376">
        <ele>76.1</ele>
        <time>2017-05-14T08:39:38Z</time>
      </trkpt>
      <trkpt lat="49.26991" lon="0.11371">
        <ele>76.2</ele>
        <time>2017-05-14T08:39:39Z</time>
      </trkpt>
      <trkpt lat="49.26991" lon="0.11365">
        <ele>76.3</ele>
        <time>2017-05-14T08:39:40Z</time>
      </trkpt>
      <trkpt lat="49.2699" lon="0.1136">
        <ele>76.4</ele>
        <time>2017-05-14T08:39:41Z</time>
      </trkpt>
      <trkpt lat="49.26991" lon="0.11355">
        <ele>76.5</ele>
        <time>2017-05-14T08:39:42Z</time>
      </trkpt>
      <trkpt lat="49.26991" lon="0.1135">
        <ele>76.6</ele>
        <time>2017-05-14T08:39:43Z</time>
      </trkpt>
      <trkpt lat="49.26992" lon="0.11344">
        <ele>76.7</ele>
        <time>2017-05-14T08:39:44Z</time>
      </trkpt>
      <trkpt lat="49.26993" lon="0.11337">
        <ele>76.9</ele>
        <time>2017-05-14T08:39:45Z</time>
      </trkpt>
      <trkpt lat="49.26993" lon="0.11331">
        <ele>77</ele>
        <time>2017-05-14T08:39:46Z</time>
      </trkpt>
      <trkpt lat="49.26992" lon="0.11326">
        <ele>77.1</ele>
        <time>2017-05-14T08:39:47Z</time>
      </trkpt>
      <trkpt lat="49.26992" lon="0.1132">
        <ele>77.4</ele>
        <time>2017-05-14T08:39:48Z</time>
      </trkpt>
      <trkpt lat="49.26992" lon="0.11315">
        <ele>77.6</ele>
        <time>2017-05-14T08:39:49Z</time>
      </trkpt>
      <trkpt lat="49.26992" lon="0.1131">
        <ele>77.8</ele>
        <time>2017-05-14T08:39:50Z</time>
      </trkpt>
      <trkpt lat="49.26991" lon="0.11306">
        <ele>78</ele>
        <time>2017-05-14T08:39:51Z</time>
      </trkpt>
      <trkpt lat="49.2699" lon="0.11301">
        <ele>78.2</ele>
        <time>2017-05-14T08:39:52Z</time>
      </trkpt>
      <trkpt lat="49.26987" lon="0.11294">
        <ele>78.5</ele>
        <time>2017-05-14T08:39:54Z</time>
      </trkpt>
      <trkpt lat="49.26984" lon="0.11288">
        <ele>78.7</ele>
        <time>2017-05-14T08:39:56Z</time>
      </trkpt>
      <trkpt lat="49.26982" lon="0.11284">
        <ele>78.8</ele>
        <time>2017-05-14T08:39:57Z</time>
      </trkpt>
      <trkpt lat="49.2698" lon="0.11282">
        <ele>78.9</ele>
        <time>2017-05-14T08:39:58Z</time>
      </trkpt>
      <trkpt lat="49.26977" lon="0.11279">
        <ele>79</ele>
        <time>2017-05-14T08:39:59Z</time>
      </trkpt>
      <trkpt lat="49.26973" lon="0.11274">
        <ele>79.1</ele>
        <time>2017-05-14T08:40:01Z</time>
      </trkpt>
      <trkpt lat="49.2697" lon="0.11267">
        <ele>79.2</ele>
        <time>2017-05-14T08:40:03Z</time>
      </trkpt>
      <trkpt lat="49.26968" lon="0.11262">
        <ele>79.3</ele>
        <time>2017-05-14T08:40:04Z</time>
      </trkpt>
      <trkpt lat="49.26966" lon="0.11257">
        <ele>79.3</ele>
        <time>2017-05-14T08:40:05Z</time>
      </trkpt>
      <trkpt lat="49.26964" lon="0.1125">
        <ele>79.4</ele>
        <time>2017-05-14T08:40:06Z</time>
      </trkpt>
      <trkpt lat="49.26963" lon="0.11245">
        <ele>79.4</ele>
        <time>2017-05-14T08:40:07Z</time>
      </trkpt>
      <trkpt lat="49.2696" lon="0.11238">
        <ele>79.5</ele>
        <time>2017-05-14T08:40:09Z</time>
      </trkpt>
      <trkpt lat="49.26956" lon="0.11231">
        <ele>79.6</ele>
        <time>2017-05-14T08:40:11Z</time>
      </trkpt>
      <trkpt lat="49.26954" lon="0.11226">
        <ele>79.6</ele>
        <time>2017-05-14T08:40:12Z</time>
      </trkpt>
      <trkpt lat="49.26951" lon="0.11223">
        <ele>79.7</ele>
        <time>2017-05-14T08:40:14Z</time>
      </trkpt>
      <trkpt lat="49.26949" lon="0.11219">
        <ele>79.7</ele>
        <time>2017-05-14T08:40:15Z</time>
      </trkpt>
      <trkpt lat="49.26947" lon="0.11214">
        <ele>79.8</ele>
        <time>2017-05-14T08:40:16Z</time>
      </trkpt>
      <trkpt lat="49.26946" lon="0.11208">
        <ele>79.8</ele>
        <time>2017-05-14T08:40:17Z</time>
      </trkpt>
      <trkpt lat="49.26944" lon="0.11203">
        <ele>79.9</ele>
        <time>2017-05-14T08:40:19Z</time>
      </trkpt>
      <trkpt lat="49.26942" lon="0.11198">
        <ele>80.1</ele>
        <time>2017-05-14T08:40:21Z</time>
      </trkpt>
      <trkpt lat="49.2694" lon="0.11194">
        <ele>80.2</ele>
        <time>2017-05-14T08:40:23Z</time>
      </trkpt>
      <trkpt lat="49.26936" lon="0.11192">
        <ele>80.3</ele>
        <time>2017-05-14T08:40:25Z</time>
      </trkpt>
      <trkpt lat="49.26932" lon="0.11188">
        <ele>80.6</ele>
        <time>2017-05-14T08:40:26Z</time>
      </trkpt>
      <trkpt lat="49.26926" lon="0.11183">
        <ele>80.8</ele>
        <time>2017-05-14T08:40:27Z</time>
      </trkpt>
      <trkpt lat="49.2692" lon="0.11178">
        <ele>81.1</ele>
        <time>2017-05-14T08:40:28Z</time>
      </trkpt>
      <trkpt lat="49.26917" lon="0.11175">
        <ele>81.2</ele>
        <time>2017-05-14T08:40:30Z</time>
      </trkpt>
      <trkpt lat="49.26913" lon="0.11173">
        <ele>81.3</ele>
        <time>2017-05-14T08:40:31Z</time>
      </trkpt>
      <trkpt lat="49.26909" lon="0.11172">
        <ele>81.4</ele>
        <time>2017-05-14T08:40:32Z</time>
      </trkpt>
      <trkpt lat="49.26903" lon="0.11167">
        <ele>81.6</ele>
        <time>2017-05-14T08:40:34Z</time>
      </trkpt>
      <trkpt lat="49.269" lon="0.11162">
        <ele>81.6</ele>
        <time>2017-05-14T08:40:35Z</time>
      </trkpt>
      <trkpt lat="49.26897" lon="0.11159">
        <ele>81.7</ele>
        <time>2017-05-14T08:40:36Z</time>
      </trkpt>
      <trkpt lat="49.26894" lon="0.11156">
        <ele>81.7</ele>
        <time>2017-05-14T08:40:37Z</time>
      </trkpt>
      <trkpt lat="49.26892" lon="0.11153">
        <ele>81.8</ele>
        <time>2017-05-14T08:40:38Z</time>
      </trkpt>
      <trkpt lat="49.26889" lon="0.11151">
        <ele>81.8</ele>
        <time>2017-05-14T08:40:40Z</time>
      </trkpt>
      <trkpt lat="49.26887" lon="0.11148">
        <ele>81.9</ele>
        <time>2017-05-14T08:40:41Z</time>
      </trkpt>
      <trkpt lat="49.26883" lon="0.11143">
        <ele>82</ele>
        <time>2017-05-14T08:40:42Z</time>
      </trkpt>
      <trkpt lat="49.2688" lon="0.11139">
        <ele>82.1</ele>
        <time>2017-05-14T08:40:43Z</time>
      </trkpt>
      <trkpt lat="49.26873" lon="0.11138">
        <ele>82.4</ele>
        <time>2017-05-14T08:40:44Z</time>
      </trkpt>
      <trkpt lat="49.26867" lon="0.11137">
        <ele>82.9</ele>
        <time>2017-05-14T08:40:45Z</time>
      </trkpt>
      <trkpt lat="49.26864" lon="0.11132">
        <ele>83.5</ele>
        <time>2017-05-14T08:40:47Z</time>
      </trkpt>
      <trkpt lat="49.26863" lon="0.11128">
        <ele>83.8</ele>
        <time>2017-05-14T08:40:50Z</time>
      </trkpt>
      <trkpt lat="49.26863" lon="0.11124">
        <ele>84.1</ele>
        <time>2017-05-14T08:40:54Z</time>
      </trkpt>
      <trkpt lat="49.26862" lon="0.1112">
        <ele>84.5</ele>
        <time>2017-05-14T08:40:59Z</time>
      </trkpt>
      <trkpt lat="49.26862" lon="0.11116">
        <ele>84.8</ele>
        <time>2017-05-14T08:41:00Z</time>
      </trkpt>
      <trkpt lat="49.26863" lon="0.11112">
        <ele>85.3</ele>
        <time>2017-05-14T08:41:02Z</time>
      </trkpt>
      <trkpt lat="49.26866" lon="0.11105">
        <ele>86.2</ele>
        <time>2017-05-14T08:41:05Z</time>
      </trkpt>
      <trkpt lat="49.26867" lon="0.111">
        <ele>86.8</ele>
        <time>2017-05-14T08:41:06Z</time>
      </trkpt>
      <trkpt lat="49.26867" lon="0.11095">
        <ele>87.4</ele>
        <time>2017-05-14T08:41:15Z</time>
      </trkpt>
      <trkpt lat="49.26868" lon="0.1109">
        <ele>87.9</ele>
        <time>2017-05-14T08:41:22Z</time>
      </trkpt>
      <trkpt lat="49.2687" lon="0.11085">
        <ele>88.7</ele>
        <time>2017-05-14T08:41:24Z</time>
      </trkpt>
      <trkpt lat="49.26869" lon="0.1108">
        <ele>89.3</ele>
        <time>2017-05-14T08:41:25Z</time>
      </trkpt>
      <trkpt lat="49.26873" lon="0.11076">
        <ele>90.3</ele>
        <time>2017-05-14T08:41:32Z</time>
      </trkpt>
      <trkpt lat="49.26874" lon="0.11072">
        <ele>90.9</ele>
        <time>2017-05-14T08:41:38Z</time>
      </trkpt>
      <trkpt lat="49.26873" lon="0.11068">
        <ele>91.6</ele>
        <time>2017-05-14T08:41:45Z</time>
      </trkpt>
      <trkpt lat="49.26871" lon="0.11063">
        <ele>92.4</ele>
        <time>2017-05-14T08:41:46Z</time>
      </trkpt>
      <trkpt lat="49.26873" lon="0.11059">
        <ele>93.2</ele>
        <time>2017-05-14T08:41:48Z</time>
      </trkpt>
      <trkpt lat="49.26875" lon="0.11052">
        <ele>94.3</ele>
        <time>2017-05-14T08:41:50Z</time>
      </trkpt>
      <trkpt lat="49.26875" lon="0.11047">
        <ele>95.1</ele>
        <time>2017-05-14T08:41:52Z</time>
      </trkpt>
      <trkpt lat="49.26874" lon="0.11041">
        <ele>95.8</ele>
        <time>2017-05-14T08:41:54Z</time>
      </trkpt>
      <trkpt lat="49.26874" lon="0.11037">
        <ele>96.4</ele>
        <time>2017-05-14T08:41:55Z</time>
      </trkpt>
      <trkpt lat="49.26875" lon="0.11033">
        <ele>97</ele>
        <time>2017-05-14T08:41:57Z</time>
      </trkpt>
      <trkpt lat="49.26878" lon="0.11027">
        <ele>98</ele>
        <time>2017-05-14T08:41:59Z</time>
      </trkpt>
      <trkpt lat="49.26878" lon="0.11021">
        <ele>98.8</ele>
        <time>2017-05-14T08:42:01Z</time>
      </trkpt>
      <trkpt lat="49.26879" lon="0.11016">
        <ele>99.4</ele>
        <time>2017-05-14T08:42:04Z</time>
      </trkpt>
      <trkpt lat="49.2688" lon="0.1101">
        <ele>100.1</ele>
        <time>2017-05-14T08:42:06Z</time>
      </trkpt>
      <trkpt lat="49.26882" lon="0.11006">
        <ele>100.7</ele>
        <time>2017-05-14T08:42:07Z</time>
      </trkpt>
      <trkpt lat="49.26883" lon="0.11">
        <ele>101.4</ele>
        <time>2017-05-14T08:42:10Z</time>
      </trkpt>
      <trkpt lat="49.26885" lon="0.10996">
        <ele>102</ele>
        <time>2017-05-14T08:42:11Z</time>
      </trkpt>
      <trkpt lat="49.26886" lon="0.10989">
        <ele>102.7</ele>
        <time>2017-05-14T08:42:16Z</time>
      </trkpt>
      <trkpt lat="49.26886" lon="0.10984">
        <ele>103.3</ele>
        <time>2017-05-14T08:42:18Z</time>
      </trkpt>
      <trkpt lat="49.26886" lon="0.10979">
        <ele>103.7</ele>
        <time>2017-05-14T08:42:20Z</time>
      </trkpt>
      <trkpt lat="49.26889" lon="0.10975">
        <ele>104.3</ele>
        <time>2017-05-14T08:42:21Z</time>
      </trkpt>
      <trkpt lat="49.26893" lon="0.10972">
        <ele>104.8</ele>
        <time>2017-05-14T08:42:22Z</time>
      </trkpt>
      <trkpt lat="49.26895" lon="0.10963">
        <ele>105.7</ele>
        <time>2017-05-14T08:42:25Z</time>
      </trkpt>
      <trkpt lat="49.26897" lon="0.10959">
        <ele>106</ele>
        <time>2017-05-14T08:42:26Z</time>
      </trkpt>
      <trkpt lat="49.26899" lon="0.10955">
        <ele>106.5</ele>
        <time>2017-05-14T08:42:27Z</time>
      </trkpt>
      <trkpt lat="49.26897" lon="0.1095">
        <ele>106.9</ele>
        <time>2017-05-14T08:42:30Z</time>
      </trkpt>
      <trkpt lat="49.26897" lon="0.10943">
        <ele>107.4</ele>
        <time>2017-05-14T08:42:32Z</time>
      </trkpt>
      <trkpt lat="49.26896" lon="0.10938">
        <ele>107.8</ele>
        <time>2017-05-14T08:42:35Z</time>
      </trkpt>
      <trkpt lat="49.26897" lon="0.10931">
        <ele>108.4</ele>
        <time>2017-05-14T08:42:37Z</time>
      </trkpt>
      <trkpt lat="49.26897" lon="0.10925">
        <ele>108.7</ele>
        <time>2017-05-14T08:42:38Z</time>
      </trkpt>
      <trkpt lat="49.26899" lon="0.10919">
        <ele>109.2</ele>
        <time>2017-05-14T08:42:40Z</time>
      </trkpt>
      <trkpt lat="49.26902" lon="0.10915">
        <ele>109.6</ele>
        <time>2017-05-14T08:42:41Z</time>
      </trkpt>
      <trkpt lat="49.26906" lon="0.1091">
        <ele>110.2</ele>
        <time>2017-05-14T08:42:44Z</time>
      </trkpt>
      <trkpt lat="49.26911" lon="0.10904">
        <ele>110.9</ele>
        <time>2017-05-14T08:42:48Z</time>
      </trkpt>
      <trkpt lat="49.26911" lon="0.10897">
        <ele>111.3</ele>
        <time>2017-05-14T08:42:50Z</time>
      </trkpt>
      <trkpt lat="49.26912" lon="0.10891">
        <ele>111.8</ele>
        <time>2017-05-14T08:42:51Z</time>
      </trkpt>
      <trkpt lat="49.26912" lon="0.10886">
        <ele>112.1</ele>
        <time>2017-05-14T08:42:52Z</time>
      </trkpt>
      <trkpt lat="49.26912" lon="0.1088">
        <ele>112.6</ele>
        <time>2017-05-14T08:42:54Z</time>
      </trkpt>
      <trkpt lat="49.26912" lon="0.10872">
        <ele>113.1</ele>
        <time>2017-05-14T08:42:57Z</time>
      </trkpt>
      <trkpt lat="49.26911" lon="0.10868">
        <ele>113.5</ele>
        <time>2017-05-14T08:42:58Z</time>
      </trkpt>
      <trkpt lat="49.2691" lon="0.10857">
        <ele>114.2</ele>
        <time>2017-05-14T08:43:00Z</time>
      </trkpt>
      <trkpt lat="49.2691" lon="0.10851">
        <ele>114.7</ele>
        <time>2017-05-14T08:43:03Z</time>
      </trkpt>
      <trkpt lat="49.26909" lon="0.10846">
        <ele>115.1</ele>
        <time>2017-05-14T08:43:06Z</time>
      </trkpt>
      <trkpt lat="49.26908" lon="0.1084">
        <ele>115.5</ele>
        <time>2017-05-14T08:43:11Z</time>
      </trkpt>
      <trkpt lat="49.26907" lon="0.10834">
        <ele>115.9</ele>
        <time>2017-05-14T08:43:14Z</time>
      </trkpt>
      <trkpt lat="49.26907" lon="0.10829">
        <ele>116.3</ele>
        <time>2017-05-14T08:43:15Z</time>
      </trkpt>
      <trkpt lat="49.26906" lon="0.10822">
        <ele>116.8</ele>
        <time>2017-05-14T08:43:16Z</time>
      </trkpt>
      <trkpt lat="49.26905" lon="0.10814">
        <ele>117.4</ele>
        <time>2017-05-14T08:43:17Z</time>
      </trkpt>
      <trkpt lat="49.26905" lon="0.10807">
        <ele>117.9</ele>
        <time>2017-05-14T08:43:18Z</time>
      </trkpt>
      <trkpt lat="49.26906" lon="0.10797">
        <ele>118.6</ele>
        <time>2017-05-14T08:43:20Z</time>
      </trkpt>
      <trkpt lat="49.26907" lon="0.1079">
        <ele>119.1</ele>
        <time>2017-05-14T08:43:21Z</time>
      </trkpt>
      <trkpt lat="49.26909" lon="0.10783">
        <ele>119.5</ele>
        <time>2017-05-14T08:43:22Z</time>
      </trkpt>
      <trkpt lat="49.2691" lon="0.10778">
        <ele>119.9</ele>
        <time>2017-05-14T08:43:24Z</time>
      </trkpt>
      <trkpt lat="49.26911" lon="0.10774">
        <ele>120.2</ele>
        <time>2017-05-14T08:43:26Z</time>
      </trkpt>
      <trkpt lat="49.26912" lon="0.10767">
        <ele>120.7</ele>
        <time>2017-05-14T08:43:28Z</time>
      </trkpt>
      <trkpt lat="49.26912" lon="0.1076">
        <ele>121.1</ele>
        <time>2017-05-14T08:43:30Z</time>
      </trkpt>
      <trkpt lat="49.26911" lon="0.10753">
        <ele>121.5</ele>
        <time>2017-05-14T08:43:32Z</time>
      </trkpt>
      <trkpt lat="49.26912" lon="0.10747">
        <ele>121.9</ele>
        <time>2017-05-14T08:43:34Z</time>
      </trkpt>
      <trkpt lat="49.26912" lon="0.10741">
        <ele>122.3</ele>
        <time>2017-05-14T08:43:36Z</time>
      </trkpt>
      <trkpt lat="49.26911" lon="0.10734">
        <ele>122.7</ele>
        <time>2017-05-14T08:43:38Z</time>
      </trkpt>
      <trkpt lat="49.26911" lon="0.10726">
        <ele>123.1</ele>
        <time>2017-05-14T08:43:40Z</time>
      </trkpt>
      <trkpt lat="49.2691" lon="0.10719">
        <ele>123.4</ele>
        <time>2017-05-14T08:43:42Z</time>
      </trkpt>
      <trkpt lat="49.26909" lon="0.10713">
        <ele>123.8</ele>
        <time>2017-05-14T08:43:44Z</time>
      </trkpt>
      <trkpt lat="49.26907" lon="0.10707">
        <ele>124.1</ele>
        <time>2017-05-14T08:43:46Z</time>
      </trkpt>
      <trkpt lat="49.26907" lon="0.107">
        <ele>124.4</ele>
        <time>2017-05-14T08:43:48Z</time>
      </trkpt>
      <trkpt lat="49.26906" lon="0.10692">
        <ele>124.8</ele>
        <time>2017-05-14T08:43:50Z</time>
      </trkpt>
      <trkpt lat="49.26906" lon="0.10686">
        <ele>125.1</ele>
        <time>2017-05-14T08:43:52Z</time>
      </trkpt>
      <trkpt lat="49.26907" lon="0.10681">
        <ele>125.3</ele>
        <time>2017-05-14T08:43:54Z</time>
      </trkpt>
      <trkpt lat="49.2691" lon="0.10676">
        <ele>125.5</ele>
        <time>2017-05-14T08:43:56Z</time>
      </trkpt>
      <trkpt lat="49.26912" lon="0.10669">
        <ele>125.8</ele>
        <time>2017-05-14T08:44:25Z</time>
      </trkpt>
      <trkpt lat="49.2691" lon="0.10666">
        <ele>126</ele>
        <time>2017-05-14T08:44:27Z</time>
      </trkpt>
      <trkpt lat="49.26908" lon="0.10663">
        <ele>126</ele>
        <time>2017-05-14T08:44:29Z</time>
      </trkpt>
      <trkpt lat="49.26907" lon="0.10658">
        <ele>125.9</ele>
        <time>2017-05-14T08:44:31Z</time>
      </trkpt>
      <trkpt lat="49.26907" lon="0.10654">
        <ele>125.9</ele>
        <time>2017-05-14T08:44:32Z</time>
      </trkpt>
      <trkpt lat="49.26907" lon="0.10647">
        <ele>125.9</ele>
        <time>2017-05-14T08:44:34Z</time>
      </trkpt>
      <trkpt lat="49.2691" lon="0.1064">
        <ele>125.8</ele>
        <time>2017-05-14T08:44:36Z</time>
      </trkpt>
      <trkpt lat="49.26911" lon="0.10635">
        <ele>125.8</ele>
        <time>2017-05-14T08:44:38Z</time>
      </trkpt>
      <trkpt lat="49.26913" lon="0.10631">
        <ele>125.8</ele>
        <time>2017-05-14T08:44:40Z</time>
      </trkpt>
      <trkpt lat="49.26914" lon="0.10624">
        <ele>125.7</ele>
        <time>2017-05-14T08:44:42Z</time>
      </trkpt>
      <trkpt lat="49.26917" lon="0.10618">
        <ele>125.8</ele>
        <time>2017-05-14T08:44:44Z</time>
      </trkpt>
      <trkpt lat="49.26918" lon="0.10614">
        <ele>125.8</ele>
        <time>2017-05-14T08:44:46Z</time>
      </trkpt>
      <trkpt lat="49.26919" lon="0.10609">
        <ele>125.8</ele>
        <time>2017-05-14T08:44:48Z</time>
      </trkpt>
      <trkpt lat="49.26922" lon="0.10602">
        <ele>125.9</ele>
        <time>2017-05-14T08:44:50Z</time>
      </trkpt>
      <trkpt lat="49.26924" lon="0.10596">
        <ele>126.1</ele>
        <time>2017-05-14T08:44:52Z</time>
      </trkpt>
      <trkpt lat="49.26926" lon="0.1059">
        <ele>126.3</ele>
        <time>2017-05-14T08:44:54Z</time>
      </trkpt>
      <trkpt lat="49.26928" lon="0.10585">
        <ele>126.5</ele>
        <time>2017-05-14T08:44:56Z</time>
      </trkpt>
      <trkpt lat="49.2693" lon="0.10578">
        <ele>126.7</ele>
        <time>2017-05-14T08:44:58Z</time>
      </trkpt>
      <trkpt lat="49.26932" lon="0.10572">
        <ele>126.9</ele>
        <time>2017-05-14T08:45:00Z</time>
      </trkpt>
      <trkpt lat="49.26934" lon="0.10565">
        <ele>127.1</ele>
        <time>2017-05-14T08:45:02Z</time>
      </trkpt>
      <trkpt lat="49.26935" lon="0.1056">
        <ele>127.3</ele>
        <time>2017-05-14T08:45:04Z</time>
      </trkpt>
      <trkpt lat="49.26938" lon="0.10553">
        <ele>127.5</ele>
        <time>2017-05-14T08:45:06Z</time>
      </trkpt>
      <trkpt lat="49.2694" lon="0.10547">
        <ele>127.6</ele>
        <time>2017-05-14T08:45:08Z</time>
      </trkpt>
      <trkpt lat="49.26942" lon="0.10543">
        <ele>127.7</ele>
        <time>2017-05-14T08:45:09Z</time>
      </trkpt>
      <trkpt lat="49.26944" lon="0.10536">
        <ele>127.7</ele>
        <time>2017-05-14T08:45:10Z</time>
      </trkpt>
      <trkpt lat="49.26945" lon="0.10532">
        <ele>127.7</ele>
        <time>2017-05-14T08:45:12Z</time>
      </trkpt>
      <trkpt lat="49.26947" lon="0.10526">
        <ele>127.8</ele>
        <time>2017-05-14T08:45:14Z</time>
      </trkpt>
      <trkpt lat="49.26948" lon="0.1052">
        <ele>127.9</ele>
        <time>2017-05-14T08:45:15Z</time>
      </trkpt>
      <trkpt lat="49.2695" lon="0.10512">
        <ele>128.1</ele>
        <time>2017-05-14T08:45:17Z</time>
      </trkpt>
      <trkpt lat="49.26951" lon="0.10508">
        <ele>128.3</ele>
        <time>2017-05-14T08:45:18Z</time>
      </trkpt>
      <trkpt lat="49.26953" lon="0.10499">
        <ele>128.5</ele>
        <time>2017-05-14T08:45:19Z</time>
      </trkpt>
      <trkpt lat="49.26954" lon="0.10492">
        <ele>128.6</ele>
        <time>2017-05-14T08:45:20Z</time>
      </trkpt>
      <trkpt lat="49.26955" lon="0.10488">
        <ele>128.7</ele>
        <time>2017-05-14T08:45:21Z</time>
      </trkpt>
      <trkpt lat="49.26954" lon="0.10483">
        <ele>128.9</ele>
        <time>2017-05-14T08:45:23Z</time>
      </trkpt>
      <trkpt lat="49.26955" lon="0.10478">
        <ele>129</ele>
        <time>2017-05-14T08:45:24Z</time>
      </trkpt>
      <trkpt lat="49.26955" lon="0.10473">
        <ele>129.1</ele>
        <time>2017-05-14T08:45:25Z</time>
      </trkpt>
      <trkpt lat="49.26955" lon="0.10467">
        <ele>129.1</ele>
        <time>2017-05-14T08:45:26Z</time>
      </trkpt>
      <trkpt lat="49.26956" lon="0.10459">
        <ele>129.2</ele>
        <time>2017-05-14T08:45:27Z</time>
      </trkpt>
      <trkpt lat="49.26957" lon="0.10455">
        <ele>129.2</ele>
        <time>2017-05-14T08:45:28Z</time>
      </trkpt>
      <trkpt lat="49.26958" lon="0.10451">
        <ele>129.1</ele>
        <time>2017-05-14T08:45:29Z</time>
      </trkpt>
      <trkpt lat="49.26958" lon="0.10446">
        <ele>129.1</ele>
        <time>2017-05-14T08:45:30Z</time>
      </trkpt>
      <trkpt lat="49.26959" lon="0.10436">
        <ele>129.1</ele>
        <time>2017-05-14T08:45:31Z</time>
      </trkpt>
      <trkpt lat="49.2696" lon="0.10428">
        <ele>129.1</ele>
        <time>2017-05-14T08:45:32Z</time>
      </trkpt>
      <trkpt lat="49.26962" lon="0.10415">
        <ele>129</ele>
        <time>2017-05-14T08:45:33Z</time>
      </trkpt>
      <trkpt lat="49.26963" lon="0.10408">
        <ele>129</ele>
        <time>2017-05-14T08:45:34Z</time>
      </trkpt>
      <trkpt lat="49.26964" lon="0.10401">
        <ele>128.9</ele>
        <time>2017-05-14T08:45:35Z</time>
      </trkpt>
      <trkpt lat="49.26965" lon="0.10394">
        <ele>128.9</ele>
        <time>2017-05-14T08:45:36Z</time>
      </trkpt>
      <trkpt lat="49.26966" lon="0.10388">
        <ele>128.9</ele>
        <time>2017-05-14T08:45:37Z</time>
      </trkpt>
      <trkpt lat="49.26967" lon="0.10381">
        <ele>128.8</ele>
        <time>2017-05-14T08:45:38Z</time>
      </trkpt>
      <trkpt lat="49.26969" lon="0.10374">
        <ele>128.8</ele>
        <time>2017-05-14T08:45:39Z</time>
      </trkpt>
      <trkpt lat="49.2697" lon="0.10367">
        <ele>128.7</ele>
        <time>2017-05-14T08:45:40Z</time>
      </trkpt>
      <trkpt lat="49.26971" lon="0.10361">
        <ele>128.7</ele>
        <time>2017-05-14T08:45:41Z</time>
      </trkpt>
      <trkpt lat="49.26972" lon="0.10356">
        <ele>128.7</ele>
        <time>2017-05-14T08:45:42Z</time>
      </trkpt>
      <trkpt lat="49.26973" lon="0.1035">
        <ele>128.6</ele>
        <time>2017-05-14T08:45:43Z</time>
      </trkpt>
      <trkpt lat="49.26975" lon="0.10343">
        <ele>128.6</ele>
        <time>2017-05-14T08:45:44Z</time>
      </trkpt>
      <trkpt lat="49.26977" lon="0.10337">
        <ele>128.5</ele>
        <time>2017-05-14T08:45:45Z</time>
      </trkpt>
      <trkpt lat="49.26978" lon="0.10332">
        <ele>128.5</ele>
        <time>2017-05-14T08:45:46Z</time>
      </trkpt>
      <trkpt lat="49.2698" lon="0.10327">
        <ele>128.5</ele>
        <time>2017-05-14T08:45:47Z</time>
      </trkpt>
      <trkpt lat="49.26982" lon="0.10321">
        <ele>128.5</ele>
        <time>2017-05-14T08:45:48Z</time>
      </trkpt>
      <trkpt lat="49.26984" lon="0.10315">
        <ele>128.4</ele>
        <time>2017-05-14T08:45:49Z</time>
      </trkpt>
      <trkpt lat="49.26986" lon="0.10309">
        <ele>128.4</ele>
        <time>2017-05-14T08:45:50Z</time>
      </trkpt>
      <trkpt lat="49.26989" lon="0.103">
        <ele>128.3</ele>
        <time>2017-05-14T08:45:51Z</time>
      </trkpt>
      <trkpt lat="49.26991" lon="0.10293">
        <ele>128.3</ele>
        <time>2017-05-14T08:45:52Z</time>
      </trkpt>
      <trkpt lat="49.26993" lon="0.10287">
        <ele>128.3</ele>
        <time>2017-05-14T08:45:53Z</time>
      </trkpt>
      <trkpt lat="49.26995" lon="0.10281">
        <ele>128.2</ele>
        <time>2017-05-14T08:45:54Z</time>
      </trkpt>
      <trkpt lat="49.26996" lon="0.10276">
        <ele>128.2</ele>
        <time>2017-05-14T08:45:55Z</time>
      </trkpt>
      <trkpt lat="49.26997" lon="0.10271">
        <ele>128.2</ele>
        <time>2017-05-14T08:45:56Z</time>
      </trkpt>
      <trkpt lat="49.26999" lon="0.10265">
        <ele>128.1</ele>
        <time>2017-05-14T08:45:57Z</time>
      </trkpt>
      <trkpt lat="49.27001" lon="0.10258">
        <ele>128.1</ele>
        <time>2017-05-14T08:45:58Z</time>
      </trkpt>
      <trkpt lat="49.27004" lon="0.10251">
        <ele>128</ele>
        <time>2017-05-14T08:45:59Z</time>
      </trkpt>
      <trkpt lat="49.27005" lon="0.10244">
        <ele>128</ele>
        <time>2017-05-14T08:46:00Z</time>
      </trkpt>
      <trkpt lat="49.27007" lon="0.10237">
        <ele>128</ele>
        <time>2017-05-14T08:46:01Z</time>
      </trkpt>
      <trkpt lat="49.27008" lon="0.1023">
        <ele>127.9</ele>
        <time>2017-05-14T08:46:02Z</time>
      </trkpt>
      <trkpt lat="49.27009" lon="0.10225">
        <ele>127.9</ele>
        <time>2017-05-14T08:46:03Z</time>
      </trkpt>
      <trkpt lat="49.2701" lon="0.10219">
        <ele>127.8</ele>
        <time>2017-05-14T08:46:04Z</time>
      </trkpt>
      <trkpt lat="49.27011" lon="0.10211">
        <ele>127.8</ele>
        <time>2017-05-14T08:46:05Z</time>
      </trkpt>
      <trkpt lat="49.27012" lon="0.10203">
        <ele>127.8</ele>
        <time>2017-05-14T08:46:06Z</time>
      </trkpt>
      <trkpt lat="49.27013" lon="0.10193">
        <ele>127.7</ele>
        <time>2017-05-14T08:46:07Z</time>
      </trkpt>
      <trkpt lat="49.27015" lon="0.10185">
        <ele>127.7</ele>
        <time>2017-05-14T08:46:08Z</time>
      </trkpt>
      <trkpt lat="49.27016" lon="0.10178">
        <ele>127.7</ele>
        <time>2017-05-14T08:46:09Z</time>
      </trkpt>
      <trkpt lat="49.27018" lon="0.10169">
        <ele>127.7</ele>
        <time>2017-05-14T08:46:10Z</time>
      </trkpt>
      <trkpt lat="49.2702" lon="0.10163">
        <ele>127.7</ele>
        <time>2017-05-14T08:46:11Z</time>
      </trkpt>
      <trkpt lat="49.27023" lon="0.10155">
        <ele>127.7</ele>
        <time>2017-05-14T08:46:12Z</time>
      </trkpt>
      <trkpt lat="49.27026" lon="0.10148">
        <ele>127.7</ele>
        <time>2017-05-14T08:46:13Z</time>
      </trkpt>
      <trkpt lat="49.27031" lon="0.1014">
        <ele>127.7</ele>
        <time>2017-05-14T08:46:14Z</time>
      </trkpt>
      <trkpt lat="49.27036" lon="0.10132">
        <ele>127.8</ele>
        <time>2017-05-14T08:46:15Z</time>
      </trkpt>
      <trkpt lat="49.27043" lon="0.10126">
        <ele>128</ele>
        <time>2017-05-14T08:46:16Z</time>
      </trkpt>
      <trkpt lat="49.27046" lon="0.10123">
        <ele>128</ele>
        <time>2017-05-14T08:46:17Z</time>
      </trkpt>
      <trkpt lat="49.2705" lon="0.1012">
        <ele>128</ele>
        <time>2017-05-14T08:46:18Z</time>
      </trkpt>
      <trkpt lat="49.27054" lon="0.10117">
        <ele>128</ele>
        <time>2017-05-14T08:46:19Z</time>
      </trkpt>
      <trkpt lat="49.27058" lon="0.10112">
        <ele>128.1</ele>
        <time>2017-05-14T08:46:20Z</time>
      </trkpt>
      <trkpt lat="49.27062" lon="0.10108">
        <ele>128.1</ele>
        <time>2017-05-14T08:46:21Z</time>
      </trkpt>
      <trkpt lat="49.27066" lon="0.10105">
        <ele>128.1</ele>
        <time>2017-05-14T08:46:22Z</time>
      </trkpt>
      <trkpt lat="49.27069" lon="0.10102">
        <ele>128.1</ele>
        <time>2017-05-14T08:46:23Z</time>
      </trkpt>
      <trkpt lat="49.27073" lon="0.10098">
        <ele>128.1</ele>
        <time>2017-05-14T08:46:24Z</time>
      </trkpt>
      <trkpt lat="49.27078" lon="0.10094">
        <ele>128.1</ele>
        <time>2017-05-14T08:46:25Z</time>
      </trkpt>
      <trkpt lat="49.27083" lon="0.10089">
        <ele>128.2</ele>
        <time>2017-05-14T08:46:26Z</time>
      </trkpt>
      <trkpt lat="49.27088" lon="0.10085">
        <ele>128.2</ele>
        <time>2017-05-14T08:46:27Z</time>
      </trkpt>
      <trkpt lat="49.27092" lon="0.1008">
        <ele>128.2</ele>
        <time>2017-05-14T08:46:28Z</time>
      </trkpt>
      <trkpt lat="49.27097" lon="0.10075">
        <ele>128.3</ele>
        <time>2017-05-14T08:46:29Z</time>
      </trkpt>
      <trkpt lat="49.27101" lon="0.1007">
        <ele>128.3</ele>
        <time>2017-05-14T08:46:30Z</time>
      </trkpt>
      <trkpt lat="49.27106" lon="0.10065">
        <ele>128.3</ele>
        <time>2017-05-14T08:46:31Z</time>
      </trkpt>
      <trkpt lat="49.2711" lon="0.1006">
        <ele>128.3</ele>
        <time>2017-05-14T08:46:32Z</time>
      </trkpt>
      <trkpt lat="49.27115" lon="0.10055">
        <ele>128.3</ele>
        <time>2017-05-14T08:46:33Z</time>
      </trkpt>
      <trkpt lat="49.2712" lon="0.10051">
        <ele>128.3</ele>
        <time>2017-05-14T08:46:34Z</time>
      </trkpt>
      <trkpt lat="49.27123" lon="0.10048">
        <ele>128.3</ele>
        <time>2017-05-14T08:46:35Z</time>
      </trkpt>
      <trkpt lat="49.27126" lon="0.10044">
        <ele>128.3</ele>
        <time>2017-05-14T08:46:36Z</time>
      </trkpt>
      <trkpt lat="49.2713" lon="0.10041">
        <ele>128.3</ele>
        <time>2017-05-14T08:46:37Z</time>
      </trkpt>
      <trkpt lat="49.27133" lon="0.10039">
        <ele>128.3</ele>
        <time>2017-05-14T08:46:38Z</time>
      </trkpt>
      <trkpt lat="49.27136" lon="0.10037">
        <ele>128.3</ele>
        <time>2017-05-14T08:46:39Z</time>
      </trkpt>
      <trkpt lat="49.27141" lon="0.10034">
        <ele>128.3</ele>
        <time>2017-05-14T08:46:40Z</time>
      </trkpt>
      <trkpt lat="49.27147" lon="0.10031">
        <ele>128.2</ele>
        <time>2017-05-14T08:46:41Z</time>
      </trkpt>
      <trkpt lat="49.27152" lon="0.1003">
        <ele>128.1</ele>
        <time>2017-05-14T08:46:42Z</time>
      </trkpt>
      <trkpt lat="49.27159" lon="0.10027">
        <ele>128.1</ele>
        <time>2017-05-14T08:46:43Z</time>
      </trkpt>
      <trkpt lat="49.27166" lon="0.10025">
        <ele>128</ele>
        <time>2017-05-14T08:46:44Z</time>
      </trkpt>
      <trkpt lat="49.27174" lon="0.10023">
        <ele>127.9</ele>
        <time>2017-05-14T08:46:45Z</time>
      </trkpt>
      <trkpt lat="49.2718" lon="0.10022">
        <ele>127.7</ele>
        <time>2017-05-14T08:46:46Z</time>
      </trkpt>
      <trkpt lat="49.27185" lon="0.10021">
        <ele>127.5</ele>
        <time>2017-05-14T08:46:47Z</time>
      </trkpt>
      <trkpt lat="49.27191" lon="0.10021">
        <ele>127.3</ele>
        <time>2017-05-14T08:46:48Z</time>
      </trkpt>
      <trkpt lat="49.27195" lon="0.10019">
        <ele>127.2</ele>
        <time>2017-05-14T08:46:49Z</time>
      </trkpt>
      <trkpt lat="49.272" lon="0.10018">
        <ele>127.1</ele>
        <time>2017-05-14T08:46:50Z</time>
      </trkpt>
      <trkpt lat="49.27202" lon="0.10016">
        <ele>127.1</ele>
        <time>2017-05-14T08:46:51Z</time>
      </trkpt>
      <trkpt lat="49.27206" lon="0.10012">
        <ele>127.1</ele>
        <time>2017-05-14T08:46:52Z</time>
      </trkpt>
      <trkpt lat="49.27211" lon="0.10009">
        <ele>127</ele>
        <time>2017-05-14T08:46:53Z</time>
      </trkpt>
      <trkpt lat="49.27215" lon="0.10004">
        <ele>127</ele>
        <time>2017-05-14T08:46:54Z</time>
      </trkpt>
      <trkpt lat="49.2722" lon="0.09998">
        <ele>127</ele>
        <time>2017-05-14T08:46:55Z</time>
      </trkpt>
      <trkpt lat="49.27226" lon="0.09988">
        <ele>127</ele>
        <time>2017-05-14T08:46:56Z</time>
      </trkpt>
      <trkpt lat="49.27231" lon="0.0998">
        <ele>126.8</ele>
        <time>2017-05-14T08:46:57Z</time>
      </trkpt>
      <trkpt lat="49.27235" lon="0.09971">
        <ele>126.4</ele>
        <time>2017-05-14T08:46:58Z</time>
      </trkpt>
      <trkpt lat="49.27237" lon="0.09962">
        <ele>126</ele>
        <time>2017-05-14T08:46:59Z</time>
      </trkpt>
      <trkpt lat="49.27238" lon="0.09954">
        <ele>125.5</ele>
        <time>2017-05-14T08:47:00Z</time>
      </trkpt>
      <trkpt lat="49.27239" lon="0.09945">
        <ele>125.1</ele>
        <time>2017-05-14T08:47:01Z</time>
      </trkpt>
      <trkpt lat="49.27239" lon="0.09938">
        <ele>124.8</ele>
        <time>2017-05-14T08:47:02Z</time>
      </trkpt>
      <trkpt lat="49.27238" lon="0.09932">
        <ele>124.7</ele>
        <time>2017-05-14T08:47:03Z</time>
      </trkpt>
      <trkpt lat="49.27238" lon="0.09924">
        <ele>124.5</ele>
        <time>2017-05-14T08:47:04Z</time>
      </trkpt>
      <trkpt lat="49.27237" lon="0.09917">
        <ele>124.4</ele>
        <time>2017-05-14T08:47:05Z</time>
      </trkpt>
      <trkpt lat="49.27236" lon="0.09911">
        <ele>124.4</ele>
        <time>2017-05-14T08:47:06Z</time>
      </trkpt>
      <trkpt lat="49.27239" lon="0.09903">
        <ele>124.3</ele>
        <time>2017-05-14T08:47:07Z</time>
      </trkpt>
      <trkpt lat="49.27245" lon="0.09897">
        <ele>124.1</ele>
        <time>2017-05-14T08:47:08Z</time>
      </trkpt>
      <trkpt lat="49.27248" lon="0.09895">
        <ele>124</ele>
        <time>2017-05-14T08:47:09Z</time>
      </trkpt>
      <trkpt lat="49.27253" lon="0.09897">
        <ele>124.1</ele>
        <time>2017-05-14T08:47:11Z</time>
      </trkpt>
      <trkpt lat="49.27257" lon="0.09898">
        <ele>124.1</ele>
        <time>2017-05-14T08:47:12Z</time>
      </trkpt>
      <trkpt lat="49.27262" lon="0.09899">
        <ele>124.2</ele>
        <time>2017-05-14T08:47:13Z</time>
      </trkpt>
      <trkpt lat="49.27269" lon="0.09901">
        <ele>124.2</ele>
        <time>2017-05-14T08:47:14Z</time>
      </trkpt>
      <trkpt lat="49.27274" lon="0.09902">
        <ele>124.3</ele>
        <time>2017-05-14T08:47:15Z</time>
      </trkpt>
      <trkpt lat="49.27282" lon="0.09904">
        <ele>124.3</ele>
        <time>2017-05-14T08:47:16Z</time>
      </trkpt>
      <trkpt lat="49.27288" lon="0.09906">
        <ele>124.3</ele>
        <time>2017-05-14T08:47:17Z</time>
      </trkpt>
      <trkpt lat="49.27293" lon="0.09907">
        <ele>124.3</ele>
        <time>2017-05-14T08:47:18Z</time>
      </trkpt>
      <trkpt lat="49.27299" lon="0.09908">
        <ele>124.4</ele>
        <time>2017-05-14T08:47:19Z</time>
      </trkpt>
      <trkpt lat="49.27306" lon="0.09908">
        <ele>124.4</ele>
        <time>2017-05-14T08:47:20Z</time>
      </trkpt>
      <trkpt lat="49.27312" lon="0.09908">
        <ele>124.4</ele>
        <time>2017-05-14T08:47:21Z</time>
      </trkpt>
      <trkpt lat="49.27319" lon="0.09908">
        <ele>124.4</ele>
        <time>2017-05-14T08:47:22Z</time>
      </trkpt>
      <trkpt lat="49.27324" lon="0.09908">
        <ele>124.4</ele>
        <time>2017-05-14T08:47:23Z</time>
      </trkpt>
      <trkpt lat="49.2733" lon="0.09906">
        <ele>124.4</ele>
        <time>2017-05-14T08:47:24Z</time>
      </trkpt>
      <trkpt lat="49.27335" lon="0.09905">
        <ele>124.4</ele>
        <time>2017-05-14T08:47:25Z</time>
      </trkpt>
      <trkpt lat="49.27341" lon="0.09903">
        <ele>124.5</ele>
        <time>2017-05-14T08:47:26Z</time>
      </trkpt>
      <trkpt lat="49.27348" lon="0.09899">
        <ele>124.5</ele>
        <time>2017-05-14T08:47:27Z</time>
      </trkpt>
      <trkpt lat="49.27355" lon="0.09896">
        <ele>124.5</ele>
        <time>2017-05-14T08:47:28Z</time>
      </trkpt>
      <trkpt lat="49.27359" lon="0.09893">
        <ele>124.5</ele>
        <time>2017-05-14T08:47:29Z</time>
      </trkpt>
      <trkpt lat="49.27362" lon="0.0989">
        <ele>124.6</ele>
        <time>2017-05-14T08:47:30Z</time>
      </trkpt>
      <trkpt lat="49.27368" lon="0.09886">
        <ele>124.6</ele>
        <time>2017-05-14T08:47:31Z</time>
      </trkpt>
      <trkpt lat="49.27372" lon="0.09884">
        <ele>124.5</ele>
        <time>2017-05-14T08:47:32Z</time>
      </trkpt>
      <trkpt lat="49.27377" lon="0.09882">
        <ele>124.5</ele>
        <time>2017-05-14T08:47:33Z</time>
      </trkpt>
      <trkpt lat="49.27382" lon="0.0988">
        <ele>124.5</ele>
        <time>2017-05-14T08:47:34Z</time>
      </trkpt>
      <trkpt lat="49.2739" lon="0.09879">
        <ele>124.4</ele>
        <time>2017-05-14T08:47:35Z</time>
      </trkpt>
      <trkpt lat="49.27396" lon="0.09878">
        <ele>124.2</ele>
        <time>2017-05-14T08:47:36Z</time>
      </trkpt>
      <trkpt lat="49.27402" lon="0.09877">
        <ele>123.9</ele>
        <time>2017-05-14T08:47:37Z</time>
      </trkpt>
      <trkpt lat="49.27406" lon="0.09875">
        <ele>123.7</ele>
        <time>2017-05-14T08:47:38Z</time>
      </trkpt>
      <trkpt lat="49.2741" lon="0.09872">
        <ele>123.6</ele>
        <time>2017-05-14T08:47:39Z</time>
      </trkpt>
      <trkpt lat="49.27415" lon="0.0987">
        <ele>123.5</ele>
        <time>2017-05-14T08:47:40Z</time>
      </trkpt>
      <trkpt lat="49.27421" lon="0.09865">
        <ele>123.4</ele>
        <time>2017-05-14T08:47:41Z</time>
      </trkpt>
      <trkpt lat="49.27429" lon="0.09863">
        <ele>123.4</ele>
        <time>2017-05-14T08:47:42Z</time>
      </trkpt>
      <trkpt lat="49.27435" lon="0.09862">
        <ele>123.3</ele>
        <time>2017-05-14T08:47:43Z</time>
      </trkpt>
      <trkpt lat="49.27443" lon="0.0986">
        <ele>123.3</ele>
        <time>2017-05-14T08:47:44Z</time>
      </trkpt>
      <trkpt lat="49.27446" lon="0.09859">
        <ele>123.3</ele>
        <time>2017-05-14T08:47:45Z</time>
      </trkpt>
      <trkpt lat="49.2745" lon="0.09857">
        <ele>123.2</ele>
        <time>2017-05-14T08:47:46Z</time>
      </trkpt>
      <trkpt lat="49.27454" lon="0.09855">
        <ele>123.2</ele>
        <time>2017-05-14T08:47:47Z</time>
      </trkpt>
      <trkpt lat="49.27461" lon="0.09852">
        <ele>123.2</ele>
        <time>2017-05-14T08:47:48Z</time>
      </trkpt>
      <trkpt lat="49.27468" lon="0.0985">
        <ele>123</ele>
        <time>2017-05-14T08:47:49Z</time>
      </trkpt>
      <trkpt lat="49.27476" lon="0.09846">
        <ele>122.7</ele>
        <time>2017-05-14T08:47:50Z</time>
      </trkpt>
      <trkpt lat="49.27483" lon="0.09851">
        <ele>122.3</ele>
        <time>2017-05-14T08:47:51Z</time>
      </trkpt>
      <trkpt lat="49.27486" lon="0.09854">
        <ele>122.2</ele>
        <time>2017-05-14T08:47:52Z</time>
      </trkpt>
      <trkpt lat="49.27489" lon="0.09858">
        <ele>122.1</ele>
        <time>2017-05-14T08:47:53Z</time>
      </trkpt>
      <trkpt lat="49.27491" lon="0.09861">
        <ele>122.1</ele>
        <time>2017-05-14T08:47:54Z</time>
      </trkpt>
      <trkpt lat="49.27497" lon="0.09866">
        <ele>121.5</ele>
        <time>2017-05-14T08:47:55Z</time>
      </trkpt>
      <trkpt lat="49.27501" lon="0.09871">
        <ele>120.6</ele>
        <time>2017-05-14T08:47:56Z</time>
      </trkpt>
      <trkpt lat="49.27507" lon="0.09875">
        <ele>120</ele>
        <time>2017-05-14T08:47:57Z</time>
      </trkpt>
      <trkpt lat="49.27512" lon="0.09878">
        <ele>119.1</ele>
        <time>2017-05-14T08:47:58Z</time>
      </trkpt>
      <trkpt lat="49.27515" lon="0.09883">
        <ele>118.1</ele>
        <time>2017-05-14T08:47:59Z</time>
      </trkpt>
      <trkpt lat="49.27519" lon="0.0989">
        <ele>117.7</ele>
        <time>2017-05-14T08:48:00Z</time>
      </trkpt>
      <trkpt lat="49.27523" lon="0.09895">
        <ele>117</ele>
        <time>2017-05-14T08:48:01Z</time>
      </trkpt>
      <trkpt lat="49.27528" lon="0.09905">
        <ele>115.9</ele>
        <time>2017-05-14T08:48:02Z</time>
      </trkpt>
      <trkpt lat="49.27533" lon="0.09912">
        <ele>114.3</ele>
        <time>2017-05-14T08:48:03Z</time>
      </trkpt>
      <trkpt lat="49.27536" lon="0.09919">
        <ele>111.9</ele>
        <time>2017-05-14T08:48:04Z</time>
      </trkpt>
      <trkpt lat="49.2754" lon="0.09926">
        <ele>110.5</ele>
        <time>2017-05-14T08:48:05Z</time>
      </trkpt>
      <trkpt lat="49.27543" lon="0.09931">
        <ele>109.9</ele>
        <time>2017-05-14T08:48:06Z</time>
      </trkpt>
      <trkpt lat="49.27548" lon="0.09936">
        <ele>107.9</ele>
        <time>2017-05-14T08:48:07Z</time>
      </trkpt>
      <trkpt lat="49.27552" lon="0.09942">
        <ele>107</ele>
        <time>2017-05-14T08:48:08Z</time>
      </trkpt>
      <trkpt lat="49.27556" lon="0.09949">
        <ele>105.9</ele>
        <time>2017-05-14T08:48:09Z</time>
      </trkpt>
      <trkpt lat="49.27559" lon="0.09955">
        <ele>104.7</ele>
        <time>2017-05-14T08:48:10Z</time>
      </trkpt>
      <trkpt lat="49.27561" lon="0.09961">
        <ele>103.9</ele>
        <time>2017-05-14T08:48:11Z</time>
      </trkpt>
      <trkpt lat="49.27562" lon="0.09965">
        <ele>103.5</ele>
        <time>2017-05-14T08:48:12Z</time>
      </trkpt>
      <trkpt lat="49.27566" lon="0.09971">
        <ele>102.8</ele>
        <time>2017-05-14T08:48:13Z</time>
      </trkpt>
      <trkpt lat="49.2757" lon="0.09977">
        <ele>101.6</ele>
        <time>2017-05-14T08:48:14Z</time>
      </trkpt>
      <trkpt lat="49.27575" lon="0.09986">
        <ele>99.9</ele>
        <time>2017-05-14T08:48:15Z</time>
      </trkpt>
      <trkpt lat="49.27579" lon="0.09993">
        <ele>99.3</ele>
        <time>2017-05-14T08:48:16Z</time>
      </trkpt>
      <trkpt lat="49.27584" lon="0.1">
        <ele>97.3</ele>
        <time>2017-05-14T08:48:17Z</time>
      </trkpt>
      <trkpt lat="49.27586" lon="0.10007">
        <ele>95.9</ele>
        <time>2017-05-14T08:48:18Z</time>
      </trkpt>
      <trkpt lat="49.27587" lon="0.10016">
        <ele>95.3</ele>
        <time>2017-05-14T08:48:19Z</time>
      </trkpt>
      <trkpt lat="49.2759" lon="0.10028">
        <ele>94.1</ele>
        <time>2017-05-14T08:48:20Z</time>
      </trkpt>
      <trkpt lat="49.27592" lon="0.10039">
        <ele>92.3</ele>
        <time>2017-05-14T08:48:21Z</time>
      </trkpt>
      <trkpt lat="49.27595" lon="0.10047">
        <ele>91.1</ele>
        <time>2017-05-14T08:48:22Z</time>
      </trkpt>
      <trkpt lat="49.27596" lon="0.10053">
        <ele>90.5</ele>
        <time>2017-05-14T08:48:23Z</time>
      </trkpt>
      <trkpt lat="49.27595" lon="0.10064">
        <ele>88.8</ele>
        <time>2017-05-14T08:48:26Z</time>
      </trkpt>
      <trkpt lat="49.276" lon="0.10065">
        <ele>88</ele>
        <time>2017-05-14T08:48:29Z</time>
      </trkpt>
      <trkpt lat="49.27599" lon="0.10072">
        <ele>87.3</ele>
        <time>2017-05-14T08:48:33Z</time>
      </trkpt>
      <trkpt lat="49.27597" lon="0.10078">
        <ele>87.1</ele>
        <time>2017-05-14T08:48:34Z</time>
      </trkpt>
      <trkpt lat="49.27603" lon="0.10079">
        <ele>86.9</ele>
        <time>2017-05-14T08:48:36Z</time>
      </trkpt>
      <trkpt lat="49.27607" lon="0.10081">
        <ele>86.9</ele>
        <time>2017-05-14T08:48:37Z</time>
      </trkpt>
      <trkpt lat="49.2761" lon="0.10083">
        <ele>86.9</ele>
        <time>2017-05-14T08:48:38Z</time>
      </trkpt>
      <trkpt lat="49.27604" lon="0.10089">
        <ele>87</ele>
        <time>2017-05-14T08:48:40Z</time>
      </trkpt>
      <trkpt lat="49.27597" lon="0.10094">
        <ele>87.5</ele>
        <time>2017-05-14T08:48:41Z</time>
      </trkpt>
      <trkpt lat="49.27594" lon="0.10096">
        <ele>87.9</ele>
        <time>2017-05-14T08:48:42Z</time>
      </trkpt>
      <trkpt lat="49.27588" lon="0.10098">
        <ele>88.4</ele>
        <time>2017-05-14T08:48:44Z</time>
      </trkpt>
      <trkpt lat="49.27585" lon="0.101">
        <ele>88.5</ele>
        <time>2017-05-14T08:48:45Z</time>
      </trkpt>
      <trkpt lat="49.2758" lon="0.10103">
        <ele>88.6</ele>
        <time>2017-05-14T08:48:46Z</time>
      </trkpt>
      <trkpt lat="49.27575" lon="0.10108">
        <ele>88.7</ele>
        <time>2017-05-14T08:48:48Z</time>
      </trkpt>
      <trkpt lat="49.27574" lon="0.10112">
        <ele>88.8</ele>
        <time>2017-05-14T08:48:50Z</time>
      </trkpt>
      <trkpt lat="49.27573" lon="0.10115">
        <ele>88.8</ele>
        <time>2017-05-14T08:48:51Z</time>
      </trkpt>
      <trkpt lat="49.27571" lon="0.10121">
        <ele>88.8</ele>
        <time>2017-05-14T08:48:52Z</time>
      </trkpt>
      <trkpt lat="49.27569" lon="0.10129">
        <ele>88.8</ele>
        <time>2017-05-14T08:48:53Z</time>
      </trkpt>
      <trkpt lat="49.27568" lon="0.10134">
        <ele>88.8</ele>
        <time>2017-05-14T08:48:55Z</time>
      </trkpt>
      <trkpt lat="49.27565" lon="0.10136">
        <ele>88.9</ele>
        <time>2017-05-14T08:48:57Z</time>
      </trkpt>
      <trkpt lat="49.2756" lon="0.1014">
        <ele>88.9</ele>
        <time>2017-05-14T08:48:59Z</time>
      </trkpt>
      <trkpt lat="49.27562" lon="0.1015">
        <ele>88.8</ele>
        <time>2017-05-14T08:49:01Z</time>
      </trkpt>
      <trkpt lat="49.2756" lon="0.10163">
        <ele>88.6</ele>
        <time>2017-05-14T08:49:02Z</time>
      </trkpt>
      <trkpt lat="49.27559" lon="0.10176">
        <ele>88.2</ele>
        <time>2017-05-14T08:49:03Z</time>
      </trkpt>
      <trkpt lat="49.27559" lon="0.1019">
        <ele>87.4</ele>
        <time>2017-05-14T08:49:04Z</time>
      </trkpt>
      <trkpt lat="49.27559" lon="0.10197">
        <ele>87.3</ele>
        <time>2017-05-14T08:49:05Z</time>
      </trkpt>
      <trkpt lat="49.2756" lon="0.10204">
        <ele>87.2</ele>
        <time>2017-05-14T08:49:06Z</time>
      </trkpt>
      <trkpt lat="49.2756" lon="0.1021">
        <ele>87.1</ele>
        <time>2017-05-14T08:49:07Z</time>
      </trkpt>
      <trkpt lat="49.27559" lon="0.10218">
        <ele>87.1</ele>
        <time>2017-05-14T08:49:09Z</time>
      </trkpt>
      <trkpt lat="49.27561" lon="0.10225">
        <ele>87</ele>
        <time>2017-05-14T08:49:10Z</time>
      </trkpt>
      <trkpt lat="49.27562" lon="0.10229">
        <ele>87</ele>
        <time>2017-05-14T08:49:11Z</time>
      </trkpt>
      <trkpt lat="49.27563" lon="0.10233">
        <ele>87</ele>
        <time>2017-05-14T08:49:12Z</time>
      </trkpt>
      <trkpt lat="49.27569" lon="0.10241">
        <ele>87</ele>
        <time>2017-05-14T08:49:13Z</time>
      </trkpt>
      <trkpt lat="49.27572" lon="0.1025">
        <ele>87</ele>
        <time>2017-05-14T08:49:14Z</time>
      </trkpt>
      <trkpt lat="49.27574" lon="0.10256">
        <ele>87</ele>
        <time>2017-05-14T08:49:15Z</time>
      </trkpt>
      <trkpt lat="49.27577" lon="0.10262">
        <ele>86.9</ele>
        <time>2017-05-14T08:49:16Z</time>
      </trkpt>
      <trkpt lat="49.27579" lon="0.10269">
        <ele>86.9</ele>
        <time>2017-05-14T08:49:17Z</time>
      </trkpt>
      <trkpt lat="49.27582" lon="0.10275">
        <ele>86.9</ele>
        <time>2017-05-14T08:49:18Z</time>
      </trkpt>
      <trkpt lat="49.27585" lon="0.10281">
        <ele>86.9</ele>
        <time>2017-05-14T08:49:19Z</time>
      </trkpt>
      <trkpt lat="49.27587" lon="0.10287">
        <ele>86.9</ele>
        <time>2017-05-14T08:49:20Z</time>
      </trkpt>
      <trkpt lat="49.2759" lon="0.10293">
        <ele>86.9</ele>
        <time>2017-05-14T08:49:21Z</time>
      </trkpt>
      <trkpt lat="49.27593" lon="0.10298">
        <ele>86.9</ele>
        <time>2017-05-14T08:49:22Z</time>
      </trkpt>
      <trkpt lat="49.27595" lon="0.10303">
        <ele>86.9</ele>
        <time>2017-05-14T08:49:23Z</time>
      </trkpt>
      <trkpt lat="49.27598" lon="0.1031">
        <ele>87</ele>
        <time>2017-05-14T08:49:24Z</time>
      </trkpt>
      <trkpt lat="49.276" lon="0.10319">
        <ele>87</ele>
        <time>2017-05-14T08:49:25Z</time>
      </trkpt>
      <trkpt lat="49.27602" lon="0.1033">
        <ele>87</ele>
        <time>2017-05-14T08:49:26Z</time>
      </trkpt>
      <trkpt lat="49.27602" lon="0.10337">
        <ele>87</ele>
        <time>2017-05-14T08:49:27Z</time>
      </trkpt>
      <trkpt lat="49.27602" lon="0.10348">
        <ele>87</ele>
        <time>2017-05-14T08:49:28Z</time>
      </trkpt>
      <trkpt lat="49.276" lon="0.10357">
        <ele>87</ele>
        <time>2017-05-14T08:49:29Z</time>
      </trkpt>
      <trkpt lat="49.27599" lon="0.10365">
        <ele>87</ele>
        <time>2017-05-14T08:49:30Z</time>
      </trkpt>
      <trkpt lat="49.27598" lon="0.1037">
        <ele>87</ele>
        <time>2017-05-14T08:49:31Z</time>
      </trkpt>
      <trkpt lat="49.27596" lon="0.10377">
        <ele>87</ele>
        <time>2017-05-14T08:49:32Z</time>
      </trkpt>
      <trkpt lat="49.27595" lon="0.10383">
        <ele>87</ele>
        <time>2017-05-14T08:49:33Z</time>
      </trkpt>
      <trkpt lat="49.27593" lon="0.10392">
        <ele>87</ele>
        <time>2017-05-14T08:49:34Z</time>
      </trkpt>
      <trkpt lat="49.27592" lon="0.10397">
        <ele>87</ele>
        <time>2017-05-14T08:49:35Z</time>
      </trkpt>
      <trkpt lat="49.27591" lon="0.10406">
        <ele>87</ele>
        <time>2017-05-14T08:49:36Z</time>
      </trkpt>
      <trkpt lat="49.2759" lon="0.10412">
        <ele>87</ele>
        <time>2017-05-14T08:49:37Z</time>
      </trkpt>
      <trkpt lat="49.2759" lon="0.10418">
        <ele>87</ele>
        <time>2017-05-14T08:49:38Z</time>
      </trkpt>
      <trkpt lat="49.27591" lon="0.10424">
        <ele>87</ele>
        <time>2017-05-14T08:49:39Z</time>
      </trkpt>
      <trkpt lat="49.27593" lon="0.10429">
        <ele>87</ele>
        <time>2017-05-14T08:49:40Z</time>
      </trkpt>
      <trkpt lat="49.27597" lon="0.10435">
        <ele>87</ele>
        <time>2017-05-14T08:49:41Z</time>
      </trkpt>
      <trkpt lat="49.27602" lon="0.10441">
        <ele>87</ele>
        <time>2017-05-14T08:49:42Z</time>
      </trkpt>
      <trkpt lat="49.27607" lon="0.10446">
        <ele>84.7</ele>
        <time>2017-05-14T08:49:43Z</time>
      </trkpt>
      <trkpt lat="49.27612" lon="0.10452">
        <ele>83.5</ele>
        <time>2017-05-14T08:49:44Z</time>
      </trkpt>
      <trkpt lat="49.27616" lon="0.10457">
        <ele>81.4</ele>
        <time>2017-05-14T08:49:45Z</time>
      </trkpt>
      <trkpt lat="49.2762" lon="0.10463">
        <ele>80.6</ele>
        <time>2017-05-14T08:49:46Z</time>
      </trkpt>
      <trkpt lat="49.27627" lon="0.10469">
        <ele>78.5</ele>
        <time>2017-05-14T08:49:47Z</time>
      </trkpt>
      <trkpt lat="49.27637" lon="0.1048">
        <ele>77.7</ele>
        <time>2017-05-14T08:49:48Z</time>
      </trkpt>
      <trkpt lat="49.27646" lon="0.10488">
        <ele>77.3</ele>
        <time>2017-05-14T08:49:49Z</time>
      </trkpt>
      <trkpt lat="49.27654" lon="0.10497">
        <ele>77</ele>
        <time>2017-05-14T08:49:50Z</time>
      </trkpt>
      <trkpt lat="49.27661" lon="0.10505">
        <ele>76.8</ele>
        <time>2017-05-14T08:49:51Z</time>
      </trkpt>
      <trkpt lat="49.27668" lon="0.10513">
        <ele>76.6</ele>
        <time>2017-05-14T08:49:52Z</time>
      </trkpt>
      <trkpt lat="49.27675" lon="0.10523">
        <ele>76.4</ele>
        <time>2017-05-14T08:49:53Z</time>
      </trkpt>
      <trkpt lat="49.27681" lon="0.10529">
        <ele>76.2</ele>
        <time>2017-05-14T08:49:54Z</time>
      </trkpt>
      <trkpt lat="49.27685" lon="0.10535">
        <ele>76.1</ele>
        <time>2017-05-14T08:49:55Z</time>
      </trkpt>
      <trkpt lat="49.2769" lon="0.1054">
        <ele>76</ele>
        <time>2017-05-14T08:49:56Z</time>
      </trkpt>
      <trkpt lat="49.27696" lon="0.10548">
        <ele>75.9</ele>
        <time>2017-05-14T08:49:57Z</time>
      </trkpt>
      <trkpt lat="49.27701" lon="0.10557">
        <ele>75.8</ele>
        <time>2017-05-14T08:49:58Z</time>
      </trkpt>
      <trkpt lat="49.27705" lon="0.10562">
        <ele>75.7</ele>
        <time>2017-05-14T08:49:59Z</time>
      </trkpt>
      <trkpt lat="49.27709" lon="0.10566">
        <ele>75.7</ele>
        <time>2017-05-14T08:50:00Z</time>
      </trkpt>
      <trkpt lat="49.27712" lon="0.1057">
        <ele>75.6</ele>
        <time>2017-05-14T08:50:01Z</time>
      </trkpt>
      <trkpt lat="49.27717" lon="0.10578">
        <ele>75.5</ele>
        <time>2017-05-14T08:50:02Z</time>
      </trkpt>
      <trkpt lat="49.2772" lon="0.10583">
        <ele>75.4</ele>
        <time>2017-05-14T08:50:03Z</time>
      </trkpt>
      <trkpt lat="49.27724" lon="0.10589">
        <ele>75.3</ele>
        <time>2017-05-14T08:50:04Z</time>
      </trkpt>
      <trkpt lat="49.27729" lon="0.10596">
        <ele>75.3</ele>
        <time>2017-05-14T08:50:05Z</time>
      </trkpt>
      <trkpt lat="49.27731" lon="0.10601">
        <ele>75.2</ele>
        <time>2017-05-14T08:50:06Z</time>
      </trkpt>
      <trkpt lat="49.27734" lon="0.1061">
        <ele>75.1</ele>
        <time>2017-05-14T08:50:07Z</time>
      </trkpt>
      <trkpt lat="49.27739" lon="0.10619">
        <ele>75</ele>
        <time>2017-05-14T08:50:08Z</time>
      </trkpt>
      <trkpt lat="49.27742" lon="0.10624">
        <ele>74.9</ele>
        <time>2017-05-14T08:50:09Z</time>
      </trkpt>
      <trkpt lat="49.27745" lon="0.10628">
        <ele>74.9</ele>
        <time>2017-05-14T08:50:10Z</time>
      </trkpt>
      <trkpt lat="49.27749" lon="0.10633">
        <ele>74.8</ele>
        <time>2017-05-14T08:50:11Z</time>
      </trkpt>
      <trkpt lat="49.27754" lon="0.10637">
        <ele>74.6</ele>
        <time>2017-05-14T08:50:12Z</time>
      </trkpt>
      <trkpt lat="49.27758" lon="0.1064">
        <ele>74.4</ele>
        <time>2017-05-14T08:50:13Z</time>
      </trkpt>
      <trkpt lat="49.27764" lon="0.10643">
        <ele>73.8</ele>
        <time>2017-05-14T08:50:14Z</time>
      </trkpt>
      <trkpt lat="49.27767" lon="0.10643">
        <ele>73.6</ele>
        <time>2017-05-14T08:50:15Z</time>
      </trkpt>
      <trkpt lat="49.27772" lon="0.10644">
        <ele>73.4</ele>
        <time>2017-05-14T08:50:16Z</time>
      </trkpt>
      <trkpt lat="49.27777" lon="0.10646">
        <ele>73.2</ele>
        <time>2017-05-14T08:50:17Z</time>
      </trkpt>
      <trkpt lat="49.27782" lon="0.10648">
        <ele>72.8</ele>
        <time>2017-05-14T08:50:18Z</time>
      </trkpt>
      <trkpt lat="49.27787" lon="0.1065">
        <ele>71.8</ele>
        <time>2017-05-14T08:50:19Z</time>
      </trkpt>
      <trkpt lat="49.27792" lon="0.10655">
        <ele>71.2</ele>
        <time>2017-05-14T08:50:20Z</time>
      </trkpt>
      <trkpt lat="49.27795" lon="0.10661">
        <ele>71.6</ele>
        <time>2017-05-14T08:50:21Z</time>
      </trkpt>
      <trkpt lat="49.27798" lon="0.10667">
        <ele>72.2</ele>
        <time>2017-05-14T08:50:22Z</time>
      </trkpt>
      <trkpt lat="49.27801" lon="0.10673">
        <ele>72.6</ele>
        <time>2017-05-14T08:50:23Z</time>
      </trkpt>
      <trkpt lat="49.27803" lon="0.10678">
        <ele>73.1</ele>
        <time>2017-05-14T08:50:24Z</time>
      </trkpt>
      <trkpt lat="49.27804" lon="0.10681">
        <ele>73.3</ele>
        <time>2017-05-14T08:50:25Z</time>
      </trkpt>
      <trkpt lat="49.27806" lon="0.10686">
        <ele>73.7</ele>
        <time>2017-05-14T08:50:26Z</time>
      </trkpt>
      <trkpt lat="49.27808" lon="0.10691">
        <ele>74.1</ele>
        <time>2017-05-14T08:50:27Z</time>
      </trkpt>
      <trkpt lat="49.27811" lon="0.10696">
        <ele>74.5</ele>
        <time>2017-05-14T08:50:28Z</time>
      </trkpt>
      <trkpt lat="49.27812" lon="0.10701">
        <ele>74.8</ele>
        <time>2017-05-14T08:50:29Z</time>
      </trkpt>
      <trkpt lat="49.27813" lon="0.10706">
        <ele>75.2</ele>
        <time>2017-05-14T08:50:30Z</time>
      </trkpt>
      <trkpt lat="49.27815" lon="0.10712">
        <ele>75.6</ele>
        <time>2017-05-14T08:50:31Z</time>
      </trkpt>
      <trkpt lat="49.27817" lon="0.10718">
        <ele>76</ele>
        <time>2017-05-14T08:50:32Z</time>
      </trkpt>
      <trkpt lat="49.27818" lon="0.10722">
        <ele>76.4</ele>
        <time>2017-05-14T08:50:33Z</time>
      </trkpt>
      <trkpt lat="49.27819" lon="0.10727">
        <ele>76.7</ele>
        <time>2017-05-14T08:50:34Z</time>
      </trkpt>
      <trkpt lat="49.27821" lon="0.10732">
        <ele>77</ele>
        <time>2017-05-14T08:50:35Z</time>
      </trkpt>
      <trkpt lat="49.27822" lon="0.10738">
        <ele>77.1</ele>
        <time>2017-05-14T08:50:36Z</time>
      </trkpt>
      <trkpt lat="49.27824" lon="0.10743">
        <ele>77.3</ele>
        <time>2017-05-14T08:50:37Z</time>
      </trkpt>
      <trkpt lat="49.27825" lon="0.10748">
        <ele>77.4</ele>
        <time>2017-05-14T08:50:38Z</time>
      </trkpt>
      <trkpt lat="49.27826" lon="0.10752">
        <ele>77.5</ele>
        <time>2017-05-14T08:50:39Z</time>
      </trkpt>
      <trkpt lat="49.27827" lon="0.10757">
        <ele>77.6</ele>
        <time>2017-05-14T08:50:40Z</time>
      </trkpt>
      <trkpt lat="49.27829" lon="0.10763">
        <ele>77.8</ele>
        <time>2017-05-14T08:50:41Z</time>
      </trkpt>
      <trkpt lat="49.2783" lon="0.10768">
        <ele>77.9</ele>
        <time>2017-05-14T08:50:42Z</time>
      </trkpt>
      <trkpt lat="49.27831" lon="0.10773">
        <ele>78</ele>
        <time>2017-05-14T08:50:43Z</time>
      </trkpt>
      <trkpt lat="49.27832" lon="0.10777">
        <ele>78.2</ele>
        <time>2017-05-14T08:50:44Z</time>
      </trkpt>
      <trkpt lat="49.27833" lon="0.10782">
        <ele>78.4</ele>
        <time>2017-05-14T08:50:45Z</time>
      </trkpt>
      <trkpt lat="49.27834" lon="0.10788">
        <ele>78.6</ele>
        <time>2017-05-14T08:50:46Z</time>
      </trkpt>
      <trkpt lat="49.27835" lon="0.10793">
        <ele>78.8</ele>
        <time>2017-05-14T08:50:47Z</time>
      </trkpt>
      <trkpt lat="49.27836" lon="0.10798">
        <ele>78.9</ele>
        <time>2017-05-14T08:50:48Z</time>
      </trkpt>
      <trkpt lat="49.27837" lon="0.10802">
        <ele>79.1</ele>
        <time>2017-05-14T08:50:49Z</time>
      </trkpt>
      <trkpt lat="49.27839" lon="0.10809">
        <ele>79.4</ele>
        <time>2017-05-14T08:50:50Z</time>
      </trkpt>
      <trkpt lat="49.27839" lon="0.10813">
        <ele>79.6</ele>
        <time>2017-05-14T08:50:51Z</time>
      </trkpt>
      <trkpt lat="49.2784" lon="0.10817">
        <ele>79.8</ele>
        <time>2017-05-14T08:50:52Z</time>
      </trkpt>
      <trkpt lat="49.27842" lon="0.10822">
        <ele>80</ele>
        <time>2017-05-14T08:50:53Z</time>
      </trkpt>
      <trkpt lat="49.27843" lon="0.10827">
        <ele>80.2</ele>
        <time>2017-05-14T08:50:54Z</time>
      </trkpt>
      <trkpt lat="49.27844" lon="0.10832">
        <ele>80.4</ele>
        <time>2017-05-14T08:50:55Z</time>
      </trkpt>
      <trkpt lat="49.27845" lon="0.10836">
        <ele>80.6</ele>
        <time>2017-05-14T08:50:56Z</time>
      </trkpt>
      <trkpt lat="49.27846" lon="0.10841">
        <ele>80.8</ele>
        <time>2017-05-14T08:50:57Z</time>
      </trkpt>
      <trkpt lat="49.27847" lon="0.10845">
        <ele>81</ele>
        <time>2017-05-14T08:50:58Z</time>
      </trkpt>
      <trkpt lat="49.27848" lon="0.1085">
        <ele>81.2</ele>
        <time>2017-05-14T08:51:00Z</time>
      </trkpt>
      <trkpt lat="49.27849" lon="0.10856">
        <ele>81.5</ele>
        <time>2017-05-14T08:51:02Z</time>
      </trkpt>
      <trkpt lat="49.2785" lon="0.10865">
        <ele>81.9</ele>
        <time>2017-05-14T08:51:04Z</time>
      </trkpt>
      <trkpt lat="49.27851" lon="0.1087">
        <ele>82.1</ele>
        <time>2017-05-14T08:51:05Z</time>
      </trkpt>
      <trkpt lat="49.27852" lon="0.10876">
        <ele>82.4</ele>
        <time>2017-05-14T08:51:06Z</time>
      </trkpt>
      <trkpt lat="49.27853" lon="0.10881">
        <ele>82.6</ele>
        <time>2017-05-14T08:51:07Z</time>
      </trkpt>
      <trkpt lat="49.27854" lon="0.10887">
        <ele>82.8</ele>
        <time>2017-05-14T08:51:08Z</time>
      </trkpt>
      <trkpt lat="49.27856" lon="0.10897">
        <ele>83.2</ele>
        <time>2017-05-14T08:51:09Z</time>
      </trkpt>
      <trkpt lat="49.27857" lon="0.10906">
        <ele>83.6</ele>
        <time>2017-05-14T08:51:10Z</time>
      </trkpt>
      <trkpt lat="49.27858" lon="0.10912">
        <ele>83.8</ele>
        <time>2017-05-14T08:51:11Z</time>
      </trkpt>
      <trkpt lat="49.27858" lon="0.10916">
        <ele>84</ele>
        <time>2017-05-14T08:51:12Z</time>
      </trkpt>
      <trkpt lat="49.27859" lon="0.10921">
        <ele>84.7</ele>
        <time>2017-05-14T08:51:13Z</time>
      </trkpt>
      <trkpt lat="49.2786" lon="0.10926">
        <ele>85.3</ele>
        <time>2017-05-14T08:51:14Z</time>
      </trkpt>
      <trkpt lat="49.2786" lon="0.10931">
        <ele>86</ele>
        <time>2017-05-14T08:51:15Z</time>
      </trkpt>
      <trkpt lat="49.2786" lon="0.10936">
        <ele>86.7</ele>
        <time>2017-05-14T08:51:17Z</time>
      </trkpt>
      <trkpt lat="49.27858" lon="0.10942">
        <ele>87.5</ele>
        <time>2017-05-14T08:51:19Z</time>
      </trkpt>
      <trkpt lat="49.27856" lon="0.1095">
        <ele>88.7</ele>
        <time>2017-05-14T08:51:21Z</time>
      </trkpt>
      <trkpt lat="49.27854" lon="0.10955">
        <ele>89.4</ele>
        <time>2017-05-14T08:51:22Z</time>
      </trkpt>
      <trkpt lat="49.27853" lon="0.1096">
        <ele>90</ele>
        <time>2017-05-14T08:51:23Z</time>
      </trkpt>
      <trkpt lat="49.27851" lon="0.10965">
        <ele>90</ele>
        <time>2017-05-14T08:51:24Z</time>
      </trkpt>
      <trkpt lat="49.2785" lon="0.1097">
        <ele>90</ele>
        <time>2017-05-14T08:51:25Z</time>
      </trkpt>
      <trkpt lat="49.27848" lon="0.10974">
        <ele>90</ele>
        <time>2017-05-14T08:51:26Z</time>
      </trkpt>
      <trkpt lat="49.27848" lon="0.10979">
        <ele>90</ele>
        <time>2017-05-14T08:51:27Z</time>
      </trkpt>
      <trkpt lat="49.27846" lon="0.10983">
        <ele>89.7</ele>
        <time>2017-05-14T08:51:28Z</time>
      </trkpt>
      <trkpt lat="49.27844" lon="0.10987">
        <ele>89.4</ele>
        <time>2017-05-14T08:51:30Z</time>
      </trkpt>
      <trkpt lat="49.27844" lon="0.10993">
        <ele>89.1</ele>
        <time>2017-05-14T08:51:32Z</time>
      </trkpt>
      <trkpt lat="49.27843" lon="0.11003">
        <ele>88.5</ele>
        <time>2017-05-14T08:51:34Z</time>
      </trkpt>
      <trkpt lat="49.27842" lon="0.11009">
        <ele>88.1</ele>
        <time>2017-05-14T08:51:36Z</time>
      </trkpt>
      <trkpt lat="49.2784" lon="0.11015">
        <ele>87.7</ele>
        <time>2017-05-14T08:51:38Z</time>
      </trkpt>
      <trkpt lat="49.27838" lon="0.11021">
        <ele>87.4</ele>
        <time>2017-05-14T08:51:40Z</time>
      </trkpt>
      <trkpt lat="49.27836" lon="0.11025">
        <ele>87.1</ele>
        <time>2017-05-14T08:51:41Z</time>
      </trkpt>
      <trkpt lat="49.27835" lon="0.1103">
        <ele>86.8</ele>
        <time>2017-05-14T08:51:42Z</time>
      </trkpt>
      <trkpt lat="49.27834" lon="0.11034">
        <ele>86.5</ele>
        <time>2017-05-14T08:51:43Z</time>
      </trkpt>
      <trkpt lat="49.27832" lon="0.11044">
        <ele>86</ele>
        <time>2017-05-14T08:51:45Z</time>
      </trkpt>
      <trkpt lat="49.27831" lon="0.1105">
        <ele>86</ele>
        <time>2017-05-14T08:51:46Z</time>
      </trkpt>
      <trkpt lat="49.2783" lon="0.11057">
        <ele>86</ele>
        <time>2017-05-14T08:51:47Z</time>
      </trkpt>
      <trkpt lat="49.27829" lon="0.11062">
        <ele>86</ele>
        <time>2017-05-14T08:51:48Z</time>
      </trkpt>
      <trkpt lat="49.27829" lon="0.11068">
        <ele>86</ele>
        <time>2017-05-14T08:51:49Z</time>
      </trkpt>
      <trkpt lat="49.27829" lon="0.11074">
        <ele>86</ele>
        <time>2017-05-14T08:51:50Z</time>
      </trkpt>
      <trkpt lat="49.27829" lon="0.11081">
        <ele>86</ele>
        <time>2017-05-14T08:51:51Z</time>
      </trkpt>
      <trkpt lat="49.27828" lon="0.11086">
        <ele>85.9</ele>
        <time>2017-05-14T08:51:52Z</time>
      </trkpt>
      <trkpt lat="49.27827" lon="0.11091">
        <ele>85.8</ele>
        <time>2017-05-14T08:51:53Z</time>
      </trkpt>
      <trkpt lat="49.27827" lon="0.11096">
        <ele>85.7</ele>
        <time>2017-05-14T08:51:54Z</time>
      </trkpt>
      <trkpt lat="49.27826" lon="0.11102">
        <ele>85.6</ele>
        <time>2017-05-14T08:51:55Z</time>
      </trkpt>
      <trkpt lat="49.27825" lon="0.11112">
        <ele>85.4</ele>
        <time>2017-05-14T08:51:56Z</time>
      </trkpt>
      <trkpt lat="49.27824" lon="0.1112">
        <ele>85.2</ele>
        <time>2017-05-14T08:51:57Z</time>
      </trkpt>
      <trkpt lat="49.27822" lon="0.11124">
        <ele>85.1</ele>
        <time>2017-05-14T08:51:58Z</time>
      </trkpt>
      <trkpt lat="49.27818" lon="0.11126">
        <ele>85</ele>
        <time>2017-05-14T08:51:59Z</time>
      </trkpt>
      <trkpt lat="49.2781" lon="0.11127">
        <ele>84.2</ele>
        <time>2017-05-14T08:52:00Z</time>
      </trkpt>
      <trkpt lat="49.27799" lon="0.11129">
        <ele>84</ele>
        <time>2017-05-14T08:52:01Z</time>
      </trkpt>
      <trkpt lat="49.2779" lon="0.11128">
        <ele>83.8</ele>
        <time>2017-05-14T08:52:02Z</time>
      </trkpt>
      <trkpt lat="49.27782" lon="0.11126">
        <ele>83.5</ele>
        <time>2017-05-14T08:52:03Z</time>
      </trkpt>
      <trkpt lat="49.27773" lon="0.11126">
        <ele>83</ele>
        <time>2017-05-14T08:52:04Z</time>
      </trkpt>
      <trkpt lat="49.27763" lon="0.11126">
        <ele>82.4</ele>
        <time>2017-05-14T08:52:05Z</time>
      </trkpt>
      <trkpt lat="49.27753" lon="0.11125">
        <ele>81.8</ele>
        <time>2017-05-14T08:52:06Z</time>
      </trkpt>
      <trkpt lat="49.27745" lon="0.11124">
        <ele>81.3</ele>
        <time>2017-05-14T08:52:07Z</time>
      </trkpt>
      <trkpt lat="49.27737" lon="0.11124">
        <ele>80.8</ele>
        <time>2017-05-14T08:52:08Z</time>
      </trkpt>
      <trkpt lat="49.2773" lon="0.11123">
        <ele>80.4</ele>
        <time>2017-05-14T08:52:09Z</time>
      </trkpt>
      <trkpt lat="49.27722" lon="0.11123">
        <ele>79.8</ele>
        <time>2017-05-14T08:52:10Z</time>
      </trkpt>
      <trkpt lat="49.27715" lon="0.11123">
        <ele>79.2</ele>
        <time>2017-05-14T08:52:11Z</time>
      </trkpt>
      <trkpt lat="49.27706" lon="0.11123">
        <ele>78.2</ele>
        <time>2017-05-14T08:52:12Z</time>
      </trkpt>
      <trkpt lat="49.27699" lon="0.11126">
        <ele>77.1</ele>
        <time>2017-05-14T08:52:13Z</time>
      </trkpt>
      <trkpt lat="49.27691" lon="0.11128">
        <ele>76.6</ele>
        <time>2017-05-14T08:52:14Z</time>
      </trkpt>
      <trkpt lat="49.27684" lon="0.11131">
        <ele>76.3</ele>
        <time>2017-05-14T08:52:15Z</time>
      </trkpt>
      <trkpt lat="49.27677" lon="0.11134">
        <ele>76.1</ele>
        <time>2017-05-14T08:52:16Z</time>
      </trkpt>
      <trkpt lat="49.2767" lon="0.11138">
        <ele>75.7</ele>
        <time>2017-05-14T08:52:17Z</time>
      </trkpt>
      <trkpt lat="49.27662" lon="0.11141">
        <ele>74.8</ele>
        <time>2017-05-14T08:52:18Z</time>
      </trkpt>
      <trkpt lat="49.27655" lon="0.11145">
        <ele>74</ele>
        <time>2017-05-14T08:52:19Z</time>
      </trkpt>
      <trkpt lat="49.2765" lon="0.11149">
        <ele>73.1</ele>
        <time>2017-05-14T08:52:20Z</time>
      </trkpt>
      <trkpt lat="49.27642" lon="0.11157">
        <ele>71.7</ele>
        <time>2017-05-14T08:52:21Z</time>
      </trkpt>
      <trkpt lat="49.27637" lon="0.11167">
        <ele>70.3</ele>
        <time>2017-05-14T08:52:22Z</time>
      </trkpt>
      <trkpt lat="49.27632" lon="0.11177">
        <ele>69</ele>
        <time>2017-05-14T08:52:23Z</time>
      </trkpt>
      <trkpt lat="49.27629" lon="0.11189">
        <ele>67.8</ele>
        <time>2017-05-14T08:52:24Z</time>
      </trkpt>
      <trkpt lat="49.27627" lon="0.11202">
        <ele>67</ele>
        <time>2017-05-14T08:52:25Z</time>
      </trkpt>
      <trkpt lat="49.27624" lon="0.11215">
        <ele>66.5</ele>
        <time>2017-05-14T08:52:26Z</time>
      </trkpt>
      <trkpt lat="49.27622" lon="0.11228">
        <ele>66.2</ele>
        <time>2017-05-14T08:52:27Z</time>
      </trkpt>
      <trkpt lat="49.27621" lon="0.11242">
        <ele>65.9</ele>
        <time>2017-05-14T08:52:28Z</time>
      </trkpt>
      <trkpt lat="49.27619" lon="0.11256">
        <ele>64.6</ele>
        <time>2017-05-14T08:52:29Z</time>
      </trkpt>
      <trkpt lat="49.27616" lon="0.11268">
        <ele>63.5</ele>
        <time>2017-05-14T08:52:30Z</time>
      </trkpt>
      <trkpt lat="49.27613" lon="0.1128">
        <ele>62.5</ele>
        <time>2017-05-14T08:52:31Z</time>
      </trkpt>
      <trkpt lat="49.27608" lon="0.11292">
        <ele>61.5</ele>
        <time>2017-05-14T08:52:32Z</time>
      </trkpt>
      <trkpt lat="49.27603" lon="0.11302">
        <ele>61</ele>
        <time>2017-05-14T08:52:33Z</time>
      </trkpt>
      <trkpt lat="49.27598" lon="0.11311">
        <ele>60.6</ele>
        <time>2017-05-14T08:52:34Z</time>
      </trkpt>
      <trkpt lat="49.27594" lon="0.11319">
        <ele>60.2</ele>
        <time>2017-05-14T08:52:35Z</time>
      </trkpt>
      <trkpt lat="49.2759" lon="0.11329">
        <ele>59.5</ele>
        <time>2017-05-14T08:52:36Z</time>
      </trkpt>
      <trkpt lat="49.27584" lon="0.11338">
        <ele>58.7</ele>
        <time>2017-05-14T08:52:37Z</time>
      </trkpt>
      <trkpt lat="49.27579" lon="0.11346">
        <ele>58</ele>
        <time>2017-05-14T08:52:38Z</time>
      </trkpt>
      <trkpt lat="49.27577" lon="0.1135">
        <ele>57.8</ele>
        <time>2017-05-14T08:52:39Z</time>
      </trkpt>
      <trkpt lat="49.27575" lon="0.11359">
        <ele>57.4</ele>
        <time>2017-05-14T08:52:40Z</time>
      </trkpt>
      <trkpt lat="49.27572" lon="0.11371">
        <ele>56.7</ele>
        <time>2017-05-14T08:52:41Z</time>
      </trkpt>
      <trkpt lat="49.27571" lon="0.11382">
        <ele>56.3</ele>
        <time>2017-05-14T08:52:42Z</time>
      </trkpt>
      <trkpt lat="49.2757" lon="0.11391">
        <ele>55.9</ele>
        <time>2017-05-14T08:52:43Z</time>
      </trkpt>
      <trkpt lat="49.27571" lon="0.11401">
        <ele>55.5</ele>
        <time>2017-05-14T08:52:44Z</time>
      </trkpt>
      <trkpt lat="49.27571" lon="0.11412">
        <ele>55</ele>
        <time>2017-05-14T08:52:45Z</time>
      </trkpt>
      <trkpt lat="49.27572" lon="0.11425">
        <ele>54.5</ele>
        <time>2017-05-14T08:52:46Z</time>
      </trkpt>
      <trkpt lat="49.27573" lon="0.11441">
        <ele>53.7</ele>
        <time>2017-05-14T08:52:47Z</time>
      </trkpt>
      <trkpt lat="49.27575" lon="0.11453">
        <ele>53.2</ele>
        <time>2017-05-14T08:52:48Z</time>
      </trkpt>
      <trkpt lat="49.27577" lon="0.11467">
        <ele>52.7</ele>
        <time>2017-05-14T08:52:49Z</time>
      </trkpt>
      <trkpt lat="49.27578" lon="0.11478">
        <ele>52.1</ele>
        <time>2017-05-14T08:52:50Z</time>
      </trkpt>
      <trkpt lat="49.2758" lon="0.11488">
        <ele>51.6</ele>
        <time>2017-05-14T08:52:51Z</time>
      </trkpt>
      <trkpt lat="49.27581" lon="0.115">
        <ele>51.1</ele>
        <time>2017-05-14T08:52:52Z</time>
      </trkpt>
      <trkpt lat="49.2758" lon="0.11513">
        <ele>50.6</ele>
        <time>2017-05-14T08:52:53Z</time>
      </trkpt>
      <trkpt lat="49.27579" lon="0.11526">
        <ele>50.1</ele>
        <time>2017-05-14T08:52:54Z</time>
      </trkpt>
      <trkpt lat="49.27578" lon="0.11538">
        <ele>49.7</ele>
        <time>2017-05-14T08:52:55Z</time>
      </trkpt>
      <trkpt lat="49.27577" lon="0.1155">
        <ele>49.3</ele>
        <time>2017-05-14T08:52:56Z</time>
      </trkpt>
      <trkpt lat="49.27577" lon="0.11562">
        <ele>49</ele>
        <time>2017-05-14T08:52:57Z</time>
      </trkpt>
      <trkpt lat="49.27576" lon="0.11574">
        <ele>48.7</ele>
        <time>2017-05-14T08:52:58Z</time>
      </trkpt>
      <trkpt lat="49.27574" lon="0.11586">
        <ele>48.3</ele>
        <time>2017-05-14T08:52:59Z</time>
      </trkpt>
      <trkpt lat="49.27572" lon="0.11598">
        <ele>47.7</ele>
        <time>2017-05-14T08:53:00Z</time>
      </trkpt>
      <trkpt lat="49.27569" lon="0.11611">
        <ele>47.4</ele>
        <time>2017-05-14T08:53:01Z</time>
      </trkpt>
      <trkpt lat="49.27567" lon="0.11623">
        <ele>47.1</ele>
        <time>2017-05-14T08:53:02Z</time>
      </trkpt>
      <trkpt lat="49.27565" lon="0.11632">
        <ele>47</ele>
        <time>2017-05-14T08:53:03Z</time>
      </trkpt>
      <trkpt lat="49.27565" lon="0.11639">
        <ele>47</ele>
        <time>2017-05-14T08:53:04Z</time>
      </trkpt>
      <trkpt lat="49.27564" lon="0.11645">
        <ele>47</ele>
        <time>2017-05-14T08:53:05Z</time>
      </trkpt>
      <trkpt lat="49.27564" lon="0.1165">
        <ele>47</ele>
        <time>2017-05-14T08:53:06Z</time>
      </trkpt>
      <trkpt lat="49.27562" lon="0.11655">
        <ele>47</ele>
        <time>2017-05-14T08:53:07Z</time>
      </trkpt>
      <trkpt lat="49.27561" lon="0.1166">
        <ele>47</ele>
        <time>2017-05-14T08:53:08Z</time>
      </trkpt>
      <trkpt lat="49.27559" lon="0.11668">
        <ele>47</ele>
        <time>2017-05-14T08:53:09Z</time>
      </trkpt>
      <trkpt lat="49.27558" lon="0.11673">
        <ele>47</ele>
        <time>2017-05-14T08:53:10Z</time>
      </trkpt>
      <trkpt lat="49.27557" lon="0.11679">
        <ele>47</ele>
        <time>2017-05-14T08:53:11Z</time>
      </trkpt>
      <trkpt lat="49.27555" lon="0.11685">
        <ele>47</ele>
        <time>2017-05-14T08:53:12Z</time>
      </trkpt>
      <trkpt lat="49.27554" lon="0.11692">
        <ele>47.1</ele>
        <time>2017-05-14T08:53:13Z</time>
      </trkpt>
      <trkpt lat="49.27554" lon="0.11698">
        <ele>47.1</ele>
        <time>2017-05-14T08:53:14Z</time>
      </trkpt>
      <trkpt lat="49.27552" lon="0.11704">
        <ele>47.1</ele>
        <time>2017-05-14T08:53:15Z</time>
      </trkpt>
      <trkpt lat="49.2755" lon="0.11709">
        <ele>47.1</ele>
        <time>2017-05-14T08:53:16Z</time>
      </trkpt>
      <trkpt lat="49.27549" lon="0.11717">
        <ele>47.1</ele>
        <time>2017-05-14T08:53:17Z</time>
      </trkpt>
      <trkpt lat="49.27547" lon="0.11723">
        <ele>47.2</ele>
        <time>2017-05-14T08:53:18Z</time>
      </trkpt>
      <trkpt lat="49.27546" lon="0.11729">
        <ele>47.2</ele>
        <time>2017-05-14T08:53:19Z</time>
      </trkpt>
      <trkpt lat="49.27544" lon="0.11735">
        <ele>47.2</ele>
        <time>2017-05-14T08:53:20Z</time>
      </trkpt>
      <trkpt lat="49.27542" lon="0.11741">
        <ele>47.3</ele>
        <time>2017-05-14T08:53:21Z</time>
      </trkpt>
      <trkpt lat="49.27542" lon="0.11747">
        <ele>47.3</ele>
        <time>2017-05-14T08:53:22Z</time>
      </trkpt>
      <trkpt lat="49.2754" lon="0.11754">
        <ele>47.4</ele>
        <time>2017-05-14T08:53:23Z</time>
      </trkpt>
      <trkpt lat="49.27538" lon="0.1176">
        <ele>47.5</ele>
        <time>2017-05-14T08:53:24Z</time>
      </trkpt>
      <trkpt lat="49.27537" lon="0.11767">
        <ele>47.6</ele>
        <time>2017-05-14T08:53:25Z</time>
      </trkpt>
      <trkpt lat="49.27535" lon="0.11774">
        <ele>48</ele>
        <time>2017-05-14T08:53:26Z</time>
      </trkpt>
      <trkpt lat="49.27533" lon="0.11781">
        <ele>48.5</ele>
        <time>2017-05-14T08:53:27Z</time>
      </trkpt>
      <trkpt lat="49.27532" lon="0.11788">
        <ele>48.9</ele>
        <time>2017-05-14T08:53:28Z</time>
      </trkpt>
      <trkpt lat="49.2753" lon="0.11796">
        <ele>49.1</ele>
        <time>2017-05-14T08:53:29Z</time>
      </trkpt>
      <trkpt lat="49.27528" lon="0.11801">
        <ele>49.2</ele>
        <time>2017-05-14T08:53:30Z</time>
      </trkpt>
      <trkpt lat="49.27527" lon="0.11806">
        <ele>49.3</ele>
        <time>2017-05-14T08:53:31Z</time>
      </trkpt>
      <trkpt lat="49.27526" lon="0.1181">
        <ele>49.4</ele>
        <time>2017-05-14T08:53:32Z</time>
      </trkpt>
      <trkpt lat="49.27525" lon="0.11816">
        <ele>49.5</ele>
        <time>2017-05-14T08:53:33Z</time>
      </trkpt>
      <trkpt lat="49.27524" lon="0.11823">
        <ele>49.7</ele>
        <time>2017-05-14T08:53:34Z</time>
      </trkpt>
      <trkpt lat="49.27523" lon="0.11828">
        <ele>49.8</ele>
        <time>2017-05-14T08:53:35Z</time>
      </trkpt>
      <trkpt lat="49.27521" lon="0.11834">
        <ele>50.1</ele>
        <time>2017-05-14T08:53:36Z</time>
      </trkpt>
      <trkpt lat="49.27519" lon="0.11839">
        <ele>50.5</ele>
        <time>2017-05-14T08:53:37Z</time>
      </trkpt>
      <trkpt lat="49.27518" lon="0.11844">
        <ele>50.9</ele>
        <time>2017-05-14T08:53:38Z</time>
      </trkpt>
      <trkpt lat="49.27515" lon="0.11851">
        <ele>51.1</ele>
        <time>2017-05-14T08:53:39Z</time>
      </trkpt>
      <trkpt lat="49.27513" lon="0.11859">
        <ele>51.3</ele>
        <time>2017-05-14T08:53:40Z</time>
      </trkpt>
      <trkpt lat="49.27511" lon="0.11865">
        <ele>51.5</ele>
        <time>2017-05-14T08:53:41Z</time>
      </trkpt>
      <trkpt lat="49.27509" lon="0.11872">
        <ele>51.7</ele>
        <time>2017-05-14T08:53:42Z</time>
      </trkpt>
      <trkpt lat="49.27508" lon="0.11878">
        <ele>51.8</ele>
        <time>2017-05-14T08:53:43Z</time>
      </trkpt>
      <trkpt lat="49.27506" lon="0.11886">
        <ele>52.1</ele>
        <time>2017-05-14T08:53:44Z</time>
      </trkpt>
      <trkpt lat="49.27505" lon="0.11893">
        <ele>52.4</ele>
        <time>2017-05-14T08:53:45Z</time>
      </trkpt>
      <trkpt lat="49.27504" lon="0.11897">
        <ele>52.8</ele>
        <time>2017-05-14T08:53:46Z</time>
      </trkpt>
      <trkpt lat="49.27502" lon="0.11902">
        <ele>53.1</ele>
        <time>2017-05-14T08:53:47Z</time>
      </trkpt>
      <trkpt lat="49.275" lon="0.11907">
        <ele>53.3</ele>
        <time>2017-05-14T08:53:48Z</time>
      </trkpt>
      <trkpt lat="49.27499" lon="0.11912">
        <ele>53.5</ele>
        <time>2017-05-14T08:53:49Z</time>
      </trkpt>
      <trkpt lat="49.27497" lon="0.11918">
        <ele>53.6</ele>
        <time>2017-05-14T08:53:50Z</time>
      </trkpt>
      <trkpt lat="49.27494" lon="0.11923">
        <ele>53.9</ele>
        <time>2017-05-14T08:53:51Z</time>
      </trkpt>
      <trkpt lat="49.27491" lon="0.1193">
        <ele>54.2</ele>
        <time>2017-05-14T08:53:52Z</time>
      </trkpt>
      <trkpt lat="49.27489" lon="0.11935">
        <ele>54.6</ele>
        <time>2017-05-14T08:53:53Z</time>
      </trkpt>
      <trkpt lat="49.27487" lon="0.11941">
        <ele>55</ele>
        <time>2017-05-14T08:53:54Z</time>
      </trkpt>
      <trkpt lat="49.27486" lon="0.11947">
        <ele>55.4</ele>
        <time>2017-05-14T08:53:55Z</time>
      </trkpt>
      <trkpt lat="49.27485" lon="0.11952">
        <ele>55.6</ele>
        <time>2017-05-14T08:53:56Z</time>
      </trkpt>
      <trkpt lat="49.27485" lon="0.11957">
        <ele>55.7</ele>
        <time>2017-05-14T08:53:57Z</time>
      </trkpt>
      <trkpt lat="49.27484" lon="0.11968">
        <ele>56</ele>
        <time>2017-05-14T08:53:59Z</time>
      </trkpt>
      <trkpt lat="49.27483" lon="0.11977">
        <ele>56.4</ele>
        <time>2017-05-14T08:54:01Z</time>
      </trkpt>
      <trkpt lat="49.27483" lon="0.11982">
        <ele>56.6</ele>
        <time>2017-05-14T08:54:02Z</time>
      </trkpt>
      <trkpt lat="49.27483" lon="0.11987">
        <ele>57</ele>
        <time>2017-05-14T08:54:03Z</time>
      </trkpt>
      <trkpt lat="49.27483" lon="0.11992">
        <ele>57.3</ele>
        <time>2017-05-14T08:54:04Z</time>
      </trkpt>
      <trkpt lat="49.27483" lon="0.11999">
        <ele>57.6</ele>
        <time>2017-05-14T08:54:06Z</time>
      </trkpt>
      <trkpt lat="49.27482" lon="0.12004">
        <ele>57.8</ele>
        <time>2017-05-14T08:54:07Z</time>
      </trkpt>
      <trkpt lat="49.2748" lon="0.12018">
        <ele>58.3</ele>
        <time>2017-05-14T08:54:12Z</time>
      </trkpt>
      <trkpt lat="49.2748" lon="0.12027">
        <ele>58.8</ele>
        <time>2017-05-14T08:54:13Z</time>
      </trkpt>
      <trkpt lat="49.27479" lon="0.12034">
        <ele>59.3</ele>
        <time>2017-05-14T08:54:14Z</time>
      </trkpt>
      <trkpt lat="49.27478" lon="0.1204">
        <ele>59.5</ele>
        <time>2017-05-14T08:54:15Z</time>
      </trkpt>
      <trkpt lat="49.27477" lon="0.12047">
        <ele>59.7</ele>
        <time>2017-05-14T08:54:17Z</time>
      </trkpt>
      <trkpt lat="49.27477" lon="0.12052">
        <ele>59.9</ele>
        <time>2017-05-14T08:54:18Z</time>
      </trkpt>
      <trkpt lat="49.27476" lon="0.12057">
        <ele>60.1</ele>
        <time>2017-05-14T08:54:19Z</time>
      </trkpt>
      <trkpt lat="49.27474" lon="0.12061">
        <ele>60.3</ele>
        <time>2017-05-14T08:54:20Z</time>
      </trkpt>
      <trkpt lat="49.27473" lon="0.12066">
        <ele>60.7</ele>
        <time>2017-05-14T08:54:21Z</time>
      </trkpt>
      <trkpt lat="49.27472" lon="0.12071">
        <ele>61.2</ele>
        <time>2017-05-14T08:54:22Z</time>
      </trkpt>
      <trkpt lat="49.27471" lon="0.12078">
        <ele>61.6</ele>
        <time>2017-05-14T08:54:23Z</time>
      </trkpt>
      <trkpt lat="49.2747" lon="0.12083">
        <ele>61.7</ele>
        <time>2017-05-14T08:54:24Z</time>
      </trkpt>
      <trkpt lat="49.27469" lon="0.12088">
        <ele>61.8</ele>
        <time>2017-05-14T08:54:25Z</time>
      </trkpt>
      <trkpt lat="49.27466" lon="0.12099">
        <ele>62</ele>
        <time>2017-05-14T08:54:28Z</time>
      </trkpt>
      <trkpt lat="49.27463" lon="0.12108">
        <ele>62</ele>
        <time>2017-05-14T08:54:30Z</time>
      </trkpt>
      <trkpt lat="49.27462" lon="0.12113">
        <ele>62</ele>
        <time>2017-05-14T08:54:31Z</time>
      </trkpt>
      <trkpt lat="49.27461" lon="0.12118">
        <ele>62</ele>
        <time>2017-05-14T08:54:32Z</time>
      </trkpt>
      <trkpt lat="49.27459" lon="0.12127">
        <ele>62</ele>
        <time>2017-05-14T08:54:33Z</time>
      </trkpt>
      <trkpt lat="49.27459" lon="0.12136">
        <ele>62.2</ele>
        <time>2017-05-14T08:54:34Z</time>
      </trkpt>
      <trkpt lat="49.27458" lon="0.12145">
        <ele>62.3</ele>
        <time>2017-05-14T08:54:35Z</time>
      </trkpt>
      <trkpt lat="49.27457" lon="0.1215">
        <ele>62.4</ele>
        <time>2017-05-14T08:54:36Z</time>
      </trkpt>
      <trkpt lat="49.27456" lon="0.12154">
        <ele>62.6</ele>
        <time>2017-05-14T08:54:37Z</time>
      </trkpt>
      <trkpt lat="49.27454" lon="0.12161">
        <ele>63.3</ele>
        <time>2017-05-14T08:54:39Z</time>
      </trkpt>
      <trkpt lat="49.27451" lon="0.12165">
        <ele>63.7</ele>
        <time>2017-05-14T08:54:41Z</time>
      </trkpt>
      <trkpt lat="49.27448" lon="0.12168">
        <ele>64.2</ele>
        <time>2017-05-14T08:54:42Z</time>
      </trkpt>
      <trkpt lat="49.27444" lon="0.12172">
        <ele>65</ele>
        <time>2017-05-14T08:54:43Z</time>
      </trkpt>
      <trkpt lat="49.27441" lon="0.12173">
        <ele>65.5</ele>
        <time>2017-05-14T08:54:44Z</time>
      </trkpt>
      <trkpt lat="49.27434" lon="0.12176">
        <ele>66.3</ele>
        <time>2017-05-14T08:54:51Z</time>
      </trkpt>
      <trkpt lat="49.27429" lon="0.12179">
        <ele>66.9</ele>
        <time>2017-05-14T08:54:53Z</time>
      </trkpt>
      <trkpt lat="49.27425" lon="0.12181">
        <ele>67.4</ele>
        <time>2017-05-14T08:54:55Z</time>
      </trkpt>
      <trkpt lat="49.27422" lon="0.12184">
        <ele>67.9</ele>
        <time>2017-05-14T08:54:57Z</time>
      </trkpt>
      <trkpt lat="49.27418" lon="0.12188">
        <ele>68.4</ele>
        <time>2017-05-14T08:54:59Z</time>
      </trkpt>
      <trkpt lat="49.27415" lon="0.12191">
        <ele>68.8</ele>
        <time>2017-05-14T08:55:01Z</time>
      </trkpt>
      <trkpt lat="49.27413" lon="0.12195">
        <ele>69.2</ele>
        <time>2017-05-14T08:55:03Z</time>
      </trkpt>
      <trkpt lat="49.27394" lon="0.12205">
        <ele>71.1</ele>
        <time>2017-05-14T08:55:11Z</time>
      </trkpt>
      <trkpt lat="49.27383" lon="0.12238">
        <ele>72.2</ele>
        <time>2017-05-14T08:55:19Z</time>
      </trkpt>
      <trkpt lat="49.27383" lon="0.12244">
        <ele>72.5</ele>
        <time>2017-05-14T08:55:20Z</time>
      </trkpt>
      <trkpt lat="49.27382" lon="0.12248">
        <ele>72.8</ele>
        <time>2017-05-14T08:55:21Z</time>
      </trkpt>
      <trkpt lat="49.27381" lon="0.12253">
        <ele>72.9</ele>
        <time>2017-05-14T08:55:22Z</time>
      </trkpt>
      <trkpt lat="49.2738" lon="0.12257">
        <ele>73</ele>
        <time>2017-05-14T08:55:23Z</time>
      </trkpt>
      <trkpt lat="49.27379" lon="0.12261">
        <ele>73.1</ele>
        <time>2017-05-14T08:55:24Z</time>
      </trkpt>
      <trkpt lat="49.27377" lon="0.12268">
        <ele>73.3</ele>
        <time>2017-05-14T08:55:26Z</time>
      </trkpt>
      <trkpt lat="49.27376" lon="0.12272">
        <ele>73.4</ele>
        <time>2017-05-14T08:55:28Z</time>
      </trkpt>
      <trkpt lat="49.27373" lon="0.12284">
        <ele>73.9</ele>
        <time>2017-05-14T08:55:33Z</time>
      </trkpt>
      <trkpt lat="49.27372" lon="0.12297">
        <ele>74.6</ele>
        <time>2017-05-14T08:55:35Z</time>
      </trkpt>
      <trkpt lat="49.27371" lon="0.12302">
        <ele>74.9</ele>
        <time>2017-05-14T08:55:36Z</time>
      </trkpt>
      <trkpt lat="49.27366" lon="0.12326">
        <ele>76.3</ele>
        <time>2017-05-14T08:55:44Z</time>
      </trkpt>
      <trkpt lat="49.27351" lon="0.12335">
        <ele>78.3</ele>
        <time>2017-05-14T08:55:47Z</time>
      </trkpt>
      <trkpt lat="49.27347" lon="0.1234">
        <ele>78.9</ele>
        <time>2017-05-14T08:55:48Z</time>
      </trkpt>
      <trkpt lat="49.27345" lon="0.12344">
        <ele>79.4</ele>
        <time>2017-05-14T08:55:49Z</time>
      </trkpt>
      <trkpt lat="49.27342" lon="0.12351">
        <ele>79.7</ele>
        <time>2017-05-14T08:55:51Z</time>
      </trkpt>
      <trkpt lat="49.27339" lon="0.12354">
        <ele>80</ele>
        <time>2017-05-14T08:55:53Z</time>
      </trkpt>
      <trkpt lat="49.27337" lon="0.12359">
        <ele>80.2</ele>
        <time>2017-05-14T08:55:55Z</time>
      </trkpt>
      <trkpt lat="49.27335" lon="0.12363">
        <ele>80.5</ele>
        <time>2017-05-14T08:55:57Z</time>
      </trkpt>
      <trkpt lat="49.27333" lon="0.12367">
        <ele>80.8</ele>
        <time>2017-05-14T08:55:59Z</time>
      </trkpt>
      <trkpt lat="49.27331" lon="0.12371">
        <ele>81.1</ele>
        <time>2017-05-14T08:56:01Z</time>
      </trkpt>
      <trkpt lat="49.27331" lon="0.12377">
        <ele>81.4</ele>
        <time>2017-05-14T08:56:03Z</time>
      </trkpt>
      <trkpt lat="49.27329" lon="0.12384">
        <ele>81.7</ele>
        <time>2017-05-14T08:56:05Z</time>
      </trkpt>
      <trkpt lat="49.27328" lon="0.12391">
        <ele>81.9</ele>
        <time>2017-05-14T08:56:07Z</time>
      </trkpt>
      <trkpt lat="49.27326" lon="0.12401">
        <ele>82.4</ele>
        <time>2017-05-14T08:56:09Z</time>
      </trkpt>
      <trkpt lat="49.27326" lon="0.12406">
        <ele>82.7</ele>
        <time>2017-05-14T08:56:10Z</time>
      </trkpt>
      <trkpt lat="49.27325" lon="0.12412">
        <ele>83</ele>
        <time>2017-05-14T08:56:11Z</time>
      </trkpt>
      <trkpt lat="49.27325" lon="0.12417">
        <ele>83.4</ele>
        <time>2017-05-14T08:56:12Z</time>
      </trkpt>
      <trkpt lat="49.27324" lon="0.12424">
        <ele>83.7</ele>
        <time>2017-05-14T08:56:14Z</time>
      </trkpt>
      <trkpt lat="49.27322" lon="0.12436">
        <ele>84.1</ele>
        <time>2017-05-14T08:56:18Z</time>
      </trkpt>
      <trkpt lat="49.27321" lon="0.12442">
        <ele>84.2</ele>
        <time>2017-05-14T08:56:20Z</time>
      </trkpt>
      <trkpt lat="49.27319" lon="0.12449">
        <ele>84.4</ele>
        <time>2017-05-14T08:56:22Z</time>
      </trkpt>
      <trkpt lat="49.27317" lon="0.12453">
        <ele>84.5</ele>
        <time>2017-05-14T08:56:24Z</time>
      </trkpt>
      <trkpt lat="49.27316" lon="0.1246">
        <ele>84.7</ele>
        <time>2017-05-14T08:56:26Z</time>
      </trkpt>
      <trkpt lat="49.27314" lon="0.12466">
        <ele>85</ele>
        <time>2017-05-14T08:56:28Z</time>
      </trkpt>
      <trkpt lat="49.27312" lon="0.12473">
        <ele>85.4</ele>
        <time>2017-05-14T08:56:30Z</time>
      </trkpt>
      <trkpt lat="49.27305" lon="0.1248">
        <ele>85.9</ele>
        <time>2017-05-14T08:56:35Z</time>
      </trkpt>
      <trkpt lat="49.27302" lon="0.12486">
        <ele>86.1</ele>
        <time>2017-05-14T08:56:37Z</time>
      </trkpt>
      <trkpt lat="49.27299" lon="0.12493">
        <ele>86.2</ele>
        <time>2017-05-14T08:56:39Z</time>
      </trkpt>
      <trkpt lat="49.27298" lon="0.125">
        <ele>86.4</ele>
        <time>2017-05-14T08:56:41Z</time>
      </trkpt>
      <trkpt lat="49.27296" lon="0.12506">
        <ele>86.5</ele>
        <time>2017-05-14T08:56:43Z</time>
      </trkpt>
      <trkpt lat="49.27295" lon="0.12514">
        <ele>86.7</ele>
        <time>2017-05-14T08:56:45Z</time>
      </trkpt>
      <trkpt lat="49.27296" lon="0.12521">
        <ele>86.8</ele>
        <time>2017-05-14T08:56:47Z</time>
      </trkpt>
      <trkpt lat="49.27295" lon="0.12528">
        <ele>87.2</ele>
        <time>2017-05-14T08:56:49Z</time>
      </trkpt>
      <trkpt lat="49.27293" lon="0.12531">
        <ele>87.5</ele>
        <time>2017-05-14T08:56:50Z</time>
      </trkpt>
      <trkpt lat="49.27283" lon="0.1255">
        <ele>88.8</ele>
        <time>2017-05-14T08:56:57Z</time>
      </trkpt>
      <trkpt lat="49.27274" lon="0.12582">
        <ele>90.3</ele>
        <time>2017-05-14T08:57:03Z</time>
      </trkpt>
      <trkpt lat="49.27273" lon="0.12588">
        <ele>90.5</ele>
        <time>2017-05-14T08:57:04Z</time>
      </trkpt>
      <trkpt lat="49.27268" lon="0.12602">
        <ele>90.9</ele>
        <time>2017-05-14T08:57:09Z</time>
      </trkpt>
      <trkpt lat="49.27266" lon="0.12618">
        <ele>91.4</ele>
        <time>2017-05-14T08:57:12Z</time>
      </trkpt>
      <trkpt lat="49.27267" lon="0.12634">
        <ele>92.6</ele>
        <time>2017-05-14T08:57:13Z</time>
      </trkpt>
      <trkpt lat="49.27265" lon="0.12648">
        <ele>93.6</ele>
        <time>2017-05-14T08:57:15Z</time>
      </trkpt>
      <trkpt lat="49.2726" lon="0.12661">
        <ele>94.8</ele>
        <time>2017-05-14T08:57:16Z</time>
      </trkpt>
      <trkpt lat="49.27257" lon="0.1267">
        <ele>95.5</ele>
        <time>2017-05-14T08:57:17Z</time>
      </trkpt>
      <trkpt lat="49.27253" lon="0.12679">
        <ele>96.4</ele>
        <time>2017-05-14T08:57:19Z</time>
      </trkpt>
      <trkpt lat="49.27249" lon="0.1269">
        <ele>97.1</ele>
        <time>2017-05-14T08:57:22Z</time>
      </trkpt>
      <trkpt lat="49.27247" lon="0.12695">
        <ele>97.4</ele>
        <time>2017-05-14T08:57:24Z</time>
      </trkpt>
      <trkpt lat="49.27244" lon="0.12701">
        <ele>97.9</ele>
        <time>2017-05-14T08:57:30Z</time>
      </trkpt>
      <trkpt lat="49.27241" lon="0.12708">
        <ele>98.6</ele>
        <time>2017-05-14T08:57:34Z</time>
      </trkpt>
      <trkpt lat="49.27236" lon="0.12715">
        <ele>99.6</ele>
        <time>2017-05-14T08:57:41Z</time>
      </trkpt>
      <trkpt lat="49.27225" lon="0.1275">
        <ele>105.3</ele>
        <time>2017-05-14T08:58:05Z</time>
      </trkpt>
      <trkpt lat="49.27223" lon="0.12755">
        <ele>106</ele>
        <time>2017-05-14T08:58:06Z</time>
      </trkpt>
      <trkpt lat="49.27219" lon="0.12757">
        <ele>106.5</ele>
        <time>2017-05-14T08:58:07Z</time>
      </trkpt>
      <trkpt lat="49.27216" lon="0.12758">
        <ele>107.1</ele>
        <time>2017-05-14T08:58:08Z</time>
      </trkpt>
      <trkpt lat="49.27212" lon="0.1276">
        <ele>107.7</ele>
        <time>2017-05-14T08:58:09Z</time>
      </trkpt>
      <trkpt lat="49.2721" lon="0.12764">
        <ele>108.1</ele>
        <time>2017-05-14T08:58:10Z</time>
      </trkpt>
      <trkpt lat="49.27202" lon="0.12772">
        <ele>109.6</ele>
        <time>2017-05-14T08:58:14Z</time>
      </trkpt>
      <trkpt lat="49.27199" lon="0.12774">
        <ele>110.1</ele>
        <time>2017-05-14T08:58:15Z</time>
      </trkpt>
      <trkpt lat="49.27194" lon="0.12775">
        <ele>110.7</ele>
        <time>2017-05-14T08:58:16Z</time>
      </trkpt>
      <trkpt lat="49.27189" lon="0.12777">
        <ele>111.2</ele>
        <time>2017-05-14T08:58:17Z</time>
      </trkpt>
      <trkpt lat="49.27185" lon="0.12775">
        <ele>111.9</ele>
        <time>2017-05-14T08:58:20Z</time>
      </trkpt>
      <trkpt lat="49.27182" lon="0.12771">
        <ele>112.6</ele>
        <time>2017-05-14T08:58:26Z</time>
      </trkpt>
      <trkpt lat="49.27177" lon="0.12773">
        <ele>113.3</ele>
        <time>2017-05-14T08:58:30Z</time>
      </trkpt>
      <trkpt lat="49.27173" lon="0.12774">
        <ele>113.8</ele>
        <time>2017-05-14T08:58:31Z</time>
      </trkpt>
      <trkpt lat="49.27169" lon="0.12776">
        <ele>114.3</ele>
        <time>2017-05-14T08:58:32Z</time>
      </trkpt>
      <trkpt lat="49.27164" lon="0.12779">
        <ele>114.7</ele>
        <time>2017-05-14T08:58:33Z</time>
      </trkpt>
      <trkpt lat="49.27162" lon="0.12781">
        <ele>114.8</ele>
        <time>2017-05-14T08:58:34Z</time>
      </trkpt>
      <trkpt lat="49.27157" lon="0.12783">
        <ele>115</ele>
        <time>2017-05-14T08:58:36Z</time>
      </trkpt>
      <trkpt lat="49.27154" lon="0.12786">
        <ele>115.2</ele>
        <time>2017-05-14T08:58:38Z</time>
      </trkpt>
      <trkpt lat="49.27151" lon="0.12789">
        <ele>115.6</ele>
        <time>2017-05-14T08:58:40Z</time>
      </trkpt>
      <trkpt lat="49.27148" lon="0.12791">
        <ele>116</ele>
        <time>2017-05-14T08:58:43Z</time>
      </trkpt>
      <trkpt lat="49.27145" lon="0.12794">
        <ele>116.4</ele>
        <time>2017-05-14T08:58:46Z</time>
      </trkpt>
      <trkpt lat="49.27143" lon="0.12798">
        <ele>116.8</ele>
        <time>2017-05-14T08:58:49Z</time>
      </trkpt>
      <trkpt lat="49.27138" lon="0.12803">
        <ele>117.3</ele>
        <time>2017-05-14T08:58:51Z</time>
      </trkpt>
      <trkpt lat="49.27134" lon="0.12806">
        <ele>117.6</ele>
        <time>2017-05-14T08:58:52Z</time>
      </trkpt>
      <trkpt lat="49.27131" lon="0.12809">
        <ele>118</ele>
        <time>2017-05-14T08:58:54Z</time>
      </trkpt>
      <trkpt lat="49.27128" lon="0.12811">
        <ele>118.4</ele>
        <time>2017-05-14T08:58:58Z</time>
      </trkpt>
      <trkpt lat="49.27124" lon="0.12816">
        <ele>118.9</ele>
        <time>2017-05-14T08:59:01Z</time>
      </trkpt>
      <trkpt lat="49.27121" lon="0.12827">
        <ele>119</ele>
        <time>2017-05-14T08:59:03Z</time>
      </trkpt>
      <trkpt lat="49.27119" lon="0.12834">
        <ele>119.1</ele>
        <time>2017-05-14T08:59:04Z</time>
      </trkpt>
      <trkpt lat="49.27116" lon="0.1284">
        <ele>119.1</ele>
        <time>2017-05-14T08:59:05Z</time>
      </trkpt>
      <trkpt lat="49.27111" lon="0.12846">
        <ele>119.2</ele>
        <time>2017-05-14T08:59:06Z</time>
      </trkpt>
      <trkpt lat="49.27104" lon="0.12855">
        <ele>119.3</ele>
        <time>2017-05-14T08:59:07Z</time>
      </trkpt>
      <trkpt lat="49.27098" lon="0.12861">
        <ele>119.4</ele>
        <time>2017-05-14T08:59:08Z</time>
      </trkpt>
      <trkpt lat="49.27091" lon="0.12864">
        <ele>119.5</ele>
        <time>2017-05-14T08:59:09Z</time>
      </trkpt>
      <trkpt lat="49.27085" lon="0.12865">
        <ele>119.6</ele>
        <time>2017-05-14T08:59:10Z</time>
      </trkpt>
      <trkpt lat="49.27081" lon="0.12868">
        <ele>119.7</ele>
        <time>2017-05-14T08:59:11Z</time>
      </trkpt>
      <trkpt lat="49.27076" lon="0.1287">
        <ele>119.8</ele>
        <time>2017-05-14T08:59:12Z</time>
      </trkpt>
      <trkpt lat="49.27072" lon="0.12871">
        <ele>119.9</ele>
        <time>2017-05-14T08:59:13Z</time>
      </trkpt>
      <trkpt lat="49.27069" lon="0.12873">
        <ele>119.9</ele>
        <time>2017-05-14T08:59:14Z</time>
      </trkpt>
      <trkpt lat="49.27063" lon="0.12878">
        <ele>120.2</ele>
        <time>2017-05-14T08:59:17Z</time>
      </trkpt>
      <trkpt lat="49.27059" lon="0.12884">
        <ele>120.6</ele>
        <time>2017-05-14T08:59:18Z</time>
      </trkpt>
      <trkpt lat="49.27056" lon="0.1289">
        <ele>120.9</ele>
        <time>2017-05-14T08:59:19Z</time>
      </trkpt>
      <trkpt lat="49.2705" lon="0.12899">
        <ele>121.2</ele>
        <time>2017-05-14T08:59:20Z</time>
      </trkpt>
      <trkpt lat="49.27047" lon="0.12908">
        <ele>121.3</ele>
        <time>2017-05-14T08:59:21Z</time>
      </trkpt>
      <trkpt lat="49.27044" lon="0.12915">
        <ele>121.3</ele>
        <time>2017-05-14T08:59:22Z</time>
      </trkpt>
      <trkpt lat="49.27042" lon="0.1292">
        <ele>121.4</ele>
        <time>2017-05-14T08:59:23Z</time>
      </trkpt>
      <trkpt lat="49.2704" lon="0.12924">
        <ele>121.4</ele>
        <time>2017-05-14T08:59:24Z</time>
      </trkpt>
      <trkpt lat="49.27037" lon="0.1293">
        <ele>121.4</ele>
        <time>2017-05-14T08:59:25Z</time>
      </trkpt>
      <trkpt lat="49.27035" lon="0.12935">
        <ele>121.4</ele>
        <time>2017-05-14T08:59:26Z</time>
      </trkpt>
      <trkpt lat="49.27033" lon="0.12942">
        <ele>121.4</ele>
        <time>2017-05-14T08:59:27Z</time>
      </trkpt>
      <trkpt lat="49.27031" lon="0.1295">
        <ele>121.3</ele>
        <time>2017-05-14T08:59:28Z</time>
      </trkpt>
      <trkpt lat="49.27028" lon="0.1296">
        <ele>121.2</ele>
        <time>2017-05-14T08:59:29Z</time>
      </trkpt>
      <trkpt lat="49.27025" lon="0.12968">
        <ele>121.1</ele>
        <time>2017-05-14T08:59:30Z</time>
      </trkpt>
      <trkpt lat="49.27023" lon="0.12977">
        <ele>121</ele>
        <time>2017-05-14T08:59:31Z</time>
      </trkpt>
      <trkpt lat="49.27022" lon="0.12987">
        <ele>120.9</ele>
        <time>2017-05-14T08:59:32Z</time>
      </trkpt>
      <trkpt lat="49.2702" lon="0.12997">
        <ele>120.8</ele>
        <time>2017-05-14T08:59:33Z</time>
      </trkpt>
      <trkpt lat="49.27019" lon="0.13007">
        <ele>120.6</ele>
        <time>2017-05-14T08:59:34Z</time>
      </trkpt>
      <trkpt lat="49.27018" lon="0.13015">
        <ele>120.4</ele>
        <time>2017-05-14T08:59:35Z</time>
      </trkpt>
      <trkpt lat="49.27018" lon="0.13021">
        <ele>120.2</ele>
        <time>2017-05-14T08:59:36Z</time>
      </trkpt>
      <trkpt lat="49.27019" lon="0.13026">
        <ele>120</ele>
        <time>2017-05-14T08:59:37Z</time>
      </trkpt>
      <trkpt lat="49.27019" lon="0.13033">
        <ele>119.7</ele>
        <time>2017-05-14T08:59:38Z</time>
      </trkpt>
      <trkpt lat="49.27019" lon="0.1304">
        <ele>119.4</ele>
        <time>2017-05-14T08:59:39Z</time>
      </trkpt>
      <trkpt lat="49.27019" lon="0.13048">
        <ele>119</ele>
        <time>2017-05-14T08:59:40Z</time>
      </trkpt>
      <trkpt lat="49.27019" lon="0.13053">
        <ele>118.7</ele>
        <time>2017-05-14T08:59:41Z</time>
      </trkpt>
      <trkpt lat="49.27019" lon="0.13058">
        <ele>118.3</ele>
        <time>2017-05-14T08:59:42Z</time>
      </trkpt>
      <trkpt lat="49.2702" lon="0.13063">
        <ele>118</ele>
        <time>2017-05-14T08:59:43Z</time>
      </trkpt>
      <trkpt lat="49.2702" lon="0.13067">
        <ele>117.6</ele>
        <time>2017-05-14T08:59:44Z</time>
      </trkpt>
      <trkpt lat="49.2702" lon="0.13073">
        <ele>116.9</ele>
        <time>2017-05-14T08:59:45Z</time>
      </trkpt>
      <trkpt lat="49.27019" lon="0.1308">
        <ele>116.5</ele>
        <time>2017-05-14T08:59:46Z</time>
      </trkpt>
      <trkpt lat="49.27019" lon="0.13086">
        <ele>116.1</ele>
        <time>2017-05-14T08:59:47Z</time>
      </trkpt>
      <trkpt lat="49.27018" lon="0.13092">
        <ele>116.4</ele>
        <time>2017-05-14T08:59:48Z</time>
      </trkpt>
      <trkpt lat="49.27016" lon="0.13097">
        <ele>116.1</ele>
        <time>2017-05-14T08:59:49Z</time>
      </trkpt>
      <trkpt lat="49.27013" lon="0.13104">
        <ele>116.4</ele>
        <time>2017-05-14T08:59:50Z</time>
      </trkpt>
      <trkpt lat="49.27011" lon="0.1311">
        <ele>116.7</ele>
        <time>2017-05-14T08:59:51Z</time>
      </trkpt>
      <trkpt lat="49.27008" lon="0.13116">
        <ele>116.9</ele>
        <time>2017-05-14T08:59:52Z</time>
      </trkpt>
      <trkpt lat="49.27006" lon="0.13122">
        <ele>117.2</ele>
        <time>2017-05-14T08:59:53Z</time>
      </trkpt>
      <trkpt lat="49.27005" lon="0.13128">
        <ele>117</ele>
        <time>2017-05-14T08:59:54Z</time>
      </trkpt>
      <trkpt lat="49.27003" lon="0.13131">
        <ele>117.3</ele>
        <time>2017-05-14T08:59:55Z</time>
      </trkpt>
      <trkpt lat="49.27002" lon="0.13137">
        <ele>117.8</ele>
        <time>2017-05-14T08:59:56Z</time>
      </trkpt>
      <trkpt lat="49.27" lon="0.13141">
        <ele>117.7</ele>
        <time>2017-05-14T08:59:57Z</time>
      </trkpt>
      <trkpt lat="49.26999" lon="0.13146">
        <ele>118</ele>
        <time>2017-05-14T08:59:58Z</time>
      </trkpt>
      <trkpt lat="49.26998" lon="0.13151">
        <ele>117.9</ele>
        <time>2017-05-14T08:59:59Z</time>
      </trkpt>
      <trkpt lat="49.26998" lon="0.13156">
        <ele>117.8</ele>
        <time>2017-05-14T09:00:00Z</time>
      </trkpt>
      <trkpt lat="49.26997" lon="0.13163">
        <ele>118</ele>
        <time>2017-05-14T09:00:01Z</time>
      </trkpt>
      <trkpt lat="49.26998" lon="0.1317">
        <ele>117.9</ele>
        <time>2017-05-14T09:00:02Z</time>
      </trkpt>
      <trkpt lat="49.26998" lon="0.13175">
        <ele>117.9</ele>
        <time>2017-05-14T09:00:03Z</time>
      </trkpt>
      <trkpt lat="49.26998" lon="0.1318">
        <ele>118</ele>
        <time>2017-05-14T09:00:04Z</time>
      </trkpt>
      <trkpt lat="49.26998" lon="0.13188">
        <ele>117.9</ele>
        <time>2017-05-14T09:00:05Z</time>
      </trkpt>
      <trkpt lat="49.26998" lon="0.13193">
        <ele>118.1</ele>
        <time>2017-05-14T09:00:06Z</time>
      </trkpt>
      <trkpt lat="49.26998" lon="0.13201">
        <ele>118</ele>
        <time>2017-05-14T09:00:08Z</time>
      </trkpt>
      <trkpt lat="49.26999" lon="0.13205">
        <ele>118</ele>
        <time>2017-05-14T09:00:09Z</time>
      </trkpt>
      <trkpt lat="49.27" lon="0.13211">
        <ele>117.7</ele>
        <time>2017-05-14T09:00:10Z</time>
      </trkpt>
      <trkpt lat="49.27001" lon="0.13218">
        <ele>117.6</ele>
        <time>2017-05-14T09:00:11Z</time>
      </trkpt>
      <trkpt lat="49.27001" lon="0.13227">
        <ele>117.6</ele>
        <time>2017-05-14T09:00:12Z</time>
      </trkpt>
      <trkpt lat="49.27001" lon="0.13235">
        <ele>117.6</ele>
        <time>2017-05-14T09:00:13Z</time>
      </trkpt>
      <trkpt lat="49.27002" lon="0.13241">
        <ele>117.6</ele>
        <time>2017-05-14T09:00:14Z</time>
      </trkpt>
      <trkpt lat="49.27003" lon="0.1325">
        <ele>117.6</ele>
        <time>2017-05-14T09:00:15Z</time>
      </trkpt>
      <trkpt lat="49.27003" lon="0.1326">
        <ele>117.6</ele>
        <time>2017-05-14T09:00:16Z</time>
      </trkpt>
      <trkpt lat="49.27004" lon="0.13269">
        <ele>117.7</ele>
        <time>2017-05-14T09:00:17Z</time>
      </trkpt>
      <trkpt lat="49.27005" lon="0.13278">
        <ele>117.7</ele>
        <time>2017-05-14T09:00:18Z</time>
      </trkpt>
      <trkpt lat="49.27004" lon="0.13284">
        <ele>117.7</ele>
        <time>2017-05-14T09:00:19Z</time>
      </trkpt>
      <trkpt lat="49.27004" lon="0.1329">
        <ele>117.8</ele>
        <time>2017-05-14T09:00:20Z</time>
      </trkpt>
      <trkpt lat="49.27004" lon="0.13298">
        <ele>117.8</ele>
        <time>2017-05-14T09:00:21Z</time>
      </trkpt>
      <trkpt lat="49.27003" lon="0.13309">
        <ele>117.8</ele>
        <time>2017-05-14T09:00:22Z</time>
      </trkpt>
      <trkpt lat="49.27003" lon="0.13317">
        <ele>117.9</ele>
        <time>2017-05-14T09:00:23Z</time>
      </trkpt>
      <trkpt lat="49.27003" lon="0.13325">
        <ele>118.1</ele>
        <time>2017-05-14T09:00:24Z</time>
      </trkpt>
      <trkpt lat="49.27003" lon="0.13332">
        <ele>118.2</ele>
        <time>2017-05-14T09:00:25Z</time>
      </trkpt>
      <trkpt lat="49.27003" lon="0.1334">
        <ele>118.4</ele>
        <time>2017-05-14T09:00:26Z</time>
      </trkpt>
      <trkpt lat="49.27003" lon="0.13347">
        <ele>118.6</ele>
        <time>2017-05-14T09:00:27Z</time>
      </trkpt>
      <trkpt lat="49.27002" lon="0.13353">
        <ele>118.8</ele>
        <time>2017-05-14T09:00:28Z</time>
      </trkpt>
      <trkpt lat="49.27001" lon="0.1336">
        <ele>118.9</ele>
        <time>2017-05-14T09:00:29Z</time>
      </trkpt>
      <trkpt lat="49.27" lon="0.13366">
        <ele>119</ele>
        <time>2017-05-14T09:00:30Z</time>
      </trkpt>
      <trkpt lat="49.26998" lon="0.13373">
        <ele>119</ele>
        <time>2017-05-14T09:00:31Z</time>
      </trkpt>
      <trkpt lat="49.26997" lon="0.1338">
        <ele>119.1</ele>
        <time>2017-05-14T09:00:32Z</time>
      </trkpt>
      <trkpt lat="49.26996" lon="0.13387">
        <ele>119.1</ele>
        <time>2017-05-14T09:00:33Z</time>
      </trkpt>
      <trkpt lat="49.26995" lon="0.13393">
        <ele>119.1</ele>
        <time>2017-05-14T09:00:34Z</time>
      </trkpt>
      <trkpt lat="49.26994" lon="0.13399">
        <ele>119.2</ele>
        <time>2017-05-14T09:00:35Z</time>
      </trkpt>
      <trkpt lat="49.26993" lon="0.13406">
        <ele>119.2</ele>
        <time>2017-05-14T09:00:36Z</time>
      </trkpt>
      <trkpt lat="49.26992" lon="0.13412">
        <ele>119.2</ele>
        <time>2017-05-14T09:00:37Z</time>
      </trkpt>
      <trkpt lat="49.26992" lon="0.13418">
        <ele>119.3</ele>
        <time>2017-05-14T09:00:38Z</time>
      </trkpt>
      <trkpt lat="49.2699" lon="0.13425">
        <ele>119.3</ele>
        <time>2017-05-14T09:00:39Z</time>
      </trkpt>
      <trkpt lat="49.2699" lon="0.13433">
        <ele>119.3</ele>
        <time>2017-05-14T09:00:40Z</time>
      </trkpt>
      <trkpt lat="49.26989" lon="0.13441">
        <ele>119.3</ele>
        <time>2017-05-14T09:00:41Z</time>
      </trkpt>
      <trkpt lat="49.26988" lon="0.13448">
        <ele>119.3</ele>
        <time>2017-05-14T09:00:42Z</time>
      </trkpt>
      <trkpt lat="49.26987" lon="0.13456">
        <ele>119.3</ele>
        <time>2017-05-14T09:00:43Z</time>
      </trkpt>
      <trkpt lat="49.26986" lon="0.13463">
        <ele>119.3</ele>
        <time>2017-05-14T09:00:44Z</time>
      </trkpt>
      <trkpt lat="49.26986" lon="0.1347">
        <ele>119.3</ele>
        <time>2017-05-14T09:00:45Z</time>
      </trkpt>
      <trkpt lat="49.26985" lon="0.13478">
        <ele>119.3</ele>
        <time>2017-05-14T09:00:46Z</time>
      </trkpt>
      <trkpt lat="49.26985" lon="0.13486">
        <ele>119.3</ele>
        <time>2017-05-14T09:00:47Z</time>
      </trkpt>
      <trkpt lat="49.26984" lon="0.13493">
        <ele>119.3</ele>
        <time>2017-05-14T09:00:48Z</time>
      </trkpt>
      <trkpt lat="49.26983" lon="0.13501">
        <ele>119.2</ele>
        <time>2017-05-14T09:00:49Z</time>
      </trkpt>
      <trkpt lat="49.26983" lon="0.1351">
        <ele>119.2</ele>
        <time>2017-05-14T09:00:50Z</time>
      </trkpt>
      <trkpt lat="49.26983" lon="0.13519">
        <ele>119.2</ele>
        <time>2017-05-14T09:00:52Z</time>
      </trkpt>
      <trkpt lat="49.26983" lon="0.13524">
        <ele>119.2</ele>
        <time>2017-05-14T09:00:53Z</time>
      </trkpt>
      <trkpt lat="49.26982" lon="0.1353">
        <ele>119.2</ele>
        <time>2017-05-14T09:00:54Z</time>
      </trkpt>
      <trkpt lat="49.26982" lon="0.13537">
        <ele>119.2</ele>
        <time>2017-05-14T09:00:55Z</time>
      </trkpt>
      <trkpt lat="49.26982" lon="0.13546">
        <ele>119.2</ele>
        <time>2017-05-14T09:00:56Z</time>
      </trkpt>
      <trkpt lat="49.26983" lon="0.13557">
        <ele>119.2</ele>
        <time>2017-05-14T09:00:57Z</time>
      </trkpt>
      <trkpt lat="49.26983" lon="0.13566">
        <ele>119.2</ele>
        <time>2017-05-14T09:00:58Z</time>
      </trkpt>
      <trkpt lat="49.26984" lon="0.13575">
        <ele>119.2</ele>
        <time>2017-05-14T09:00:59Z</time>
      </trkpt>
      <trkpt lat="49.26985" lon="0.13583">
        <ele>119.1</ele>
        <time>2017-05-14T09:01:00Z</time>
      </trkpt>
      <trkpt lat="49.26988" lon="0.13593">
        <ele>119.1</ele>
        <time>2017-05-14T09:01:01Z</time>
      </trkpt>
      <trkpt lat="49.26991" lon="0.13602">
        <ele>119.1</ele>
        <time>2017-05-14T09:01:02Z</time>
      </trkpt>
      <trkpt lat="49.26992" lon="0.13612">
        <ele>119.1</ele>
        <time>2017-05-14T09:01:03Z</time>
      </trkpt>
      <trkpt lat="49.26994" lon="0.13619">
        <ele>119.1</ele>
        <time>2017-05-14T09:01:04Z</time>
      </trkpt>
      <trkpt lat="49.26998" lon="0.13629">
        <ele>119.1</ele>
        <time>2017-05-14T09:01:05Z</time>
      </trkpt>
      <trkpt lat="49.27001" lon="0.13636">
        <ele>119.1</ele>
        <time>2017-05-14T09:01:06Z</time>
      </trkpt>
      <trkpt lat="49.27004" lon="0.13641">
        <ele>119.1</ele>
        <time>2017-05-14T09:01:07Z</time>
      </trkpt>
      <trkpt lat="49.27007" lon="0.1365">
        <ele>119.1</ele>
        <time>2017-05-14T09:01:08Z</time>
      </trkpt>
      <trkpt lat="49.27009" lon="0.13658">
        <ele>119</ele>
        <time>2017-05-14T09:01:09Z</time>
      </trkpt>
      <trkpt lat="49.27011" lon="0.13668">
        <ele>119</ele>
        <time>2017-05-14T09:01:10Z</time>
      </trkpt>
      <trkpt lat="49.27014" lon="0.13676">
        <ele>119</ele>
        <time>2017-05-14T09:01:11Z</time>
      </trkpt>
      <trkpt lat="49.27015" lon="0.1368">
        <ele>119</ele>
        <time>2017-05-14T09:01:12Z</time>
      </trkpt>
      <trkpt lat="49.27017" lon="0.13685">
        <ele>119</ele>
        <time>2017-05-14T09:01:15Z</time>
      </trkpt>
      <trkpt lat="49.27019" lon="0.13689">
        <ele>119</ele>
        <time>2017-05-14T09:01:16Z</time>
      </trkpt>
      <trkpt lat="49.27022" lon="0.13694">
        <ele>119</ele>
        <time>2017-05-14T09:01:17Z</time>
      </trkpt>
      <trkpt lat="49.27025" lon="0.13698">
        <ele>119.1</ele>
        <time>2017-05-14T09:01:18Z</time>
      </trkpt>
      <trkpt lat="49.27028" lon="0.13703">
        <ele>119.1</ele>
        <time>2017-05-14T09:01:19Z</time>
      </trkpt>
      <trkpt lat="49.27031" lon="0.13707">
        <ele>119.2</ele>
        <time>2017-05-14T09:01:20Z</time>
      </trkpt>
      <trkpt lat="49.27033" lon="0.13712">
        <ele>119.3</ele>
        <time>2017-05-14T09:01:21Z</time>
      </trkpt>
      <trkpt lat="49.27035" lon="0.13718">
        <ele>119.3</ele>
        <time>2017-05-14T09:01:22Z</time>
      </trkpt>
      <trkpt lat="49.27038" lon="0.13722">
        <ele>119.4</ele>
        <time>2017-05-14T09:01:23Z</time>
      </trkpt>
      <trkpt lat="49.2704" lon="0.13728">
        <ele>119.5</ele>
        <time>2017-05-14T09:01:24Z</time>
      </trkpt>
      <trkpt lat="49.27042" lon="0.13732">
        <ele>119.6</ele>
        <time>2017-05-14T09:01:25Z</time>
      </trkpt>
      <trkpt lat="49.27045" lon="0.13738">
        <ele>119.7</ele>
        <time>2017-05-14T09:01:26Z</time>
      </trkpt>
      <trkpt lat="49.27048" lon="0.13745">
        <ele>119.8</ele>
        <time>2017-05-14T09:01:27Z</time>
      </trkpt>
      <trkpt lat="49.2705" lon="0.1375">
        <ele>119.9</ele>
        <time>2017-05-14T09:01:28Z</time>
      </trkpt>
      <trkpt lat="49.27053" lon="0.13756">
        <ele>120</ele>
        <time>2017-05-14T09:01:29Z</time>
      </trkpt>
      <trkpt lat="49.27056" lon="0.13762">
        <ele>120.1</ele>
        <time>2017-05-14T09:01:30Z</time>
      </trkpt>
      <trkpt lat="49.27059" lon="0.13768">
        <ele>120.4</ele>
        <time>2017-05-14T09:01:31Z</time>
      </trkpt>
      <trkpt lat="49.27061" lon="0.13773">
        <ele>120.7</ele>
        <time>2017-05-14T09:01:32Z</time>
      </trkpt>
      <trkpt lat="49.27065" lon="0.13782">
        <ele>121.1</ele>
        <time>2017-05-14T09:01:34Z</time>
      </trkpt>
      <trkpt lat="49.27067" lon="0.13791">
        <ele>121.3</ele>
        <time>2017-05-14T09:01:35Z</time>
      </trkpt>
      <trkpt lat="49.27069" lon="0.13798">
        <ele>121.3</ele>
        <time>2017-05-14T09:01:36Z</time>
      </trkpt>
      <trkpt lat="49.2707" lon="0.13805">
        <ele>121.4</ele>
        <time>2017-05-14T09:01:37Z</time>
      </trkpt>
      <trkpt lat="49.27071" lon="0.13812">
        <ele>121.4</ele>
        <time>2017-05-14T09:01:38Z</time>
      </trkpt>
      <trkpt lat="49.27072" lon="0.1382">
        <ele>121.5</ele>
        <time>2017-05-14T09:01:39Z</time>
      </trkpt>
      <trkpt lat="49.27074" lon="0.13829">
        <ele>121.5</ele>
        <time>2017-05-14T09:01:40Z</time>
      </trkpt>
      <trkpt lat="49.27074" lon="0.13836">
        <ele>121.6</ele>
        <time>2017-05-14T09:01:41Z</time>
      </trkpt>
      <trkpt lat="49.27075" lon="0.13842">
        <ele>121.6</ele>
        <time>2017-05-14T09:01:42Z</time>
      </trkpt>
      <trkpt lat="49.27076" lon="0.13853">
        <ele>121.6</ele>
        <time>2017-05-14T09:01:43Z</time>
      </trkpt>
      <trkpt lat="49.27077" lon="0.13862">
        <ele>121.7</ele>
        <time>2017-05-14T09:01:44Z</time>
      </trkpt>
      <trkpt lat="49.27077" lon="0.13873">
        <ele>121.7</ele>
        <time>2017-05-14T09:01:45Z</time>
      </trkpt>
      <trkpt lat="49.27079" lon="0.13881">
        <ele>121.7</ele>
        <time>2017-05-14T09:01:46Z</time>
      </trkpt>
      <trkpt lat="49.2708" lon="0.13887">
        <ele>121.7</ele>
        <time>2017-05-14T09:01:47Z</time>
      </trkpt>
      <trkpt lat="49.27081" lon="0.13894">
        <ele>121.8</ele>
        <time>2017-05-14T09:01:48Z</time>
      </trkpt>
      <trkpt lat="49.27081" lon="0.13902">
        <ele>121.8</ele>
        <time>2017-05-14T09:01:49Z</time>
      </trkpt>
      <trkpt lat="49.27083" lon="0.13911">
        <ele>121.8</ele>
        <time>2017-05-14T09:01:50Z</time>
      </trkpt>
      <trkpt lat="49.27084" lon="0.13919">
        <ele>121.8</ele>
        <time>2017-05-14T09:01:51Z</time>
      </trkpt>
      <trkpt lat="49.27085" lon="0.13926">
        <ele>121.8</ele>
        <time>2017-05-14T09:01:52Z</time>
      </trkpt>
      <trkpt lat="49.27087" lon="0.13932">
        <ele>121.9</ele>
        <time>2017-05-14T09:01:53Z</time>
      </trkpt>
      <trkpt lat="49.27088" lon="0.13939">
        <ele>121.9</ele>
        <time>2017-05-14T09:01:54Z</time>
      </trkpt>
      <trkpt lat="49.2709" lon="0.13949">
        <ele>121.9</ele>
        <time>2017-05-14T09:01:55Z</time>
      </trkpt>
      <trkpt lat="49.27091" lon="0.13961">
        <ele>121.9</ele>
        <time>2017-05-14T09:01:56Z</time>
      </trkpt>
      <trkpt lat="49.27092" lon="0.1397">
        <ele>122</ele>
        <time>2017-05-14T09:01:57Z</time>
      </trkpt>
      <trkpt lat="49.27093" lon="0.13979">
        <ele>122</ele>
        <time>2017-05-14T09:01:58Z</time>
      </trkpt>
      <trkpt lat="49.27094" lon="0.13988">
        <ele>122</ele>
        <time>2017-05-14T09:01:59Z</time>
      </trkpt>
      <trkpt lat="49.27094" lon="0.13999">
        <ele>122</ele>
        <time>2017-05-14T09:02:00Z</time>
      </trkpt>
      <trkpt lat="49.27094" lon="0.14008">
        <ele>122.1</ele>
        <time>2017-05-14T09:02:01Z</time>
      </trkpt>
      <trkpt lat="49.27093" lon="0.14017">
        <ele>122.1</ele>
        <time>2017-05-14T09:02:02Z</time>
      </trkpt>
      <trkpt lat="49.27093" lon="0.14026">
        <ele>122.1</ele>
        <time>2017-05-14T09:02:03Z</time>
      </trkpt>
      <trkpt lat="49.27094" lon="0.14038">
        <ele>122.2</ele>
        <time>2017-05-14T09:02:04Z</time>
      </trkpt>
      <trkpt lat="49.27094" lon="0.14046">
        <ele>122.2</ele>
        <time>2017-05-14T09:02:05Z</time>
      </trkpt>
      <trkpt lat="49.27095" lon="0.14055">
        <ele>122.3</ele>
        <time>2017-05-14T09:02:06Z</time>
      </trkpt>
      <trkpt lat="49.27096" lon="0.14065">
        <ele>122.3</ele>
        <time>2017-05-14T09:02:07Z</time>
      </trkpt>
      <trkpt lat="49.27098" lon="0.14073">
        <ele>122.3</ele>
        <time>2017-05-14T09:02:08Z</time>
      </trkpt>
      <trkpt lat="49.27098" lon="0.14082">
        <ele>122.3</ele>
        <time>2017-05-14T09:02:09Z</time>
      </trkpt>
      <trkpt lat="49.27099" lon="0.14091">
        <ele>122.3</ele>
        <time>2017-05-14T09:02:10Z</time>
      </trkpt>
      <trkpt lat="49.27101" lon="0.14099">
        <ele>122.4</ele>
        <time>2017-05-14T09:02:11Z</time>
      </trkpt>
      <trkpt lat="49.27102" lon="0.14108">
        <ele>122.4</ele>
        <time>2017-05-14T09:02:12Z</time>
      </trkpt>
      <trkpt lat="49.27103" lon="0.14116">
        <ele>122.4</ele>
        <time>2017-05-14T09:02:13Z</time>
      </trkpt>
      <trkpt lat="49.27104" lon="0.14124">
        <ele>122.4</ele>
        <time>2017-05-14T09:02:14Z</time>
      </trkpt>
      <trkpt lat="49.27105" lon="0.14133">
        <ele>122.4</ele>
        <time>2017-05-14T09:02:15Z</time>
      </trkpt>
      <trkpt lat="49.27107" lon="0.14144">
        <ele>122.5</ele>
        <time>2017-05-14T09:02:16Z</time>
      </trkpt>
      <trkpt lat="49.27108" lon="0.14153">
        <ele>122.5</ele>
        <time>2017-05-14T09:02:17Z</time>
      </trkpt>
      <trkpt lat="49.2711" lon="0.14162">
        <ele>122.5</ele>
        <time>2017-05-14T09:02:18Z</time>
      </trkpt>
      <trkpt lat="49.27112" lon="0.14173">
        <ele>122.5</ele>
        <time>2017-05-14T09:02:19Z</time>
      </trkpt>
      <trkpt lat="49.27115" lon="0.14187">
        <ele>122.6</ele>
        <time>2017-05-14T09:02:20Z</time>
      </trkpt>
      <trkpt lat="49.27117" lon="0.14197">
        <ele>122.6</ele>
        <time>2017-05-14T09:02:21Z</time>
      </trkpt>
      <trkpt lat="49.2712" lon="0.14208">
        <ele>122.7</ele>
        <time>2017-05-14T09:02:22Z</time>
      </trkpt>
      <trkpt lat="49.27123" lon="0.14218">
        <ele>122.7</ele>
        <time>2017-05-14T09:02:23Z</time>
      </trkpt>
      <trkpt lat="49.27126" lon="0.14227">
        <ele>122.7</ele>
        <time>2017-05-14T09:02:24Z</time>
      </trkpt>
      <trkpt lat="49.27129" lon="0.14236">
        <ele>122.7</ele>
        <time>2017-05-14T09:02:25Z</time>
      </trkpt>
      <trkpt lat="49.27133" lon="0.14245">
        <ele>122.7</ele>
        <time>2017-05-14T09:02:26Z</time>
      </trkpt>
      <trkpt lat="49.27136" lon="0.14256">
        <ele>122.8</ele>
        <time>2017-05-14T09:02:27Z</time>
      </trkpt>
      <trkpt lat="49.27139" lon="0.14266">
        <ele>122.8</ele>
        <time>2017-05-14T09:02:28Z</time>
      </trkpt>
      <trkpt lat="49.27143" lon="0.14278">
        <ele>122.8</ele>
        <time>2017-05-14T09:02:29Z</time>
      </trkpt>
      <trkpt lat="49.27145" lon="0.14288">
        <ele>122.9</ele>
        <time>2017-05-14T09:02:30Z</time>
      </trkpt>
      <trkpt lat="49.27146" lon="0.14301">
        <ele>122.9</ele>
        <time>2017-05-14T09:02:31Z</time>
      </trkpt>
      <trkpt lat="49.27147" lon="0.14313">
        <ele>122.9</ele>
        <time>2017-05-14T09:02:32Z</time>
      </trkpt>
      <trkpt lat="49.27147" lon="0.14323">
        <ele>123</ele>
        <time>2017-05-14T09:02:33Z</time>
      </trkpt>
      <trkpt lat="49.27146" lon="0.14334">
        <ele>123</ele>
        <time>2017-05-14T09:02:34Z</time>
      </trkpt>
      <trkpt lat="49.27145" lon="0.14345">
        <ele>123</ele>
        <time>2017-05-14T09:02:35Z</time>
      </trkpt>
      <trkpt lat="49.27146" lon="0.14356">
        <ele>123.1</ele>
        <time>2017-05-14T09:02:36Z</time>
      </trkpt>
      <trkpt lat="49.27147" lon="0.14368">
        <ele>123.1</ele>
        <time>2017-05-14T09:02:37Z</time>
      </trkpt>
      <trkpt lat="49.27148" lon="0.14379">
        <ele>123.1</ele>
        <time>2017-05-14T09:02:38Z</time>
      </trkpt>
      <trkpt lat="49.27149" lon="0.14391">
        <ele>123.2</ele>
        <time>2017-05-14T09:02:39Z</time>
      </trkpt>
      <trkpt lat="49.2715" lon="0.14404">
        <ele>123.2</ele>
        <time>2017-05-14T09:02:40Z</time>
      </trkpt>
      <trkpt lat="49.27152" lon="0.14418">
        <ele>123.2</ele>
        <time>2017-05-14T09:02:41Z</time>
      </trkpt>
      <trkpt lat="49.27155" lon="0.1443">
        <ele>123.2</ele>
        <time>2017-05-14T09:02:42Z</time>
      </trkpt>
      <trkpt lat="49.27157" lon="0.1444">
        <ele>123.2</ele>
        <time>2017-05-14T09:02:43Z</time>
      </trkpt>
      <trkpt lat="49.2716" lon="0.1445">
        <ele>123.2</ele>
        <time>2017-05-14T09:02:44Z</time>
      </trkpt>
      <trkpt lat="49.27163" lon="0.14459">
        <ele>123.2</ele>
        <time>2017-05-14T09:02:45Z</time>
      </trkpt>
      <trkpt lat="49.27164" lon="0.14468">
        <ele>123.1</ele>
        <time>2017-05-14T09:02:46Z</time>
      </trkpt>
      <trkpt lat="49.27165" lon="0.14476">
        <ele>123.1</ele>
        <time>2017-05-14T09:02:47Z</time>
      </trkpt>
      <trkpt lat="49.27165" lon="0.14485">
        <ele>123</ele>
        <time>2017-05-14T09:02:48Z</time>
      </trkpt>
      <trkpt lat="49.27165" lon="0.14495">
        <ele>122.8</ele>
        <time>2017-05-14T09:02:49Z</time>
      </trkpt>
      <trkpt lat="49.27163" lon="0.14505">
        <ele>122.6</ele>
        <time>2017-05-14T09:02:50Z</time>
      </trkpt>
      <trkpt lat="49.27161" lon="0.14515">
        <ele>122.1</ele>
        <time>2017-05-14T09:02:51Z</time>
      </trkpt>
      <trkpt lat="49.27159" lon="0.14526">
        <ele>121.7</ele>
        <time>2017-05-14T09:02:52Z</time>
      </trkpt>
      <trkpt lat="49.27157" lon="0.1454">
        <ele>121.1</ele>
        <time>2017-05-14T09:02:53Z</time>
      </trkpt>
      <trkpt lat="49.27155" lon="0.14554">
        <ele>120.5</ele>
        <time>2017-05-14T09:02:54Z</time>
      </trkpt>
      <trkpt lat="49.27153" lon="0.1457">
        <ele>120.1</ele>
        <time>2017-05-14T09:02:55Z</time>
      </trkpt>
      <trkpt lat="49.27152" lon="0.14585">
        <ele>119.8</ele>
        <time>2017-05-14T09:02:56Z</time>
      </trkpt>
      <trkpt lat="49.27152" lon="0.14598">
        <ele>119.5</ele>
        <time>2017-05-14T09:02:57Z</time>
      </trkpt>
      <trkpt lat="49.27153" lon="0.14613">
        <ele>119</ele>
        <time>2017-05-14T09:02:58Z</time>
      </trkpt>
      <trkpt lat="49.27153" lon="0.14623">
        <ele>118.4</ele>
        <time>2017-05-14T09:02:59Z</time>
      </trkpt>
      <trkpt lat="49.27152" lon="0.14632">
        <ele>117.9</ele>
        <time>2017-05-14T09:03:00Z</time>
      </trkpt>
      <trkpt lat="49.2715" lon="0.14639">
        <ele>117.5</ele>
        <time>2017-05-14T09:03:01Z</time>
      </trkpt>
      <trkpt lat="49.27148" lon="0.14644">
        <ele>117.2</ele>
        <time>2017-05-14T09:03:02Z</time>
      </trkpt>
      <trkpt lat="49.27148" lon="0.14652">
        <ele>116.8</ele>
        <time>2017-05-14T09:03:03Z</time>
      </trkpt>
      <trkpt lat="49.27144" lon="0.14662">
        <ele>116.4</ele>
        <time>2017-05-14T09:03:04Z</time>
      </trkpt>
      <trkpt lat="49.27141" lon="0.14668">
        <ele>116</ele>
        <time>2017-05-14T09:03:05Z</time>
      </trkpt>
      <trkpt lat="49.27139" lon="0.14673">
        <ele>116</ele>
        <time>2017-05-14T09:03:06Z</time>
      </trkpt>
      <trkpt lat="49.27135" lon="0.14682">
        <ele>116</ele>
        <time>2017-05-14T09:03:07Z</time>
      </trkpt>
      <trkpt lat="49.27132" lon="0.14689">
        <ele>116</ele>
        <time>2017-05-14T09:03:08Z</time>
      </trkpt>
      <trkpt lat="49.27129" lon="0.14693">
        <ele>116</ele>
        <time>2017-05-14T09:03:09Z</time>
      </trkpt>
      <trkpt lat="49.27127" lon="0.14696">
        <ele>116.1</ele>
        <time>2017-05-14T09:03:10Z</time>
      </trkpt>
      <trkpt lat="49.27124" lon="0.14698">
        <ele>116.1</ele>
        <time>2017-05-14T09:03:11Z</time>
      </trkpt>
      <trkpt lat="49.27119" lon="0.14699">
        <ele>116.3</ele>
        <time>2017-05-14T09:03:13Z</time>
      </trkpt>
      <trkpt lat="49.27115" lon="0.14699">
        <ele>116.4</ele>
        <time>2017-05-14T09:03:15Z</time>
      </trkpt>
      <trkpt lat="49.27112" lon="0.14702">
        <ele>116.5</ele>
        <time>2017-05-14T09:03:16Z</time>
      </trkpt>
      <trkpt lat="49.27107" lon="0.14704">
        <ele>116.4</ele>
        <time>2017-05-14T09:03:17Z</time>
      </trkpt>
      <trkpt lat="49.27102" lon="0.14704">
        <ele>116.6</ele>
        <time>2017-05-14T09:03:18Z</time>
      </trkpt>
      <trkpt lat="49.27095" lon="0.14706">
        <ele>116.8</ele>
        <time>2017-05-14T09:03:19Z</time>
      </trkpt>
      <trkpt lat="49.2709" lon="0.14708">
        <ele>116.9</ele>
        <time>2017-05-14T09:03:20Z</time>
      </trkpt>
      <trkpt lat="49.27085" lon="0.1471">
        <ele>117</ele>
        <time>2017-05-14T09:03:21Z</time>
      </trkpt>
      <trkpt lat="49.27081" lon="0.14711">
        <ele>117.1</ele>
        <time>2017-05-14T09:03:22Z</time>
      </trkpt>
      <trkpt lat="49.27075" lon="0.14711">
        <ele>117.1</ele>
        <time>2017-05-14T09:03:23Z</time>
      </trkpt>
      <trkpt lat="49.2707" lon="0.14711">
        <ele>117.1</ele>
        <time>2017-05-14T09:03:24Z</time>
      </trkpt>
      <trkpt lat="49.27066" lon="0.1471">
        <ele>117.2</ele>
        <time>2017-05-14T09:03:25Z</time>
      </trkpt>
      <trkpt lat="49.27063" lon="0.14709">
        <ele>117.1</ele>
        <time>2017-05-14T09:03:26Z</time>
      </trkpt>
      <trkpt lat="49.27059" lon="0.14708">
        <ele>117.2</ele>
        <time>2017-05-14T09:03:27Z</time>
      </trkpt>
      <trkpt lat="49.27056" lon="0.14708">
        <ele>117.2</ele>
        <time>2017-05-14T09:03:28Z</time>
      </trkpt>
      <trkpt lat="49.27052" lon="0.14707">
        <ele>117.2</ele>
        <time>2017-05-14T09:03:29Z</time>
      </trkpt>
      <trkpt lat="49.27049" lon="0.14707">
        <ele>117.8</ele>
        <time>2017-05-14T09:03:30Z</time>
      </trkpt>
      <trkpt lat="49.27046" lon="0.14706">
        <ele>117.9</ele>
        <time>2017-05-14T09:03:31Z</time>
      </trkpt>
      <trkpt lat="49.27041" lon="0.14706">
        <ele>118.2</ele>
        <time>2017-05-14T09:03:33Z</time>
      </trkpt>
      <trkpt lat="49.27037" lon="0.14705">
        <ele>118.3</ele>
        <time>2017-05-14T09:03:34Z</time>
      </trkpt>
      <trkpt lat="49.27032" lon="0.14704">
        <ele>118.6</ele>
        <time>2017-05-14T09:03:35Z</time>
      </trkpt>
      <trkpt lat="49.27027" lon="0.14703">
        <ele>118.8</ele>
        <time>2017-05-14T09:03:36Z</time>
      </trkpt>
      <trkpt lat="49.27021" lon="0.14701">
        <ele>119</ele>
        <time>2017-05-14T09:03:37Z</time>
      </trkpt>
      <trkpt lat="49.27017" lon="0.14699">
        <ele>119.3</ele>
        <time>2017-05-14T09:03:38Z</time>
      </trkpt>
      <trkpt lat="49.27012" lon="0.14697">
        <ele>119.5</ele>
        <time>2017-05-14T09:03:39Z</time>
      </trkpt>
      <trkpt lat="49.27008" lon="0.14696">
        <ele>119.6</ele>
        <time>2017-05-14T09:03:40Z</time>
      </trkpt>
      <trkpt lat="49.27003" lon="0.14694">
        <ele>119.7</ele>
        <time>2017-05-14T09:03:41Z</time>
      </trkpt>
      <trkpt lat="49.27" lon="0.14694">
        <ele>119.6</ele>
        <time>2017-05-14T09:03:42Z</time>
      </trkpt>
      <trkpt lat="49.26997" lon="0.14693">
        <ele>119.6</ele>
        <time>2017-05-14T09:03:43Z</time>
      </trkpt>
      <trkpt lat="49.26991" lon="0.14691">
        <ele>119.5</ele>
        <time>2017-05-14T09:03:45Z</time>
      </trkpt>
      <trkpt lat="49.26987" lon="0.1469">
        <ele>119.4</ele>
        <time>2017-05-14T09:03:46Z</time>
      </trkpt>
      <trkpt lat="49.26983" lon="0.14689">
        <ele>119.4</ele>
        <time>2017-05-14T09:03:47Z</time>
      </trkpt>
      <trkpt lat="49.26979" lon="0.14688">
        <ele>119.3</ele>
        <time>2017-05-14T09:03:48Z</time>
      </trkpt>
      <trkpt lat="49.26975" lon="0.14688">
        <ele>119.3</ele>
        <time>2017-05-14T09:03:49Z</time>
      </trkpt>
      <trkpt lat="49.2697" lon="0.14688">
        <ele>119.4</ele>
        <time>2017-05-14T09:03:50Z</time>
      </trkpt>
      <trkpt lat="49.26965" lon="0.14687">
        <ele>119.4</ele>
        <time>2017-05-14T09:03:51Z</time>
      </trkpt>
      <trkpt lat="49.26962" lon="0.14687">
        <ele>119.7</ele>
        <time>2017-05-14T09:03:52Z</time>
      </trkpt>
      <trkpt lat="49.26958" lon="0.14687">
        <ele>119.9</ele>
        <time>2017-05-14T09:03:53Z</time>
      </trkpt>
      <trkpt lat="49.26954" lon="0.14688">
        <ele>120.3</ele>
        <time>2017-05-14T09:03:55Z</time>
      </trkpt>
      <trkpt lat="49.2695" lon="0.14687">
        <ele>120.5</ele>
        <time>2017-05-14T09:03:56Z</time>
      </trkpt>
      <trkpt lat="49.26946" lon="0.14686">
        <ele>121.1</ele>
        <time>2017-05-14T09:03:57Z</time>
      </trkpt>
      <trkpt lat="49.26941" lon="0.14686">
        <ele>121.4</ele>
        <time>2017-05-14T09:03:58Z</time>
      </trkpt>
      <trkpt lat="49.26935" lon="0.14686">
        <ele>122</ele>
        <time>2017-05-14T09:03:59Z</time>
      </trkpt>
      <trkpt lat="49.26929" lon="0.14685">
        <ele>123</ele>
        <time>2017-05-14T09:04:00Z</time>
      </trkpt>
      <trkpt lat="49.26923" lon="0.14682">
        <ele>123.4</ele>
        <time>2017-05-14T09:04:01Z</time>
      </trkpt>
      <trkpt lat="49.26916" lon="0.14679">
        <ele>123.6</ele>
        <time>2017-05-14T09:04:02Z</time>
      </trkpt>
      <trkpt lat="49.26911" lon="0.14677">
        <ele>123.5</ele>
        <time>2017-05-14T09:04:03Z</time>
      </trkpt>
      <trkpt lat="49.26906" lon="0.14674">
        <ele>123.5</ele>
        <time>2017-05-14T09:04:04Z</time>
      </trkpt>
      <trkpt lat="49.26902" lon="0.14672">
        <ele>123.2</ele>
        <time>2017-05-14T09:04:05Z</time>
      </trkpt>
      <trkpt lat="49.26898" lon="0.1467">
        <ele>123.2</ele>
        <time>2017-05-14T09:04:06Z</time>
      </trkpt>
      <trkpt lat="49.26894" lon="0.14667">
        <ele>122.8</ele>
        <time>2017-05-14T09:04:07Z</time>
      </trkpt>
      <trkpt lat="49.2689" lon="0.14665">
        <ele>122.5</ele>
        <time>2017-05-14T09:04:08Z</time>
      </trkpt>
      <trkpt lat="49.26884" lon="0.14662">
        <ele>122.2</ele>
        <time>2017-05-14T09:04:09Z</time>
      </trkpt>
      <trkpt lat="49.26879" lon="0.14659">
        <ele>121.8</ele>
        <time>2017-05-14T09:04:10Z</time>
      </trkpt>
      <trkpt lat="49.26873" lon="0.14657">
        <ele>121.5</ele>
        <time>2017-05-14T09:04:11Z</time>
      </trkpt>
      <trkpt lat="49.26867" lon="0.14654">
        <ele>121</ele>
        <time>2017-05-14T09:04:12Z</time>
      </trkpt>
      <trkpt lat="49.26861" lon="0.14652">
        <ele>121</ele>
        <time>2017-05-14T09:04:13Z</time>
      </trkpt>
      <trkpt lat="49.26856" lon="0.14651">
        <ele>121</ele>
        <time>2017-05-14T09:04:14Z</time>
      </trkpt>
      <trkpt lat="49.26851" lon="0.14649">
        <ele>121.1</ele>
        <time>2017-05-14T09:04:15Z</time>
      </trkpt>
      <trkpt lat="49.26845" lon="0.14647">
        <ele>121.2</ele>
        <time>2017-05-14T09:04:16Z</time>
      </trkpt>
      <trkpt lat="49.2684" lon="0.14646">
        <ele>121.4</ele>
        <time>2017-05-14T09:04:17Z</time>
      </trkpt>
      <trkpt lat="49.26833" lon="0.14644">
        <ele>121.7</ele>
        <time>2017-05-14T09:04:18Z</time>
      </trkpt>
      <trkpt lat="49.26826" lon="0.14642">
        <ele>121.8</ele>
        <time>2017-05-14T09:04:19Z</time>
      </trkpt>
      <trkpt lat="49.2682" lon="0.14639">
        <ele>121.8</ele>
        <time>2017-05-14T09:04:20Z</time>
      </trkpt>
      <trkpt lat="49.26815" lon="0.14637">
        <ele>121.8</ele>
        <time>2017-05-14T09:04:21Z</time>
      </trkpt>
      <trkpt lat="49.2681" lon="0.14636">
        <ele>121.7</ele>
        <time>2017-05-14T09:04:22Z</time>
      </trkpt>
      <trkpt lat="49.26805" lon="0.14634">
        <ele>121.4</ele>
        <time>2017-05-14T09:04:23Z</time>
      </trkpt>
      <trkpt lat="49.268" lon="0.14633">
        <ele>121.2</ele>
        <time>2017-05-14T09:04:24Z</time>
      </trkpt>
      <trkpt lat="49.26796" lon="0.14633">
        <ele>121</ele>
        <time>2017-05-14T09:04:25Z</time>
      </trkpt>
      <trkpt lat="49.26791" lon="0.14632">
        <ele>120.9</ele>
        <time>2017-05-14T09:04:26Z</time>
      </trkpt>
      <trkpt lat="49.26787" lon="0.14632">
        <ele>120.7</ele>
        <time>2017-05-14T09:04:27Z</time>
      </trkpt>
      <trkpt lat="49.26783" lon="0.14633">
        <ele>120.6</ele>
        <time>2017-05-14T09:04:28Z</time>
      </trkpt>
      <trkpt lat="49.26779" lon="0.14633">
        <ele>120.6</ele>
        <time>2017-05-14T09:04:29Z</time>
      </trkpt>
      <trkpt lat="49.26774" lon="0.14634">
        <ele>120.6</ele>
        <time>2017-05-14T09:04:30Z</time>
      </trkpt>
      <trkpt lat="49.26768" lon="0.14636">
        <ele>120.6</ele>
        <time>2017-05-14T09:04:31Z</time>
      </trkpt>
      <trkpt lat="49.26763" lon="0.14636">
        <ele>120.6</ele>
        <time>2017-05-14T09:04:32Z</time>
      </trkpt>
      <trkpt lat="49.26758" lon="0.14637">
        <ele>120.6</ele>
        <time>2017-05-14T09:04:33Z</time>
      </trkpt>
      <trkpt lat="49.26753" lon="0.14637">
        <ele>120.6</ele>
        <time>2017-05-14T09:04:34Z</time>
      </trkpt>
      <trkpt lat="49.26749" lon="0.14637">
        <ele>120.5</ele>
        <time>2017-05-14T09:04:35Z</time>
      </trkpt>
      <trkpt lat="49.26745" lon="0.14636">
        <ele>120.5</ele>
        <time>2017-05-14T09:04:36Z</time>
      </trkpt>
      <trkpt lat="49.26739" lon="0.14637">
        <ele>120.5</ele>
        <time>2017-05-14T09:04:37Z</time>
      </trkpt>
      <trkpt lat="49.26733" lon="0.14638">
        <ele>120.5</ele>
        <time>2017-05-14T09:04:38Z</time>
      </trkpt>
      <trkpt lat="49.26727" lon="0.14638">
        <ele>120.6</ele>
        <time>2017-05-14T09:04:39Z</time>
      </trkpt>
      <trkpt lat="49.26721" lon="0.14639">
        <ele>120.8</ele>
        <time>2017-05-14T09:04:40Z</time>
      </trkpt>
      <trkpt lat="49.26714" lon="0.14639">
        <ele>121</ele>
        <time>2017-05-14T09:04:41Z</time>
      </trkpt>
      <trkpt lat="49.26707" lon="0.14638">
        <ele>121.2</ele>
        <time>2017-05-14T09:04:42Z</time>
      </trkpt>
      <trkpt lat="49.267" lon="0.14637">
        <ele>121.4</ele>
        <time>2017-05-14T09:04:43Z</time>
      </trkpt>
      <trkpt lat="49.26694" lon="0.14636">
        <ele>121.5</ele>
        <time>2017-05-14T09:04:44Z</time>
      </trkpt>
      <trkpt lat="49.26688" lon="0.14634">
        <ele>121.5</ele>
        <time>2017-05-14T09:04:45Z</time>
      </trkpt>
      <trkpt lat="49.26681" lon="0.14631">
        <ele>121.5</ele>
        <time>2017-05-14T09:04:46Z</time>
      </trkpt>
      <trkpt lat="49.26676" lon="0.14629">
        <ele>121.4</ele>
        <time>2017-05-14T09:04:47Z</time>
      </trkpt>
      <trkpt lat="49.2667" lon="0.14625">
        <ele>121.3</ele>
        <time>2017-05-14T09:04:48Z</time>
      </trkpt>
      <trkpt lat="49.26664" lon="0.14622">
        <ele>121.4</ele>
        <time>2017-05-14T09:04:49Z</time>
      </trkpt>
      <trkpt lat="49.26659" lon="0.14618">
        <ele>121.5</ele>
        <time>2017-05-14T09:04:50Z</time>
      </trkpt>
      <trkpt lat="49.26654" lon="0.14614">
        <ele>121.8</ele>
        <time>2017-05-14T09:04:51Z</time>
      </trkpt>
      <trkpt lat="49.26648" lon="0.14611">
        <ele>122</ele>
        <time>2017-05-14T09:04:52Z</time>
      </trkpt>
      <trkpt lat="49.26644" lon="0.14607">
        <ele>122.2</ele>
        <time>2017-05-14T09:04:53Z</time>
      </trkpt>
      <trkpt lat="49.26639" lon="0.14603">
        <ele>122.3</ele>
        <time>2017-05-14T09:04:54Z</time>
      </trkpt>
      <trkpt lat="49.26635" lon="0.146">
        <ele>122.4</ele>
        <time>2017-05-14T09:04:55Z</time>
      </trkpt>
      <trkpt lat="49.26631" lon="0.14596">
        <ele>122.3</ele>
        <time>2017-05-14T09:04:56Z</time>
      </trkpt>
      <trkpt lat="49.26627" lon="0.14593">
        <ele>122.3</ele>
        <time>2017-05-14T09:04:57Z</time>
      </trkpt>
      <trkpt lat="49.26622" lon="0.1459">
        <ele>122.2</ele>
        <time>2017-05-14T09:04:58Z</time>
      </trkpt>
      <trkpt lat="49.26618" lon="0.14588">
        <ele>122.1</ele>
        <time>2017-05-14T09:04:59Z</time>
      </trkpt>
      <trkpt lat="49.26613" lon="0.14584">
        <ele>122.1</ele>
        <time>2017-05-14T09:05:00Z</time>
      </trkpt>
      <trkpt lat="49.26609" lon="0.14581">
        <ele>122</ele>
        <time>2017-05-14T09:05:01Z</time>
      </trkpt>
      <trkpt lat="49.26604" lon="0.14578">
        <ele>121.9</ele>
        <time>2017-05-14T09:05:02Z</time>
      </trkpt>
      <trkpt lat="49.266" lon="0.14575">
        <ele>121.8</ele>
        <time>2017-05-14T09:05:03Z</time>
      </trkpt>
      <trkpt lat="49.26595" lon="0.14572">
        <ele>121.7</ele>
        <time>2017-05-14T09:05:04Z</time>
      </trkpt>
      <trkpt lat="49.26591" lon="0.14568">
        <ele>121.5</ele>
        <time>2017-05-14T09:05:05Z</time>
      </trkpt>
      <trkpt lat="49.26585" lon="0.14565">
        <ele>121.2</ele>
        <time>2017-05-14T09:05:06Z</time>
      </trkpt>
      <trkpt lat="49.26581" lon="0.14563">
        <ele>121.1</ele>
        <time>2017-05-14T09:05:07Z</time>
      </trkpt>
      <trkpt lat="49.26577" lon="0.14563">
        <ele>121</ele>
        <time>2017-05-14T09:05:08Z</time>
      </trkpt>
      <trkpt lat="49.26572" lon="0.14567">
        <ele>121.1</ele>
        <time>2017-05-14T09:05:09Z</time>
      </trkpt>
      <trkpt lat="49.26568" lon="0.14573">
        <ele>121.3</ele>
        <time>2017-05-14T09:05:10Z</time>
      </trkpt>
      <trkpt lat="49.26566" lon="0.14578">
        <ele>121.4</ele>
        <time>2017-05-14T09:05:11Z</time>
      </trkpt>
      <trkpt lat="49.26565" lon="0.14583">
        <ele>121.6</ele>
        <time>2017-05-14T09:05:12Z</time>
      </trkpt>
      <trkpt lat="49.26564" lon="0.14588">
        <ele>121.7</ele>
        <time>2017-05-14T09:05:13Z</time>
      </trkpt>
      <trkpt lat="49.26563" lon="0.14594">
        <ele>121.9</ele>
        <time>2017-05-14T09:05:14Z</time>
      </trkpt>
      <trkpt lat="49.26563" lon="0.14601">
        <ele>122</ele>
        <time>2017-05-14T09:05:15Z</time>
      </trkpt>
      <trkpt lat="49.26563" lon="0.14608">
        <ele>121.9</ele>
        <time>2017-05-14T09:05:16Z</time>
      </trkpt>
      <trkpt lat="49.26563" lon="0.14614">
        <ele>121.8</ele>
        <time>2017-05-14T09:05:17Z</time>
      </trkpt>
      <trkpt lat="49.26564" lon="0.14621">
        <ele>121.7</ele>
        <time>2017-05-14T09:05:18Z</time>
      </trkpt>
      <trkpt lat="49.26564" lon="0.14629">
        <ele>121.6</ele>
        <time>2017-05-14T09:05:19Z</time>
      </trkpt>
      <trkpt lat="49.26565" lon="0.14637">
        <ele>121.6</ele>
        <time>2017-05-14T09:05:20Z</time>
      </trkpt>
      <trkpt lat="49.26565" lon="0.14645">
        <ele>121.5</ele>
        <time>2017-05-14T09:05:21Z</time>
      </trkpt>
      <trkpt lat="49.26566" lon="0.14654">
        <ele>121.6</ele>
        <time>2017-05-14T09:05:22Z</time>
      </trkpt>
      <trkpt lat="49.26567" lon="0.14662">
        <ele>121.6</ele>
        <time>2017-05-14T09:05:23Z</time>
      </trkpt>
      <trkpt lat="49.26568" lon="0.1467">
        <ele>121.7</ele>
        <time>2017-05-14T09:05:24Z</time>
      </trkpt>
      <trkpt lat="49.26568" lon="0.14679">
        <ele>121.7</ele>
        <time>2017-05-14T09:05:25Z</time>
      </trkpt>
      <trkpt lat="49.26569" lon="0.14686">
        <ele>121.6</ele>
        <time>2017-05-14T09:05:26Z</time>
      </trkpt>
      <trkpt lat="49.2657" lon="0.14695">
        <ele>121.7</ele>
        <time>2017-05-14T09:05:27Z</time>
      </trkpt>
      <trkpt lat="49.2657" lon="0.14704">
        <ele>121.8</ele>
        <time>2017-05-14T09:05:28Z</time>
      </trkpt>
      <trkpt lat="49.26571" lon="0.14713">
        <ele>121.9</ele>
        <time>2017-05-14T09:05:29Z</time>
      </trkpt>
      <trkpt lat="49.26572" lon="0.14721">
        <ele>121.8</ele>
        <time>2017-05-14T09:05:30Z</time>
      </trkpt>
      <trkpt lat="49.26573" lon="0.1473">
        <ele>121.5</ele>
        <time>2017-05-14T09:05:31Z</time>
      </trkpt>
      <trkpt lat="49.26574" lon="0.14737">
        <ele>121.1</ele>
        <time>2017-05-14T09:05:32Z</time>
      </trkpt>
      <trkpt lat="49.26575" lon="0.14743">
        <ele>121</ele>
        <time>2017-05-14T09:05:33Z</time>
      </trkpt>
      <trkpt lat="49.26576" lon="0.14748">
        <ele>120.8</ele>
        <time>2017-05-14T09:05:34Z</time>
      </trkpt>
      <trkpt lat="49.26576" lon="0.14753">
        <ele>120.7</ele>
        <time>2017-05-14T09:05:35Z</time>
      </trkpt>
      <trkpt lat="49.26577" lon="0.14758">
        <ele>120.7</ele>
        <time>2017-05-14T09:05:36Z</time>
      </trkpt>
      <trkpt lat="49.26578" lon="0.14765">
        <ele>120.7</ele>
        <time>2017-05-14T09:05:37Z</time>
      </trkpt>
      <trkpt lat="49.26579" lon="0.1477">
        <ele>120.8</ele>
        <time>2017-05-14T09:05:38Z</time>
      </trkpt>
      <trkpt lat="49.26579" lon="0.14776">
        <ele>120.8</ele>
        <time>2017-05-14T09:05:39Z</time>
      </trkpt>
      <trkpt lat="49.26581" lon="0.14784">
        <ele>120.8</ele>
        <time>2017-05-14T09:05:40Z</time>
      </trkpt>
      <trkpt lat="49.26582" lon="0.14792">
        <ele>120.8</ele>
        <time>2017-05-14T09:05:41Z</time>
      </trkpt>
      <trkpt lat="49.26583" lon="0.14799">
        <ele>120.8</ele>
        <time>2017-05-14T09:05:42Z</time>
      </trkpt>
      <trkpt lat="49.26584" lon="0.14807">
        <ele>120.8</ele>
        <time>2017-05-14T09:05:43Z</time>
      </trkpt>
      <trkpt lat="49.26585" lon="0.14814">
        <ele>120.7</ele>
        <time>2017-05-14T09:05:44Z</time>
      </trkpt>
      <trkpt lat="49.26586" lon="0.14821">
        <ele>120.7</ele>
        <time>2017-05-14T09:05:45Z</time>
      </trkpt>
      <trkpt lat="49.26587" lon="0.14826">
        <ele>120.6</ele>
        <time>2017-05-14T09:05:46Z</time>
      </trkpt>
      <trkpt lat="49.26589" lon="0.14835">
        <ele>120.7</ele>
        <time>2017-05-14T09:05:47Z</time>
      </trkpt>
      <trkpt lat="49.2659" lon="0.14842">
        <ele>120.7</ele>
        <time>2017-05-14T09:05:48Z</time>
      </trkpt>
      <trkpt lat="49.26591" lon="0.14849">
        <ele>120.8</ele>
        <time>2017-05-14T09:05:49Z</time>
      </trkpt>
      <trkpt lat="49.26593" lon="0.14856">
        <ele>120.8</ele>
        <time>2017-05-14T09:05:50Z</time>
      </trkpt>
      <trkpt lat="49.26594" lon="0.14862">
        <ele>120.6</ele>
        <time>2017-05-14T09:05:51Z</time>
      </trkpt>
      <trkpt lat="49.26595" lon="0.14868">
        <ele>120.5</ele>
        <time>2017-05-14T09:05:52Z</time>
      </trkpt>
      <trkpt lat="49.26597" lon="0.14875">
        <ele>120.3</ele>
        <time>2017-05-14T09:05:53Z</time>
      </trkpt>
      <trkpt lat="49.26599" lon="0.14883">
        <ele>120.1</ele>
        <time>2017-05-14T09:05:54Z</time>
      </trkpt>
      <trkpt lat="49.26601" lon="0.14892">
        <ele>119.9</ele>
        <time>2017-05-14T09:05:55Z</time>
      </trkpt>
      <trkpt lat="49.26603" lon="0.149">
        <ele>119.9</ele>
        <time>2017-05-14T09:05:56Z</time>
      </trkpt>
      <trkpt lat="49.26604" lon="0.14908">
        <ele>119.9</ele>
        <time>2017-05-14T09:05:57Z</time>
      </trkpt>
      <trkpt lat="49.26606" lon="0.14917">
        <ele>119.9</ele>
        <time>2017-05-14T09:05:58Z</time>
      </trkpt>
      <trkpt lat="49.26607" lon="0.14925">
        <ele>120</ele>
        <time>2017-05-14T09:05:59Z</time>
      </trkpt>
      <trkpt lat="49.26609" lon="0.14932">
        <ele>120</ele>
        <time>2017-05-14T09:06:00Z</time>
      </trkpt>
      <trkpt lat="49.2661" lon="0.1494">
        <ele>120</ele>
        <time>2017-05-14T09:06:01Z</time>
      </trkpt>
      <trkpt lat="49.26612" lon="0.14949">
        <ele>120</ele>
        <time>2017-05-14T09:06:02Z</time>
      </trkpt>
      <trkpt lat="49.26613" lon="0.14958">
        <ele>119.9</ele>
        <time>2017-05-14T09:06:03Z</time>
      </trkpt>
      <trkpt lat="49.26615" lon="0.14966">
        <ele>120</ele>
        <time>2017-05-14T09:06:04Z</time>
      </trkpt>
      <trkpt lat="49.26616" lon="0.14974">
        <ele>120</ele>
        <time>2017-05-14T09:06:05Z</time>
      </trkpt>
      <trkpt lat="49.26617" lon="0.14981">
        <ele>120</ele>
        <time>2017-05-14T09:06:06Z</time>
      </trkpt>
      <trkpt lat="49.26618" lon="0.14986">
        <ele>120.1</ele>
        <time>2017-05-14T09:06:07Z</time>
      </trkpt>
      <trkpt lat="49.26619" lon="0.14993">
        <ele>120.1</ele>
        <time>2017-05-14T09:06:08Z</time>
      </trkpt>
      <trkpt lat="49.26619" lon="0.15">
        <ele>120</ele>
        <time>2017-05-14T09:06:09Z</time>
      </trkpt>
      <trkpt lat="49.2662" lon="0.15005">
        <ele>120</ele>
        <time>2017-05-14T09:06:10Z</time>
      </trkpt>
      <trkpt lat="49.2662" lon="0.1501">
        <ele>120</ele>
        <time>2017-05-14T09:06:11Z</time>
      </trkpt>
      <trkpt lat="49.26621" lon="0.15015">
        <ele>120</ele>
        <time>2017-05-14T09:06:12Z</time>
      </trkpt>
      <trkpt lat="49.26622" lon="0.15021">
        <ele>120</ele>
        <time>2017-05-14T09:06:13Z</time>
      </trkpt>
      <trkpt lat="49.26622" lon="0.15028">
        <ele>120</ele>
        <time>2017-05-14T09:06:14Z</time>
      </trkpt>
      <trkpt lat="49.26624" lon="0.15032">
        <ele>120</ele>
        <time>2017-05-14T09:06:15Z</time>
      </trkpt>
      <trkpt lat="49.26625" lon="0.15037">
        <ele>120.1</ele>
        <time>2017-05-14T09:06:16Z</time>
      </trkpt>
      <trkpt lat="49.26626" lon="0.15041">
        <ele>120.2</ele>
        <time>2017-05-14T09:06:17Z</time>
      </trkpt>
      <trkpt lat="49.26626" lon="0.15045">
        <ele>120.2</ele>
        <time>2017-05-14T09:06:18Z</time>
      </trkpt>
      <trkpt lat="49.26626" lon="0.15052">
        <ele>120.2</ele>
        <time>2017-05-14T09:06:19Z</time>
      </trkpt>
      <trkpt lat="49.26626" lon="0.15059">
        <ele>120.2</ele>
        <time>2017-05-14T09:06:20Z</time>
      </trkpt>
      <trkpt lat="49.26626" lon="0.15067">
        <ele>120.2</ele>
        <time>2017-05-14T09:06:21Z</time>
      </trkpt>
      <trkpt lat="49.26626" lon="0.15074">
        <ele>120.2</ele>
        <time>2017-05-14T09:06:22Z</time>
      </trkpt>
      <trkpt lat="49.26626" lon="0.15083">
        <ele>120.2</ele>
        <time>2017-05-14T09:06:23Z</time>
      </trkpt>
      <trkpt lat="49.26626" lon="0.15092">
        <ele>120.2</ele>
        <time>2017-05-14T09:06:24Z</time>
      </trkpt>
      <trkpt lat="49.26626" lon="0.15101">
        <ele>120.1</ele>
        <time>2017-05-14T09:06:25Z</time>
      </trkpt>
      <trkpt lat="49.26626" lon="0.1511">
        <ele>119.9</ele>
        <time>2017-05-14T09:06:26Z</time>
      </trkpt>
      <trkpt lat="49.26627" lon="0.15118">
        <ele>119.8</ele>
        <time>2017-05-14T09:06:27Z</time>
      </trkpt>
      <trkpt lat="49.26628" lon="0.15125">
        <ele>119.4</ele>
        <time>2017-05-14T09:06:28Z</time>
      </trkpt>
      <trkpt lat="49.26629" lon="0.15133">
        <ele>119</ele>
        <time>2017-05-14T09:06:29Z</time>
      </trkpt>
      <trkpt lat="49.26629" lon="0.1514">
        <ele>119.1</ele>
        <time>2017-05-14T09:06:30Z</time>
      </trkpt>
      <trkpt lat="49.2663" lon="0.15149">
        <ele>118.8</ele>
        <time>2017-05-14T09:06:31Z</time>
      </trkpt>
      <trkpt lat="49.26631" lon="0.15155">
        <ele>118.5</ele>
        <time>2017-05-14T09:06:32Z</time>
      </trkpt>
      <trkpt lat="49.26632" lon="0.15161">
        <ele>118.7</ele>
        <time>2017-05-14T09:06:33Z</time>
      </trkpt>
      <trkpt lat="49.26634" lon="0.15168">
        <ele>118.6</ele>
        <time>2017-05-14T09:06:34Z</time>
      </trkpt>
      <trkpt lat="49.26635" lon="0.15177">
        <ele>118.6</ele>
        <time>2017-05-14T09:06:35Z</time>
      </trkpt>
      <trkpt lat="49.26636" lon="0.15184">
        <ele>118.7</ele>
        <time>2017-05-14T09:06:36Z</time>
      </trkpt>
      <trkpt lat="49.26637" lon="0.15191">
        <ele>118.8</ele>
        <time>2017-05-14T09:06:37Z</time>
      </trkpt>
      <trkpt lat="49.26638" lon="0.15198">
        <ele>119</ele>
        <time>2017-05-14T09:06:38Z</time>
      </trkpt>
      <trkpt lat="49.2664" lon="0.15207">
        <ele>119.1</ele>
        <time>2017-05-14T09:06:39Z</time>
      </trkpt>
      <trkpt lat="49.26641" lon="0.15215">
        <ele>119.2</ele>
        <time>2017-05-14T09:06:40Z</time>
      </trkpt>
      <trkpt lat="49.26643" lon="0.15224">
        <ele>119</ele>
        <time>2017-05-14T09:06:41Z</time>
      </trkpt>
      <trkpt lat="49.26644" lon="0.15231">
        <ele>119</ele>
        <time>2017-05-14T09:06:42Z</time>
      </trkpt>
      <trkpt lat="49.26645" lon="0.15237">
        <ele>118.7</ele>
        <time>2017-05-14T09:06:43Z</time>
      </trkpt>
      <trkpt lat="49.26647" lon="0.15244">
        <ele>118.3</ele>
        <time>2017-05-14T09:06:44Z</time>
      </trkpt>
      <trkpt lat="49.26648" lon="0.1525">
        <ele>118.2</ele>
        <time>2017-05-14T09:06:45Z</time>
      </trkpt>
      <trkpt lat="49.26649" lon="0.15257">
        <ele>117.8</ele>
        <time>2017-05-14T09:06:46Z</time>
      </trkpt>
      <trkpt lat="49.2665" lon="0.15262">
        <ele>117.6</ele>
        <time>2017-05-14T09:06:47Z</time>
      </trkpt>
      <trkpt lat="49.26652" lon="0.1527">
        <ele>117.2</ele>
        <time>2017-05-14T09:06:48Z</time>
      </trkpt>
      <trkpt lat="49.26654" lon="0.15278">
        <ele>117.2</ele>
        <time>2017-05-14T09:06:49Z</time>
      </trkpt>
      <trkpt lat="49.26655" lon="0.15285">
        <ele>117.1</ele>
        <time>2017-05-14T09:06:50Z</time>
      </trkpt>
      <trkpt lat="49.26657" lon="0.15291">
        <ele>117.2</ele>
        <time>2017-05-14T09:06:51Z</time>
      </trkpt>
      <trkpt lat="49.26659" lon="0.15296">
        <ele>117.2</ele>
        <time>2017-05-14T09:06:52Z</time>
      </trkpt>
      <trkpt lat="49.2666" lon="0.15301">
        <ele>117.3</ele>
        <time>2017-05-14T09:06:53Z</time>
      </trkpt>
      <trkpt lat="49.26662" lon="0.15306">
        <ele>117.3</ele>
        <time>2017-05-14T09:06:54Z</time>
      </trkpt>
      <trkpt lat="49.26663" lon="0.1531">
        <ele>117.4</ele>
        <time>2017-05-14T09:06:55Z</time>
      </trkpt>
      <trkpt lat="49.26664" lon="0.15317">
        <ele>117.4</ele>
        <time>2017-05-14T09:06:56Z</time>
      </trkpt>
      <trkpt lat="49.26666" lon="0.15323">
        <ele>117.4</ele>
        <time>2017-05-14T09:06:57Z</time>
      </trkpt>
      <trkpt lat="49.26669" lon="0.15329">
        <ele>117.5</ele>
        <time>2017-05-14T09:06:58Z</time>
      </trkpt>
      <trkpt lat="49.26671" lon="0.15336">
        <ele>117.5</ele>
        <time>2017-05-14T09:06:59Z</time>
      </trkpt>
      <trkpt lat="49.26673" lon="0.15343">
        <ele>117.6</ele>
        <time>2017-05-14T09:07:00Z</time>
      </trkpt>
      <trkpt lat="49.26675" lon="0.15349">
        <ele>117.7</ele>
        <time>2017-05-14T09:07:01Z</time>
      </trkpt>
      <trkpt lat="49.26678" lon="0.15356">
        <ele>117.8</ele>
        <time>2017-05-14T09:07:02Z</time>
      </trkpt>
      <trkpt lat="49.2668" lon="0.15362">
        <ele>118</ele>
        <time>2017-05-14T09:07:03Z</time>
      </trkpt>
      <trkpt lat="49.26684" lon="0.15369">
        <ele>118.1</ele>
        <time>2017-05-14T09:07:04Z</time>
      </trkpt>
      <trkpt lat="49.26688" lon="0.15375">
        <ele>118.4</ele>
        <time>2017-05-14T09:07:05Z</time>
      </trkpt>
      <trkpt lat="49.26693" lon="0.15382">
        <ele>118.5</ele>
        <time>2017-05-14T09:07:06Z</time>
      </trkpt>
      <trkpt lat="49.26698" lon="0.15389">
        <ele>118.7</ele>
        <time>2017-05-14T09:07:07Z</time>
      </trkpt>
      <trkpt lat="49.26703" lon="0.15396">
        <ele>119</ele>
        <time>2017-05-14T09:07:08Z</time>
      </trkpt>
      <trkpt lat="49.26708" lon="0.15402">
        <ele>119.2</ele>
        <time>2017-05-14T09:07:09Z</time>
      </trkpt>
      <trkpt lat="49.26712" lon="0.15409">
        <ele>119.3</ele>
        <time>2017-05-14T09:07:10Z</time>
      </trkpt>
      <trkpt lat="49.26716" lon="0.15417">
        <ele>119.4</ele>
        <time>2017-05-14T09:07:11Z</time>
      </trkpt>
      <trkpt lat="49.2672" lon="0.15423">
        <ele>119.6</ele>
        <time>2017-05-14T09:07:12Z</time>
      </trkpt>
      <trkpt lat="49.26724" lon="0.15429">
        <ele>119.8</ele>
        <time>2017-05-14T09:07:13Z</time>
      </trkpt>
      <trkpt lat="49.26728" lon="0.15435">
        <ele>120.2</ele>
        <time>2017-05-14T09:07:14Z</time>
      </trkpt>
      <trkpt lat="49.26731" lon="0.1544">
        <ele>120.3</ele>
        <time>2017-05-14T09:07:15Z</time>
      </trkpt>
      <trkpt lat="49.26735" lon="0.15446">
        <ele>120.4</ele>
        <time>2017-05-14T09:07:16Z</time>
      </trkpt>
      <trkpt lat="49.26738" lon="0.15451">
        <ele>120.6</ele>
        <time>2017-05-14T09:07:17Z</time>
      </trkpt>
      <trkpt lat="49.26741" lon="0.15456">
        <ele>120.7</ele>
        <time>2017-05-14T09:07:18Z</time>
      </trkpt>
      <trkpt lat="49.26744" lon="0.15462">
        <ele>121.1</ele>
        <time>2017-05-14T09:07:19Z</time>
      </trkpt>
      <trkpt lat="49.26748" lon="0.15471">
        <ele>121.6</ele>
        <time>2017-05-14T09:07:20Z</time>
      </trkpt>
      <trkpt lat="49.2675" lon="0.15478">
        <ele>122.3</ele>
        <time>2017-05-14T09:07:21Z</time>
      </trkpt>
      <trkpt lat="49.26753" lon="0.15484">
        <ele>122.8</ele>
        <time>2017-05-14T09:07:22Z</time>
      </trkpt>
      <trkpt lat="49.26756" lon="0.15489">
        <ele>123</ele>
        <time>2017-05-14T09:07:23Z</time>
      </trkpt>
      <trkpt lat="49.26759" lon="0.15495">
        <ele>123.1</ele>
        <time>2017-05-14T09:07:24Z</time>
      </trkpt>
      <trkpt lat="49.26762" lon="0.155">
        <ele>123.1</ele>
        <time>2017-05-14T09:07:25Z</time>
      </trkpt>
      <trkpt lat="49.26765" lon="0.15505">
        <ele>123</ele>
        <time>2017-05-14T09:07:26Z</time>
      </trkpt>
      <trkpt lat="49.26767" lon="0.1551">
        <ele>122.8</ele>
        <time>2017-05-14T09:07:27Z</time>
      </trkpt>
      <trkpt lat="49.2677" lon="0.15515">
        <ele>122.6</ele>
        <time>2017-05-14T09:07:28Z</time>
      </trkpt>
      <trkpt lat="49.26773" lon="0.1552">
        <ele>122.5</ele>
        <time>2017-05-14T09:07:29Z</time>
      </trkpt>
      <trkpt lat="49.26776" lon="0.15527">
        <ele>122.2</ele>
        <time>2017-05-14T09:07:30Z</time>
      </trkpt>
      <trkpt lat="49.2678" lon="0.15535">
        <ele>121.9</ele>
        <time>2017-05-14T09:07:31Z</time>
      </trkpt>
      <trkpt lat="49.26783" lon="0.15541">
        <ele>121.5</ele>
        <time>2017-05-14T09:07:32Z</time>
      </trkpt>
      <trkpt lat="49.26786" lon="0.15546">
        <ele>121.5</ele>
        <time>2017-05-14T09:07:33Z</time>
      </trkpt>
      <trkpt lat="49.2679" lon="0.15554">
        <ele>121.5</ele>
        <time>2017-05-14T09:07:34Z</time>
      </trkpt>
      <trkpt lat="49.26794" lon="0.15561">
        <ele>121.5</ele>
        <time>2017-05-14T09:07:35Z</time>
      </trkpt>
      <trkpt lat="49.26797" lon="0.15567">
        <ele>121.5</ele>
        <time>2017-05-14T09:07:36Z</time>
      </trkpt>
      <trkpt lat="49.268" lon="0.15572">
        <ele>121.5</ele>
        <time>2017-05-14T09:07:37Z</time>
      </trkpt>
      <trkpt lat="49.26803" lon="0.15578">
        <ele>121.3</ele>
        <time>2017-05-14T09:07:38Z</time>
      </trkpt>
      <trkpt lat="49.26806" lon="0.15584">
        <ele>121.3</ele>
        <time>2017-05-14T09:07:39Z</time>
      </trkpt>
      <trkpt lat="49.26809" lon="0.1559">
        <ele>121.4</ele>
        <time>2017-05-14T09:07:40Z</time>
      </trkpt>
      <trkpt lat="49.26812" lon="0.15596">
        <ele>121.8</ele>
        <time>2017-05-14T09:07:41Z</time>
      </trkpt>
      <trkpt lat="49.26814" lon="0.15601">
        <ele>122</ele>
        <time>2017-05-14T09:07:42Z</time>
      </trkpt>
      <trkpt lat="49.26817" lon="0.15606">
        <ele>122.2</ele>
        <time>2017-05-14T09:07:43Z</time>
      </trkpt>
      <trkpt lat="49.26819" lon="0.1561">
        <ele>122.4</ele>
        <time>2017-05-14T09:07:44Z</time>
      </trkpt>
      <trkpt lat="49.26821" lon="0.15614">
        <ele>122.4</ele>
        <time>2017-05-14T09:07:45Z</time>
      </trkpt>
      <trkpt lat="49.26824" lon="0.15619">
        <ele>122.4</ele>
        <time>2017-05-14T09:07:46Z</time>
      </trkpt>
      <trkpt lat="49.26826" lon="0.15623">
        <ele>122.3</ele>
        <time>2017-05-14T09:07:47Z</time>
      </trkpt>
      <trkpt lat="49.26829" lon="0.1563">
        <ele>122</ele>
        <time>2017-05-14T09:07:48Z</time>
      </trkpt>
      <trkpt lat="49.26833" lon="0.15637">
        <ele>121.7</ele>
        <time>2017-05-14T09:07:49Z</time>
      </trkpt>
      <trkpt lat="49.26836" lon="0.15645">
        <ele>121.2</ele>
        <time>2017-05-14T09:07:50Z</time>
      </trkpt>
      <trkpt lat="49.26838" lon="0.1565">
        <ele>120.8</ele>
        <time>2017-05-14T09:07:51Z</time>
      </trkpt>
      <trkpt lat="49.26841" lon="0.15656">
        <ele>120.2</ele>
        <time>2017-05-14T09:07:52Z</time>
      </trkpt>
      <trkpt lat="49.26844" lon="0.15662">
        <ele>119.9</ele>
        <time>2017-05-14T09:07:53Z</time>
      </trkpt>
      <trkpt lat="49.26847" lon="0.15671">
        <ele>119.6</ele>
        <time>2017-05-14T09:07:54Z</time>
      </trkpt>
      <trkpt lat="49.2685" lon="0.1568">
        <ele>119.7</ele>
        <time>2017-05-14T09:07:55Z</time>
      </trkpt>
      <trkpt lat="49.26853" lon="0.15685">
        <ele>119.7</ele>
        <time>2017-05-14T09:07:56Z</time>
      </trkpt>
      <trkpt lat="49.26856" lon="0.15691">
        <ele>119.9</ele>
        <time>2017-05-14T09:07:57Z</time>
      </trkpt>
      <trkpt lat="49.26858" lon="0.15696">
        <ele>119.9</ele>
        <time>2017-05-14T09:07:58Z</time>
      </trkpt>
      <trkpt lat="49.26861" lon="0.15702">
        <ele>119.9</ele>
        <time>2017-05-14T09:07:59Z</time>
      </trkpt>
      <trkpt lat="49.26863" lon="0.15705">
        <ele>119.8</ele>
        <time>2017-05-14T09:08:00Z</time>
      </trkpt>
      <trkpt lat="49.26865" lon="0.15708">
        <ele>119.7</ele>
        <time>2017-05-14T09:08:01Z</time>
      </trkpt>
      <trkpt lat="49.26869" lon="0.15714">
        <ele>119.6</ele>
        <time>2017-05-14T09:08:03Z</time>
      </trkpt>
      <trkpt lat="49.26871" lon="0.15718">
        <ele>119.5</ele>
        <time>2017-05-14T09:08:04Z</time>
      </trkpt>
      <trkpt lat="49.26874" lon="0.15722">
        <ele>119.4</ele>
        <time>2017-05-14T09:08:05Z</time>
      </trkpt>
      <trkpt lat="49.26877" lon="0.15726">
        <ele>119.3</ele>
        <time>2017-05-14T09:08:07Z</time>
      </trkpt>
      <trkpt lat="49.26879" lon="0.15729">
        <ele>119.3</ele>
        <time>2017-05-14T09:08:08Z</time>
      </trkpt>
      <trkpt lat="49.26883" lon="0.15737">
        <ele>119.2</ele>
        <time>2017-05-14T09:08:09Z</time>
      </trkpt>
      <trkpt lat="49.26887" lon="0.15745">
        <ele>119.2</ele>
        <time>2017-05-14T09:08:10Z</time>
      </trkpt>
      <trkpt lat="49.26891" lon="0.15752">
        <ele>118.9</ele>
        <time>2017-05-14T09:08:11Z</time>
      </trkpt>
      <trkpt lat="49.26895" lon="0.15759">
        <ele>118.5</ele>
        <time>2017-05-14T09:08:12Z</time>
      </trkpt>
      <trkpt lat="49.26899" lon="0.15765">
        <ele>118.1</ele>
        <time>2017-05-14T09:08:13Z</time>
      </trkpt>
      <trkpt lat="49.26903" lon="0.15771">
        <ele>117.8</ele>
        <time>2017-05-14T09:08:14Z</time>
      </trkpt>
      <trkpt lat="49.26906" lon="0.15777">
        <ele>117.4</ele>
        <time>2017-05-14T09:08:15Z</time>
      </trkpt>
      <trkpt lat="49.2691" lon="0.15783">
        <ele>117.2</ele>
        <time>2017-05-14T09:08:16Z</time>
      </trkpt>
      <trkpt lat="49.26913" lon="0.15788">
        <ele>117.1</ele>
        <time>2017-05-14T09:08:17Z</time>
      </trkpt>
      <trkpt lat="49.26916" lon="0.15793">
        <ele>117.1</ele>
        <time>2017-05-14T09:08:18Z</time>
      </trkpt>
      <trkpt lat="49.2692" lon="0.15799">
        <ele>117</ele>
        <time>2017-05-14T09:08:19Z</time>
      </trkpt>
      <trkpt lat="49.26923" lon="0.15805">
        <ele>116.9</ele>
        <time>2017-05-14T09:08:20Z</time>
      </trkpt>
      <trkpt lat="49.26927" lon="0.15811">
        <ele>116.6</ele>
        <time>2017-05-14T09:08:21Z</time>
      </trkpt>
      <trkpt lat="49.2693" lon="0.15816">
        <ele>116.4</ele>
        <time>2017-05-14T09:08:22Z</time>
      </trkpt>
      <trkpt lat="49.26934" lon="0.15821">
        <ele>116.4</ele>
        <time>2017-05-14T09:08:23Z</time>
      </trkpt>
      <trkpt lat="49.26937" lon="0.15826">
        <ele>116.4</ele>
        <time>2017-05-14T09:08:24Z</time>
      </trkpt>
      <trkpt lat="49.2694" lon="0.15832">
        <ele>116.4</ele>
        <time>2017-05-14T09:08:25Z</time>
      </trkpt>
      <trkpt lat="49.26943" lon="0.15838">
        <ele>116.3</ele>
        <time>2017-05-14T09:08:26Z</time>
      </trkpt>
      <trkpt lat="49.26947" lon="0.15845">
        <ele>116.2</ele>
        <time>2017-05-14T09:08:27Z</time>
      </trkpt>
      <trkpt lat="49.2695" lon="0.15852">
        <ele>116.1</ele>
        <time>2017-05-14T09:08:28Z</time>
      </trkpt>
      <trkpt lat="49.26954" lon="0.15858">
        <ele>116.1</ele>
        <time>2017-05-14T09:08:29Z</time>
      </trkpt>
      <trkpt lat="49.26957" lon="0.15863">
        <ele>116.2</ele>
        <time>2017-05-14T09:08:30Z</time>
      </trkpt>
      <trkpt lat="49.2696" lon="0.15869">
        <ele>116.4</ele>
        <time>2017-05-14T09:08:31Z</time>
      </trkpt>
      <trkpt lat="49.26963" lon="0.15873">
        <ele>116.7</ele>
        <time>2017-05-14T09:08:32Z</time>
      </trkpt>
      <trkpt lat="49.26966" lon="0.15879">
        <ele>117.1</ele>
        <time>2017-05-14T09:08:33Z</time>
      </trkpt>
      <trkpt lat="49.26969" lon="0.15886">
        <ele>117.4</ele>
        <time>2017-05-14T09:08:34Z</time>
      </trkpt>
      <trkpt lat="49.26972" lon="0.15894">
        <ele>117.7</ele>
        <time>2017-05-14T09:08:35Z</time>
      </trkpt>
      <trkpt lat="49.26976" lon="0.15902">
        <ele>118</ele>
        <time>2017-05-14T09:08:36Z</time>
      </trkpt>
      <trkpt lat="49.26979" lon="0.15909">
        <ele>118.2</ele>
        <time>2017-05-14T09:08:37Z</time>
      </trkpt>
      <trkpt lat="49.26982" lon="0.15916">
        <ele>118.3</ele>
        <time>2017-05-14T09:08:38Z</time>
      </trkpt>
      <trkpt lat="49.26984" lon="0.15923">
        <ele>118.5</ele>
        <time>2017-05-14T09:08:39Z</time>
      </trkpt>
      <trkpt lat="49.26988" lon="0.1593">
        <ele>118.6</ele>
        <time>2017-05-14T09:08:40Z</time>
      </trkpt>
      <trkpt lat="49.26991" lon="0.15938">
        <ele>118.7</ele>
        <time>2017-05-14T09:08:41Z</time>
      </trkpt>
      <trkpt lat="49.26995" lon="0.15945">
        <ele>118.9</ele>
        <time>2017-05-14T09:08:42Z</time>
      </trkpt>
      <trkpt lat="49.26998" lon="0.15952">
        <ele>119.3</ele>
        <time>2017-05-14T09:08:43Z</time>
      </trkpt>
      <trkpt lat="49.27001" lon="0.15959">
        <ele>119.4</ele>
        <time>2017-05-14T09:08:44Z</time>
      </trkpt>
      <trkpt lat="49.27003" lon="0.15965">
        <ele>119.6</ele>
        <time>2017-05-14T09:08:45Z</time>
      </trkpt>
      <trkpt lat="49.27006" lon="0.15972">
        <ele>119.6</ele>
        <time>2017-05-14T09:08:46Z</time>
      </trkpt>
      <trkpt lat="49.27008" lon="0.15979">
        <ele>119.4</ele>
        <time>2017-05-14T09:08:47Z</time>
      </trkpt>
      <trkpt lat="49.27011" lon="0.15984">
        <ele>119.2</ele>
        <time>2017-05-14T09:08:48Z</time>
      </trkpt>
      <trkpt lat="49.27014" lon="0.15989">
        <ele>119</ele>
        <time>2017-05-14T09:08:49Z</time>
      </trkpt>
      <trkpt lat="49.27016" lon="0.15994">
        <ele>118.9</ele>
        <time>2017-05-14T09:08:50Z</time>
      </trkpt>
      <trkpt lat="49.27018" lon="0.16001">
        <ele>118.8</ele>
        <time>2017-05-14T09:08:51Z</time>
      </trkpt>
      <trkpt lat="49.27021" lon="0.16008">
        <ele>118.8</ele>
        <time>2017-05-14T09:08:52Z</time>
      </trkpt>
      <trkpt lat="49.27024" lon="0.16016">
        <ele>118.9</ele>
        <time>2017-05-14T09:08:53Z</time>
      </trkpt>
      <trkpt lat="49.27028" lon="0.16024">
        <ele>119</ele>
        <time>2017-05-14T09:08:54Z</time>
      </trkpt>
      <trkpt lat="49.27031" lon="0.16032">
        <ele>119</ele>
        <time>2017-05-14T09:08:55Z</time>
      </trkpt>
      <trkpt lat="49.27035" lon="0.16039">
        <ele>118.8</ele>
        <time>2017-05-14T09:08:56Z</time>
      </trkpt>
      <trkpt lat="49.27038" lon="0.16047">
        <ele>118.4</ele>
        <time>2017-05-14T09:08:57Z</time>
      </trkpt>
      <trkpt lat="49.27041" lon="0.16054">
        <ele>118.1</ele>
        <time>2017-05-14T09:08:58Z</time>
      </trkpt>
      <trkpt lat="49.27045" lon="0.16061">
        <ele>117.4</ele>
        <time>2017-05-14T09:08:59Z</time>
      </trkpt>
      <trkpt lat="49.27047" lon="0.16068">
        <ele>116.7</ele>
        <time>2017-05-14T09:09:00Z</time>
      </trkpt>
      <trkpt lat="49.27051" lon="0.16075">
        <ele>116.4</ele>
        <time>2017-05-14T09:09:01Z</time>
      </trkpt>
      <trkpt lat="49.27055" lon="0.16083">
        <ele>116.4</ele>
        <time>2017-05-14T09:09:02Z</time>
      </trkpt>
      <trkpt lat="49.27058" lon="0.16089">
        <ele>116.5</ele>
        <time>2017-05-14T09:09:03Z</time>
      </trkpt>
      <trkpt lat="49.27062" lon="0.16096">
        <ele>116.5</ele>
        <time>2017-05-14T09:09:04Z</time>
      </trkpt>
      <trkpt lat="49.27066" lon="0.16104">
        <ele>116.5</ele>
        <time>2017-05-14T09:09:05Z</time>
      </trkpt>
      <trkpt lat="49.2707" lon="0.16109">
        <ele>116.5</ele>
        <time>2017-05-14T09:09:06Z</time>
      </trkpt>
      <trkpt lat="49.27073" lon="0.16117">
        <ele>116.6</ele>
        <time>2017-05-14T09:09:07Z</time>
      </trkpt>
      <trkpt lat="49.27078" lon="0.16126">
        <ele>116.3</ele>
        <time>2017-05-14T09:09:08Z</time>
      </trkpt>
      <trkpt lat="49.2708" lon="0.16132">
        <ele>116</ele>
        <time>2017-05-14T09:09:09Z</time>
      </trkpt>
      <trkpt lat="49.27084" lon="0.16137">
        <ele>115.6</ele>
        <time>2017-05-14T09:09:10Z</time>
      </trkpt>
      <trkpt lat="49.27087" lon="0.16143">
        <ele>115.1</ele>
        <time>2017-05-14T09:09:11Z</time>
      </trkpt>
      <trkpt lat="49.27089" lon="0.16146">
        <ele>114.7</ele>
        <time>2017-05-14T09:09:12Z</time>
      </trkpt>
      <trkpt lat="49.27084" lon="0.16143">
        <ele>115.3</ele>
        <time>2017-05-14T09:09:25Z</time>
      </trkpt>
      <trkpt lat="49.27082" lon="0.1614">
        <ele>115.5</ele>
        <time>2017-05-14T09:09:26Z</time>
      </trkpt>
      <trkpt lat="49.2708" lon="0.16135">
        <ele>115.8</ele>
        <time>2017-05-14T09:09:27Z</time>
      </trkpt>
      <trkpt lat="49.27078" lon="0.16131">
        <ele>116.1</ele>
        <time>2017-05-14T09:09:28Z</time>
      </trkpt>
      <trkpt lat="49.27073" lon="0.16125">
        <ele>116.4</ele>
        <time>2017-05-14T09:09:30Z</time>
      </trkpt>
      <trkpt lat="49.27071" lon="0.16121">
        <ele>116.6</ele>
        <time>2017-05-14T09:09:31Z</time>
      </trkpt>
      <trkpt lat="49.27068" lon="0.16117">
        <ele>116.5</ele>
        <time>2017-05-14T09:09:32Z</time>
      </trkpt>
      <trkpt lat="49.27065" lon="0.16112">
        <ele>116.5</ele>
        <time>2017-05-14T09:09:33Z</time>
      </trkpt>
      <trkpt lat="49.27063" lon="0.16108">
        <ele>116.5</ele>
        <time>2017-05-14T09:09:34Z</time>
      </trkpt>
      <trkpt lat="49.27061" lon="0.16105">
        <ele>116.5</ele>
        <time>2017-05-14T09:09:35Z</time>
      </trkpt>
      <trkpt lat="49.27059" lon="0.16102">
        <ele>116.5</ele>
        <time>2017-05-14T09:09:36Z</time>
      </trkpt>
      <trkpt lat="49.27057" lon="0.16099">
        <ele>116.5</ele>
        <time>2017-05-14T09:09:37Z</time>
      </trkpt>
      <trkpt lat="49.27054" lon="0.16093">
        <ele>116.5</ele>
        <time>2017-05-14T09:09:39Z</time>
      </trkpt>
      <trkpt lat="49.27051" lon="0.16088">
        <ele>116.5</ele>
        <time>2017-05-14T09:09:41Z</time>
      </trkpt>
      <trkpt lat="49.2705" lon="0.16083">
        <ele>116.5</ele>
        <time>2017-05-14T09:09:43Z</time>
      </trkpt>
      <trkpt lat="49.27048" lon="0.16077">
        <ele>116.6</ele>
        <time>2017-05-14T09:09:44Z</time>
      </trkpt>
      <trkpt lat="49.27045" lon="0.16071">
        <ele>117.2</ele>
        <time>2017-05-14T09:09:45Z</time>
      </trkpt>
      <trkpt lat="49.27043" lon="0.16066">
        <ele>117.6</ele>
        <time>2017-05-14T09:09:46Z</time>
      </trkpt>
      <trkpt lat="49.27042" lon="0.16062">
        <ele>117.8</ele>
        <time>2017-05-14T09:09:47Z</time>
      </trkpt>
      <trkpt lat="49.27039" lon="0.16057">
        <ele>118.2</ele>
        <time>2017-05-14T09:09:48Z</time>
      </trkpt>
      <trkpt lat="49.27037" lon="0.16053">
        <ele>118.5</ele>
        <time>2017-05-14T09:09:49Z</time>
      </trkpt>
      <trkpt lat="49.27034" lon="0.16047">
        <ele>118.8</ele>
        <time>2017-05-14T09:09:50Z</time>
      </trkpt>
      <trkpt lat="49.27031" lon="0.1604">
        <ele>119.1</ele>
        <time>2017-05-14T09:09:51Z</time>
      </trkpt>
      <trkpt lat="49.27028" lon="0.16034">
        <ele>119.1</ele>
        <time>2017-05-14T09:09:52Z</time>
      </trkpt>
      <trkpt lat="49.27025" lon="0.16031">
        <ele>119.2</ele>
        <time>2017-05-14T09:09:53Z</time>
      </trkpt>
      <trkpt lat="49.27024" lon="0.16026">
        <ele>119.2</ele>
        <time>2017-05-14T09:09:54Z</time>
      </trkpt>
      <trkpt lat="49.27024" lon="0.16022">
        <ele>119.2</ele>
        <time>2017-05-14T09:09:55Z</time>
      </trkpt>
      <trkpt lat="49.2702" lon="0.16021">
        <ele>119.1</ele>
        <time>2017-05-14T09:09:56Z</time>
      </trkpt>
      <trkpt lat="49.27014" lon="0.16022">
        <ele>119.1</ele>
        <time>2017-05-14T09:09:57Z</time>
      </trkpt>
      <trkpt lat="49.2701" lon="0.16023">
        <ele>119.2</ele>
        <time>2017-05-14T09:09:58Z</time>
      </trkpt>
      <trkpt lat="49.27007" lon="0.16025">
        <ele>119.1</ele>
        <time>2017-05-14T09:09:59Z</time>
      </trkpt>
      <trkpt lat="49.27" lon="0.1603">
        <ele>118.9</ele>
        <time>2017-05-14T09:10:01Z</time>
      </trkpt>
      <trkpt lat="49.26998" lon="0.16033">
        <ele>118.9</ele>
        <time>2017-05-14T09:10:02Z</time>
      </trkpt>
      <trkpt lat="49.26995" lon="0.16035">
        <ele>118.5</ele>
        <time>2017-05-14T09:10:03Z</time>
      </trkpt>
      <trkpt lat="49.2699" lon="0.16042">
        <ele>118.1</ele>
        <time>2017-05-14T09:10:04Z</time>
      </trkpt>
      <trkpt lat="49.26984" lon="0.1605">
        <ele>117.2</ele>
        <time>2017-05-14T09:10:05Z</time>
      </trkpt>
      <trkpt lat="49.26979" lon="0.16057">
        <ele>116.8</ele>
        <time>2017-05-14T09:10:06Z</time>
      </trkpt>
      <trkpt lat="49.26974" lon="0.16061">
        <ele>116.6</ele>
        <time>2017-05-14T09:10:07Z</time>
      </trkpt>
      <trkpt lat="49.26971" lon="0.16063">
        <ele>116.7</ele>
        <time>2017-05-14T09:10:08Z</time>
      </trkpt>
      <trkpt lat="49.26968" lon="0.16066">
        <ele>116.6</ele>
        <time>2017-05-14T09:10:09Z</time>
      </trkpt>
      <trkpt lat="49.26965" lon="0.16071">
        <ele>116.4</ele>
        <time>2017-05-14T09:10:10Z</time>
      </trkpt>
      <trkpt lat="49.26962" lon="0.16076">
        <ele>116.2</ele>
        <time>2017-05-14T09:10:11Z</time>
      </trkpt>
      <trkpt lat="49.26957" lon="0.16081">
        <ele>116</ele>
        <time>2017-05-14T09:10:12Z</time>
      </trkpt>
      <trkpt lat="49.26952" lon="0.16087">
        <ele>116</ele>
        <time>2017-05-14T09:10:13Z</time>
      </trkpt>
      <trkpt lat="49.26949" lon="0.1609">
        <ele>115.9</ele>
        <time>2017-05-14T09:10:14Z</time>
      </trkpt>
      <trkpt lat="49.26943" lon="0.16095">
        <ele>116.2</ele>
        <time>2017-05-14T09:10:15Z</time>
      </trkpt>
      <trkpt lat="49.26939" lon="0.16098">
        <ele>116.8</ele>
        <time>2017-05-14T09:10:16Z</time>
      </trkpt>
      <trkpt lat="49.26937" lon="0.16102">
        <ele>116.7</ele>
        <time>2017-05-14T09:10:18Z</time>
      </trkpt>
      <trkpt lat="49.26935" lon="0.16109">
        <ele>117</ele>
        <time>2017-05-14T09:10:20Z</time>
      </trkpt>
      <trkpt lat="49.26932" lon="0.16116">
        <ele>117.7</ele>
        <time>2017-05-14T09:10:21Z</time>
      </trkpt>
      <trkpt lat="49.26929" lon="0.16123">
        <ele>117.9</ele>
        <time>2017-05-14T09:10:22Z</time>
      </trkpt>
      <trkpt lat="49.26925" lon="0.16131">
        <ele>118</ele>
        <time>2017-05-14T09:10:23Z</time>
      </trkpt>
      <trkpt lat="49.26921" lon="0.16135">
        <ele>118.2</ele>
        <time>2017-05-14T09:10:24Z</time>
      </trkpt>
      <trkpt lat="49.26915" lon="0.1614">
        <ele>118.6</ele>
        <time>2017-05-14T09:10:25Z</time>
      </trkpt>
      <trkpt lat="49.26907" lon="0.16145">
        <ele>118.9</ele>
        <time>2017-05-14T09:10:26Z</time>
      </trkpt>
      <trkpt lat="49.26898" lon="0.16142">
        <ele>119.3</ele>
        <time>2017-05-14T09:10:27Z</time>
      </trkpt>
      <trkpt lat="49.26893" lon="0.16139">
        <ele>119.5</ele>
        <time>2017-05-14T09:10:28Z</time>
      </trkpt>
      <trkpt lat="49.26889" lon="0.16136">
        <ele>119.5</ele>
        <time>2017-05-14T09:10:29Z</time>
      </trkpt>
      <trkpt lat="49.26885" lon="0.16134">
        <ele>119.6</ele>
        <time>2017-05-14T09:10:30Z</time>
      </trkpt>
      <trkpt lat="49.26882" lon="0.16131">
        <ele>119.7</ele>
        <time>2017-05-14T09:10:31Z</time>
      </trkpt>
      <trkpt lat="49.26878" lon="0.16128">
        <ele>119.6</ele>
        <time>2017-05-14T09:10:33Z</time>
      </trkpt>
      <trkpt lat="49.26875" lon="0.16125">
        <ele>119.6</ele>
        <time>2017-05-14T09:10:34Z</time>
      </trkpt>
      <trkpt lat="49.26872" lon="0.16123">
        <ele>119.6</ele>
        <time>2017-05-14T09:10:35Z</time>
      </trkpt>
      <trkpt lat="49.2687" lon="0.1612">
        <ele>119.5</ele>
        <time>2017-05-14T09:10:36Z</time>
      </trkpt>
      <trkpt lat="49.26867" lon="0.16117">
        <ele>119.4</ele>
        <time>2017-05-14T09:10:37Z</time>
      </trkpt>
      <trkpt lat="49.26864" lon="0.16113">
        <ele>119.3</ele>
        <time>2017-05-14T09:10:38Z</time>
      </trkpt>
      <trkpt lat="49.26861" lon="0.16108">
        <ele>119.2</ele>
        <time>2017-05-14T09:10:39Z</time>
      </trkpt>
      <trkpt lat="49.26858" lon="0.16104">
        <ele>119</ele>
        <time>2017-05-14T09:10:40Z</time>
      </trkpt>
      <trkpt lat="49.26855" lon="0.161">
        <ele>118.9</ele>
        <time>2017-05-14T09:10:41Z</time>
      </trkpt>
      <trkpt lat="49.26852" lon="0.16095">
        <ele>118.8</ele>
        <time>2017-05-14T09:10:42Z</time>
      </trkpt>
      <trkpt lat="49.2685" lon="0.1609">
        <ele>118.6</ele>
        <time>2017-05-14T09:10:43Z</time>
      </trkpt>
      <trkpt lat="49.26847" lon="0.16085">
        <ele>118.4</ele>
        <time>2017-05-14T09:10:44Z</time>
      </trkpt>
      <trkpt lat="49.26843" lon="0.16078">
        <ele>118.1</ele>
        <time>2017-05-14T09:10:45Z</time>
      </trkpt>
      <trkpt lat="49.26839" lon="0.16073">
        <ele>117.7</ele>
        <time>2017-05-14T09:10:46Z</time>
      </trkpt>
      <trkpt lat="49.26835" lon="0.16068">
        <ele>117.4</ele>
        <time>2017-05-14T09:10:47Z</time>
      </trkpt>
      <trkpt lat="49.26832" lon="0.16065">
        <ele>117.2</ele>
        <time>2017-05-14T09:10:48Z</time>
      </trkpt>
      <trkpt lat="49.26829" lon="0.16061">
        <ele>117</ele>
        <time>2017-05-14T09:10:49Z</time>
      </trkpt>
      <trkpt lat="49.26825" lon="0.16057">
        <ele>117.1</ele>
        <time>2017-05-14T09:10:50Z</time>
      </trkpt>
      <trkpt lat="49.26822" lon="0.16053">
        <ele>117.1</ele>
        <time>2017-05-14T09:10:51Z</time>
      </trkpt>
      <trkpt lat="49.26819" lon="0.1605">
        <ele>117.2</ele>
        <time>2017-05-14T09:10:52Z</time>
      </trkpt>
      <trkpt lat="49.26813" lon="0.16047">
        <ele>117.4</ele>
        <time>2017-05-14T09:10:53Z</time>
      </trkpt>
      <trkpt lat="49.26808" lon="0.16044">
        <ele>117.3</ele>
        <time>2017-05-14T09:10:54Z</time>
      </trkpt>
      <trkpt lat="49.26802" lon="0.1604">
        <ele>117.1</ele>
        <time>2017-05-14T09:10:55Z</time>
      </trkpt>
      <trkpt lat="49.26796" lon="0.16033">
        <ele>116.9</ele>
        <time>2017-05-14T09:10:56Z</time>
      </trkpt>
      <trkpt lat="49.2679" lon="0.16026">
        <ele>116.8</ele>
        <time>2017-05-14T09:10:57Z</time>
      </trkpt>
      <trkpt lat="49.26782" lon="0.16018">
        <ele>117.2</ele>
        <time>2017-05-14T09:10:58Z</time>
      </trkpt>
      <trkpt lat="49.26774" lon="0.1601">
        <ele>118</ele>
        <time>2017-05-14T09:10:59Z</time>
      </trkpt>
      <trkpt lat="49.26768" lon="0.16001">
        <ele>118.4</ele>
        <time>2017-05-14T09:11:00Z</time>
      </trkpt>
      <trkpt lat="49.26764" lon="0.15996">
        <ele>118.5</ele>
        <time>2017-05-14T09:11:01Z</time>
      </trkpt>
      <trkpt lat="49.26759" lon="0.15991">
        <ele>118.2</ele>
        <time>2017-05-14T09:11:02Z</time>
      </trkpt>
      <trkpt lat="49.26755" lon="0.15986">
        <ele>117.8</ele>
        <time>2017-05-14T09:11:03Z</time>
      </trkpt>
      <trkpt lat="49.2675" lon="0.15981">
        <ele>117.5</ele>
        <time>2017-05-14T09:11:04Z</time>
      </trkpt>
      <trkpt lat="49.26745" lon="0.15977">
        <ele>117.4</ele>
        <time>2017-05-14T09:11:05Z</time>
      </trkpt>
      <trkpt lat="49.26741" lon="0.15973">
        <ele>117.3</ele>
        <time>2017-05-14T09:11:06Z</time>
      </trkpt>
      <trkpt lat="49.26736" lon="0.15969">
        <ele>117.3</ele>
        <time>2017-05-14T09:11:07Z</time>
      </trkpt>
      <trkpt lat="49.26731" lon="0.15965">
        <ele>117.5</ele>
        <time>2017-05-14T09:11:08Z</time>
      </trkpt>
      <trkpt lat="49.26727" lon="0.15962">
        <ele>117.6</ele>
        <time>2017-05-14T09:11:09Z</time>
      </trkpt>
      <trkpt lat="49.26722" lon="0.15959">
        <ele>117.5</ele>
        <time>2017-05-14T09:11:10Z</time>
      </trkpt>
      <trkpt lat="49.26716" lon="0.15957">
        <ele>117.5</ele>
        <time>2017-05-14T09:11:11Z</time>
      </trkpt>
      <trkpt lat="49.26711" lon="0.15954">
        <ele>117.4</ele>
        <time>2017-05-14T09:11:12Z</time>
      </trkpt>
      <trkpt lat="49.26706" lon="0.15952">
        <ele>117.3</ele>
        <time>2017-05-14T09:11:13Z</time>
      </trkpt>
      <trkpt lat="49.26701" lon="0.15952">
        <ele>117.2</ele>
        <time>2017-05-14T09:11:14Z</time>
      </trkpt>
      <trkpt lat="49.26698" lon="0.15951">
        <ele>117.3</ele>
        <time>2017-05-14T09:11:15Z</time>
      </trkpt>
      <trkpt lat="49.26695" lon="0.1595">
        <ele>117.2</ele>
        <time>2017-05-14T09:11:16Z</time>
      </trkpt>
      <trkpt lat="49.26691" lon="0.15948">
        <ele>117</ele>
        <time>2017-05-14T09:11:18Z</time>
      </trkpt>
      <trkpt lat="49.26686" lon="0.15945">
        <ele>117</ele>
        <time>2017-05-14T09:11:19Z</time>
      </trkpt>
      <trkpt lat="49.26679" lon="0.15942">
        <ele>116.7</ele>
        <time>2017-05-14T09:11:20Z</time>
      </trkpt>
      <trkpt lat="49.26673" lon="0.15938">
        <ele>116.6</ele>
        <time>2017-05-14T09:11:21Z</time>
      </trkpt>
      <trkpt lat="49.26666" lon="0.15936">
        <ele>116.5</ele>
        <time>2017-05-14T09:11:22Z</time>
      </trkpt>
      <trkpt lat="49.2666" lon="0.15935">
        <ele>116.4</ele>
        <time>2017-05-14T09:11:23Z</time>
      </trkpt>
      <trkpt lat="49.26655" lon="0.15931">
        <ele>116.6</ele>
        <time>2017-05-14T09:11:24Z</time>
      </trkpt>
      <trkpt lat="49.26648" lon="0.15925">
        <ele>117</ele>
        <time>2017-05-14T09:11:25Z</time>
      </trkpt>
      <trkpt lat="49.26642" lon="0.1592">
        <ele>117.1</ele>
        <time>2017-05-14T09:11:26Z</time>
      </trkpt>
      <trkpt lat="49.26635" lon="0.15915">
        <ele>117.1</ele>
        <time>2017-05-14T09:11:27Z</time>
      </trkpt>
      <trkpt lat="49.26629" lon="0.15911">
        <ele>117</ele>
        <time>2017-05-14T09:11:28Z</time>
      </trkpt>
      <trkpt lat="49.26625" lon="0.15908">
        <ele>116.8</ele>
        <time>2017-05-14T09:11:29Z</time>
      </trkpt>
      <trkpt lat="49.26622" lon="0.15906">
        <ele>116.6</ele>
        <time>2017-05-14T09:11:30Z</time>
      </trkpt>
      <trkpt lat="49.26619" lon="0.15904">
        <ele>116.5</ele>
        <time>2017-05-14T09:11:31Z</time>
      </trkpt>
      <trkpt lat="49.26616" lon="0.15902">
        <ele>116.4</ele>
        <time>2017-05-14T09:11:32Z</time>
      </trkpt>
      <trkpt lat="49.26614" lon="0.15898">
        <ele>116.2</ele>
        <time>2017-05-14T09:11:33Z</time>
      </trkpt>
      <trkpt lat="49.26611" lon="0.15894">
        <ele>116</ele>
        <time>2017-05-14T09:11:34Z</time>
      </trkpt>
      <trkpt lat="49.26607" lon="0.1589">
        <ele>115.8</ele>
        <time>2017-05-14T09:11:35Z</time>
      </trkpt>
      <trkpt lat="49.26604" lon="0.15888">
        <ele>115.6</ele>
        <time>2017-05-14T09:11:37Z</time>
      </trkpt>
      <trkpt lat="49.26602" lon="0.15885">
        <ele>115.4</ele>
        <time>2017-05-14T09:11:38Z</time>
      </trkpt>
      <trkpt lat="49.26599" lon="0.15881">
        <ele>115.2</ele>
        <time>2017-05-14T09:11:40Z</time>
      </trkpt>
      <trkpt lat="49.26595" lon="0.15879">
        <ele>115</ele>
        <time>2017-05-14T09:11:42Z</time>
      </trkpt>
      <trkpt lat="49.26592" lon="0.15876">
        <ele>114.8</ele>
        <time>2017-05-14T09:11:43Z</time>
      </trkpt>
      <trkpt lat="49.26595" lon="0.15873">
        <ele>113.9</ele>
        <time>2017-05-14T09:11:46Z</time>
      </trkpt>
      <trkpt lat="49.26591" lon="0.15877">
        <ele>113.8</ele>
        <time>2017-05-14T09:11:48Z</time>
      </trkpt>
      <trkpt lat="49.26591" lon="0.15882">
        <ele>113.8</ele>
        <time>2017-05-14T09:11:49Z</time>
      </trkpt>
      <trkpt lat="49.2659" lon="0.1589">
        <ele>113.8</ele>
        <time>2017-05-14T09:11:51Z</time>
      </trkpt>
      <trkpt lat="49.2659" lon="0.15895">
        <ele>113.7</ele>
        <time>2017-05-14T09:11:52Z</time>
      </trkpt>
      <trkpt lat="49.26591" lon="0.159">
        <ele>113.7</ele>
        <time>2017-05-14T09:11:53Z</time>
      </trkpt>
      <trkpt lat="49.26592" lon="0.15905">
        <ele>113.7</ele>
        <time>2017-05-14T09:11:54Z</time>
      </trkpt>
      <trkpt lat="49.26594" lon="0.15912">
        <ele>113.6</ele>
        <time>2017-05-14T09:11:56Z</time>
      </trkpt>
      <trkpt lat="49.26595" lon="0.15916">
        <ele>113.6</ele>
        <time>2017-05-14T09:11:57Z</time>
      </trkpt>
      <trkpt lat="49.26597" lon="0.1592">
        <ele>113.5</ele>
        <time>2017-05-14T09:11:58Z</time>
      </trkpt>
      <trkpt lat="49.266" lon="0.15925">
        <ele>113.3</ele>
        <time>2017-05-14T09:11:59Z</time>
      </trkpt>
      <trkpt lat="49.26603" lon="0.15929">
        <ele>113.1</ele>
        <time>2017-05-14T09:12:00Z</time>
      </trkpt>
      <trkpt lat="49.26607" lon="0.15937">
        <ele>112.8</ele>
        <time>2017-05-14T09:12:01Z</time>
      </trkpt>
      <trkpt lat="49.26611" lon="0.15944">
        <ele>112.5</ele>
        <time>2017-05-14T09:12:02Z</time>
      </trkpt>
      <trkpt lat="49.26615" lon="0.15951">
        <ele>112.2</ele>
        <time>2017-05-14T09:12:03Z</time>
      </trkpt>
      <trkpt lat="49.26619" lon="0.15958">
        <ele>111.9</ele>
        <time>2017-05-14T09:12:04Z</time>
      </trkpt>
      <trkpt lat="49.26622" lon="0.15961">
        <ele>111.7</ele>
        <time>2017-05-14T09:12:05Z</time>
      </trkpt>
      <trkpt lat="49.26628" lon="0.15966">
        <ele>111.4</ele>
        <time>2017-05-14T09:12:06Z</time>
      </trkpt>
      <trkpt lat="49.26634" lon="0.15974">
        <ele>111</ele>
        <time>2017-05-14T09:12:07Z</time>
      </trkpt>
      <trkpt lat="49.26641" lon="0.15983">
        <ele>110.6</ele>
        <time>2017-05-14T09:12:08Z</time>
      </trkpt>
      <trkpt lat="49.26647" lon="0.15992">
        <ele>110.1</ele>
        <time>2017-05-14T09:12:09Z</time>
      </trkpt>
      <trkpt lat="49.26653" lon="0.16003">
        <ele>109.7</ele>
        <time>2017-05-14T09:12:10Z</time>
      </trkpt>
      <trkpt lat="49.26659" lon="0.16013">
        <ele>109.2</ele>
        <time>2017-05-14T09:12:11Z</time>
      </trkpt>
      <trkpt lat="49.26664" lon="0.1602">
        <ele>108.8</ele>
        <time>2017-05-14T09:12:12Z</time>
      </trkpt>
      <trkpt lat="49.26671" lon="0.1603">
        <ele>108.2</ele>
        <time>2017-05-14T09:12:13Z</time>
      </trkpt>
      <trkpt lat="49.26678" lon="0.16041">
        <ele>107.6</ele>
        <time>2017-05-14T09:12:14Z</time>
      </trkpt>
      <trkpt lat="49.26684" lon="0.16049">
        <ele>107.1</ele>
        <time>2017-05-14T09:12:15Z</time>
      </trkpt>
      <trkpt lat="49.26689" lon="0.16056">
        <ele>106.7</ele>
        <time>2017-05-14T09:12:16Z</time>
      </trkpt>
      <trkpt lat="49.26696" lon="0.16067">
        <ele>106.1</ele>
        <time>2017-05-14T09:12:17Z</time>
      </trkpt>
      <trkpt lat="49.26701" lon="0.16075">
        <ele>105.7</ele>
        <time>2017-05-14T09:12:18Z</time>
      </trkpt>
      <trkpt lat="49.26707" lon="0.16082">
        <ele>105.2</ele>
        <time>2017-05-14T09:12:19Z</time>
      </trkpt>
      <trkpt lat="49.26714" lon="0.16091">
        <ele>104.7</ele>
        <time>2017-05-14T09:12:20Z</time>
      </trkpt>
      <trkpt lat="49.2672" lon="0.16102">
        <ele>104.1</ele>
        <time>2017-05-14T09:12:21Z</time>
      </trkpt>
      <trkpt lat="49.26727" lon="0.16114">
        <ele>103.5</ele>
        <time>2017-05-14T09:12:22Z</time>
      </trkpt>
      <trkpt lat="49.26734" lon="0.16125">
        <ele>102.9</ele>
        <time>2017-05-14T09:12:23Z</time>
      </trkpt>
      <trkpt lat="49.26739" lon="0.16131">
        <ele>102.6</ele>
        <time>2017-05-14T09:12:24Z</time>
      </trkpt>
      <trkpt lat="49.26746" lon="0.16142">
        <ele>102</ele>
        <time>2017-05-14T09:12:25Z</time>
      </trkpt>
      <trkpt lat="49.26752" lon="0.1615">
        <ele>101.5</ele>
        <time>2017-05-14T09:12:26Z</time>
      </trkpt>
      <trkpt lat="49.26758" lon="0.16157">
        <ele>101.1</ele>
        <time>2017-05-14T09:12:27Z</time>
      </trkpt>
      <trkpt lat="49.26765" lon="0.16162">
        <ele>100.7</ele>
        <time>2017-05-14T09:12:28Z</time>
      </trkpt>
      <trkpt lat="49.2677" lon="0.16167">
        <ele>100.3</ele>
        <time>2017-05-14T09:12:29Z</time>
      </trkpt>
      <trkpt lat="49.26773" lon="0.16176">
        <ele>99.8</ele>
        <time>2017-05-14T09:12:31Z</time>
      </trkpt>
      <trkpt lat="49.26773" lon="0.16183">
        <ele>99.6</ele>
        <time>2017-05-14T09:12:32Z</time>
      </trkpt>
      <trkpt lat="49.26771" lon="0.16197">
        <ele>99</ele>
        <time>2017-05-14T09:12:33Z</time>
      </trkpt>
      <trkpt lat="49.26772" lon="0.16208">
        <ele>98.5</ele>
        <time>2017-05-14T09:12:34Z</time>
      </trkpt>
      <trkpt lat="49.26775" lon="0.16212">
        <ele>98.2</ele>
        <time>2017-05-14T09:12:35Z</time>
      </trkpt>
      <trkpt lat="49.2677" lon="0.16212">
        <ele>97.7</ele>
        <time>2017-05-14T09:12:37Z</time>
      </trkpt>
      <trkpt lat="49.26764" lon="0.16212">
        <ele>96.5</ele>
        <time>2017-05-14T09:12:38Z</time>
      </trkpt>
      <trkpt lat="49.26758" lon="0.16212">
        <ele>95.5</ele>
        <time>2017-05-14T09:12:39Z</time>
      </trkpt>
      <trkpt lat="49.26753" lon="0.16213">
        <ele>94.6</ele>
        <time>2017-05-14T09:12:40Z</time>
      </trkpt>
      <trkpt lat="49.26744" lon="0.16214">
        <ele>92.5</ele>
        <time>2017-05-14T09:12:41Z</time>
      </trkpt>
      <trkpt lat="49.26734" lon="0.16218">
        <ele>91.2</ele>
        <time>2017-05-14T09:12:42Z</time>
      </trkpt>
      <trkpt lat="49.26731" lon="0.16215">
        <ele>90.9</ele>
        <time>2017-05-14T09:12:45Z</time>
      </trkpt>
      <trkpt lat="49.26727" lon="0.16212">
        <ele>90.5</ele>
        <time>2017-05-14T09:12:46Z</time>
      </trkpt>
      <trkpt lat="49.26722" lon="0.16218">
        <ele>89.6</ele>
        <time>2017-05-14T09:12:48Z</time>
      </trkpt>
      <trkpt lat="49.26717" lon="0.16226">
        <ele>89.2</ele>
        <time>2017-05-14T09:12:49Z</time>
      </trkpt>
      <trkpt lat="49.26714" lon="0.16229">
        <ele>88.7</ele>
        <time>2017-05-14T09:12:50Z</time>
      </trkpt>
      <trkpt lat="49.2671" lon="0.16237">
        <ele>87.5</ele>
        <time>2017-05-14T09:12:51Z</time>
      </trkpt>
      <trkpt lat="49.26705" lon="0.16244">
        <ele>86.6</ele>
        <time>2017-05-14T09:12:52Z</time>
      </trkpt>
      <trkpt lat="49.26699" lon="0.16251">
        <ele>86.4</ele>
        <time>2017-05-14T09:12:53Z</time>
      </trkpt>
      <trkpt lat="49.26693" lon="0.16261">
        <ele>85.6</ele>
        <time>2017-05-14T09:12:54Z</time>
      </trkpt>
      <trkpt lat="49.26691" lon="0.16265">
        <ele>85.2</ele>
        <time>2017-05-14T09:12:55Z</time>
      </trkpt>
      <trkpt lat="49.26688" lon="0.16269">
        <ele>85.4</ele>
        <time>2017-05-14T09:12:56Z</time>
      </trkpt>
      <trkpt lat="49.26685" lon="0.16277">
        <ele>84.1</ele>
        <time>2017-05-14T09:12:57Z</time>
      </trkpt>
      <trkpt lat="49.26681" lon="0.16286">
        <ele>82.9</ele>
        <time>2017-05-14T09:12:58Z</time>
      </trkpt>
      <trkpt lat="49.26678" lon="0.16294">
        <ele>81.3</ele>
        <time>2017-05-14T09:12:59Z</time>
      </trkpt>
      <trkpt lat="49.26672" lon="0.16302">
        <ele>79.3</ele>
        <time>2017-05-14T09:13:00Z</time>
      </trkpt>
      <trkpt lat="49.26669" lon="0.16309">
        <ele>78.3</ele>
        <time>2017-05-14T09:13:01Z</time>
      </trkpt>
      <trkpt lat="49.26665" lon="0.16316">
        <ele>77.7</ele>
        <time>2017-05-14T09:13:02Z</time>
      </trkpt>
      <trkpt lat="49.26662" lon="0.16324">
        <ele>77.1</ele>
        <time>2017-05-14T09:13:03Z</time>
      </trkpt>
      <trkpt lat="49.26659" lon="0.16334">
        <ele>76.2</ele>
        <time>2017-05-14T09:13:04Z</time>
      </trkpt>
      <trkpt lat="49.26654" lon="0.16344">
        <ele>75.1</ele>
        <time>2017-05-14T09:13:05Z</time>
      </trkpt>
      <trkpt lat="49.26648" lon="0.16355">
        <ele>74</ele>
        <time>2017-05-14T09:13:06Z</time>
      </trkpt>
      <trkpt lat="49.26642" lon="0.16366">
        <ele>73.8</ele>
        <time>2017-05-14T09:13:07Z</time>
      </trkpt>
      <trkpt lat="49.26639" lon="0.16373">
        <ele>73.4</ele>
        <time>2017-05-14T09:13:08Z</time>
      </trkpt>
      <trkpt lat="49.26635" lon="0.1638">
        <ele>73.3</ele>
        <time>2017-05-14T09:13:09Z</time>
      </trkpt>
      <trkpt lat="49.26635" lon="0.16385">
        <ele>73</ele>
        <time>2017-05-14T09:13:10Z</time>
      </trkpt>
      <trkpt lat="49.26631" lon="0.16385">
        <ele>73.6</ele>
        <time>2017-05-14T09:13:12Z</time>
      </trkpt>
      <trkpt lat="49.26633" lon="0.16393">
        <ele>73.6</ele>
        <time>2017-05-14T09:13:15Z</time>
      </trkpt>
      <trkpt lat="49.26637" lon="0.16397">
        <ele>73.6</ele>
        <time>2017-05-14T09:13:16Z</time>
      </trkpt>
      <trkpt lat="49.26641" lon="0.16403">
        <ele>73.6</ele>
        <time>2017-05-14T09:13:17Z</time>
      </trkpt>
      <trkpt lat="49.26645" lon="0.16408">
        <ele>73.6</ele>
        <time>2017-05-14T09:13:18Z</time>
      </trkpt>
      <trkpt lat="49.2665" lon="0.16413">
        <ele>73.7</ele>
        <time>2017-05-14T09:13:19Z</time>
      </trkpt>
      <trkpt lat="49.26654" lon="0.16416">
        <ele>73.7</ele>
        <time>2017-05-14T09:13:20Z</time>
      </trkpt>
      <trkpt lat="49.26658" lon="0.1642">
        <ele>73.7</ele>
        <time>2017-05-14T09:13:21Z</time>
      </trkpt>
      <trkpt lat="49.26662" lon="0.16424">
        <ele>73.7</ele>
        <time>2017-05-14T09:13:22Z</time>
      </trkpt>
      <trkpt lat="49.26668" lon="0.16429">
        <ele>73.7</ele>
        <time>2017-05-14T09:13:23Z</time>
      </trkpt>
      <trkpt lat="49.26672" lon="0.16434">
        <ele>73.8</ele>
        <time>2017-05-14T09:13:24Z</time>
      </trkpt>
      <trkpt lat="49.26677" lon="0.16438">
        <ele>73.9</ele>
        <time>2017-05-14T09:13:25Z</time>
      </trkpt>
      <trkpt lat="49.2668" lon="0.1644">
        <ele>73.9</ele>
        <time>2017-05-14T09:13:26Z</time>
      </trkpt>
      <trkpt lat="49.26686" lon="0.16445">
        <ele>74</ele>
        <time>2017-05-14T09:13:28Z</time>
      </trkpt>
      <trkpt lat="49.26691" lon="0.16449">
        <ele>74.1</ele>
        <time>2017-05-14T09:13:29Z</time>
      </trkpt>
      <trkpt lat="49.26697" lon="0.16457">
        <ele>74.2</ele>
        <time>2017-05-14T09:13:30Z</time>
      </trkpt>
      <trkpt lat="49.26701" lon="0.16463">
        <ele>74.3</ele>
        <time>2017-05-14T09:13:31Z</time>
      </trkpt>
      <trkpt lat="49.26705" lon="0.16466">
        <ele>74.4</ele>
        <time>2017-05-14T09:13:32Z</time>
      </trkpt>
      <trkpt lat="49.26709" lon="0.1647">
        <ele>74.6</ele>
        <time>2017-05-14T09:13:33Z</time>
      </trkpt>
      <trkpt lat="49.26712" lon="0.16473">
        <ele>74.8</ele>
        <time>2017-05-14T09:13:34Z</time>
      </trkpt>
      <trkpt lat="49.26716" lon="0.16476">
        <ele>75</ele>
        <time>2017-05-14T09:13:35Z</time>
      </trkpt>
      <trkpt lat="49.2672" lon="0.16479">
        <ele>75.3</ele>
        <time>2017-05-14T09:13:36Z</time>
      </trkpt>
      <trkpt lat="49.26724" lon="0.16481">
        <ele>75.6</ele>
        <time>2017-05-14T09:13:37Z</time>
      </trkpt>
      <trkpt lat="49.26728" lon="0.16484">
        <ele>75.9</ele>
        <time>2017-05-14T09:13:38Z</time>
      </trkpt>
      <trkpt lat="49.26732" lon="0.16487">
        <ele>76.1</ele>
        <time>2017-05-14T09:13:39Z</time>
      </trkpt>
      <trkpt lat="49.26736" lon="0.1649">
        <ele>76.2</ele>
        <time>2017-05-14T09:13:40Z</time>
      </trkpt>
      <trkpt lat="49.26739" lon="0.16493">
        <ele>76.3</ele>
        <time>2017-05-14T09:13:41Z</time>
      </trkpt>
      <trkpt lat="49.26743" lon="0.16496">
        <ele>76.4</ele>
        <time>2017-05-14T09:13:42Z</time>
      </trkpt>
      <trkpt lat="49.26747" lon="0.16501">
        <ele>76.6</ele>
        <time>2017-05-14T09:13:43Z</time>
      </trkpt>
      <trkpt lat="49.26751" lon="0.16503">
        <ele>76.7</ele>
        <time>2017-05-14T09:13:44Z</time>
      </trkpt>
      <trkpt lat="49.26754" lon="0.16505">
        <ele>76.7</ele>
        <time>2017-05-14T09:13:45Z</time>
      </trkpt>
      <trkpt lat="49.26757" lon="0.16506">
        <ele>76.8</ele>
        <time>2017-05-14T09:13:46Z</time>
      </trkpt>
      <trkpt lat="49.26761" lon="0.16508">
        <ele>76.8</ele>
        <time>2017-05-14T09:13:47Z</time>
      </trkpt>
      <trkpt lat="49.26764" lon="0.16509">
        <ele>76.9</ele>
        <time>2017-05-14T09:13:48Z</time>
      </trkpt>
      <trkpt lat="49.26767" lon="0.16512">
        <ele>76.9</ele>
        <time>2017-05-14T09:13:49Z</time>
      </trkpt>
      <trkpt lat="49.26771" lon="0.16515">
        <ele>76.9</ele>
        <time>2017-05-14T09:13:50Z</time>
      </trkpt>
      <trkpt lat="49.26776" lon="0.16519">
        <ele>77</ele>
        <time>2017-05-14T09:13:51Z</time>
      </trkpt>
      <trkpt lat="49.26779" lon="0.16522">
        <ele>77</ele>
        <time>2017-05-14T09:13:52Z</time>
      </trkpt>
      <trkpt lat="49.26784" lon="0.16528">
        <ele>77.1</ele>
        <time>2017-05-14T09:13:53Z</time>
      </trkpt>
      <trkpt lat="49.26789" lon="0.16532">
        <ele>77.1</ele>
        <time>2017-05-14T09:13:54Z</time>
      </trkpt>
      <trkpt lat="49.26792" lon="0.16537">
        <ele>77.1</ele>
        <time>2017-05-14T09:13:55Z</time>
      </trkpt>
      <trkpt lat="49.26796" lon="0.16542">
        <ele>77.1</ele>
        <time>2017-05-14T09:13:56Z</time>
      </trkpt>
      <trkpt lat="49.26799" lon="0.16546">
        <ele>77.2</ele>
        <time>2017-05-14T09:13:57Z</time>
      </trkpt>
      <trkpt lat="49.26802" lon="0.16551">
        <ele>77.2</ele>
        <time>2017-05-14T09:13:58Z</time>
      </trkpt>
      <trkpt lat="49.26806" lon="0.16555">
        <ele>77.2</ele>
        <time>2017-05-14T09:13:59Z</time>
      </trkpt>
      <trkpt lat="49.2681" lon="0.16559">
        <ele>77.2</ele>
        <time>2017-05-14T09:14:00Z</time>
      </trkpt>
      <trkpt lat="49.26813" lon="0.16563">
        <ele>77.3</ele>
        <time>2017-05-14T09:14:01Z</time>
      </trkpt>
      <trkpt lat="49.26817" lon="0.16567">
        <ele>77.3</ele>
        <time>2017-05-14T09:14:02Z</time>
      </trkpt>
      <trkpt lat="49.26822" lon="0.16572">
        <ele>77.3</ele>
        <time>2017-05-14T09:14:03Z</time>
      </trkpt>
      <trkpt lat="49.26826" lon="0.16576">
        <ele>77.3</ele>
        <time>2017-05-14T09:14:04Z</time>
      </trkpt>
      <trkpt lat="49.2683" lon="0.1658">
        <ele>77.4</ele>
        <time>2017-05-14T09:14:05Z</time>
      </trkpt>
      <trkpt lat="49.26835" lon="0.16585">
        <ele>77.4</ele>
        <time>2017-05-14T09:14:06Z</time>
      </trkpt>
      <trkpt lat="49.26839" lon="0.1659">
        <ele>77.4</ele>
        <time>2017-05-14T09:14:07Z</time>
      </trkpt>
      <trkpt lat="49.26845" lon="0.16595">
        <ele>77.4</ele>
        <time>2017-05-14T09:14:08Z</time>
      </trkpt>
      <trkpt lat="49.2685" lon="0.166">
        <ele>77.4</ele>
        <time>2017-05-14T09:14:09Z</time>
      </trkpt>
      <trkpt lat="49.26855" lon="0.16605">
        <ele>77.4</ele>
        <time>2017-05-14T09:14:10Z</time>
      </trkpt>
      <trkpt lat="49.26861" lon="0.16609">
        <ele>77.4</ele>
        <time>2017-05-14T09:14:11Z</time>
      </trkpt>
      <trkpt lat="49.26866" lon="0.16612">
        <ele>77.3</ele>
        <time>2017-05-14T09:14:12Z</time>
      </trkpt>
      <trkpt lat="49.26871" lon="0.16616">
        <ele>77.1</ele>
        <time>2017-05-14T09:14:13Z</time>
      </trkpt>
      <trkpt lat="49.26877" lon="0.1662">
        <ele>76.9</ele>
        <time>2017-05-14T09:14:14Z</time>
      </trkpt>
      <trkpt lat="49.26883" lon="0.16623">
        <ele>76.7</ele>
        <time>2017-05-14T09:14:15Z</time>
      </trkpt>
      <trkpt lat="49.26889" lon="0.16626">
        <ele>76.7</ele>
        <time>2017-05-14T09:14:16Z</time>
      </trkpt>
      <trkpt lat="49.26896" lon="0.16628">
        <ele>76.6</ele>
        <time>2017-05-14T09:14:17Z</time>
      </trkpt>
      <trkpt lat="49.26906" lon="0.16631">
        <ele>76.5</ele>
        <time>2017-05-14T09:14:18Z</time>
      </trkpt>
      <trkpt lat="49.26914" lon="0.16634">
        <ele>76.3</ele>
        <time>2017-05-14T09:14:19Z</time>
      </trkpt>
      <trkpt lat="49.26921" lon="0.16636">
        <ele>76.2</ele>
        <time>2017-05-14T09:14:20Z</time>
      </trkpt>
      <trkpt lat="49.26928" lon="0.1664">
        <ele>76</ele>
        <time>2017-05-14T09:14:21Z</time>
      </trkpt>
      <trkpt lat="49.26934" lon="0.16643">
        <ele>75.7</ele>
        <time>2017-05-14T09:14:22Z</time>
      </trkpt>
      <trkpt lat="49.26942" lon="0.16647">
        <ele>75.4</ele>
        <time>2017-05-14T09:14:23Z</time>
      </trkpt>
      <trkpt lat="49.26948" lon="0.1665">
        <ele>75.3</ele>
        <time>2017-05-14T09:14:24Z</time>
      </trkpt>
      <trkpt lat="49.26953" lon="0.16653">
        <ele>75.2</ele>
        <time>2017-05-14T09:14:25Z</time>
      </trkpt>
      <trkpt lat="49.2696" lon="0.16657">
        <ele>75.1</ele>
        <time>2017-05-14T09:14:26Z</time>
      </trkpt>
      <trkpt lat="49.26966" lon="0.1666">
        <ele>75</ele>
        <time>2017-05-14T09:14:27Z</time>
      </trkpt>
      <trkpt lat="49.26972" lon="0.16664">
        <ele>74.9</ele>
        <time>2017-05-14T09:14:28Z</time>
      </trkpt>
      <trkpt lat="49.26977" lon="0.16667">
        <ele>74.8</ele>
        <time>2017-05-14T09:14:29Z</time>
      </trkpt>
      <trkpt lat="49.26982" lon="0.1667">
        <ele>74.7</ele>
        <time>2017-05-14T09:14:30Z</time>
      </trkpt>
      <trkpt lat="49.26987" lon="0.16672">
        <ele>74.5</ele>
        <time>2017-05-14T09:14:31Z</time>
      </trkpt>
      <trkpt lat="49.26993" lon="0.16675">
        <ele>74.4</ele>
        <time>2017-05-14T09:14:32Z</time>
      </trkpt>
      <trkpt lat="49.26998" lon="0.16678">
        <ele>74.3</ele>
        <time>2017-05-14T09:14:33Z</time>
      </trkpt>
      <trkpt lat="49.27004" lon="0.16681">
        <ele>73.9</ele>
        <time>2017-05-14T09:14:34Z</time>
      </trkpt>
      <trkpt lat="49.27008" lon="0.16683">
        <ele>73.7</ele>
        <time>2017-05-14T09:14:35Z</time>
      </trkpt>
      <trkpt lat="49.27013" lon="0.16686">
        <ele>73.4</ele>
        <time>2017-05-14T09:14:36Z</time>
      </trkpt>
      <trkpt lat="49.27016" lon="0.16688">
        <ele>73.2</ele>
        <time>2017-05-14T09:14:37Z</time>
      </trkpt>
      <trkpt lat="49.27018" lon="0.16693">
        <ele>73</ele>
        <time>2017-05-14T09:14:38Z</time>
      </trkpt>
      <trkpt lat="49.27018" lon="0.16699">
        <ele>72.5</ele>
        <time>2017-05-14T09:14:39Z</time>
      </trkpt>
      <trkpt lat="49.27016" lon="0.16704">
        <ele>69.3</ele>
        <time>2017-05-14T09:14:40Z</time>
      </trkpt>
      <trkpt lat="49.27013" lon="0.16708">
        <ele>69.1</ele>
        <time>2017-05-14T09:14:41Z</time>
      </trkpt>
      <trkpt lat="49.27011" lon="0.16714">
        <ele>68.9</ele>
        <time>2017-05-14T09:14:42Z</time>
      </trkpt>
      <trkpt lat="49.27008" lon="0.16721">
        <ele>68.6</ele>
        <time>2017-05-14T09:14:43Z</time>
      </trkpt>
      <trkpt lat="49.27006" lon="0.16727">
        <ele>68.4</ele>
        <time>2017-05-14T09:14:44Z</time>
      </trkpt>
      <trkpt lat="49.27004" lon="0.16734">
        <ele>68</ele>
        <time>2017-05-14T09:14:45Z</time>
      </trkpt>
      <trkpt lat="49.27002" lon="0.16742">
        <ele>67.5</ele>
        <time>2017-05-14T09:14:46Z</time>
      </trkpt>
      <trkpt lat="49.26999" lon="0.16751">
        <ele>66.7</ele>
        <time>2017-05-14T09:14:47Z</time>
      </trkpt>
      <trkpt lat="49.26996" lon="0.16761">
        <ele>65.8</ele>
        <time>2017-05-14T09:14:48Z</time>
      </trkpt>
      <trkpt lat="49.26991" lon="0.16773">
        <ele>64.5</ele>
        <time>2017-05-14T09:14:49Z</time>
      </trkpt>
      <trkpt lat="49.26987" lon="0.16784">
        <ele>63.5</ele>
        <time>2017-05-14T09:14:50Z</time>
      </trkpt>
      <trkpt lat="49.26982" lon="0.16795">
        <ele>62.8</ele>
        <time>2017-05-14T09:14:51Z</time>
      </trkpt>
      <trkpt lat="49.26979" lon="0.16806">
        <ele>62.2</ele>
        <time>2017-05-14T09:14:52Z</time>
      </trkpt>
      <trkpt lat="49.26976" lon="0.16819">
        <ele>61.3</ele>
        <time>2017-05-14T09:14:53Z</time>
      </trkpt>
      <trkpt lat="49.26973" lon="0.16838">
        <ele>60.4</ele>
        <time>2017-05-14T09:14:54Z</time>
      </trkpt>
      <trkpt lat="49.26969" lon="0.16856">
        <ele>59.9</ele>
        <time>2017-05-14T09:14:55Z</time>
      </trkpt>
      <trkpt lat="49.26964" lon="0.16871">
        <ele>59.7</ele>
        <time>2017-05-14T09:14:56Z</time>
      </trkpt>
      <trkpt lat="49.2696" lon="0.16884">
        <ele>59.5</ele>
        <time>2017-05-14T09:14:57Z</time>
      </trkpt>
      <trkpt lat="49.26955" lon="0.16896">
        <ele>59.4</ele>
        <time>2017-05-14T09:14:58Z</time>
      </trkpt>
      <trkpt lat="49.26951" lon="0.16906">
        <ele>59.3</ele>
        <time>2017-05-14T09:14:59Z</time>
      </trkpt>
      <trkpt lat="49.26948" lon="0.16916">
        <ele>59.2</ele>
        <time>2017-05-14T09:15:00Z</time>
      </trkpt>
      <trkpt lat="49.26945" lon="0.16924">
        <ele>59.2</ele>
        <time>2017-05-14T09:15:01Z</time>
      </trkpt>
      <trkpt lat="49.26945" lon="0.16934">
        <ele>59.1</ele>
        <time>2017-05-14T09:15:02Z</time>
      </trkpt>
      <trkpt lat="49.26947" lon="0.16943">
        <ele>59</ele>
        <time>2017-05-14T09:15:03Z</time>
      </trkpt>
      <trkpt lat="49.26951" lon="0.16948">
        <ele>59</ele>
        <time>2017-05-14T09:15:04Z</time>
      </trkpt>
      <trkpt lat="49.26955" lon="0.1695">
        <ele>59</ele>
        <time>2017-05-14T09:15:05Z</time>
      </trkpt>
      <trkpt lat="49.26958" lon="0.16951">
        <ele>59</ele>
        <time>2017-05-14T09:15:06Z</time>
      </trkpt>
      <trkpt lat="49.26961" lon="0.16954">
        <ele>58.9</ele>
        <time>2017-05-14T09:15:07Z</time>
      </trkpt>
      <trkpt lat="49.26967" lon="0.16956">
        <ele>58.8</ele>
        <time>2017-05-14T09:15:08Z</time>
      </trkpt>
      <trkpt lat="49.26973" lon="0.16958">
        <ele>58.7</ele>
        <time>2017-05-14T09:15:09Z</time>
      </trkpt>
      <trkpt lat="49.26978" lon="0.16959">
        <ele>58.7</ele>
        <time>2017-05-14T09:15:10Z</time>
      </trkpt>
      <trkpt lat="49.26984" lon="0.1696">
        <ele>58.8</ele>
        <time>2017-05-14T09:15:11Z</time>
      </trkpt>
      <trkpt lat="49.26989" lon="0.1696">
        <ele>58.9</ele>
        <time>2017-05-14T09:15:12Z</time>
      </trkpt>
      <trkpt lat="49.26994" lon="0.16961">
        <ele>59</ele>
        <time>2017-05-14T09:15:13Z</time>
      </trkpt>
      <trkpt lat="49.26999" lon="0.16962">
        <ele>58.9</ele>
        <time>2017-05-14T09:15:14Z</time>
      </trkpt>
      <trkpt lat="49.27004" lon="0.16963">
        <ele>58.8</ele>
        <time>2017-05-14T09:15:15Z</time>
      </trkpt>
      <trkpt lat="49.2701" lon="0.16966">
        <ele>58.7</ele>
        <time>2017-05-14T09:15:16Z</time>
      </trkpt>
      <trkpt lat="49.27016" lon="0.16968">
        <ele>58.6</ele>
        <time>2017-05-14T09:15:17Z</time>
      </trkpt>
      <trkpt lat="49.27021" lon="0.16968">
        <ele>58.5</ele>
        <time>2017-05-14T09:15:18Z</time>
      </trkpt>
      <trkpt lat="49.27025" lon="0.16969">
        <ele>58.4</ele>
        <time>2017-05-14T09:15:19Z</time>
      </trkpt>
      <trkpt lat="49.2703" lon="0.16971">
        <ele>58.1</ele>
        <time>2017-05-14T09:15:20Z</time>
      </trkpt>
      <trkpt lat="49.27035" lon="0.16973">
        <ele>57.8</ele>
        <time>2017-05-14T09:15:21Z</time>
      </trkpt>
      <trkpt lat="49.2704" lon="0.16974">
        <ele>57.5</ele>
        <time>2017-05-14T09:15:22Z</time>
      </trkpt>
      <trkpt lat="49.27047" lon="0.16976">
        <ele>57.1</ele>
        <time>2017-05-14T09:15:23Z</time>
      </trkpt>
      <trkpt lat="49.27054" lon="0.16979">
        <ele>57</ele>
        <time>2017-05-14T09:15:24Z</time>
      </trkpt>
      <trkpt lat="49.2706" lon="0.16983">
        <ele>56.8</ele>
        <time>2017-05-14T09:15:25Z</time>
      </trkpt>
      <trkpt lat="49.27068" lon="0.16988">
        <ele>56.6</ele>
        <time>2017-05-14T09:15:26Z</time>
      </trkpt>
      <trkpt lat="49.27073" lon="0.16992">
        <ele>56.5</ele>
        <time>2017-05-14T09:15:27Z</time>
      </trkpt>
      <trkpt lat="49.2708" lon="0.16997">
        <ele>56.3</ele>
        <time>2017-05-14T09:15:28Z</time>
      </trkpt>
      <trkpt lat="49.27087" lon="0.17003">
        <ele>56.1</ele>
        <time>2017-05-14T09:15:29Z</time>
      </trkpt>
      <trkpt lat="49.27092" lon="0.17006">
        <ele>56</ele>
        <time>2017-05-14T09:15:30Z</time>
      </trkpt>
      <trkpt lat="49.27096" lon="0.1701">
        <ele>55.7</ele>
        <time>2017-05-14T09:15:31Z</time>
      </trkpt>
      <trkpt lat="49.27101" lon="0.17014">
        <ele>55.4</ele>
        <time>2017-05-14T09:15:32Z</time>
      </trkpt>
      <trkpt lat="49.27107" lon="0.17018">
        <ele>54.7</ele>
        <time>2017-05-14T09:15:33Z</time>
      </trkpt>
      <trkpt lat="49.27113" lon="0.17022">
        <ele>54.2</ele>
        <time>2017-05-14T09:15:34Z</time>
      </trkpt>
      <trkpt lat="49.2712" lon="0.17026">
        <ele>53.9</ele>
        <time>2017-05-14T09:15:35Z</time>
      </trkpt>
      <trkpt lat="49.27127" lon="0.1703">
        <ele>53.3</ele>
        <time>2017-05-14T09:15:36Z</time>
      </trkpt>
      <trkpt lat="49.27134" lon="0.17033">
        <ele>52.7</ele>
        <time>2017-05-14T09:15:37Z</time>
      </trkpt>
      <trkpt lat="49.27142" lon="0.17037">
        <ele>52.3</ele>
        <time>2017-05-14T09:15:38Z</time>
      </trkpt>
      <trkpt lat="49.27149" lon="0.17041">
        <ele>52.2</ele>
        <time>2017-05-14T09:15:39Z</time>
      </trkpt>
      <trkpt lat="49.27156" lon="0.17045">
        <ele>52</ele>
        <time>2017-05-14T09:15:40Z</time>
      </trkpt>
      <trkpt lat="49.27163" lon="0.17049">
        <ele>52</ele>
        <time>2017-05-14T09:15:41Z</time>
      </trkpt>
      <trkpt lat="49.27169" lon="0.17052">
        <ele>51.9</ele>
        <time>2017-05-14T09:15:42Z</time>
      </trkpt>
      <trkpt lat="49.27174" lon="0.17054">
        <ele>51.9</ele>
        <time>2017-05-14T09:15:43Z</time>
      </trkpt>
      <trkpt lat="49.27177" lon="0.17056">
        <ele>51.9</ele>
        <time>2017-05-14T09:15:44Z</time>
      </trkpt>
      <trkpt lat="49.27185" lon="0.17056">
        <ele>51.9</ele>
        <time>2017-05-14T09:15:49Z</time>
      </trkpt>
      <trkpt lat="49.27189" lon="0.17056">
        <ele>52</ele>
        <time>2017-05-14T09:15:51Z</time>
      </trkpt>
      <trkpt lat="49.27193" lon="0.17058">
        <ele>52</ele>
        <time>2017-05-14T09:16:05Z</time>
      </trkpt>
      <trkpt lat="49.27196" lon="0.17059">
        <ele>52.1</ele>
        <time>2017-05-14T09:16:06Z</time>
      </trkpt>
      <trkpt lat="49.27199" lon="0.1706">
        <ele>52.4</ele>
        <time>2017-05-14T09:16:08Z</time>
      </trkpt>
      <trkpt lat="49.27203" lon="0.17061">
        <ele>52.7</ele>
        <time>2017-05-14T09:16:10Z</time>
      </trkpt>
      <trkpt lat="49.27207" lon="0.17063">
        <ele>53</ele>
        <time>2017-05-14T09:16:12Z</time>
      </trkpt>
      <trkpt lat="49.27211" lon="0.17064">
        <ele>53.3</ele>
        <time>2017-05-14T09:16:14Z</time>
      </trkpt>
      <trkpt lat="49.27216" lon="0.17065">
        <ele>53.7</ele>
        <time>2017-05-14T09:16:16Z</time>
      </trkpt>
      <trkpt lat="49.27219" lon="0.17066">
        <ele>54</ele>
        <time>2017-05-14T09:16:18Z</time>
      </trkpt>
      <trkpt lat="49.27223" lon="0.17068">
        <ele>54.3</ele>
        <time>2017-05-14T09:16:23Z</time>
      </trkpt>
      <trkpt lat="49.27226" lon="0.17069">
        <ele>54.5</ele>
        <time>2017-05-14T09:16:24Z</time>
      </trkpt>
      <trkpt lat="49.27231" lon="0.1707">
        <ele>54.9</ele>
        <time>2017-05-14T09:16:26Z</time>
      </trkpt>
      <trkpt lat="49.27235" lon="0.17071">
        <ele>55.2</ele>
        <time>2017-05-14T09:16:28Z</time>
      </trkpt>
      <trkpt lat="49.2724" lon="0.17071">
        <ele>55.5</ele>
        <time>2017-05-14T09:16:30Z</time>
      </trkpt>
      <trkpt lat="49.27246" lon="0.1707">
        <ele>56</ele>
        <time>2017-05-14T09:16:32Z</time>
      </trkpt>
      <trkpt lat="49.27251" lon="0.17071">
        <ele>56.3</ele>
        <time>2017-05-14T09:16:34Z</time>
      </trkpt>
      <trkpt lat="49.27255" lon="0.17072">
        <ele>56.6</ele>
        <time>2017-05-14T09:16:35Z</time>
      </trkpt>
      <trkpt lat="49.27258" lon="0.17074">
        <ele>56.7</ele>
        <time>2017-05-14T09:16:36Z</time>
      </trkpt>
      <trkpt lat="49.27261" lon="0.17074">
        <ele>56.8</ele>
        <time>2017-05-14T09:16:37Z</time>
      </trkpt>
      <trkpt lat="49.27264" lon="0.17074">
        <ele>56.8</ele>
        <time>2017-05-14T09:16:38Z</time>
      </trkpt>
      <trkpt lat="49.27267" lon="0.17074">
        <ele>56.9</ele>
        <time>2017-05-14T09:16:39Z</time>
      </trkpt>
      <trkpt lat="49.27269" lon="0.17075">
        <ele>56.9</ele>
        <time>2017-05-14T09:16:40Z</time>
      </trkpt>
      <trkpt lat="49.27272" lon="0.17075">
        <ele>56.9</ele>
        <time>2017-05-14T09:16:41Z</time>
      </trkpt>
      <trkpt lat="49.27275" lon="0.17076">
        <ele>57</ele>
        <time>2017-05-14T09:16:42Z</time>
      </trkpt>
      <trkpt lat="49.27279" lon="0.17077">
        <ele>57</ele>
        <time>2017-05-14T09:16:43Z</time>
      </trkpt>
      <trkpt lat="49.27282" lon="0.17077">
        <ele>56.9</ele>
        <time>2017-05-14T09:16:44Z</time>
      </trkpt>
      <trkpt lat="49.27285" lon="0.17079">
        <ele>56.8</ele>
        <time>2017-05-14T09:16:45Z</time>
      </trkpt>
      <trkpt lat="49.2729" lon="0.17081">
        <ele>56.6</ele>
        <time>2017-05-14T09:16:47Z</time>
      </trkpt>
      <trkpt lat="49.27295" lon="0.17083">
        <ele>56.2</ele>
        <time>2017-05-14T09:16:49Z</time>
      </trkpt>
      <trkpt lat="49.27299" lon="0.17084">
        <ele>55.9</ele>
        <time>2017-05-14T09:16:51Z</time>
      </trkpt>
      <trkpt lat="49.27302" lon="0.17085">
        <ele>55.6</ele>
        <time>2017-05-14T09:16:52Z</time>
      </trkpt>
      <trkpt lat="49.27306" lon="0.17087">
        <ele>55.5</ele>
        <time>2017-05-14T09:16:53Z</time>
      </trkpt>
      <trkpt lat="49.27311" lon="0.17088">
        <ele>55.2</ele>
        <time>2017-05-14T09:16:54Z</time>
      </trkpt>
      <trkpt lat="49.27315" lon="0.1709">
        <ele>55</ele>
        <time>2017-05-14T09:16:55Z</time>
      </trkpt>
      <trkpt lat="49.27318" lon="0.17092">
        <ele>54.9</ele>
        <time>2017-05-14T09:16:56Z</time>
      </trkpt>
      <trkpt lat="49.27321" lon="0.17093">
        <ele>54.8</ele>
        <time>2017-05-14T09:16:57Z</time>
      </trkpt>
      <trkpt lat="49.27324" lon="0.17096">
        <ele>54.7</ele>
        <time>2017-05-14T09:16:58Z</time>
      </trkpt>
      <trkpt lat="49.2733" lon="0.17099">
        <ele>54.5</ele>
        <time>2017-05-14T09:16:59Z</time>
      </trkpt>
      <trkpt lat="49.27342" lon="0.17104">
        <ele>54.1</ele>
        <time>2017-05-14T09:17:03Z</time>
      </trkpt>
      <trkpt lat="49.27351" lon="0.17108">
        <ele>53.7</ele>
        <time>2017-05-14T09:17:05Z</time>
      </trkpt>
      <trkpt lat="49.27354" lon="0.17108">
        <ele>53.6</ele>
        <time>2017-05-14T09:17:06Z</time>
      </trkpt>
      <trkpt lat="49.27359" lon="0.17111">
        <ele>53.3</ele>
        <time>2017-05-14T09:17:08Z</time>
      </trkpt>
      <trkpt lat="49.27362" lon="0.17112">
        <ele>53.2</ele>
        <time>2017-05-14T09:17:09Z</time>
      </trkpt>
      <trkpt lat="49.27365" lon="0.17113">
        <ele>53.1</ele>
        <time>2017-05-14T09:17:10Z</time>
      </trkpt>
      <trkpt lat="49.27369" lon="0.17114">
        <ele>52.8</ele>
        <time>2017-05-14T09:17:11Z</time>
      </trkpt>
      <trkpt lat="49.27375" lon="0.17114">
        <ele>52.4</ele>
        <time>2017-05-14T09:17:12Z</time>
      </trkpt>
      <trkpt lat="49.27382" lon="0.17115">
        <ele>51.8</ele>
        <time>2017-05-14T09:17:13Z</time>
      </trkpt>
      <trkpt lat="49.27388" lon="0.17117">
        <ele>51.2</ele>
        <time>2017-05-14T09:17:14Z</time>
      </trkpt>
      <trkpt lat="49.27395" lon="0.17119">
        <ele>50.8</ele>
        <time>2017-05-14T09:17:15Z</time>
      </trkpt>
      <trkpt lat="49.274" lon="0.17119">
        <ele>50.2</ele>
        <time>2017-05-14T09:17:16Z</time>
      </trkpt>
      <trkpt lat="49.27408" lon="0.17121">
        <ele>50.1</ele>
        <time>2017-05-14T09:17:18Z</time>
      </trkpt>
      <trkpt lat="49.27413" lon="0.17124">
        <ele>50.1</ele>
        <time>2017-05-14T09:17:20Z</time>
      </trkpt>
      <trkpt lat="49.27435" lon="0.17127">
        <ele>51.8</ele>
        <time>2017-05-14T09:17:36Z</time>
      </trkpt>
      <trkpt lat="49.2744" lon="0.17128">
        <ele>52.1</ele>
        <time>2017-05-14T09:17:38Z</time>
      </trkpt>
      <trkpt lat="49.27447" lon="0.17128">
        <ele>52.9</ele>
        <time>2017-05-14T09:17:41Z</time>
      </trkpt>
      <trkpt lat="49.27455" lon="0.17129">
        <ele>53.4</ele>
        <time>2017-05-14T09:17:44Z</time>
      </trkpt>
      <trkpt lat="49.27458" lon="0.17129">
        <ele>53.7</ele>
        <time>2017-05-14T09:17:45Z</time>
      </trkpt>
      <trkpt lat="49.27465" lon="0.1713">
        <ele>54.2</ele>
        <time>2017-05-14T09:17:47Z</time>
      </trkpt>
      <trkpt lat="49.27484" lon="0.17131">
        <ele>54.9</ele>
        <time>2017-05-14T09:17:54Z</time>
      </trkpt>
      <trkpt lat="49.27488" lon="0.1713">
        <ele>55.1</ele>
        <time>2017-05-14T09:17:55Z</time>
      </trkpt>
      <trkpt lat="49.27491" lon="0.17129">
        <ele>55.2</ele>
        <time>2017-05-14T09:17:56Z</time>
      </trkpt>
      <trkpt lat="49.27495" lon="0.17126">
        <ele>55.7</ele>
        <time>2017-05-14T09:17:58Z</time>
      </trkpt>
      <trkpt lat="49.27498" lon="0.17123">
        <ele>56</ele>
        <time>2017-05-14T09:18:01Z</time>
      </trkpt>
      <trkpt lat="49.27503" lon="0.1712">
        <ele>56.2</ele>
        <time>2017-05-14T09:18:03Z</time>
      </trkpt>
      <trkpt lat="49.27506" lon="0.17119">
        <ele>56.2</ele>
        <time>2017-05-14T09:18:04Z</time>
      </trkpt>
      <trkpt lat="49.2751" lon="0.1712">
        <ele>56.1</ele>
        <time>2017-05-14T09:18:05Z</time>
      </trkpt>
      <trkpt lat="49.27515" lon="0.17122">
        <ele>56.1</ele>
        <time>2017-05-14T09:18:06Z</time>
      </trkpt>
      <trkpt lat="49.27521" lon="0.17127">
        <ele>56.1</ele>
        <time>2017-05-14T09:18:07Z</time>
      </trkpt>
      <trkpt lat="49.27526" lon="0.1713">
        <ele>56.1</ele>
        <time>2017-05-14T09:18:08Z</time>
      </trkpt>
      <trkpt lat="49.2753" lon="0.17133">
        <ele>56</ele>
        <time>2017-05-14T09:18:09Z</time>
      </trkpt>
      <trkpt lat="49.27534" lon="0.17136">
        <ele>56</ele>
        <time>2017-05-14T09:18:10Z</time>
      </trkpt>
      <trkpt lat="49.27538" lon="0.17139">
        <ele>56</ele>
        <time>2017-05-14T09:18:11Z</time>
      </trkpt>
      <trkpt lat="49.27542" lon="0.17143">
        <ele>56</ele>
        <time>2017-05-14T09:18:12Z</time>
      </trkpt>
      <trkpt lat="49.27545" lon="0.17147">
        <ele>56</ele>
        <time>2017-05-14T09:18:13Z</time>
      </trkpt>
      <trkpt lat="49.27549" lon="0.17151">
        <ele>56</ele>
        <time>2017-05-14T09:18:14Z</time>
      </trkpt>
      <trkpt lat="49.27553" lon="0.17155">
        <ele>56</ele>
        <time>2017-05-14T09:18:15Z</time>
      </trkpt>
      <trkpt lat="49.27556" lon="0.17158">
        <ele>56</ele>
        <time>2017-05-14T09:18:16Z</time>
      </trkpt>
      <trkpt lat="49.27559" lon="0.17162">
        <ele>56</ele>
        <time>2017-05-14T09:18:17Z</time>
      </trkpt>
      <trkpt lat="49.27563" lon="0.17166">
        <ele>56</ele>
        <time>2017-05-14T09:18:18Z</time>
      </trkpt>
      <trkpt lat="49.27568" lon="0.17171">
        <ele>56</ele>
        <time>2017-05-14T09:18:19Z</time>
      </trkpt>
      <trkpt lat="49.27573" lon="0.17177">
        <ele>56</ele>
        <time>2017-05-14T09:18:20Z</time>
      </trkpt>
      <trkpt lat="49.27577" lon="0.17183">
        <ele>56</ele>
        <time>2017-05-14T09:18:21Z</time>
      </trkpt>
      <trkpt lat="49.27582" lon="0.17188">
        <ele>56</ele>
        <time>2017-05-14T09:18:22Z</time>
      </trkpt>
      <trkpt lat="49.27587" lon="0.17194">
        <ele>56</ele>
        <time>2017-05-14T09:18:23Z</time>
      </trkpt>
      <trkpt lat="49.27592" lon="0.172">
        <ele>55.9</ele>
        <time>2017-05-14T09:18:24Z</time>
      </trkpt>
      <trkpt lat="49.27597" lon="0.17207">
        <ele>55.9</ele>
        <time>2017-05-14T09:18:25Z</time>
      </trkpt>
      <trkpt lat="49.27603" lon="0.17215">
        <ele>55.9</ele>
        <time>2017-05-14T09:18:26Z</time>
      </trkpt>
      <trkpt lat="49.2761" lon="0.17223">
        <ele>55.9</ele>
        <time>2017-05-14T09:18:27Z</time>
      </trkpt>
      <trkpt lat="49.27615" lon="0.1723">
        <ele>55.9</ele>
        <time>2017-05-14T09:18:28Z</time>
      </trkpt>
      <trkpt lat="49.27621" lon="0.17237">
        <ele>55.9</ele>
        <time>2017-05-14T09:18:29Z</time>
      </trkpt>
      <trkpt lat="49.27626" lon="0.17243">
        <ele>55.8</ele>
        <time>2017-05-14T09:18:30Z</time>
      </trkpt>
      <trkpt lat="49.27632" lon="0.1725">
        <ele>55.8</ele>
        <time>2017-05-14T09:18:31Z</time>
      </trkpt>
      <trkpt lat="49.27639" lon="0.17257">
        <ele>55.8</ele>
        <time>2017-05-14T09:18:32Z</time>
      </trkpt>
      <trkpt lat="49.27645" lon="0.17264">
        <ele>55.8</ele>
        <time>2017-05-14T09:18:33Z</time>
      </trkpt>
      <trkpt lat="49.27651" lon="0.17271">
        <ele>55.7</ele>
        <time>2017-05-14T09:18:34Z</time>
      </trkpt>
      <trkpt lat="49.27656" lon="0.17278">
        <ele>55.7</ele>
        <time>2017-05-14T09:18:35Z</time>
      </trkpt>
      <trkpt lat="49.27662" lon="0.17285">
        <ele>55.6</ele>
        <time>2017-05-14T09:18:36Z</time>
      </trkpt>
      <trkpt lat="49.27668" lon="0.17292">
        <ele>55.6</ele>
        <time>2017-05-14T09:18:37Z</time>
      </trkpt>
      <trkpt lat="49.27673" lon="0.17299">
        <ele>55.5</ele>
        <time>2017-05-14T09:18:38Z</time>
      </trkpt>
      <trkpt lat="49.2768" lon="0.17307">
        <ele>55.5</ele>
        <time>2017-05-14T09:18:39Z</time>
      </trkpt>
      <trkpt lat="49.27686" lon="0.17315">
        <ele>55.4</ele>
        <time>2017-05-14T09:18:40Z</time>
      </trkpt>
      <trkpt lat="49.27693" lon="0.17323">
        <ele>55.4</ele>
        <time>2017-05-14T09:18:41Z</time>
      </trkpt>
      <trkpt lat="49.27699" lon="0.17331">
        <ele>55.3</ele>
        <time>2017-05-14T09:18:42Z</time>
      </trkpt>
      <trkpt lat="49.27705" lon="0.17338">
        <ele>55.1</ele>
        <time>2017-05-14T09:18:43Z</time>
      </trkpt>
      <trkpt lat="49.27712" lon="0.17346">
        <ele>54.8</ele>
        <time>2017-05-14T09:18:44Z</time>
      </trkpt>
      <trkpt lat="49.27718" lon="0.17355">
        <ele>54.5</ele>
        <time>2017-05-14T09:18:45Z</time>
      </trkpt>
      <trkpt lat="49.27724" lon="0.17363">
        <ele>54.2</ele>
        <time>2017-05-14T09:18:46Z</time>
      </trkpt>
      <trkpt lat="49.27731" lon="0.1737">
        <ele>53.8</ele>
        <time>2017-05-14T09:18:47Z</time>
      </trkpt>
      <trkpt lat="49.27737" lon="0.17377">
        <ele>53.5</ele>
        <time>2017-05-14T09:18:48Z</time>
      </trkpt>
      <trkpt lat="49.27743" lon="0.17383">
        <ele>53.1</ele>
        <time>2017-05-14T09:18:49Z</time>
      </trkpt>
      <trkpt lat="49.2775" lon="0.17391">
        <ele>52.8</ele>
        <time>2017-05-14T09:18:50Z</time>
      </trkpt>
      <trkpt lat="49.27756" lon="0.17398">
        <ele>52.5</ele>
        <time>2017-05-14T09:18:51Z</time>
      </trkpt>
      <trkpt lat="49.27763" lon="0.17406">
        <ele>52.1</ele>
        <time>2017-05-14T09:18:52Z</time>
      </trkpt>
      <trkpt lat="49.27769" lon="0.17415">
        <ele>51.7</ele>
        <time>2017-05-14T09:18:53Z</time>
      </trkpt>
      <trkpt lat="49.27776" lon="0.17423">
        <ele>51.4</ele>
        <time>2017-05-14T09:18:54Z</time>
      </trkpt>
      <trkpt lat="49.27783" lon="0.17431">
        <ele>51</ele>
        <time>2017-05-14T09:18:55Z</time>
      </trkpt>
      <trkpt lat="49.27789" lon="0.17439">
        <ele>50.6</ele>
        <time>2017-05-14T09:18:56Z</time>
      </trkpt>
      <trkpt lat="49.27796" lon="0.17447">
        <ele>50.3</ele>
        <time>2017-05-14T09:18:57Z</time>
      </trkpt>
      <trkpt lat="49.27802" lon="0.17455">
        <ele>49.9</ele>
        <time>2017-05-14T09:18:58Z</time>
      </trkpt>
      <trkpt lat="49.27809" lon="0.17463">
        <ele>49.6</ele>
        <time>2017-05-14T09:18:59Z</time>
      </trkpt>
      <trkpt lat="49.27816" lon="0.17471">
        <ele>49.2</ele>
        <time>2017-05-14T09:19:00Z</time>
      </trkpt>
      <trkpt lat="49.27822" lon="0.17479">
        <ele>49</ele>
        <time>2017-05-14T09:19:01Z</time>
      </trkpt>
      <trkpt lat="49.27827" lon="0.17487">
        <ele>49</ele>
        <time>2017-05-14T09:19:02Z</time>
      </trkpt>
      <trkpt lat="49.27831" lon="0.17498">
        <ele>49</ele>
        <time>2017-05-14T09:19:03Z</time>
      </trkpt>
      <trkpt lat="49.27832" lon="0.17507">
        <ele>49</ele>
        <time>2017-05-14T09:19:04Z</time>
      </trkpt>
      <trkpt lat="49.2783" lon="0.17517">
        <ele>49</ele>
        <time>2017-05-14T09:19:05Z</time>
      </trkpt>
      <trkpt lat="49.27826" lon="0.17527">
        <ele>48.6</ele>
        <time>2017-05-14T09:19:06Z</time>
      </trkpt>
      <trkpt lat="49.27822" lon="0.17537">
        <ele>48.1</ele>
        <time>2017-05-14T09:19:07Z</time>
      </trkpt>
      <trkpt lat="49.27817" lon="0.17548">
        <ele>47.6</ele>
        <time>2017-05-14T09:19:08Z</time>
      </trkpt>
      <trkpt lat="49.27812" lon="0.17558">
        <ele>47.1</ele>
        <time>2017-05-14T09:19:09Z</time>
      </trkpt>
      <trkpt lat="49.27807" lon="0.17569">
        <ele>46.7</ele>
        <time>2017-05-14T09:19:10Z</time>
      </trkpt>
      <trkpt lat="49.27804" lon="0.17581">
        <ele>46.5</ele>
        <time>2017-05-14T09:19:11Z</time>
      </trkpt>
      <trkpt lat="49.27801" lon="0.17594">
        <ele>46.3</ele>
        <time>2017-05-14T09:19:12Z</time>
      </trkpt>
      <trkpt lat="49.27799" lon="0.17607">
        <ele>46.2</ele>
        <time>2017-05-14T09:19:13Z</time>
      </trkpt>
      <trkpt lat="49.27798" lon="0.17619">
        <ele>46.1</ele>
        <time>2017-05-14T09:19:14Z</time>
      </trkpt>
      <trkpt lat="49.27797" lon="0.17634">
        <ele>46</ele>
        <time>2017-05-14T09:19:15Z</time>
      </trkpt>
      <trkpt lat="49.27797" lon="0.17646">
        <ele>45.7</ele>
        <time>2017-05-14T09:19:16Z</time>
      </trkpt>
      <trkpt lat="49.27797" lon="0.17661">
        <ele>45.3</ele>
        <time>2017-05-14T09:19:17Z</time>
      </trkpt>
      <trkpt lat="49.27798" lon="0.17674">
        <ele>45.1</ele>
        <time>2017-05-14T09:19:18Z</time>
      </trkpt>
      <trkpt lat="49.27799" lon="0.17688">
        <ele>44.8</ele>
        <time>2017-05-14T09:19:19Z</time>
      </trkpt>
      <trkpt lat="49.27799" lon="0.177">
        <ele>44.3</ele>
        <time>2017-05-14T09:19:20Z</time>
      </trkpt>
      <trkpt lat="49.278" lon="0.17714">
        <ele>43.4</ele>
        <time>2017-05-14T09:19:21Z</time>
      </trkpt>
      <trkpt lat="49.27801" lon="0.17727">
        <ele>42.3</ele>
        <time>2017-05-14T09:19:22Z</time>
      </trkpt>
      <trkpt lat="49.27802" lon="0.1774">
        <ele>40.8</ele>
        <time>2017-05-14T09:19:23Z</time>
      </trkpt>
      <trkpt lat="49.27804" lon="0.17753">
        <ele>39.2</ele>
        <time>2017-05-14T09:19:24Z</time>
      </trkpt>
      <trkpt lat="49.27806" lon="0.17766">
        <ele>37.3</ele>
        <time>2017-05-14T09:19:25Z</time>
      </trkpt>
      <trkpt lat="49.27808" lon="0.1778">
        <ele>37</ele>
        <time>2017-05-14T09:19:26Z</time>
      </trkpt>
      <trkpt lat="49.2781" lon="0.17793">
        <ele>37</ele>
        <time>2017-05-14T09:19:27Z</time>
      </trkpt>
      <trkpt lat="49.27811" lon="0.17803">
        <ele>37</ele>
        <time>2017-05-14T09:19:28Z</time>
      </trkpt>
      <trkpt lat="49.27812" lon="0.17817">
        <ele>36.9</ele>
        <time>2017-05-14T09:19:29Z</time>
      </trkpt>
      <trkpt lat="49.27813" lon="0.17834">
        <ele>36</ele>
        <time>2017-05-14T09:19:30Z</time>
      </trkpt>
      <trkpt lat="49.27815" lon="0.17846">
        <ele>35.7</ele>
        <time>2017-05-14T09:19:31Z</time>
      </trkpt>
      <trkpt lat="49.27816" lon="0.17859">
        <ele>35.6</ele>
        <time>2017-05-14T09:19:32Z</time>
      </trkpt>
      <trkpt lat="49.27817" lon="0.17872">
        <ele>35.5</ele>
        <time>2017-05-14T09:19:33Z</time>
      </trkpt>
      <trkpt lat="49.27818" lon="0.17884">
        <ele>35.3</ele>
        <time>2017-05-14T09:19:34Z</time>
      </trkpt>
      <trkpt lat="49.27816" lon="0.17896">
        <ele>35</ele>
        <time>2017-05-14T09:19:35Z</time>
      </trkpt>
      <trkpt lat="49.27815" lon="0.17908">
        <ele>34.7</ele>
        <time>2017-05-14T09:19:36Z</time>
      </trkpt>
      <trkpt lat="49.27814" lon="0.17919">
        <ele>32.2</ele>
        <time>2017-05-14T09:19:37Z</time>
      </trkpt>
      <trkpt lat="49.27814" lon="0.17927">
        <ele>32</ele>
        <time>2017-05-14T09:19:38Z</time>
      </trkpt>
      <trkpt lat="49.27816" lon="0.17934">
        <ele>32</ele>
        <time>2017-05-14T09:19:39Z</time>
      </trkpt>
      <trkpt lat="49.27819" lon="0.1794">
        <ele>32</ele>
        <time>2017-05-14T09:19:40Z</time>
      </trkpt>
      <trkpt lat="49.27822" lon="0.17947">
        <ele>32</ele>
        <time>2017-05-14T09:19:41Z</time>
      </trkpt>
      <trkpt lat="49.27825" lon="0.17957">
        <ele>32</ele>
        <time>2017-05-14T09:19:42Z</time>
      </trkpt>
      <trkpt lat="49.27825" lon="0.17967">
        <ele>32</ele>
        <time>2017-05-14T09:19:43Z</time>
      </trkpt>
      <trkpt lat="49.27825" lon="0.17976">
        <ele>32</ele>
        <time>2017-05-14T09:19:44Z</time>
      </trkpt>
      <trkpt lat="49.27824" lon="0.17986">
        <ele>32</ele>
        <time>2017-05-14T09:19:45Z</time>
      </trkpt>
      <trkpt lat="49.27823" lon="0.17997">
        <ele>32</ele>
        <time>2017-05-14T09:19:46Z</time>
      </trkpt>
      <trkpt lat="49.27822" lon="0.18011">
        <ele>31.8</ele>
        <time>2017-05-14T09:19:47Z</time>
      </trkpt>
      <trkpt lat="49.2782" lon="0.18024">
        <ele>31.2</ele>
        <time>2017-05-14T09:19:48Z</time>
      </trkpt>
      <trkpt lat="49.27819" lon="0.18036">
        <ele>30.9</ele>
        <time>2017-05-14T09:19:49Z</time>
      </trkpt>
      <trkpt lat="49.27817" lon="0.18049">
        <ele>30.4</ele>
        <time>2017-05-14T09:19:50Z</time>
      </trkpt>
      <trkpt lat="49.27816" lon="0.1806">
        <ele>29.8</ele>
        <time>2017-05-14T09:19:51Z</time>
      </trkpt>
      <trkpt lat="49.27815" lon="0.18072">
        <ele>29</ele>
        <time>2017-05-14T09:19:52Z</time>
      </trkpt>
      <trkpt lat="49.27813" lon="0.18085">
        <ele>28.8</ele>
        <time>2017-05-14T09:19:53Z</time>
      </trkpt>
      <trkpt lat="49.27812" lon="0.18098">
        <ele>28</ele>
        <time>2017-05-14T09:19:54Z</time>
      </trkpt>
      <trkpt lat="49.27811" lon="0.1811">
        <ele>27.6</ele>
        <time>2017-05-14T09:19:55Z</time>
      </trkpt>
      <trkpt lat="49.2781" lon="0.18123">
        <ele>27.1</ele>
        <time>2017-05-14T09:19:56Z</time>
      </trkpt>
      <trkpt lat="49.27809" lon="0.18135">
        <ele>26.6</ele>
        <time>2017-05-14T09:19:57Z</time>
      </trkpt>
      <trkpt lat="49.27809" lon="0.18148">
        <ele>26</ele>
        <time>2017-05-14T09:19:58Z</time>
      </trkpt>
      <trkpt lat="49.27809" lon="0.18161">
        <ele>25.3</ele>
        <time>2017-05-14T09:19:59Z</time>
      </trkpt>
      <trkpt lat="49.27809" lon="0.18174">
        <ele>24.5</ele>
        <time>2017-05-14T09:20:00Z</time>
      </trkpt>
      <trkpt lat="49.27811" lon="0.18188">
        <ele>24</ele>
        <time>2017-05-14T09:20:01Z</time>
      </trkpt>
      <trkpt lat="49.27814" lon="0.18202">
        <ele>23.6</ele>
        <time>2017-05-14T09:20:02Z</time>
      </trkpt>
      <trkpt lat="49.27817" lon="0.18215">
        <ele>22.8</ele>
        <time>2017-05-14T09:20:03Z</time>
      </trkpt>
      <trkpt lat="49.2782" lon="0.18228">
        <ele>22.1</ele>
        <time>2017-05-14T09:20:04Z</time>
      </trkpt>
      <trkpt lat="49.27822" lon="0.18241">
        <ele>21.4</ele>
        <time>2017-05-14T09:20:05Z</time>
      </trkpt>
      <trkpt lat="49.27825" lon="0.18253">
        <ele>20.8</ele>
        <time>2017-05-14T09:20:06Z</time>
      </trkpt>
      <trkpt lat="49.27828" lon="0.18265">
        <ele>20.2</ele>
        <time>2017-05-14T09:20:07Z</time>
      </trkpt>
      <trkpt lat="49.27832" lon="0.18279">
        <ele>21.4</ele>
        <time>2017-05-14T09:20:08Z</time>
      </trkpt>
      <trkpt lat="49.27837" lon="0.18291">
        <ele>22.8</ele>
        <time>2017-05-14T09:20:09Z</time>
      </trkpt>
      <trkpt lat="49.27844" lon="0.18301">
        <ele>21.8</ele>
        <time>2017-05-14T09:20:10Z</time>
      </trkpt>
      <trkpt lat="49.27851" lon="0.18313">
        <ele>20.9</ele>
        <time>2017-05-14T09:20:11Z</time>
      </trkpt>
      <trkpt lat="49.27859" lon="0.18323">
        <ele>20.3</ele>
        <time>2017-05-14T09:20:12Z</time>
      </trkpt>
      <trkpt lat="49.27866" lon="0.18331">
        <ele>19.8</ele>
        <time>2017-05-14T09:20:13Z</time>
      </trkpt>
      <trkpt lat="49.27874" lon="0.18337">
        <ele>19.2</ele>
        <time>2017-05-14T09:20:14Z</time>
      </trkpt>
      <trkpt lat="49.27882" lon="0.18342">
        <ele>18.7</ele>
        <time>2017-05-14T09:20:15Z</time>
      </trkpt>
      <trkpt lat="49.2789" lon="0.18346">
        <ele>18.6</ele>
        <time>2017-05-14T09:20:16Z</time>
      </trkpt>
      <trkpt lat="49.27899" lon="0.1835">
        <ele>18.8</ele>
        <time>2017-05-14T09:20:17Z</time>
      </trkpt>
      <trkpt lat="49.27908" lon="0.18353">
        <ele>19.4</ele>
        <time>2017-05-14T09:20:18Z</time>
      </trkpt>
      <trkpt lat="49.27916" lon="0.18355">
        <ele>20.7</ele>
        <time>2017-05-14T09:20:19Z</time>
      </trkpt>
      <trkpt lat="49.27924" lon="0.18357">
        <ele>21.2</ele>
        <time>2017-05-14T09:20:20Z</time>
      </trkpt>
      <trkpt lat="49.27932" lon="0.18359">
        <ele>21.7</ele>
        <time>2017-05-14T09:20:21Z</time>
      </trkpt>
      <trkpt lat="49.2794" lon="0.1836">
        <ele>22.1</ele>
        <time>2017-05-14T09:20:22Z</time>
      </trkpt>
      <trkpt lat="49.27948" lon="0.18362">
        <ele>22.6</ele>
        <time>2017-05-14T09:20:23Z</time>
      </trkpt>
      <trkpt lat="49.27953" lon="0.18364">
        <ele>23.3</ele>
        <time>2017-05-14T09:20:24Z</time>
      </trkpt>
      <trkpt lat="49.2796" lon="0.18367">
        <ele>24.2</ele>
        <time>2017-05-14T09:20:25Z</time>
      </trkpt>
      <trkpt lat="49.27967" lon="0.18369">
        <ele>24.7</ele>
        <time>2017-05-14T09:20:26Z</time>
      </trkpt>
      <trkpt lat="49.27973" lon="0.18371">
        <ele>24.9</ele>
        <time>2017-05-14T09:20:27Z</time>
      </trkpt>
      <trkpt lat="49.27979" lon="0.18373">
        <ele>25.1</ele>
        <time>2017-05-14T09:20:28Z</time>
      </trkpt>
      <trkpt lat="49.27986" lon="0.18374">
        <ele>25.3</ele>
        <time>2017-05-14T09:20:29Z</time>
      </trkpt>
      <trkpt lat="49.27993" lon="0.18375">
        <ele>25.4</ele>
        <time>2017-05-14T09:20:30Z</time>
      </trkpt>
      <trkpt lat="49.28" lon="0.18375">
        <ele>25.5</ele>
        <time>2017-05-14T09:20:31Z</time>
      </trkpt>
      <trkpt lat="49.28008" lon="0.18376">
        <ele>25.6</ele>
        <time>2017-05-14T09:20:32Z</time>
      </trkpt>
      <trkpt lat="49.28015" lon="0.18378">
        <ele>25.7</ele>
        <time>2017-05-14T09:20:33Z</time>
      </trkpt>
      <trkpt lat="49.28022" lon="0.18379">
        <ele>25.7</ele>
        <time>2017-05-14T09:20:34Z</time>
      </trkpt>
      <trkpt lat="49.28028" lon="0.1838">
        <ele>25.8</ele>
        <time>2017-05-14T09:20:35Z</time>
      </trkpt>
      <trkpt lat="49.28034" lon="0.1838">
        <ele>25.8</ele>
        <time>2017-05-14T09:20:36Z</time>
      </trkpt>
      <trkpt lat="49.28041" lon="0.18381">
        <ele>25.9</ele>
        <time>2017-05-14T09:20:37Z</time>
      </trkpt>
      <trkpt lat="49.28047" lon="0.18383">
        <ele>25.9</ele>
        <time>2017-05-14T09:20:38Z</time>
      </trkpt>
      <trkpt lat="49.28053" lon="0.18384">
        <ele>26</ele>
        <time>2017-05-14T09:20:39Z</time>
      </trkpt>
      <trkpt lat="49.2806" lon="0.18386">
        <ele>26.1</ele>
        <time>2017-05-14T09:20:40Z</time>
      </trkpt>
      <trkpt lat="49.28067" lon="0.18387">
        <ele>26.1</ele>
        <time>2017-05-14T09:20:41Z</time>
      </trkpt>
      <trkpt lat="49.28076" lon="0.18388">
        <ele>26.2</ele>
        <time>2017-05-14T09:20:42Z</time>
      </trkpt>
      <trkpt lat="49.28084" lon="0.18388">
        <ele>26.3</ele>
        <time>2017-05-14T09:20:43Z</time>
      </trkpt>
      <trkpt lat="49.28091" lon="0.18388">
        <ele>26.3</ele>
        <time>2017-05-14T09:20:44Z</time>
      </trkpt>
      <trkpt lat="49.28098" lon="0.18385">
        <ele>26.3</ele>
        <time>2017-05-14T09:20:45Z</time>
      </trkpt>
      <trkpt lat="49.28105" lon="0.18384">
        <ele>26.3</ele>
        <time>2017-05-14T09:20:46Z</time>
      </trkpt>
      <trkpt lat="49.28113" lon="0.1838">
        <ele>26.3</ele>
        <time>2017-05-14T09:20:47Z</time>
      </trkpt>
      <trkpt lat="49.28122" lon="0.18375">
        <ele>26.2</ele>
        <time>2017-05-14T09:20:48Z</time>
      </trkpt>
      <trkpt lat="49.2813" lon="0.18369">
        <ele>26.2</ele>
        <time>2017-05-14T09:20:49Z</time>
      </trkpt>
      <trkpt lat="49.28137" lon="0.18364">
        <ele>26.1</ele>
        <time>2017-05-14T09:20:50Z</time>
      </trkpt>
      <trkpt lat="49.28143" lon="0.1836">
        <ele>26.1</ele>
        <time>2017-05-14T09:20:51Z</time>
      </trkpt>
      <trkpt lat="49.28146" lon="0.18358">
        <ele>25.9</ele>
        <time>2017-05-14T09:20:52Z</time>
      </trkpt>
      <trkpt lat="49.28151" lon="0.18363">
        <ele>23.9</ele>
        <time>2017-05-14T09:20:54Z</time>
      </trkpt>
      <trkpt lat="49.28154" lon="0.18367">
        <ele>23.3</ele>
        <time>2017-05-14T09:20:55Z</time>
      </trkpt>
      <trkpt lat="49.28155" lon="0.18373">
        <ele>22.6</ele>
        <time>2017-05-14T09:20:56Z</time>
      </trkpt>
      <trkpt lat="49.28157" lon="0.18381">
        <ele>21.6</ele>
        <time>2017-05-14T09:20:58Z</time>
      </trkpt>
      <trkpt lat="49.28158" lon="0.18388">
        <ele>20.9</ele>
        <time>2017-05-14T09:20:59Z</time>
      </trkpt>
      <trkpt lat="49.28159" lon="0.18393">
        <ele>20.3</ele>
        <time>2017-05-14T09:21:00Z</time>
      </trkpt>
      <trkpt lat="49.2816" lon="0.18398">
        <ele>19.7</ele>
        <time>2017-05-14T09:21:01Z</time>
      </trkpt>
      <trkpt lat="49.28161" lon="0.18402">
        <ele>19.2</ele>
        <time>2017-05-14T09:21:02Z</time>
      </trkpt>
      <trkpt lat="49.28163" lon="0.18408">
        <ele>18.5</ele>
        <time>2017-05-14T09:21:03Z</time>
      </trkpt>
      <trkpt lat="49.28165" lon="0.18412">
        <ele>17.8</ele>
        <time>2017-05-14T09:21:04Z</time>
      </trkpt>
      <trkpt lat="49.28168" lon="0.18417">
        <ele>17.1</ele>
        <time>2017-05-14T09:21:05Z</time>
      </trkpt>
      <trkpt lat="49.28172" lon="0.1842">
        <ele>16.2</ele>
        <time>2017-05-14T09:21:06Z</time>
      </trkpt>
      <trkpt lat="49.28178" lon="0.18419">
        <ele>16.5</ele>
        <time>2017-05-14T09:21:08Z</time>
      </trkpt>
      <trkpt lat="49.28182" lon="0.18417">
        <ele>16.7</ele>
        <time>2017-05-14T09:21:09Z</time>
      </trkpt>
      <trkpt lat="49.28186" lon="0.18414">
        <ele>17</ele>
        <time>2017-05-14T09:21:10Z</time>
      </trkpt>
      <trkpt lat="49.2819" lon="0.18411">
        <ele>17.2</ele>
        <time>2017-05-14T09:21:11Z</time>
      </trkpt>
      <trkpt lat="49.28193" lon="0.18408">
        <ele>17.4</ele>
        <time>2017-05-14T09:21:12Z</time>
      </trkpt>
      <trkpt lat="49.28199" lon="0.18408">
        <ele>17.7</ele>
        <time>2017-05-14T09:21:13Z</time>
      </trkpt>
      <trkpt lat="49.28204" lon="0.18411">
        <ele>18</ele>
        <time>2017-05-14T09:21:14Z</time>
      </trkpt>
      <trkpt lat="49.2821" lon="0.18414">
        <ele>18</ele>
        <time>2017-05-14T09:21:15Z</time>
      </trkpt>
      <trkpt lat="49.28215" lon="0.18418">
        <ele>18</ele>
        <time>2017-05-14T09:21:16Z</time>
      </trkpt>
      <trkpt lat="49.28221" lon="0.18421">
        <ele>17.5</ele>
        <time>2017-05-14T09:21:17Z</time>
      </trkpt>
      <trkpt lat="49.28227" lon="0.18426">
        <ele>17.1</ele>
        <time>2017-05-14T09:21:18Z</time>
      </trkpt>
      <trkpt lat="49.28232" lon="0.18431">
        <ele>16.7</ele>
        <time>2017-05-14T09:21:19Z</time>
      </trkpt>
      <trkpt lat="49.28238" lon="0.18438">
        <ele>16.1</ele>
        <time>2017-05-14T09:21:20Z</time>
      </trkpt>
      <trkpt lat="49.28244" lon="0.18445">
        <ele>15.7</ele>
        <time>2017-05-14T09:21:21Z</time>
      </trkpt>
      <trkpt lat="49.28251" lon="0.18454">
        <ele>15.2</ele>
        <time>2017-05-14T09:21:22Z</time>
      </trkpt>
      <trkpt lat="49.28257" lon="0.18461">
        <ele>14.7</ele>
        <time>2017-05-14T09:21:23Z</time>
      </trkpt>
      <trkpt lat="49.28263" lon="0.18468">
        <ele>14.3</ele>
        <time>2017-05-14T09:21:24Z</time>
      </trkpt>
      <trkpt lat="49.28268" lon="0.18475">
        <ele>13.9</ele>
        <time>2017-05-14T09:21:25Z</time>
      </trkpt>
      <trkpt lat="49.28272" lon="0.1848">
        <ele>13.6</ele>
        <time>2017-05-14T09:21:26Z</time>
      </trkpt>
      <trkpt lat="49.28277" lon="0.18486">
        <ele>13.2</ele>
        <time>2017-05-14T09:21:27Z</time>
      </trkpt>
      <trkpt lat="49.2828" lon="0.1849">
        <ele>12.7</ele>
        <time>2017-05-14T09:21:28Z</time>
      </trkpt>
      <trkpt lat="49.28284" lon="0.18495">
        <ele>12.3</ele>
        <time>2017-05-14T09:21:29Z</time>
      </trkpt>
      <trkpt lat="49.2829" lon="0.185">
        <ele>11.6</ele>
        <time>2017-05-14T09:21:34Z</time>
      </trkpt>
      <trkpt lat="49.28293" lon="0.18499">
        <ele>11.3</ele>
        <time>2017-05-14T09:21:35Z</time>
      </trkpt>
      <trkpt lat="49.28296" lon="0.18497">
        <ele>10.9</ele>
        <time>2017-05-14T09:21:36Z</time>
      </trkpt>
      <trkpt lat="49.283" lon="0.18496">
        <ele>10.9</ele>
        <time>2017-05-14T09:21:37Z</time>
      </trkpt>
      <trkpt lat="49.28304" lon="0.18494">
        <ele>10.9</ele>
        <time>2017-05-14T09:21:38Z</time>
      </trkpt>
      <trkpt lat="49.28307" lon="0.18491">
        <ele>10.9</ele>
        <time>2017-05-14T09:21:39Z</time>
      </trkpt>
      <trkpt lat="49.28311" lon="0.18487">
        <ele>10.9</ele>
        <time>2017-05-14T09:21:40Z</time>
      </trkpt>
      <trkpt lat="49.28314" lon="0.18484">
        <ele>10.9</ele>
        <time>2017-05-14T09:21:41Z</time>
      </trkpt>
      <trkpt lat="49.28317" lon="0.1848">
        <ele>10.9</ele>
        <time>2017-05-14T09:21:42Z</time>
      </trkpt>
      <trkpt lat="49.28321" lon="0.18478">
        <ele>10.9</ele>
        <time>2017-05-14T09:21:44Z</time>
      </trkpt>
      <trkpt lat="49.28327" lon="0.18475">
        <ele>10.9</ele>
        <time>2017-05-14T09:21:47Z</time>
      </trkpt>
      <trkpt lat="49.28332" lon="0.1847">
        <ele>10.9</ele>
        <time>2017-05-14T09:21:49Z</time>
      </trkpt>
      <trkpt lat="49.28338" lon="0.18467">
        <ele>10.9</ele>
        <time>2017-05-14T09:21:50Z</time>
      </trkpt>
      <trkpt lat="49.28342" lon="0.18463">
        <ele>10.9</ele>
        <time>2017-05-14T09:21:51Z</time>
      </trkpt>
      <trkpt lat="49.28347" lon="0.1846">
        <ele>10.9</ele>
        <time>2017-05-14T09:21:52Z</time>
      </trkpt>
      <trkpt lat="49.28352" lon="0.18456">
        <ele>10.9</ele>
        <time>2017-05-14T09:21:53Z</time>
      </trkpt>
      <trkpt lat="49.28357" lon="0.18453">
        <ele>10.9</ele>
        <time>2017-05-14T09:21:54Z</time>
      </trkpt>
      <trkpt lat="49.28362" lon="0.18449">
        <ele>10.9</ele>
        <time>2017-05-14T09:21:55Z</time>
      </trkpt>
      <trkpt lat="49.28367" lon="0.18444">
        <ele>10.9</ele>
        <time>2017-05-14T09:21:56Z</time>
      </trkpt>
      <trkpt lat="49.28371" lon="0.1844">
        <ele>11</ele>
        <time>2017-05-14T09:21:57Z</time>
      </trkpt>
      <trkpt lat="49.28376" lon="0.18435">
        <ele>11</ele>
        <time>2017-05-14T09:21:58Z</time>
      </trkpt>
      <trkpt lat="49.28381" lon="0.1843">
        <ele>11</ele>
        <time>2017-05-14T09:21:59Z</time>
      </trkpt>
      <trkpt lat="49.28386" lon="0.18424">
        <ele>11</ele>
        <time>2017-05-14T09:22:00Z</time>
      </trkpt>
      <trkpt lat="49.28391" lon="0.18419">
        <ele>11</ele>
        <time>2017-05-14T09:22:01Z</time>
      </trkpt>
      <trkpt lat="49.28396" lon="0.18414">
        <ele>11</ele>
        <time>2017-05-14T09:22:02Z</time>
      </trkpt>
      <trkpt lat="49.28401" lon="0.1841">
        <ele>11.1</ele>
        <time>2017-05-14T09:22:03Z</time>
      </trkpt>
      <trkpt lat="49.28406" lon="0.18404">
        <ele>11.1</ele>
        <time>2017-05-14T09:22:04Z</time>
      </trkpt>
      <trkpt lat="49.2841" lon="0.18399">
        <ele>11.2</ele>
        <time>2017-05-14T09:22:05Z</time>
      </trkpt>
      <trkpt lat="49.28415" lon="0.18395">
        <ele>11.2</ele>
        <time>2017-05-14T09:22:06Z</time>
      </trkpt>
      <trkpt lat="49.2842" lon="0.18393">
        <ele>11.2</ele>
        <time>2017-05-14T09:22:07Z</time>
      </trkpt>
      <trkpt lat="49.28424" lon="0.18395">
        <ele>11.3</ele>
        <time>2017-05-14T09:22:08Z</time>
      </trkpt>
      <trkpt lat="49.28428" lon="0.18396">
        <ele>11.3</ele>
        <time>2017-05-14T09:22:11Z</time>
      </trkpt>
      <trkpt lat="49.28433" lon="0.184">
        <ele>11.5</ele>
        <time>2017-05-14T09:22:13Z</time>
      </trkpt>
      <trkpt lat="49.28437" lon="0.18403">
        <ele>11.5</ele>
        <time>2017-05-14T09:22:14Z</time>
      </trkpt>
      <trkpt lat="49.28439" lon="0.18405">
        <ele>11.5</ele>
        <time>2017-05-14T09:22:15Z</time>
      </trkpt>
      <trkpt lat="49.28443" lon="0.18405">
        <ele>11.4</ele>
        <time>2017-05-14T09:22:16Z</time>
      </trkpt>
      <trkpt lat="49.28447" lon="0.18405">
        <ele>11.5</ele>
        <time>2017-05-14T09:22:17Z</time>
      </trkpt>
      <trkpt lat="49.2845" lon="0.18405">
        <ele>11.4</ele>
        <time>2017-05-14T09:22:18Z</time>
      </trkpt>
      <trkpt lat="49.28454" lon="0.18405">
        <ele>11.2</ele>
        <time>2017-05-14T09:22:19Z</time>
      </trkpt>
      <trkpt lat="49.28457" lon="0.18406">
        <ele>11.1</ele>
        <time>2017-05-14T09:22:20Z</time>
      </trkpt>
      <trkpt lat="49.28462" lon="0.18413">
        <ele>11.1</ele>
        <time>2017-05-14T09:22:22Z</time>
      </trkpt>
      <trkpt lat="49.28465" lon="0.18418">
        <ele>11</ele>
        <time>2017-05-14T09:22:23Z</time>
      </trkpt>
      <trkpt lat="49.28469" lon="0.18424">
        <ele>11</ele>
        <time>2017-05-14T09:22:24Z</time>
      </trkpt>
      <trkpt lat="49.28472" lon="0.1843">
        <ele>11</ele>
        <time>2017-05-14T09:22:25Z</time>
      </trkpt>
      <trkpt lat="49.28475" lon="0.18435">
        <ele>11</ele>
        <time>2017-05-14T09:22:26Z</time>
      </trkpt>
      <trkpt lat="49.28478" lon="0.18441">
        <ele>11.1</ele>
        <time>2017-05-14T09:22:27Z</time>
      </trkpt>
      <trkpt lat="49.28481" lon="0.18445">
        <ele>11.1</ele>
        <time>2017-05-14T09:22:28Z</time>
      </trkpt>
      <trkpt lat="49.28484" lon="0.1845">
        <ele>11.2</ele>
        <time>2017-05-14T09:22:29Z</time>
      </trkpt>
      <trkpt lat="49.28487" lon="0.18452">
        <ele>11.3</ele>
        <time>2017-05-14T09:22:30Z</time>
      </trkpt>
      <trkpt lat="49.28491" lon="0.18451">
        <ele>11.4</ele>
        <time>2017-05-14T09:22:32Z</time>
      </trkpt>
      <trkpt lat="49.28494" lon="0.18449">
        <ele>11.6</ele>
        <time>2017-05-14T09:22:34Z</time>
      </trkpt>
      <trkpt lat="49.28498" lon="0.18445">
        <ele>11.7</ele>
        <time>2017-05-14T09:22:36Z</time>
      </trkpt>
      <trkpt lat="49.285" lon="0.18442">
        <ele>11.7</ele>
        <time>2017-05-14T09:22:37Z</time>
      </trkpt>
      <trkpt lat="49.28503" lon="0.18438">
        <ele>11.7</ele>
        <time>2017-05-14T09:22:38Z</time>
      </trkpt>
      <trkpt lat="49.28507" lon="0.18434">
        <ele>11.7</ele>
        <time>2017-05-14T09:22:39Z</time>
      </trkpt>
      <trkpt lat="49.2851" lon="0.18429">
        <ele>11.6</ele>
        <time>2017-05-14T09:22:40Z</time>
      </trkpt>
      <trkpt lat="49.28513" lon="0.18425">
        <ele>11.6</ele>
        <time>2017-05-14T09:22:41Z</time>
      </trkpt>
      <trkpt lat="49.28515" lon="0.1842">
        <ele>11.6</ele>
        <time>2017-05-14T09:22:42Z</time>
      </trkpt>
      <trkpt lat="49.28518" lon="0.18416">
        <ele>11.6</ele>
        <time>2017-05-14T09:22:43Z</time>
      </trkpt>
      <trkpt lat="49.28521" lon="0.18411">
        <ele>11.6</ele>
        <time>2017-05-14T09:22:44Z</time>
      </trkpt>
      <trkpt lat="49.28524" lon="0.18407">
        <ele>11.7</ele>
        <time>2017-05-14T09:22:45Z</time>
      </trkpt>
      <trkpt lat="49.28527" lon="0.18403">
        <ele>11.7</ele>
        <time>2017-05-14T09:22:46Z</time>
      </trkpt>
      <trkpt lat="49.28529" lon="0.18399">
        <ele>11.7</ele>
        <time>2017-05-14T09:22:47Z</time>
      </trkpt>
      <trkpt lat="49.28533" lon="0.18395">
        <ele>11.7</ele>
        <time>2017-05-14T09:22:49Z</time>
      </trkpt>
      <trkpt lat="49.28538" lon="0.18384">
        <ele>11.8</ele>
        <time>2017-05-14T09:22:54Z</time>
      </trkpt>
      <trkpt lat="49.28536" lon="0.1838">
        <ele>11.9</ele>
        <time>2017-05-14T09:22:56Z</time>
      </trkpt>
      <trkpt lat="49.28533" lon="0.18377">
        <ele>12</ele>
        <time>2017-05-14T09:22:58Z</time>
      </trkpt>
      <trkpt lat="49.28537" lon="0.18377">
        <ele>12</ele>
        <time>2017-05-14T09:23:01Z</time>
      </trkpt>
      <trkpt lat="49.28542" lon="0.18379">
        <ele>12</ele>
        <time>2017-05-14T09:23:02Z</time>
      </trkpt>
      <trkpt lat="49.28547" lon="0.18383">
        <ele>12</ele>
        <time>2017-05-14T09:23:03Z</time>
      </trkpt>
      <trkpt lat="49.2855" lon="0.18388">
        <ele>12</ele>
        <time>2017-05-14T09:23:04Z</time>
      </trkpt>
      <trkpt lat="49.28556" lon="0.18398">
        <ele>12</ele>
        <time>2017-05-14T09:23:05Z</time>
      </trkpt>
      <trkpt lat="49.28562" lon="0.1841">
        <ele>11.9</ele>
        <time>2017-05-14T09:23:06Z</time>
      </trkpt>
      <trkpt lat="49.28567" lon="0.1842">
        <ele>11.9</ele>
        <time>2017-05-14T09:23:07Z</time>
      </trkpt>
      <trkpt lat="49.28571" lon="0.1843">
        <ele>11.8</ele>
        <time>2017-05-14T09:23:08Z</time>
      </trkpt>
      <trkpt lat="49.28577" lon="0.18442">
        <ele>11.6</ele>
        <time>2017-05-14T09:23:09Z</time>
      </trkpt>
      <trkpt lat="49.28582" lon="0.18459">
        <ele>11.9</ele>
        <time>2017-05-14T09:23:10Z</time>
      </trkpt>
      <trkpt lat="49.28587" lon="0.18472">
        <ele>12.1</ele>
        <time>2017-05-14T09:23:11Z</time>
      </trkpt>
      <trkpt lat="49.28593" lon="0.18488">
        <ele>12</ele>
        <time>2017-05-14T09:23:12Z</time>
      </trkpt>
      <trkpt lat="49.28598" lon="0.18499">
        <ele>12</ele>
        <time>2017-05-14T09:23:13Z</time>
      </trkpt>
      <trkpt lat="49.28602" lon="0.18509">
        <ele>12.2</ele>
        <time>2017-05-14T09:23:14Z</time>
      </trkpt>
      <trkpt lat="49.28605" lon="0.18518">
        <ele>12.3</ele>
        <time>2017-05-14T09:23:15Z</time>
      </trkpt>
      <trkpt lat="49.28607" lon="0.18526">
        <ele>12.4</ele>
        <time>2017-05-14T09:23:16Z</time>
      </trkpt>
      <trkpt lat="49.2861" lon="0.18534">
        <ele>12.5</ele>
        <time>2017-05-14T09:23:17Z</time>
      </trkpt>
      <trkpt lat="49.28614" lon="0.18542">
        <ele>12.5</ele>
        <time>2017-05-14T09:23:18Z</time>
      </trkpt>
      <trkpt lat="49.28617" lon="0.1855">
        <ele>12.6</ele>
        <time>2017-05-14T09:23:19Z</time>
      </trkpt>
      <trkpt lat="49.28619" lon="0.18558">
        <ele>12.7</ele>
        <time>2017-05-14T09:23:20Z</time>
      </trkpt>
      <trkpt lat="49.28621" lon="0.18568">
        <ele>12.8</ele>
        <time>2017-05-14T09:23:21Z</time>
      </trkpt>
      <trkpt lat="49.28625" lon="0.18579">
        <ele>13</ele>
        <time>2017-05-14T09:23:22Z</time>
      </trkpt>
      <trkpt lat="49.28628" lon="0.18591">
        <ele>12</ele>
        <time>2017-05-14T09:23:23Z</time>
      </trkpt>
      <trkpt lat="49.28631" lon="0.18601">
        <ele>12</ele>
        <time>2017-05-14T09:23:24Z</time>
      </trkpt>
      <trkpt lat="49.28633" lon="0.18608">
        <ele>12</ele>
        <time>2017-05-14T09:23:25Z</time>
      </trkpt>
      <trkpt lat="49.28634" lon="0.18616">
        <ele>12</ele>
        <time>2017-05-14T09:23:26Z</time>
      </trkpt>
      <trkpt lat="49.28637" lon="0.18623">
        <ele>12</ele>
        <time>2017-05-14T09:23:27Z</time>
      </trkpt>
      <trkpt lat="49.28638" lon="0.18629">
        <ele>12</ele>
        <time>2017-05-14T09:23:28Z</time>
      </trkpt>
      <trkpt lat="49.2864" lon="0.18636">
        <ele>12</ele>
        <time>2017-05-14T09:23:29Z</time>
      </trkpt>
      <trkpt lat="49.28641" lon="0.18641">
        <ele>12</ele>
        <time>2017-05-14T09:23:30Z</time>
      </trkpt>
      <trkpt lat="49.28641" lon="0.18646">
        <ele>11.9</ele>
        <time>2017-05-14T09:23:31Z</time>
      </trkpt>
      <trkpt lat="49.28642" lon="0.1865">
        <ele>11.7</ele>
        <time>2017-05-14T09:23:32Z</time>
      </trkpt>
      <trkpt lat="49.28645" lon="0.18654">
        <ele>11.6</ele>
        <time>2017-05-14T09:23:38Z</time>
      </trkpt>
      <trkpt lat="49.28649" lon="0.18658">
        <ele>11.5</ele>
        <time>2017-05-14T09:23:41Z</time>
      </trkpt>
      <trkpt lat="49.2865" lon="0.18662">
        <ele>11.4</ele>
        <time>2017-05-14T09:23:43Z</time>
      </trkpt>
      <trkpt lat="49.28652" lon="0.18665">
        <ele>11.4</ele>
        <time>2017-05-14T09:23:44Z</time>
      </trkpt>
      <trkpt lat="49.28654" lon="0.18669">
        <ele>11.4</ele>
        <time>2017-05-14T09:23:46Z</time>
      </trkpt>
      <trkpt lat="49.28657" lon="0.18674">
        <ele>11.5</ele>
        <time>2017-05-14T09:23:47Z</time>
      </trkpt>
      <trkpt lat="49.28661" lon="0.1868">
        <ele>11.8</ele>
        <time>2017-05-14T09:23:48Z</time>
      </trkpt>
      <trkpt lat="49.28665" lon="0.18686">
        <ele>11.9</ele>
        <time>2017-05-14T09:23:49Z</time>
      </trkpt>
      <trkpt lat="49.28668" lon="0.18694">
        <ele>12</ele>
        <time>2017-05-14T09:23:50Z</time>
      </trkpt>
      <trkpt lat="49.28671" lon="0.18703">
        <ele>12</ele>
        <time>2017-05-14T09:23:51Z</time>
      </trkpt>
      <trkpt lat="49.28673" lon="0.18712">
        <ele>12</ele>
        <time>2017-05-14T09:23:52Z</time>
      </trkpt>
      <trkpt lat="49.28673" lon="0.18723">
        <ele>12</ele>
        <time>2017-05-14T09:23:53Z</time>
      </trkpt>
      <trkpt lat="49.28674" lon="0.18734">
        <ele>12</ele>
        <time>2017-05-14T09:23:54Z</time>
      </trkpt>
      <trkpt lat="49.28674" lon="0.18746">
        <ele>12</ele>
        <time>2017-05-14T09:23:55Z</time>
      </trkpt>
      <trkpt lat="49.28674" lon="0.18758">
        <ele>12</ele>
        <time>2017-05-14T09:23:56Z</time>
      </trkpt>
      <trkpt lat="49.28675" lon="0.1877">
        <ele>12</ele>
        <time>2017-05-14T09:23:57Z</time>
      </trkpt>
      <trkpt lat="49.28676" lon="0.1878">
        <ele>12</ele>
        <time>2017-05-14T09:23:58Z</time>
      </trkpt>
      <trkpt lat="49.28676" lon="0.18788">
        <ele>12</ele>
        <time>2017-05-14T09:23:59Z</time>
      </trkpt>
      <trkpt lat="49.28676" lon="0.18796">
        <ele>12</ele>
        <time>2017-05-14T09:24:00Z</time>
      </trkpt>
      <trkpt lat="49.28676" lon="0.18804">
        <ele>12.2</ele>
        <time>2017-05-14T09:24:01Z</time>
      </trkpt>
      <trkpt lat="49.28677" lon="0.18812">
        <ele>12.4</ele>
        <time>2017-05-14T09:24:02Z</time>
      </trkpt>
      <trkpt lat="49.28677" lon="0.18822">
        <ele>12.6</ele>
        <time>2017-05-14T09:24:03Z</time>
      </trkpt>
      <trkpt lat="49.28676" lon="0.1883">
        <ele>12.8</ele>
        <time>2017-05-14T09:24:04Z</time>
      </trkpt>
      <trkpt lat="49.28674" lon="0.1884">
        <ele>12.9</ele>
        <time>2017-05-14T09:24:05Z</time>
      </trkpt>
      <trkpt lat="49.28672" lon="0.18849">
        <ele>12.8</ele>
        <time>2017-05-14T09:24:06Z</time>
      </trkpt>
      <trkpt lat="49.28669" lon="0.18857">
        <ele>12.7</ele>
        <time>2017-05-14T09:24:07Z</time>
      </trkpt>
      <trkpt lat="49.28667" lon="0.18865">
        <ele>12.6</ele>
        <time>2017-05-14T09:24:08Z</time>
      </trkpt>
      <trkpt lat="49.28666" lon="0.18874">
        <ele>12.5</ele>
        <time>2017-05-14T09:24:09Z</time>
      </trkpt>
      <trkpt lat="49.28662" lon="0.18882">
        <ele>12.3</ele>
        <time>2017-05-14T09:24:10Z</time>
      </trkpt>
      <trkpt lat="49.28659" lon="0.18892">
        <ele>12.2</ele>
        <time>2017-05-14T09:24:11Z</time>
      </trkpt>
      <trkpt lat="49.28656" lon="0.18902">
        <ele>12</ele>
        <time>2017-05-14T09:24:12Z</time>
      </trkpt>
      <trkpt lat="49.28654" lon="0.18911">
        <ele>11.8</ele>
        <time>2017-05-14T09:24:13Z</time>
      </trkpt>
      <trkpt lat="49.28651" lon="0.18922">
        <ele>11.5</ele>
        <time>2017-05-14T09:24:14Z</time>
      </trkpt>
      <trkpt lat="49.28647" lon="0.18933">
        <ele>11.1</ele>
        <time>2017-05-14T09:24:15Z</time>
      </trkpt>
      <trkpt lat="49.28644" lon="0.18943">
        <ele>10.8</ele>
        <time>2017-05-14T09:24:16Z</time>
      </trkpt>
      <trkpt lat="49.28641" lon="0.18954">
        <ele>10.5</ele>
        <time>2017-05-14T09:24:17Z</time>
      </trkpt>
      <trkpt lat="49.2864" lon="0.18964">
        <ele>10.2</ele>
        <time>2017-05-14T09:24:18Z</time>
      </trkpt>
      <trkpt lat="49.28638" lon="0.18972">
        <ele>10</ele>
        <time>2017-05-14T09:24:19Z</time>
      </trkpt>
      <trkpt lat="49.28636" lon="0.18975">
        <ele>10</ele>
        <time>2017-05-14T09:24:20Z</time>
      </trkpt>
      <trkpt lat="49.28633" lon="0.18978">
        <ele>10</ele>
        <time>2017-05-14T09:24:21Z</time>
      </trkpt>
      <trkpt lat="49.28629" lon="0.18979">
        <ele>10</ele>
        <time>2017-05-14T09:24:23Z</time>
      </trkpt>
      <trkpt lat="49.28626" lon="0.1898">
        <ele>9.9</ele>
        <time>2017-05-14T09:24:25Z</time>
      </trkpt>
      <trkpt lat="49.28624" lon="0.18984">
        <ele>9.7</ele>
        <time>2017-05-14T09:24:27Z</time>
      </trkpt>
      <trkpt lat="49.28621" lon="0.18989">
        <ele>9.5</ele>
        <time>2017-05-14T09:24:29Z</time>
      </trkpt>
      <trkpt lat="49.28618" lon="0.18994">
        <ele>9.3</ele>
        <time>2017-05-14T09:24:31Z</time>
      </trkpt>
      <trkpt lat="49.28611" lon="0.18992">
        <ele>8.9</ele>
        <time>2017-05-14T09:24:35Z</time>
      </trkpt>
      <trkpt lat="49.28605" lon="0.18988">
        <ele>8.5</ele>
        <time>2017-05-14T09:24:36Z</time>
      </trkpt>
      <trkpt lat="49.28601" lon="0.18985">
        <ele>8.4</ele>
        <time>2017-05-14T09:24:37Z</time>
      </trkpt>
      <trkpt lat="49.28598" lon="0.18982">
        <ele>8.2</ele>
        <time>2017-05-14T09:24:38Z</time>
      </trkpt>
      <trkpt lat="49.28595" lon="0.18979">
        <ele>8.2</ele>
        <time>2017-05-14T09:24:39Z</time>
      </trkpt>
    </trkseg>
  </trk>
</gpx>